<?xml version="1.0" encoding="UTF-8" standalone="no" ?>
<gpx xmlns="http://www.topografix.com/GPX/1/1" xmlns:xsi="http://www.w3.org/2001/XMLSchema-instance" xsi:schemaLocation="http://www.topografix.com/GPX/1/1 http://www.topografix.com/GPX/1/1/gpx.xsd" version="1.1" creator="VisuGPX - https://www.visugpx.com">
  <metadata>
    <name>Saint-loup1</name>
  </metadata>
  <trk>
    <name><![CDATA[Saint-loup1_1]]></name>
    <extensions>
      <line xmlns="http://www.topografix.com/GPX/gpx_style/0/2">
        <color>FF0000</color>
        <width>4</width>
      </line>
    </extensions>
    <trkseg>
      <trkpt lat="45.88887" lon="4.51743">
        <ele>356.79998779297</ele>
        <time>2020-03-14T14:39:45.000Z</time>
      </trkpt>
      <trkpt lat="45.8889" lon="4.51744">
        <ele>356.79998779297</ele>
        <time>2020-03-14T14:39:46.000Z</time>
      </trkpt>
      <trkpt lat="45.88892" lon="4.51746">
        <ele>356.79998779297</ele>
        <time>2020-03-14T14:39:47.000Z</time>
      </trkpt>
      <trkpt lat="45.88895" lon="4.51748">
        <ele>356.79998779297</ele>
        <time>2020-03-14T14:39:48.000Z</time>
      </trkpt>
      <trkpt lat="45.88898" lon="4.51751">
        <ele>356.79998779297</ele>
        <time>2020-03-14T14:39:49.000Z</time>
      </trkpt>
      <trkpt lat="45.88901" lon="4.51753">
        <ele>356.79998779297</ele>
        <time>2020-03-14T14:39:50.000Z</time>
      </trkpt>
      <trkpt lat="45.88904" lon="4.51755">
        <ele>356.79998779297</ele>
        <time>2020-03-14T14:39:51.000Z</time>
      </trkpt>
      <trkpt lat="45.88908" lon="4.51757">
        <ele>356.79998779297</ele>
        <time>2020-03-14T14:39:52.000Z</time>
      </trkpt>
      <trkpt lat="45.88908" lon="4.51757">
        <ele>356.79998779297</ele>
        <time>2020-03-14T14:39:52.000Z</time>
      </trkpt>
      <trkpt lat="45.88912" lon="4.51759">
        <ele>356.79998779297</ele>
        <time>2020-03-14T14:39:53.000Z</time>
      </trkpt>
      <trkpt lat="45.88917" lon="4.5176">
        <ele>356.79998779297</ele>
        <time>2020-03-14T14:39:54.000Z</time>
      </trkpt>
      <trkpt lat="45.8892" lon="4.51762">
        <ele>356.60000610352</ele>
        <time>2020-03-14T14:39:55.000Z</time>
      </trkpt>
      <trkpt lat="45.88924" lon="4.51764">
        <ele>356.39999389648</ele>
        <time>2020-03-14T14:39:56.000Z</time>
      </trkpt>
      <trkpt lat="45.88927" lon="4.51766">
        <ele>356.39999389648</ele>
        <time>2020-03-14T14:39:57.000Z</time>
      </trkpt>
      <trkpt lat="45.88931" lon="4.51767">
        <ele>356.20001220703</ele>
        <time>2020-03-14T14:39:58.000Z</time>
      </trkpt>
      <trkpt lat="45.88934" lon="4.51768">
        <ele>356</ele>
        <time>2020-03-14T14:39:59.000Z</time>
      </trkpt>
      <trkpt lat="45.88938" lon="4.5177">
        <ele>356.20001220703</ele>
        <time>2020-03-14T14:40:00.000Z</time>
      </trkpt>
      <trkpt lat="45.8894" lon="4.51772">
        <ele>356.20001220703</ele>
        <time>2020-03-14T14:40:01.000Z</time>
      </trkpt>
      <trkpt lat="45.88944" lon="4.51774">
        <ele>356.20001220703</ele>
        <time>2020-03-14T14:40:02.000Z</time>
      </trkpt>
      <trkpt lat="45.88947" lon="4.51775">
        <ele>356.20001220703</ele>
        <time>2020-03-14T14:40:03.000Z</time>
      </trkpt>
      <trkpt lat="45.88951" lon="4.51778">
        <ele>356.39999389648</ele>
        <time>2020-03-14T14:40:04.000Z</time>
      </trkpt>
      <trkpt lat="45.88954" lon="4.5178">
        <ele>356.39999389648</ele>
        <time>2020-03-14T14:40:05.000Z</time>
      </trkpt>
      <trkpt lat="45.88958" lon="4.51783">
        <ele>356.60000610352</ele>
        <time>2020-03-14T14:40:06.000Z</time>
      </trkpt>
      <trkpt lat="45.88962" lon="4.51786">
        <ele>356.60000610352</ele>
        <time>2020-03-14T14:40:07.000Z</time>
      </trkpt>
      <trkpt lat="45.88966" lon="4.51789">
        <ele>356.79998779297</ele>
        <time>2020-03-14T14:40:08.000Z</time>
      </trkpt>
      <trkpt lat="45.88969" lon="4.51791">
        <ele>357</ele>
        <time>2020-03-14T14:40:09.000Z</time>
      </trkpt>
      <trkpt lat="45.88973" lon="4.51794">
        <ele>357</ele>
        <time>2020-03-14T14:40:10.000Z</time>
      </trkpt>
      <trkpt lat="45.88977" lon="4.51797">
        <ele>357</ele>
        <time>2020-03-14T14:40:11.000Z</time>
      </trkpt>
      <trkpt lat="45.8898" lon="4.518">
        <ele>357</ele>
        <time>2020-03-14T14:40:12.000Z</time>
      </trkpt>
      <trkpt lat="45.88983" lon="4.51803">
        <ele>357.20001220703</ele>
        <time>2020-03-14T14:40:13.000Z</time>
      </trkpt>
      <trkpt lat="45.88988" lon="4.51806">
        <ele>357.39999389648</ele>
        <time>2020-03-14T14:40:14.000Z</time>
      </trkpt>
      <trkpt lat="45.88992" lon="4.51809">
        <ele>357.60000610352</ele>
        <time>2020-03-14T14:40:15.000Z</time>
      </trkpt>
      <trkpt lat="45.88995" lon="4.51811">
        <ele>357.79998779297</ele>
        <time>2020-03-14T14:40:16.000Z</time>
      </trkpt>
      <trkpt lat="45.88998" lon="4.51814">
        <ele>358</ele>
        <time>2020-03-14T14:40:17.000Z</time>
      </trkpt>
      <trkpt lat="45.89002" lon="4.51817">
        <ele>358</ele>
        <time>2020-03-14T14:40:18.000Z</time>
      </trkpt>
      <trkpt lat="45.89005" lon="4.51819">
        <ele>358.20001220703</ele>
        <time>2020-03-14T14:40:19.000Z</time>
      </trkpt>
      <trkpt lat="45.89009" lon="4.51822">
        <ele>358.39999389648</ele>
        <time>2020-03-14T14:40:20.000Z</time>
      </trkpt>
      <trkpt lat="45.89013" lon="4.51825">
        <ele>358.39999389648</ele>
        <time>2020-03-14T14:40:21.000Z</time>
      </trkpt>
      <trkpt lat="45.89017" lon="4.51828">
        <ele>358.39999389648</ele>
        <time>2020-03-14T14:40:22.000Z</time>
      </trkpt>
      <trkpt lat="45.89021" lon="4.5183">
        <ele>358.39999389648</ele>
        <time>2020-03-14T14:40:23.000Z</time>
      </trkpt>
      <trkpt lat="45.89024" lon="4.51832">
        <ele>358.60000610352</ele>
        <time>2020-03-14T14:40:24.000Z</time>
      </trkpt>
      <trkpt lat="45.89028" lon="4.51834">
        <ele>358.79998779297</ele>
        <time>2020-03-14T14:40:25.000Z</time>
      </trkpt>
      <trkpt lat="45.89032" lon="4.51835">
        <ele>358.79998779297</ele>
        <time>2020-03-14T14:40:26.000Z</time>
      </trkpt>
      <trkpt lat="45.89036" lon="4.51837">
        <ele>359</ele>
        <time>2020-03-14T14:40:27.000Z</time>
      </trkpt>
      <trkpt lat="45.8904" lon="4.51838">
        <ele>359</ele>
        <time>2020-03-14T14:40:28.000Z</time>
      </trkpt>
      <trkpt lat="45.89044" lon="4.5184">
        <ele>359.20001220703</ele>
        <time>2020-03-14T14:40:29.000Z</time>
      </trkpt>
      <trkpt lat="45.89048" lon="4.51841">
        <ele>359.39999389648</ele>
        <time>2020-03-14T14:40:30.000Z</time>
      </trkpt>
      <trkpt lat="45.89052" lon="4.51841">
        <ele>359.20001220703</ele>
        <time>2020-03-14T14:40:31.000Z</time>
      </trkpt>
      <trkpt lat="45.89056" lon="4.51842">
        <ele>359.39999389648</ele>
        <time>2020-03-14T14:40:32.000Z</time>
      </trkpt>
      <trkpt lat="45.8906" lon="4.51842">
        <ele>359.39999389648</ele>
        <time>2020-03-14T14:40:33.000Z</time>
      </trkpt>
      <trkpt lat="45.89064" lon="4.51843">
        <ele>359.39999389648</ele>
        <time>2020-03-14T14:40:34.000Z</time>
      </trkpt>
      <trkpt lat="45.89068" lon="4.51843">
        <ele>359.39999389648</ele>
        <time>2020-03-14T14:40:35.000Z</time>
      </trkpt>
      <trkpt lat="45.89072" lon="4.51843">
        <ele>359.60000610352</ele>
        <time>2020-03-14T14:40:36.000Z</time>
      </trkpt>
      <trkpt lat="45.89077" lon="4.51843">
        <ele>359.60000610352</ele>
        <time>2020-03-14T14:40:37.000Z</time>
      </trkpt>
      <trkpt lat="45.89081" lon="4.51843">
        <ele>359.60000610352</ele>
        <time>2020-03-14T14:40:38.000Z</time>
      </trkpt>
      <trkpt lat="45.89086" lon="4.51843">
        <ele>359.39999389648</ele>
        <time>2020-03-14T14:40:39.000Z</time>
      </trkpt>
      <trkpt lat="45.8909" lon="4.51842">
        <ele>359.20001220703</ele>
        <time>2020-03-14T14:40:40.000Z</time>
      </trkpt>
      <trkpt lat="45.89095" lon="4.51841">
        <ele>359</ele>
        <time>2020-03-14T14:40:41.000Z</time>
      </trkpt>
      <trkpt lat="45.891" lon="4.51841">
        <ele>359</ele>
        <time>2020-03-14T14:40:42.000Z</time>
      </trkpt>
      <trkpt lat="45.89105" lon="4.5184">
        <ele>358.79998779297</ele>
        <time>2020-03-14T14:40:43.000Z</time>
      </trkpt>
      <trkpt lat="45.8911" lon="4.51839">
        <ele>358.39999389648</ele>
        <time>2020-03-14T14:40:44.000Z</time>
      </trkpt>
      <trkpt lat="45.89115" lon="4.51837">
        <ele>358</ele>
        <time>2020-03-14T14:40:45.000Z</time>
      </trkpt>
      <trkpt lat="45.8912" lon="4.51836">
        <ele>357.79998779297</ele>
        <time>2020-03-14T14:40:46.000Z</time>
      </trkpt>
      <trkpt lat="45.89124" lon="4.51835">
        <ele>357.60000610352</ele>
        <time>2020-03-14T14:40:47.000Z</time>
      </trkpt>
      <trkpt lat="45.89129" lon="4.51835">
        <ele>357.60000610352</ele>
        <time>2020-03-14T14:40:48.000Z</time>
      </trkpt>
      <trkpt lat="45.89134" lon="4.51833">
        <ele>357.60000610352</ele>
        <time>2020-03-14T14:40:49.000Z</time>
      </trkpt>
      <trkpt lat="45.89138" lon="4.51832">
        <ele>357.60000610352</ele>
        <time>2020-03-14T14:40:50.000Z</time>
      </trkpt>
      <trkpt lat="45.89143" lon="4.5183">
        <ele>357.39999389648</ele>
        <time>2020-03-14T14:40:51.000Z</time>
      </trkpt>
      <trkpt lat="45.89148" lon="4.51829">
        <ele>357.39999389648</ele>
        <time>2020-03-14T14:40:52.000Z</time>
      </trkpt>
      <trkpt lat="45.89152" lon="4.51827">
        <ele>357.20001220703</ele>
        <time>2020-03-14T14:40:53.000Z</time>
      </trkpt>
      <trkpt lat="45.89157" lon="4.51825">
        <ele>357</ele>
        <time>2020-03-14T14:40:54.000Z</time>
      </trkpt>
      <trkpt lat="45.89162" lon="4.51823">
        <ele>357</ele>
        <time>2020-03-14T14:40:55.000Z</time>
      </trkpt>
      <trkpt lat="45.89168" lon="4.5182">
        <ele>356.79998779297</ele>
        <time>2020-03-14T14:40:56.000Z</time>
      </trkpt>
      <trkpt lat="45.89173" lon="4.51816">
        <ele>356.79998779297</ele>
        <time>2020-03-14T14:40:57.000Z</time>
      </trkpt>
      <trkpt lat="45.89179" lon="4.51812">
        <ele>356.60000610352</ele>
        <time>2020-03-14T14:40:58.000Z</time>
      </trkpt>
      <trkpt lat="45.89185" lon="4.51809">
        <ele>356.39999389648</ele>
        <time>2020-03-14T14:40:59.000Z</time>
      </trkpt>
      <trkpt lat="45.89191" lon="4.51805">
        <ele>355.60000610352</ele>
        <time>2020-03-14T14:41:00.000Z</time>
      </trkpt>
      <trkpt lat="45.89197" lon="4.51803">
        <ele>354.79998779297</ele>
        <time>2020-03-14T14:41:01.000Z</time>
      </trkpt>
      <trkpt lat="45.89203" lon="4.51801">
        <ele>354</ele>
        <time>2020-03-14T14:41:02.000Z</time>
      </trkpt>
      <trkpt lat="45.89209" lon="4.518">
        <ele>353.39999389648</ele>
        <time>2020-03-14T14:41:03.000Z</time>
      </trkpt>
      <trkpt lat="45.89214" lon="4.518">
        <ele>353.20001220703</ele>
        <time>2020-03-14T14:41:04.000Z</time>
      </trkpt>
      <trkpt lat="45.89217" lon="4.51801">
        <ele>353</ele>
        <time>2020-03-14T14:41:05.000Z</time>
      </trkpt>
      <trkpt lat="45.8922" lon="4.51805">
        <ele>353</ele>
        <time>2020-03-14T14:41:06.000Z</time>
      </trkpt>
      <trkpt lat="45.89223" lon="4.51809">
        <ele>353</ele>
        <time>2020-03-14T14:41:07.000Z</time>
      </trkpt>
      <trkpt lat="45.89226" lon="4.51813">
        <ele>353</ele>
        <time>2020-03-14T14:41:08.000Z</time>
      </trkpt>
      <trkpt lat="45.8923" lon="4.51818">
        <ele>352.79998779297</ele>
        <time>2020-03-14T14:41:09.000Z</time>
      </trkpt>
      <trkpt lat="45.89234" lon="4.51824">
        <ele>352.79998779297</ele>
        <time>2020-03-14T14:41:10.000Z</time>
      </trkpt>
      <trkpt lat="45.89239" lon="4.5183">
        <ele>352.20001220703</ele>
        <time>2020-03-14T14:41:11.000Z</time>
      </trkpt>
      <trkpt lat="45.89243" lon="4.51836">
        <ele>351.60000610352</ele>
        <time>2020-03-14T14:41:12.000Z</time>
      </trkpt>
      <trkpt lat="45.89248" lon="4.51842">
        <ele>351.20001220703</ele>
        <time>2020-03-14T14:41:13.000Z</time>
      </trkpt>
      <trkpt lat="45.89254" lon="4.51848">
        <ele>350.79998779297</ele>
        <time>2020-03-14T14:41:14.000Z</time>
      </trkpt>
      <trkpt lat="45.8926" lon="4.51853">
        <ele>350.39999389648</ele>
        <time>2020-03-14T14:41:15.000Z</time>
      </trkpt>
      <trkpt lat="45.89267" lon="4.51857">
        <ele>349.60000610352</ele>
        <time>2020-03-14T14:41:16.000Z</time>
      </trkpt>
      <trkpt lat="45.89274" lon="4.51861">
        <ele>349</ele>
        <time>2020-03-14T14:41:17.000Z</time>
      </trkpt>
      <trkpt lat="45.89281" lon="4.51865">
        <ele>348.39999389648</ele>
        <time>2020-03-14T14:41:18.000Z</time>
      </trkpt>
      <trkpt lat="45.89288" lon="4.51868">
        <ele>348</ele>
        <time>2020-03-14T14:41:19.000Z</time>
      </trkpt>
      <trkpt lat="45.89295" lon="4.51871">
        <ele>347.60000610352</ele>
        <time>2020-03-14T14:41:20.000Z</time>
      </trkpt>
      <trkpt lat="45.89302" lon="4.51874">
        <ele>347.20001220703</ele>
        <time>2020-03-14T14:41:21.000Z</time>
      </trkpt>
      <trkpt lat="45.89309" lon="4.51876">
        <ele>347</ele>
        <time>2020-03-14T14:41:22.000Z</time>
      </trkpt>
      <trkpt lat="45.89316" lon="4.51879">
        <ele>346.20001220703</ele>
        <time>2020-03-14T14:41:23.000Z</time>
      </trkpt>
      <trkpt lat="45.89323" lon="4.51882">
        <ele>346</ele>
        <time>2020-03-14T14:41:24.000Z</time>
      </trkpt>
      <trkpt lat="45.8933" lon="4.51884">
        <ele>345.60000610352</ele>
        <time>2020-03-14T14:41:25.000Z</time>
      </trkpt>
      <trkpt lat="45.89338" lon="4.51887">
        <ele>345.20001220703</ele>
        <time>2020-03-14T14:41:26.000Z</time>
      </trkpt>
      <trkpt lat="45.89344" lon="4.5189">
        <ele>345</ele>
        <time>2020-03-14T14:41:27.000Z</time>
      </trkpt>
      <trkpt lat="45.89351" lon="4.51894">
        <ele>344.60000610352</ele>
        <time>2020-03-14T14:41:28.000Z</time>
      </trkpt>
      <trkpt lat="45.89358" lon="4.51898">
        <ele>344.20001220703</ele>
        <time>2020-03-14T14:41:29.000Z</time>
      </trkpt>
      <trkpt lat="45.89364" lon="4.51903">
        <ele>343.60000610352</ele>
        <time>2020-03-14T14:41:30.000Z</time>
      </trkpt>
      <trkpt lat="45.8937" lon="4.5191">
        <ele>343</ele>
        <time>2020-03-14T14:41:31.000Z</time>
      </trkpt>
      <trkpt lat="45.89376" lon="4.51917">
        <ele>342.60000610352</ele>
        <time>2020-03-14T14:41:32.000Z</time>
      </trkpt>
      <trkpt lat="45.89382" lon="4.51924">
        <ele>342.20001220703</ele>
        <time>2020-03-14T14:41:33.000Z</time>
      </trkpt>
      <trkpt lat="45.89387" lon="4.51932">
        <ele>342</ele>
        <time>2020-03-14T14:41:34.000Z</time>
      </trkpt>
      <trkpt lat="45.89391" lon="4.51939">
        <ele>341.60000610352</ele>
        <time>2020-03-14T14:41:35.000Z</time>
      </trkpt>
      <trkpt lat="45.89396" lon="4.51947">
        <ele>341.60000610352</ele>
        <time>2020-03-14T14:41:36.000Z</time>
      </trkpt>
      <trkpt lat="45.89399" lon="4.51954">
        <ele>341.39999389648</ele>
        <time>2020-03-14T14:41:37.000Z</time>
      </trkpt>
      <trkpt lat="45.89402" lon="4.51962">
        <ele>341.20001220703</ele>
        <time>2020-03-14T14:41:38.000Z</time>
      </trkpt>
      <trkpt lat="45.89402" lon="4.51969">
        <ele>341.20001220703</ele>
        <time>2020-03-14T14:41:39.000Z</time>
      </trkpt>
      <trkpt lat="45.89403" lon="4.51976">
        <ele>341.39999389648</ele>
        <time>2020-03-14T14:41:40.000Z</time>
      </trkpt>
      <trkpt lat="45.89402" lon="4.51982">
        <ele>341.39999389648</ele>
        <time>2020-03-14T14:41:41.000Z</time>
      </trkpt>
      <trkpt lat="45.89402" lon="4.51987">
        <ele>341.39999389648</ele>
        <time>2020-03-14T14:41:42.000Z</time>
      </trkpt>
      <trkpt lat="45.89403" lon="4.51992">
        <ele>341.39999389648</ele>
        <time>2020-03-14T14:41:43.000Z</time>
      </trkpt>
      <trkpt lat="45.89404" lon="4.51997">
        <ele>341.39999389648</ele>
        <time>2020-03-14T14:41:44.000Z</time>
      </trkpt>
      <trkpt lat="45.89406" lon="4.52002">
        <ele>341.20001220703</ele>
        <time>2020-03-14T14:41:45.000Z</time>
      </trkpt>
      <trkpt lat="45.89407" lon="4.52006">
        <ele>341.20001220703</ele>
        <time>2020-03-14T14:41:46.000Z</time>
      </trkpt>
      <trkpt lat="45.89409" lon="4.52009">
        <ele>341</ele>
        <time>2020-03-14T14:41:47.000Z</time>
      </trkpt>
      <trkpt lat="45.8941" lon="4.52012">
        <ele>340.79998779297</ele>
        <time>2020-03-14T14:41:48.000Z</time>
      </trkpt>
      <trkpt lat="45.89411" lon="4.52015">
        <ele>340.60000610352</ele>
        <time>2020-03-14T14:41:49.000Z</time>
      </trkpt>
      <trkpt lat="45.89413" lon="4.52017">
        <ele>340.60000610352</ele>
        <time>2020-03-14T14:41:50.000Z</time>
      </trkpt>
      <trkpt lat="45.89414" lon="4.52019">
        <ele>340.39999389648</ele>
        <time>2020-03-14T14:41:51.000Z</time>
      </trkpt>
      <trkpt lat="45.89415" lon="4.52021">
        <ele>340.39999389648</ele>
        <time>2020-03-14T14:41:52.000Z</time>
      </trkpt>
      <trkpt lat="45.89416" lon="4.52024">
        <ele>340.60000610352</ele>
        <time>2020-03-14T14:41:53.000Z</time>
      </trkpt>
      <trkpt lat="45.89417" lon="4.52027">
        <ele>340.60000610352</ele>
        <time>2020-03-14T14:41:54.000Z</time>
      </trkpt>
      <trkpt lat="45.89418" lon="4.5203">
        <ele>340.79998779297</ele>
        <time>2020-03-14T14:41:55.000Z</time>
      </trkpt>
      <trkpt lat="45.89419" lon="4.52034">
        <ele>341</ele>
        <time>2020-03-14T14:41:56.000Z</time>
      </trkpt>
      <trkpt lat="45.8942" lon="4.52038">
        <ele>341.20001220703</ele>
        <time>2020-03-14T14:41:57.000Z</time>
      </trkpt>
      <trkpt lat="45.89423" lon="4.52042">
        <ele>341.20001220703</ele>
        <time>2020-03-14T14:41:58.000Z</time>
      </trkpt>
      <trkpt lat="45.89426" lon="4.52047">
        <ele>340.79998779297</ele>
        <time>2020-03-14T14:41:59.000Z</time>
      </trkpt>
      <trkpt lat="45.8943" lon="4.52052">
        <ele>340.20001220703</ele>
        <time>2020-03-14T14:42:00.000Z</time>
      </trkpt>
      <trkpt lat="45.89435" lon="4.52057">
        <ele>339.39999389648</ele>
        <time>2020-03-14T14:42:01.000Z</time>
      </trkpt>
      <trkpt lat="45.89439" lon="4.5206">
        <ele>339</ele>
        <time>2020-03-14T14:42:02.000Z</time>
      </trkpt>
      <trkpt lat="45.89444" lon="4.52063">
        <ele>338.60000610352</ele>
        <time>2020-03-14T14:42:03.000Z</time>
      </trkpt>
      <trkpt lat="45.89449" lon="4.52066">
        <ele>338.39999389648</ele>
        <time>2020-03-14T14:42:04.000Z</time>
      </trkpt>
      <trkpt lat="45.89454" lon="4.52068">
        <ele>338.20001220703</ele>
        <time>2020-03-14T14:42:05.000Z</time>
      </trkpt>
      <trkpt lat="45.89459" lon="4.52071">
        <ele>338.20001220703</ele>
        <time>2020-03-14T14:42:06.000Z</time>
      </trkpt>
      <trkpt lat="45.89464" lon="4.52073">
        <ele>338.20001220703</ele>
        <time>2020-03-14T14:42:07.000Z</time>
      </trkpt>
      <trkpt lat="45.89469" lon="4.52076">
        <ele>338</ele>
        <time>2020-03-14T14:42:08.000Z</time>
      </trkpt>
      <trkpt lat="45.89474" lon="4.52078">
        <ele>338</ele>
        <time>2020-03-14T14:42:09.000Z</time>
      </trkpt>
      <trkpt lat="45.8948" lon="4.52081">
        <ele>337.60000610352</ele>
        <time>2020-03-14T14:42:10.000Z</time>
      </trkpt>
      <trkpt lat="45.89486" lon="4.52083">
        <ele>337</ele>
        <time>2020-03-14T14:42:11.000Z</time>
      </trkpt>
      <trkpt lat="45.89492" lon="4.52085">
        <ele>336.39999389648</ele>
        <time>2020-03-14T14:42:12.000Z</time>
      </trkpt>
      <trkpt lat="45.89498" lon="4.52086">
        <ele>335.60000610352</ele>
        <time>2020-03-14T14:42:13.000Z</time>
      </trkpt>
      <trkpt lat="45.89503" lon="4.52088">
        <ele>334.79998779297</ele>
        <time>2020-03-14T14:42:14.000Z</time>
      </trkpt>
      <trkpt lat="45.89508" lon="4.5209">
        <ele>334.39999389648</ele>
        <time>2020-03-14T14:42:15.000Z</time>
      </trkpt>
      <trkpt lat="45.89514" lon="4.52091">
        <ele>334</ele>
        <time>2020-03-14T14:42:16.000Z</time>
      </trkpt>
      <trkpt lat="45.89519" lon="4.52092">
        <ele>333.79998779297</ele>
        <time>2020-03-14T14:42:17.000Z</time>
      </trkpt>
      <trkpt lat="45.89525" lon="4.52093">
        <ele>333.39999389648</ele>
        <time>2020-03-14T14:42:18.000Z</time>
      </trkpt>
      <trkpt lat="45.89531" lon="4.52094">
        <ele>333.39999389648</ele>
        <time>2020-03-14T14:42:19.000Z</time>
      </trkpt>
      <trkpt lat="45.89536" lon="4.52095">
        <ele>333.60000610352</ele>
        <time>2020-03-14T14:42:20.000Z</time>
      </trkpt>
      <trkpt lat="45.89541" lon="4.52096">
        <ele>333.79998779297</ele>
        <time>2020-03-14T14:42:21.000Z</time>
      </trkpt>
      <trkpt lat="45.89546" lon="4.52098">
        <ele>333.60000610352</ele>
        <time>2020-03-14T14:42:22.000Z</time>
      </trkpt>
      <trkpt lat="45.89552" lon="4.52099">
        <ele>333.79998779297</ele>
        <time>2020-03-14T14:42:23.000Z</time>
      </trkpt>
      <trkpt lat="45.89557" lon="4.52099">
        <ele>333.39999389648</ele>
        <time>2020-03-14T14:42:24.000Z</time>
      </trkpt>
      <trkpt lat="45.89562" lon="4.52099">
        <ele>333.79998779297</ele>
        <time>2020-03-14T14:42:25.000Z</time>
      </trkpt>
      <trkpt lat="45.89568" lon="4.52099">
        <ele>333.79998779297</ele>
        <time>2020-03-14T14:42:26.000Z</time>
      </trkpt>
      <trkpt lat="45.89574" lon="4.521">
        <ele>333.60000610352</ele>
        <time>2020-03-14T14:42:27.000Z</time>
      </trkpt>
      <trkpt lat="45.89579" lon="4.521">
        <ele>333.39999389648</ele>
        <time>2020-03-14T14:42:28.000Z</time>
      </trkpt>
      <trkpt lat="45.89584" lon="4.521">
        <ele>333</ele>
        <time>2020-03-14T14:42:29.000Z</time>
      </trkpt>
      <trkpt lat="45.89589" lon="4.521">
        <ele>332</ele>
        <time>2020-03-14T14:42:30.000Z</time>
      </trkpt>
      <trkpt lat="45.89594" lon="4.521">
        <ele>330.60000610352</ele>
        <time>2020-03-14T14:42:31.000Z</time>
      </trkpt>
      <trkpt lat="45.89599" lon="4.521">
        <ele>329.79998779297</ele>
        <time>2020-03-14T14:42:32.000Z</time>
      </trkpt>
      <trkpt lat="45.89603" lon="4.52099">
        <ele>329</ele>
        <time>2020-03-14T14:42:33.000Z</time>
      </trkpt>
      <trkpt lat="45.89607" lon="4.521">
        <ele>328.60000610352</ele>
        <time>2020-03-14T14:42:34.000Z</time>
      </trkpt>
      <trkpt lat="45.8961" lon="4.52102">
        <ele>328.39999389648</ele>
        <time>2020-03-14T14:42:35.000Z</time>
      </trkpt>
      <trkpt lat="45.89613" lon="4.52105">
        <ele>328.39999389648</ele>
        <time>2020-03-14T14:42:36.000Z</time>
      </trkpt>
      <trkpt lat="45.89614" lon="4.5211">
        <ele>328.20001220703</ele>
        <time>2020-03-14T14:42:37.000Z</time>
      </trkpt>
      <trkpt lat="45.89615" lon="4.52116">
        <ele>327.79998779297</ele>
        <time>2020-03-14T14:42:38.000Z</time>
      </trkpt>
      <trkpt lat="45.89616" lon="4.52122">
        <ele>327.60000610352</ele>
        <time>2020-03-14T14:42:39.000Z</time>
      </trkpt>
      <trkpt lat="45.89616" lon="4.52128">
        <ele>327.60000610352</ele>
        <time>2020-03-14T14:42:40.000Z</time>
      </trkpt>
      <trkpt lat="45.89617" lon="4.52134">
        <ele>327.60000610352</ele>
        <time>2020-03-14T14:42:41.000Z</time>
      </trkpt>
      <trkpt lat="45.89617" lon="4.5214">
        <ele>327</ele>
        <time>2020-03-14T14:42:42.000Z</time>
      </trkpt>
      <trkpt lat="45.89618" lon="4.52147">
        <ele>326.39999389648</ele>
        <time>2020-03-14T14:42:43.000Z</time>
      </trkpt>
      <trkpt lat="45.89619" lon="4.52154">
        <ele>325.79998779297</ele>
        <time>2020-03-14T14:42:44.000Z</time>
      </trkpt>
      <trkpt lat="45.89621" lon="4.52162">
        <ele>325</ele>
        <time>2020-03-14T14:42:45.000Z</time>
      </trkpt>
      <trkpt lat="45.89623" lon="4.52169">
        <ele>324.39999389648</ele>
        <time>2020-03-14T14:42:46.000Z</time>
      </trkpt>
      <trkpt lat="45.89626" lon="4.52175">
        <ele>323.60000610352</ele>
        <time>2020-03-14T14:42:47.000Z</time>
      </trkpt>
      <trkpt lat="45.89629" lon="4.52182">
        <ele>322.79998779297</ele>
        <time>2020-03-14T14:42:48.000Z</time>
      </trkpt>
      <trkpt lat="45.89632" lon="4.52188">
        <ele>322</ele>
        <time>2020-03-14T14:42:49.000Z</time>
      </trkpt>
      <trkpt lat="45.89636" lon="4.52193">
        <ele>321.39999389648</ele>
        <time>2020-03-14T14:42:50.000Z</time>
      </trkpt>
      <trkpt lat="45.8964" lon="4.52197">
        <ele>321</ele>
        <time>2020-03-14T14:42:51.000Z</time>
      </trkpt>
      <trkpt lat="45.89645" lon="4.522">
        <ele>320.60000610352</ele>
        <time>2020-03-14T14:42:52.000Z</time>
      </trkpt>
      <trkpt lat="45.89652" lon="4.52203">
        <ele>320.20001220703</ele>
        <time>2020-03-14T14:42:53.000Z</time>
      </trkpt>
      <trkpt lat="45.89657" lon="4.52205">
        <ele>320</ele>
        <time>2020-03-14T14:42:54.000Z</time>
      </trkpt>
      <trkpt lat="45.89664" lon="4.52208">
        <ele>319.79998779297</ele>
        <time>2020-03-14T14:42:55.000Z</time>
      </trkpt>
      <trkpt lat="45.8967" lon="4.52209">
        <ele>319.39999389648</ele>
        <time>2020-03-14T14:42:56.000Z</time>
      </trkpt>
      <trkpt lat="45.89676" lon="4.52209">
        <ele>319</ele>
        <time>2020-03-14T14:42:57.000Z</time>
      </trkpt>
      <trkpt lat="45.89682" lon="4.52209">
        <ele>318.39999389648</ele>
        <time>2020-03-14T14:42:58.000Z</time>
      </trkpt>
      <trkpt lat="45.89687" lon="4.5221">
        <ele>317.60000610352</ele>
        <time>2020-03-14T14:42:59.000Z</time>
      </trkpt>
      <trkpt lat="45.89692" lon="4.52212">
        <ele>317.20001220703</ele>
        <time>2020-03-14T14:43:00.000Z</time>
      </trkpt>
      <trkpt lat="45.89697" lon="4.52214">
        <ele>317</ele>
        <time>2020-03-14T14:43:01.000Z</time>
      </trkpt>
      <trkpt lat="45.89701" lon="4.52217">
        <ele>317</ele>
        <time>2020-03-14T14:43:02.000Z</time>
      </trkpt>
      <trkpt lat="45.89706" lon="4.5222">
        <ele>316.79998779297</ele>
        <time>2020-03-14T14:43:03.000Z</time>
      </trkpt>
      <trkpt lat="45.8971" lon="4.52224">
        <ele>316.60000610352</ele>
        <time>2020-03-14T14:43:04.000Z</time>
      </trkpt>
      <trkpt lat="45.89715" lon="4.52227">
        <ele>316.60000610352</ele>
        <time>2020-03-14T14:43:05.000Z</time>
      </trkpt>
      <trkpt lat="45.89719" lon="4.52229">
        <ele>316.60000610352</ele>
        <time>2020-03-14T14:43:06.000Z</time>
      </trkpt>
      <trkpt lat="45.89723" lon="4.52232">
        <ele>316.20001220703</ele>
        <time>2020-03-14T14:43:07.000Z</time>
      </trkpt>
      <trkpt lat="45.89728" lon="4.52234">
        <ele>316</ele>
        <time>2020-03-14T14:43:08.000Z</time>
      </trkpt>
      <trkpt lat="45.89732" lon="4.52236">
        <ele>315.79998779297</ele>
        <time>2020-03-14T14:43:09.000Z</time>
      </trkpt>
      <trkpt lat="45.89736" lon="4.52238">
        <ele>315.79998779297</ele>
        <time>2020-03-14T14:43:10.000Z</time>
      </trkpt>
      <trkpt lat="45.89739" lon="4.52239">
        <ele>315.79998779297</ele>
        <time>2020-03-14T14:43:11.000Z</time>
      </trkpt>
      <trkpt lat="45.89743" lon="4.5224">
        <ele>315.79998779297</ele>
        <time>2020-03-14T14:43:12.000Z</time>
      </trkpt>
      <trkpt lat="45.89746" lon="4.5224">
        <ele>316</ele>
        <time>2020-03-14T14:43:13.000Z</time>
      </trkpt>
      <trkpt lat="45.89748" lon="4.5224">
        <ele>316.20001220703</ele>
        <time>2020-03-14T14:43:14.000Z</time>
      </trkpt>
      <trkpt lat="45.8975" lon="4.52239">
        <ele>316.39999389648</ele>
        <time>2020-03-14T14:43:15.000Z</time>
      </trkpt>
      <trkpt lat="45.89751" lon="4.52238">
        <ele>316.79998779297</ele>
        <time>2020-03-14T14:43:16.000Z</time>
      </trkpt>
      <trkpt lat="45.89752" lon="4.52237">
        <ele>317</ele>
        <time>2020-03-14T14:43:17.000Z</time>
      </trkpt>
      <trkpt lat="45.89753" lon="4.52236">
        <ele>317.20001220703</ele>
        <time>2020-03-14T14:43:18.000Z</time>
      </trkpt>
      <trkpt lat="45.89753" lon="4.52235">
        <ele>317.39999389648</ele>
        <time>2020-03-14T14:43:19.000Z</time>
      </trkpt>
      <trkpt lat="45.89754" lon="4.52235">
        <ele>317.60000610352</ele>
        <time>2020-03-14T14:43:20.000Z</time>
      </trkpt>
      <trkpt lat="45.89754" lon="4.52235">
        <ele>317.60000610352</ele>
        <time>2020-03-14T14:43:21.000Z</time>
      </trkpt>
      <trkpt lat="45.89754" lon="4.52235">
        <ele>317.79998779297</ele>
        <time>2020-03-14T14:43:22.000Z</time>
      </trkpt>
      <trkpt lat="45.89755" lon="4.52235">
        <ele>318</ele>
        <time>2020-03-14T14:43:23.000Z</time>
      </trkpt>
      <trkpt lat="45.89755" lon="4.52235">
        <ele>318</ele>
        <time>2020-03-14T14:43:24.000Z</time>
      </trkpt>
      <trkpt lat="45.89755" lon="4.52235">
        <ele>318</ele>
        <time>2020-03-14T14:43:25.000Z</time>
      </trkpt>
      <trkpt lat="45.89755" lon="4.52234">
        <ele>318</ele>
        <time>2020-03-14T14:43:26.000Z</time>
      </trkpt>
      <trkpt lat="45.89755" lon="4.52233">
        <ele>318</ele>
        <time>2020-03-14T14:43:27.000Z</time>
      </trkpt>
      <trkpt lat="45.89755" lon="4.52233">
        <ele>318</ele>
        <time>2020-03-14T14:43:28.000Z</time>
      </trkpt>
      <trkpt lat="45.89755" lon="4.52232">
        <ele>317.79998779297</ele>
        <time>2020-03-14T14:43:29.000Z</time>
      </trkpt>
      <trkpt lat="45.89755" lon="4.52231">
        <ele>317.60000610352</ele>
        <time>2020-03-14T14:43:30.000Z</time>
      </trkpt>
      <trkpt lat="45.89756" lon="4.52231">
        <ele>317.60000610352</ele>
        <time>2020-03-14T14:43:31.000Z</time>
      </trkpt>
      <trkpt lat="45.89756" lon="4.5223">
        <ele>317.39999389648</ele>
        <time>2020-03-14T14:43:32.000Z</time>
      </trkpt>
      <trkpt lat="45.89756" lon="4.5223">
        <ele>316.60000610352</ele>
        <time>2020-03-14T14:43:33.000Z</time>
      </trkpt>
      <trkpt lat="45.89756" lon="4.5223">
        <ele>316.60000610352</ele>
        <time>2020-03-14T14:43:34.000Z</time>
      </trkpt>
      <trkpt lat="45.89756" lon="4.5223">
        <ele>316.60000610352</ele>
        <time>2020-03-14T14:43:35.000Z</time>
      </trkpt>
      <trkpt lat="45.89756" lon="4.5223">
        <ele>316.60000610352</ele>
        <time>2020-03-14T14:43:36.000Z</time>
      </trkpt>
      <trkpt lat="45.89756" lon="4.5223">
        <ele>316.60000610352</ele>
        <time>2020-03-14T14:43:37.000Z</time>
      </trkpt>
      <trkpt lat="45.89756" lon="4.5223">
        <ele>316.60000610352</ele>
        <time>2020-03-14T14:43:38.000Z</time>
      </trkpt>
      <trkpt lat="45.89756" lon="4.52231">
        <ele>316.60000610352</ele>
        <time>2020-03-14T14:43:39.000Z</time>
      </trkpt>
      <trkpt lat="45.89756" lon="4.52231">
        <ele>316.60000610352</ele>
        <time>2020-03-14T14:43:40.000Z</time>
      </trkpt>
      <trkpt lat="45.89756" lon="4.52231">
        <ele>316.60000610352</ele>
        <time>2020-03-14T14:43:41.000Z</time>
      </trkpt>
      <trkpt lat="45.89756" lon="4.5223">
        <ele>316.60000610352</ele>
        <time>2020-03-14T14:43:42.000Z</time>
      </trkpt>
      <trkpt lat="45.89756" lon="4.52228">
        <ele>316.60000610352</ele>
        <time>2020-03-14T14:43:43.000Z</time>
      </trkpt>
      <trkpt lat="45.89756" lon="4.52227">
        <ele>316.60000610352</ele>
        <time>2020-03-14T14:43:44.000Z</time>
      </trkpt>
      <trkpt lat="45.89757" lon="4.52227">
        <ele>316.60000610352</ele>
        <time>2020-03-14T14:43:45.000Z</time>
      </trkpt>
      <trkpt lat="45.89757" lon="4.52228">
        <ele>316.60000610352</ele>
        <time>2020-03-14T14:43:46.000Z</time>
      </trkpt>
      <trkpt lat="45.89757" lon="4.52229">
        <ele>316.60000610352</ele>
        <time>2020-03-14T14:43:47.000Z</time>
      </trkpt>
      <trkpt lat="45.89757" lon="4.5223">
        <ele>316.60000610352</ele>
        <time>2020-03-14T14:43:48.000Z</time>
      </trkpt>
      <trkpt lat="45.89758" lon="4.5223">
        <ele>316.60000610352</ele>
        <time>2020-03-14T14:43:49.000Z</time>
      </trkpt>
      <trkpt lat="45.89758" lon="4.5223">
        <ele>316.60000610352</ele>
        <time>2020-03-14T14:43:50.000Z</time>
      </trkpt>
      <trkpt lat="45.89758" lon="4.5223">
        <ele>316.60000610352</ele>
        <time>2020-03-14T14:43:51.000Z</time>
      </trkpt>
      <trkpt lat="45.89758" lon="4.5223">
        <ele>316.60000610352</ele>
        <time>2020-03-14T14:43:52.000Z</time>
      </trkpt>
      <trkpt lat="45.89758" lon="4.5223">
        <ele>316.60000610352</ele>
        <time>2020-03-14T14:43:53.000Z</time>
      </trkpt>
      <trkpt lat="45.89758" lon="4.5223">
        <ele>316.60000610352</ele>
        <time>2020-03-14T14:43:54.000Z</time>
      </trkpt>
      <trkpt lat="45.89758" lon="4.52231">
        <ele>316.60000610352</ele>
        <time>2020-03-14T14:43:55.000Z</time>
      </trkpt>
      <trkpt lat="45.89757" lon="4.52231">
        <ele>316.60000610352</ele>
        <time>2020-03-14T14:43:56.000Z</time>
      </trkpt>
      <trkpt lat="45.89757" lon="4.52231">
        <ele>316.60000610352</ele>
        <time>2020-03-14T14:43:57.000Z</time>
      </trkpt>
      <trkpt lat="45.89757" lon="4.52231">
        <ele>316.60000610352</ele>
        <time>2020-03-14T14:43:58.000Z</time>
      </trkpt>
      <trkpt lat="45.89757" lon="4.52231">
        <ele>316.60000610352</ele>
        <time>2020-03-14T14:43:59.000Z</time>
      </trkpt>
      <trkpt lat="45.89757" lon="4.5223">
        <ele>316.60000610352</ele>
        <time>2020-03-14T14:44:00.000Z</time>
      </trkpt>
      <trkpt lat="45.89757" lon="4.5223">
        <ele>316.60000610352</ele>
        <time>2020-03-14T14:44:01.000Z</time>
      </trkpt>
      <trkpt lat="45.89757" lon="4.52229">
        <ele>316.60000610352</ele>
        <time>2020-03-14T14:44:02.000Z</time>
      </trkpt>
      <trkpt lat="45.89758" lon="4.52228">
        <ele>316.60000610352</ele>
        <time>2020-03-14T14:44:03.000Z</time>
      </trkpt>
      <trkpt lat="45.89758" lon="4.52228">
        <ele>316.60000610352</ele>
        <time>2020-03-14T14:44:04.000Z</time>
      </trkpt>
      <trkpt lat="45.89758" lon="4.52228">
        <ele>316.60000610352</ele>
        <time>2020-03-14T14:44:05.000Z</time>
      </trkpt>
      <trkpt lat="45.89758" lon="4.52227">
        <ele>316.60000610352</ele>
        <time>2020-03-14T14:44:06.000Z</time>
      </trkpt>
      <trkpt lat="45.89758" lon="4.52227">
        <ele>316.60000610352</ele>
        <time>2020-03-14T14:44:07.000Z</time>
      </trkpt>
      <trkpt lat="45.89758" lon="4.52226">
        <ele>316.60000610352</ele>
        <time>2020-03-14T14:44:08.000Z</time>
      </trkpt>
      <trkpt lat="45.89758" lon="4.52225">
        <ele>316.60000610352</ele>
        <time>2020-03-14T14:44:09.000Z</time>
      </trkpt>
      <trkpt lat="45.89759" lon="4.52224">
        <ele>316.60000610352</ele>
        <time>2020-03-14T14:44:10.000Z</time>
      </trkpt>
      <trkpt lat="45.8976" lon="4.52222">
        <ele>316.60000610352</ele>
        <time>2020-03-14T14:44:11.000Z</time>
      </trkpt>
      <trkpt lat="45.89761" lon="4.5222">
        <ele>316.60000610352</ele>
        <time>2020-03-14T14:44:12.000Z</time>
      </trkpt>
      <trkpt lat="45.89762" lon="4.52218">
        <ele>316.60000610352</ele>
        <time>2020-03-14T14:44:13.000Z</time>
      </trkpt>
      <trkpt lat="45.89764" lon="4.52215">
        <ele>316.20001220703</ele>
        <time>2020-03-14T14:44:14.000Z</time>
      </trkpt>
      <trkpt lat="45.89765" lon="4.52213">
        <ele>316</ele>
        <time>2020-03-14T14:44:15.000Z</time>
      </trkpt>
      <trkpt lat="45.89766" lon="4.52211">
        <ele>315.79998779297</ele>
        <time>2020-03-14T14:44:16.000Z</time>
      </trkpt>
      <trkpt lat="45.89766" lon="4.52209">
        <ele>315.60000610352</ele>
        <time>2020-03-14T14:44:17.000Z</time>
      </trkpt>
      <trkpt lat="45.89767" lon="4.52207">
        <ele>315.39999389648</ele>
        <time>2020-03-14T14:44:18.000Z</time>
      </trkpt>
      <trkpt lat="45.89768" lon="4.52204">
        <ele>315.20001220703</ele>
        <time>2020-03-14T14:44:19.000Z</time>
      </trkpt>
      <trkpt lat="45.89769" lon="4.52201">
        <ele>315.20001220703</ele>
        <time>2020-03-14T14:44:20.000Z</time>
      </trkpt>
      <trkpt lat="45.89771" lon="4.52197">
        <ele>315.20001220703</ele>
        <time>2020-03-14T14:44:21.000Z</time>
      </trkpt>
      <trkpt lat="45.89773" lon="4.52194">
        <ele>315</ele>
        <time>2020-03-14T14:44:22.000Z</time>
      </trkpt>
      <trkpt lat="45.89775" lon="4.5219">
        <ele>315</ele>
        <time>2020-03-14T14:44:23.000Z</time>
      </trkpt>
      <trkpt lat="45.89776" lon="4.52186">
        <ele>315</ele>
        <time>2020-03-14T14:44:24.000Z</time>
      </trkpt>
      <trkpt lat="45.89778" lon="4.52183">
        <ele>315</ele>
        <time>2020-03-14T14:44:25.000Z</time>
      </trkpt>
      <trkpt lat="45.8978" lon="4.5218">
        <ele>314.79998779297</ele>
        <time>2020-03-14T14:44:26.000Z</time>
      </trkpt>
      <trkpt lat="45.89782" lon="4.52176">
        <ele>314.60000610352</ele>
        <time>2020-03-14T14:44:27.000Z</time>
      </trkpt>
      <trkpt lat="45.89784" lon="4.52173">
        <ele>314.60000610352</ele>
        <time>2020-03-14T14:44:28.000Z</time>
      </trkpt>
      <trkpt lat="45.89787" lon="4.52169">
        <ele>314.39999389648</ele>
        <time>2020-03-14T14:44:29.000Z</time>
      </trkpt>
      <trkpt lat="45.89789" lon="4.52165">
        <ele>314.39999389648</ele>
        <time>2020-03-14T14:44:30.000Z</time>
      </trkpt>
      <trkpt lat="45.89791" lon="4.52161">
        <ele>314.20001220703</ele>
        <time>2020-03-14T14:44:31.000Z</time>
      </trkpt>
      <trkpt lat="45.89793" lon="4.52158">
        <ele>314</ele>
        <time>2020-03-14T14:44:32.000Z</time>
      </trkpt>
      <trkpt lat="45.89795" lon="4.52154">
        <ele>314</ele>
        <time>2020-03-14T14:44:33.000Z</time>
      </trkpt>
      <trkpt lat="45.89797" lon="4.5215">
        <ele>314</ele>
        <time>2020-03-14T14:44:34.000Z</time>
      </trkpt>
      <trkpt lat="45.89799" lon="4.52147">
        <ele>313.79998779297</ele>
        <time>2020-03-14T14:44:35.000Z</time>
      </trkpt>
      <trkpt lat="45.89801" lon="4.52144">
        <ele>313.79998779297</ele>
        <time>2020-03-14T14:44:36.000Z</time>
      </trkpt>
      <trkpt lat="45.89803" lon="4.52141">
        <ele>313.79998779297</ele>
        <time>2020-03-14T14:44:37.000Z</time>
      </trkpt>
      <trkpt lat="45.89805" lon="4.52138">
        <ele>313.60000610352</ele>
        <time>2020-03-14T14:44:38.000Z</time>
      </trkpt>
      <trkpt lat="45.89807" lon="4.52135">
        <ele>313.39999389648</ele>
        <time>2020-03-14T14:44:39.000Z</time>
      </trkpt>
      <trkpt lat="45.89809" lon="4.52131">
        <ele>313.20001220703</ele>
        <time>2020-03-14T14:44:40.000Z</time>
      </trkpt>
      <trkpt lat="45.89811" lon="4.52128">
        <ele>313.20001220703</ele>
        <time>2020-03-14T14:44:41.000Z</time>
      </trkpt>
      <trkpt lat="45.89813" lon="4.52124">
        <ele>313</ele>
        <time>2020-03-14T14:44:42.000Z</time>
      </trkpt>
      <trkpt lat="45.89815" lon="4.5212">
        <ele>313</ele>
        <time>2020-03-14T14:44:43.000Z</time>
      </trkpt>
      <trkpt lat="45.89817" lon="4.52117">
        <ele>313</ele>
        <time>2020-03-14T14:44:44.000Z</time>
      </trkpt>
      <trkpt lat="45.89819" lon="4.52113">
        <ele>313</ele>
        <time>2020-03-14T14:44:45.000Z</time>
      </trkpt>
      <trkpt lat="45.89821" lon="4.52109">
        <ele>313.20001220703</ele>
        <time>2020-03-14T14:44:46.000Z</time>
      </trkpt>
      <trkpt lat="45.89823" lon="4.52105">
        <ele>313.39999389648</ele>
        <time>2020-03-14T14:44:47.000Z</time>
      </trkpt>
      <trkpt lat="45.89825" lon="4.52102">
        <ele>313.20001220703</ele>
        <time>2020-03-14T14:44:48.000Z</time>
      </trkpt>
      <trkpt lat="45.89827" lon="4.52098">
        <ele>313.39999389648</ele>
        <time>2020-03-14T14:44:49.000Z</time>
      </trkpt>
      <trkpt lat="45.89829" lon="4.52094">
        <ele>313.39999389648</ele>
        <time>2020-03-14T14:44:50.000Z</time>
      </trkpt>
      <trkpt lat="45.8983" lon="4.52091">
        <ele>313.39999389648</ele>
        <time>2020-03-14T14:44:51.000Z</time>
      </trkpt>
      <trkpt lat="45.89832" lon="4.52087">
        <ele>313</ele>
        <time>2020-03-14T14:44:52.000Z</time>
      </trkpt>
      <trkpt lat="45.89834" lon="4.52084">
        <ele>312.60000610352</ele>
        <time>2020-03-14T14:44:53.000Z</time>
      </trkpt>
      <trkpt lat="45.89836" lon="4.5208">
        <ele>312.20001220703</ele>
        <time>2020-03-14T14:44:54.000Z</time>
      </trkpt>
      <trkpt lat="45.89838" lon="4.52077">
        <ele>312</ele>
        <time>2020-03-14T14:44:55.000Z</time>
      </trkpt>
      <trkpt lat="45.89839" lon="4.52074">
        <ele>312</ele>
        <time>2020-03-14T14:44:56.000Z</time>
      </trkpt>
      <trkpt lat="45.89841" lon="4.52071">
        <ele>312</ele>
        <time>2020-03-14T14:44:57.000Z</time>
      </trkpt>
      <trkpt lat="45.89843" lon="4.52067">
        <ele>311.79998779297</ele>
        <time>2020-03-14T14:44:58.000Z</time>
      </trkpt>
      <trkpt lat="45.89844" lon="4.52064">
        <ele>311.79998779297</ele>
        <time>2020-03-14T14:44:59.000Z</time>
      </trkpt>
      <trkpt lat="45.89846" lon="4.5206">
        <ele>311.60000610352</ele>
        <time>2020-03-14T14:45:00.000Z</time>
      </trkpt>
      <trkpt lat="45.89848" lon="4.52057">
        <ele>311.39999389648</ele>
        <time>2020-03-14T14:45:01.000Z</time>
      </trkpt>
      <trkpt lat="45.89849" lon="4.52054">
        <ele>311.39999389648</ele>
        <time>2020-03-14T14:45:02.000Z</time>
      </trkpt>
      <trkpt lat="45.8985" lon="4.52051">
        <ele>311.20001220703</ele>
        <time>2020-03-14T14:45:03.000Z</time>
      </trkpt>
      <trkpt lat="45.89851" lon="4.52048">
        <ele>311</ele>
        <time>2020-03-14T14:45:04.000Z</time>
      </trkpt>
      <trkpt lat="45.89852" lon="4.52045">
        <ele>311</ele>
        <time>2020-03-14T14:45:05.000Z</time>
      </trkpt>
      <trkpt lat="45.89852" lon="4.52042">
        <ele>311</ele>
        <time>2020-03-14T14:45:06.000Z</time>
      </trkpt>
      <trkpt lat="45.89853" lon="4.52038">
        <ele>310.60000610352</ele>
        <time>2020-03-14T14:45:07.000Z</time>
      </trkpt>
      <trkpt lat="45.89854" lon="4.52034">
        <ele>310.39999389648</ele>
        <time>2020-03-14T14:45:08.000Z</time>
      </trkpt>
      <trkpt lat="45.89854" lon="4.52029">
        <ele>310.60000610352</ele>
        <time>2020-03-14T14:45:09.000Z</time>
      </trkpt>
      <trkpt lat="45.89855" lon="4.52025">
        <ele>310.60000610352</ele>
        <time>2020-03-14T14:45:10.000Z</time>
      </trkpt>
      <trkpt lat="45.89855" lon="4.5202">
        <ele>310.20001220703</ele>
        <time>2020-03-14T14:45:11.000Z</time>
      </trkpt>
      <trkpt lat="45.89855" lon="4.52016">
        <ele>309.60000610352</ele>
        <time>2020-03-14T14:45:12.000Z</time>
      </trkpt>
      <trkpt lat="45.89856" lon="4.52011">
        <ele>309.39999389648</ele>
        <time>2020-03-14T14:45:13.000Z</time>
      </trkpt>
      <trkpt lat="45.89857" lon="4.52005">
        <ele>309.20001220703</ele>
        <time>2020-03-14T14:45:14.000Z</time>
      </trkpt>
      <trkpt lat="45.89858" lon="4.51999">
        <ele>308.79998779297</ele>
        <time>2020-03-14T14:45:15.000Z</time>
      </trkpt>
      <trkpt lat="45.89859" lon="4.51993">
        <ele>308.60000610352</ele>
        <time>2020-03-14T14:45:16.000Z</time>
      </trkpt>
      <trkpt lat="45.8986" lon="4.51987">
        <ele>308.39999389648</ele>
        <time>2020-03-14T14:45:17.000Z</time>
      </trkpt>
      <trkpt lat="45.89861" lon="4.51982">
        <ele>308.20001220703</ele>
        <time>2020-03-14T14:45:18.000Z</time>
      </trkpt>
      <trkpt lat="45.89862" lon="4.51977">
        <ele>308</ele>
        <time>2020-03-14T14:45:19.000Z</time>
      </trkpt>
      <trkpt lat="45.89863" lon="4.51972">
        <ele>307.60000610352</ele>
        <time>2020-03-14T14:45:20.000Z</time>
      </trkpt>
      <trkpt lat="45.89864" lon="4.51967">
        <ele>307.39999389648</ele>
        <time>2020-03-14T14:45:21.000Z</time>
      </trkpt>
      <trkpt lat="45.89864" lon="4.51963">
        <ele>307.20001220703</ele>
        <time>2020-03-14T14:45:22.000Z</time>
      </trkpt>
      <trkpt lat="45.89865" lon="4.5196">
        <ele>307</ele>
        <time>2020-03-14T14:45:23.000Z</time>
      </trkpt>
      <trkpt lat="45.89866" lon="4.51958">
        <ele>306.79998779297</ele>
        <time>2020-03-14T14:45:24.000Z</time>
      </trkpt>
      <trkpt lat="45.89866" lon="4.51955">
        <ele>306.79998779297</ele>
        <time>2020-03-14T14:45:25.000Z</time>
      </trkpt>
      <trkpt lat="45.89867" lon="4.51953">
        <ele>306.79998779297</ele>
        <time>2020-03-14T14:45:26.000Z</time>
      </trkpt>
      <trkpt lat="45.89867" lon="4.5195">
        <ele>306.79998779297</ele>
        <time>2020-03-14T14:45:27.000Z</time>
      </trkpt>
      <trkpt lat="45.89868" lon="4.51947">
        <ele>306.79998779297</ele>
        <time>2020-03-14T14:45:28.000Z</time>
      </trkpt>
      <trkpt lat="45.89868" lon="4.51945">
        <ele>307</ele>
        <time>2020-03-14T14:45:29.000Z</time>
      </trkpt>
      <trkpt lat="45.89868" lon="4.51942">
        <ele>306.79998779297</ele>
        <time>2020-03-14T14:45:30.000Z</time>
      </trkpt>
      <trkpt lat="45.89869" lon="4.51939">
        <ele>306.60000610352</ele>
        <time>2020-03-14T14:45:31.000Z</time>
      </trkpt>
      <trkpt lat="45.89869" lon="4.51937">
        <ele>306.79998779297</ele>
        <time>2020-03-14T14:45:32.000Z</time>
      </trkpt>
      <trkpt lat="45.89869" lon="4.51935">
        <ele>306.60000610352</ele>
        <time>2020-03-14T14:45:33.000Z</time>
      </trkpt>
      <trkpt lat="45.8987" lon="4.51933">
        <ele>306.39999389648</ele>
        <time>2020-03-14T14:45:34.000Z</time>
      </trkpt>
      <trkpt lat="45.89871" lon="4.51931">
        <ele>306.20001220703</ele>
        <time>2020-03-14T14:45:35.000Z</time>
      </trkpt>
      <trkpt lat="45.89872" lon="4.51929">
        <ele>306.20001220703</ele>
        <time>2020-03-14T14:45:36.000Z</time>
      </trkpt>
      <trkpt lat="45.89873" lon="4.51927">
        <ele>306.20001220703</ele>
        <time>2020-03-14T14:45:37.000Z</time>
      </trkpt>
      <trkpt lat="45.89873" lon="4.51925">
        <ele>306.60000610352</ele>
        <time>2020-03-14T14:45:38.000Z</time>
      </trkpt>
      <trkpt lat="45.89873" lon="4.51922">
        <ele>306.60000610352</ele>
        <time>2020-03-14T14:45:39.000Z</time>
      </trkpt>
      <trkpt lat="45.89874" lon="4.51919">
        <ele>306.60000610352</ele>
        <time>2020-03-14T14:45:40.000Z</time>
      </trkpt>
      <trkpt lat="45.89874" lon="4.51917">
        <ele>306.79998779297</ele>
        <time>2020-03-14T14:45:41.000Z</time>
      </trkpt>
      <trkpt lat="45.89875" lon="4.51914">
        <ele>306.79998779297</ele>
        <time>2020-03-14T14:45:42.000Z</time>
      </trkpt>
      <trkpt lat="45.89876" lon="4.51912">
        <ele>306.79998779297</ele>
        <time>2020-03-14T14:45:43.000Z</time>
      </trkpt>
      <trkpt lat="45.89876" lon="4.51909">
        <ele>306.79998779297</ele>
        <time>2020-03-14T14:45:44.000Z</time>
      </trkpt>
      <trkpt lat="45.89876" lon="4.51907">
        <ele>307</ele>
        <time>2020-03-14T14:45:45.000Z</time>
      </trkpt>
      <trkpt lat="45.89876" lon="4.51905">
        <ele>307</ele>
        <time>2020-03-14T14:45:46.000Z</time>
      </trkpt>
      <trkpt lat="45.89877" lon="4.51903">
        <ele>307.20001220703</ele>
        <time>2020-03-14T14:45:47.000Z</time>
      </trkpt>
      <trkpt lat="45.89877" lon="4.51901">
        <ele>307.39999389648</ele>
        <time>2020-03-14T14:45:48.000Z</time>
      </trkpt>
      <trkpt lat="45.89877" lon="4.51898">
        <ele>307.60000610352</ele>
        <time>2020-03-14T14:45:49.000Z</time>
      </trkpt>
      <trkpt lat="45.89877" lon="4.51896">
        <ele>307.60000610352</ele>
        <time>2020-03-14T14:45:50.000Z</time>
      </trkpt>
      <trkpt lat="45.89878" lon="4.51895">
        <ele>307.79998779297</ele>
        <time>2020-03-14T14:45:51.000Z</time>
      </trkpt>
      <trkpt lat="45.89879" lon="4.51891">
        <ele>307.79998779297</ele>
        <time>2020-03-14T14:45:52.000Z</time>
      </trkpt>
      <trkpt lat="45.89879" lon="4.51888">
        <ele>307.79998779297</ele>
        <time>2020-03-14T14:45:53.000Z</time>
      </trkpt>
      <trkpt lat="45.8988" lon="4.51885">
        <ele>307.79998779297</ele>
        <time>2020-03-14T14:45:54.000Z</time>
      </trkpt>
      <trkpt lat="45.8988" lon="4.51881">
        <ele>307.79998779297</ele>
        <time>2020-03-14T14:45:55.000Z</time>
      </trkpt>
      <trkpt lat="45.89881" lon="4.51879">
        <ele>307.79998779297</ele>
        <time>2020-03-14T14:45:56.000Z</time>
      </trkpt>
      <trkpt lat="45.89882" lon="4.51876">
        <ele>307.79998779297</ele>
        <time>2020-03-14T14:45:57.000Z</time>
      </trkpt>
      <trkpt lat="45.89883" lon="4.51873">
        <ele>308</ele>
        <time>2020-03-14T14:45:58.000Z</time>
      </trkpt>
      <trkpt lat="45.89884" lon="4.5187">
        <ele>308</ele>
        <time>2020-03-14T14:45:59.000Z</time>
      </trkpt>
      <trkpt lat="45.89884" lon="4.51867">
        <ele>307.79998779297</ele>
        <time>2020-03-14T14:46:00.000Z</time>
      </trkpt>
      <trkpt lat="45.89884" lon="4.51864">
        <ele>307.79998779297</ele>
        <time>2020-03-14T14:46:01.000Z</time>
      </trkpt>
      <trkpt lat="45.89884" lon="4.51861">
        <ele>307.79998779297</ele>
        <time>2020-03-14T14:46:02.000Z</time>
      </trkpt>
      <trkpt lat="45.89884" lon="4.51856">
        <ele>307.79998779297</ele>
        <time>2020-03-14T14:46:03.000Z</time>
      </trkpt>
      <trkpt lat="45.89885" lon="4.51853">
        <ele>307.79998779297</ele>
        <time>2020-03-14T14:46:04.000Z</time>
      </trkpt>
      <trkpt lat="45.89885" lon="4.51849">
        <ele>307.60000610352</ele>
        <time>2020-03-14T14:46:05.000Z</time>
      </trkpt>
      <trkpt lat="45.89885" lon="4.51845">
        <ele>307.60000610352</ele>
        <time>2020-03-14T14:46:06.000Z</time>
      </trkpt>
      <trkpt lat="45.89887" lon="4.51842">
        <ele>307.39999389648</ele>
        <time>2020-03-14T14:46:07.000Z</time>
      </trkpt>
      <trkpt lat="45.89887" lon="4.51839">
        <ele>307.39999389648</ele>
        <time>2020-03-14T14:46:08.000Z</time>
      </trkpt>
      <trkpt lat="45.89888" lon="4.51835">
        <ele>307.39999389648</ele>
        <time>2020-03-14T14:46:09.000Z</time>
      </trkpt>
      <trkpt lat="45.89889" lon="4.51832">
        <ele>307.39999389648</ele>
        <time>2020-03-14T14:46:10.000Z</time>
      </trkpt>
      <trkpt lat="45.89889" lon="4.51829">
        <ele>307.39999389648</ele>
        <time>2020-03-14T14:46:11.000Z</time>
      </trkpt>
      <trkpt lat="45.8989" lon="4.51827">
        <ele>307.39999389648</ele>
        <time>2020-03-14T14:46:12.000Z</time>
      </trkpt>
      <trkpt lat="45.89889" lon="4.51824">
        <ele>307.39999389648</ele>
        <time>2020-03-14T14:46:13.000Z</time>
      </trkpt>
      <trkpt lat="45.89889" lon="4.51819">
        <ele>307.20001220703</ele>
        <time>2020-03-14T14:46:14.000Z</time>
      </trkpt>
      <trkpt lat="45.8989" lon="4.51812">
        <ele>307</ele>
        <time>2020-03-14T14:46:15.000Z</time>
      </trkpt>
      <trkpt lat="45.89891" lon="4.51808">
        <ele>307</ele>
        <time>2020-03-14T14:46:16.000Z</time>
      </trkpt>
      <trkpt lat="45.89891" lon="4.51803">
        <ele>307</ele>
        <time>2020-03-14T14:46:17.000Z</time>
      </trkpt>
      <trkpt lat="45.89891" lon="4.51799">
        <ele>306.79998779297</ele>
        <time>2020-03-14T14:46:18.000Z</time>
      </trkpt>
      <trkpt lat="45.89891" lon="4.51796">
        <ele>306.79998779297</ele>
        <time>2020-03-14T14:46:19.000Z</time>
      </trkpt>
      <trkpt lat="45.89892" lon="4.51793">
        <ele>306.79998779297</ele>
        <time>2020-03-14T14:46:20.000Z</time>
      </trkpt>
      <trkpt lat="45.89894" lon="4.51791">
        <ele>306.79998779297</ele>
        <time>2020-03-14T14:46:21.000Z</time>
      </trkpt>
      <trkpt lat="45.89894" lon="4.51789">
        <ele>307</ele>
        <time>2020-03-14T14:46:22.000Z</time>
      </trkpt>
      <trkpt lat="45.89894" lon="4.51786">
        <ele>307</ele>
        <time>2020-03-14T14:46:23.000Z</time>
      </trkpt>
      <trkpt lat="45.89895" lon="4.51783">
        <ele>307</ele>
        <time>2020-03-14T14:46:24.000Z</time>
      </trkpt>
      <trkpt lat="45.89895" lon="4.51781">
        <ele>307</ele>
        <time>2020-03-14T14:46:25.000Z</time>
      </trkpt>
      <trkpt lat="45.89895" lon="4.51775">
        <ele>307</ele>
        <time>2020-03-14T14:46:26.000Z</time>
      </trkpt>
      <trkpt lat="45.89895" lon="4.5177">
        <ele>307</ele>
        <time>2020-03-14T14:46:27.000Z</time>
      </trkpt>
      <trkpt lat="45.89896" lon="4.51766">
        <ele>307.20001220703</ele>
        <time>2020-03-14T14:46:28.000Z</time>
      </trkpt>
      <trkpt lat="45.89896" lon="4.51761">
        <ele>307.20001220703</ele>
        <time>2020-03-14T14:46:29.000Z</time>
      </trkpt>
      <trkpt lat="45.89897" lon="4.51758">
        <ele>307.20001220703</ele>
        <time>2020-03-14T14:46:30.000Z</time>
      </trkpt>
      <trkpt lat="45.89898" lon="4.51755">
        <ele>307</ele>
        <time>2020-03-14T14:46:31.000Z</time>
      </trkpt>
      <trkpt lat="45.89899" lon="4.51752">
        <ele>307</ele>
        <time>2020-03-14T14:46:32.000Z</time>
      </trkpt>
      <trkpt lat="45.899" lon="4.51748">
        <ele>307</ele>
        <time>2020-03-14T14:46:33.000Z</time>
      </trkpt>
      <trkpt lat="45.89901" lon="4.51743">
        <ele>306.79998779297</ele>
        <time>2020-03-14T14:46:34.000Z</time>
      </trkpt>
      <trkpt lat="45.89902" lon="4.5174">
        <ele>306.60000610352</ele>
        <time>2020-03-14T14:46:35.000Z</time>
      </trkpt>
      <trkpt lat="45.89902" lon="4.51736">
        <ele>306.60000610352</ele>
        <time>2020-03-14T14:46:36.000Z</time>
      </trkpt>
      <trkpt lat="45.89903" lon="4.51733">
        <ele>306.60000610352</ele>
        <time>2020-03-14T14:46:37.000Z</time>
      </trkpt>
      <trkpt lat="45.89903" lon="4.51731">
        <ele>306.60000610352</ele>
        <time>2020-03-14T14:46:38.000Z</time>
      </trkpt>
      <trkpt lat="45.89904" lon="4.51728">
        <ele>306.60000610352</ele>
        <time>2020-03-14T14:46:39.000Z</time>
      </trkpt>
      <trkpt lat="45.89905" lon="4.51726">
        <ele>306.60000610352</ele>
        <time>2020-03-14T14:46:40.000Z</time>
      </trkpt>
      <trkpt lat="45.89905" lon="4.51724">
        <ele>306.60000610352</ele>
        <time>2020-03-14T14:46:41.000Z</time>
      </trkpt>
      <trkpt lat="45.89906" lon="4.51722">
        <ele>306.60000610352</ele>
        <time>2020-03-14T14:46:42.000Z</time>
      </trkpt>
      <trkpt lat="45.89905" lon="4.51718">
        <ele>306.60000610352</ele>
        <time>2020-03-14T14:46:43.000Z</time>
      </trkpt>
      <trkpt lat="45.89904" lon="4.51715">
        <ele>306.79998779297</ele>
        <time>2020-03-14T14:46:44.000Z</time>
      </trkpt>
      <trkpt lat="45.89904" lon="4.51712">
        <ele>306.79998779297</ele>
        <time>2020-03-14T14:46:45.000Z</time>
      </trkpt>
      <trkpt lat="45.89905" lon="4.51707">
        <ele>306.79998779297</ele>
        <time>2020-03-14T14:46:46.000Z</time>
      </trkpt>
      <trkpt lat="45.89905" lon="4.51703">
        <ele>306.79998779297</ele>
        <time>2020-03-14T14:46:47.000Z</time>
      </trkpt>
      <trkpt lat="45.89905" lon="4.51699">
        <ele>307</ele>
        <time>2020-03-14T14:46:48.000Z</time>
      </trkpt>
      <trkpt lat="45.89905" lon="4.51696">
        <ele>307</ele>
        <time>2020-03-14T14:46:49.000Z</time>
      </trkpt>
      <trkpt lat="45.89906" lon="4.51691">
        <ele>307</ele>
        <time>2020-03-14T14:46:50.000Z</time>
      </trkpt>
      <trkpt lat="45.89906" lon="4.51686">
        <ele>307</ele>
        <time>2020-03-14T14:46:51.000Z</time>
      </trkpt>
      <trkpt lat="45.89906" lon="4.51682">
        <ele>307.20001220703</ele>
        <time>2020-03-14T14:46:52.000Z</time>
      </trkpt>
      <trkpt lat="45.89907" lon="4.51678">
        <ele>307.20001220703</ele>
        <time>2020-03-14T14:46:53.000Z</time>
      </trkpt>
      <trkpt lat="45.89907" lon="4.51676">
        <ele>307.60000610352</ele>
        <time>2020-03-14T14:46:54.000Z</time>
      </trkpt>
      <trkpt lat="45.89908" lon="4.51672">
        <ele>307.60000610352</ele>
        <time>2020-03-14T14:46:55.000Z</time>
      </trkpt>
      <trkpt lat="45.89909" lon="4.51669">
        <ele>307.60000610352</ele>
        <time>2020-03-14T14:46:56.000Z</time>
      </trkpt>
      <trkpt lat="45.89909" lon="4.51664">
        <ele>307.39999389648</ele>
        <time>2020-03-14T14:46:57.000Z</time>
      </trkpt>
      <trkpt lat="45.89909" lon="4.51661">
        <ele>307.39999389648</ele>
        <time>2020-03-14T14:46:58.000Z</time>
      </trkpt>
      <trkpt lat="45.8991" lon="4.51658">
        <ele>307.39999389648</ele>
        <time>2020-03-14T14:46:59.000Z</time>
      </trkpt>
      <trkpt lat="45.8991" lon="4.51655">
        <ele>307.20001220703</ele>
        <time>2020-03-14T14:47:00.000Z</time>
      </trkpt>
      <trkpt lat="45.8991" lon="4.51653">
        <ele>307.20001220703</ele>
        <time>2020-03-14T14:47:01.000Z</time>
      </trkpt>
      <trkpt lat="45.89911" lon="4.5165">
        <ele>307.20001220703</ele>
        <time>2020-03-14T14:47:02.000Z</time>
      </trkpt>
      <trkpt lat="45.89911" lon="4.51648">
        <ele>307</ele>
        <time>2020-03-14T14:47:03.000Z</time>
      </trkpt>
      <trkpt lat="45.89911" lon="4.51646">
        <ele>307</ele>
        <time>2020-03-14T14:47:04.000Z</time>
      </trkpt>
      <trkpt lat="45.89911" lon="4.51643">
        <ele>307</ele>
        <time>2020-03-14T14:47:05.000Z</time>
      </trkpt>
      <trkpt lat="45.89911" lon="4.51639">
        <ele>307</ele>
        <time>2020-03-14T14:47:06.000Z</time>
      </trkpt>
      <trkpt lat="45.89911" lon="4.51637">
        <ele>307.20001220703</ele>
        <time>2020-03-14T14:47:07.000Z</time>
      </trkpt>
      <trkpt lat="45.89911" lon="4.51636">
        <ele>307.20001220703</ele>
        <time>2020-03-14T14:47:08.000Z</time>
      </trkpt>
      <trkpt lat="45.8991" lon="4.51635">
        <ele>307.20001220703</ele>
        <time>2020-03-14T14:47:09.000Z</time>
      </trkpt>
      <trkpt lat="45.8991" lon="4.51634">
        <ele>307.20001220703</ele>
        <time>2020-03-14T14:47:10.000Z</time>
      </trkpt>
      <trkpt lat="45.8991" lon="4.51632">
        <ele>307.20001220703</ele>
        <time>2020-03-14T14:47:11.000Z</time>
      </trkpt>
      <trkpt lat="45.89911" lon="4.5163">
        <ele>307.20001220703</ele>
        <time>2020-03-14T14:47:12.000Z</time>
      </trkpt>
      <trkpt lat="45.89911" lon="4.51628">
        <ele>307.20001220703</ele>
        <time>2020-03-14T14:47:13.000Z</time>
      </trkpt>
      <trkpt lat="45.89911" lon="4.51626">
        <ele>307.20001220703</ele>
        <time>2020-03-14T14:47:14.000Z</time>
      </trkpt>
      <trkpt lat="45.89912" lon="4.51624">
        <ele>307</ele>
        <time>2020-03-14T14:47:15.000Z</time>
      </trkpt>
      <trkpt lat="45.89913" lon="4.51621">
        <ele>307</ele>
        <time>2020-03-14T14:47:16.000Z</time>
      </trkpt>
      <trkpt lat="45.89913" lon="4.51619">
        <ele>307</ele>
        <time>2020-03-14T14:47:17.000Z</time>
      </trkpt>
      <trkpt lat="45.89914" lon="4.51617">
        <ele>307.20001220703</ele>
        <time>2020-03-14T14:47:18.000Z</time>
      </trkpt>
      <trkpt lat="45.89915" lon="4.51614">
        <ele>307.20001220703</ele>
        <time>2020-03-14T14:47:19.000Z</time>
      </trkpt>
      <trkpt lat="45.89915" lon="4.51612">
        <ele>307.39999389648</ele>
        <time>2020-03-14T14:47:20.000Z</time>
      </trkpt>
      <trkpt lat="45.89915" lon="4.5161">
        <ele>307.39999389648</ele>
        <time>2020-03-14T14:47:21.000Z</time>
      </trkpt>
      <trkpt lat="45.89915" lon="4.51608">
        <ele>307.39999389648</ele>
        <time>2020-03-14T14:47:22.000Z</time>
      </trkpt>
      <trkpt lat="45.89915" lon="4.51605">
        <ele>307.39999389648</ele>
        <time>2020-03-14T14:47:23.000Z</time>
      </trkpt>
      <trkpt lat="45.89916" lon="4.51603">
        <ele>307.39999389648</ele>
        <time>2020-03-14T14:47:24.000Z</time>
      </trkpt>
      <trkpt lat="45.89915" lon="4.51601">
        <ele>307.60000610352</ele>
        <time>2020-03-14T14:47:25.000Z</time>
      </trkpt>
      <trkpt lat="45.89915" lon="4.51598">
        <ele>307.79998779297</ele>
        <time>2020-03-14T14:47:26.000Z</time>
      </trkpt>
      <trkpt lat="45.89916" lon="4.51595">
        <ele>307.79998779297</ele>
        <time>2020-03-14T14:47:27.000Z</time>
      </trkpt>
      <trkpt lat="45.89916" lon="4.51592">
        <ele>308</ele>
        <time>2020-03-14T14:47:28.000Z</time>
      </trkpt>
      <trkpt lat="45.89916" lon="4.51589">
        <ele>308</ele>
        <time>2020-03-14T14:47:29.000Z</time>
      </trkpt>
      <trkpt lat="45.89916" lon="4.51585">
        <ele>308.20001220703</ele>
        <time>2020-03-14T14:47:30.000Z</time>
      </trkpt>
      <trkpt lat="45.89916" lon="4.51582">
        <ele>308.20001220703</ele>
        <time>2020-03-14T14:47:31.000Z</time>
      </trkpt>
      <trkpt lat="45.89916" lon="4.51579">
        <ele>308.20001220703</ele>
        <time>2020-03-14T14:47:32.000Z</time>
      </trkpt>
      <trkpt lat="45.89917" lon="4.51576">
        <ele>308.20001220703</ele>
        <time>2020-03-14T14:47:33.000Z</time>
      </trkpt>
      <trkpt lat="45.89917" lon="4.51573">
        <ele>308</ele>
        <time>2020-03-14T14:47:34.000Z</time>
      </trkpt>
      <trkpt lat="45.89918" lon="4.51571">
        <ele>308</ele>
        <time>2020-03-14T14:47:35.000Z</time>
      </trkpt>
      <trkpt lat="45.89918" lon="4.51568">
        <ele>308</ele>
        <time>2020-03-14T14:47:36.000Z</time>
      </trkpt>
      <trkpt lat="45.89919" lon="4.51565">
        <ele>308</ele>
        <time>2020-03-14T14:47:37.000Z</time>
      </trkpt>
      <trkpt lat="45.89919" lon="4.51563">
        <ele>307.79998779297</ele>
        <time>2020-03-14T14:47:38.000Z</time>
      </trkpt>
      <trkpt lat="45.89919" lon="4.51561">
        <ele>307.79998779297</ele>
        <time>2020-03-14T14:47:39.000Z</time>
      </trkpt>
      <trkpt lat="45.89919" lon="4.51559">
        <ele>307.79998779297</ele>
        <time>2020-03-14T14:47:40.000Z</time>
      </trkpt>
      <trkpt lat="45.89919" lon="4.51558">
        <ele>307.79998779297</ele>
        <time>2020-03-14T14:47:41.000Z</time>
      </trkpt>
      <trkpt lat="45.8992" lon="4.51557">
        <ele>307.79998779297</ele>
        <time>2020-03-14T14:47:42.000Z</time>
      </trkpt>
      <trkpt lat="45.8992" lon="4.51556">
        <ele>307.79998779297</ele>
        <time>2020-03-14T14:47:43.000Z</time>
      </trkpt>
      <trkpt lat="45.89921" lon="4.51554">
        <ele>307.79998779297</ele>
        <time>2020-03-14T14:47:44.000Z</time>
      </trkpt>
      <trkpt lat="45.89922" lon="4.51552">
        <ele>307.60000610352</ele>
        <time>2020-03-14T14:47:45.000Z</time>
      </trkpt>
      <trkpt lat="45.89923" lon="4.51551">
        <ele>307.60000610352</ele>
        <time>2020-03-14T14:47:46.000Z</time>
      </trkpt>
      <trkpt lat="45.89926" lon="4.51549">
        <ele>307.39999389648</ele>
        <time>2020-03-14T14:47:47.000Z</time>
      </trkpt>
      <trkpt lat="45.89928" lon="4.51548">
        <ele>307.39999389648</ele>
        <time>2020-03-14T14:47:48.000Z</time>
      </trkpt>
      <trkpt lat="45.89931" lon="4.51547">
        <ele>307.39999389648</ele>
        <time>2020-03-14T14:47:49.000Z</time>
      </trkpt>
      <trkpt lat="45.89933" lon="4.51547">
        <ele>307.39999389648</ele>
        <time>2020-03-14T14:47:50.000Z</time>
      </trkpt>
      <trkpt lat="45.89936" lon="4.51547">
        <ele>307.39999389648</ele>
        <time>2020-03-14T14:47:51.000Z</time>
      </trkpt>
      <trkpt lat="45.8994" lon="4.51547">
        <ele>307.20001220703</ele>
        <time>2020-03-14T14:47:52.000Z</time>
      </trkpt>
      <trkpt lat="45.89943" lon="4.51547">
        <ele>307.20001220703</ele>
        <time>2020-03-14T14:47:53.000Z</time>
      </trkpt>
      <trkpt lat="45.89945" lon="4.51546">
        <ele>307.20001220703</ele>
        <time>2020-03-14T14:47:54.000Z</time>
      </trkpt>
      <trkpt lat="45.89949" lon="4.51546">
        <ele>307</ele>
        <time>2020-03-14T14:47:55.000Z</time>
      </trkpt>
      <trkpt lat="45.89952" lon="4.51546">
        <ele>306.79998779297</ele>
        <time>2020-03-14T14:47:56.000Z</time>
      </trkpt>
      <trkpt lat="45.89954" lon="4.51547">
        <ele>306.60000610352</ele>
        <time>2020-03-14T14:47:57.000Z</time>
      </trkpt>
      <trkpt lat="45.89958" lon="4.51547">
        <ele>306.39999389648</ele>
        <time>2020-03-14T14:47:58.000Z</time>
      </trkpt>
      <trkpt lat="45.89961" lon="4.51547">
        <ele>306.20001220703</ele>
        <time>2020-03-14T14:47:59.000Z</time>
      </trkpt>
      <trkpt lat="45.89966" lon="4.51546">
        <ele>306.20001220703</ele>
        <time>2020-03-14T14:48:00.000Z</time>
      </trkpt>
      <trkpt lat="45.8997" lon="4.51546">
        <ele>306.20001220703</ele>
        <time>2020-03-14T14:48:01.000Z</time>
      </trkpt>
      <trkpt lat="45.89973" lon="4.51545">
        <ele>306.20001220703</ele>
        <time>2020-03-14T14:48:02.000Z</time>
      </trkpt>
      <trkpt lat="45.89976" lon="4.51545">
        <ele>306.39999389648</ele>
        <time>2020-03-14T14:48:03.000Z</time>
      </trkpt>
      <trkpt lat="45.89979" lon="4.51544">
        <ele>306.60000610352</ele>
        <time>2020-03-14T14:48:04.000Z</time>
      </trkpt>
      <trkpt lat="45.89982" lon="4.51544">
        <ele>306.79998779297</ele>
        <time>2020-03-14T14:48:05.000Z</time>
      </trkpt>
      <trkpt lat="45.89985" lon="4.51544">
        <ele>306.79998779297</ele>
        <time>2020-03-14T14:48:06.000Z</time>
      </trkpt>
      <trkpt lat="45.89988" lon="4.51544">
        <ele>307</ele>
        <time>2020-03-14T14:48:07.000Z</time>
      </trkpt>
      <trkpt lat="45.89991" lon="4.51544">
        <ele>307</ele>
        <time>2020-03-14T14:48:08.000Z</time>
      </trkpt>
      <trkpt lat="45.89994" lon="4.51544">
        <ele>307.20001220703</ele>
        <time>2020-03-14T14:48:09.000Z</time>
      </trkpt>
      <trkpt lat="45.89997" lon="4.51545">
        <ele>307.20001220703</ele>
        <time>2020-03-14T14:48:10.000Z</time>
      </trkpt>
      <trkpt lat="45.9" lon="4.51545">
        <ele>307.39999389648</ele>
        <time>2020-03-14T14:48:11.000Z</time>
      </trkpt>
      <trkpt lat="45.90003" lon="4.51545">
        <ele>307.79998779297</ele>
        <time>2020-03-14T14:48:12.000Z</time>
      </trkpt>
      <trkpt lat="45.90005" lon="4.51544">
        <ele>308.20001220703</ele>
        <time>2020-03-14T14:48:13.000Z</time>
      </trkpt>
      <trkpt lat="45.90007" lon="4.51542">
        <ele>308.39999389648</ele>
        <time>2020-03-14T14:48:14.000Z</time>
      </trkpt>
      <trkpt lat="45.90008" lon="4.51539">
        <ele>308.39999389648</ele>
        <time>2020-03-14T14:48:15.000Z</time>
      </trkpt>
      <trkpt lat="45.90009" lon="4.51536">
        <ele>308.60000610352</ele>
        <time>2020-03-14T14:48:16.000Z</time>
      </trkpt>
      <trkpt lat="45.9001" lon="4.51532">
        <ele>308.60000610352</ele>
        <time>2020-03-14T14:48:17.000Z</time>
      </trkpt>
      <trkpt lat="45.90012" lon="4.51528">
        <ele>308.79998779297</ele>
        <time>2020-03-14T14:48:18.000Z</time>
      </trkpt>
      <trkpt lat="45.90012" lon="4.51524">
        <ele>308.79998779297</ele>
        <time>2020-03-14T14:48:19.000Z</time>
      </trkpt>
      <trkpt lat="45.90014" lon="4.51521">
        <ele>309</ele>
        <time>2020-03-14T14:48:20.000Z</time>
      </trkpt>
      <trkpt lat="45.90015" lon="4.51517">
        <ele>309.20001220703</ele>
        <time>2020-03-14T14:48:21.000Z</time>
      </trkpt>
      <trkpt lat="45.90016" lon="4.51514">
        <ele>309.39999389648</ele>
        <time>2020-03-14T14:48:22.000Z</time>
      </trkpt>
      <trkpt lat="45.90016" lon="4.5151">
        <ele>309.39999389648</ele>
        <time>2020-03-14T14:48:23.000Z</time>
      </trkpt>
      <trkpt lat="45.90017" lon="4.51506">
        <ele>309.60000610352</ele>
        <time>2020-03-14T14:48:24.000Z</time>
      </trkpt>
      <trkpt lat="45.90018" lon="4.51503">
        <ele>309.79998779297</ele>
        <time>2020-03-14T14:48:25.000Z</time>
      </trkpt>
      <trkpt lat="45.90019" lon="4.51499">
        <ele>310</ele>
        <time>2020-03-14T14:48:26.000Z</time>
      </trkpt>
      <trkpt lat="45.9002" lon="4.51496">
        <ele>310.20001220703</ele>
        <time>2020-03-14T14:48:27.000Z</time>
      </trkpt>
      <trkpt lat="45.9002" lon="4.51493">
        <ele>310.20001220703</ele>
        <time>2020-03-14T14:48:28.000Z</time>
      </trkpt>
      <trkpt lat="45.90021" lon="4.51489">
        <ele>310</ele>
        <time>2020-03-14T14:48:29.000Z</time>
      </trkpt>
      <trkpt lat="45.90022" lon="4.51486">
        <ele>310</ele>
        <time>2020-03-14T14:48:30.000Z</time>
      </trkpt>
      <trkpt lat="45.90022" lon="4.51482">
        <ele>310</ele>
        <time>2020-03-14T14:48:31.000Z</time>
      </trkpt>
      <trkpt lat="45.90023" lon="4.51478">
        <ele>310</ele>
        <time>2020-03-14T14:48:32.000Z</time>
      </trkpt>
      <trkpt lat="45.90024" lon="4.51474">
        <ele>310</ele>
        <time>2020-03-14T14:48:33.000Z</time>
      </trkpt>
      <trkpt lat="45.90025" lon="4.51471">
        <ele>310</ele>
        <time>2020-03-14T14:48:34.000Z</time>
      </trkpt>
      <trkpt lat="45.90026" lon="4.51468">
        <ele>310.20001220703</ele>
        <time>2020-03-14T14:48:35.000Z</time>
      </trkpt>
      <trkpt lat="45.90027" lon="4.51464">
        <ele>310.20001220703</ele>
        <time>2020-03-14T14:48:36.000Z</time>
      </trkpt>
      <trkpt lat="45.90028" lon="4.5146">
        <ele>310.39999389648</ele>
        <time>2020-03-14T14:48:37.000Z</time>
      </trkpt>
      <trkpt lat="45.90029" lon="4.51456">
        <ele>310.60000610352</ele>
        <time>2020-03-14T14:48:38.000Z</time>
      </trkpt>
      <trkpt lat="45.9003" lon="4.51452">
        <ele>310.79998779297</ele>
        <time>2020-03-14T14:48:39.000Z</time>
      </trkpt>
      <trkpt lat="45.9003" lon="4.51448">
        <ele>310.79998779297</ele>
        <time>2020-03-14T14:48:40.000Z</time>
      </trkpt>
      <trkpt lat="45.9003" lon="4.51444">
        <ele>310.79998779297</ele>
        <time>2020-03-14T14:48:41.000Z</time>
      </trkpt>
      <trkpt lat="45.90031" lon="4.51441">
        <ele>311</ele>
        <time>2020-03-14T14:48:42.000Z</time>
      </trkpt>
      <trkpt lat="45.90031" lon="4.51437">
        <ele>311</ele>
        <time>2020-03-14T14:48:43.000Z</time>
      </trkpt>
      <trkpt lat="45.90031" lon="4.51434">
        <ele>311.20001220703</ele>
        <time>2020-03-14T14:48:44.000Z</time>
      </trkpt>
      <trkpt lat="45.90031" lon="4.5143">
        <ele>311.20001220703</ele>
        <time>2020-03-14T14:48:45.000Z</time>
      </trkpt>
      <trkpt lat="45.90031" lon="4.51427">
        <ele>311.39999389648</ele>
        <time>2020-03-14T14:48:46.000Z</time>
      </trkpt>
      <trkpt lat="45.90031" lon="4.51423">
        <ele>311.60000610352</ele>
        <time>2020-03-14T14:48:47.000Z</time>
      </trkpt>
      <trkpt lat="45.90031" lon="4.5142">
        <ele>311.79998779297</ele>
        <time>2020-03-14T14:48:48.000Z</time>
      </trkpt>
      <trkpt lat="45.90031" lon="4.51416">
        <ele>311.79998779297</ele>
        <time>2020-03-14T14:48:49.000Z</time>
      </trkpt>
      <trkpt lat="45.90031" lon="4.51413">
        <ele>312</ele>
        <time>2020-03-14T14:48:50.000Z</time>
      </trkpt>
      <trkpt lat="45.90031" lon="4.51409">
        <ele>312.20001220703</ele>
        <time>2020-03-14T14:48:51.000Z</time>
      </trkpt>
      <trkpt lat="45.9003" lon="4.51405">
        <ele>312.60000610352</ele>
        <time>2020-03-14T14:48:52.000Z</time>
      </trkpt>
      <trkpt lat="45.9003" lon="4.51402">
        <ele>313</ele>
        <time>2020-03-14T14:48:53.000Z</time>
      </trkpt>
      <trkpt lat="45.9003" lon="4.51399">
        <ele>313.20001220703</ele>
        <time>2020-03-14T14:48:54.000Z</time>
      </trkpt>
      <trkpt lat="45.9003" lon="4.51395">
        <ele>313.39999389648</ele>
        <time>2020-03-14T14:48:55.000Z</time>
      </trkpt>
      <trkpt lat="45.9003" lon="4.51392">
        <ele>313.39999389648</ele>
        <time>2020-03-14T14:48:56.000Z</time>
      </trkpt>
      <trkpt lat="45.90029" lon="4.51389">
        <ele>313.39999389648</ele>
        <time>2020-03-14T14:48:57.000Z</time>
      </trkpt>
      <trkpt lat="45.90029" lon="4.51386">
        <ele>313.39999389648</ele>
        <time>2020-03-14T14:48:58.000Z</time>
      </trkpt>
      <trkpt lat="45.90029" lon="4.51382">
        <ele>313.20001220703</ele>
        <time>2020-03-14T14:48:59.000Z</time>
      </trkpt>
      <trkpt lat="45.90029" lon="4.51378">
        <ele>313.20001220703</ele>
        <time>2020-03-14T14:49:00.000Z</time>
      </trkpt>
      <trkpt lat="45.90029" lon="4.51374">
        <ele>313</ele>
        <time>2020-03-14T14:49:01.000Z</time>
      </trkpt>
      <trkpt lat="45.90029" lon="4.51369">
        <ele>313</ele>
        <time>2020-03-14T14:49:02.000Z</time>
      </trkpt>
      <trkpt lat="45.90029" lon="4.51364">
        <ele>312.79998779297</ele>
        <time>2020-03-14T14:49:03.000Z</time>
      </trkpt>
      <trkpt lat="45.9003" lon="4.5136">
        <ele>313</ele>
        <time>2020-03-14T14:49:04.000Z</time>
      </trkpt>
      <trkpt lat="45.9003" lon="4.51355">
        <ele>312.79998779297</ele>
        <time>2020-03-14T14:49:05.000Z</time>
      </trkpt>
      <trkpt lat="45.90031" lon="4.51351">
        <ele>312.79998779297</ele>
        <time>2020-03-14T14:49:06.000Z</time>
      </trkpt>
      <trkpt lat="45.90031" lon="4.51346">
        <ele>312.79998779297</ele>
        <time>2020-03-14T14:49:07.000Z</time>
      </trkpt>
      <trkpt lat="45.90031" lon="4.51342">
        <ele>313</ele>
        <time>2020-03-14T14:49:08.000Z</time>
      </trkpt>
      <trkpt lat="45.90032" lon="4.51338">
        <ele>313</ele>
        <time>2020-03-14T14:49:09.000Z</time>
      </trkpt>
      <trkpt lat="45.90032" lon="4.51335">
        <ele>313</ele>
        <time>2020-03-14T14:49:10.000Z</time>
      </trkpt>
      <trkpt lat="45.90032" lon="4.51332">
        <ele>312.79998779297</ele>
        <time>2020-03-14T14:49:11.000Z</time>
      </trkpt>
      <trkpt lat="45.90033" lon="4.51329">
        <ele>313</ele>
        <time>2020-03-14T14:49:12.000Z</time>
      </trkpt>
      <trkpt lat="45.90033" lon="4.51325">
        <ele>313.20001220703</ele>
        <time>2020-03-14T14:49:13.000Z</time>
      </trkpt>
      <trkpt lat="45.90033" lon="4.51322">
        <ele>313.39999389648</ele>
        <time>2020-03-14T14:49:14.000Z</time>
      </trkpt>
      <trkpt lat="45.90034" lon="4.51319">
        <ele>313.20001220703</ele>
        <time>2020-03-14T14:49:15.000Z</time>
      </trkpt>
      <trkpt lat="45.90034" lon="4.51316">
        <ele>313.39999389648</ele>
        <time>2020-03-14T14:49:16.000Z</time>
      </trkpt>
      <trkpt lat="45.90035" lon="4.51313">
        <ele>313.39999389648</ele>
        <time>2020-03-14T14:49:17.000Z</time>
      </trkpt>
      <trkpt lat="45.90035" lon="4.5131">
        <ele>313.39999389648</ele>
        <time>2020-03-14T14:49:18.000Z</time>
      </trkpt>
      <trkpt lat="45.90036" lon="4.51307">
        <ele>313.39999389648</ele>
        <time>2020-03-14T14:49:19.000Z</time>
      </trkpt>
      <trkpt lat="45.90037" lon="4.51304">
        <ele>313.39999389648</ele>
        <time>2020-03-14T14:49:20.000Z</time>
      </trkpt>
      <trkpt lat="45.90037" lon="4.51302">
        <ele>313.39999389648</ele>
        <time>2020-03-14T14:49:21.000Z</time>
      </trkpt>
      <trkpt lat="45.90038" lon="4.513">
        <ele>313.60000610352</ele>
        <time>2020-03-14T14:49:22.000Z</time>
      </trkpt>
      <trkpt lat="45.90038" lon="4.51298">
        <ele>314</ele>
        <time>2020-03-14T14:49:23.000Z</time>
      </trkpt>
      <trkpt lat="45.90039" lon="4.51295">
        <ele>314.20001220703</ele>
        <time>2020-03-14T14:49:24.000Z</time>
      </trkpt>
      <trkpt lat="45.9004" lon="4.51292">
        <ele>314.39999389648</ele>
        <time>2020-03-14T14:49:25.000Z</time>
      </trkpt>
      <trkpt lat="45.9004" lon="4.5129">
        <ele>314.39999389648</ele>
        <time>2020-03-14T14:49:26.000Z</time>
      </trkpt>
      <trkpt lat="45.90041" lon="4.51289">
        <ele>314.39999389648</ele>
        <time>2020-03-14T14:49:27.000Z</time>
      </trkpt>
      <trkpt lat="45.90041" lon="4.51288">
        <ele>314.39999389648</ele>
        <time>2020-03-14T14:49:28.000Z</time>
      </trkpt>
      <trkpt lat="45.90041" lon="4.51286">
        <ele>314.39999389648</ele>
        <time>2020-03-14T14:49:29.000Z</time>
      </trkpt>
      <trkpt lat="45.90042" lon="4.51285">
        <ele>314.39999389648</ele>
        <time>2020-03-14T14:49:30.000Z</time>
      </trkpt>
      <trkpt lat="45.90042" lon="4.51283">
        <ele>314.39999389648</ele>
        <time>2020-03-14T14:49:31.000Z</time>
      </trkpt>
      <trkpt lat="45.90043" lon="4.51281">
        <ele>314.20001220703</ele>
        <time>2020-03-14T14:49:32.000Z</time>
      </trkpt>
      <trkpt lat="45.90043" lon="4.51278">
        <ele>314.20001220703</ele>
        <time>2020-03-14T14:49:33.000Z</time>
      </trkpt>
      <trkpt lat="45.90044" lon="4.51275">
        <ele>314.20001220703</ele>
        <time>2020-03-14T14:49:34.000Z</time>
      </trkpt>
      <trkpt lat="45.90044" lon="4.51272">
        <ele>314.20001220703</ele>
        <time>2020-03-14T14:49:35.000Z</time>
      </trkpt>
      <trkpt lat="45.90045" lon="4.51268">
        <ele>314.20001220703</ele>
        <time>2020-03-14T14:49:36.000Z</time>
      </trkpt>
      <trkpt lat="45.90045" lon="4.51265">
        <ele>314.60000610352</ele>
        <time>2020-03-14T14:49:37.000Z</time>
      </trkpt>
      <trkpt lat="45.90046" lon="4.51261">
        <ele>314.79998779297</ele>
        <time>2020-03-14T14:49:38.000Z</time>
      </trkpt>
      <trkpt lat="45.90047" lon="4.51257">
        <ele>315</ele>
        <time>2020-03-14T14:49:39.000Z</time>
      </trkpt>
      <trkpt lat="45.90047" lon="4.51254">
        <ele>315</ele>
        <time>2020-03-14T14:49:40.000Z</time>
      </trkpt>
      <trkpt lat="45.90048" lon="4.5125">
        <ele>315.20001220703</ele>
        <time>2020-03-14T14:49:41.000Z</time>
      </trkpt>
      <trkpt lat="45.90048" lon="4.51247">
        <ele>315.20001220703</ele>
        <time>2020-03-14T14:49:42.000Z</time>
      </trkpt>
      <trkpt lat="45.90049" lon="4.51244">
        <ele>315.39999389648</ele>
        <time>2020-03-14T14:49:43.000Z</time>
      </trkpt>
      <trkpt lat="45.9005" lon="4.5124">
        <ele>315.60000610352</ele>
        <time>2020-03-14T14:49:44.000Z</time>
      </trkpt>
      <trkpt lat="45.90051" lon="4.51238">
        <ele>315.60000610352</ele>
        <time>2020-03-14T14:49:45.000Z</time>
      </trkpt>
      <trkpt lat="45.90051" lon="4.51235">
        <ele>315.60000610352</ele>
        <time>2020-03-14T14:49:46.000Z</time>
      </trkpt>
      <trkpt lat="45.90052" lon="4.51232">
        <ele>315.60000610352</ele>
        <time>2020-03-14T14:49:47.000Z</time>
      </trkpt>
      <trkpt lat="45.90052" lon="4.51229">
        <ele>315.39999389648</ele>
        <time>2020-03-14T14:49:48.000Z</time>
      </trkpt>
      <trkpt lat="45.90053" lon="4.51226">
        <ele>315.39999389648</ele>
        <time>2020-03-14T14:49:49.000Z</time>
      </trkpt>
      <trkpt lat="45.90053" lon="4.51223">
        <ele>315.39999389648</ele>
        <time>2020-03-14T14:49:50.000Z</time>
      </trkpt>
      <trkpt lat="45.90054" lon="4.5122">
        <ele>315.60000610352</ele>
        <time>2020-03-14T14:49:51.000Z</time>
      </trkpt>
      <trkpt lat="45.90054" lon="4.51217">
        <ele>315.79998779297</ele>
        <time>2020-03-14T14:49:52.000Z</time>
      </trkpt>
      <trkpt lat="45.90054" lon="4.51214">
        <ele>315.79998779297</ele>
        <time>2020-03-14T14:49:53.000Z</time>
      </trkpt>
      <trkpt lat="45.90055" lon="4.51211">
        <ele>316</ele>
        <time>2020-03-14T14:49:54.000Z</time>
      </trkpt>
      <trkpt lat="45.90055" lon="4.51208">
        <ele>316.20001220703</ele>
        <time>2020-03-14T14:49:55.000Z</time>
      </trkpt>
      <trkpt lat="45.90055" lon="4.51205">
        <ele>316.39999389648</ele>
        <time>2020-03-14T14:49:56.000Z</time>
      </trkpt>
      <trkpt lat="45.90054" lon="4.51202">
        <ele>316.60000610352</ele>
        <time>2020-03-14T14:49:57.000Z</time>
      </trkpt>
      <trkpt lat="45.90054" lon="4.51199">
        <ele>316.79998779297</ele>
        <time>2020-03-14T14:49:58.000Z</time>
      </trkpt>
      <trkpt lat="45.90054" lon="4.51196">
        <ele>316.79998779297</ele>
        <time>2020-03-14T14:49:59.000Z</time>
      </trkpt>
      <trkpt lat="45.90054" lon="4.51193">
        <ele>317</ele>
        <time>2020-03-14T14:50:00.000Z</time>
      </trkpt>
      <trkpt lat="45.90054" lon="4.5119">
        <ele>317</ele>
        <time>2020-03-14T14:50:01.000Z</time>
      </trkpt>
      <trkpt lat="45.90054" lon="4.51188">
        <ele>317.20001220703</ele>
        <time>2020-03-14T14:50:02.000Z</time>
      </trkpt>
      <trkpt lat="45.90054" lon="4.51186">
        <ele>317.79998779297</ele>
        <time>2020-03-14T14:50:03.000Z</time>
      </trkpt>
      <trkpt lat="45.90054" lon="4.51183">
        <ele>318</ele>
        <time>2020-03-14T14:50:04.000Z</time>
      </trkpt>
      <trkpt lat="45.90054" lon="4.51181">
        <ele>318.20001220703</ele>
        <time>2020-03-14T14:50:05.000Z</time>
      </trkpt>
      <trkpt lat="45.90054" lon="4.51179">
        <ele>318.39999389648</ele>
        <time>2020-03-14T14:50:06.000Z</time>
      </trkpt>
      <trkpt lat="45.90055" lon="4.51176">
        <ele>318.39999389648</ele>
        <time>2020-03-14T14:50:07.000Z</time>
      </trkpt>
      <trkpt lat="45.90055" lon="4.51174">
        <ele>318.39999389648</ele>
        <time>2020-03-14T14:50:08.000Z</time>
      </trkpt>
      <trkpt lat="45.90056" lon="4.51171">
        <ele>318.39999389648</ele>
        <time>2020-03-14T14:50:09.000Z</time>
      </trkpt>
      <trkpt lat="45.90056" lon="4.51169">
        <ele>318.39999389648</ele>
        <time>2020-03-14T14:50:10.000Z</time>
      </trkpt>
      <trkpt lat="45.90056" lon="4.51167">
        <ele>318.39999389648</ele>
        <time>2020-03-14T14:50:11.000Z</time>
      </trkpt>
      <trkpt lat="45.90056" lon="4.51165">
        <ele>318.79998779297</ele>
        <time>2020-03-14T14:50:12.000Z</time>
      </trkpt>
      <trkpt lat="45.90056" lon="4.51163">
        <ele>319</ele>
        <time>2020-03-14T14:50:13.000Z</time>
      </trkpt>
      <trkpt lat="45.90057" lon="4.51161">
        <ele>319.20001220703</ele>
        <time>2020-03-14T14:50:14.000Z</time>
      </trkpt>
      <trkpt lat="45.90057" lon="4.51159">
        <ele>319.39999389648</ele>
        <time>2020-03-14T14:50:15.000Z</time>
      </trkpt>
      <trkpt lat="45.90057" lon="4.51157">
        <ele>319.79998779297</ele>
        <time>2020-03-14T14:50:16.000Z</time>
      </trkpt>
      <trkpt lat="45.90058" lon="4.51154">
        <ele>319.79998779297</ele>
        <time>2020-03-14T14:50:17.000Z</time>
      </trkpt>
      <trkpt lat="45.90058" lon="4.51153">
        <ele>320</ele>
        <time>2020-03-14T14:50:18.000Z</time>
      </trkpt>
      <trkpt lat="45.90058" lon="4.51151">
        <ele>320.20001220703</ele>
        <time>2020-03-14T14:50:19.000Z</time>
      </trkpt>
      <trkpt lat="45.90059" lon="4.51149">
        <ele>320.39999389648</ele>
        <time>2020-03-14T14:50:20.000Z</time>
      </trkpt>
      <trkpt lat="45.90059" lon="4.51147">
        <ele>320.60000610352</ele>
        <time>2020-03-14T14:50:21.000Z</time>
      </trkpt>
      <trkpt lat="45.90059" lon="4.51145">
        <ele>320.60000610352</ele>
        <time>2020-03-14T14:50:22.000Z</time>
      </trkpt>
      <trkpt lat="45.9006" lon="4.51143">
        <ele>320.79998779297</ele>
        <time>2020-03-14T14:50:23.000Z</time>
      </trkpt>
      <trkpt lat="45.9006" lon="4.51141">
        <ele>321</ele>
        <time>2020-03-14T14:50:24.000Z</time>
      </trkpt>
      <trkpt lat="45.9006" lon="4.51138">
        <ele>321</ele>
        <time>2020-03-14T14:50:25.000Z</time>
      </trkpt>
      <trkpt lat="45.90061" lon="4.51136">
        <ele>321</ele>
        <time>2020-03-14T14:50:26.000Z</time>
      </trkpt>
      <trkpt lat="45.90062" lon="4.51133">
        <ele>321.20001220703</ele>
        <time>2020-03-14T14:50:27.000Z</time>
      </trkpt>
      <trkpt lat="45.90062" lon="4.51131">
        <ele>321.39999389648</ele>
        <time>2020-03-14T14:50:28.000Z</time>
      </trkpt>
      <trkpt lat="45.90063" lon="4.51128">
        <ele>321.60000610352</ele>
        <time>2020-03-14T14:50:29.000Z</time>
      </trkpt>
      <trkpt lat="45.90063" lon="4.51125">
        <ele>321.79998779297</ele>
        <time>2020-03-14T14:50:30.000Z</time>
      </trkpt>
      <trkpt lat="45.90064" lon="4.51123">
        <ele>321.79998779297</ele>
        <time>2020-03-14T14:50:31.000Z</time>
      </trkpt>
      <trkpt lat="45.90064" lon="4.5112">
        <ele>322</ele>
        <time>2020-03-14T14:50:32.000Z</time>
      </trkpt>
      <trkpt lat="45.90065" lon="4.51117">
        <ele>322</ele>
        <time>2020-03-14T14:50:33.000Z</time>
      </trkpt>
      <trkpt lat="45.90065" lon="4.51115">
        <ele>322</ele>
        <time>2020-03-14T14:50:34.000Z</time>
      </trkpt>
      <trkpt lat="45.90066" lon="4.51112">
        <ele>322</ele>
        <time>2020-03-14T14:50:35.000Z</time>
      </trkpt>
      <trkpt lat="45.90066" lon="4.5111">
        <ele>322</ele>
        <time>2020-03-14T14:50:36.000Z</time>
      </trkpt>
      <trkpt lat="45.90067" lon="4.51108">
        <ele>322</ele>
        <time>2020-03-14T14:50:37.000Z</time>
      </trkpt>
      <trkpt lat="45.90067" lon="4.51105">
        <ele>322</ele>
        <time>2020-03-14T14:50:38.000Z</time>
      </trkpt>
      <trkpt lat="45.90068" lon="4.51102">
        <ele>322.20001220703</ele>
        <time>2020-03-14T14:50:39.000Z</time>
      </trkpt>
      <trkpt lat="45.90068" lon="4.511">
        <ele>322.20001220703</ele>
        <time>2020-03-14T14:50:40.000Z</time>
      </trkpt>
      <trkpt lat="45.90069" lon="4.51097">
        <ele>322.20001220703</ele>
        <time>2020-03-14T14:50:41.000Z</time>
      </trkpt>
      <trkpt lat="45.90069" lon="4.51094">
        <ele>322.20001220703</ele>
        <time>2020-03-14T14:50:42.000Z</time>
      </trkpt>
      <trkpt lat="45.9007" lon="4.51091">
        <ele>322.20001220703</ele>
        <time>2020-03-14T14:50:43.000Z</time>
      </trkpt>
      <trkpt lat="45.9007" lon="4.51088">
        <ele>322.39999389648</ele>
        <time>2020-03-14T14:50:44.000Z</time>
      </trkpt>
      <trkpt lat="45.9007" lon="4.51085">
        <ele>322.39999389648</ele>
        <time>2020-03-14T14:50:45.000Z</time>
      </trkpt>
      <trkpt lat="45.90071" lon="4.51082">
        <ele>322.60000610352</ele>
        <time>2020-03-14T14:50:46.000Z</time>
      </trkpt>
      <trkpt lat="45.90071" lon="4.5108">
        <ele>322.79998779297</ele>
        <time>2020-03-14T14:50:47.000Z</time>
      </trkpt>
      <trkpt lat="45.90072" lon="4.51077">
        <ele>323</ele>
        <time>2020-03-14T14:50:48.000Z</time>
      </trkpt>
      <trkpt lat="45.90072" lon="4.51074">
        <ele>323</ele>
        <time>2020-03-14T14:50:49.000Z</time>
      </trkpt>
      <trkpt lat="45.90072" lon="4.51071">
        <ele>323.20001220703</ele>
        <time>2020-03-14T14:50:50.000Z</time>
      </trkpt>
      <trkpt lat="45.90073" lon="4.51068">
        <ele>323.20001220703</ele>
        <time>2020-03-14T14:50:51.000Z</time>
      </trkpt>
      <trkpt lat="45.90073" lon="4.51065">
        <ele>323.20001220703</ele>
        <time>2020-03-14T14:50:52.000Z</time>
      </trkpt>
      <trkpt lat="45.90073" lon="4.51062">
        <ele>323.20001220703</ele>
        <time>2020-03-14T14:50:53.000Z</time>
      </trkpt>
      <trkpt lat="45.90074" lon="4.51058">
        <ele>323.20001220703</ele>
        <time>2020-03-14T14:50:54.000Z</time>
      </trkpt>
      <trkpt lat="45.90075" lon="4.51055">
        <ele>323.39999389648</ele>
        <time>2020-03-14T14:50:55.000Z</time>
      </trkpt>
      <trkpt lat="45.90075" lon="4.51051">
        <ele>323.60000610352</ele>
        <time>2020-03-14T14:50:56.000Z</time>
      </trkpt>
      <trkpt lat="45.90076" lon="4.51048">
        <ele>323.79998779297</ele>
        <time>2020-03-14T14:50:57.000Z</time>
      </trkpt>
      <trkpt lat="45.90076" lon="4.51045">
        <ele>324</ele>
        <time>2020-03-14T14:50:58.000Z</time>
      </trkpt>
      <trkpt lat="45.90076" lon="4.51042">
        <ele>324</ele>
        <time>2020-03-14T14:50:59.000Z</time>
      </trkpt>
      <trkpt lat="45.90077" lon="4.51039">
        <ele>324</ele>
        <time>2020-03-14T14:51:00.000Z</time>
      </trkpt>
      <trkpt lat="45.90077" lon="4.51036">
        <ele>324</ele>
        <time>2020-03-14T14:51:01.000Z</time>
      </trkpt>
      <trkpt lat="45.90077" lon="4.51034">
        <ele>324</ele>
        <time>2020-03-14T14:51:02.000Z</time>
      </trkpt>
      <trkpt lat="45.90077" lon="4.5103">
        <ele>324.20001220703</ele>
        <time>2020-03-14T14:51:03.000Z</time>
      </trkpt>
      <trkpt lat="45.90078" lon="4.51027">
        <ele>324.20001220703</ele>
        <time>2020-03-14T14:51:04.000Z</time>
      </trkpt>
      <trkpt lat="45.90078" lon="4.51023">
        <ele>324.39999389648</ele>
        <time>2020-03-14T14:51:05.000Z</time>
      </trkpt>
      <trkpt lat="45.90078" lon="4.5102">
        <ele>324.60000610352</ele>
        <time>2020-03-14T14:51:06.000Z</time>
      </trkpt>
      <trkpt lat="45.90079" lon="4.51016">
        <ele>324.60000610352</ele>
        <time>2020-03-14T14:51:07.000Z</time>
      </trkpt>
      <trkpt lat="45.9008" lon="4.51013">
        <ele>324.60000610352</ele>
        <time>2020-03-14T14:51:08.000Z</time>
      </trkpt>
      <trkpt lat="45.9008" lon="4.51009">
        <ele>324.79998779297</ele>
        <time>2020-03-14T14:51:09.000Z</time>
      </trkpt>
      <trkpt lat="45.90081" lon="4.51005">
        <ele>325</ele>
        <time>2020-03-14T14:51:10.000Z</time>
      </trkpt>
      <trkpt lat="45.90081" lon="4.51001">
        <ele>325</ele>
        <time>2020-03-14T14:51:11.000Z</time>
      </trkpt>
      <trkpt lat="45.90082" lon="4.50996">
        <ele>325</ele>
        <time>2020-03-14T14:51:12.000Z</time>
      </trkpt>
      <trkpt lat="45.90082" lon="4.50992">
        <ele>325</ele>
        <time>2020-03-14T14:51:13.000Z</time>
      </trkpt>
      <trkpt lat="45.90083" lon="4.50987">
        <ele>325</ele>
        <time>2020-03-14T14:51:14.000Z</time>
      </trkpt>
      <trkpt lat="45.90083" lon="4.50983">
        <ele>325</ele>
        <time>2020-03-14T14:51:15.000Z</time>
      </trkpt>
      <trkpt lat="45.90084" lon="4.50979">
        <ele>325</ele>
        <time>2020-03-14T14:51:16.000Z</time>
      </trkpt>
      <trkpt lat="45.90084" lon="4.50975">
        <ele>325</ele>
        <time>2020-03-14T14:51:17.000Z</time>
      </trkpt>
      <trkpt lat="45.90085" lon="4.50971">
        <ele>325</ele>
        <time>2020-03-14T14:51:18.000Z</time>
      </trkpt>
      <trkpt lat="45.90086" lon="4.50967">
        <ele>325.20001220703</ele>
        <time>2020-03-14T14:51:19.000Z</time>
      </trkpt>
      <trkpt lat="45.90086" lon="4.50963">
        <ele>325.20001220703</ele>
        <time>2020-03-14T14:51:20.000Z</time>
      </trkpt>
      <trkpt lat="45.90087" lon="4.50959">
        <ele>325.39999389648</ele>
        <time>2020-03-14T14:51:21.000Z</time>
      </trkpt>
      <trkpt lat="45.90088" lon="4.50956">
        <ele>325.39999389648</ele>
        <time>2020-03-14T14:51:22.000Z</time>
      </trkpt>
      <trkpt lat="45.90089" lon="4.50953">
        <ele>325.39999389648</ele>
        <time>2020-03-14T14:51:23.000Z</time>
      </trkpt>
      <trkpt lat="45.90089" lon="4.5095">
        <ele>325.39999389648</ele>
        <time>2020-03-14T14:51:24.000Z</time>
      </trkpt>
      <trkpt lat="45.9009" lon="4.50947">
        <ele>325.60000610352</ele>
        <time>2020-03-14T14:51:25.000Z</time>
      </trkpt>
      <trkpt lat="45.90091" lon="4.50944">
        <ele>325.79998779297</ele>
        <time>2020-03-14T14:51:26.000Z</time>
      </trkpt>
      <trkpt lat="45.90092" lon="4.50941">
        <ele>325.79998779297</ele>
        <time>2020-03-14T14:51:27.000Z</time>
      </trkpt>
      <trkpt lat="45.90093" lon="4.50938">
        <ele>326</ele>
        <time>2020-03-14T14:51:28.000Z</time>
      </trkpt>
      <trkpt lat="45.90094" lon="4.50936">
        <ele>326</ele>
        <time>2020-03-14T14:51:29.000Z</time>
      </trkpt>
      <trkpt lat="45.90095" lon="4.50934">
        <ele>326</ele>
        <time>2020-03-14T14:51:30.000Z</time>
      </trkpt>
      <trkpt lat="45.90096" lon="4.50932">
        <ele>325.60000610352</ele>
        <time>2020-03-14T14:51:31.000Z</time>
      </trkpt>
      <trkpt lat="45.90097" lon="4.5093">
        <ele>325</ele>
        <time>2020-03-14T14:51:32.000Z</time>
      </trkpt>
      <trkpt lat="45.90098" lon="4.50928">
        <ele>324.79998779297</ele>
        <time>2020-03-14T14:51:33.000Z</time>
      </trkpt>
      <trkpt lat="45.90099" lon="4.50925">
        <ele>324.60000610352</ele>
        <time>2020-03-14T14:51:34.000Z</time>
      </trkpt>
      <trkpt lat="45.901" lon="4.50923">
        <ele>324.60000610352</ele>
        <time>2020-03-14T14:51:35.000Z</time>
      </trkpt>
      <trkpt lat="45.90101" lon="4.5092">
        <ele>324.39999389648</ele>
        <time>2020-03-14T14:51:36.000Z</time>
      </trkpt>
      <trkpt lat="45.90102" lon="4.50918">
        <ele>324.39999389648</ele>
        <time>2020-03-14T14:51:37.000Z</time>
      </trkpt>
      <trkpt lat="45.90103" lon="4.50915">
        <ele>324.39999389648</ele>
        <time>2020-03-14T14:51:38.000Z</time>
      </trkpt>
      <trkpt lat="45.90103" lon="4.50912">
        <ele>324.39999389648</ele>
        <time>2020-03-14T14:51:39.000Z</time>
      </trkpt>
      <trkpt lat="45.90104" lon="4.50909">
        <ele>324.20001220703</ele>
        <time>2020-03-14T14:51:40.000Z</time>
      </trkpt>
      <trkpt lat="45.90105" lon="4.50906">
        <ele>324.39999389648</ele>
        <time>2020-03-14T14:51:41.000Z</time>
      </trkpt>
      <trkpt lat="45.90105" lon="4.50903">
        <ele>324.39999389648</ele>
        <time>2020-03-14T14:51:42.000Z</time>
      </trkpt>
      <trkpt lat="45.90106" lon="4.50897">
        <ele>324.39999389648</ele>
        <time>2020-03-14T14:51:43.000Z</time>
      </trkpt>
      <trkpt lat="45.90107" lon="4.50893">
        <ele>324.39999389648</ele>
        <time>2020-03-14T14:51:44.000Z</time>
      </trkpt>
      <trkpt lat="45.90107" lon="4.5089">
        <ele>324.60000610352</ele>
        <time>2020-03-14T14:51:45.000Z</time>
      </trkpt>
      <trkpt lat="45.90107" lon="4.50888">
        <ele>324.79998779297</ele>
        <time>2020-03-14T14:51:46.000Z</time>
      </trkpt>
      <trkpt lat="45.90108" lon="4.50885">
        <ele>325</ele>
        <time>2020-03-14T14:51:47.000Z</time>
      </trkpt>
      <trkpt lat="45.90108" lon="4.50881">
        <ele>325.20001220703</ele>
        <time>2020-03-14T14:51:48.000Z</time>
      </trkpt>
      <trkpt lat="45.90108" lon="4.50878">
        <ele>325.39999389648</ele>
        <time>2020-03-14T14:51:49.000Z</time>
      </trkpt>
      <trkpt lat="45.90109" lon="4.50874">
        <ele>325.39999389648</ele>
        <time>2020-03-14T14:51:50.000Z</time>
      </trkpt>
      <trkpt lat="45.90109" lon="4.50871">
        <ele>325.60000610352</ele>
        <time>2020-03-14T14:51:51.000Z</time>
      </trkpt>
      <trkpt lat="45.90109" lon="4.50868">
        <ele>325.60000610352</ele>
        <time>2020-03-14T14:51:52.000Z</time>
      </trkpt>
      <trkpt lat="45.90109" lon="4.50865">
        <ele>325.60000610352</ele>
        <time>2020-03-14T14:51:53.000Z</time>
      </trkpt>
      <trkpt lat="45.90109" lon="4.50862">
        <ele>325.60000610352</ele>
        <time>2020-03-14T14:51:54.000Z</time>
      </trkpt>
      <trkpt lat="45.90109" lon="4.5086">
        <ele>325.60000610352</ele>
        <time>2020-03-14T14:51:55.000Z</time>
      </trkpt>
      <trkpt lat="45.90109" lon="4.50858">
        <ele>325.60000610352</ele>
        <time>2020-03-14T14:51:56.000Z</time>
      </trkpt>
      <trkpt lat="45.90109" lon="4.50856">
        <ele>325.60000610352</ele>
        <time>2020-03-14T14:51:57.000Z</time>
      </trkpt>
      <trkpt lat="45.90109" lon="4.50853">
        <ele>325.79998779297</ele>
        <time>2020-03-14T14:51:58.000Z</time>
      </trkpt>
      <trkpt lat="45.90109" lon="4.50851">
        <ele>325.79998779297</ele>
        <time>2020-03-14T14:51:59.000Z</time>
      </trkpt>
      <trkpt lat="45.90109" lon="4.50848">
        <ele>326</ele>
        <time>2020-03-14T14:52:00.000Z</time>
      </trkpt>
      <trkpt lat="45.90109" lon="4.50845">
        <ele>326.20001220703</ele>
        <time>2020-03-14T14:52:01.000Z</time>
      </trkpt>
      <trkpt lat="45.90109" lon="4.50842">
        <ele>326.20001220703</ele>
        <time>2020-03-14T14:52:02.000Z</time>
      </trkpt>
      <trkpt lat="45.90109" lon="4.50839">
        <ele>326.39999389648</ele>
        <time>2020-03-14T14:52:03.000Z</time>
      </trkpt>
      <trkpt lat="45.90109" lon="4.50836">
        <ele>326.39999389648</ele>
        <time>2020-03-14T14:52:04.000Z</time>
      </trkpt>
      <trkpt lat="45.90109" lon="4.50834">
        <ele>326.39999389648</ele>
        <time>2020-03-14T14:52:05.000Z</time>
      </trkpt>
      <trkpt lat="45.90109" lon="4.50831">
        <ele>326.60000610352</ele>
        <time>2020-03-14T14:52:06.000Z</time>
      </trkpt>
      <trkpt lat="45.90109" lon="4.50828">
        <ele>326.60000610352</ele>
        <time>2020-03-14T14:52:07.000Z</time>
      </trkpt>
      <trkpt lat="45.90109" lon="4.50826">
        <ele>326.60000610352</ele>
        <time>2020-03-14T14:52:08.000Z</time>
      </trkpt>
      <trkpt lat="45.90109" lon="4.50823">
        <ele>326.60000610352</ele>
        <time>2020-03-14T14:52:09.000Z</time>
      </trkpt>
      <trkpt lat="45.90109" lon="4.50821">
        <ele>326.79998779297</ele>
        <time>2020-03-14T14:52:10.000Z</time>
      </trkpt>
      <trkpt lat="45.90109" lon="4.50818">
        <ele>327</ele>
        <time>2020-03-14T14:52:11.000Z</time>
      </trkpt>
      <trkpt lat="45.90109" lon="4.50816">
        <ele>327.39999389648</ele>
        <time>2020-03-14T14:52:12.000Z</time>
      </trkpt>
      <trkpt lat="45.9011" lon="4.50813">
        <ele>327.60000610352</ele>
        <time>2020-03-14T14:52:13.000Z</time>
      </trkpt>
      <trkpt lat="45.9011" lon="4.50811">
        <ele>327.79998779297</ele>
        <time>2020-03-14T14:52:14.000Z</time>
      </trkpt>
      <trkpt lat="45.9011" lon="4.50809">
        <ele>327.79998779297</ele>
        <time>2020-03-14T14:52:15.000Z</time>
      </trkpt>
      <trkpt lat="45.90111" lon="4.50807">
        <ele>328</ele>
        <time>2020-03-14T14:52:16.000Z</time>
      </trkpt>
      <trkpt lat="45.90111" lon="4.50805">
        <ele>328.20001220703</ele>
        <time>2020-03-14T14:52:17.000Z</time>
      </trkpt>
      <trkpt lat="45.90111" lon="4.50802">
        <ele>328.39999389648</ele>
        <time>2020-03-14T14:52:18.000Z</time>
      </trkpt>
      <trkpt lat="45.90112" lon="4.508">
        <ele>328.39999389648</ele>
        <time>2020-03-14T14:52:19.000Z</time>
      </trkpt>
      <trkpt lat="45.90112" lon="4.50798">
        <ele>328.60000610352</ele>
        <time>2020-03-14T14:52:20.000Z</time>
      </trkpt>
      <trkpt lat="45.90112" lon="4.50796">
        <ele>328.79998779297</ele>
        <time>2020-03-14T14:52:21.000Z</time>
      </trkpt>
      <trkpt lat="45.90113" lon="4.50793">
        <ele>329.20001220703</ele>
        <time>2020-03-14T14:52:22.000Z</time>
      </trkpt>
      <trkpt lat="45.90113" lon="4.50791">
        <ele>329.39999389648</ele>
        <time>2020-03-14T14:52:23.000Z</time>
      </trkpt>
      <trkpt lat="45.90114" lon="4.50788">
        <ele>329.39999389648</ele>
        <time>2020-03-14T14:52:24.000Z</time>
      </trkpt>
      <trkpt lat="45.90114" lon="4.50785">
        <ele>329.39999389648</ele>
        <time>2020-03-14T14:52:25.000Z</time>
      </trkpt>
      <trkpt lat="45.90115" lon="4.50783">
        <ele>329.60000610352</ele>
        <time>2020-03-14T14:52:26.000Z</time>
      </trkpt>
      <trkpt lat="45.90115" lon="4.50781">
        <ele>329.60000610352</ele>
        <time>2020-03-14T14:52:27.000Z</time>
      </trkpt>
      <trkpt lat="45.90115" lon="4.50778">
        <ele>329.79998779297</ele>
        <time>2020-03-14T14:52:28.000Z</time>
      </trkpt>
      <trkpt lat="45.90116" lon="4.50776">
        <ele>329.79998779297</ele>
        <time>2020-03-14T14:52:29.000Z</time>
      </trkpt>
      <trkpt lat="45.90116" lon="4.50774">
        <ele>329.79998779297</ele>
        <time>2020-03-14T14:52:30.000Z</time>
      </trkpt>
      <trkpt lat="45.90116" lon="4.50772">
        <ele>330</ele>
        <time>2020-03-14T14:52:31.000Z</time>
      </trkpt>
      <trkpt lat="45.90117" lon="4.5077">
        <ele>330</ele>
        <time>2020-03-14T14:52:32.000Z</time>
      </trkpt>
      <trkpt lat="45.90117" lon="4.50768">
        <ele>330</ele>
        <time>2020-03-14T14:52:33.000Z</time>
      </trkpt>
      <trkpt lat="45.90118" lon="4.50766">
        <ele>330.20001220703</ele>
        <time>2020-03-14T14:52:34.000Z</time>
      </trkpt>
      <trkpt lat="45.90118" lon="4.50764">
        <ele>330.20001220703</ele>
        <time>2020-03-14T14:52:35.000Z</time>
      </trkpt>
      <trkpt lat="45.90119" lon="4.50762">
        <ele>330.39999389648</ele>
        <time>2020-03-14T14:52:36.000Z</time>
      </trkpt>
      <trkpt lat="45.90119" lon="4.50759">
        <ele>330.60000610352</ele>
        <time>2020-03-14T14:52:37.000Z</time>
      </trkpt>
      <trkpt lat="45.9012" lon="4.50756">
        <ele>330.79998779297</ele>
        <time>2020-03-14T14:52:38.000Z</time>
      </trkpt>
      <trkpt lat="45.90121" lon="4.50754">
        <ele>330.79998779297</ele>
        <time>2020-03-14T14:52:39.000Z</time>
      </trkpt>
      <trkpt lat="45.90121" lon="4.50751">
        <ele>331</ele>
        <time>2020-03-14T14:52:40.000Z</time>
      </trkpt>
      <trkpt lat="45.90121" lon="4.50749">
        <ele>331</ele>
        <time>2020-03-14T14:52:41.000Z</time>
      </trkpt>
      <trkpt lat="45.90122" lon="4.50747">
        <ele>331.20001220703</ele>
        <time>2020-03-14T14:52:42.000Z</time>
      </trkpt>
      <trkpt lat="45.90122" lon="4.50745">
        <ele>331.20001220703</ele>
        <time>2020-03-14T14:52:43.000Z</time>
      </trkpt>
      <trkpt lat="45.90123" lon="4.50742">
        <ele>331.20001220703</ele>
        <time>2020-03-14T14:52:44.000Z</time>
      </trkpt>
      <trkpt lat="45.90124" lon="4.5074">
        <ele>331.39999389648</ele>
        <time>2020-03-14T14:52:45.000Z</time>
      </trkpt>
      <trkpt lat="45.90124" lon="4.50738">
        <ele>331.60000610352</ele>
        <time>2020-03-14T14:52:46.000Z</time>
      </trkpt>
      <trkpt lat="45.90125" lon="4.50735">
        <ele>331.79998779297</ele>
        <time>2020-03-14T14:52:47.000Z</time>
      </trkpt>
      <trkpt lat="45.90125" lon="4.50732">
        <ele>332</ele>
        <time>2020-03-14T14:52:48.000Z</time>
      </trkpt>
      <trkpt lat="45.90125" lon="4.5073">
        <ele>332.20001220703</ele>
        <time>2020-03-14T14:52:49.000Z</time>
      </trkpt>
      <trkpt lat="45.90126" lon="4.50727">
        <ele>332.39999389648</ele>
        <time>2020-03-14T14:52:50.000Z</time>
      </trkpt>
      <trkpt lat="45.90126" lon="4.50724">
        <ele>332.39999389648</ele>
        <time>2020-03-14T14:52:51.000Z</time>
      </trkpt>
      <trkpt lat="45.90127" lon="4.50721">
        <ele>332.39999389648</ele>
        <time>2020-03-14T14:52:52.000Z</time>
      </trkpt>
      <trkpt lat="45.90127" lon="4.50718">
        <ele>332.20001220703</ele>
        <time>2020-03-14T14:52:53.000Z</time>
      </trkpt>
      <trkpt lat="45.90128" lon="4.50715">
        <ele>332</ele>
        <time>2020-03-14T14:52:54.000Z</time>
      </trkpt>
      <trkpt lat="45.90128" lon="4.50713">
        <ele>331.60000610352</ele>
        <time>2020-03-14T14:52:55.000Z</time>
      </trkpt>
      <trkpt lat="45.90129" lon="4.50709">
        <ele>331.60000610352</ele>
        <time>2020-03-14T14:52:56.000Z</time>
      </trkpt>
      <trkpt lat="45.90129" lon="4.50706">
        <ele>331.39999389648</ele>
        <time>2020-03-14T14:52:57.000Z</time>
      </trkpt>
      <trkpt lat="45.9013" lon="4.50703">
        <ele>331.20001220703</ele>
        <time>2020-03-14T14:52:58.000Z</time>
      </trkpt>
      <trkpt lat="45.9013" lon="4.507">
        <ele>331.39999389648</ele>
        <time>2020-03-14T14:52:59.000Z</time>
      </trkpt>
      <trkpt lat="45.90131" lon="4.50698">
        <ele>331.39999389648</ele>
        <time>2020-03-14T14:53:00.000Z</time>
      </trkpt>
      <trkpt lat="45.90131" lon="4.50695">
        <ele>331.60000610352</ele>
        <time>2020-03-14T14:53:01.000Z</time>
      </trkpt>
      <trkpt lat="45.90132" lon="4.50692">
        <ele>331.60000610352</ele>
        <time>2020-03-14T14:53:02.000Z</time>
      </trkpt>
      <trkpt lat="45.90132" lon="4.50689">
        <ele>331.60000610352</ele>
        <time>2020-03-14T14:53:03.000Z</time>
      </trkpt>
      <trkpt lat="45.90132" lon="4.50686">
        <ele>331.60000610352</ele>
        <time>2020-03-14T14:53:04.000Z</time>
      </trkpt>
      <trkpt lat="45.90133" lon="4.50683">
        <ele>331.60000610352</ele>
        <time>2020-03-14T14:53:05.000Z</time>
      </trkpt>
      <trkpt lat="45.90133" lon="4.5068">
        <ele>331.60000610352</ele>
        <time>2020-03-14T14:53:06.000Z</time>
      </trkpt>
      <trkpt lat="45.90134" lon="4.50677">
        <ele>331.60000610352</ele>
        <time>2020-03-14T14:53:07.000Z</time>
      </trkpt>
      <trkpt lat="45.90134" lon="4.50675">
        <ele>331.79998779297</ele>
        <time>2020-03-14T14:53:08.000Z</time>
      </trkpt>
      <trkpt lat="45.90135" lon="4.50672">
        <ele>331.79998779297</ele>
        <time>2020-03-14T14:53:09.000Z</time>
      </trkpt>
      <trkpt lat="45.90136" lon="4.50669">
        <ele>332</ele>
        <time>2020-03-14T14:53:10.000Z</time>
      </trkpt>
      <trkpt lat="45.90136" lon="4.50667">
        <ele>332</ele>
        <time>2020-03-14T14:53:11.000Z</time>
      </trkpt>
      <trkpt lat="45.90136" lon="4.50664">
        <ele>332.20001220703</ele>
        <time>2020-03-14T14:53:12.000Z</time>
      </trkpt>
      <trkpt lat="45.90137" lon="4.50662">
        <ele>332.39999389648</ele>
        <time>2020-03-14T14:53:13.000Z</time>
      </trkpt>
      <trkpt lat="45.90138" lon="4.5066">
        <ele>332.39999389648</ele>
        <time>2020-03-14T14:53:14.000Z</time>
      </trkpt>
      <trkpt lat="45.90138" lon="4.50657">
        <ele>332.60000610352</ele>
        <time>2020-03-14T14:53:15.000Z</time>
      </trkpt>
      <trkpt lat="45.90139" lon="4.50655">
        <ele>332.79998779297</ele>
        <time>2020-03-14T14:53:16.000Z</time>
      </trkpt>
      <trkpt lat="45.9014" lon="4.50652">
        <ele>332.79998779297</ele>
        <time>2020-03-14T14:53:17.000Z</time>
      </trkpt>
      <trkpt lat="45.9014" lon="4.5065">
        <ele>333</ele>
        <time>2020-03-14T14:53:18.000Z</time>
      </trkpt>
      <trkpt lat="45.90141" lon="4.50647">
        <ele>333.20001220703</ele>
        <time>2020-03-14T14:53:19.000Z</time>
      </trkpt>
      <trkpt lat="45.90141" lon="4.50645">
        <ele>333.39999389648</ele>
        <time>2020-03-14T14:53:20.000Z</time>
      </trkpt>
      <trkpt lat="45.90142" lon="4.50643">
        <ele>333.60000610352</ele>
        <time>2020-03-14T14:53:21.000Z</time>
      </trkpt>
      <trkpt lat="45.90142" lon="4.50641">
        <ele>333.79998779297</ele>
        <time>2020-03-14T14:53:22.000Z</time>
      </trkpt>
      <trkpt lat="45.90143" lon="4.50638">
        <ele>334</ele>
        <time>2020-03-14T14:53:23.000Z</time>
      </trkpt>
      <trkpt lat="45.90143" lon="4.50636">
        <ele>334.39999389648</ele>
        <time>2020-03-14T14:53:24.000Z</time>
      </trkpt>
      <trkpt lat="45.90144" lon="4.50633">
        <ele>334.60000610352</ele>
        <time>2020-03-14T14:53:25.000Z</time>
      </trkpt>
      <trkpt lat="45.90145" lon="4.50631">
        <ele>334.79998779297</ele>
        <time>2020-03-14T14:53:26.000Z</time>
      </trkpt>
      <trkpt lat="45.90145" lon="4.50628">
        <ele>335</ele>
        <time>2020-03-14T14:53:27.000Z</time>
      </trkpt>
      <trkpt lat="45.90146" lon="4.50625">
        <ele>335</ele>
        <time>2020-03-14T14:53:28.000Z</time>
      </trkpt>
      <trkpt lat="45.90146" lon="4.50623">
        <ele>335.20001220703</ele>
        <time>2020-03-14T14:53:29.000Z</time>
      </trkpt>
      <trkpt lat="45.90147" lon="4.50619">
        <ele>335.20001220703</ele>
        <time>2020-03-14T14:53:30.000Z</time>
      </trkpt>
      <trkpt lat="45.90148" lon="4.50617">
        <ele>335.20001220703</ele>
        <time>2020-03-14T14:53:31.000Z</time>
      </trkpt>
      <trkpt lat="45.90148" lon="4.50614">
        <ele>335.39999389648</ele>
        <time>2020-03-14T14:53:32.000Z</time>
      </trkpt>
      <trkpt lat="45.90149" lon="4.50612">
        <ele>335.60000610352</ele>
        <time>2020-03-14T14:53:33.000Z</time>
      </trkpt>
      <trkpt lat="45.90149" lon="4.5061">
        <ele>335.60000610352</ele>
        <time>2020-03-14T14:53:34.000Z</time>
      </trkpt>
      <trkpt lat="45.9015" lon="4.50607">
        <ele>335.79998779297</ele>
        <time>2020-03-14T14:53:35.000Z</time>
      </trkpt>
      <trkpt lat="45.90151" lon="4.50605">
        <ele>336</ele>
        <time>2020-03-14T14:53:36.000Z</time>
      </trkpt>
      <trkpt lat="45.90151" lon="4.50602">
        <ele>336.20001220703</ele>
        <time>2020-03-14T14:53:37.000Z</time>
      </trkpt>
      <trkpt lat="45.90152" lon="4.506">
        <ele>336.20001220703</ele>
        <time>2020-03-14T14:53:38.000Z</time>
      </trkpt>
      <trkpt lat="45.90153" lon="4.50597">
        <ele>336.20001220703</ele>
        <time>2020-03-14T14:53:39.000Z</time>
      </trkpt>
      <trkpt lat="45.90154" lon="4.50595">
        <ele>336.20001220703</ele>
        <time>2020-03-14T14:53:40.000Z</time>
      </trkpt>
      <trkpt lat="45.90155" lon="4.50593">
        <ele>336.39999389648</ele>
        <time>2020-03-14T14:53:41.000Z</time>
      </trkpt>
      <trkpt lat="45.90156" lon="4.50591">
        <ele>336.39999389648</ele>
        <time>2020-03-14T14:53:42.000Z</time>
      </trkpt>
      <trkpt lat="45.90156" lon="4.50588">
        <ele>336.60000610352</ele>
        <time>2020-03-14T14:53:43.000Z</time>
      </trkpt>
      <trkpt lat="45.90158" lon="4.50586">
        <ele>336.60000610352</ele>
        <time>2020-03-14T14:53:44.000Z</time>
      </trkpt>
      <trkpt lat="45.90159" lon="4.50584">
        <ele>336.60000610352</ele>
        <time>2020-03-14T14:53:45.000Z</time>
      </trkpt>
      <trkpt lat="45.90159" lon="4.50583">
        <ele>336.79998779297</ele>
        <time>2020-03-14T14:53:46.000Z</time>
      </trkpt>
      <trkpt lat="45.90159" lon="4.50581">
        <ele>336.79998779297</ele>
        <time>2020-03-14T14:53:47.000Z</time>
      </trkpt>
      <trkpt lat="45.9016" lon="4.50579">
        <ele>336.79998779297</ele>
        <time>2020-03-14T14:53:48.000Z</time>
      </trkpt>
      <trkpt lat="45.9016" lon="4.50577">
        <ele>337</ele>
        <time>2020-03-14T14:53:49.000Z</time>
      </trkpt>
      <trkpt lat="45.9016" lon="4.50575">
        <ele>337.20001220703</ele>
        <time>2020-03-14T14:53:50.000Z</time>
      </trkpt>
      <trkpt lat="45.90161" lon="4.50573">
        <ele>337.60000610352</ele>
        <time>2020-03-14T14:53:51.000Z</time>
      </trkpt>
      <trkpt lat="45.90161" lon="4.5057">
        <ele>337.79998779297</ele>
        <time>2020-03-14T14:53:52.000Z</time>
      </trkpt>
      <trkpt lat="45.90161" lon="4.50568">
        <ele>337.79998779297</ele>
        <time>2020-03-14T14:53:53.000Z</time>
      </trkpt>
      <trkpt lat="45.90162" lon="4.50565">
        <ele>337.79998779297</ele>
        <time>2020-03-14T14:53:54.000Z</time>
      </trkpt>
      <trkpt lat="45.90162" lon="4.50562">
        <ele>337.79998779297</ele>
        <time>2020-03-14T14:53:55.000Z</time>
      </trkpt>
      <trkpt lat="45.90163" lon="4.50559">
        <ele>337.79998779297</ele>
        <time>2020-03-14T14:53:56.000Z</time>
      </trkpt>
      <trkpt lat="45.90163" lon="4.50557">
        <ele>338</ele>
        <time>2020-03-14T14:53:57.000Z</time>
      </trkpt>
      <trkpt lat="45.90164" lon="4.50554">
        <ele>338.20001220703</ele>
        <time>2020-03-14T14:53:58.000Z</time>
      </trkpt>
      <trkpt lat="45.90164" lon="4.50552">
        <ele>338.39999389648</ele>
        <time>2020-03-14T14:53:59.000Z</time>
      </trkpt>
      <trkpt lat="45.90165" lon="4.50549">
        <ele>338.60000610352</ele>
        <time>2020-03-14T14:54:00.000Z</time>
      </trkpt>
      <trkpt lat="45.90165" lon="4.50546">
        <ele>338.60000610352</ele>
        <time>2020-03-14T14:54:01.000Z</time>
      </trkpt>
      <trkpt lat="45.90165" lon="4.50545">
        <ele>338.60000610352</ele>
        <time>2020-03-14T14:54:02.000Z</time>
      </trkpt>
      <trkpt lat="45.90166" lon="4.50542">
        <ele>338.60000610352</ele>
        <time>2020-03-14T14:54:03.000Z</time>
      </trkpt>
      <trkpt lat="45.90166" lon="4.50541">
        <ele>338.39999389648</ele>
        <time>2020-03-14T14:54:04.000Z</time>
      </trkpt>
      <trkpt lat="45.90167" lon="4.50538">
        <ele>338.39999389648</ele>
        <time>2020-03-14T14:54:05.000Z</time>
      </trkpt>
      <trkpt lat="45.90167" lon="4.50536">
        <ele>338.39999389648</ele>
        <time>2020-03-14T14:54:06.000Z</time>
      </trkpt>
      <trkpt lat="45.90168" lon="4.50533">
        <ele>338.60000610352</ele>
        <time>2020-03-14T14:54:07.000Z</time>
      </trkpt>
      <trkpt lat="45.90168" lon="4.50531">
        <ele>338.60000610352</ele>
        <time>2020-03-14T14:54:08.000Z</time>
      </trkpt>
      <trkpt lat="45.90169" lon="4.50528">
        <ele>338.79998779297</ele>
        <time>2020-03-14T14:54:09.000Z</time>
      </trkpt>
      <trkpt lat="45.90169" lon="4.50526">
        <ele>339</ele>
        <time>2020-03-14T14:54:10.000Z</time>
      </trkpt>
      <trkpt lat="45.9017" lon="4.50524">
        <ele>339.20001220703</ele>
        <time>2020-03-14T14:54:11.000Z</time>
      </trkpt>
      <trkpt lat="45.9017" lon="4.50521">
        <ele>339.39999389648</ele>
        <time>2020-03-14T14:54:12.000Z</time>
      </trkpt>
      <trkpt lat="45.90171" lon="4.50519">
        <ele>339.39999389648</ele>
        <time>2020-03-14T14:54:13.000Z</time>
      </trkpt>
      <trkpt lat="45.90171" lon="4.50517">
        <ele>339.20001220703</ele>
        <time>2020-03-14T14:54:14.000Z</time>
      </trkpt>
      <trkpt lat="45.90172" lon="4.50515">
        <ele>339.20001220703</ele>
        <time>2020-03-14T14:54:15.000Z</time>
      </trkpt>
      <trkpt lat="45.90172" lon="4.50513">
        <ele>339.39999389648</ele>
        <time>2020-03-14T14:54:16.000Z</time>
      </trkpt>
      <trkpt lat="45.90173" lon="4.5051">
        <ele>339.39999389648</ele>
        <time>2020-03-14T14:54:17.000Z</time>
      </trkpt>
      <trkpt lat="45.90174" lon="4.50508">
        <ele>339.39999389648</ele>
        <time>2020-03-14T14:54:18.000Z</time>
      </trkpt>
      <trkpt lat="45.90174" lon="4.50505">
        <ele>339.60000610352</ele>
        <time>2020-03-14T14:54:19.000Z</time>
      </trkpt>
      <trkpt lat="45.90174" lon="4.50503">
        <ele>339.79998779297</ele>
        <time>2020-03-14T14:54:20.000Z</time>
      </trkpt>
      <trkpt lat="45.90175" lon="4.50501">
        <ele>340</ele>
        <time>2020-03-14T14:54:21.000Z</time>
      </trkpt>
      <trkpt lat="45.90176" lon="4.50498">
        <ele>340.39999389648</ele>
        <time>2020-03-14T14:54:22.000Z</time>
      </trkpt>
      <trkpt lat="45.90176" lon="4.50496">
        <ele>340.60000610352</ele>
        <time>2020-03-14T14:54:23.000Z</time>
      </trkpt>
      <trkpt lat="45.90177" lon="4.50494">
        <ele>340.79998779297</ele>
        <time>2020-03-14T14:54:24.000Z</time>
      </trkpt>
      <trkpt lat="45.90177" lon="4.50492">
        <ele>341</ele>
        <time>2020-03-14T14:54:25.000Z</time>
      </trkpt>
      <trkpt lat="45.90178" lon="4.50489">
        <ele>341</ele>
        <time>2020-03-14T14:54:26.000Z</time>
      </trkpt>
      <trkpt lat="45.90179" lon="4.50487">
        <ele>341</ele>
        <time>2020-03-14T14:54:27.000Z</time>
      </trkpt>
      <trkpt lat="45.90179" lon="4.50485">
        <ele>341</ele>
        <time>2020-03-14T14:54:28.000Z</time>
      </trkpt>
      <trkpt lat="45.9018" lon="4.50483">
        <ele>341.20001220703</ele>
        <time>2020-03-14T14:54:29.000Z</time>
      </trkpt>
      <trkpt lat="45.90181" lon="4.50481">
        <ele>341.39999389648</ele>
        <time>2020-03-14T14:54:30.000Z</time>
      </trkpt>
      <trkpt lat="45.90181" lon="4.50479">
        <ele>341.60000610352</ele>
        <time>2020-03-14T14:54:31.000Z</time>
      </trkpt>
      <trkpt lat="45.90182" lon="4.50477">
        <ele>341.79998779297</ele>
        <time>2020-03-14T14:54:32.000Z</time>
      </trkpt>
      <trkpt lat="45.90183" lon="4.50474">
        <ele>342</ele>
        <time>2020-03-14T14:54:33.000Z</time>
      </trkpt>
      <trkpt lat="45.90184" lon="4.50473">
        <ele>342.20001220703</ele>
        <time>2020-03-14T14:54:34.000Z</time>
      </trkpt>
      <trkpt lat="45.90185" lon="4.50471">
        <ele>342.20001220703</ele>
        <time>2020-03-14T14:54:35.000Z</time>
      </trkpt>
      <trkpt lat="45.90186" lon="4.50469">
        <ele>342.20001220703</ele>
        <time>2020-03-14T14:54:36.000Z</time>
      </trkpt>
      <trkpt lat="45.90187" lon="4.50466">
        <ele>342.20001220703</ele>
        <time>2020-03-14T14:54:37.000Z</time>
      </trkpt>
      <trkpt lat="45.90188" lon="4.50464">
        <ele>342.39999389648</ele>
        <time>2020-03-14T14:54:38.000Z</time>
      </trkpt>
      <trkpt lat="45.90189" lon="4.50462">
        <ele>342.39999389648</ele>
        <time>2020-03-14T14:54:39.000Z</time>
      </trkpt>
      <trkpt lat="45.90189" lon="4.50459">
        <ele>342.39999389648</ele>
        <time>2020-03-14T14:54:40.000Z</time>
      </trkpt>
      <trkpt lat="45.9019" lon="4.50457">
        <ele>342.39999389648</ele>
        <time>2020-03-14T14:54:41.000Z</time>
      </trkpt>
      <trkpt lat="45.90191" lon="4.50455">
        <ele>342.39999389648</ele>
        <time>2020-03-14T14:54:42.000Z</time>
      </trkpt>
      <trkpt lat="45.90191" lon="4.50452">
        <ele>342.39999389648</ele>
        <time>2020-03-14T14:54:43.000Z</time>
      </trkpt>
      <trkpt lat="45.90192" lon="4.5045">
        <ele>342.39999389648</ele>
        <time>2020-03-14T14:54:44.000Z</time>
      </trkpt>
      <trkpt lat="45.90193" lon="4.50448">
        <ele>342.60000610352</ele>
        <time>2020-03-14T14:54:45.000Z</time>
      </trkpt>
      <trkpt lat="45.90194" lon="4.50446">
        <ele>342.79998779297</ele>
        <time>2020-03-14T14:54:46.000Z</time>
      </trkpt>
      <trkpt lat="45.90195" lon="4.50444">
        <ele>343.20001220703</ele>
        <time>2020-03-14T14:54:47.000Z</time>
      </trkpt>
      <trkpt lat="45.90195" lon="4.50442">
        <ele>343.39999389648</ele>
        <time>2020-03-14T14:54:48.000Z</time>
      </trkpt>
      <trkpt lat="45.90196" lon="4.5044">
        <ele>343.60000610352</ele>
        <time>2020-03-14T14:54:49.000Z</time>
      </trkpt>
      <trkpt lat="45.90197" lon="4.50438">
        <ele>343.79998779297</ele>
        <time>2020-03-14T14:54:50.000Z</time>
      </trkpt>
      <trkpt lat="45.90198" lon="4.50436">
        <ele>344.20001220703</ele>
        <time>2020-03-14T14:54:51.000Z</time>
      </trkpt>
      <trkpt lat="45.90198" lon="4.50434">
        <ele>344.39999389648</ele>
        <time>2020-03-14T14:54:52.000Z</time>
      </trkpt>
      <trkpt lat="45.90199" lon="4.50432">
        <ele>344.60000610352</ele>
        <time>2020-03-14T14:54:53.000Z</time>
      </trkpt>
      <trkpt lat="45.902" lon="4.5043">
        <ele>344.79998779297</ele>
        <time>2020-03-14T14:54:54.000Z</time>
      </trkpt>
      <trkpt lat="45.90201" lon="4.50428">
        <ele>344.79998779297</ele>
        <time>2020-03-14T14:54:55.000Z</time>
      </trkpt>
      <trkpt lat="45.90202" lon="4.50427">
        <ele>345</ele>
        <time>2020-03-14T14:54:56.000Z</time>
      </trkpt>
      <trkpt lat="45.90203" lon="4.50425">
        <ele>345</ele>
        <time>2020-03-14T14:54:57.000Z</time>
      </trkpt>
      <trkpt lat="45.90204" lon="4.50423">
        <ele>345.20001220703</ele>
        <time>2020-03-14T14:54:58.000Z</time>
      </trkpt>
      <trkpt lat="45.90205" lon="4.50422">
        <ele>345.20001220703</ele>
        <time>2020-03-14T14:54:59.000Z</time>
      </trkpt>
      <trkpt lat="45.90206" lon="4.5042">
        <ele>345.20001220703</ele>
        <time>2020-03-14T14:55:00.000Z</time>
      </trkpt>
      <trkpt lat="45.90207" lon="4.50418">
        <ele>345.39999389648</ele>
        <time>2020-03-14T14:55:01.000Z</time>
      </trkpt>
      <trkpt lat="45.90208" lon="4.50416">
        <ele>345.60000610352</ele>
        <time>2020-03-14T14:55:02.000Z</time>
      </trkpt>
      <trkpt lat="45.90209" lon="4.50414">
        <ele>345.60000610352</ele>
        <time>2020-03-14T14:55:03.000Z</time>
      </trkpt>
      <trkpt lat="45.9021" lon="4.50413">
        <ele>345.79998779297</ele>
        <time>2020-03-14T14:55:04.000Z</time>
      </trkpt>
      <trkpt lat="45.90211" lon="4.50411">
        <ele>345.79998779297</ele>
        <time>2020-03-14T14:55:05.000Z</time>
      </trkpt>
      <trkpt lat="45.90211" lon="4.50409">
        <ele>346</ele>
        <time>2020-03-14T14:55:06.000Z</time>
      </trkpt>
      <trkpt lat="45.90212" lon="4.50408">
        <ele>346</ele>
        <time>2020-03-14T14:55:07.000Z</time>
      </trkpt>
      <trkpt lat="45.90212" lon="4.50406">
        <ele>346.20001220703</ele>
        <time>2020-03-14T14:55:08.000Z</time>
      </trkpt>
      <trkpt lat="45.90213" lon="4.50404">
        <ele>346.20001220703</ele>
        <time>2020-03-14T14:55:09.000Z</time>
      </trkpt>
      <trkpt lat="45.90214" lon="4.50402">
        <ele>346.39999389648</ele>
        <time>2020-03-14T14:55:10.000Z</time>
      </trkpt>
      <trkpt lat="45.90214" lon="4.504">
        <ele>346.39999389648</ele>
        <time>2020-03-14T14:55:11.000Z</time>
      </trkpt>
      <trkpt lat="45.90215" lon="4.50399">
        <ele>346.60000610352</ele>
        <time>2020-03-14T14:55:12.000Z</time>
      </trkpt>
      <trkpt lat="45.90216" lon="4.50398">
        <ele>346.79998779297</ele>
        <time>2020-03-14T14:55:13.000Z</time>
      </trkpt>
      <trkpt lat="45.90216" lon="4.50396">
        <ele>346.79998779297</ele>
        <time>2020-03-14T14:55:14.000Z</time>
      </trkpt>
      <trkpt lat="45.90217" lon="4.50395">
        <ele>346.79998779297</ele>
        <time>2020-03-14T14:55:15.000Z</time>
      </trkpt>
      <trkpt lat="45.90218" lon="4.50393">
        <ele>346.79998779297</ele>
        <time>2020-03-14T14:55:16.000Z</time>
      </trkpt>
      <trkpt lat="45.90219" lon="4.50391">
        <ele>346.79998779297</ele>
        <time>2020-03-14T14:55:17.000Z</time>
      </trkpt>
      <trkpt lat="45.9022" lon="4.5039">
        <ele>347</ele>
        <time>2020-03-14T14:55:18.000Z</time>
      </trkpt>
      <trkpt lat="45.90221" lon="4.50388">
        <ele>347</ele>
        <time>2020-03-14T14:55:19.000Z</time>
      </trkpt>
      <trkpt lat="45.90222" lon="4.50387">
        <ele>347</ele>
        <time>2020-03-14T14:55:20.000Z</time>
      </trkpt>
      <trkpt lat="45.90223" lon="4.50385">
        <ele>347.20001220703</ele>
        <time>2020-03-14T14:55:21.000Z</time>
      </trkpt>
      <trkpt lat="45.90224" lon="4.50383">
        <ele>347.39999389648</ele>
        <time>2020-03-14T14:55:22.000Z</time>
      </trkpt>
      <trkpt lat="45.90225" lon="4.50381">
        <ele>347.39999389648</ele>
        <time>2020-03-14T14:55:23.000Z</time>
      </trkpt>
      <trkpt lat="45.90226" lon="4.50379">
        <ele>347.60000610352</ele>
        <time>2020-03-14T14:55:24.000Z</time>
      </trkpt>
      <trkpt lat="45.90227" lon="4.50377">
        <ele>347.60000610352</ele>
        <time>2020-03-14T14:55:25.000Z</time>
      </trkpt>
      <trkpt lat="45.90228" lon="4.50375">
        <ele>347.79998779297</ele>
        <time>2020-03-14T14:55:26.000Z</time>
      </trkpt>
      <trkpt lat="45.90229" lon="4.50373">
        <ele>347.79998779297</ele>
        <time>2020-03-14T14:55:27.000Z</time>
      </trkpt>
      <trkpt lat="45.9023" lon="4.5037">
        <ele>347.79998779297</ele>
        <time>2020-03-14T14:55:28.000Z</time>
      </trkpt>
      <trkpt lat="45.90231" lon="4.50367">
        <ele>347.79998779297</ele>
        <time>2020-03-14T14:55:29.000Z</time>
      </trkpt>
      <trkpt lat="45.90232" lon="4.50364">
        <ele>347.79998779297</ele>
        <time>2020-03-14T14:55:30.000Z</time>
      </trkpt>
      <trkpt lat="45.90233" lon="4.50362">
        <ele>347.79998779297</ele>
        <time>2020-03-14T14:55:31.000Z</time>
      </trkpt>
      <trkpt lat="45.90234" lon="4.5036">
        <ele>348</ele>
        <time>2020-03-14T14:55:32.000Z</time>
      </trkpt>
      <trkpt lat="45.90235" lon="4.50358">
        <ele>348</ele>
        <time>2020-03-14T14:55:33.000Z</time>
      </trkpt>
      <trkpt lat="45.90235" lon="4.50356">
        <ele>348.20001220703</ele>
        <time>2020-03-14T14:55:34.000Z</time>
      </trkpt>
      <trkpt lat="45.90236" lon="4.50354">
        <ele>348.20001220703</ele>
        <time>2020-03-14T14:55:35.000Z</time>
      </trkpt>
      <trkpt lat="45.90237" lon="4.50352">
        <ele>348.39999389648</ele>
        <time>2020-03-14T14:55:36.000Z</time>
      </trkpt>
      <trkpt lat="45.90237" lon="4.50349">
        <ele>348.39999389648</ele>
        <time>2020-03-14T14:55:37.000Z</time>
      </trkpt>
      <trkpt lat="45.90238" lon="4.50347">
        <ele>348.39999389648</ele>
        <time>2020-03-14T14:55:38.000Z</time>
      </trkpt>
      <trkpt lat="45.90239" lon="4.50345">
        <ele>348.60000610352</ele>
        <time>2020-03-14T14:55:39.000Z</time>
      </trkpt>
      <trkpt lat="45.9024" lon="4.50343">
        <ele>348.60000610352</ele>
        <time>2020-03-14T14:55:40.000Z</time>
      </trkpt>
      <trkpt lat="45.90241" lon="4.50341">
        <ele>348.79998779297</ele>
        <time>2020-03-14T14:55:41.000Z</time>
      </trkpt>
      <trkpt lat="45.90241" lon="4.50339">
        <ele>348.79998779297</ele>
        <time>2020-03-14T14:55:42.000Z</time>
      </trkpt>
      <trkpt lat="45.90242" lon="4.50337">
        <ele>348.79998779297</ele>
        <time>2020-03-14T14:55:43.000Z</time>
      </trkpt>
      <trkpt lat="45.90242" lon="4.50335">
        <ele>349</ele>
        <time>2020-03-14T14:55:44.000Z</time>
      </trkpt>
      <trkpt lat="45.90243" lon="4.50333">
        <ele>349</ele>
        <time>2020-03-14T14:55:45.000Z</time>
      </trkpt>
      <trkpt lat="45.90244" lon="4.50332">
        <ele>349.20001220703</ele>
        <time>2020-03-14T14:55:46.000Z</time>
      </trkpt>
      <trkpt lat="45.90244" lon="4.5033">
        <ele>349.39999389648</ele>
        <time>2020-03-14T14:55:47.000Z</time>
      </trkpt>
      <trkpt lat="45.90245" lon="4.50328">
        <ele>349.79998779297</ele>
        <time>2020-03-14T14:55:48.000Z</time>
      </trkpt>
      <trkpt lat="45.90246" lon="4.50327">
        <ele>349.79998779297</ele>
        <time>2020-03-14T14:55:49.000Z</time>
      </trkpt>
      <trkpt lat="45.90247" lon="4.50325">
        <ele>350</ele>
        <time>2020-03-14T14:55:50.000Z</time>
      </trkpt>
      <trkpt lat="45.90248" lon="4.50324">
        <ele>350.20001220703</ele>
        <time>2020-03-14T14:55:51.000Z</time>
      </trkpt>
      <trkpt lat="45.90249" lon="4.50321">
        <ele>350.20001220703</ele>
        <time>2020-03-14T14:55:52.000Z</time>
      </trkpt>
      <trkpt lat="45.9025" lon="4.50319">
        <ele>350.20001220703</ele>
        <time>2020-03-14T14:55:53.000Z</time>
      </trkpt>
      <trkpt lat="45.90251" lon="4.50316">
        <ele>350.39999389648</ele>
        <time>2020-03-14T14:55:54.000Z</time>
      </trkpt>
      <trkpt lat="45.90252" lon="4.50314">
        <ele>350.79998779297</ele>
        <time>2020-03-14T14:55:55.000Z</time>
      </trkpt>
      <trkpt lat="45.90253" lon="4.50312">
        <ele>351</ele>
        <time>2020-03-14T14:55:56.000Z</time>
      </trkpt>
      <trkpt lat="45.90254" lon="4.5031">
        <ele>351.20001220703</ele>
        <time>2020-03-14T14:55:57.000Z</time>
      </trkpt>
      <trkpt lat="45.90255" lon="4.50307">
        <ele>351.39999389648</ele>
        <time>2020-03-14T14:55:58.000Z</time>
      </trkpt>
      <trkpt lat="45.90255" lon="4.50306">
        <ele>351.39999389648</ele>
        <time>2020-03-14T14:55:59.000Z</time>
      </trkpt>
      <trkpt lat="45.90256" lon="4.50304">
        <ele>351.39999389648</ele>
        <time>2020-03-14T14:56:00.000Z</time>
      </trkpt>
      <trkpt lat="45.90257" lon="4.50302">
        <ele>351.39999389648</ele>
        <time>2020-03-14T14:56:01.000Z</time>
      </trkpt>
      <trkpt lat="45.90258" lon="4.503">
        <ele>351.60000610352</ele>
        <time>2020-03-14T14:56:02.000Z</time>
      </trkpt>
      <trkpt lat="45.90259" lon="4.50299">
        <ele>351.79998779297</ele>
        <time>2020-03-14T14:56:03.000Z</time>
      </trkpt>
      <trkpt lat="45.9026" lon="4.50298">
        <ele>352</ele>
        <time>2020-03-14T14:56:04.000Z</time>
      </trkpt>
      <trkpt lat="45.90261" lon="4.50296">
        <ele>352.20001220703</ele>
        <time>2020-03-14T14:56:05.000Z</time>
      </trkpt>
      <trkpt lat="45.90262" lon="4.50295">
        <ele>352.39999389648</ele>
        <time>2020-03-14T14:56:06.000Z</time>
      </trkpt>
      <trkpt lat="45.90263" lon="4.50293">
        <ele>352.39999389648</ele>
        <time>2020-03-14T14:56:07.000Z</time>
      </trkpt>
      <trkpt lat="45.90264" lon="4.50291">
        <ele>352.39999389648</ele>
        <time>2020-03-14T14:56:08.000Z</time>
      </trkpt>
      <trkpt lat="45.90265" lon="4.5029">
        <ele>352.39999389648</ele>
        <time>2020-03-14T14:56:09.000Z</time>
      </trkpt>
      <trkpt lat="45.90266" lon="4.50289">
        <ele>352.60000610352</ele>
        <time>2020-03-14T14:56:10.000Z</time>
      </trkpt>
      <trkpt lat="45.90267" lon="4.50287">
        <ele>352.79998779297</ele>
        <time>2020-03-14T14:56:11.000Z</time>
      </trkpt>
      <trkpt lat="45.90267" lon="4.50286">
        <ele>352.79998779297</ele>
        <time>2020-03-14T14:56:12.000Z</time>
      </trkpt>
      <trkpt lat="45.90268" lon="4.50284">
        <ele>352.79998779297</ele>
        <time>2020-03-14T14:56:13.000Z</time>
      </trkpt>
      <trkpt lat="45.90269" lon="4.50282">
        <ele>353</ele>
        <time>2020-03-14T14:56:14.000Z</time>
      </trkpt>
      <trkpt lat="45.9027" lon="4.5028">
        <ele>353.20001220703</ele>
        <time>2020-03-14T14:56:15.000Z</time>
      </trkpt>
      <trkpt lat="45.90271" lon="4.50279">
        <ele>353.39999389648</ele>
        <time>2020-03-14T14:56:16.000Z</time>
      </trkpt>
      <trkpt lat="45.90272" lon="4.50277">
        <ele>353.60000610352</ele>
        <time>2020-03-14T14:56:17.000Z</time>
      </trkpt>
      <trkpt lat="45.90273" lon="4.50275">
        <ele>353.79998779297</ele>
        <time>2020-03-14T14:56:18.000Z</time>
      </trkpt>
      <trkpt lat="45.90274" lon="4.50272">
        <ele>353.79998779297</ele>
        <time>2020-03-14T14:56:19.000Z</time>
      </trkpt>
      <trkpt lat="45.90274" lon="4.5027">
        <ele>354</ele>
        <time>2020-03-14T14:56:20.000Z</time>
      </trkpt>
      <trkpt lat="45.90275" lon="4.50268">
        <ele>354.20001220703</ele>
        <time>2020-03-14T14:56:21.000Z</time>
      </trkpt>
      <trkpt lat="45.90276" lon="4.50266">
        <ele>354.20001220703</ele>
        <time>2020-03-14T14:56:22.000Z</time>
      </trkpt>
      <trkpt lat="45.90277" lon="4.50264">
        <ele>354.20001220703</ele>
        <time>2020-03-14T14:56:23.000Z</time>
      </trkpt>
      <trkpt lat="45.90278" lon="4.50262">
        <ele>354.20001220703</ele>
        <time>2020-03-14T14:56:24.000Z</time>
      </trkpt>
      <trkpt lat="45.90279" lon="4.5026">
        <ele>354.20001220703</ele>
        <time>2020-03-14T14:56:25.000Z</time>
      </trkpt>
      <trkpt lat="45.9028" lon="4.50258">
        <ele>354.39999389648</ele>
        <time>2020-03-14T14:56:26.000Z</time>
      </trkpt>
      <trkpt lat="45.90281" lon="4.50256">
        <ele>354.39999389648</ele>
        <time>2020-03-14T14:56:27.000Z</time>
      </trkpt>
      <trkpt lat="45.90282" lon="4.50254">
        <ele>354.60000610352</ele>
        <time>2020-03-14T14:56:28.000Z</time>
      </trkpt>
      <trkpt lat="45.90283" lon="4.50252">
        <ele>354.79998779297</ele>
        <time>2020-03-14T14:56:29.000Z</time>
      </trkpt>
      <trkpt lat="45.90284" lon="4.50251">
        <ele>355</ele>
        <time>2020-03-14T14:56:30.000Z</time>
      </trkpt>
      <trkpt lat="45.90285" lon="4.50249">
        <ele>355.20001220703</ele>
        <time>2020-03-14T14:56:31.000Z</time>
      </trkpt>
      <trkpt lat="45.90285" lon="4.50247">
        <ele>355.39999389648</ele>
        <time>2020-03-14T14:56:32.000Z</time>
      </trkpt>
      <trkpt lat="45.90286" lon="4.50245">
        <ele>355.60000610352</ele>
        <time>2020-03-14T14:56:33.000Z</time>
      </trkpt>
      <trkpt lat="45.90287" lon="4.50243">
        <ele>356</ele>
        <time>2020-03-14T14:56:34.000Z</time>
      </trkpt>
      <trkpt lat="45.90288" lon="4.50242">
        <ele>356.20001220703</ele>
        <time>2020-03-14T14:56:35.000Z</time>
      </trkpt>
      <trkpt lat="45.90289" lon="4.5024">
        <ele>356.20001220703</ele>
        <time>2020-03-14T14:56:36.000Z</time>
      </trkpt>
      <trkpt lat="45.90289" lon="4.50238">
        <ele>356.20001220703</ele>
        <time>2020-03-14T14:56:37.000Z</time>
      </trkpt>
      <trkpt lat="45.9029" lon="4.50236">
        <ele>356.39999389648</ele>
        <time>2020-03-14T14:56:38.000Z</time>
      </trkpt>
      <trkpt lat="45.90291" lon="4.50235">
        <ele>356.39999389648</ele>
        <time>2020-03-14T14:56:39.000Z</time>
      </trkpt>
      <trkpt lat="45.90292" lon="4.50232">
        <ele>356.39999389648</ele>
        <time>2020-03-14T14:56:40.000Z</time>
      </trkpt>
      <trkpt lat="45.90293" lon="4.50231">
        <ele>356.39999389648</ele>
        <time>2020-03-14T14:56:41.000Z</time>
      </trkpt>
      <trkpt lat="45.90294" lon="4.50229">
        <ele>356.60000610352</ele>
        <time>2020-03-14T14:56:42.000Z</time>
      </trkpt>
      <trkpt lat="45.90295" lon="4.50228">
        <ele>356.79998779297</ele>
        <time>2020-03-14T14:56:43.000Z</time>
      </trkpt>
      <trkpt lat="45.90296" lon="4.50226">
        <ele>357</ele>
        <time>2020-03-14T14:56:44.000Z</time>
      </trkpt>
      <trkpt lat="45.90297" lon="4.50225">
        <ele>357.39999389648</ele>
        <time>2020-03-14T14:56:45.000Z</time>
      </trkpt>
      <trkpt lat="45.90298" lon="4.50223">
        <ele>357.60000610352</ele>
        <time>2020-03-14T14:56:46.000Z</time>
      </trkpt>
      <trkpt lat="45.90299" lon="4.50222">
        <ele>357.60000610352</ele>
        <time>2020-03-14T14:56:47.000Z</time>
      </trkpt>
      <trkpt lat="45.903" lon="4.5022">
        <ele>357.60000610352</ele>
        <time>2020-03-14T14:56:48.000Z</time>
      </trkpt>
      <trkpt lat="45.903" lon="4.50219">
        <ele>357.79998779297</ele>
        <time>2020-03-14T14:56:49.000Z</time>
      </trkpt>
      <trkpt lat="45.90301" lon="4.50217">
        <ele>357.79998779297</ele>
        <time>2020-03-14T14:56:50.000Z</time>
      </trkpt>
      <trkpt lat="45.90302" lon="4.50216">
        <ele>357.79998779297</ele>
        <time>2020-03-14T14:56:51.000Z</time>
      </trkpt>
      <trkpt lat="45.90303" lon="4.50214">
        <ele>357.79998779297</ele>
        <time>2020-03-14T14:56:52.000Z</time>
      </trkpt>
      <trkpt lat="45.90304" lon="4.50213">
        <ele>357.79998779297</ele>
        <time>2020-03-14T14:56:53.000Z</time>
      </trkpt>
      <trkpt lat="45.90305" lon="4.50211">
        <ele>358</ele>
        <time>2020-03-14T14:56:54.000Z</time>
      </trkpt>
      <trkpt lat="45.90305" lon="4.50209">
        <ele>358</ele>
        <time>2020-03-14T14:56:55.000Z</time>
      </trkpt>
      <trkpt lat="45.90306" lon="4.50207">
        <ele>358</ele>
        <time>2020-03-14T14:56:56.000Z</time>
      </trkpt>
      <trkpt lat="45.90307" lon="4.50205">
        <ele>358.20001220703</ele>
        <time>2020-03-14T14:56:57.000Z</time>
      </trkpt>
      <trkpt lat="45.90308" lon="4.50203">
        <ele>358.39999389648</ele>
        <time>2020-03-14T14:56:58.000Z</time>
      </trkpt>
      <trkpt lat="45.90309" lon="4.50202">
        <ele>358.60000610352</ele>
        <time>2020-03-14T14:56:59.000Z</time>
      </trkpt>
      <trkpt lat="45.9031" lon="4.502">
        <ele>358.79998779297</ele>
        <time>2020-03-14T14:57:00.000Z</time>
      </trkpt>
      <trkpt lat="45.90311" lon="4.50199">
        <ele>358.79998779297</ele>
        <time>2020-03-14T14:57:01.000Z</time>
      </trkpt>
      <trkpt lat="45.90312" lon="4.50197">
        <ele>359</ele>
        <time>2020-03-14T14:57:02.000Z</time>
      </trkpt>
      <trkpt lat="45.90313" lon="4.50195">
        <ele>359</ele>
        <time>2020-03-14T14:57:03.000Z</time>
      </trkpt>
      <trkpt lat="45.90314" lon="4.50194">
        <ele>359.20001220703</ele>
        <time>2020-03-14T14:57:04.000Z</time>
      </trkpt>
      <trkpt lat="45.90315" lon="4.50193">
        <ele>359.39999389648</ele>
        <time>2020-03-14T14:57:05.000Z</time>
      </trkpt>
      <trkpt lat="45.90316" lon="4.50191">
        <ele>359.60000610352</ele>
        <time>2020-03-14T14:57:06.000Z</time>
      </trkpt>
      <trkpt lat="45.90317" lon="4.5019">
        <ele>359.60000610352</ele>
        <time>2020-03-14T14:57:07.000Z</time>
      </trkpt>
      <trkpt lat="45.90318" lon="4.50189">
        <ele>359.60000610352</ele>
        <time>2020-03-14T14:57:08.000Z</time>
      </trkpt>
      <trkpt lat="45.90319" lon="4.50187">
        <ele>359.60000610352</ele>
        <time>2020-03-14T14:57:09.000Z</time>
      </trkpt>
      <trkpt lat="45.9032" lon="4.50186">
        <ele>359.60000610352</ele>
        <time>2020-03-14T14:57:10.000Z</time>
      </trkpt>
      <trkpt lat="45.90321" lon="4.50185">
        <ele>359.60000610352</ele>
        <time>2020-03-14T14:57:11.000Z</time>
      </trkpt>
      <trkpt lat="45.90322" lon="4.50184">
        <ele>359.79998779297</ele>
        <time>2020-03-14T14:57:12.000Z</time>
      </trkpt>
      <trkpt lat="45.90323" lon="4.50182">
        <ele>359.79998779297</ele>
        <time>2020-03-14T14:57:13.000Z</time>
      </trkpt>
      <trkpt lat="45.90324" lon="4.50181">
        <ele>359.79998779297</ele>
        <time>2020-03-14T14:57:14.000Z</time>
      </trkpt>
      <trkpt lat="45.90325" lon="4.5018">
        <ele>360</ele>
        <time>2020-03-14T14:57:15.000Z</time>
      </trkpt>
      <trkpt lat="45.90326" lon="4.50178">
        <ele>360</ele>
        <time>2020-03-14T14:57:16.000Z</time>
      </trkpt>
      <trkpt lat="45.90327" lon="4.50177">
        <ele>360</ele>
        <time>2020-03-14T14:57:17.000Z</time>
      </trkpt>
      <trkpt lat="45.90328" lon="4.50176">
        <ele>360.20001220703</ele>
        <time>2020-03-14T14:57:18.000Z</time>
      </trkpt>
      <trkpt lat="45.90328" lon="4.50175">
        <ele>360.39999389648</ele>
        <time>2020-03-14T14:57:19.000Z</time>
      </trkpt>
      <trkpt lat="45.90329" lon="4.50174">
        <ele>360.60000610352</ele>
        <time>2020-03-14T14:57:20.000Z</time>
      </trkpt>
      <trkpt lat="45.9033" lon="4.50172">
        <ele>360.60000610352</ele>
        <time>2020-03-14T14:57:21.000Z</time>
      </trkpt>
      <trkpt lat="45.90331" lon="4.50171">
        <ele>360.79998779297</ele>
        <time>2020-03-14T14:57:22.000Z</time>
      </trkpt>
      <trkpt lat="45.90332" lon="4.5017">
        <ele>361</ele>
        <time>2020-03-14T14:57:23.000Z</time>
      </trkpt>
      <trkpt lat="45.90333" lon="4.50168">
        <ele>361.39999389648</ele>
        <time>2020-03-14T14:57:24.000Z</time>
      </trkpt>
      <trkpt lat="45.90334" lon="4.50166">
        <ele>361.60000610352</ele>
        <time>2020-03-14T14:57:25.000Z</time>
      </trkpt>
      <trkpt lat="45.90335" lon="4.50164">
        <ele>361.60000610352</ele>
        <time>2020-03-14T14:57:26.000Z</time>
      </trkpt>
      <trkpt lat="45.90336" lon="4.50162">
        <ele>361.79998779297</ele>
        <time>2020-03-14T14:57:27.000Z</time>
      </trkpt>
      <trkpt lat="45.90337" lon="4.5016">
        <ele>361.79998779297</ele>
        <time>2020-03-14T14:57:28.000Z</time>
      </trkpt>
      <trkpt lat="45.90338" lon="4.50159">
        <ele>361.79998779297</ele>
        <time>2020-03-14T14:57:29.000Z</time>
      </trkpt>
      <trkpt lat="45.90339" lon="4.50157">
        <ele>362</ele>
        <time>2020-03-14T14:57:30.000Z</time>
      </trkpt>
      <trkpt lat="45.9034" lon="4.50156">
        <ele>362</ele>
        <time>2020-03-14T14:57:31.000Z</time>
      </trkpt>
      <trkpt lat="45.90341" lon="4.50153">
        <ele>362</ele>
        <time>2020-03-14T14:57:32.000Z</time>
      </trkpt>
      <trkpt lat="45.90342" lon="4.50152">
        <ele>362.20001220703</ele>
        <time>2020-03-14T14:57:33.000Z</time>
      </trkpt>
      <trkpt lat="45.90344" lon="4.5015">
        <ele>362.39999389648</ele>
        <time>2020-03-14T14:57:34.000Z</time>
      </trkpt>
      <trkpt lat="45.90345" lon="4.50149">
        <ele>362.60000610352</ele>
        <time>2020-03-14T14:57:35.000Z</time>
      </trkpt>
      <trkpt lat="45.90346" lon="4.50147">
        <ele>362.79998779297</ele>
        <time>2020-03-14T14:57:36.000Z</time>
      </trkpt>
      <trkpt lat="45.90347" lon="4.50145">
        <ele>362.79998779297</ele>
        <time>2020-03-14T14:57:37.000Z</time>
      </trkpt>
      <trkpt lat="45.90348" lon="4.50144">
        <ele>363</ele>
        <time>2020-03-14T14:57:38.000Z</time>
      </trkpt>
      <trkpt lat="45.90348" lon="4.50143">
        <ele>363</ele>
        <time>2020-03-14T14:57:39.000Z</time>
      </trkpt>
      <trkpt lat="45.90349" lon="4.50141">
        <ele>363.20001220703</ele>
        <time>2020-03-14T14:57:40.000Z</time>
      </trkpt>
      <trkpt lat="45.9035" lon="4.5014">
        <ele>363.20001220703</ele>
        <time>2020-03-14T14:57:41.000Z</time>
      </trkpt>
      <trkpt lat="45.9035" lon="4.50138">
        <ele>363.20001220703</ele>
        <time>2020-03-14T14:57:42.000Z</time>
      </trkpt>
      <trkpt lat="45.9035" lon="4.50136">
        <ele>363.20001220703</ele>
        <time>2020-03-14T14:57:43.000Z</time>
      </trkpt>
      <trkpt lat="45.9035" lon="4.50134">
        <ele>363.39999389648</ele>
        <time>2020-03-14T14:57:44.000Z</time>
      </trkpt>
      <trkpt lat="45.9035" lon="4.50132">
        <ele>363.60000610352</ele>
        <time>2020-03-14T14:57:45.000Z</time>
      </trkpt>
      <trkpt lat="45.9035" lon="4.5013">
        <ele>363.60000610352</ele>
        <time>2020-03-14T14:57:46.000Z</time>
      </trkpt>
      <trkpt lat="45.90348" lon="4.50129">
        <ele>363.60000610352</ele>
        <time>2020-03-14T14:57:47.000Z</time>
      </trkpt>
      <trkpt lat="45.90347" lon="4.50128">
        <ele>363.79998779297</ele>
        <time>2020-03-14T14:57:48.000Z</time>
      </trkpt>
      <trkpt lat="45.90346" lon="4.50127">
        <ele>364</ele>
        <time>2020-03-14T14:57:49.000Z</time>
      </trkpt>
      <trkpt lat="45.90344" lon="4.50127">
        <ele>364</ele>
        <time>2020-03-14T14:57:50.000Z</time>
      </trkpt>
      <trkpt lat="45.90341" lon="4.50127">
        <ele>364</ele>
        <time>2020-03-14T14:57:51.000Z</time>
      </trkpt>
      <trkpt lat="45.90339" lon="4.50127">
        <ele>363.79998779297</ele>
        <time>2020-03-14T14:57:52.000Z</time>
      </trkpt>
      <trkpt lat="45.90336" lon="4.50128">
        <ele>363.60000610352</ele>
        <time>2020-03-14T14:57:53.000Z</time>
      </trkpt>
      <trkpt lat="45.90333" lon="4.50128">
        <ele>363.39999389648</ele>
        <time>2020-03-14T14:57:54.000Z</time>
      </trkpt>
      <trkpt lat="45.90329" lon="4.50128">
        <ele>363.20001220703</ele>
        <time>2020-03-14T14:57:55.000Z</time>
      </trkpt>
      <trkpt lat="45.90324" lon="4.50129">
        <ele>363</ele>
        <time>2020-03-14T14:57:56.000Z</time>
      </trkpt>
      <trkpt lat="45.9032" lon="4.5013">
        <ele>362.79998779297</ele>
        <time>2020-03-14T14:57:57.000Z</time>
      </trkpt>
      <trkpt lat="45.90315" lon="4.50131">
        <ele>362.39999389648</ele>
        <time>2020-03-14T14:57:58.000Z</time>
      </trkpt>
      <trkpt lat="45.90309" lon="4.50132">
        <ele>362.39999389648</ele>
        <time>2020-03-14T14:57:59.000Z</time>
      </trkpt>
      <trkpt lat="45.90303" lon="4.50133">
        <ele>362.20001220703</ele>
        <time>2020-03-14T14:58:00.000Z</time>
      </trkpt>
      <trkpt lat="45.90297" lon="4.50135">
        <ele>362.20001220703</ele>
        <time>2020-03-14T14:58:01.000Z</time>
      </trkpt>
      <trkpt lat="45.9029" lon="4.50137">
        <ele>362.20001220703</ele>
        <time>2020-03-14T14:58:02.000Z</time>
      </trkpt>
      <trkpt lat="45.90284" lon="4.50139">
        <ele>362</ele>
        <time>2020-03-14T14:58:03.000Z</time>
      </trkpt>
      <trkpt lat="45.90277" lon="4.50141">
        <ele>361.79998779297</ele>
        <time>2020-03-14T14:58:04.000Z</time>
      </trkpt>
      <trkpt lat="45.90271" lon="4.50143">
        <ele>361.39999389648</ele>
        <time>2020-03-14T14:58:05.000Z</time>
      </trkpt>
      <trkpt lat="45.90264" lon="4.50146">
        <ele>360.79998779297</ele>
        <time>2020-03-14T14:58:06.000Z</time>
      </trkpt>
      <trkpt lat="45.90258" lon="4.50149">
        <ele>360.39999389648</ele>
        <time>2020-03-14T14:58:07.000Z</time>
      </trkpt>
      <trkpt lat="45.90253" lon="4.50151">
        <ele>360</ele>
        <time>2020-03-14T14:58:08.000Z</time>
      </trkpt>
      <trkpt lat="45.90249" lon="4.50153">
        <ele>359.60000610352</ele>
        <time>2020-03-14T14:58:09.000Z</time>
      </trkpt>
      <trkpt lat="45.90246" lon="4.50154">
        <ele>359.20001220703</ele>
        <time>2020-03-14T14:58:10.000Z</time>
      </trkpt>
      <trkpt lat="45.90243" lon="4.50156">
        <ele>358.60000610352</ele>
        <time>2020-03-14T14:58:11.000Z</time>
      </trkpt>
      <trkpt lat="45.90241" lon="4.50156">
        <ele>358.20001220703</ele>
        <time>2020-03-14T14:58:12.000Z</time>
      </trkpt>
      <trkpt lat="45.90239" lon="4.50154">
        <ele>357.79998779297</ele>
        <time>2020-03-14T14:58:13.000Z</time>
      </trkpt>
      <trkpt lat="45.90236" lon="4.50152">
        <ele>357.39999389648</ele>
        <time>2020-03-14T14:58:14.000Z</time>
      </trkpt>
      <trkpt lat="45.90234" lon="4.5015">
        <ele>357</ele>
        <time>2020-03-14T14:58:15.000Z</time>
      </trkpt>
      <trkpt lat="45.90233" lon="4.50148">
        <ele>356.79998779297</ele>
        <time>2020-03-14T14:58:16.000Z</time>
      </trkpt>
      <trkpt lat="45.90233" lon="4.50145">
        <ele>356.60000610352</ele>
        <time>2020-03-14T14:58:17.000Z</time>
      </trkpt>
      <trkpt lat="45.90233" lon="4.50141">
        <ele>356.60000610352</ele>
        <time>2020-03-14T14:58:18.000Z</time>
      </trkpt>
      <trkpt lat="45.90232" lon="4.50138">
        <ele>356.60000610352</ele>
        <time>2020-03-14T14:58:19.000Z</time>
      </trkpt>
      <trkpt lat="45.90231" lon="4.50135">
        <ele>356.60000610352</ele>
        <time>2020-03-14T14:58:20.000Z</time>
      </trkpt>
      <trkpt lat="45.90231" lon="4.50132">
        <ele>356.79998779297</ele>
        <time>2020-03-14T14:58:21.000Z</time>
      </trkpt>
      <trkpt lat="45.9023" lon="4.50129">
        <ele>357</ele>
        <time>2020-03-14T14:58:22.000Z</time>
      </trkpt>
      <trkpt lat="45.9023" lon="4.50126">
        <ele>357</ele>
        <time>2020-03-14T14:58:23.000Z</time>
      </trkpt>
      <trkpt lat="45.9023" lon="4.50123">
        <ele>357</ele>
        <time>2020-03-14T14:58:24.000Z</time>
      </trkpt>
      <trkpt lat="45.90229" lon="4.50119">
        <ele>357.20001220703</ele>
        <time>2020-03-14T14:58:25.000Z</time>
      </trkpt>
      <trkpt lat="45.90229" lon="4.50115">
        <ele>357.20001220703</ele>
        <time>2020-03-14T14:58:26.000Z</time>
      </trkpt>
      <trkpt lat="45.90228" lon="4.50111">
        <ele>357.39999389648</ele>
        <time>2020-03-14T14:58:27.000Z</time>
      </trkpt>
      <trkpt lat="45.90228" lon="4.50107">
        <ele>357.60000610352</ele>
        <time>2020-03-14T14:58:28.000Z</time>
      </trkpt>
      <trkpt lat="45.90228" lon="4.50102">
        <ele>357.79998779297</ele>
        <time>2020-03-14T14:58:29.000Z</time>
      </trkpt>
      <trkpt lat="45.90228" lon="4.50098">
        <ele>358</ele>
        <time>2020-03-14T14:58:30.000Z</time>
      </trkpt>
      <trkpt lat="45.90227" lon="4.50094">
        <ele>358</ele>
        <time>2020-03-14T14:58:31.000Z</time>
      </trkpt>
      <trkpt lat="45.90227" lon="4.50089">
        <ele>358</ele>
        <time>2020-03-14T14:58:32.000Z</time>
      </trkpt>
      <trkpt lat="45.90226" lon="4.50085">
        <ele>358</ele>
        <time>2020-03-14T14:58:33.000Z</time>
      </trkpt>
      <trkpt lat="45.90226" lon="4.5008">
        <ele>358</ele>
        <time>2020-03-14T14:58:34.000Z</time>
      </trkpt>
      <trkpt lat="45.90225" lon="4.50076">
        <ele>358</ele>
        <time>2020-03-14T14:58:35.000Z</time>
      </trkpt>
      <trkpt lat="45.90225" lon="4.50072">
        <ele>358</ele>
        <time>2020-03-14T14:58:36.000Z</time>
      </trkpt>
      <trkpt lat="45.90224" lon="4.50068">
        <ele>358.20001220703</ele>
        <time>2020-03-14T14:58:37.000Z</time>
      </trkpt>
      <trkpt lat="45.90223" lon="4.50064">
        <ele>358.39999389648</ele>
        <time>2020-03-14T14:58:38.000Z</time>
      </trkpt>
      <trkpt lat="45.90223" lon="4.5006">
        <ele>358.60000610352</ele>
        <time>2020-03-14T14:58:39.000Z</time>
      </trkpt>
      <trkpt lat="45.90222" lon="4.50056">
        <ele>358.79998779297</ele>
        <time>2020-03-14T14:58:40.000Z</time>
      </trkpt>
      <trkpt lat="45.90221" lon="4.50052">
        <ele>358.79998779297</ele>
        <time>2020-03-14T14:58:41.000Z</time>
      </trkpt>
      <trkpt lat="45.9022" lon="4.50048">
        <ele>359</ele>
        <time>2020-03-14T14:58:42.000Z</time>
      </trkpt>
      <trkpt lat="45.90219" lon="4.50044">
        <ele>358.79998779297</ele>
        <time>2020-03-14T14:58:43.000Z</time>
      </trkpt>
      <trkpt lat="45.90218" lon="4.50041">
        <ele>358.79998779297</ele>
        <time>2020-03-14T14:58:44.000Z</time>
      </trkpt>
      <trkpt lat="45.90217" lon="4.50037">
        <ele>358.60000610352</ele>
        <time>2020-03-14T14:58:45.000Z</time>
      </trkpt>
      <trkpt lat="45.90215" lon="4.50033">
        <ele>358.60000610352</ele>
        <time>2020-03-14T14:58:46.000Z</time>
      </trkpt>
      <trkpt lat="45.90214" lon="4.5003">
        <ele>358.60000610352</ele>
        <time>2020-03-14T14:58:47.000Z</time>
      </trkpt>
      <trkpt lat="45.90212" lon="4.50026">
        <ele>358.60000610352</ele>
        <time>2020-03-14T14:58:48.000Z</time>
      </trkpt>
      <trkpt lat="45.90211" lon="4.50023">
        <ele>358.79998779297</ele>
        <time>2020-03-14T14:58:49.000Z</time>
      </trkpt>
      <trkpt lat="45.90209" lon="4.50019">
        <ele>359.20001220703</ele>
        <time>2020-03-14T14:58:50.000Z</time>
      </trkpt>
      <trkpt lat="45.90208" lon="4.50016">
        <ele>359.39999389648</ele>
        <time>2020-03-14T14:58:51.000Z</time>
      </trkpt>
      <trkpt lat="45.90206" lon="4.50012">
        <ele>359.60000610352</ele>
        <time>2020-03-14T14:58:52.000Z</time>
      </trkpt>
      <trkpt lat="45.90205" lon="4.50008">
        <ele>359.79998779297</ele>
        <time>2020-03-14T14:58:53.000Z</time>
      </trkpt>
      <trkpt lat="45.90203" lon="4.50005">
        <ele>359.79998779297</ele>
        <time>2020-03-14T14:58:54.000Z</time>
      </trkpt>
      <trkpt lat="45.90202" lon="4.50001">
        <ele>360</ele>
        <time>2020-03-14T14:58:55.000Z</time>
      </trkpt>
      <trkpt lat="45.902" lon="4.49997">
        <ele>360.39999389648</ele>
        <time>2020-03-14T14:58:56.000Z</time>
      </trkpt>
      <trkpt lat="45.90199" lon="4.49993">
        <ele>360.60000610352</ele>
        <time>2020-03-14T14:58:57.000Z</time>
      </trkpt>
      <trkpt lat="45.90197" lon="4.49989">
        <ele>360.60000610352</ele>
        <time>2020-03-14T14:58:58.000Z</time>
      </trkpt>
      <trkpt lat="45.90196" lon="4.49986">
        <ele>360.60000610352</ele>
        <time>2020-03-14T14:58:59.000Z</time>
      </trkpt>
      <trkpt lat="45.90194" lon="4.49982">
        <ele>360.79998779297</ele>
        <time>2020-03-14T14:59:00.000Z</time>
      </trkpt>
      <trkpt lat="45.90193" lon="4.49978">
        <ele>360.60000610352</ele>
        <time>2020-03-14T14:59:01.000Z</time>
      </trkpt>
      <trkpt lat="45.90192" lon="4.49974">
        <ele>360.60000610352</ele>
        <time>2020-03-14T14:59:02.000Z</time>
      </trkpt>
      <trkpt lat="45.90191" lon="4.49971">
        <ele>360.39999389648</ele>
        <time>2020-03-14T14:59:03.000Z</time>
      </trkpt>
      <trkpt lat="45.9019" lon="4.49967">
        <ele>360.39999389648</ele>
        <time>2020-03-14T14:59:04.000Z</time>
      </trkpt>
      <trkpt lat="45.9019" lon="4.49963">
        <ele>360.60000610352</ele>
        <time>2020-03-14T14:59:05.000Z</time>
      </trkpt>
      <trkpt lat="45.90189" lon="4.49959">
        <ele>360.79998779297</ele>
        <time>2020-03-14T14:59:06.000Z</time>
      </trkpt>
      <trkpt lat="45.90188" lon="4.49955">
        <ele>360.79998779297</ele>
        <time>2020-03-14T14:59:07.000Z</time>
      </trkpt>
      <trkpt lat="45.90188" lon="4.49951">
        <ele>361</ele>
        <time>2020-03-14T14:59:08.000Z</time>
      </trkpt>
      <trkpt lat="45.90187" lon="4.49948">
        <ele>361.20001220703</ele>
        <time>2020-03-14T14:59:09.000Z</time>
      </trkpt>
      <trkpt lat="45.90186" lon="4.49944">
        <ele>361.39999389648</ele>
        <time>2020-03-14T14:59:10.000Z</time>
      </trkpt>
      <trkpt lat="45.90185" lon="4.4994">
        <ele>361.60000610352</ele>
        <time>2020-03-14T14:59:11.000Z</time>
      </trkpt>
      <trkpt lat="45.90184" lon="4.49936">
        <ele>361.79998779297</ele>
        <time>2020-03-14T14:59:12.000Z</time>
      </trkpt>
      <trkpt lat="45.90183" lon="4.49932">
        <ele>361.79998779297</ele>
        <time>2020-03-14T14:59:13.000Z</time>
      </trkpt>
      <trkpt lat="45.90182" lon="4.49928">
        <ele>361.79998779297</ele>
        <time>2020-03-14T14:59:14.000Z</time>
      </trkpt>
      <trkpt lat="45.90182" lon="4.49924">
        <ele>361.79998779297</ele>
        <time>2020-03-14T14:59:15.000Z</time>
      </trkpt>
      <trkpt lat="45.90181" lon="4.4992">
        <ele>362</ele>
        <time>2020-03-14T14:59:16.000Z</time>
      </trkpt>
      <trkpt lat="45.9018" lon="4.49916">
        <ele>362.20001220703</ele>
        <time>2020-03-14T14:59:17.000Z</time>
      </trkpt>
      <trkpt lat="45.9018" lon="4.49912">
        <ele>362.39999389648</ele>
        <time>2020-03-14T14:59:18.000Z</time>
      </trkpt>
      <trkpt lat="45.90179" lon="4.49908">
        <ele>362.39999389648</ele>
        <time>2020-03-14T14:59:19.000Z</time>
      </trkpt>
      <trkpt lat="45.90178" lon="4.49905">
        <ele>362.60000610352</ele>
        <time>2020-03-14T14:59:20.000Z</time>
      </trkpt>
      <trkpt lat="45.90177" lon="4.49901">
        <ele>363</ele>
        <time>2020-03-14T14:59:21.000Z</time>
      </trkpt>
      <trkpt lat="45.90176" lon="4.49898">
        <ele>363</ele>
        <time>2020-03-14T14:59:22.000Z</time>
      </trkpt>
      <trkpt lat="45.90175" lon="4.49894">
        <ele>363</ele>
        <time>2020-03-14T14:59:23.000Z</time>
      </trkpt>
      <trkpt lat="45.90174" lon="4.4989">
        <ele>363</ele>
        <time>2020-03-14T14:59:24.000Z</time>
      </trkpt>
      <trkpt lat="45.90174" lon="4.49887">
        <ele>363.20001220703</ele>
        <time>2020-03-14T14:59:25.000Z</time>
      </trkpt>
      <trkpt lat="45.90173" lon="4.49884">
        <ele>363.39999389648</ele>
        <time>2020-03-14T14:59:26.000Z</time>
      </trkpt>
      <trkpt lat="45.90173" lon="4.49881">
        <ele>363.39999389648</ele>
        <time>2020-03-14T14:59:27.000Z</time>
      </trkpt>
      <trkpt lat="45.90173" lon="4.49877">
        <ele>363.39999389648</ele>
        <time>2020-03-14T14:59:28.000Z</time>
      </trkpt>
      <trkpt lat="45.90172" lon="4.49873">
        <ele>363.20001220703</ele>
        <time>2020-03-14T14:59:29.000Z</time>
      </trkpt>
      <trkpt lat="45.90172" lon="4.4987">
        <ele>363.20001220703</ele>
        <time>2020-03-14T14:59:30.000Z</time>
      </trkpt>
      <trkpt lat="45.90172" lon="4.49866">
        <ele>363.20001220703</ele>
        <time>2020-03-14T14:59:31.000Z</time>
      </trkpt>
      <trkpt lat="45.90172" lon="4.49861">
        <ele>363.20001220703</ele>
        <time>2020-03-14T14:59:32.000Z</time>
      </trkpt>
      <trkpt lat="45.90172" lon="4.49858">
        <ele>363.20001220703</ele>
        <time>2020-03-14T14:59:33.000Z</time>
      </trkpt>
      <trkpt lat="45.90172" lon="4.49854">
        <ele>363</ele>
        <time>2020-03-14T14:59:34.000Z</time>
      </trkpt>
      <trkpt lat="45.90172" lon="4.49851">
        <ele>363</ele>
        <time>2020-03-14T14:59:35.000Z</time>
      </trkpt>
      <trkpt lat="45.90172" lon="4.49847">
        <ele>363</ele>
        <time>2020-03-14T14:59:36.000Z</time>
      </trkpt>
      <trkpt lat="45.90172" lon="4.49844">
        <ele>363.20001220703</ele>
        <time>2020-03-14T14:59:37.000Z</time>
      </trkpt>
      <trkpt lat="45.90172" lon="4.4984">
        <ele>363.20001220703</ele>
        <time>2020-03-14T14:59:38.000Z</time>
      </trkpt>
      <trkpt lat="45.90172" lon="4.49835">
        <ele>363.39999389648</ele>
        <time>2020-03-14T14:59:39.000Z</time>
      </trkpt>
      <trkpt lat="45.90172" lon="4.49831">
        <ele>363.39999389648</ele>
        <time>2020-03-14T14:59:40.000Z</time>
      </trkpt>
      <trkpt lat="45.90172" lon="4.49828">
        <ele>363.79998779297</ele>
        <time>2020-03-14T14:59:41.000Z</time>
      </trkpt>
      <trkpt lat="45.90172" lon="4.49824">
        <ele>363.79998779297</ele>
        <time>2020-03-14T14:59:42.000Z</time>
      </trkpt>
      <trkpt lat="45.90172" lon="4.4982">
        <ele>363.79998779297</ele>
        <time>2020-03-14T14:59:43.000Z</time>
      </trkpt>
      <trkpt lat="45.90173" lon="4.49817">
        <ele>363.79998779297</ele>
        <time>2020-03-14T14:59:44.000Z</time>
      </trkpt>
      <trkpt lat="45.90173" lon="4.49813">
        <ele>363.79998779297</ele>
        <time>2020-03-14T14:59:45.000Z</time>
      </trkpt>
      <trkpt lat="45.90173" lon="4.4981">
        <ele>364</ele>
        <time>2020-03-14T14:59:46.000Z</time>
      </trkpt>
      <trkpt lat="45.90173" lon="4.49806">
        <ele>364</ele>
        <time>2020-03-14T14:59:47.000Z</time>
      </trkpt>
      <trkpt lat="45.90173" lon="4.49803">
        <ele>363.79998779297</ele>
        <time>2020-03-14T14:59:48.000Z</time>
      </trkpt>
      <trkpt lat="45.90173" lon="4.49799">
        <ele>363.79998779297</ele>
        <time>2020-03-14T14:59:49.000Z</time>
      </trkpt>
      <trkpt lat="45.90174" lon="4.49796">
        <ele>363.79998779297</ele>
        <time>2020-03-14T14:59:50.000Z</time>
      </trkpt>
      <trkpt lat="45.90174" lon="4.49792">
        <ele>363.79998779297</ele>
        <time>2020-03-14T14:59:51.000Z</time>
      </trkpt>
      <trkpt lat="45.90174" lon="4.49788">
        <ele>364</ele>
        <time>2020-03-14T14:59:52.000Z</time>
      </trkpt>
      <trkpt lat="45.90174" lon="4.49785">
        <ele>364</ele>
        <time>2020-03-14T14:59:53.000Z</time>
      </trkpt>
      <trkpt lat="45.90175" lon="4.49781">
        <ele>364</ele>
        <time>2020-03-14T14:59:54.000Z</time>
      </trkpt>
      <trkpt lat="45.90174" lon="4.49778">
        <ele>364.20001220703</ele>
        <time>2020-03-14T14:59:55.000Z</time>
      </trkpt>
      <trkpt lat="45.90174" lon="4.49775">
        <ele>364.20001220703</ele>
        <time>2020-03-14T14:59:56.000Z</time>
      </trkpt>
      <trkpt lat="45.90175" lon="4.49771">
        <ele>364.39999389648</ele>
        <time>2020-03-14T14:59:57.000Z</time>
      </trkpt>
      <trkpt lat="45.90175" lon="4.49768">
        <ele>364.60000610352</ele>
        <time>2020-03-14T14:59:58.000Z</time>
      </trkpt>
      <trkpt lat="45.90175" lon="4.49765">
        <ele>364.60000610352</ele>
        <time>2020-03-14T14:59:59.000Z</time>
      </trkpt>
      <trkpt lat="45.90176" lon="4.49761">
        <ele>364.79998779297</ele>
        <time>2020-03-14T15:00:00.000Z</time>
      </trkpt>
      <trkpt lat="45.90177" lon="4.49758">
        <ele>365</ele>
        <time>2020-03-14T15:00:01.000Z</time>
      </trkpt>
      <trkpt lat="45.90177" lon="4.49755">
        <ele>365</ele>
        <time>2020-03-14T15:00:02.000Z</time>
      </trkpt>
      <trkpt lat="45.90177" lon="4.49753">
        <ele>365.20001220703</ele>
        <time>2020-03-14T15:00:03.000Z</time>
      </trkpt>
      <trkpt lat="45.90178" lon="4.4975">
        <ele>365.20001220703</ele>
        <time>2020-03-14T15:00:04.000Z</time>
      </trkpt>
      <trkpt lat="45.90178" lon="4.49748">
        <ele>365.39999389648</ele>
        <time>2020-03-14T15:00:05.000Z</time>
      </trkpt>
      <trkpt lat="45.90178" lon="4.49745">
        <ele>365.39999389648</ele>
        <time>2020-03-14T15:00:06.000Z</time>
      </trkpt>
      <trkpt lat="45.90178" lon="4.49743">
        <ele>365.60000610352</ele>
        <time>2020-03-14T15:00:07.000Z</time>
      </trkpt>
      <trkpt lat="45.90178" lon="4.49741">
        <ele>365.79998779297</ele>
        <time>2020-03-14T15:00:08.000Z</time>
      </trkpt>
      <trkpt lat="45.90177" lon="4.49738">
        <ele>366.20001220703</ele>
        <time>2020-03-14T15:00:09.000Z</time>
      </trkpt>
      <trkpt lat="45.90176" lon="4.49736">
        <ele>366.60000610352</ele>
        <time>2020-03-14T15:00:10.000Z</time>
      </trkpt>
      <trkpt lat="45.90174" lon="4.49734">
        <ele>367</ele>
        <time>2020-03-14T15:00:11.000Z</time>
      </trkpt>
      <trkpt lat="45.90173" lon="4.49733">
        <ele>367.20001220703</ele>
        <time>2020-03-14T15:00:12.000Z</time>
      </trkpt>
      <trkpt lat="45.90171" lon="4.49731">
        <ele>367.20001220703</ele>
        <time>2020-03-14T15:00:13.000Z</time>
      </trkpt>
      <trkpt lat="45.9017" lon="4.4973">
        <ele>367.20001220703</ele>
        <time>2020-03-14T15:00:14.000Z</time>
      </trkpt>
      <trkpt lat="45.90168" lon="4.49728">
        <ele>367.20001220703</ele>
        <time>2020-03-14T15:00:15.000Z</time>
      </trkpt>
      <trkpt lat="45.90166" lon="4.49726">
        <ele>367</ele>
        <time>2020-03-14T15:00:16.000Z</time>
      </trkpt>
      <trkpt lat="45.90165" lon="4.49724">
        <ele>366.79998779297</ele>
        <time>2020-03-14T15:00:17.000Z</time>
      </trkpt>
      <trkpt lat="45.90163" lon="4.49722">
        <ele>366.79998779297</ele>
        <time>2020-03-14T15:00:18.000Z</time>
      </trkpt>
      <trkpt lat="45.90161" lon="4.49721">
        <ele>366.60000610352</ele>
        <time>2020-03-14T15:00:19.000Z</time>
      </trkpt>
      <trkpt lat="45.9016" lon="4.49719">
        <ele>366.60000610352</ele>
        <time>2020-03-14T15:00:20.000Z</time>
      </trkpt>
      <trkpt lat="45.90158" lon="4.49717">
        <ele>366.79998779297</ele>
        <time>2020-03-14T15:00:21.000Z</time>
      </trkpt>
      <trkpt lat="45.90156" lon="4.49716">
        <ele>367</ele>
        <time>2020-03-14T15:00:22.000Z</time>
      </trkpt>
      <trkpt lat="45.90154" lon="4.49714">
        <ele>367.20001220703</ele>
        <time>2020-03-14T15:00:23.000Z</time>
      </trkpt>
      <trkpt lat="45.90152" lon="4.49713">
        <ele>367.39999389648</ele>
        <time>2020-03-14T15:00:24.000Z</time>
      </trkpt>
      <trkpt lat="45.9015" lon="4.49711">
        <ele>367.79998779297</ele>
        <time>2020-03-14T15:00:25.000Z</time>
      </trkpt>
      <trkpt lat="45.90148" lon="4.4971">
        <ele>368</ele>
        <time>2020-03-14T15:00:26.000Z</time>
      </trkpt>
      <trkpt lat="45.90147" lon="4.49709">
        <ele>368.20001220703</ele>
        <time>2020-03-14T15:00:27.000Z</time>
      </trkpt>
      <trkpt lat="45.90145" lon="4.49708">
        <ele>368.39999389648</ele>
        <time>2020-03-14T15:00:28.000Z</time>
      </trkpt>
      <trkpt lat="45.90144" lon="4.49706">
        <ele>368.60000610352</ele>
        <time>2020-03-14T15:00:29.000Z</time>
      </trkpt>
      <trkpt lat="45.90142" lon="4.49705">
        <ele>368.79998779297</ele>
        <time>2020-03-14T15:00:30.000Z</time>
      </trkpt>
      <trkpt lat="45.90141" lon="4.49703">
        <ele>368.79998779297</ele>
        <time>2020-03-14T15:00:31.000Z</time>
      </trkpt>
      <trkpt lat="45.90139" lon="4.49701">
        <ele>368.79998779297</ele>
        <time>2020-03-14T15:00:32.000Z</time>
      </trkpt>
      <trkpt lat="45.90137" lon="4.497">
        <ele>368.79998779297</ele>
        <time>2020-03-14T15:00:33.000Z</time>
      </trkpt>
      <trkpt lat="45.90136" lon="4.49698">
        <ele>368.79998779297</ele>
        <time>2020-03-14T15:00:34.000Z</time>
      </trkpt>
      <trkpt lat="45.90134" lon="4.49697">
        <ele>368.79998779297</ele>
        <time>2020-03-14T15:00:35.000Z</time>
      </trkpt>
      <trkpt lat="45.90132" lon="4.49696">
        <ele>369</ele>
        <time>2020-03-14T15:00:36.000Z</time>
      </trkpt>
      <trkpt lat="45.9013" lon="4.49694">
        <ele>369.39999389648</ele>
        <time>2020-03-14T15:00:37.000Z</time>
      </trkpt>
      <trkpt lat="45.90129" lon="4.49692">
        <ele>369.60000610352</ele>
        <time>2020-03-14T15:00:38.000Z</time>
      </trkpt>
      <trkpt lat="45.90127" lon="4.4969">
        <ele>369.79998779297</ele>
        <time>2020-03-14T15:00:39.000Z</time>
      </trkpt>
      <trkpt lat="45.90126" lon="4.49688">
        <ele>370</ele>
        <time>2020-03-14T15:00:40.000Z</time>
      </trkpt>
      <trkpt lat="45.90125" lon="4.49686">
        <ele>370</ele>
        <time>2020-03-14T15:00:41.000Z</time>
      </trkpt>
      <trkpt lat="45.90123" lon="4.49684">
        <ele>370</ele>
        <time>2020-03-14T15:00:42.000Z</time>
      </trkpt>
      <trkpt lat="45.90122" lon="4.49681">
        <ele>369.79998779297</ele>
        <time>2020-03-14T15:00:43.000Z</time>
      </trkpt>
      <trkpt lat="45.90121" lon="4.49679">
        <ele>369.39999389648</ele>
        <time>2020-03-14T15:00:44.000Z</time>
      </trkpt>
      <trkpt lat="45.9012" lon="4.49678">
        <ele>369.20001220703</ele>
        <time>2020-03-14T15:00:45.000Z</time>
      </trkpt>
      <trkpt lat="45.90119" lon="4.49676">
        <ele>369.20001220703</ele>
        <time>2020-03-14T15:00:46.000Z</time>
      </trkpt>
      <trkpt lat="45.90119" lon="4.49674">
        <ele>369.20001220703</ele>
        <time>2020-03-14T15:00:47.000Z</time>
      </trkpt>
      <trkpt lat="45.90117" lon="4.49673">
        <ele>369</ele>
        <time>2020-03-14T15:00:48.000Z</time>
      </trkpt>
      <trkpt lat="45.90116" lon="4.49671">
        <ele>369.20001220703</ele>
        <time>2020-03-14T15:00:49.000Z</time>
      </trkpt>
      <trkpt lat="45.90115" lon="4.4967">
        <ele>369.20001220703</ele>
        <time>2020-03-14T15:00:50.000Z</time>
      </trkpt>
      <trkpt lat="45.90114" lon="4.49669">
        <ele>369.20001220703</ele>
        <time>2020-03-14T15:00:51.000Z</time>
      </trkpt>
      <trkpt lat="45.90113" lon="4.49668">
        <ele>369.39999389648</ele>
        <time>2020-03-14T15:00:52.000Z</time>
      </trkpt>
      <trkpt lat="45.90112" lon="4.49667">
        <ele>369.60000610352</ele>
        <time>2020-03-14T15:00:53.000Z</time>
      </trkpt>
      <trkpt lat="45.90112" lon="4.49665">
        <ele>369.79998779297</ele>
        <time>2020-03-14T15:00:54.000Z</time>
      </trkpt>
      <trkpt lat="45.90111" lon="4.49664">
        <ele>370</ele>
        <time>2020-03-14T15:00:55.000Z</time>
      </trkpt>
      <trkpt lat="45.9011" lon="4.49663">
        <ele>370.20001220703</ele>
        <time>2020-03-14T15:00:56.000Z</time>
      </trkpt>
      <trkpt lat="45.90109" lon="4.49661">
        <ele>370.39999389648</ele>
        <time>2020-03-14T15:00:57.000Z</time>
      </trkpt>
      <trkpt lat="45.90108" lon="4.4966">
        <ele>370.39999389648</ele>
        <time>2020-03-14T15:00:58.000Z</time>
      </trkpt>
      <trkpt lat="45.90107" lon="4.49659">
        <ele>370.60000610352</ele>
        <time>2020-03-14T15:00:59.000Z</time>
      </trkpt>
      <trkpt lat="45.90106" lon="4.49657">
        <ele>370.79998779297</ele>
        <time>2020-03-14T15:01:00.000Z</time>
      </trkpt>
      <trkpt lat="45.90105" lon="4.49656">
        <ele>371</ele>
        <time>2020-03-14T15:01:01.000Z</time>
      </trkpt>
      <trkpt lat="45.90103" lon="4.49655">
        <ele>371</ele>
        <time>2020-03-14T15:01:02.000Z</time>
      </trkpt>
      <trkpt lat="45.90102" lon="4.49654">
        <ele>371.20001220703</ele>
        <time>2020-03-14T15:01:03.000Z</time>
      </trkpt>
      <trkpt lat="45.901" lon="4.49653">
        <ele>371.39999389648</ele>
        <time>2020-03-14T15:01:04.000Z</time>
      </trkpt>
      <trkpt lat="45.90099" lon="4.49652">
        <ele>371.60000610352</ele>
        <time>2020-03-14T15:01:05.000Z</time>
      </trkpt>
      <trkpt lat="45.90098" lon="4.49651">
        <ele>371.60000610352</ele>
        <time>2020-03-14T15:01:06.000Z</time>
      </trkpt>
      <trkpt lat="45.90096" lon="4.4965">
        <ele>371.79998779297</ele>
        <time>2020-03-14T15:01:07.000Z</time>
      </trkpt>
      <trkpt lat="45.90095" lon="4.49649">
        <ele>372</ele>
        <time>2020-03-14T15:01:08.000Z</time>
      </trkpt>
      <trkpt lat="45.90094" lon="4.49647">
        <ele>372.39999389648</ele>
        <time>2020-03-14T15:01:09.000Z</time>
      </trkpt>
      <trkpt lat="45.90093" lon="4.49646">
        <ele>372.60000610352</ele>
        <time>2020-03-14T15:01:10.000Z</time>
      </trkpt>
      <trkpt lat="45.90092" lon="4.49645">
        <ele>372.79998779297</ele>
        <time>2020-03-14T15:01:11.000Z</time>
      </trkpt>
      <trkpt lat="45.9009" lon="4.49644">
        <ele>373</ele>
        <time>2020-03-14T15:01:12.000Z</time>
      </trkpt>
      <trkpt lat="45.9009" lon="4.49643">
        <ele>373.20001220703</ele>
        <time>2020-03-14T15:01:13.000Z</time>
      </trkpt>
      <trkpt lat="45.90089" lon="4.49642">
        <ele>373.39999389648</ele>
        <time>2020-03-14T15:01:14.000Z</time>
      </trkpt>
      <trkpt lat="45.90088" lon="4.49641">
        <ele>373.60000610352</ele>
        <time>2020-03-14T15:01:15.000Z</time>
      </trkpt>
      <trkpt lat="45.90087" lon="4.4964">
        <ele>373.60000610352</ele>
        <time>2020-03-14T15:01:16.000Z</time>
      </trkpt>
      <trkpt lat="45.90086" lon="4.49638">
        <ele>373.79998779297</ele>
        <time>2020-03-14T15:01:17.000Z</time>
      </trkpt>
      <trkpt lat="45.90085" lon="4.49637">
        <ele>373.79998779297</ele>
        <time>2020-03-14T15:01:18.000Z</time>
      </trkpt>
      <trkpt lat="45.90084" lon="4.49636">
        <ele>373.79998779297</ele>
        <time>2020-03-14T15:01:19.000Z</time>
      </trkpt>
      <trkpt lat="45.90083" lon="4.49635">
        <ele>374</ele>
        <time>2020-03-14T15:01:20.000Z</time>
      </trkpt>
      <trkpt lat="45.90082" lon="4.49634">
        <ele>374.39999389648</ele>
        <time>2020-03-14T15:01:21.000Z</time>
      </trkpt>
      <trkpt lat="45.90081" lon="4.49633">
        <ele>374.60000610352</ele>
        <time>2020-03-14T15:01:22.000Z</time>
      </trkpt>
      <trkpt lat="45.9008" lon="4.49632">
        <ele>374.79998779297</ele>
        <time>2020-03-14T15:01:23.000Z</time>
      </trkpt>
      <trkpt lat="45.90079" lon="4.4963">
        <ele>374.79998779297</ele>
        <time>2020-03-14T15:01:24.000Z</time>
      </trkpt>
      <trkpt lat="45.90078" lon="4.49629">
        <ele>375</ele>
        <time>2020-03-14T15:01:25.000Z</time>
      </trkpt>
      <trkpt lat="45.90077" lon="4.49628">
        <ele>375.20001220703</ele>
        <time>2020-03-14T15:01:26.000Z</time>
      </trkpt>
      <trkpt lat="45.90076" lon="4.49626">
        <ele>375.20001220703</ele>
        <time>2020-03-14T15:01:27.000Z</time>
      </trkpt>
      <trkpt lat="45.90075" lon="4.49624">
        <ele>375.39999389648</ele>
        <time>2020-03-14T15:01:28.000Z</time>
      </trkpt>
      <trkpt lat="45.90074" lon="4.49623">
        <ele>375.60000610352</ele>
        <time>2020-03-14T15:01:29.000Z</time>
      </trkpt>
      <trkpt lat="45.90073" lon="4.49621">
        <ele>375.79998779297</ele>
        <time>2020-03-14T15:01:30.000Z</time>
      </trkpt>
      <trkpt lat="45.90072" lon="4.49619">
        <ele>376</ele>
        <time>2020-03-14T15:01:31.000Z</time>
      </trkpt>
      <trkpt lat="45.90071" lon="4.49618">
        <ele>376.20001220703</ele>
        <time>2020-03-14T15:01:32.000Z</time>
      </trkpt>
      <trkpt lat="45.9007" lon="4.49617">
        <ele>376.39999389648</ele>
        <time>2020-03-14T15:01:33.000Z</time>
      </trkpt>
      <trkpt lat="45.9007" lon="4.49615">
        <ele>376.60000610352</ele>
        <time>2020-03-14T15:01:34.000Z</time>
      </trkpt>
      <trkpt lat="45.90069" lon="4.49614">
        <ele>376.79998779297</ele>
        <time>2020-03-14T15:01:35.000Z</time>
      </trkpt>
      <trkpt lat="45.90068" lon="4.49612">
        <ele>377</ele>
        <time>2020-03-14T15:01:36.000Z</time>
      </trkpt>
      <trkpt lat="45.90067" lon="4.49611">
        <ele>377</ele>
        <time>2020-03-14T15:01:37.000Z</time>
      </trkpt>
      <trkpt lat="45.90066" lon="4.49609">
        <ele>377</ele>
        <time>2020-03-14T15:01:38.000Z</time>
      </trkpt>
      <trkpt lat="45.90065" lon="4.49608">
        <ele>377</ele>
        <time>2020-03-14T15:01:39.000Z</time>
      </trkpt>
      <trkpt lat="45.90065" lon="4.49606">
        <ele>377.20001220703</ele>
        <time>2020-03-14T15:01:40.000Z</time>
      </trkpt>
      <trkpt lat="45.90064" lon="4.49604">
        <ele>377.20001220703</ele>
        <time>2020-03-14T15:01:41.000Z</time>
      </trkpt>
      <trkpt lat="45.90063" lon="4.49603">
        <ele>377.20001220703</ele>
        <time>2020-03-14T15:01:42.000Z</time>
      </trkpt>
      <trkpt lat="45.90062" lon="4.49602">
        <ele>377.39999389648</ele>
        <time>2020-03-14T15:01:43.000Z</time>
      </trkpt>
      <trkpt lat="45.90061" lon="4.496">
        <ele>377.39999389648</ele>
        <time>2020-03-14T15:01:44.000Z</time>
      </trkpt>
      <trkpt lat="45.9006" lon="4.49599">
        <ele>377.60000610352</ele>
        <time>2020-03-14T15:01:45.000Z</time>
      </trkpt>
      <trkpt lat="45.90059" lon="4.49598">
        <ele>377.60000610352</ele>
        <time>2020-03-14T15:01:46.000Z</time>
      </trkpt>
      <trkpt lat="45.90059" lon="4.49596">
        <ele>377.60000610352</ele>
        <time>2020-03-14T15:01:47.000Z</time>
      </trkpt>
      <trkpt lat="45.90058" lon="4.49595">
        <ele>377.79998779297</ele>
        <time>2020-03-14T15:01:48.000Z</time>
      </trkpt>
      <trkpt lat="45.90057" lon="4.49593">
        <ele>377.79998779297</ele>
        <time>2020-03-14T15:01:49.000Z</time>
      </trkpt>
      <trkpt lat="45.90057" lon="4.49592">
        <ele>377.79998779297</ele>
        <time>2020-03-14T15:01:50.000Z</time>
      </trkpt>
      <trkpt lat="45.90056" lon="4.4959">
        <ele>378</ele>
        <time>2020-03-14T15:01:51.000Z</time>
      </trkpt>
      <trkpt lat="45.90055" lon="4.49589">
        <ele>378</ele>
        <time>2020-03-14T15:01:52.000Z</time>
      </trkpt>
      <trkpt lat="45.90055" lon="4.49587">
        <ele>378.20001220703</ele>
        <time>2020-03-14T15:01:53.000Z</time>
      </trkpt>
      <trkpt lat="45.90054" lon="4.49586">
        <ele>378.39999389648</ele>
        <time>2020-03-14T15:01:54.000Z</time>
      </trkpt>
      <trkpt lat="45.90053" lon="4.49585">
        <ele>378.39999389648</ele>
        <time>2020-03-14T15:01:55.000Z</time>
      </trkpt>
      <trkpt lat="45.90053" lon="4.49583">
        <ele>378.39999389648</ele>
        <time>2020-03-14T15:01:56.000Z</time>
      </trkpt>
      <trkpt lat="45.90052" lon="4.49582">
        <ele>378.39999389648</ele>
        <time>2020-03-14T15:01:57.000Z</time>
      </trkpt>
      <trkpt lat="45.90051" lon="4.4958">
        <ele>378.39999389648</ele>
        <time>2020-03-14T15:01:58.000Z</time>
      </trkpt>
      <trkpt lat="45.90051" lon="4.49579">
        <ele>378.60000610352</ele>
        <time>2020-03-14T15:01:59.000Z</time>
      </trkpt>
      <trkpt lat="45.9005" lon="4.49577">
        <ele>378.60000610352</ele>
        <time>2020-03-14T15:02:00.000Z</time>
      </trkpt>
      <trkpt lat="45.9005" lon="4.49576">
        <ele>378.60000610352</ele>
        <time>2020-03-14T15:02:01.000Z</time>
      </trkpt>
      <trkpt lat="45.90049" lon="4.49574">
        <ele>378.79998779297</ele>
        <time>2020-03-14T15:02:02.000Z</time>
      </trkpt>
      <trkpt lat="45.90047" lon="4.49573">
        <ele>378.79998779297</ele>
        <time>2020-03-14T15:02:03.000Z</time>
      </trkpt>
      <trkpt lat="45.90046" lon="4.49571">
        <ele>378.79998779297</ele>
        <time>2020-03-14T15:02:04.000Z</time>
      </trkpt>
      <trkpt lat="45.90046" lon="4.4957">
        <ele>379</ele>
        <time>2020-03-14T15:02:05.000Z</time>
      </trkpt>
      <trkpt lat="45.90045" lon="4.49568">
        <ele>379.20001220703</ele>
        <time>2020-03-14T15:02:06.000Z</time>
      </trkpt>
      <trkpt lat="45.90045" lon="4.49567">
        <ele>379.39999389648</ele>
        <time>2020-03-14T15:02:07.000Z</time>
      </trkpt>
      <trkpt lat="45.90044" lon="4.49565">
        <ele>379.39999389648</ele>
        <time>2020-03-14T15:02:08.000Z</time>
      </trkpt>
      <trkpt lat="45.90043" lon="4.49564">
        <ele>379.60000610352</ele>
        <time>2020-03-14T15:02:09.000Z</time>
      </trkpt>
      <trkpt lat="45.90042" lon="4.49563">
        <ele>379.79998779297</ele>
        <time>2020-03-14T15:02:10.000Z</time>
      </trkpt>
      <trkpt lat="45.90041" lon="4.49561">
        <ele>379.79998779297</ele>
        <time>2020-03-14T15:02:11.000Z</time>
      </trkpt>
      <trkpt lat="45.90041" lon="4.4956">
        <ele>379.79998779297</ele>
        <time>2020-03-14T15:02:12.000Z</time>
      </trkpt>
      <trkpt lat="45.90041" lon="4.49558">
        <ele>379.79998779297</ele>
        <time>2020-03-14T15:02:13.000Z</time>
      </trkpt>
      <trkpt lat="45.9004" lon="4.49556">
        <ele>380</ele>
        <time>2020-03-14T15:02:14.000Z</time>
      </trkpt>
      <trkpt lat="45.9004" lon="4.49555">
        <ele>380.20001220703</ele>
        <time>2020-03-14T15:02:15.000Z</time>
      </trkpt>
      <trkpt lat="45.90039" lon="4.49553">
        <ele>380.20001220703</ele>
        <time>2020-03-14T15:02:16.000Z</time>
      </trkpt>
      <trkpt lat="45.90039" lon="4.49551">
        <ele>380.39999389648</ele>
        <time>2020-03-14T15:02:17.000Z</time>
      </trkpt>
      <trkpt lat="45.90039" lon="4.4955">
        <ele>380.39999389648</ele>
        <time>2020-03-14T15:02:18.000Z</time>
      </trkpt>
      <trkpt lat="45.90038" lon="4.49548">
        <ele>380.39999389648</ele>
        <time>2020-03-14T15:02:19.000Z</time>
      </trkpt>
      <trkpt lat="45.90038" lon="4.49547">
        <ele>380.39999389648</ele>
        <time>2020-03-14T15:02:20.000Z</time>
      </trkpt>
      <trkpt lat="45.90037" lon="4.49545">
        <ele>380.60000610352</ele>
        <time>2020-03-14T15:02:21.000Z</time>
      </trkpt>
      <trkpt lat="45.90036" lon="4.49544">
        <ele>380.60000610352</ele>
        <time>2020-03-14T15:02:22.000Z</time>
      </trkpt>
      <trkpt lat="45.90035" lon="4.49542">
        <ele>380.79998779297</ele>
        <time>2020-03-14T15:02:23.000Z</time>
      </trkpt>
      <trkpt lat="45.90035" lon="4.4954">
        <ele>381</ele>
        <time>2020-03-14T15:02:24.000Z</time>
      </trkpt>
      <trkpt lat="45.90034" lon="4.49538">
        <ele>381.20001220703</ele>
        <time>2020-03-14T15:02:25.000Z</time>
      </trkpt>
      <trkpt lat="45.90033" lon="4.49537">
        <ele>381.39999389648</ele>
        <time>2020-03-14T15:02:26.000Z</time>
      </trkpt>
      <trkpt lat="45.90033" lon="4.49535">
        <ele>381.39999389648</ele>
        <time>2020-03-14T15:02:27.000Z</time>
      </trkpt>
      <trkpt lat="45.90032" lon="4.49533">
        <ele>381.60000610352</ele>
        <time>2020-03-14T15:02:28.000Z</time>
      </trkpt>
      <trkpt lat="45.90031" lon="4.49531">
        <ele>381.79998779297</ele>
        <time>2020-03-14T15:02:29.000Z</time>
      </trkpt>
      <trkpt lat="45.9003" lon="4.49529">
        <ele>382</ele>
        <time>2020-03-14T15:02:30.000Z</time>
      </trkpt>
      <trkpt lat="45.90029" lon="4.49527">
        <ele>382.20001220703</ele>
        <time>2020-03-14T15:02:31.000Z</time>
      </trkpt>
      <trkpt lat="45.90028" lon="4.49526">
        <ele>382.20001220703</ele>
        <time>2020-03-14T15:02:32.000Z</time>
      </trkpt>
      <trkpt lat="45.90027" lon="4.49524">
        <ele>382.39999389648</ele>
        <time>2020-03-14T15:02:33.000Z</time>
      </trkpt>
      <trkpt lat="45.90027" lon="4.49523">
        <ele>382.60000610352</ele>
        <time>2020-03-14T15:02:34.000Z</time>
      </trkpt>
      <trkpt lat="45.90026" lon="4.49521">
        <ele>382.79998779297</ele>
        <time>2020-03-14T15:02:35.000Z</time>
      </trkpt>
      <trkpt lat="45.90026" lon="4.4952">
        <ele>383</ele>
        <time>2020-03-14T15:02:36.000Z</time>
      </trkpt>
      <trkpt lat="45.90025" lon="4.49519">
        <ele>383.20001220703</ele>
        <time>2020-03-14T15:02:37.000Z</time>
      </trkpt>
      <trkpt lat="45.90025" lon="4.49517">
        <ele>383.39999389648</ele>
        <time>2020-03-14T15:02:38.000Z</time>
      </trkpt>
      <trkpt lat="45.90024" lon="4.49516">
        <ele>383.60000610352</ele>
        <time>2020-03-14T15:02:39.000Z</time>
      </trkpt>
      <trkpt lat="45.90023" lon="4.49515">
        <ele>384</ele>
        <time>2020-03-14T15:02:40.000Z</time>
      </trkpt>
      <trkpt lat="45.90022" lon="4.49514">
        <ele>384.20001220703</ele>
        <time>2020-03-14T15:02:41.000Z</time>
      </trkpt>
      <trkpt lat="45.90022" lon="4.49512">
        <ele>384.39999389648</ele>
        <time>2020-03-14T15:02:42.000Z</time>
      </trkpt>
      <trkpt lat="45.90021" lon="4.49511">
        <ele>384.39999389648</ele>
        <time>2020-03-14T15:02:43.000Z</time>
      </trkpt>
      <trkpt lat="45.9002" lon="4.4951">
        <ele>384.60000610352</ele>
        <time>2020-03-14T15:02:44.000Z</time>
      </trkpt>
      <trkpt lat="45.9002" lon="4.49508">
        <ele>384.60000610352</ele>
        <time>2020-03-14T15:02:45.000Z</time>
      </trkpt>
      <trkpt lat="45.90019" lon="4.49507">
        <ele>384.79998779297</ele>
        <time>2020-03-14T15:02:46.000Z</time>
      </trkpt>
      <trkpt lat="45.90019" lon="4.49506">
        <ele>384.79998779297</ele>
        <time>2020-03-14T15:02:47.000Z</time>
      </trkpt>
      <trkpt lat="45.90018" lon="4.49504">
        <ele>385</ele>
        <time>2020-03-14T15:02:48.000Z</time>
      </trkpt>
      <trkpt lat="45.90018" lon="4.49503">
        <ele>385</ele>
        <time>2020-03-14T15:02:49.000Z</time>
      </trkpt>
      <trkpt lat="45.90017" lon="4.49501">
        <ele>385.39999389648</ele>
        <time>2020-03-14T15:02:50.000Z</time>
      </trkpt>
      <trkpt lat="45.90016" lon="4.495">
        <ele>385.60000610352</ele>
        <time>2020-03-14T15:02:51.000Z</time>
      </trkpt>
      <trkpt lat="45.90016" lon="4.49498">
        <ele>385.79998779297</ele>
        <time>2020-03-14T15:02:52.000Z</time>
      </trkpt>
      <trkpt lat="45.90016" lon="4.49497">
        <ele>385.79998779297</ele>
        <time>2020-03-14T15:02:53.000Z</time>
      </trkpt>
      <trkpt lat="45.90015" lon="4.49495">
        <ele>386</ele>
        <time>2020-03-14T15:02:54.000Z</time>
      </trkpt>
      <trkpt lat="45.90015" lon="4.49494">
        <ele>386.20001220703</ele>
        <time>2020-03-14T15:02:55.000Z</time>
      </trkpt>
      <trkpt lat="45.90014" lon="4.49492">
        <ele>386.39999389648</ele>
        <time>2020-03-14T15:02:56.000Z</time>
      </trkpt>
      <trkpt lat="45.90014" lon="4.49491">
        <ele>386.60000610352</ele>
        <time>2020-03-14T15:02:57.000Z</time>
      </trkpt>
      <trkpt lat="45.90013" lon="4.4949">
        <ele>387</ele>
        <time>2020-03-14T15:02:58.000Z</time>
      </trkpt>
      <trkpt lat="45.90012" lon="4.49488">
        <ele>387.20001220703</ele>
        <time>2020-03-14T15:02:59.000Z</time>
      </trkpt>
      <trkpt lat="45.90012" lon="4.49487">
        <ele>387.39999389648</ele>
        <time>2020-03-14T15:03:00.000Z</time>
      </trkpt>
      <trkpt lat="45.90011" lon="4.49486">
        <ele>387.60000610352</ele>
        <time>2020-03-14T15:03:01.000Z</time>
      </trkpt>
      <trkpt lat="45.9001" lon="4.49484">
        <ele>387.60000610352</ele>
        <time>2020-03-14T15:03:02.000Z</time>
      </trkpt>
      <trkpt lat="45.90009" lon="4.49483">
        <ele>387.79998779297</ele>
        <time>2020-03-14T15:03:03.000Z</time>
      </trkpt>
      <trkpt lat="45.90008" lon="4.49482">
        <ele>388</ele>
        <time>2020-03-14T15:03:04.000Z</time>
      </trkpt>
      <trkpt lat="45.90008" lon="4.4948">
        <ele>388</ele>
        <time>2020-03-14T15:03:05.000Z</time>
      </trkpt>
      <trkpt lat="45.90007" lon="4.49479">
        <ele>388</ele>
        <time>2020-03-14T15:03:06.000Z</time>
      </trkpt>
      <trkpt lat="45.90005" lon="4.49477">
        <ele>388</ele>
        <time>2020-03-14T15:03:07.000Z</time>
      </trkpt>
      <trkpt lat="45.90005" lon="4.49476">
        <ele>388.39999389648</ele>
        <time>2020-03-14T15:03:08.000Z</time>
      </trkpt>
      <trkpt lat="45.90004" lon="4.49475">
        <ele>388.79998779297</ele>
        <time>2020-03-14T15:03:09.000Z</time>
      </trkpt>
      <trkpt lat="45.90003" lon="4.49474">
        <ele>389.20001220703</ele>
        <time>2020-03-14T15:03:10.000Z</time>
      </trkpt>
      <trkpt lat="45.90002" lon="4.49473">
        <ele>389.60000610352</ele>
        <time>2020-03-14T15:03:11.000Z</time>
      </trkpt>
      <trkpt lat="45.90001" lon="4.49471">
        <ele>389.79998779297</ele>
        <time>2020-03-14T15:03:12.000Z</time>
      </trkpt>
      <trkpt lat="45.9" lon="4.4947">
        <ele>390</ele>
        <time>2020-03-14T15:03:13.000Z</time>
      </trkpt>
      <trkpt lat="45.9" lon="4.49469">
        <ele>390.20001220703</ele>
        <time>2020-03-14T15:03:14.000Z</time>
      </trkpt>
      <trkpt lat="45.89999" lon="4.49468">
        <ele>390.39999389648</ele>
        <time>2020-03-14T15:03:15.000Z</time>
      </trkpt>
      <trkpt lat="45.89998" lon="4.49467">
        <ele>390.60000610352</ele>
        <time>2020-03-14T15:03:16.000Z</time>
      </trkpt>
      <trkpt lat="45.89997" lon="4.49465">
        <ele>391</ele>
        <time>2020-03-14T15:03:17.000Z</time>
      </trkpt>
      <trkpt lat="45.89996" lon="4.49464">
        <ele>391.20001220703</ele>
        <time>2020-03-14T15:03:18.000Z</time>
      </trkpt>
      <trkpt lat="45.89995" lon="4.49463">
        <ele>391.39999389648</ele>
        <time>2020-03-14T15:03:19.000Z</time>
      </trkpt>
      <trkpt lat="45.89994" lon="4.49462">
        <ele>391.79998779297</ele>
        <time>2020-03-14T15:03:20.000Z</time>
      </trkpt>
      <trkpt lat="45.89994" lon="4.4946">
        <ele>391.79998779297</ele>
        <time>2020-03-14T15:03:21.000Z</time>
      </trkpt>
      <trkpt lat="45.89993" lon="4.49459">
        <ele>392</ele>
        <time>2020-03-14T15:03:22.000Z</time>
      </trkpt>
      <trkpt lat="45.89992" lon="4.49458">
        <ele>392.20001220703</ele>
        <time>2020-03-14T15:03:23.000Z</time>
      </trkpt>
      <trkpt lat="45.89991" lon="4.49457">
        <ele>392.20001220703</ele>
        <time>2020-03-14T15:03:24.000Z</time>
      </trkpt>
      <trkpt lat="45.8999" lon="4.49456">
        <ele>392.39999389648</ele>
        <time>2020-03-14T15:03:25.000Z</time>
      </trkpt>
      <trkpt lat="45.89989" lon="4.49455">
        <ele>392.60000610352</ele>
        <time>2020-03-14T15:03:26.000Z</time>
      </trkpt>
      <trkpt lat="45.89988" lon="4.49453">
        <ele>392.79998779297</ele>
        <time>2020-03-14T15:03:27.000Z</time>
      </trkpt>
      <trkpt lat="45.89988" lon="4.49452">
        <ele>393</ele>
        <time>2020-03-14T15:03:28.000Z</time>
      </trkpt>
      <trkpt lat="45.89987" lon="4.49451">
        <ele>393</ele>
        <time>2020-03-14T15:03:29.000Z</time>
      </trkpt>
      <trkpt lat="45.89986" lon="4.4945">
        <ele>393.20001220703</ele>
        <time>2020-03-14T15:03:30.000Z</time>
      </trkpt>
      <trkpt lat="45.89985" lon="4.49449">
        <ele>393.60000610352</ele>
        <time>2020-03-14T15:03:31.000Z</time>
      </trkpt>
      <trkpt lat="45.89984" lon="4.49447">
        <ele>393.79998779297</ele>
        <time>2020-03-14T15:03:32.000Z</time>
      </trkpt>
      <trkpt lat="45.89983" lon="4.49446">
        <ele>394</ele>
        <time>2020-03-14T15:03:33.000Z</time>
      </trkpt>
      <trkpt lat="45.89982" lon="4.49445">
        <ele>394</ele>
        <time>2020-03-14T15:03:34.000Z</time>
      </trkpt>
      <trkpt lat="45.89981" lon="4.49444">
        <ele>394</ele>
        <time>2020-03-14T15:03:35.000Z</time>
      </trkpt>
      <trkpt lat="45.8998" lon="4.49443">
        <ele>394</ele>
        <time>2020-03-14T15:03:36.000Z</time>
      </trkpt>
      <trkpt lat="45.89979" lon="4.49441">
        <ele>394.20001220703</ele>
        <time>2020-03-14T15:03:37.000Z</time>
      </trkpt>
      <trkpt lat="45.89978" lon="4.4944">
        <ele>394.39999389648</ele>
        <time>2020-03-14T15:03:38.000Z</time>
      </trkpt>
      <trkpt lat="45.89977" lon="4.49439">
        <ele>394.79998779297</ele>
        <time>2020-03-14T15:03:39.000Z</time>
      </trkpt>
      <trkpt lat="45.89976" lon="4.49438">
        <ele>395</ele>
        <time>2020-03-14T15:03:40.000Z</time>
      </trkpt>
      <trkpt lat="45.89975" lon="4.49437">
        <ele>395.20001220703</ele>
        <time>2020-03-14T15:03:41.000Z</time>
      </trkpt>
      <trkpt lat="45.89974" lon="4.49436">
        <ele>395.39999389648</ele>
        <time>2020-03-14T15:03:42.000Z</time>
      </trkpt>
      <trkpt lat="45.89973" lon="4.49435">
        <ele>395.39999389648</ele>
        <time>2020-03-14T15:03:43.000Z</time>
      </trkpt>
      <trkpt lat="45.89972" lon="4.49434">
        <ele>395.39999389648</ele>
        <time>2020-03-14T15:03:44.000Z</time>
      </trkpt>
      <trkpt lat="45.89972" lon="4.49433">
        <ele>395.60000610352</ele>
        <time>2020-03-14T15:03:45.000Z</time>
      </trkpt>
      <trkpt lat="45.89971" lon="4.49432">
        <ele>395.60000610352</ele>
        <time>2020-03-14T15:03:46.000Z</time>
      </trkpt>
      <trkpt lat="45.8997" lon="4.49431">
        <ele>395.60000610352</ele>
        <time>2020-03-14T15:03:47.000Z</time>
      </trkpt>
      <trkpt lat="45.89969" lon="4.4943">
        <ele>395.79998779297</ele>
        <time>2020-03-14T15:03:48.000Z</time>
      </trkpt>
      <trkpt lat="45.89968" lon="4.49429">
        <ele>395.79998779297</ele>
        <time>2020-03-14T15:03:49.000Z</time>
      </trkpt>
      <trkpt lat="45.89967" lon="4.49428">
        <ele>395.79998779297</ele>
        <time>2020-03-14T15:03:50.000Z</time>
      </trkpt>
      <trkpt lat="45.89966" lon="4.49427">
        <ele>396</ele>
        <time>2020-03-14T15:03:51.000Z</time>
      </trkpt>
      <trkpt lat="45.89965" lon="4.49426">
        <ele>396</ele>
        <time>2020-03-14T15:03:52.000Z</time>
      </trkpt>
      <trkpt lat="45.89964" lon="4.49425">
        <ele>396.20001220703</ele>
        <time>2020-03-14T15:03:53.000Z</time>
      </trkpt>
      <trkpt lat="45.89963" lon="4.49424">
        <ele>396.39999389648</ele>
        <time>2020-03-14T15:03:54.000Z</time>
      </trkpt>
      <trkpt lat="45.89962" lon="4.49423">
        <ele>396.39999389648</ele>
        <time>2020-03-14T15:03:55.000Z</time>
      </trkpt>
      <trkpt lat="45.89961" lon="4.49422">
        <ele>396.39999389648</ele>
        <time>2020-03-14T15:03:56.000Z</time>
      </trkpt>
      <trkpt lat="45.8996" lon="4.49421">
        <ele>396.60000610352</ele>
        <time>2020-03-14T15:03:57.000Z</time>
      </trkpt>
      <trkpt lat="45.89959" lon="4.4942">
        <ele>396.79998779297</ele>
        <time>2020-03-14T15:03:58.000Z</time>
      </trkpt>
      <trkpt lat="45.89958" lon="4.49419">
        <ele>396.79998779297</ele>
        <time>2020-03-14T15:03:59.000Z</time>
      </trkpt>
      <trkpt lat="45.89957" lon="4.49419">
        <ele>397</ele>
        <time>2020-03-14T15:04:00.000Z</time>
      </trkpt>
      <trkpt lat="45.89956" lon="4.49418">
        <ele>397.20001220703</ele>
        <time>2020-03-14T15:04:01.000Z</time>
      </trkpt>
      <trkpt lat="45.89955" lon="4.49417">
        <ele>397.20001220703</ele>
        <time>2020-03-14T15:04:02.000Z</time>
      </trkpt>
      <trkpt lat="45.89954" lon="4.49417">
        <ele>397.20001220703</ele>
        <time>2020-03-14T15:04:03.000Z</time>
      </trkpt>
      <trkpt lat="45.89953" lon="4.49416">
        <ele>397.39999389648</ele>
        <time>2020-03-14T15:04:04.000Z</time>
      </trkpt>
      <trkpt lat="45.89952" lon="4.49415">
        <ele>397.39999389648</ele>
        <time>2020-03-14T15:04:05.000Z</time>
      </trkpt>
      <trkpt lat="45.89951" lon="4.49414">
        <ele>397.60000610352</ele>
        <time>2020-03-14T15:04:06.000Z</time>
      </trkpt>
      <trkpt lat="45.8995" lon="4.49413">
        <ele>397.60000610352</ele>
        <time>2020-03-14T15:04:07.000Z</time>
      </trkpt>
      <trkpt lat="45.89949" lon="4.49412">
        <ele>397.79998779297</ele>
        <time>2020-03-14T15:04:08.000Z</time>
      </trkpt>
      <trkpt lat="45.89948" lon="4.49411">
        <ele>398</ele>
        <time>2020-03-14T15:04:09.000Z</time>
      </trkpt>
      <trkpt lat="45.89947" lon="4.4941">
        <ele>398</ele>
        <time>2020-03-14T15:04:10.000Z</time>
      </trkpt>
      <trkpt lat="45.89946" lon="4.49409">
        <ele>398.39999389648</ele>
        <time>2020-03-14T15:04:11.000Z</time>
      </trkpt>
      <trkpt lat="45.89945" lon="4.49408">
        <ele>398.60000610352</ele>
        <time>2020-03-14T15:04:12.000Z</time>
      </trkpt>
      <trkpt lat="45.89944" lon="4.49408">
        <ele>399</ele>
        <time>2020-03-14T15:04:13.000Z</time>
      </trkpt>
      <trkpt lat="45.89943" lon="4.49407">
        <ele>399.20001220703</ele>
        <time>2020-03-14T15:04:14.000Z</time>
      </trkpt>
      <trkpt lat="45.89942" lon="4.49406">
        <ele>399.20001220703</ele>
        <time>2020-03-14T15:04:15.000Z</time>
      </trkpt>
      <trkpt lat="45.89941" lon="4.49405">
        <ele>399.39999389648</ele>
        <time>2020-03-14T15:04:16.000Z</time>
      </trkpt>
      <trkpt lat="45.8994" lon="4.49404">
        <ele>399.60000610352</ele>
        <time>2020-03-14T15:04:17.000Z</time>
      </trkpt>
      <trkpt lat="45.89939" lon="4.49404">
        <ele>400</ele>
        <time>2020-03-14T15:04:18.000Z</time>
      </trkpt>
      <trkpt lat="45.89938" lon="4.49403">
        <ele>400.20001220703</ele>
        <time>2020-03-14T15:04:19.000Z</time>
      </trkpt>
      <trkpt lat="45.89937" lon="4.49402">
        <ele>400.60000610352</ele>
        <time>2020-03-14T15:04:20.000Z</time>
      </trkpt>
      <trkpt lat="45.89936" lon="4.49401">
        <ele>400.79998779297</ele>
        <time>2020-03-14T15:04:21.000Z</time>
      </trkpt>
      <trkpt lat="45.89935" lon="4.494">
        <ele>400.79998779297</ele>
        <time>2020-03-14T15:04:22.000Z</time>
      </trkpt>
      <trkpt lat="45.89934" lon="4.49399">
        <ele>400.79998779297</ele>
        <time>2020-03-14T15:04:23.000Z</time>
      </trkpt>
      <trkpt lat="45.89933" lon="4.49399">
        <ele>401</ele>
        <time>2020-03-14T15:04:24.000Z</time>
      </trkpt>
      <trkpt lat="45.89932" lon="4.49398">
        <ele>401</ele>
        <time>2020-03-14T15:04:25.000Z</time>
      </trkpt>
      <trkpt lat="45.89931" lon="4.49398">
        <ele>401.20001220703</ele>
        <time>2020-03-14T15:04:26.000Z</time>
      </trkpt>
      <trkpt lat="45.8993" lon="4.49397">
        <ele>401.39999389648</ele>
        <time>2020-03-14T15:04:27.000Z</time>
      </trkpt>
      <trkpt lat="45.89929" lon="4.49396">
        <ele>401.39999389648</ele>
        <time>2020-03-14T15:04:28.000Z</time>
      </trkpt>
      <trkpt lat="45.89928" lon="4.49396">
        <ele>401.60000610352</ele>
        <time>2020-03-14T15:04:29.000Z</time>
      </trkpt>
      <trkpt lat="45.89927" lon="4.49395">
        <ele>401.60000610352</ele>
        <time>2020-03-14T15:04:30.000Z</time>
      </trkpt>
      <trkpt lat="45.89926" lon="4.49395">
        <ele>401.60000610352</ele>
        <time>2020-03-14T15:04:31.000Z</time>
      </trkpt>
      <trkpt lat="45.89925" lon="4.49394">
        <ele>401.79998779297</ele>
        <time>2020-03-14T15:04:32.000Z</time>
      </trkpt>
      <trkpt lat="45.89923" lon="4.49394">
        <ele>401.79998779297</ele>
        <time>2020-03-14T15:04:33.000Z</time>
      </trkpt>
      <trkpt lat="45.89922" lon="4.49394">
        <ele>401.79998779297</ele>
        <time>2020-03-14T15:04:34.000Z</time>
      </trkpt>
      <trkpt lat="45.89922" lon="4.49393">
        <ele>402.20001220703</ele>
        <time>2020-03-14T15:04:35.000Z</time>
      </trkpt>
      <trkpt lat="45.89921" lon="4.49393">
        <ele>402.39999389648</ele>
        <time>2020-03-14T15:04:36.000Z</time>
      </trkpt>
      <trkpt lat="45.89919" lon="4.49393">
        <ele>402.60000610352</ele>
        <time>2020-03-14T15:04:37.000Z</time>
      </trkpt>
      <trkpt lat="45.89918" lon="4.49392">
        <ele>402.79998779297</ele>
        <time>2020-03-14T15:04:38.000Z</time>
      </trkpt>
      <trkpt lat="45.89917" lon="4.49391">
        <ele>403</ele>
        <time>2020-03-14T15:04:39.000Z</time>
      </trkpt>
      <trkpt lat="45.89917" lon="4.4939">
        <ele>403.20001220703</ele>
        <time>2020-03-14T15:04:40.000Z</time>
      </trkpt>
      <trkpt lat="45.89916" lon="4.4939">
        <ele>403.60000610352</ele>
        <time>2020-03-14T15:04:41.000Z</time>
      </trkpt>
      <trkpt lat="45.89915" lon="4.49389">
        <ele>403.60000610352</ele>
        <time>2020-03-14T15:04:42.000Z</time>
      </trkpt>
      <trkpt lat="45.89914" lon="4.49388">
        <ele>403.79998779297</ele>
        <time>2020-03-14T15:04:43.000Z</time>
      </trkpt>
      <trkpt lat="45.89913" lon="4.49388">
        <ele>403.79998779297</ele>
        <time>2020-03-14T15:04:44.000Z</time>
      </trkpt>
      <trkpt lat="45.89912" lon="4.49387">
        <ele>404</ele>
        <time>2020-03-14T15:04:45.000Z</time>
      </trkpt>
      <trkpt lat="45.89911" lon="4.49387">
        <ele>404.20001220703</ele>
        <time>2020-03-14T15:04:46.000Z</time>
      </trkpt>
      <trkpt lat="45.8991" lon="4.49386">
        <ele>404.39999389648</ele>
        <time>2020-03-14T15:04:47.000Z</time>
      </trkpt>
      <trkpt lat="45.89909" lon="4.49385">
        <ele>404.79998779297</ele>
        <time>2020-03-14T15:04:48.000Z</time>
      </trkpt>
      <trkpt lat="45.89908" lon="4.49385">
        <ele>405</ele>
        <time>2020-03-14T15:04:49.000Z</time>
      </trkpt>
      <trkpt lat="45.89908" lon="4.49384">
        <ele>405.20001220703</ele>
        <time>2020-03-14T15:04:50.000Z</time>
      </trkpt>
      <trkpt lat="45.89906" lon="4.49383">
        <ele>405.39999389648</ele>
        <time>2020-03-14T15:04:51.000Z</time>
      </trkpt>
      <trkpt lat="45.89905" lon="4.49383">
        <ele>405.60000610352</ele>
        <time>2020-03-14T15:04:52.000Z</time>
      </trkpt>
      <trkpt lat="45.89904" lon="4.49382">
        <ele>405.79998779297</ele>
        <time>2020-03-14T15:04:53.000Z</time>
      </trkpt>
      <trkpt lat="45.89903" lon="4.49382">
        <ele>406</ele>
        <time>2020-03-14T15:04:54.000Z</time>
      </trkpt>
      <trkpt lat="45.89902" lon="4.49381">
        <ele>406.20001220703</ele>
        <time>2020-03-14T15:04:55.000Z</time>
      </trkpt>
      <trkpt lat="45.89901" lon="4.49381">
        <ele>406.39999389648</ele>
        <time>2020-03-14T15:04:56.000Z</time>
      </trkpt>
      <trkpt lat="45.899" lon="4.49381">
        <ele>406.60000610352</ele>
        <time>2020-03-14T15:04:57.000Z</time>
      </trkpt>
      <trkpt lat="45.89899" lon="4.49381">
        <ele>406.60000610352</ele>
        <time>2020-03-14T15:04:58.000Z</time>
      </trkpt>
      <trkpt lat="45.89898" lon="4.49381">
        <ele>406.79998779297</ele>
        <time>2020-03-14T15:04:59.000Z</time>
      </trkpt>
      <trkpt lat="45.89896" lon="4.4938">
        <ele>406.79998779297</ele>
        <time>2020-03-14T15:05:00.000Z</time>
      </trkpt>
      <trkpt lat="45.89894" lon="4.4938">
        <ele>406.79998779297</ele>
        <time>2020-03-14T15:05:01.000Z</time>
      </trkpt>
      <trkpt lat="45.89893" lon="4.49379">
        <ele>407</ele>
        <time>2020-03-14T15:05:02.000Z</time>
      </trkpt>
      <trkpt lat="45.89891" lon="4.49378">
        <ele>407.20001220703</ele>
        <time>2020-03-14T15:05:03.000Z</time>
      </trkpt>
      <trkpt lat="45.89891" lon="4.49377">
        <ele>407.39999389648</ele>
        <time>2020-03-14T15:05:04.000Z</time>
      </trkpt>
      <trkpt lat="45.89889" lon="4.49376">
        <ele>407.60000610352</ele>
        <time>2020-03-14T15:05:05.000Z</time>
      </trkpt>
      <trkpt lat="45.89888" lon="4.49375">
        <ele>407.79998779297</ele>
        <time>2020-03-14T15:05:06.000Z</time>
      </trkpt>
      <trkpt lat="45.89887" lon="4.49374">
        <ele>408</ele>
        <time>2020-03-14T15:05:07.000Z</time>
      </trkpt>
      <trkpt lat="45.89886" lon="4.49373">
        <ele>408</ele>
        <time>2020-03-14T15:05:08.000Z</time>
      </trkpt>
      <trkpt lat="45.89885" lon="4.49371">
        <ele>408.20001220703</ele>
        <time>2020-03-14T15:05:09.000Z</time>
      </trkpt>
      <trkpt lat="45.89884" lon="4.49369">
        <ele>408.20001220703</ele>
        <time>2020-03-14T15:05:10.000Z</time>
      </trkpt>
      <trkpt lat="45.89884" lon="4.49368">
        <ele>408.60000610352</ele>
        <time>2020-03-14T15:05:11.000Z</time>
      </trkpt>
      <trkpt lat="45.89883" lon="4.49367">
        <ele>408.79998779297</ele>
        <time>2020-03-14T15:05:12.000Z</time>
      </trkpt>
      <trkpt lat="45.89882" lon="4.49365">
        <ele>409</ele>
        <time>2020-03-14T15:05:13.000Z</time>
      </trkpt>
      <trkpt lat="45.89881" lon="4.49364">
        <ele>409</ele>
        <time>2020-03-14T15:05:14.000Z</time>
      </trkpt>
      <trkpt lat="45.8988" lon="4.49362">
        <ele>409.20001220703</ele>
        <time>2020-03-14T15:05:15.000Z</time>
      </trkpt>
      <trkpt lat="45.89879" lon="4.49361">
        <ele>409.20001220703</ele>
        <time>2020-03-14T15:05:16.000Z</time>
      </trkpt>
      <trkpt lat="45.89879" lon="4.49359">
        <ele>409.20001220703</ele>
        <time>2020-03-14T15:05:17.000Z</time>
      </trkpt>
      <trkpt lat="45.89878" lon="4.49358">
        <ele>409.20001220703</ele>
        <time>2020-03-14T15:05:18.000Z</time>
      </trkpt>
      <trkpt lat="45.89877" lon="4.49357">
        <ele>409.20001220703</ele>
        <time>2020-03-14T15:05:19.000Z</time>
      </trkpt>
      <trkpt lat="45.89876" lon="4.49355">
        <ele>409.20001220703</ele>
        <time>2020-03-14T15:05:20.000Z</time>
      </trkpt>
      <trkpt lat="45.89875" lon="4.49354">
        <ele>409.39999389648</ele>
        <time>2020-03-14T15:05:21.000Z</time>
      </trkpt>
      <trkpt lat="45.89874" lon="4.49353">
        <ele>409.39999389648</ele>
        <time>2020-03-14T15:05:22.000Z</time>
      </trkpt>
      <trkpt lat="45.89874" lon="4.49352">
        <ele>409.39999389648</ele>
        <time>2020-03-14T15:05:23.000Z</time>
      </trkpt>
      <trkpt lat="45.89873" lon="4.49351">
        <ele>409.60000610352</ele>
        <time>2020-03-14T15:05:24.000Z</time>
      </trkpt>
      <trkpt lat="45.89872" lon="4.4935">
        <ele>410</ele>
        <time>2020-03-14T15:05:25.000Z</time>
      </trkpt>
      <trkpt lat="45.89872" lon="4.49349">
        <ele>410.39999389648</ele>
        <time>2020-03-14T15:05:26.000Z</time>
      </trkpt>
      <trkpt lat="45.89871" lon="4.49349">
        <ele>410.79998779297</ele>
        <time>2020-03-14T15:05:27.000Z</time>
      </trkpt>
      <trkpt lat="45.8987" lon="4.49348">
        <ele>411</ele>
        <time>2020-03-14T15:05:28.000Z</time>
      </trkpt>
      <trkpt lat="45.89869" lon="4.49347">
        <ele>411.20001220703</ele>
        <time>2020-03-14T15:05:29.000Z</time>
      </trkpt>
      <trkpt lat="45.89868" lon="4.49345">
        <ele>411.39999389648</ele>
        <time>2020-03-14T15:05:30.000Z</time>
      </trkpt>
      <trkpt lat="45.89867" lon="4.49344">
        <ele>411.39999389648</ele>
        <time>2020-03-14T15:05:31.000Z</time>
      </trkpt>
      <trkpt lat="45.89866" lon="4.49342">
        <ele>411.60000610352</ele>
        <time>2020-03-14T15:05:32.000Z</time>
      </trkpt>
      <trkpt lat="45.89866" lon="4.49341">
        <ele>411.60000610352</ele>
        <time>2020-03-14T15:05:33.000Z</time>
      </trkpt>
      <trkpt lat="45.89865" lon="4.4934">
        <ele>411.60000610352</ele>
        <time>2020-03-14T15:05:34.000Z</time>
      </trkpt>
      <trkpt lat="45.89864" lon="4.49338">
        <ele>411.79998779297</ele>
        <time>2020-03-14T15:05:35.000Z</time>
      </trkpt>
      <trkpt lat="45.89863" lon="4.49338">
        <ele>411.79998779297</ele>
        <time>2020-03-14T15:05:36.000Z</time>
      </trkpt>
      <trkpt lat="45.89863" lon="4.49337">
        <ele>412</ele>
        <time>2020-03-14T15:05:37.000Z</time>
      </trkpt>
      <trkpt lat="45.89862" lon="4.49336">
        <ele>412.20001220703</ele>
        <time>2020-03-14T15:05:38.000Z</time>
      </trkpt>
      <trkpt lat="45.89861" lon="4.49336">
        <ele>412.39999389648</ele>
        <time>2020-03-14T15:05:39.000Z</time>
      </trkpt>
      <trkpt lat="45.8986" lon="4.49335">
        <ele>412.60000610352</ele>
        <time>2020-03-14T15:05:40.000Z</time>
      </trkpt>
      <trkpt lat="45.89858" lon="4.49334">
        <ele>413</ele>
        <time>2020-03-14T15:05:41.000Z</time>
      </trkpt>
      <trkpt lat="45.89857" lon="4.49333">
        <ele>413</ele>
        <time>2020-03-14T15:05:42.000Z</time>
      </trkpt>
      <trkpt lat="45.89856" lon="4.49331">
        <ele>413.39999389648</ele>
        <time>2020-03-14T15:05:43.000Z</time>
      </trkpt>
      <trkpt lat="45.89855" lon="4.4933">
        <ele>413.60000610352</ele>
        <time>2020-03-14T15:05:44.000Z</time>
      </trkpt>
      <trkpt lat="45.89853" lon="4.49329">
        <ele>413.79998779297</ele>
        <time>2020-03-14T15:05:45.000Z</time>
      </trkpt>
      <trkpt lat="45.89852" lon="4.49328">
        <ele>413.79998779297</ele>
        <time>2020-03-14T15:05:46.000Z</time>
      </trkpt>
      <trkpt lat="45.89851" lon="4.49327">
        <ele>414</ele>
        <time>2020-03-14T15:05:47.000Z</time>
      </trkpt>
      <trkpt lat="45.8985" lon="4.49326">
        <ele>414.20001220703</ele>
        <time>2020-03-14T15:05:48.000Z</time>
      </trkpt>
      <trkpt lat="45.89849" lon="4.49324">
        <ele>414.39999389648</ele>
        <time>2020-03-14T15:05:49.000Z</time>
      </trkpt>
      <trkpt lat="45.89848" lon="4.49323">
        <ele>414.60000610352</ele>
        <time>2020-03-14T15:05:50.000Z</time>
      </trkpt>
      <trkpt lat="45.89847" lon="4.49322">
        <ele>415</ele>
        <time>2020-03-14T15:05:51.000Z</time>
      </trkpt>
      <trkpt lat="45.89846" lon="4.4932">
        <ele>415.20001220703</ele>
        <time>2020-03-14T15:05:52.000Z</time>
      </trkpt>
      <trkpt lat="45.89845" lon="4.49319">
        <ele>415.39999389648</ele>
        <time>2020-03-14T15:05:53.000Z</time>
      </trkpt>
      <trkpt lat="45.89844" lon="4.49318">
        <ele>415.39999389648</ele>
        <time>2020-03-14T15:05:54.000Z</time>
      </trkpt>
      <trkpt lat="45.89844" lon="4.49316">
        <ele>415.60000610352</ele>
        <time>2020-03-14T15:05:55.000Z</time>
      </trkpt>
      <trkpt lat="45.89843" lon="4.49315">
        <ele>415.79998779297</ele>
        <time>2020-03-14T15:05:56.000Z</time>
      </trkpt>
      <trkpt lat="45.89841" lon="4.49314">
        <ele>415.79998779297</ele>
        <time>2020-03-14T15:05:57.000Z</time>
      </trkpt>
      <trkpt lat="45.8984" lon="4.49313">
        <ele>416</ele>
        <time>2020-03-14T15:05:58.000Z</time>
      </trkpt>
      <trkpt lat="45.89839" lon="4.49312">
        <ele>416.20001220703</ele>
        <time>2020-03-14T15:05:59.000Z</time>
      </trkpt>
      <trkpt lat="45.89838" lon="4.49311">
        <ele>416.39999389648</ele>
        <time>2020-03-14T15:06:00.000Z</time>
      </trkpt>
      <trkpt lat="45.89838" lon="4.49311">
        <ele>416.60000610352</ele>
        <time>2020-03-14T15:06:01.000Z</time>
      </trkpt>
      <trkpt lat="45.89837" lon="4.49309">
        <ele>416.60000610352</ele>
        <time>2020-03-14T15:06:02.000Z</time>
      </trkpt>
      <trkpt lat="45.89835" lon="4.49308">
        <ele>416.79998779297</ele>
        <time>2020-03-14T15:06:03.000Z</time>
      </trkpt>
      <trkpt lat="45.89834" lon="4.49307">
        <ele>417</ele>
        <time>2020-03-14T15:06:04.000Z</time>
      </trkpt>
      <trkpt lat="45.89833" lon="4.49306">
        <ele>417.20001220703</ele>
        <time>2020-03-14T15:06:05.000Z</time>
      </trkpt>
      <trkpt lat="45.89832" lon="4.49305">
        <ele>417.20001220703</ele>
        <time>2020-03-14T15:06:06.000Z</time>
      </trkpt>
      <trkpt lat="45.89831" lon="4.49305">
        <ele>417.20001220703</ele>
        <time>2020-03-14T15:06:07.000Z</time>
      </trkpt>
      <trkpt lat="45.8983" lon="4.49304">
        <ele>417.20001220703</ele>
        <time>2020-03-14T15:06:08.000Z</time>
      </trkpt>
      <trkpt lat="45.89829" lon="4.49303">
        <ele>417.20001220703</ele>
        <time>2020-03-14T15:06:09.000Z</time>
      </trkpt>
      <trkpt lat="45.89828" lon="4.49302">
        <ele>417.20001220703</ele>
        <time>2020-03-14T15:06:10.000Z</time>
      </trkpt>
      <trkpt lat="45.89827" lon="4.493">
        <ele>417</ele>
        <time>2020-03-14T15:06:11.000Z</time>
      </trkpt>
      <trkpt lat="45.89825" lon="4.49299">
        <ele>417.20001220703</ele>
        <time>2020-03-14T15:06:12.000Z</time>
      </trkpt>
      <trkpt lat="45.89824" lon="4.49298">
        <ele>417.20001220703</ele>
        <time>2020-03-14T15:06:13.000Z</time>
      </trkpt>
      <trkpt lat="45.89823" lon="4.49297">
        <ele>417.20001220703</ele>
        <time>2020-03-14T15:06:14.000Z</time>
      </trkpt>
      <trkpt lat="45.89822" lon="4.49296">
        <ele>417.20001220703</ele>
        <time>2020-03-14T15:06:15.000Z</time>
      </trkpt>
      <trkpt lat="45.89821" lon="4.49294">
        <ele>417.20001220703</ele>
        <time>2020-03-14T15:06:16.000Z</time>
      </trkpt>
      <trkpt lat="45.8982" lon="4.49293">
        <ele>417.20001220703</ele>
        <time>2020-03-14T15:06:17.000Z</time>
      </trkpt>
      <trkpt lat="45.89819" lon="4.49292">
        <ele>417.20001220703</ele>
        <time>2020-03-14T15:06:18.000Z</time>
      </trkpt>
      <trkpt lat="45.89818" lon="4.49291">
        <ele>417.20001220703</ele>
        <time>2020-03-14T15:06:19.000Z</time>
      </trkpt>
      <trkpt lat="45.89816" lon="4.4929">
        <ele>417.60000610352</ele>
        <time>2020-03-14T15:06:20.000Z</time>
      </trkpt>
      <trkpt lat="45.89815" lon="4.49289">
        <ele>417.60000610352</ele>
        <time>2020-03-14T15:06:21.000Z</time>
      </trkpt>
      <trkpt lat="45.89814" lon="4.49288">
        <ele>417.79998779297</ele>
        <time>2020-03-14T15:06:22.000Z</time>
      </trkpt>
      <trkpt lat="45.89813" lon="4.49287">
        <ele>418</ele>
        <time>2020-03-14T15:06:23.000Z</time>
      </trkpt>
      <trkpt lat="45.89812" lon="4.49286">
        <ele>418.20001220703</ele>
        <time>2020-03-14T15:06:24.000Z</time>
      </trkpt>
      <trkpt lat="45.89811" lon="4.49285">
        <ele>418.39999389648</ele>
        <time>2020-03-14T15:06:25.000Z</time>
      </trkpt>
      <trkpt lat="45.8981" lon="4.49284">
        <ele>418.60000610352</ele>
        <time>2020-03-14T15:06:26.000Z</time>
      </trkpt>
      <trkpt lat="45.89809" lon="4.49283">
        <ele>418.79998779297</ele>
        <time>2020-03-14T15:06:27.000Z</time>
      </trkpt>
      <trkpt lat="45.89808" lon="4.49282">
        <ele>419</ele>
        <time>2020-03-14T15:06:28.000Z</time>
      </trkpt>
      <trkpt lat="45.89807" lon="4.49281">
        <ele>419.20001220703</ele>
        <time>2020-03-14T15:06:29.000Z</time>
      </trkpt>
      <trkpt lat="45.89805" lon="4.49281">
        <ele>419.39999389648</ele>
        <time>2020-03-14T15:06:30.000Z</time>
      </trkpt>
      <trkpt lat="45.89804" lon="4.4928">
        <ele>419.60000610352</ele>
        <time>2020-03-14T15:06:31.000Z</time>
      </trkpt>
      <trkpt lat="45.89803" lon="4.49279">
        <ele>419.60000610352</ele>
        <time>2020-03-14T15:06:32.000Z</time>
      </trkpt>
      <trkpt lat="45.89801" lon="4.49278">
        <ele>419.79998779297</ele>
        <time>2020-03-14T15:06:33.000Z</time>
      </trkpt>
      <trkpt lat="45.898" lon="4.49277">
        <ele>420</ele>
        <time>2020-03-14T15:06:34.000Z</time>
      </trkpt>
      <trkpt lat="45.89799" lon="4.49276">
        <ele>420.20001220703</ele>
        <time>2020-03-14T15:06:35.000Z</time>
      </trkpt>
      <trkpt lat="45.89798" lon="4.49275">
        <ele>420.60000610352</ele>
        <time>2020-03-14T15:06:36.000Z</time>
      </trkpt>
      <trkpt lat="45.89796" lon="4.49274">
        <ele>420.79998779297</ele>
        <time>2020-03-14T15:06:37.000Z</time>
      </trkpt>
      <trkpt lat="45.89795" lon="4.49273">
        <ele>421</ele>
        <time>2020-03-14T15:06:38.000Z</time>
      </trkpt>
      <trkpt lat="45.89794" lon="4.49272">
        <ele>421.20001220703</ele>
        <time>2020-03-14T15:06:39.000Z</time>
      </trkpt>
      <trkpt lat="45.89793" lon="4.49271">
        <ele>421.39999389648</ele>
        <time>2020-03-14T15:06:40.000Z</time>
      </trkpt>
      <trkpt lat="45.89792" lon="4.4927">
        <ele>421.60000610352</ele>
        <time>2020-03-14T15:06:41.000Z</time>
      </trkpt>
      <trkpt lat="45.8979" lon="4.49269">
        <ele>421.79998779297</ele>
        <time>2020-03-14T15:06:42.000Z</time>
      </trkpt>
      <trkpt lat="45.89789" lon="4.49268">
        <ele>422.20001220703</ele>
        <time>2020-03-14T15:06:43.000Z</time>
      </trkpt>
      <trkpt lat="45.89788" lon="4.49268">
        <ele>422.39999389648</ele>
        <time>2020-03-14T15:06:44.000Z</time>
      </trkpt>
      <trkpt lat="45.89787" lon="4.49267">
        <ele>422.39999389648</ele>
        <time>2020-03-14T15:06:45.000Z</time>
      </trkpt>
      <trkpt lat="45.89786" lon="4.49267">
        <ele>422.60000610352</ele>
        <time>2020-03-14T15:06:46.000Z</time>
      </trkpt>
      <trkpt lat="45.89785" lon="4.49266">
        <ele>422.60000610352</ele>
        <time>2020-03-14T15:06:47.000Z</time>
      </trkpt>
      <trkpt lat="45.89783" lon="4.49266">
        <ele>422.60000610352</ele>
        <time>2020-03-14T15:06:48.000Z</time>
      </trkpt>
      <trkpt lat="45.89783" lon="4.49264">
        <ele>422.79998779297</ele>
        <time>2020-03-14T15:06:49.000Z</time>
      </trkpt>
      <trkpt lat="45.89782" lon="4.49263">
        <ele>423</ele>
        <time>2020-03-14T15:06:50.000Z</time>
      </trkpt>
      <trkpt lat="45.89781" lon="4.49262">
        <ele>423.20001220703</ele>
        <time>2020-03-14T15:06:51.000Z</time>
      </trkpt>
      <trkpt lat="45.8978" lon="4.4926">
        <ele>423.60000610352</ele>
        <time>2020-03-14T15:06:52.000Z</time>
      </trkpt>
      <trkpt lat="45.89779" lon="4.49259">
        <ele>423.79998779297</ele>
        <time>2020-03-14T15:06:53.000Z</time>
      </trkpt>
      <trkpt lat="45.89778" lon="4.49259">
        <ele>424</ele>
        <time>2020-03-14T15:06:54.000Z</time>
      </trkpt>
      <trkpt lat="45.89777" lon="4.49258">
        <ele>424</ele>
        <time>2020-03-14T15:06:55.000Z</time>
      </trkpt>
      <trkpt lat="45.89776" lon="4.49258">
        <ele>424.20001220703</ele>
        <time>2020-03-14T15:06:56.000Z</time>
      </trkpt>
      <trkpt lat="45.89774" lon="4.49259">
        <ele>424.39999389648</ele>
        <time>2020-03-14T15:06:57.000Z</time>
      </trkpt>
      <trkpt lat="45.89773" lon="4.49259">
        <ele>424.60000610352</ele>
        <time>2020-03-14T15:06:58.000Z</time>
      </trkpt>
      <trkpt lat="45.89771" lon="4.49259">
        <ele>424.60000610352</ele>
        <time>2020-03-14T15:06:59.000Z</time>
      </trkpt>
      <trkpt lat="45.89771" lon="4.49257">
        <ele>424.79998779297</ele>
        <time>2020-03-14T15:07:00.000Z</time>
      </trkpt>
      <trkpt lat="45.8977" lon="4.49255">
        <ele>425</ele>
        <time>2020-03-14T15:07:01.000Z</time>
      </trkpt>
      <trkpt lat="45.89769" lon="4.49253">
        <ele>425.20001220703</ele>
        <time>2020-03-14T15:07:02.000Z</time>
      </trkpt>
      <trkpt lat="45.89769" lon="4.49251">
        <ele>425.20001220703</ele>
        <time>2020-03-14T15:07:03.000Z</time>
      </trkpt>
      <trkpt lat="45.89768" lon="4.4925">
        <ele>425.39999389648</ele>
        <time>2020-03-14T15:07:04.000Z</time>
      </trkpt>
      <trkpt lat="45.89767" lon="4.49248">
        <ele>425.39999389648</ele>
        <time>2020-03-14T15:07:05.000Z</time>
      </trkpt>
      <trkpt lat="45.89767" lon="4.49247">
        <ele>425.39999389648</ele>
        <time>2020-03-14T15:07:06.000Z</time>
      </trkpt>
      <trkpt lat="45.89766" lon="4.49245">
        <ele>425.39999389648</ele>
        <time>2020-03-14T15:07:07.000Z</time>
      </trkpt>
      <trkpt lat="45.89764" lon="4.49244">
        <ele>425.39999389648</ele>
        <time>2020-03-14T15:07:08.000Z</time>
      </trkpt>
      <trkpt lat="45.89763" lon="4.49242">
        <ele>425.39999389648</ele>
        <time>2020-03-14T15:07:09.000Z</time>
      </trkpt>
      <trkpt lat="45.89763" lon="4.49241">
        <ele>425.20001220703</ele>
        <time>2020-03-14T15:07:10.000Z</time>
      </trkpt>
      <trkpt lat="45.89761" lon="4.4924">
        <ele>425.39999389648</ele>
        <time>2020-03-14T15:07:11.000Z</time>
      </trkpt>
      <trkpt lat="45.8976" lon="4.49239">
        <ele>425.39999389648</ele>
        <time>2020-03-14T15:07:12.000Z</time>
      </trkpt>
      <trkpt lat="45.8976" lon="4.49237">
        <ele>425.60000610352</ele>
        <time>2020-03-14T15:07:13.000Z</time>
      </trkpt>
      <trkpt lat="45.89759" lon="4.49236">
        <ele>425.79998779297</ele>
        <time>2020-03-14T15:07:14.000Z</time>
      </trkpt>
      <trkpt lat="45.89758" lon="4.49235">
        <ele>426</ele>
        <time>2020-03-14T15:07:15.000Z</time>
      </trkpt>
      <trkpt lat="45.89757" lon="4.49233">
        <ele>426.39999389648</ele>
        <time>2020-03-14T15:07:16.000Z</time>
      </trkpt>
      <trkpt lat="45.89756" lon="4.49232">
        <ele>426.39999389648</ele>
        <time>2020-03-14T15:07:17.000Z</time>
      </trkpt>
      <trkpt lat="45.89755" lon="4.49231">
        <ele>426.60000610352</ele>
        <time>2020-03-14T15:07:18.000Z</time>
      </trkpt>
      <trkpt lat="45.89755" lon="4.49229">
        <ele>426.60000610352</ele>
        <time>2020-03-14T15:07:19.000Z</time>
      </trkpt>
      <trkpt lat="45.89754" lon="4.49228">
        <ele>426.60000610352</ele>
        <time>2020-03-14T15:07:20.000Z</time>
      </trkpt>
      <trkpt lat="45.89752" lon="4.49227">
        <ele>426.79998779297</ele>
        <time>2020-03-14T15:07:21.000Z</time>
      </trkpt>
      <trkpt lat="45.89752" lon="4.49225">
        <ele>426.79998779297</ele>
        <time>2020-03-14T15:07:22.000Z</time>
      </trkpt>
      <trkpt lat="45.89751" lon="4.49223">
        <ele>426.79998779297</ele>
        <time>2020-03-14T15:07:23.000Z</time>
      </trkpt>
      <trkpt lat="45.8975" lon="4.49222">
        <ele>426.79998779297</ele>
        <time>2020-03-14T15:07:24.000Z</time>
      </trkpt>
      <trkpt lat="45.89749" lon="4.4922">
        <ele>426.79998779297</ele>
        <time>2020-03-14T15:07:25.000Z</time>
      </trkpt>
      <trkpt lat="45.89748" lon="4.49219">
        <ele>427</ele>
        <time>2020-03-14T15:07:26.000Z</time>
      </trkpt>
      <trkpt lat="45.89747" lon="4.49218">
        <ele>427.39999389648</ele>
        <time>2020-03-14T15:07:27.000Z</time>
      </trkpt>
      <trkpt lat="45.89746" lon="4.49216">
        <ele>427.60000610352</ele>
        <time>2020-03-14T15:07:28.000Z</time>
      </trkpt>
      <trkpt lat="45.89745" lon="4.49215">
        <ele>428</ele>
        <time>2020-03-14T15:07:29.000Z</time>
      </trkpt>
      <trkpt lat="45.89744" lon="4.49213">
        <ele>428.20001220703</ele>
        <time>2020-03-14T15:07:30.000Z</time>
      </trkpt>
      <trkpt lat="45.89743" lon="4.49212">
        <ele>428.20001220703</ele>
        <time>2020-03-14T15:07:31.000Z</time>
      </trkpt>
      <trkpt lat="45.89743" lon="4.4921">
        <ele>428.20001220703</ele>
        <time>2020-03-14T15:07:32.000Z</time>
      </trkpt>
      <trkpt lat="45.89742" lon="4.49209">
        <ele>428.20001220703</ele>
        <time>2020-03-14T15:07:33.000Z</time>
      </trkpt>
      <trkpt lat="45.89741" lon="4.49208">
        <ele>428.20001220703</ele>
        <time>2020-03-14T15:07:34.000Z</time>
      </trkpt>
      <trkpt lat="45.8974" lon="4.49207">
        <ele>428.20001220703</ele>
        <time>2020-03-14T15:07:35.000Z</time>
      </trkpt>
      <trkpt lat="45.8974" lon="4.49205">
        <ele>428.39999389648</ele>
        <time>2020-03-14T15:07:36.000Z</time>
      </trkpt>
      <trkpt lat="45.89739" lon="4.49204">
        <ele>428.39999389648</ele>
        <time>2020-03-14T15:07:37.000Z</time>
      </trkpt>
      <trkpt lat="45.89738" lon="4.49202">
        <ele>428.60000610352</ele>
        <time>2020-03-14T15:07:38.000Z</time>
      </trkpt>
      <trkpt lat="45.89737" lon="4.49201">
        <ele>428.60000610352</ele>
        <time>2020-03-14T15:07:39.000Z</time>
      </trkpt>
      <trkpt lat="45.89736" lon="4.49199">
        <ele>428.79998779297</ele>
        <time>2020-03-14T15:07:40.000Z</time>
      </trkpt>
      <trkpt lat="45.89735" lon="4.49198">
        <ele>429</ele>
        <time>2020-03-14T15:07:41.000Z</time>
      </trkpt>
      <trkpt lat="45.89734" lon="4.49197">
        <ele>429</ele>
        <time>2020-03-14T15:07:42.000Z</time>
      </trkpt>
      <trkpt lat="45.89733" lon="4.49195">
        <ele>429</ele>
        <time>2020-03-14T15:07:43.000Z</time>
      </trkpt>
      <trkpt lat="45.89732" lon="4.49194">
        <ele>429</ele>
        <time>2020-03-14T15:07:44.000Z</time>
      </trkpt>
      <trkpt lat="45.89731" lon="4.49192">
        <ele>429.20001220703</ele>
        <time>2020-03-14T15:07:45.000Z</time>
      </trkpt>
      <trkpt lat="45.8973" lon="4.49191">
        <ele>429.20001220703</ele>
        <time>2020-03-14T15:07:46.000Z</time>
      </trkpt>
      <trkpt lat="45.89729" lon="4.4919">
        <ele>429.20001220703</ele>
        <time>2020-03-14T15:07:47.000Z</time>
      </trkpt>
      <trkpt lat="45.89728" lon="4.49189">
        <ele>429.20001220703</ele>
        <time>2020-03-14T15:07:48.000Z</time>
      </trkpt>
      <trkpt lat="45.89727" lon="4.49188">
        <ele>429.20001220703</ele>
        <time>2020-03-14T15:07:49.000Z</time>
      </trkpt>
      <trkpt lat="45.89726" lon="4.49186">
        <ele>429.39999389648</ele>
        <time>2020-03-14T15:07:50.000Z</time>
      </trkpt>
      <trkpt lat="45.89726" lon="4.49185">
        <ele>429.39999389648</ele>
        <time>2020-03-14T15:07:51.000Z</time>
      </trkpt>
      <trkpt lat="45.89725" lon="4.49184">
        <ele>429.79998779297</ele>
        <time>2020-03-14T15:07:52.000Z</time>
      </trkpt>
      <trkpt lat="45.89724" lon="4.49182">
        <ele>430</ele>
        <time>2020-03-14T15:07:53.000Z</time>
      </trkpt>
      <trkpt lat="45.89724" lon="4.49181">
        <ele>430.20001220703</ele>
        <time>2020-03-14T15:07:54.000Z</time>
      </trkpt>
      <trkpt lat="45.89723" lon="4.4918">
        <ele>430.20001220703</ele>
        <time>2020-03-14T15:07:55.000Z</time>
      </trkpt>
      <trkpt lat="45.89722" lon="4.49178">
        <ele>430.39999389648</ele>
        <time>2020-03-14T15:07:56.000Z</time>
      </trkpt>
      <trkpt lat="45.89722" lon="4.49177">
        <ele>430.39999389648</ele>
        <time>2020-03-14T15:07:57.000Z</time>
      </trkpt>
      <trkpt lat="45.89721" lon="4.49175">
        <ele>430.60000610352</ele>
        <time>2020-03-14T15:07:58.000Z</time>
      </trkpt>
      <trkpt lat="45.8972" lon="4.49174">
        <ele>430.60000610352</ele>
        <time>2020-03-14T15:07:59.000Z</time>
      </trkpt>
      <trkpt lat="45.8972" lon="4.49173">
        <ele>430.79998779297</ele>
        <time>2020-03-14T15:08:00.000Z</time>
      </trkpt>
      <trkpt lat="45.89719" lon="4.49172">
        <ele>431</ele>
        <time>2020-03-14T15:08:01.000Z</time>
      </trkpt>
      <trkpt lat="45.89718" lon="4.49171">
        <ele>431.39999389648</ele>
        <time>2020-03-14T15:08:02.000Z</time>
      </trkpt>
      <trkpt lat="45.89717" lon="4.4917">
        <ele>431.60000610352</ele>
        <time>2020-03-14T15:08:03.000Z</time>
      </trkpt>
      <trkpt lat="45.89716" lon="4.49168">
        <ele>431.79998779297</ele>
        <time>2020-03-14T15:08:04.000Z</time>
      </trkpt>
      <trkpt lat="45.89716" lon="4.49167">
        <ele>432</ele>
        <time>2020-03-14T15:08:05.000Z</time>
      </trkpt>
      <trkpt lat="45.89715" lon="4.49166">
        <ele>432.39999389648</ele>
        <time>2020-03-14T15:08:06.000Z</time>
      </trkpt>
      <trkpt lat="45.89714" lon="4.49165">
        <ele>432.39999389648</ele>
        <time>2020-03-14T15:08:07.000Z</time>
      </trkpt>
      <trkpt lat="45.89713" lon="4.49164">
        <ele>432.60000610352</ele>
        <time>2020-03-14T15:08:08.000Z</time>
      </trkpt>
      <trkpt lat="45.89713" lon="4.49163">
        <ele>432.79998779297</ele>
        <time>2020-03-14T15:08:09.000Z</time>
      </trkpt>
      <trkpt lat="45.89712" lon="4.49162">
        <ele>433</ele>
        <time>2020-03-14T15:08:10.000Z</time>
      </trkpt>
      <trkpt lat="45.89711" lon="4.49161">
        <ele>433</ele>
        <time>2020-03-14T15:08:11.000Z</time>
      </trkpt>
      <trkpt lat="45.8971" lon="4.4916">
        <ele>433</ele>
        <time>2020-03-14T15:08:12.000Z</time>
      </trkpt>
      <trkpt lat="45.89708" lon="4.4916">
        <ele>433</ele>
        <time>2020-03-14T15:08:13.000Z</time>
      </trkpt>
      <trkpt lat="45.89707" lon="4.49159">
        <ele>433.20001220703</ele>
        <time>2020-03-14T15:08:14.000Z</time>
      </trkpt>
      <trkpt lat="45.89706" lon="4.49159">
        <ele>433.20001220703</ele>
        <time>2020-03-14T15:08:15.000Z</time>
      </trkpt>
      <trkpt lat="45.89705" lon="4.49158">
        <ele>433.20001220703</ele>
        <time>2020-03-14T15:08:16.000Z</time>
      </trkpt>
      <trkpt lat="45.89704" lon="4.49158">
        <ele>433.39999389648</ele>
        <time>2020-03-14T15:08:17.000Z</time>
      </trkpt>
      <trkpt lat="45.89703" lon="4.49157">
        <ele>433.79998779297</ele>
        <time>2020-03-14T15:08:18.000Z</time>
      </trkpt>
      <trkpt lat="45.89702" lon="4.49157">
        <ele>434</ele>
        <time>2020-03-14T15:08:19.000Z</time>
      </trkpt>
      <trkpt lat="45.89701" lon="4.49156">
        <ele>434</ele>
        <time>2020-03-14T15:08:20.000Z</time>
      </trkpt>
      <trkpt lat="45.89699" lon="4.49156">
        <ele>434.20001220703</ele>
        <time>2020-03-14T15:08:21.000Z</time>
      </trkpt>
      <trkpt lat="45.89698" lon="4.49155">
        <ele>434.20001220703</ele>
        <time>2020-03-14T15:08:22.000Z</time>
      </trkpt>
      <trkpt lat="45.89697" lon="4.49155">
        <ele>434.39999389648</ele>
        <time>2020-03-14T15:08:23.000Z</time>
      </trkpt>
      <trkpt lat="45.89696" lon="4.49155">
        <ele>434.79998779297</ele>
        <time>2020-03-14T15:08:24.000Z</time>
      </trkpt>
      <trkpt lat="45.89695" lon="4.49155">
        <ele>435.20001220703</ele>
        <time>2020-03-14T15:08:25.000Z</time>
      </trkpt>
      <trkpt lat="45.89694" lon="4.49155">
        <ele>435.60000610352</ele>
        <time>2020-03-14T15:08:26.000Z</time>
      </trkpt>
      <trkpt lat="45.89693" lon="4.49154">
        <ele>435.79998779297</ele>
        <time>2020-03-14T15:08:27.000Z</time>
      </trkpt>
      <trkpt lat="45.89693" lon="4.49154">
        <ele>436</ele>
        <time>2020-03-14T15:08:28.000Z</time>
      </trkpt>
      <trkpt lat="45.89692" lon="4.49154">
        <ele>436.20001220703</ele>
        <time>2020-03-14T15:08:29.000Z</time>
      </trkpt>
      <trkpt lat="45.89691" lon="4.49154">
        <ele>436.39999389648</ele>
        <time>2020-03-14T15:08:30.000Z</time>
      </trkpt>
      <trkpt lat="45.8969" lon="4.49153">
        <ele>436.60000610352</ele>
        <time>2020-03-14T15:08:31.000Z</time>
      </trkpt>
      <trkpt lat="45.89689" lon="4.49153">
        <ele>436.79998779297</ele>
        <time>2020-03-14T15:08:32.000Z</time>
      </trkpt>
      <trkpt lat="45.89687" lon="4.49152">
        <ele>437.20001220703</ele>
        <time>2020-03-14T15:08:33.000Z</time>
      </trkpt>
      <trkpt lat="45.89687" lon="4.49152">
        <ele>437.39999389648</ele>
        <time>2020-03-14T15:08:34.000Z</time>
      </trkpt>
      <trkpt lat="45.89686" lon="4.49151">
        <ele>437.60000610352</ele>
        <time>2020-03-14T15:08:35.000Z</time>
      </trkpt>
      <trkpt lat="45.89686" lon="4.49151">
        <ele>437.60000610352</ele>
        <time>2020-03-14T15:08:36.000Z</time>
      </trkpt>
      <trkpt lat="45.89685" lon="4.49151">
        <ele>437.79998779297</ele>
        <time>2020-03-14T15:08:37.000Z</time>
      </trkpt>
      <trkpt lat="45.89685" lon="4.4915">
        <ele>438</ele>
        <time>2020-03-14T15:08:38.000Z</time>
      </trkpt>
      <trkpt lat="45.89684" lon="4.4915">
        <ele>438</ele>
        <time>2020-03-14T15:08:39.000Z</time>
      </trkpt>
      <trkpt lat="45.89682" lon="4.4915">
        <ele>438.20001220703</ele>
        <time>2020-03-14T15:08:40.000Z</time>
      </trkpt>
      <trkpt lat="45.89681" lon="4.49149">
        <ele>438.39999389648</ele>
        <time>2020-03-14T15:08:41.000Z</time>
      </trkpt>
      <trkpt lat="45.8968" lon="4.49149">
        <ele>438.60000610352</ele>
        <time>2020-03-14T15:08:42.000Z</time>
      </trkpt>
      <trkpt lat="45.89679" lon="4.49148">
        <ele>438.79998779297</ele>
        <time>2020-03-14T15:08:43.000Z</time>
      </trkpt>
      <trkpt lat="45.89678" lon="4.49147">
        <ele>439</ele>
        <time>2020-03-14T15:08:44.000Z</time>
      </trkpt>
      <trkpt lat="45.89677" lon="4.49147">
        <ele>439.20001220703</ele>
        <time>2020-03-14T15:08:45.000Z</time>
      </trkpt>
      <trkpt lat="45.89676" lon="4.49147">
        <ele>439.39999389648</ele>
        <time>2020-03-14T15:08:46.000Z</time>
      </trkpt>
      <trkpt lat="45.89674" lon="4.49146">
        <ele>439.39999389648</ele>
        <time>2020-03-14T15:08:47.000Z</time>
      </trkpt>
      <trkpt lat="45.89672" lon="4.49145">
        <ele>439.39999389648</ele>
        <time>2020-03-14T15:08:48.000Z</time>
      </trkpt>
      <trkpt lat="45.89671" lon="4.49144">
        <ele>439.60000610352</ele>
        <time>2020-03-14T15:08:49.000Z</time>
      </trkpt>
      <trkpt lat="45.89669" lon="4.49143">
        <ele>439.60000610352</ele>
        <time>2020-03-14T15:08:50.000Z</time>
      </trkpt>
      <trkpt lat="45.89667" lon="4.49143">
        <ele>439.79998779297</ele>
        <time>2020-03-14T15:08:51.000Z</time>
      </trkpt>
      <trkpt lat="45.89665" lon="4.49142">
        <ele>440</ele>
        <time>2020-03-14T15:08:52.000Z</time>
      </trkpt>
      <trkpt lat="45.89663" lon="4.4914">
        <ele>440</ele>
        <time>2020-03-14T15:08:53.000Z</time>
      </trkpt>
      <trkpt lat="45.89661" lon="4.49139">
        <ele>440</ele>
        <time>2020-03-14T15:08:54.000Z</time>
      </trkpt>
      <trkpt lat="45.89659" lon="4.49138">
        <ele>440</ele>
        <time>2020-03-14T15:08:55.000Z</time>
      </trkpt>
      <trkpt lat="45.89658" lon="4.49138">
        <ele>439.79998779297</ele>
        <time>2020-03-14T15:08:56.000Z</time>
      </trkpt>
      <trkpt lat="45.89656" lon="4.49138">
        <ele>439.79998779297</ele>
        <time>2020-03-14T15:08:57.000Z</time>
      </trkpt>
      <trkpt lat="45.89654" lon="4.49137">
        <ele>439.60000610352</ele>
        <time>2020-03-14T15:08:58.000Z</time>
      </trkpt>
      <trkpt lat="45.89652" lon="4.49138">
        <ele>439.60000610352</ele>
        <time>2020-03-14T15:08:59.000Z</time>
      </trkpt>
      <trkpt lat="45.8965" lon="4.49138">
        <ele>439.60000610352</ele>
        <time>2020-03-14T15:09:00.000Z</time>
      </trkpt>
      <trkpt lat="45.89649" lon="4.49138">
        <ele>439.79998779297</ele>
        <time>2020-03-14T15:09:01.000Z</time>
      </trkpt>
      <trkpt lat="45.89647" lon="4.49139">
        <ele>439.79998779297</ele>
        <time>2020-03-14T15:09:02.000Z</time>
      </trkpt>
      <trkpt lat="45.89645" lon="4.49139">
        <ele>440</ele>
        <time>2020-03-14T15:09:03.000Z</time>
      </trkpt>
      <trkpt lat="45.89644" lon="4.49138">
        <ele>440</ele>
        <time>2020-03-14T15:09:04.000Z</time>
      </trkpt>
      <trkpt lat="45.89642" lon="4.49138">
        <ele>440</ele>
        <time>2020-03-14T15:09:05.000Z</time>
      </trkpt>
      <trkpt lat="45.8964" lon="4.49138">
        <ele>440</ele>
        <time>2020-03-14T15:09:06.000Z</time>
      </trkpt>
      <trkpt lat="45.89639" lon="4.49139">
        <ele>440.20001220703</ele>
        <time>2020-03-14T15:09:07.000Z</time>
      </trkpt>
      <trkpt lat="45.89637" lon="4.49139">
        <ele>440.20001220703</ele>
        <time>2020-03-14T15:09:08.000Z</time>
      </trkpt>
      <trkpt lat="45.89636" lon="4.49139">
        <ele>440.39999389648</ele>
        <time>2020-03-14T15:09:09.000Z</time>
      </trkpt>
      <trkpt lat="45.89634" lon="4.49139">
        <ele>440.39999389648</ele>
        <time>2020-03-14T15:09:10.000Z</time>
      </trkpt>
      <trkpt lat="45.89632" lon="4.4914">
        <ele>440.60000610352</ele>
        <time>2020-03-14T15:09:11.000Z</time>
      </trkpt>
      <trkpt lat="45.8963" lon="4.4914">
        <ele>440.60000610352</ele>
        <time>2020-03-14T15:09:12.000Z</time>
      </trkpt>
      <trkpt lat="45.89628" lon="4.4914">
        <ele>440.60000610352</ele>
        <time>2020-03-14T15:09:13.000Z</time>
      </trkpt>
      <trkpt lat="45.89626" lon="4.4914">
        <ele>440.60000610352</ele>
        <time>2020-03-14T15:09:14.000Z</time>
      </trkpt>
      <trkpt lat="45.89624" lon="4.49139">
        <ele>440.60000610352</ele>
        <time>2020-03-14T15:09:15.000Z</time>
      </trkpt>
      <trkpt lat="45.89623" lon="4.49137">
        <ele>440.79998779297</ele>
        <time>2020-03-14T15:09:16.000Z</time>
      </trkpt>
      <trkpt lat="45.89621" lon="4.49136">
        <ele>440.79998779297</ele>
        <time>2020-03-14T15:09:17.000Z</time>
      </trkpt>
      <trkpt lat="45.8962" lon="4.49134">
        <ele>441</ele>
        <time>2020-03-14T15:09:18.000Z</time>
      </trkpt>
      <trkpt lat="45.89619" lon="4.49133">
        <ele>441.20001220703</ele>
        <time>2020-03-14T15:09:19.000Z</time>
      </trkpt>
      <trkpt lat="45.89618" lon="4.49131">
        <ele>441.20001220703</ele>
        <time>2020-03-14T15:09:20.000Z</time>
      </trkpt>
      <trkpt lat="45.89617" lon="4.4913">
        <ele>441.39999389648</ele>
        <time>2020-03-14T15:09:21.000Z</time>
      </trkpt>
      <trkpt lat="45.89616" lon="4.49129">
        <ele>441.39999389648</ele>
        <time>2020-03-14T15:09:22.000Z</time>
      </trkpt>
      <trkpt lat="45.89615" lon="4.49129">
        <ele>441.60000610352</ele>
        <time>2020-03-14T15:09:23.000Z</time>
      </trkpt>
      <trkpt lat="45.89614" lon="4.49128">
        <ele>441.60000610352</ele>
        <time>2020-03-14T15:09:24.000Z</time>
      </trkpt>
      <trkpt lat="45.89613" lon="4.49128">
        <ele>441.79998779297</ele>
        <time>2020-03-14T15:09:25.000Z</time>
      </trkpt>
      <trkpt lat="45.89612" lon="4.49127">
        <ele>442</ele>
        <time>2020-03-14T15:09:26.000Z</time>
      </trkpt>
      <trkpt lat="45.89611" lon="4.49126">
        <ele>442.20001220703</ele>
        <time>2020-03-14T15:09:27.000Z</time>
      </trkpt>
      <trkpt lat="45.8961" lon="4.49125">
        <ele>442.20001220703</ele>
        <time>2020-03-14T15:09:28.000Z</time>
      </trkpt>
      <trkpt lat="45.89609" lon="4.49124">
        <ele>442.39999389648</ele>
        <time>2020-03-14T15:09:29.000Z</time>
      </trkpt>
      <trkpt lat="45.89608" lon="4.49122">
        <ele>442.60000610352</ele>
        <time>2020-03-14T15:09:30.000Z</time>
      </trkpt>
      <trkpt lat="45.89608" lon="4.49121">
        <ele>442.79998779297</ele>
        <time>2020-03-14T15:09:31.000Z</time>
      </trkpt>
      <trkpt lat="45.89607" lon="4.4912">
        <ele>443</ele>
        <time>2020-03-14T15:09:32.000Z</time>
      </trkpt>
      <trkpt lat="45.89606" lon="4.4912">
        <ele>443.20001220703</ele>
        <time>2020-03-14T15:09:33.000Z</time>
      </trkpt>
      <trkpt lat="45.89605" lon="4.49119">
        <ele>443.39999389648</ele>
        <time>2020-03-14T15:09:34.000Z</time>
      </trkpt>
      <trkpt lat="45.89604" lon="4.49118">
        <ele>443.60000610352</ele>
        <time>2020-03-14T15:09:35.000Z</time>
      </trkpt>
      <trkpt lat="45.89603" lon="4.49118">
        <ele>444</ele>
        <time>2020-03-14T15:09:36.000Z</time>
      </trkpt>
      <trkpt lat="45.89602" lon="4.49117">
        <ele>444</ele>
        <time>2020-03-14T15:09:37.000Z</time>
      </trkpt>
      <trkpt lat="45.89601" lon="4.49116">
        <ele>444.20001220703</ele>
        <time>2020-03-14T15:09:38.000Z</time>
      </trkpt>
      <trkpt lat="45.896" lon="4.49116">
        <ele>444.39999389648</ele>
        <time>2020-03-14T15:09:39.000Z</time>
      </trkpt>
      <trkpt lat="45.89599" lon="4.49115">
        <ele>444.60000610352</ele>
        <time>2020-03-14T15:09:40.000Z</time>
      </trkpt>
      <trkpt lat="45.89598" lon="4.49115">
        <ele>444.79998779297</ele>
        <time>2020-03-14T15:09:41.000Z</time>
      </trkpt>
      <trkpt lat="45.89597" lon="4.49113">
        <ele>445</ele>
        <time>2020-03-14T15:09:42.000Z</time>
      </trkpt>
      <trkpt lat="45.89596" lon="4.49113">
        <ele>445.20001220703</ele>
        <time>2020-03-14T15:09:43.000Z</time>
      </trkpt>
      <trkpt lat="45.89595" lon="4.49112">
        <ele>445.20001220703</ele>
        <time>2020-03-14T15:09:44.000Z</time>
      </trkpt>
      <trkpt lat="45.89594" lon="4.49111">
        <ele>445.39999389648</ele>
        <time>2020-03-14T15:09:45.000Z</time>
      </trkpt>
      <trkpt lat="45.89593" lon="4.49111">
        <ele>445.60000610352</ele>
        <time>2020-03-14T15:09:46.000Z</time>
      </trkpt>
      <trkpt lat="45.89591" lon="4.4911">
        <ele>446</ele>
        <time>2020-03-14T15:09:47.000Z</time>
      </trkpt>
      <trkpt lat="45.8959" lon="4.49109">
        <ele>446.20001220703</ele>
        <time>2020-03-14T15:09:48.000Z</time>
      </trkpt>
      <trkpt lat="45.89589" lon="4.49108">
        <ele>446.39999389648</ele>
        <time>2020-03-14T15:09:49.000Z</time>
      </trkpt>
      <trkpt lat="45.89588" lon="4.49108">
        <ele>446.79998779297</ele>
        <time>2020-03-14T15:09:50.000Z</time>
      </trkpt>
      <trkpt lat="45.89588" lon="4.49107">
        <ele>447</ele>
        <time>2020-03-14T15:09:51.000Z</time>
      </trkpt>
      <trkpt lat="45.89587" lon="4.49106">
        <ele>447.20001220703</ele>
        <time>2020-03-14T15:09:52.000Z</time>
      </trkpt>
      <trkpt lat="45.89586" lon="4.49106">
        <ele>447.39999389648</ele>
        <time>2020-03-14T15:09:53.000Z</time>
      </trkpt>
      <trkpt lat="45.89585" lon="4.49106">
        <ele>447.60000610352</ele>
        <time>2020-03-14T15:09:54.000Z</time>
      </trkpt>
      <trkpt lat="45.89584" lon="4.49105">
        <ele>447.79998779297</ele>
        <time>2020-03-14T15:09:55.000Z</time>
      </trkpt>
      <trkpt lat="45.89583" lon="4.49105">
        <ele>448.20001220703</ele>
        <time>2020-03-14T15:09:56.000Z</time>
      </trkpt>
      <trkpt lat="45.89582" lon="4.49104">
        <ele>448.39999389648</ele>
        <time>2020-03-14T15:09:57.000Z</time>
      </trkpt>
      <trkpt lat="45.89581" lon="4.49104">
        <ele>448.60000610352</ele>
        <time>2020-03-14T15:09:58.000Z</time>
      </trkpt>
      <trkpt lat="45.8958" lon="4.49103">
        <ele>448.60000610352</ele>
        <time>2020-03-14T15:09:59.000Z</time>
      </trkpt>
      <trkpt lat="45.89579" lon="4.49102">
        <ele>448.79998779297</ele>
        <time>2020-03-14T15:10:00.000Z</time>
      </trkpt>
      <trkpt lat="45.89578" lon="4.49101">
        <ele>449</ele>
        <time>2020-03-14T15:10:01.000Z</time>
      </trkpt>
      <trkpt lat="45.89577" lon="4.49101">
        <ele>449.20001220703</ele>
        <time>2020-03-14T15:10:02.000Z</time>
      </trkpt>
      <trkpt lat="45.89576" lon="4.491">
        <ele>449.39999389648</ele>
        <time>2020-03-14T15:10:03.000Z</time>
      </trkpt>
      <trkpt lat="45.89574" lon="4.491">
        <ele>449.60000610352</ele>
        <time>2020-03-14T15:10:04.000Z</time>
      </trkpt>
      <trkpt lat="45.89573" lon="4.491">
        <ele>449.60000610352</ele>
        <time>2020-03-14T15:10:05.000Z</time>
      </trkpt>
      <trkpt lat="45.89572" lon="4.491">
        <ele>449.79998779297</ele>
        <time>2020-03-14T15:10:06.000Z</time>
      </trkpt>
      <trkpt lat="45.89571" lon="4.49099">
        <ele>449.79998779297</ele>
        <time>2020-03-14T15:10:07.000Z</time>
      </trkpt>
      <trkpt lat="45.89571" lon="4.49099">
        <ele>450</ele>
        <time>2020-03-14T15:10:08.000Z</time>
      </trkpt>
      <trkpt lat="45.8957" lon="4.49099">
        <ele>450.20001220703</ele>
        <time>2020-03-14T15:10:09.000Z</time>
      </trkpt>
      <trkpt lat="45.89569" lon="4.49099">
        <ele>450.60000610352</ele>
        <time>2020-03-14T15:10:10.000Z</time>
      </trkpt>
      <trkpt lat="45.89568" lon="4.49098">
        <ele>450.79998779297</ele>
        <time>2020-03-14T15:10:11.000Z</time>
      </trkpt>
      <trkpt lat="45.89567" lon="4.49097">
        <ele>450.79998779297</ele>
        <time>2020-03-14T15:10:12.000Z</time>
      </trkpt>
      <trkpt lat="45.89566" lon="4.49096">
        <ele>451</ele>
        <time>2020-03-14T15:10:13.000Z</time>
      </trkpt>
      <trkpt lat="45.89565" lon="4.49095">
        <ele>451</ele>
        <time>2020-03-14T15:10:14.000Z</time>
      </trkpt>
      <trkpt lat="45.89564" lon="4.49094">
        <ele>451</ele>
        <time>2020-03-14T15:10:15.000Z</time>
      </trkpt>
      <trkpt lat="45.89563" lon="4.49093">
        <ele>451.20001220703</ele>
        <time>2020-03-14T15:10:16.000Z</time>
      </trkpt>
      <trkpt lat="45.89562" lon="4.49093">
        <ele>451.20001220703</ele>
        <time>2020-03-14T15:10:17.000Z</time>
      </trkpt>
      <trkpt lat="45.89561" lon="4.49092">
        <ele>451.20001220703</ele>
        <time>2020-03-14T15:10:18.000Z</time>
      </trkpt>
      <trkpt lat="45.8956" lon="4.49091">
        <ele>451.39999389648</ele>
        <time>2020-03-14T15:10:19.000Z</time>
      </trkpt>
      <trkpt lat="45.89559" lon="4.49091">
        <ele>451.60000610352</ele>
        <time>2020-03-14T15:10:20.000Z</time>
      </trkpt>
      <trkpt lat="45.89558" lon="4.4909">
        <ele>451.79998779297</ele>
        <time>2020-03-14T15:10:21.000Z</time>
      </trkpt>
      <trkpt lat="45.89557" lon="4.49089">
        <ele>452</ele>
        <time>2020-03-14T15:10:22.000Z</time>
      </trkpt>
      <trkpt lat="45.89556" lon="4.49088">
        <ele>452</ele>
        <time>2020-03-14T15:10:23.000Z</time>
      </trkpt>
      <trkpt lat="45.89555" lon="4.49087">
        <ele>452.20001220703</ele>
        <time>2020-03-14T15:10:24.000Z</time>
      </trkpt>
      <trkpt lat="45.89554" lon="4.49087">
        <ele>452.39999389648</ele>
        <time>2020-03-14T15:10:25.000Z</time>
      </trkpt>
      <trkpt lat="45.89553" lon="4.49086">
        <ele>452.39999389648</ele>
        <time>2020-03-14T15:10:26.000Z</time>
      </trkpt>
      <trkpt lat="45.89552" lon="4.49086">
        <ele>452.60000610352</ele>
        <time>2020-03-14T15:10:27.000Z</time>
      </trkpt>
      <trkpt lat="45.8955" lon="4.49086">
        <ele>453</ele>
        <time>2020-03-14T15:10:28.000Z</time>
      </trkpt>
      <trkpt lat="45.89549" lon="4.49085">
        <ele>453.60000610352</ele>
        <time>2020-03-14T15:10:29.000Z</time>
      </trkpt>
      <trkpt lat="45.89548" lon="4.49084">
        <ele>454</ele>
        <time>2020-03-14T15:10:30.000Z</time>
      </trkpt>
      <trkpt lat="45.89547" lon="4.49083">
        <ele>454.20001220703</ele>
        <time>2020-03-14T15:10:31.000Z</time>
      </trkpt>
      <trkpt lat="45.89546" lon="4.49083">
        <ele>454.20001220703</ele>
        <time>2020-03-14T15:10:32.000Z</time>
      </trkpt>
      <trkpt lat="45.89545" lon="4.49081">
        <ele>454.39999389648</ele>
        <time>2020-03-14T15:10:33.000Z</time>
      </trkpt>
      <trkpt lat="45.89545" lon="4.4908">
        <ele>454.39999389648</ele>
        <time>2020-03-14T15:10:34.000Z</time>
      </trkpt>
      <trkpt lat="45.89544" lon="4.49079">
        <ele>454.39999389648</ele>
        <time>2020-03-14T15:10:35.000Z</time>
      </trkpt>
      <trkpt lat="45.89543" lon="4.49078">
        <ele>454.60000610352</ele>
        <time>2020-03-14T15:10:36.000Z</time>
      </trkpt>
      <trkpt lat="45.89542" lon="4.49078">
        <ele>454.60000610352</ele>
        <time>2020-03-14T15:10:37.000Z</time>
      </trkpt>
      <trkpt lat="45.8954" lon="4.49077">
        <ele>454.79998779297</ele>
        <time>2020-03-14T15:10:38.000Z</time>
      </trkpt>
      <trkpt lat="45.8954" lon="4.49077">
        <ele>455</ele>
        <time>2020-03-14T15:10:39.000Z</time>
      </trkpt>
      <trkpt lat="45.89539" lon="4.49076">
        <ele>455.20001220703</ele>
        <time>2020-03-14T15:10:40.000Z</time>
      </trkpt>
      <trkpt lat="45.89537" lon="4.49075">
        <ele>455.60000610352</ele>
        <time>2020-03-14T15:10:41.000Z</time>
      </trkpt>
      <trkpt lat="45.89536" lon="4.49074">
        <ele>456</ele>
        <time>2020-03-14T15:10:42.000Z</time>
      </trkpt>
      <trkpt lat="45.89535" lon="4.49074">
        <ele>456.20001220703</ele>
        <time>2020-03-14T15:10:43.000Z</time>
      </trkpt>
      <trkpt lat="45.89534" lon="4.49074">
        <ele>456.39999389648</ele>
        <time>2020-03-14T15:10:44.000Z</time>
      </trkpt>
      <trkpt lat="45.89533" lon="4.49074">
        <ele>456.60000610352</ele>
        <time>2020-03-14T15:10:45.000Z</time>
      </trkpt>
      <trkpt lat="45.89532" lon="4.49073">
        <ele>456.79998779297</ele>
        <time>2020-03-14T15:10:46.000Z</time>
      </trkpt>
      <trkpt lat="45.89531" lon="4.49073">
        <ele>457.20001220703</ele>
        <time>2020-03-14T15:10:47.000Z</time>
      </trkpt>
      <trkpt lat="45.89531" lon="4.49072">
        <ele>457.39999389648</ele>
        <time>2020-03-14T15:10:48.000Z</time>
      </trkpt>
      <trkpt lat="45.8953" lon="4.49072">
        <ele>457.60000610352</ele>
        <time>2020-03-14T15:10:49.000Z</time>
      </trkpt>
      <trkpt lat="45.89529" lon="4.49072">
        <ele>457.79998779297</ele>
        <time>2020-03-14T15:10:50.000Z</time>
      </trkpt>
      <trkpt lat="45.89528" lon="4.49072">
        <ele>458</ele>
        <time>2020-03-14T15:10:51.000Z</time>
      </trkpt>
      <trkpt lat="45.89527" lon="4.49072">
        <ele>458.20001220703</ele>
        <time>2020-03-14T15:10:52.000Z</time>
      </trkpt>
      <trkpt lat="45.89526" lon="4.49072">
        <ele>458.39999389648</ele>
        <time>2020-03-14T15:10:53.000Z</time>
      </trkpt>
      <trkpt lat="45.89525" lon="4.49072">
        <ele>458.60000610352</ele>
        <time>2020-03-14T15:10:54.000Z</time>
      </trkpt>
      <trkpt lat="45.89523" lon="4.49073">
        <ele>458.79998779297</ele>
        <time>2020-03-14T15:10:55.000Z</time>
      </trkpt>
      <trkpt lat="45.89522" lon="4.49073">
        <ele>459</ele>
        <time>2020-03-14T15:10:56.000Z</time>
      </trkpt>
      <trkpt lat="45.89521" lon="4.49074">
        <ele>459.20001220703</ele>
        <time>2020-03-14T15:10:57.000Z</time>
      </trkpt>
      <trkpt lat="45.89519" lon="4.49074">
        <ele>459.20001220703</ele>
        <time>2020-03-14T15:10:58.000Z</time>
      </trkpt>
      <trkpt lat="45.89518" lon="4.49072">
        <ele>459.39999389648</ele>
        <time>2020-03-14T15:10:59.000Z</time>
      </trkpt>
      <trkpt lat="45.89518" lon="4.49071">
        <ele>459.39999389648</ele>
        <time>2020-03-14T15:11:00.000Z</time>
      </trkpt>
      <trkpt lat="45.89516" lon="4.49069">
        <ele>459.39999389648</ele>
        <time>2020-03-14T15:11:01.000Z</time>
      </trkpt>
      <trkpt lat="45.89515" lon="4.49068">
        <ele>459.60000610352</ele>
        <time>2020-03-14T15:11:02.000Z</time>
      </trkpt>
      <trkpt lat="45.89514" lon="4.49066">
        <ele>459.79998779297</ele>
        <time>2020-03-14T15:11:03.000Z</time>
      </trkpt>
      <trkpt lat="45.89513" lon="4.49064">
        <ele>460.39999389648</ele>
        <time>2020-03-14T15:11:04.000Z</time>
      </trkpt>
      <trkpt lat="45.89512" lon="4.49063">
        <ele>460.60000610352</ele>
        <time>2020-03-14T15:11:05.000Z</time>
      </trkpt>
      <trkpt lat="45.89511" lon="4.49062">
        <ele>460.79998779297</ele>
        <time>2020-03-14T15:11:06.000Z</time>
      </trkpt>
      <trkpt lat="45.8951" lon="4.49061">
        <ele>461</ele>
        <time>2020-03-14T15:11:07.000Z</time>
      </trkpt>
      <trkpt lat="45.89509" lon="4.49059">
        <ele>461</ele>
        <time>2020-03-14T15:11:08.000Z</time>
      </trkpt>
      <trkpt lat="45.89508" lon="4.49058">
        <ele>461</ele>
        <time>2020-03-14T15:11:09.000Z</time>
      </trkpt>
      <trkpt lat="45.89507" lon="4.49057">
        <ele>461</ele>
        <time>2020-03-14T15:11:10.000Z</time>
      </trkpt>
      <trkpt lat="45.89506" lon="4.49056">
        <ele>461</ele>
        <time>2020-03-14T15:11:11.000Z</time>
      </trkpt>
      <trkpt lat="45.89505" lon="4.49055">
        <ele>461</ele>
        <time>2020-03-14T15:11:12.000Z</time>
      </trkpt>
      <trkpt lat="45.89505" lon="4.49053">
        <ele>461</ele>
        <time>2020-03-14T15:11:13.000Z</time>
      </trkpt>
      <trkpt lat="45.89504" lon="4.49052">
        <ele>461.20001220703</ele>
        <time>2020-03-14T15:11:14.000Z</time>
      </trkpt>
      <trkpt lat="45.89503" lon="4.49051">
        <ele>461.39999389648</ele>
        <time>2020-03-14T15:11:15.000Z</time>
      </trkpt>
      <trkpt lat="45.89502" lon="4.4905">
        <ele>461.60000610352</ele>
        <time>2020-03-14T15:11:16.000Z</time>
      </trkpt>
      <trkpt lat="45.89501" lon="4.49049">
        <ele>461.79998779297</ele>
        <time>2020-03-14T15:11:17.000Z</time>
      </trkpt>
      <trkpt lat="45.89501" lon="4.49048">
        <ele>462</ele>
        <time>2020-03-14T15:11:18.000Z</time>
      </trkpt>
      <trkpt lat="45.895" lon="4.49046">
        <ele>462</ele>
        <time>2020-03-14T15:11:19.000Z</time>
      </trkpt>
      <trkpt lat="45.89499" lon="4.49045">
        <ele>462.20001220703</ele>
        <time>2020-03-14T15:11:20.000Z</time>
      </trkpt>
      <trkpt lat="45.89498" lon="4.49044">
        <ele>462.39999389648</ele>
        <time>2020-03-14T15:11:21.000Z</time>
      </trkpt>
      <trkpt lat="45.89497" lon="4.49043">
        <ele>462.39999389648</ele>
        <time>2020-03-14T15:11:22.000Z</time>
      </trkpt>
      <trkpt lat="45.89496" lon="4.49041">
        <ele>462.60000610352</ele>
        <time>2020-03-14T15:11:23.000Z</time>
      </trkpt>
      <trkpt lat="45.89495" lon="4.4904">
        <ele>462.79998779297</ele>
        <time>2020-03-14T15:11:24.000Z</time>
      </trkpt>
      <trkpt lat="45.89494" lon="4.49039">
        <ele>463</ele>
        <time>2020-03-14T15:11:25.000Z</time>
      </trkpt>
      <trkpt lat="45.89493" lon="4.49037">
        <ele>463.39999389648</ele>
        <time>2020-03-14T15:11:26.000Z</time>
      </trkpt>
      <trkpt lat="45.89492" lon="4.49036">
        <ele>463.60000610352</ele>
        <time>2020-03-14T15:11:27.000Z</time>
      </trkpt>
      <trkpt lat="45.89491" lon="4.49035">
        <ele>463.79998779297</ele>
        <time>2020-03-14T15:11:28.000Z</time>
      </trkpt>
      <trkpt lat="45.8949" lon="4.49034">
        <ele>464</ele>
        <time>2020-03-14T15:11:29.000Z</time>
      </trkpt>
      <trkpt lat="45.89489" lon="4.49032">
        <ele>464.20001220703</ele>
        <time>2020-03-14T15:11:30.000Z</time>
      </trkpt>
      <trkpt lat="45.89488" lon="4.49031">
        <ele>464.39999389648</ele>
        <time>2020-03-14T15:11:31.000Z</time>
      </trkpt>
      <trkpt lat="45.89486" lon="4.49029">
        <ele>464.60000610352</ele>
        <time>2020-03-14T15:11:32.000Z</time>
      </trkpt>
      <trkpt lat="45.89485" lon="4.49028">
        <ele>464.79998779297</ele>
        <time>2020-03-14T15:11:33.000Z</time>
      </trkpt>
      <trkpt lat="45.89484" lon="4.49026">
        <ele>465</ele>
        <time>2020-03-14T15:11:34.000Z</time>
      </trkpt>
      <trkpt lat="45.89482" lon="4.49026">
        <ele>465</ele>
        <time>2020-03-14T15:11:35.000Z</time>
      </trkpt>
      <trkpt lat="45.89481" lon="4.49026">
        <ele>465</ele>
        <time>2020-03-14T15:11:36.000Z</time>
      </trkpt>
      <trkpt lat="45.8948" lon="4.49025">
        <ele>465</ele>
        <time>2020-03-14T15:11:37.000Z</time>
      </trkpt>
      <trkpt lat="45.89479" lon="4.49023">
        <ele>465</ele>
        <time>2020-03-14T15:11:38.000Z</time>
      </trkpt>
      <trkpt lat="45.89478" lon="4.49021">
        <ele>465</ele>
        <time>2020-03-14T15:11:39.000Z</time>
      </trkpt>
      <trkpt lat="45.89477" lon="4.49019">
        <ele>465</ele>
        <time>2020-03-14T15:11:40.000Z</time>
      </trkpt>
      <trkpt lat="45.89476" lon="4.49017">
        <ele>464.79998779297</ele>
        <time>2020-03-14T15:11:41.000Z</time>
      </trkpt>
      <trkpt lat="45.89475" lon="4.49014">
        <ele>464.79998779297</ele>
        <time>2020-03-14T15:11:42.000Z</time>
      </trkpt>
      <trkpt lat="45.89474" lon="4.49012">
        <ele>464.79998779297</ele>
        <time>2020-03-14T15:11:43.000Z</time>
      </trkpt>
      <trkpt lat="45.89474" lon="4.4901">
        <ele>464.79998779297</ele>
        <time>2020-03-14T15:11:44.000Z</time>
      </trkpt>
      <trkpt lat="45.89474" lon="4.49008">
        <ele>465</ele>
        <time>2020-03-14T15:11:45.000Z</time>
      </trkpt>
      <trkpt lat="45.89473" lon="4.49006">
        <ele>465.20001220703</ele>
        <time>2020-03-14T15:11:46.000Z</time>
      </trkpt>
      <trkpt lat="45.89473" lon="4.49004">
        <ele>465.39999389648</ele>
        <time>2020-03-14T15:11:47.000Z</time>
      </trkpt>
      <trkpt lat="45.89472" lon="4.49002">
        <ele>465.79998779297</ele>
        <time>2020-03-14T15:11:48.000Z</time>
      </trkpt>
      <trkpt lat="45.89472" lon="4.49">
        <ele>466</ele>
        <time>2020-03-14T15:11:49.000Z</time>
      </trkpt>
      <trkpt lat="45.89472" lon="4.48999">
        <ele>466.20001220703</ele>
        <time>2020-03-14T15:11:50.000Z</time>
      </trkpt>
      <trkpt lat="45.89471" lon="4.48997">
        <ele>466.39999389648</ele>
        <time>2020-03-14T15:11:51.000Z</time>
      </trkpt>
      <trkpt lat="45.8947" lon="4.48996">
        <ele>466.60000610352</ele>
        <time>2020-03-14T15:11:52.000Z</time>
      </trkpt>
      <trkpt lat="45.8947" lon="4.48994">
        <ele>466.79998779297</ele>
        <time>2020-03-14T15:11:53.000Z</time>
      </trkpt>
      <trkpt lat="45.8947" lon="4.48992">
        <ele>467</ele>
        <time>2020-03-14T15:11:54.000Z</time>
      </trkpt>
      <trkpt lat="45.8947" lon="4.4899">
        <ele>467</ele>
        <time>2020-03-14T15:11:55.000Z</time>
      </trkpt>
      <trkpt lat="45.8947" lon="4.48989">
        <ele>467.20001220703</ele>
        <time>2020-03-14T15:11:56.000Z</time>
      </trkpt>
      <trkpt lat="45.8947" lon="4.48987">
        <ele>467.60000610352</ele>
        <time>2020-03-14T15:11:57.000Z</time>
      </trkpt>
      <trkpt lat="45.89469" lon="4.48985">
        <ele>467.79998779297</ele>
        <time>2020-03-14T15:11:58.000Z</time>
      </trkpt>
      <trkpt lat="45.89469" lon="4.48983">
        <ele>468</ele>
        <time>2020-03-14T15:11:59.000Z</time>
      </trkpt>
      <trkpt lat="45.89469" lon="4.48981">
        <ele>468.20001220703</ele>
        <time>2020-03-14T15:12:00.000Z</time>
      </trkpt>
      <trkpt lat="45.89468" lon="4.48979">
        <ele>468.20001220703</ele>
        <time>2020-03-14T15:12:01.000Z</time>
      </trkpt>
      <trkpt lat="45.89468" lon="4.48978">
        <ele>468.20001220703</ele>
        <time>2020-03-14T15:12:02.000Z</time>
      </trkpt>
      <trkpt lat="45.89467" lon="4.48976">
        <ele>468.20001220703</ele>
        <time>2020-03-14T15:12:03.000Z</time>
      </trkpt>
      <trkpt lat="45.89466" lon="4.48975">
        <ele>468.39999389648</ele>
        <time>2020-03-14T15:12:04.000Z</time>
      </trkpt>
      <trkpt lat="45.89466" lon="4.48973">
        <ele>468.39999389648</ele>
        <time>2020-03-14T15:12:05.000Z</time>
      </trkpt>
      <trkpt lat="45.89464" lon="4.4897">
        <ele>468.60000610352</ele>
        <time>2020-03-14T15:12:06.000Z</time>
      </trkpt>
      <trkpt lat="45.89463" lon="4.48968">
        <ele>468.60000610352</ele>
        <time>2020-03-14T15:12:07.000Z</time>
      </trkpt>
      <trkpt lat="45.89462" lon="4.48965">
        <ele>468.60000610352</ele>
        <time>2020-03-14T15:12:08.000Z</time>
      </trkpt>
      <trkpt lat="45.89462" lon="4.48963">
        <ele>468.79998779297</ele>
        <time>2020-03-14T15:12:09.000Z</time>
      </trkpt>
      <trkpt lat="45.89462" lon="4.4896">
        <ele>468.79998779297</ele>
        <time>2020-03-14T15:12:10.000Z</time>
      </trkpt>
      <trkpt lat="45.89461" lon="4.48959">
        <ele>468.79998779297</ele>
        <time>2020-03-14T15:12:11.000Z</time>
      </trkpt>
      <trkpt lat="45.89462" lon="4.48956">
        <ele>468.79998779297</ele>
        <time>2020-03-14T15:12:12.000Z</time>
      </trkpt>
      <trkpt lat="45.89462" lon="4.48954">
        <ele>468.79998779297</ele>
        <time>2020-03-14T15:12:13.000Z</time>
      </trkpt>
      <trkpt lat="45.89463" lon="4.48952">
        <ele>468.79998779297</ele>
        <time>2020-03-14T15:12:14.000Z</time>
      </trkpt>
      <trkpt lat="45.89464" lon="4.4895">
        <ele>468.79998779297</ele>
        <time>2020-03-14T15:12:15.000Z</time>
      </trkpt>
      <trkpt lat="45.89465" lon="4.48949">
        <ele>469</ele>
        <time>2020-03-14T15:12:16.000Z</time>
      </trkpt>
      <trkpt lat="45.89465" lon="4.48948">
        <ele>469</ele>
        <time>2020-03-14T15:12:17.000Z</time>
      </trkpt>
      <trkpt lat="45.89466" lon="4.48947">
        <ele>469</ele>
        <time>2020-03-14T15:12:18.000Z</time>
      </trkpt>
      <trkpt lat="45.89467" lon="4.48946">
        <ele>469</ele>
        <time>2020-03-14T15:12:19.000Z</time>
      </trkpt>
      <trkpt lat="45.89468" lon="4.48945">
        <ele>469</ele>
        <time>2020-03-14T15:12:20.000Z</time>
      </trkpt>
      <trkpt lat="45.89468" lon="4.48944">
        <ele>469</ele>
        <time>2020-03-14T15:12:21.000Z</time>
      </trkpt>
      <trkpt lat="45.89469" lon="4.48943">
        <ele>469.20001220703</ele>
        <time>2020-03-14T15:12:22.000Z</time>
      </trkpt>
      <trkpt lat="45.8947" lon="4.48942">
        <ele>469.20001220703</ele>
        <time>2020-03-14T15:12:23.000Z</time>
      </trkpt>
      <trkpt lat="45.89471" lon="4.4894">
        <ele>469.20001220703</ele>
        <time>2020-03-14T15:12:24.000Z</time>
      </trkpt>
      <trkpt lat="45.89472" lon="4.48938">
        <ele>469.20001220703</ele>
        <time>2020-03-14T15:12:25.000Z</time>
      </trkpt>
      <trkpt lat="45.89473" lon="4.48937">
        <ele>469.39999389648</ele>
        <time>2020-03-14T15:12:26.000Z</time>
      </trkpt>
      <trkpt lat="45.89473" lon="4.48935">
        <ele>469.39999389648</ele>
        <time>2020-03-14T15:12:27.000Z</time>
      </trkpt>
      <trkpt lat="45.89474" lon="4.48933">
        <ele>469.60000610352</ele>
        <time>2020-03-14T15:12:28.000Z</time>
      </trkpt>
      <trkpt lat="45.89475" lon="4.48931">
        <ele>469.79998779297</ele>
        <time>2020-03-14T15:12:29.000Z</time>
      </trkpt>
      <trkpt lat="45.89476" lon="4.4893">
        <ele>470</ele>
        <time>2020-03-14T15:12:30.000Z</time>
      </trkpt>
      <trkpt lat="45.89477" lon="4.48928">
        <ele>470.20001220703</ele>
        <time>2020-03-14T15:12:31.000Z</time>
      </trkpt>
      <trkpt lat="45.89478" lon="4.48926">
        <ele>470.79998779297</ele>
        <time>2020-03-14T15:12:32.000Z</time>
      </trkpt>
      <trkpt lat="45.89479" lon="4.48924">
        <ele>471.39999389648</ele>
        <time>2020-03-14T15:12:33.000Z</time>
      </trkpt>
      <trkpt lat="45.8948" lon="4.48923">
        <ele>471.79998779297</ele>
        <time>2020-03-14T15:12:34.000Z</time>
      </trkpt>
      <trkpt lat="45.8948" lon="4.48921">
        <ele>472.20001220703</ele>
        <time>2020-03-14T15:12:35.000Z</time>
      </trkpt>
      <trkpt lat="45.89481" lon="4.48919">
        <ele>472.60000610352</ele>
        <time>2020-03-14T15:12:36.000Z</time>
      </trkpt>
      <trkpt lat="45.89481" lon="4.48917">
        <ele>472.79998779297</ele>
        <time>2020-03-14T15:12:37.000Z</time>
      </trkpt>
      <trkpt lat="45.89482" lon="4.48915">
        <ele>473.20001220703</ele>
        <time>2020-03-14T15:12:38.000Z</time>
      </trkpt>
      <trkpt lat="45.89482" lon="4.48914">
        <ele>473.39999389648</ele>
        <time>2020-03-14T15:12:39.000Z</time>
      </trkpt>
      <trkpt lat="45.89483" lon="4.48912">
        <ele>473.60000610352</ele>
        <time>2020-03-14T15:12:40.000Z</time>
      </trkpt>
      <trkpt lat="45.89483" lon="4.48911">
        <ele>473.79998779297</ele>
        <time>2020-03-14T15:12:41.000Z</time>
      </trkpt>
      <trkpt lat="45.89484" lon="4.4891">
        <ele>474</ele>
        <time>2020-03-14T15:12:42.000Z</time>
      </trkpt>
      <trkpt lat="45.89485" lon="4.48908">
        <ele>474.20001220703</ele>
        <time>2020-03-14T15:12:43.000Z</time>
      </trkpt>
      <trkpt lat="45.89485" lon="4.48906">
        <ele>474.39999389648</ele>
        <time>2020-03-14T15:12:44.000Z</time>
      </trkpt>
      <trkpt lat="45.89485" lon="4.48904">
        <ele>474.79998779297</ele>
        <time>2020-03-14T15:12:45.000Z</time>
      </trkpt>
      <trkpt lat="45.89486" lon="4.48903">
        <ele>475</ele>
        <time>2020-03-14T15:12:46.000Z</time>
      </trkpt>
      <trkpt lat="45.89486" lon="4.48901">
        <ele>475</ele>
        <time>2020-03-14T15:12:47.000Z</time>
      </trkpt>
      <trkpt lat="45.89486" lon="4.48899">
        <ele>475</ele>
        <time>2020-03-14T15:12:48.000Z</time>
      </trkpt>
      <trkpt lat="45.89486" lon="4.48897">
        <ele>475.20001220703</ele>
        <time>2020-03-14T15:12:49.000Z</time>
      </trkpt>
      <trkpt lat="45.89487" lon="4.48896">
        <ele>475.39999389648</ele>
        <time>2020-03-14T15:12:50.000Z</time>
      </trkpt>
      <trkpt lat="45.89487" lon="4.48894">
        <ele>475.79998779297</ele>
        <time>2020-03-14T15:12:51.000Z</time>
      </trkpt>
      <trkpt lat="45.89489" lon="4.48894">
        <ele>475.79998779297</ele>
        <time>2020-03-14T15:12:52.000Z</time>
      </trkpt>
      <trkpt lat="45.8949" lon="4.48893">
        <ele>476</ele>
        <time>2020-03-14T15:12:53.000Z</time>
      </trkpt>
      <trkpt lat="45.8949" lon="4.48892">
        <ele>476</ele>
        <time>2020-03-14T15:12:54.000Z</time>
      </trkpt>
      <trkpt lat="45.89491" lon="4.4889">
        <ele>476.20001220703</ele>
        <time>2020-03-14T15:12:55.000Z</time>
      </trkpt>
      <trkpt lat="45.89492" lon="4.48888">
        <ele>476.20001220703</ele>
        <time>2020-03-14T15:12:56.000Z</time>
      </trkpt>
      <trkpt lat="45.89492" lon="4.48887">
        <ele>476.39999389648</ele>
        <time>2020-03-14T15:12:57.000Z</time>
      </trkpt>
      <trkpt lat="45.89493" lon="4.48885">
        <ele>476.60000610352</ele>
        <time>2020-03-14T15:12:58.000Z</time>
      </trkpt>
      <trkpt lat="45.89493" lon="4.48884">
        <ele>476.79998779297</ele>
        <time>2020-03-14T15:12:59.000Z</time>
      </trkpt>
      <trkpt lat="45.89494" lon="4.48883">
        <ele>477</ele>
        <time>2020-03-14T15:13:00.000Z</time>
      </trkpt>
      <trkpt lat="45.89495" lon="4.48881">
        <ele>477.20001220703</ele>
        <time>2020-03-14T15:13:01.000Z</time>
      </trkpt>
      <trkpt lat="45.89495" lon="4.4888">
        <ele>477.60000610352</ele>
        <time>2020-03-14T15:13:02.000Z</time>
      </trkpt>
      <trkpt lat="45.89496" lon="4.48878">
        <ele>477.79998779297</ele>
        <time>2020-03-14T15:13:03.000Z</time>
      </trkpt>
      <trkpt lat="45.89496" lon="4.48876">
        <ele>478.39999389648</ele>
        <time>2020-03-14T15:13:04.000Z</time>
      </trkpt>
      <trkpt lat="45.89496" lon="4.48875">
        <ele>478.60000610352</ele>
        <time>2020-03-14T15:13:05.000Z</time>
      </trkpt>
      <trkpt lat="45.89497" lon="4.48873">
        <ele>478.79998779297</ele>
        <time>2020-03-14T15:13:06.000Z</time>
      </trkpt>
      <trkpt lat="45.89497" lon="4.48871">
        <ele>479</ele>
        <time>2020-03-14T15:13:07.000Z</time>
      </trkpt>
      <trkpt lat="45.89497" lon="4.4887">
        <ele>479.20001220703</ele>
        <time>2020-03-14T15:13:08.000Z</time>
      </trkpt>
      <trkpt lat="45.89498" lon="4.48869">
        <ele>479.39999389648</ele>
        <time>2020-03-14T15:13:09.000Z</time>
      </trkpt>
      <trkpt lat="45.89498" lon="4.48867">
        <ele>479.39999389648</ele>
        <time>2020-03-14T15:13:10.000Z</time>
      </trkpt>
      <trkpt lat="45.89499" lon="4.48865">
        <ele>479.60000610352</ele>
        <time>2020-03-14T15:13:11.000Z</time>
      </trkpt>
      <trkpt lat="45.895" lon="4.48864">
        <ele>479.79998779297</ele>
        <time>2020-03-14T15:13:12.000Z</time>
      </trkpt>
      <trkpt lat="45.89501" lon="4.48863">
        <ele>479.79998779297</ele>
        <time>2020-03-14T15:13:13.000Z</time>
      </trkpt>
      <trkpt lat="45.89502" lon="4.48862">
        <ele>480</ele>
        <time>2020-03-14T15:13:14.000Z</time>
      </trkpt>
      <trkpt lat="45.89502" lon="4.48861">
        <ele>480.20001220703</ele>
        <time>2020-03-14T15:13:15.000Z</time>
      </trkpt>
      <trkpt lat="45.89503" lon="4.4886">
        <ele>480.39999389648</ele>
        <time>2020-03-14T15:13:16.000Z</time>
      </trkpt>
      <trkpt lat="45.89503" lon="4.48858">
        <ele>480.60000610352</ele>
        <time>2020-03-14T15:13:17.000Z</time>
      </trkpt>
      <trkpt lat="45.89503" lon="4.48857">
        <ele>480.79998779297</ele>
        <time>2020-03-14T15:13:18.000Z</time>
      </trkpt>
      <trkpt lat="45.89503" lon="4.48855">
        <ele>481</ele>
        <time>2020-03-14T15:13:19.000Z</time>
      </trkpt>
      <trkpt lat="45.89503" lon="4.48853">
        <ele>481.20001220703</ele>
        <time>2020-03-14T15:13:20.000Z</time>
      </trkpt>
      <trkpt lat="45.89503" lon="4.48852">
        <ele>481.39999389648</ele>
        <time>2020-03-14T15:13:21.000Z</time>
      </trkpt>
      <trkpt lat="45.89504" lon="4.4885">
        <ele>481.39999389648</ele>
        <time>2020-03-14T15:13:22.000Z</time>
      </trkpt>
      <trkpt lat="45.89504" lon="4.48849">
        <ele>481.39999389648</ele>
        <time>2020-03-14T15:13:23.000Z</time>
      </trkpt>
      <trkpt lat="45.89504" lon="4.48847">
        <ele>481.39999389648</ele>
        <time>2020-03-14T15:13:24.000Z</time>
      </trkpt>
      <trkpt lat="45.89505" lon="4.48845">
        <ele>481.39999389648</ele>
        <time>2020-03-14T15:13:25.000Z</time>
      </trkpt>
      <trkpt lat="45.89505" lon="4.48844">
        <ele>481.60000610352</ele>
        <time>2020-03-14T15:13:26.000Z</time>
      </trkpt>
      <trkpt lat="45.89505" lon="4.48842">
        <ele>481.79998779297</ele>
        <time>2020-03-14T15:13:27.000Z</time>
      </trkpt>
      <trkpt lat="45.89506" lon="4.48841">
        <ele>482.20001220703</ele>
        <time>2020-03-14T15:13:28.000Z</time>
      </trkpt>
      <trkpt lat="45.89507" lon="4.48839">
        <ele>482.39999389648</ele>
        <time>2020-03-14T15:13:29.000Z</time>
      </trkpt>
      <trkpt lat="45.89507" lon="4.48838">
        <ele>482.60000610352</ele>
        <time>2020-03-14T15:13:30.000Z</time>
      </trkpt>
      <trkpt lat="45.89508" lon="4.48837">
        <ele>483</ele>
        <time>2020-03-14T15:13:31.000Z</time>
      </trkpt>
      <trkpt lat="45.89508" lon="4.48835">
        <ele>483.20001220703</ele>
        <time>2020-03-14T15:13:32.000Z</time>
      </trkpt>
      <trkpt lat="45.89508" lon="4.48833">
        <ele>483.39999389648</ele>
        <time>2020-03-14T15:13:33.000Z</time>
      </trkpt>
      <trkpt lat="45.89508" lon="4.48832">
        <ele>483.60000610352</ele>
        <time>2020-03-14T15:13:34.000Z</time>
      </trkpt>
      <trkpt lat="45.89509" lon="4.4883">
        <ele>484</ele>
        <time>2020-03-14T15:13:35.000Z</time>
      </trkpt>
      <trkpt lat="45.89509" lon="4.48829">
        <ele>484.39999389648</ele>
        <time>2020-03-14T15:13:36.000Z</time>
      </trkpt>
      <trkpt lat="45.89509" lon="4.48827">
        <ele>484.39999389648</ele>
        <time>2020-03-14T15:13:37.000Z</time>
      </trkpt>
      <trkpt lat="45.8951" lon="4.48826">
        <ele>484.60000610352</ele>
        <time>2020-03-14T15:13:38.000Z</time>
      </trkpt>
      <trkpt lat="45.8951" lon="4.48824">
        <ele>484.60000610352</ele>
        <time>2020-03-14T15:13:39.000Z</time>
      </trkpt>
      <trkpt lat="45.8951" lon="4.48823">
        <ele>484.60000610352</ele>
        <time>2020-03-14T15:13:40.000Z</time>
      </trkpt>
      <trkpt lat="45.8951" lon="4.48821">
        <ele>484.60000610352</ele>
        <time>2020-03-14T15:13:41.000Z</time>
      </trkpt>
      <trkpt lat="45.89511" lon="4.48819">
        <ele>484.60000610352</ele>
        <time>2020-03-14T15:13:42.000Z</time>
      </trkpt>
      <trkpt lat="45.89511" lon="4.48818">
        <ele>484.60000610352</ele>
        <time>2020-03-14T15:13:43.000Z</time>
      </trkpt>
      <trkpt lat="45.89511" lon="4.48816">
        <ele>484.60000610352</ele>
        <time>2020-03-14T15:13:44.000Z</time>
      </trkpt>
      <trkpt lat="45.89511" lon="4.48814">
        <ele>484.60000610352</ele>
        <time>2020-03-14T15:13:45.000Z</time>
      </trkpt>
      <trkpt lat="45.89511" lon="4.48813">
        <ele>484.60000610352</ele>
        <time>2020-03-14T15:13:46.000Z</time>
      </trkpt>
      <trkpt lat="45.89511" lon="4.48811">
        <ele>484.60000610352</ele>
        <time>2020-03-14T15:13:47.000Z</time>
      </trkpt>
      <trkpt lat="45.89511" lon="4.48809">
        <ele>484.79998779297</ele>
        <time>2020-03-14T15:13:48.000Z</time>
      </trkpt>
      <trkpt lat="45.89512" lon="4.48807">
        <ele>485</ele>
        <time>2020-03-14T15:13:49.000Z</time>
      </trkpt>
      <trkpt lat="45.89512" lon="4.48805">
        <ele>485.20001220703</ele>
        <time>2020-03-14T15:13:50.000Z</time>
      </trkpt>
      <trkpt lat="45.89512" lon="4.48804">
        <ele>485.60000610352</ele>
        <time>2020-03-14T15:13:51.000Z</time>
      </trkpt>
      <trkpt lat="45.89512" lon="4.48802">
        <ele>486</ele>
        <time>2020-03-14T15:13:52.000Z</time>
      </trkpt>
      <trkpt lat="45.89512" lon="4.48801">
        <ele>486.39999389648</ele>
        <time>2020-03-14T15:13:53.000Z</time>
      </trkpt>
      <trkpt lat="45.89512" lon="4.48799">
        <ele>486.60000610352</ele>
        <time>2020-03-14T15:13:54.000Z</time>
      </trkpt>
      <trkpt lat="45.89512" lon="4.48798">
        <ele>486.60000610352</ele>
        <time>2020-03-14T15:13:55.000Z</time>
      </trkpt>
      <trkpt lat="45.89513" lon="4.48796">
        <ele>486.79998779297</ele>
        <time>2020-03-14T15:13:56.000Z</time>
      </trkpt>
      <trkpt lat="45.89513" lon="4.48794">
        <ele>487</ele>
        <time>2020-03-14T15:13:57.000Z</time>
      </trkpt>
      <trkpt lat="45.89513" lon="4.48792">
        <ele>487.39999389648</ele>
        <time>2020-03-14T15:13:58.000Z</time>
      </trkpt>
      <trkpt lat="45.89513" lon="4.4879">
        <ele>487.39999389648</ele>
        <time>2020-03-14T15:13:59.000Z</time>
      </trkpt>
      <trkpt lat="45.89513" lon="4.48788">
        <ele>487.60000610352</ele>
        <time>2020-03-14T15:14:00.000Z</time>
      </trkpt>
      <trkpt lat="45.89514" lon="4.48787">
        <ele>487.79998779297</ele>
        <time>2020-03-14T15:14:01.000Z</time>
      </trkpt>
      <trkpt lat="45.89513" lon="4.48785">
        <ele>488</ele>
        <time>2020-03-14T15:14:02.000Z</time>
      </trkpt>
      <trkpt lat="45.89513" lon="4.48784">
        <ele>488</ele>
        <time>2020-03-14T15:14:03.000Z</time>
      </trkpt>
      <trkpt lat="45.89513" lon="4.48782">
        <ele>488</ele>
        <time>2020-03-14T15:14:04.000Z</time>
      </trkpt>
      <trkpt lat="45.89513" lon="4.4878">
        <ele>488</ele>
        <time>2020-03-14T15:14:05.000Z</time>
      </trkpt>
      <trkpt lat="45.89513" lon="4.48779">
        <ele>488</ele>
        <time>2020-03-14T15:14:06.000Z</time>
      </trkpt>
      <trkpt lat="45.89512" lon="4.48777">
        <ele>488</ele>
        <time>2020-03-14T15:14:07.000Z</time>
      </trkpt>
      <trkpt lat="45.89512" lon="4.48775">
        <ele>488.20001220703</ele>
        <time>2020-03-14T15:14:08.000Z</time>
      </trkpt>
      <trkpt lat="45.89512" lon="4.48774">
        <ele>488.20001220703</ele>
        <time>2020-03-14T15:14:09.000Z</time>
      </trkpt>
      <trkpt lat="45.89512" lon="4.48772">
        <ele>488.39999389648</ele>
        <time>2020-03-14T15:14:10.000Z</time>
      </trkpt>
      <trkpt lat="45.89512" lon="4.48771">
        <ele>488.60000610352</ele>
        <time>2020-03-14T15:14:11.000Z</time>
      </trkpt>
      <trkpt lat="45.89512" lon="4.48769">
        <ele>488.79998779297</ele>
        <time>2020-03-14T15:14:12.000Z</time>
      </trkpt>
      <trkpt lat="45.89512" lon="4.48767">
        <ele>489</ele>
        <time>2020-03-14T15:14:13.000Z</time>
      </trkpt>
      <trkpt lat="45.89512" lon="4.48766">
        <ele>489.20001220703</ele>
        <time>2020-03-14T15:14:14.000Z</time>
      </trkpt>
      <trkpt lat="45.89512" lon="4.48764">
        <ele>489.20001220703</ele>
        <time>2020-03-14T15:14:15.000Z</time>
      </trkpt>
      <trkpt lat="45.89512" lon="4.48762">
        <ele>489.39999389648</ele>
        <time>2020-03-14T15:14:16.000Z</time>
      </trkpt>
      <trkpt lat="45.89512" lon="4.4876">
        <ele>489.60000610352</ele>
        <time>2020-03-14T15:14:17.000Z</time>
      </trkpt>
      <trkpt lat="45.89512" lon="4.48759">
        <ele>489.79998779297</ele>
        <time>2020-03-14T15:14:18.000Z</time>
      </trkpt>
      <trkpt lat="45.89511" lon="4.48757">
        <ele>489.79998779297</ele>
        <time>2020-03-14T15:14:19.000Z</time>
      </trkpt>
      <trkpt lat="45.89511" lon="4.48755">
        <ele>489.79998779297</ele>
        <time>2020-03-14T15:14:20.000Z</time>
      </trkpt>
      <trkpt lat="45.89511" lon="4.48754">
        <ele>490</ele>
        <time>2020-03-14T15:14:21.000Z</time>
      </trkpt>
      <trkpt lat="45.8951" lon="4.48752">
        <ele>490.20001220703</ele>
        <time>2020-03-14T15:14:22.000Z</time>
      </trkpt>
      <trkpt lat="45.89509" lon="4.4875">
        <ele>490.39999389648</ele>
        <time>2020-03-14T15:14:23.000Z</time>
      </trkpt>
      <trkpt lat="45.89509" lon="4.48748">
        <ele>490.39999389648</ele>
        <time>2020-03-14T15:14:24.000Z</time>
      </trkpt>
      <trkpt lat="45.89508" lon="4.48746">
        <ele>490.39999389648</ele>
        <time>2020-03-14T15:14:25.000Z</time>
      </trkpt>
      <trkpt lat="45.89508" lon="4.48745">
        <ele>490.60000610352</ele>
        <time>2020-03-14T15:14:26.000Z</time>
      </trkpt>
      <trkpt lat="45.89507" lon="4.48743">
        <ele>490.60000610352</ele>
        <time>2020-03-14T15:14:27.000Z</time>
      </trkpt>
      <trkpt lat="45.89507" lon="4.48741">
        <ele>490.79998779297</ele>
        <time>2020-03-14T15:14:28.000Z</time>
      </trkpt>
      <trkpt lat="45.89507" lon="4.4874">
        <ele>491</ele>
        <time>2020-03-14T15:14:29.000Z</time>
      </trkpt>
      <trkpt lat="45.89506" lon="4.48738">
        <ele>491</ele>
        <time>2020-03-14T15:14:30.000Z</time>
      </trkpt>
      <trkpt lat="45.89506" lon="4.48736">
        <ele>491.20001220703</ele>
        <time>2020-03-14T15:14:31.000Z</time>
      </trkpt>
      <trkpt lat="45.89505" lon="4.48735">
        <ele>491.20001220703</ele>
        <time>2020-03-14T15:14:32.000Z</time>
      </trkpt>
      <trkpt lat="45.89504" lon="4.48734">
        <ele>491.20001220703</ele>
        <time>2020-03-14T15:14:33.000Z</time>
      </trkpt>
      <trkpt lat="45.89504" lon="4.48732">
        <ele>491.20001220703</ele>
        <time>2020-03-14T15:14:34.000Z</time>
      </trkpt>
      <trkpt lat="45.89503" lon="4.4873">
        <ele>491.20001220703</ele>
        <time>2020-03-14T15:14:35.000Z</time>
      </trkpt>
      <trkpt lat="45.89503" lon="4.48728">
        <ele>491.20001220703</ele>
        <time>2020-03-14T15:14:36.000Z</time>
      </trkpt>
      <trkpt lat="45.89503" lon="4.48727">
        <ele>491.20001220703</ele>
        <time>2020-03-14T15:14:37.000Z</time>
      </trkpt>
      <trkpt lat="45.89503" lon="4.48725">
        <ele>491.20001220703</ele>
        <time>2020-03-14T15:14:38.000Z</time>
      </trkpt>
      <trkpt lat="45.89502" lon="4.48724">
        <ele>491.20001220703</ele>
        <time>2020-03-14T15:14:39.000Z</time>
      </trkpt>
      <trkpt lat="45.89502" lon="4.48722">
        <ele>491.39999389648</ele>
        <time>2020-03-14T15:14:40.000Z</time>
      </trkpt>
      <trkpt lat="45.89502" lon="4.4872">
        <ele>491.39999389648</ele>
        <time>2020-03-14T15:14:41.000Z</time>
      </trkpt>
      <trkpt lat="45.89502" lon="4.48719">
        <ele>491.39999389648</ele>
        <time>2020-03-14T15:14:42.000Z</time>
      </trkpt>
      <trkpt lat="45.89502" lon="4.48718">
        <ele>491.39999389648</ele>
        <time>2020-03-14T15:14:43.000Z</time>
      </trkpt>
      <trkpt lat="45.89501" lon="4.48716">
        <ele>491.39999389648</ele>
        <time>2020-03-14T15:14:44.000Z</time>
      </trkpt>
      <trkpt lat="45.89501" lon="4.48714">
        <ele>491.39999389648</ele>
        <time>2020-03-14T15:14:45.000Z</time>
      </trkpt>
      <trkpt lat="45.89501" lon="4.48713">
        <ele>491.60000610352</ele>
        <time>2020-03-14T15:14:46.000Z</time>
      </trkpt>
      <trkpt lat="45.89501" lon="4.48711">
        <ele>491.79998779297</ele>
        <time>2020-03-14T15:14:47.000Z</time>
      </trkpt>
      <trkpt lat="45.89501" lon="4.48709">
        <ele>492</ele>
        <time>2020-03-14T15:14:48.000Z</time>
      </trkpt>
      <trkpt lat="45.89501" lon="4.48707">
        <ele>492.39999389648</ele>
        <time>2020-03-14T15:14:49.000Z</time>
      </trkpt>
      <trkpt lat="45.89501" lon="4.48706">
        <ele>492.60000610352</ele>
        <time>2020-03-14T15:14:50.000Z</time>
      </trkpt>
      <trkpt lat="45.89501" lon="4.48704">
        <ele>492.60000610352</ele>
        <time>2020-03-14T15:14:51.000Z</time>
      </trkpt>
      <trkpt lat="45.895" lon="4.48702">
        <ele>492.79998779297</ele>
        <time>2020-03-14T15:14:52.000Z</time>
      </trkpt>
      <trkpt lat="45.89499" lon="4.487">
        <ele>493</ele>
        <time>2020-03-14T15:14:53.000Z</time>
      </trkpt>
      <trkpt lat="45.89498" lon="4.48699">
        <ele>493.20001220703</ele>
        <time>2020-03-14T15:14:54.000Z</time>
      </trkpt>
      <trkpt lat="45.89498" lon="4.48697">
        <ele>493.39999389648</ele>
        <time>2020-03-14T15:14:55.000Z</time>
      </trkpt>
      <trkpt lat="45.89498" lon="4.48695">
        <ele>493.60000610352</ele>
        <time>2020-03-14T15:14:56.000Z</time>
      </trkpt>
      <trkpt lat="45.89497" lon="4.48693">
        <ele>493.60000610352</ele>
        <time>2020-03-14T15:14:57.000Z</time>
      </trkpt>
      <trkpt lat="45.89496" lon="4.48691">
        <ele>493.60000610352</ele>
        <time>2020-03-14T15:14:58.000Z</time>
      </trkpt>
      <trkpt lat="45.89495" lon="4.48689">
        <ele>493.60000610352</ele>
        <time>2020-03-14T15:14:59.000Z</time>
      </trkpt>
      <trkpt lat="45.89496" lon="4.48687">
        <ele>493.60000610352</ele>
        <time>2020-03-14T15:15:00.000Z</time>
      </trkpt>
      <trkpt lat="45.89496" lon="4.48686">
        <ele>493.60000610352</ele>
        <time>2020-03-14T15:15:01.000Z</time>
      </trkpt>
      <trkpt lat="45.89498" lon="4.48685">
        <ele>493.79998779297</ele>
        <time>2020-03-14T15:15:02.000Z</time>
      </trkpt>
      <trkpt lat="45.89499" lon="4.48684">
        <ele>494</ele>
        <time>2020-03-14T15:15:03.000Z</time>
      </trkpt>
      <trkpt lat="45.895" lon="4.48683">
        <ele>494.20001220703</ele>
        <time>2020-03-14T15:15:04.000Z</time>
      </trkpt>
      <trkpt lat="45.89501" lon="4.48683">
        <ele>494.20001220703</ele>
        <time>2020-03-14T15:15:05.000Z</time>
      </trkpt>
      <trkpt lat="45.89502" lon="4.48682">
        <ele>494.39999389648</ele>
        <time>2020-03-14T15:15:06.000Z</time>
      </trkpt>
      <trkpt lat="45.89503" lon="4.48681">
        <ele>494.60000610352</ele>
        <time>2020-03-14T15:15:07.000Z</time>
      </trkpt>
      <trkpt lat="45.89504" lon="4.4868">
        <ele>494.79998779297</ele>
        <time>2020-03-14T15:15:08.000Z</time>
      </trkpt>
      <trkpt lat="45.89506" lon="4.48679">
        <ele>495</ele>
        <time>2020-03-14T15:15:09.000Z</time>
      </trkpt>
      <trkpt lat="45.89507" lon="4.48679">
        <ele>495.39999389648</ele>
        <time>2020-03-14T15:15:10.000Z</time>
      </trkpt>
      <trkpt lat="45.89508" lon="4.48678">
        <ele>495.60000610352</ele>
        <time>2020-03-14T15:15:11.000Z</time>
      </trkpt>
      <trkpt lat="45.89509" lon="4.48678">
        <ele>495.79998779297</ele>
        <time>2020-03-14T15:15:12.000Z</time>
      </trkpt>
      <trkpt lat="45.8951" lon="4.48677">
        <ele>496</ele>
        <time>2020-03-14T15:15:13.000Z</time>
      </trkpt>
      <trkpt lat="45.89512" lon="4.48676">
        <ele>496.20001220703</ele>
        <time>2020-03-14T15:15:14.000Z</time>
      </trkpt>
      <trkpt lat="45.89513" lon="4.48674">
        <ele>496.20001220703</ele>
        <time>2020-03-14T15:15:15.000Z</time>
      </trkpt>
      <trkpt lat="45.89514" lon="4.48673">
        <ele>496.39999389648</ele>
        <time>2020-03-14T15:15:16.000Z</time>
      </trkpt>
      <trkpt lat="45.89515" lon="4.48672">
        <ele>496.60000610352</ele>
        <time>2020-03-14T15:15:17.000Z</time>
      </trkpt>
      <trkpt lat="45.89516" lon="4.48671">
        <ele>496.79998779297</ele>
        <time>2020-03-14T15:15:18.000Z</time>
      </trkpt>
      <trkpt lat="45.89517" lon="4.48669">
        <ele>496.79998779297</ele>
        <time>2020-03-14T15:15:19.000Z</time>
      </trkpt>
      <trkpt lat="45.89518" lon="4.48668">
        <ele>496.79998779297</ele>
        <time>2020-03-14T15:15:20.000Z</time>
      </trkpt>
      <trkpt lat="45.89519" lon="4.48667">
        <ele>496.79998779297</ele>
        <time>2020-03-14T15:15:21.000Z</time>
      </trkpt>
      <trkpt lat="45.8952" lon="4.48666">
        <ele>497</ele>
        <time>2020-03-14T15:15:22.000Z</time>
      </trkpt>
      <trkpt lat="45.89521" lon="4.48665">
        <ele>497.20001220703</ele>
        <time>2020-03-14T15:15:23.000Z</time>
      </trkpt>
      <trkpt lat="45.89522" lon="4.48664">
        <ele>497.39999389648</ele>
        <time>2020-03-14T15:15:24.000Z</time>
      </trkpt>
      <trkpt lat="45.89523" lon="4.48663">
        <ele>497.60000610352</ele>
        <time>2020-03-14T15:15:25.000Z</time>
      </trkpt>
      <trkpt lat="45.89524" lon="4.48661">
        <ele>497.79998779297</ele>
        <time>2020-03-14T15:15:26.000Z</time>
      </trkpt>
      <trkpt lat="45.89525" lon="4.48659">
        <ele>498</ele>
        <time>2020-03-14T15:15:27.000Z</time>
      </trkpt>
      <trkpt lat="45.89526" lon="4.48657">
        <ele>498.39999389648</ele>
        <time>2020-03-14T15:15:28.000Z</time>
      </trkpt>
      <trkpt lat="45.89527" lon="4.48656">
        <ele>498.60000610352</ele>
        <time>2020-03-14T15:15:29.000Z</time>
      </trkpt>
      <trkpt lat="45.89528" lon="4.48655">
        <ele>498.79998779297</ele>
        <time>2020-03-14T15:15:30.000Z</time>
      </trkpt>
      <trkpt lat="45.89529" lon="4.48653">
        <ele>499</ele>
        <time>2020-03-14T15:15:31.000Z</time>
      </trkpt>
      <trkpt lat="45.8953" lon="4.48652">
        <ele>499.20001220703</ele>
        <time>2020-03-14T15:15:32.000Z</time>
      </trkpt>
      <trkpt lat="45.89531" lon="4.48651">
        <ele>499.39999389648</ele>
        <time>2020-03-14T15:15:33.000Z</time>
      </trkpt>
      <trkpt lat="45.89531" lon="4.48649">
        <ele>499.60000610352</ele>
        <time>2020-03-14T15:15:34.000Z</time>
      </trkpt>
      <trkpt lat="45.89532" lon="4.48648">
        <ele>499.60000610352</ele>
        <time>2020-03-14T15:15:35.000Z</time>
      </trkpt>
      <trkpt lat="45.89533" lon="4.48646">
        <ele>499.79998779297</ele>
        <time>2020-03-14T15:15:36.000Z</time>
      </trkpt>
      <trkpt lat="45.89533" lon="4.48644">
        <ele>500</ele>
        <time>2020-03-14T15:15:37.000Z</time>
      </trkpt>
      <trkpt lat="45.89534" lon="4.48643">
        <ele>500.20001220703</ele>
        <time>2020-03-14T15:15:38.000Z</time>
      </trkpt>
      <trkpt lat="45.89535" lon="4.48641">
        <ele>500.39999389648</ele>
        <time>2020-03-14T15:15:39.000Z</time>
      </trkpt>
      <trkpt lat="45.89536" lon="4.48639">
        <ele>500.60000610352</ele>
        <time>2020-03-14T15:15:40.000Z</time>
      </trkpt>
      <trkpt lat="45.89536" lon="4.48638">
        <ele>500.79998779297</ele>
        <time>2020-03-14T15:15:41.000Z</time>
      </trkpt>
      <trkpt lat="45.89537" lon="4.48636">
        <ele>501</ele>
        <time>2020-03-14T15:15:42.000Z</time>
      </trkpt>
      <trkpt lat="45.89538" lon="4.48635">
        <ele>501.20001220703</ele>
        <time>2020-03-14T15:15:43.000Z</time>
      </trkpt>
      <trkpt lat="45.89539" lon="4.48633">
        <ele>501.39999389648</ele>
        <time>2020-03-14T15:15:44.000Z</time>
      </trkpt>
      <trkpt lat="45.89539" lon="4.48632">
        <ele>501.60000610352</ele>
        <time>2020-03-14T15:15:45.000Z</time>
      </trkpt>
      <trkpt lat="45.8954" lon="4.4863">
        <ele>501.79998779297</ele>
        <time>2020-03-14T15:15:46.000Z</time>
      </trkpt>
      <trkpt lat="45.89541" lon="4.48629">
        <ele>502</ele>
        <time>2020-03-14T15:15:47.000Z</time>
      </trkpt>
      <trkpt lat="45.89542" lon="4.48627">
        <ele>502.39999389648</ele>
        <time>2020-03-14T15:15:48.000Z</time>
      </trkpt>
      <trkpt lat="45.89542" lon="4.48625">
        <ele>502.39999389648</ele>
        <time>2020-03-14T15:15:49.000Z</time>
      </trkpt>
      <trkpt lat="45.89543" lon="4.48624">
        <ele>502.60000610352</ele>
        <time>2020-03-14T15:15:50.000Z</time>
      </trkpt>
      <trkpt lat="45.89543" lon="4.48622">
        <ele>502.79998779297</ele>
        <time>2020-03-14T15:15:51.000Z</time>
      </trkpt>
      <trkpt lat="45.89544" lon="4.4862">
        <ele>502.79998779297</ele>
        <time>2020-03-14T15:15:52.000Z</time>
      </trkpt>
      <trkpt lat="45.89544" lon="4.48618">
        <ele>503</ele>
        <time>2020-03-14T15:15:53.000Z</time>
      </trkpt>
      <trkpt lat="45.89545" lon="4.48617">
        <ele>503</ele>
        <time>2020-03-14T15:15:54.000Z</time>
      </trkpt>
      <trkpt lat="45.89546" lon="4.48615">
        <ele>503.20001220703</ele>
        <time>2020-03-14T15:15:55.000Z</time>
      </trkpt>
      <trkpt lat="45.89546" lon="4.48613">
        <ele>503.20001220703</ele>
        <time>2020-03-14T15:15:56.000Z</time>
      </trkpt>
      <trkpt lat="45.89547" lon="4.48611">
        <ele>503.39999389648</ele>
        <time>2020-03-14T15:15:57.000Z</time>
      </trkpt>
      <trkpt lat="45.89547" lon="4.4861">
        <ele>503.39999389648</ele>
        <time>2020-03-14T15:15:58.000Z</time>
      </trkpt>
      <trkpt lat="45.89548" lon="4.48608">
        <ele>503.60000610352</ele>
        <time>2020-03-14T15:15:59.000Z</time>
      </trkpt>
      <trkpt lat="45.89548" lon="4.48606">
        <ele>503.79998779297</ele>
        <time>2020-03-14T15:16:00.000Z</time>
      </trkpt>
      <trkpt lat="45.89549" lon="4.48605">
        <ele>503.79998779297</ele>
        <time>2020-03-14T15:16:01.000Z</time>
      </trkpt>
      <trkpt lat="45.89549" lon="4.48603">
        <ele>504</ele>
        <time>2020-03-14T15:16:02.000Z</time>
      </trkpt>
      <trkpt lat="45.8955" lon="4.48601">
        <ele>504</ele>
        <time>2020-03-14T15:16:03.000Z</time>
      </trkpt>
      <trkpt lat="45.89551" lon="4.48599">
        <ele>504.20001220703</ele>
        <time>2020-03-14T15:16:04.000Z</time>
      </trkpt>
      <trkpt lat="45.89551" lon="4.48597">
        <ele>504.20001220703</ele>
        <time>2020-03-14T15:16:05.000Z</time>
      </trkpt>
      <trkpt lat="45.89552" lon="4.48595">
        <ele>504.20001220703</ele>
        <time>2020-03-14T15:16:06.000Z</time>
      </trkpt>
      <trkpt lat="45.89552" lon="4.48593">
        <ele>504.39999389648</ele>
        <time>2020-03-14T15:16:07.000Z</time>
      </trkpt>
      <trkpt lat="45.89552" lon="4.48591">
        <ele>504.39999389648</ele>
        <time>2020-03-14T15:16:08.000Z</time>
      </trkpt>
      <trkpt lat="45.89553" lon="4.48589">
        <ele>504.60000610352</ele>
        <time>2020-03-14T15:16:09.000Z</time>
      </trkpt>
      <trkpt lat="45.89553" lon="4.48587">
        <ele>504.60000610352</ele>
        <time>2020-03-14T15:16:10.000Z</time>
      </trkpt>
      <trkpt lat="45.89554" lon="4.48585">
        <ele>504.60000610352</ele>
        <time>2020-03-14T15:16:11.000Z</time>
      </trkpt>
      <trkpt lat="45.89554" lon="4.48583">
        <ele>504.79998779297</ele>
        <time>2020-03-14T15:16:12.000Z</time>
      </trkpt>
      <trkpt lat="45.89554" lon="4.48581">
        <ele>505</ele>
        <time>2020-03-14T15:16:13.000Z</time>
      </trkpt>
      <trkpt lat="45.89555" lon="4.48579">
        <ele>505.20001220703</ele>
        <time>2020-03-14T15:16:14.000Z</time>
      </trkpt>
      <trkpt lat="45.89556" lon="4.48577">
        <ele>505.39999389648</ele>
        <time>2020-03-14T15:16:15.000Z</time>
      </trkpt>
      <trkpt lat="45.89557" lon="4.48576">
        <ele>505.60000610352</ele>
        <time>2020-03-14T15:16:16.000Z</time>
      </trkpt>
      <trkpt lat="45.89558" lon="4.48575">
        <ele>506</ele>
        <time>2020-03-14T15:16:17.000Z</time>
      </trkpt>
      <trkpt lat="45.89559" lon="4.48576">
        <ele>506.39999389648</ele>
        <time>2020-03-14T15:16:18.000Z</time>
      </trkpt>
      <trkpt lat="45.89559" lon="4.48577">
        <ele>506.39999389648</ele>
        <time>2020-03-14T15:16:19.000Z</time>
      </trkpt>
      <trkpt lat="45.89558" lon="4.48577">
        <ele>506.39999389648</ele>
        <time>2020-03-14T15:16:20.000Z</time>
      </trkpt>
      <trkpt lat="45.89558" lon="4.48576">
        <ele>506.39999389648</ele>
        <time>2020-03-14T15:16:21.000Z</time>
      </trkpt>
      <trkpt lat="45.89558" lon="4.48576">
        <ele>506.60000610352</ele>
        <time>2020-03-14T15:16:22.000Z</time>
      </trkpt>
      <trkpt lat="45.89558" lon="4.48575">
        <ele>506.60000610352</ele>
        <time>2020-03-14T15:16:23.000Z</time>
      </trkpt>
      <trkpt lat="45.89558" lon="4.48576">
        <ele>506.79998779297</ele>
        <time>2020-03-14T15:16:24.000Z</time>
      </trkpt>
      <trkpt lat="45.89557" lon="4.48575">
        <ele>506.79998779297</ele>
        <time>2020-03-14T15:16:25.000Z</time>
      </trkpt>
      <trkpt lat="45.89556" lon="4.48575">
        <ele>507</ele>
        <time>2020-03-14T15:16:26.000Z</time>
      </trkpt>
      <trkpt lat="45.89556" lon="4.48575">
        <ele>507</ele>
        <time>2020-03-14T15:16:27.000Z</time>
      </trkpt>
      <trkpt lat="45.89556" lon="4.48575">
        <ele>507</ele>
        <time>2020-03-14T15:16:28.000Z</time>
      </trkpt>
      <trkpt lat="45.89557" lon="4.48575">
        <ele>506.79998779297</ele>
        <time>2020-03-14T15:16:29.000Z</time>
      </trkpt>
      <trkpt lat="45.89558" lon="4.48576">
        <ele>506.60000610352</ele>
        <time>2020-03-14T15:16:30.000Z</time>
      </trkpt>
      <trkpt lat="45.89558" lon="4.48576">
        <ele>506.60000610352</ele>
        <time>2020-03-14T15:16:31.000Z</time>
      </trkpt>
      <trkpt lat="45.89558" lon="4.48576">
        <ele>506.79998779297</ele>
        <time>2020-03-14T15:16:32.000Z</time>
      </trkpt>
      <trkpt lat="45.89558" lon="4.48576">
        <ele>506.60000610352</ele>
        <time>2020-03-14T15:16:33.000Z</time>
      </trkpt>
      <trkpt lat="45.89558" lon="4.48576">
        <ele>506.60000610352</ele>
        <time>2020-03-14T15:16:34.000Z</time>
      </trkpt>
      <trkpt lat="45.89558" lon="4.48576">
        <ele>506.79998779297</ele>
        <time>2020-03-14T15:16:35.000Z</time>
      </trkpt>
      <trkpt lat="45.89558" lon="4.48577">
        <ele>507</ele>
        <time>2020-03-14T15:16:36.000Z</time>
      </trkpt>
      <trkpt lat="45.89558" lon="4.48577">
        <ele>507.20001220703</ele>
        <time>2020-03-14T15:16:37.000Z</time>
      </trkpt>
      <trkpt lat="45.89559" lon="4.48578">
        <ele>507.20001220703</ele>
        <time>2020-03-14T15:16:38.000Z</time>
      </trkpt>
      <trkpt lat="45.89559" lon="4.48579">
        <ele>507.39999389648</ele>
        <time>2020-03-14T15:16:39.000Z</time>
      </trkpt>
      <trkpt lat="45.8956" lon="4.4858">
        <ele>507.39999389648</ele>
        <time>2020-03-14T15:16:40.000Z</time>
      </trkpt>
      <trkpt lat="45.89561" lon="4.48581">
        <ele>507.39999389648</ele>
        <time>2020-03-14T15:16:41.000Z</time>
      </trkpt>
      <trkpt lat="45.89561" lon="4.48581">
        <ele>507.39999389648</ele>
        <time>2020-03-14T15:16:42.000Z</time>
      </trkpt>
      <trkpt lat="45.89561" lon="4.48581">
        <ele>507.39999389648</ele>
        <time>2020-03-14T15:16:43.000Z</time>
      </trkpt>
      <trkpt lat="45.89561" lon="4.48581">
        <ele>507.39999389648</ele>
        <time>2020-03-14T15:16:44.000Z</time>
      </trkpt>
      <trkpt lat="45.8956" lon="4.48581">
        <ele>507.39999389648</ele>
        <time>2020-03-14T15:16:45.000Z</time>
      </trkpt>
      <trkpt lat="45.8956" lon="4.48581">
        <ele>507.39999389648</ele>
        <time>2020-03-14T15:16:46.000Z</time>
      </trkpt>
      <trkpt lat="45.8956" lon="4.4858">
        <ele>507.39999389648</ele>
        <time>2020-03-14T15:16:47.000Z</time>
      </trkpt>
      <trkpt lat="45.8956" lon="4.4858">
        <ele>507.39999389648</ele>
        <time>2020-03-14T15:16:48.000Z</time>
      </trkpt>
      <trkpt lat="45.8956" lon="4.4858">
        <ele>507.39999389648</ele>
        <time>2020-03-14T15:16:49.000Z</time>
      </trkpt>
      <trkpt lat="45.8956" lon="4.48581">
        <ele>507.60000610352</ele>
        <time>2020-03-14T15:16:50.000Z</time>
      </trkpt>
      <trkpt lat="45.89561" lon="4.48581">
        <ele>507.79998779297</ele>
        <time>2020-03-14T15:16:51.000Z</time>
      </trkpt>
      <trkpt lat="45.89561" lon="4.48581">
        <ele>507.79998779297</ele>
        <time>2020-03-14T15:16:52.000Z</time>
      </trkpt>
      <trkpt lat="45.89561" lon="4.48581">
        <ele>507.79998779297</ele>
        <time>2020-03-14T15:16:53.000Z</time>
      </trkpt>
      <trkpt lat="45.89561" lon="4.48581">
        <ele>507.79998779297</ele>
        <time>2020-03-14T15:16:54.000Z</time>
      </trkpt>
      <trkpt lat="45.89561" lon="4.48581">
        <ele>507.79998779297</ele>
        <time>2020-03-14T15:16:55.000Z</time>
      </trkpt>
      <trkpt lat="45.89561" lon="4.48581">
        <ele>507.60000610352</ele>
        <time>2020-03-14T15:16:56.000Z</time>
      </trkpt>
      <trkpt lat="45.89562" lon="4.48581">
        <ele>507.60000610352</ele>
        <time>2020-03-14T15:16:57.000Z</time>
      </trkpt>
      <trkpt lat="45.89562" lon="4.48581">
        <ele>507.60000610352</ele>
        <time>2020-03-14T15:16:58.000Z</time>
      </trkpt>
      <trkpt lat="45.89562" lon="4.48581">
        <ele>507.39999389648</ele>
        <time>2020-03-14T15:16:59.000Z</time>
      </trkpt>
      <trkpt lat="45.89562" lon="4.48581">
        <ele>507.39999389648</ele>
        <time>2020-03-14T15:17:00.000Z</time>
      </trkpt>
      <trkpt lat="45.89562" lon="4.48581">
        <ele>507.20001220703</ele>
        <time>2020-03-14T15:17:01.000Z</time>
      </trkpt>
      <trkpt lat="45.89562" lon="4.48581">
        <ele>507</ele>
        <time>2020-03-14T15:17:02.000Z</time>
      </trkpt>
      <trkpt lat="45.89562" lon="4.48581">
        <ele>507</ele>
        <time>2020-03-14T15:17:03.000Z</time>
      </trkpt>
      <trkpt lat="45.89562" lon="4.48581">
        <ele>507</ele>
        <time>2020-03-14T15:17:04.000Z</time>
      </trkpt>
      <trkpt lat="45.89562" lon="4.48581">
        <ele>507</ele>
        <time>2020-03-14T15:17:05.000Z</time>
      </trkpt>
      <trkpt lat="45.89562" lon="4.48581">
        <ele>507.20001220703</ele>
        <time>2020-03-14T15:17:06.000Z</time>
      </trkpt>
      <trkpt lat="45.89562" lon="4.48581">
        <ele>507.20001220703</ele>
        <time>2020-03-14T15:17:07.000Z</time>
      </trkpt>
      <trkpt lat="45.89562" lon="4.48581">
        <ele>507.39999389648</ele>
        <time>2020-03-14T15:17:08.000Z</time>
      </trkpt>
      <trkpt lat="45.89562" lon="4.48581">
        <ele>507.39999389648</ele>
        <time>2020-03-14T15:17:09.000Z</time>
      </trkpt>
      <trkpt lat="45.89562" lon="4.48581">
        <ele>507.39999389648</ele>
        <time>2020-03-14T15:17:10.000Z</time>
      </trkpt>
      <trkpt lat="45.89562" lon="4.48581">
        <ele>507.60000610352</ele>
        <time>2020-03-14T15:17:11.000Z</time>
      </trkpt>
      <trkpt lat="45.89562" lon="4.4858">
        <ele>507.60000610352</ele>
        <time>2020-03-14T15:17:12.000Z</time>
      </trkpt>
      <trkpt lat="45.89562" lon="4.4858">
        <ele>507.79998779297</ele>
        <time>2020-03-14T15:17:13.000Z</time>
      </trkpt>
      <trkpt lat="45.89562" lon="4.4858">
        <ele>507.79998779297</ele>
        <time>2020-03-14T15:17:14.000Z</time>
      </trkpt>
      <trkpt lat="45.89562" lon="4.4858">
        <ele>507.79998779297</ele>
        <time>2020-03-14T15:17:15.000Z</time>
      </trkpt>
      <trkpt lat="45.89562" lon="4.48581">
        <ele>507.79998779297</ele>
        <time>2020-03-14T15:17:16.000Z</time>
      </trkpt>
      <trkpt lat="45.89562" lon="4.48581">
        <ele>507.79998779297</ele>
        <time>2020-03-14T15:17:17.000Z</time>
      </trkpt>
      <trkpt lat="45.89562" lon="4.48581">
        <ele>507.79998779297</ele>
        <time>2020-03-14T15:17:18.000Z</time>
      </trkpt>
      <trkpt lat="45.89562" lon="4.48581">
        <ele>507.79998779297</ele>
        <time>2020-03-14T15:17:19.000Z</time>
      </trkpt>
      <trkpt lat="45.89562" lon="4.48581">
        <ele>507.79998779297</ele>
        <time>2020-03-14T15:17:20.000Z</time>
      </trkpt>
      <trkpt lat="45.89562" lon="4.48581">
        <ele>508</ele>
        <time>2020-03-14T15:17:21.000Z</time>
      </trkpt>
      <trkpt lat="45.89562" lon="4.48581">
        <ele>508</ele>
        <time>2020-03-14T15:17:22.000Z</time>
      </trkpt>
      <trkpt lat="45.89562" lon="4.48581">
        <ele>508</ele>
        <time>2020-03-14T15:17:23.000Z</time>
      </trkpt>
      <trkpt lat="45.89562" lon="4.48581">
        <ele>508</ele>
        <time>2020-03-14T15:17:24.000Z</time>
      </trkpt>
      <trkpt lat="45.89562" lon="4.48581">
        <ele>508</ele>
        <time>2020-03-14T15:17:25.000Z</time>
      </trkpt>
      <trkpt lat="45.89563" lon="4.48581">
        <ele>508</ele>
        <time>2020-03-14T15:17:26.000Z</time>
      </trkpt>
      <trkpt lat="45.89563" lon="4.48581">
        <ele>508</ele>
        <time>2020-03-14T15:17:27.000Z</time>
      </trkpt>
      <trkpt lat="45.89563" lon="4.48581">
        <ele>508</ele>
        <time>2020-03-14T15:17:28.000Z</time>
      </trkpt>
      <trkpt lat="45.89563" lon="4.48581">
        <ele>508</ele>
        <time>2020-03-14T15:17:29.000Z</time>
      </trkpt>
      <trkpt lat="45.89563" lon="4.48581">
        <ele>508.20001220703</ele>
        <time>2020-03-14T15:17:30.000Z</time>
      </trkpt>
      <trkpt lat="45.89563" lon="4.48581">
        <ele>508.20001220703</ele>
        <time>2020-03-14T15:17:31.000Z</time>
      </trkpt>
      <trkpt lat="45.89563" lon="4.48581">
        <ele>508.20001220703</ele>
        <time>2020-03-14T15:17:32.000Z</time>
      </trkpt>
      <trkpt lat="45.89563" lon="4.48581">
        <ele>508.39999389648</ele>
        <time>2020-03-14T15:17:33.000Z</time>
      </trkpt>
      <trkpt lat="45.89563" lon="4.48581">
        <ele>508.39999389648</ele>
        <time>2020-03-14T15:17:34.000Z</time>
      </trkpt>
      <trkpt lat="45.89563" lon="4.48581">
        <ele>508.60000610352</ele>
        <time>2020-03-14T15:17:35.000Z</time>
      </trkpt>
      <trkpt lat="45.89563" lon="4.48581">
        <ele>508.79998779297</ele>
        <time>2020-03-14T15:17:36.000Z</time>
      </trkpt>
      <trkpt lat="45.89563" lon="4.48581">
        <ele>508.79998779297</ele>
        <time>2020-03-14T15:17:37.000Z</time>
      </trkpt>
      <trkpt lat="45.89563" lon="4.48581">
        <ele>509</ele>
        <time>2020-03-14T15:17:38.000Z</time>
      </trkpt>
      <trkpt lat="45.89562" lon="4.48581">
        <ele>509</ele>
        <time>2020-03-14T15:17:39.000Z</time>
      </trkpt>
      <trkpt lat="45.89561" lon="4.4858">
        <ele>509</ele>
        <time>2020-03-14T15:17:40.000Z</time>
      </trkpt>
      <trkpt lat="45.8956" lon="4.4858">
        <ele>509</ele>
        <time>2020-03-14T15:17:41.000Z</time>
      </trkpt>
      <trkpt lat="45.89559" lon="4.48579">
        <ele>509</ele>
        <time>2020-03-14T15:17:42.000Z</time>
      </trkpt>
      <trkpt lat="45.8956" lon="4.48579">
        <ele>509</ele>
        <time>2020-03-14T15:17:43.000Z</time>
      </trkpt>
      <trkpt lat="45.8956" lon="4.48578">
        <ele>509</ele>
        <time>2020-03-14T15:17:44.000Z</time>
      </trkpt>
      <trkpt lat="45.8956" lon="4.48578">
        <ele>508.79998779297</ele>
        <time>2020-03-14T15:17:45.000Z</time>
      </trkpt>
      <trkpt lat="45.89559" lon="4.48578">
        <ele>508.79998779297</ele>
        <time>2020-03-14T15:17:46.000Z</time>
      </trkpt>
      <trkpt lat="45.8956" lon="4.48578">
        <ele>508.79998779297</ele>
        <time>2020-03-14T15:17:47.000Z</time>
      </trkpt>
      <trkpt lat="45.8956" lon="4.48578">
        <ele>508.79998779297</ele>
        <time>2020-03-14T15:17:48.000Z</time>
      </trkpt>
      <trkpt lat="45.8956" lon="4.48577">
        <ele>508.79998779297</ele>
        <time>2020-03-14T15:17:49.000Z</time>
      </trkpt>
      <trkpt lat="45.8956" lon="4.48577">
        <ele>508.60000610352</ele>
        <time>2020-03-14T15:17:50.000Z</time>
      </trkpt>
      <trkpt lat="45.8956" lon="4.48578">
        <ele>508.60000610352</ele>
        <time>2020-03-14T15:17:51.000Z</time>
      </trkpt>
      <trkpt lat="45.8956" lon="4.48578">
        <ele>508.60000610352</ele>
        <time>2020-03-14T15:17:52.000Z</time>
      </trkpt>
      <trkpt lat="45.8956" lon="4.48578">
        <ele>508.39999389648</ele>
        <time>2020-03-14T15:17:53.000Z</time>
      </trkpt>
      <trkpt lat="45.89559" lon="4.48578">
        <ele>508.39999389648</ele>
        <time>2020-03-14T15:17:54.000Z</time>
      </trkpt>
      <trkpt lat="45.89559" lon="4.48578">
        <ele>508.20001220703</ele>
        <time>2020-03-14T15:17:55.000Z</time>
      </trkpt>
      <trkpt lat="45.89558" lon="4.48578">
        <ele>508</ele>
        <time>2020-03-14T15:17:56.000Z</time>
      </trkpt>
      <trkpt lat="45.89558" lon="4.48578">
        <ele>507.79998779297</ele>
        <time>2020-03-14T15:17:57.000Z</time>
      </trkpt>
      <trkpt lat="45.89558" lon="4.48578">
        <ele>507.79998779297</ele>
        <time>2020-03-14T15:17:58.000Z</time>
      </trkpt>
      <trkpt lat="45.89558" lon="4.48578">
        <ele>507.60000610352</ele>
        <time>2020-03-14T15:17:59.000Z</time>
      </trkpt>
      <trkpt lat="45.89558" lon="4.48578">
        <ele>507.60000610352</ele>
        <time>2020-03-14T15:18:00.000Z</time>
      </trkpt>
      <trkpt lat="45.89558" lon="4.48578">
        <ele>507.79998779297</ele>
        <time>2020-03-14T15:18:01.000Z</time>
      </trkpt>
      <trkpt lat="45.89558" lon="4.48578">
        <ele>507.79998779297</ele>
        <time>2020-03-14T15:18:02.000Z</time>
      </trkpt>
      <trkpt lat="45.89558" lon="4.48578">
        <ele>507.79998779297</ele>
        <time>2020-03-14T15:18:03.000Z</time>
      </trkpt>
      <trkpt lat="45.89558" lon="4.48578">
        <ele>508</ele>
        <time>2020-03-14T15:18:04.000Z</time>
      </trkpt>
      <trkpt lat="45.89558" lon="4.48578">
        <ele>508</ele>
        <time>2020-03-14T15:18:05.000Z</time>
      </trkpt>
      <trkpt lat="45.89558" lon="4.48578">
        <ele>508.20001220703</ele>
        <time>2020-03-14T15:18:06.000Z</time>
      </trkpt>
      <trkpt lat="45.89558" lon="4.48578">
        <ele>508.39999389648</ele>
        <time>2020-03-14T15:18:07.000Z</time>
      </trkpt>
      <trkpt lat="45.89559" lon="4.48577">
        <ele>508.60000610352</ele>
        <time>2020-03-14T15:18:08.000Z</time>
      </trkpt>
      <trkpt lat="45.8956" lon="4.48577">
        <ele>508.79998779297</ele>
        <time>2020-03-14T15:18:09.000Z</time>
      </trkpt>
      <trkpt lat="45.8956" lon="4.48577">
        <ele>508.79998779297</ele>
        <time>2020-03-14T15:18:10.000Z</time>
      </trkpt>
      <trkpt lat="45.89561" lon="4.48576">
        <ele>508.79998779297</ele>
        <time>2020-03-14T15:18:11.000Z</time>
      </trkpt>
      <trkpt lat="45.89561" lon="4.48575">
        <ele>508.79998779297</ele>
        <time>2020-03-14T15:18:12.000Z</time>
      </trkpt>
      <trkpt lat="45.89561" lon="4.48574">
        <ele>508.60000610352</ele>
        <time>2020-03-14T15:18:13.000Z</time>
      </trkpt>
      <trkpt lat="45.89561" lon="4.48574">
        <ele>508.39999389648</ele>
        <time>2020-03-14T15:18:14.000Z</time>
      </trkpt>
      <trkpt lat="45.89561" lon="4.48573">
        <ele>508.20001220703</ele>
        <time>2020-03-14T15:18:15.000Z</time>
      </trkpt>
      <trkpt lat="45.89561" lon="4.48571">
        <ele>508</ele>
        <time>2020-03-14T15:18:16.000Z</time>
      </trkpt>
      <trkpt lat="45.89562" lon="4.48568">
        <ele>508</ele>
        <time>2020-03-14T15:18:17.000Z</time>
      </trkpt>
      <trkpt lat="45.89563" lon="4.48565">
        <ele>507.79998779297</ele>
        <time>2020-03-14T15:18:18.000Z</time>
      </trkpt>
      <trkpt lat="45.89564" lon="4.48562">
        <ele>507.79998779297</ele>
        <time>2020-03-14T15:18:19.000Z</time>
      </trkpt>
      <trkpt lat="45.89565" lon="4.48559">
        <ele>507.60000610352</ele>
        <time>2020-03-14T15:18:20.000Z</time>
      </trkpt>
      <trkpt lat="45.89565" lon="4.48554">
        <ele>507.60000610352</ele>
        <time>2020-03-14T15:18:21.000Z</time>
      </trkpt>
      <trkpt lat="45.89567" lon="4.4855">
        <ele>507.20001220703</ele>
        <time>2020-03-14T15:18:22.000Z</time>
      </trkpt>
      <trkpt lat="45.89567" lon="4.48545">
        <ele>507</ele>
        <time>2020-03-14T15:18:23.000Z</time>
      </trkpt>
      <trkpt lat="45.89568" lon="4.4854">
        <ele>506.79998779297</ele>
        <time>2020-03-14T15:18:24.000Z</time>
      </trkpt>
      <trkpt lat="45.89569" lon="4.48534">
        <ele>506.60000610352</ele>
        <time>2020-03-14T15:18:25.000Z</time>
      </trkpt>
      <trkpt lat="45.8957" lon="4.48528">
        <ele>506.60000610352</ele>
        <time>2020-03-14T15:18:26.000Z</time>
      </trkpt>
      <trkpt lat="45.89571" lon="4.48523">
        <ele>506.79998779297</ele>
        <time>2020-03-14T15:18:27.000Z</time>
      </trkpt>
      <trkpt lat="45.89571" lon="4.48517">
        <ele>506.79998779297</ele>
        <time>2020-03-14T15:18:28.000Z</time>
      </trkpt>
      <trkpt lat="45.89571" lon="4.48511">
        <ele>506.79998779297</ele>
        <time>2020-03-14T15:18:29.000Z</time>
      </trkpt>
      <trkpt lat="45.8957" lon="4.48505">
        <ele>506.60000610352</ele>
        <time>2020-03-14T15:18:30.000Z</time>
      </trkpt>
      <trkpt lat="45.8957" lon="4.48498">
        <ele>506.20001220703</ele>
        <time>2020-03-14T15:18:31.000Z</time>
      </trkpt>
      <trkpt lat="45.89568" lon="4.48491">
        <ele>506</ele>
        <time>2020-03-14T15:18:32.000Z</time>
      </trkpt>
      <trkpt lat="45.89567" lon="4.48483">
        <ele>506</ele>
        <time>2020-03-14T15:18:33.000Z</time>
      </trkpt>
      <trkpt lat="45.89565" lon="4.48475">
        <ele>505.79998779297</ele>
        <time>2020-03-14T15:18:34.000Z</time>
      </trkpt>
      <trkpt lat="45.89564" lon="4.48468">
        <ele>505.60000610352</ele>
        <time>2020-03-14T15:18:35.000Z</time>
      </trkpt>
      <trkpt lat="45.89562" lon="4.4846">
        <ele>505.39999389648</ele>
        <time>2020-03-14T15:18:36.000Z</time>
      </trkpt>
      <trkpt lat="45.89561" lon="4.48453">
        <ele>505.39999389648</ele>
        <time>2020-03-14T15:18:37.000Z</time>
      </trkpt>
      <trkpt lat="45.8956" lon="4.48445">
        <ele>505.39999389648</ele>
        <time>2020-03-14T15:18:38.000Z</time>
      </trkpt>
      <trkpt lat="45.89558" lon="4.48437">
        <ele>505.20001220703</ele>
        <time>2020-03-14T15:18:39.000Z</time>
      </trkpt>
      <trkpt lat="45.89557" lon="4.48429">
        <ele>504.79998779297</ele>
        <time>2020-03-14T15:18:40.000Z</time>
      </trkpt>
      <trkpt lat="45.89556" lon="4.48421">
        <ele>504.39999389648</ele>
        <time>2020-03-14T15:18:41.000Z</time>
      </trkpt>
      <trkpt lat="45.89555" lon="4.48414">
        <ele>504</ele>
        <time>2020-03-14T15:18:42.000Z</time>
      </trkpt>
      <trkpt lat="45.89554" lon="4.48406">
        <ele>503.60000610352</ele>
        <time>2020-03-14T15:18:43.000Z</time>
      </trkpt>
      <trkpt lat="45.89553" lon="4.48398">
        <ele>503.20001220703</ele>
        <time>2020-03-14T15:18:44.000Z</time>
      </trkpt>
      <trkpt lat="45.89552" lon="4.4839">
        <ele>502.79998779297</ele>
        <time>2020-03-14T15:18:45.000Z</time>
      </trkpt>
      <trkpt lat="45.89551" lon="4.48383">
        <ele>502.39999389648</ele>
        <time>2020-03-14T15:18:46.000Z</time>
      </trkpt>
      <trkpt lat="45.89551" lon="4.48375">
        <ele>502</ele>
        <time>2020-03-14T15:18:47.000Z</time>
      </trkpt>
      <trkpt lat="45.8955" lon="4.48368">
        <ele>501.79998779297</ele>
        <time>2020-03-14T15:18:48.000Z</time>
      </trkpt>
      <trkpt lat="45.8955" lon="4.48361">
        <ele>501.79998779297</ele>
        <time>2020-03-14T15:18:49.000Z</time>
      </trkpt>
      <trkpt lat="45.89551" lon="4.48354">
        <ele>501.39999389648</ele>
        <time>2020-03-14T15:18:50.000Z</time>
      </trkpt>
      <trkpt lat="45.89551" lon="4.48347">
        <ele>501.20001220703</ele>
        <time>2020-03-14T15:18:51.000Z</time>
      </trkpt>
      <trkpt lat="45.89551" lon="4.4834">
        <ele>501</ele>
        <time>2020-03-14T15:18:52.000Z</time>
      </trkpt>
      <trkpt lat="45.89552" lon="4.48334">
        <ele>501</ele>
        <time>2020-03-14T15:18:53.000Z</time>
      </trkpt>
      <trkpt lat="45.89554" lon="4.48328">
        <ele>501</ele>
        <time>2020-03-14T15:18:54.000Z</time>
      </trkpt>
      <trkpt lat="45.89556" lon="4.48323">
        <ele>500.79998779297</ele>
        <time>2020-03-14T15:18:55.000Z</time>
      </trkpt>
      <trkpt lat="45.89558" lon="4.48318">
        <ele>500.79998779297</ele>
        <time>2020-03-14T15:18:56.000Z</time>
      </trkpt>
      <trkpt lat="45.8956" lon="4.48314">
        <ele>500.60000610352</ele>
        <time>2020-03-14T15:18:57.000Z</time>
      </trkpt>
      <trkpt lat="45.89562" lon="4.48311">
        <ele>500.79998779297</ele>
        <time>2020-03-14T15:18:58.000Z</time>
      </trkpt>
      <trkpt lat="45.89563" lon="4.48308">
        <ele>501</ele>
        <time>2020-03-14T15:18:59.000Z</time>
      </trkpt>
      <trkpt lat="45.89564" lon="4.48305">
        <ele>501.20001220703</ele>
        <time>2020-03-14T15:19:00.000Z</time>
      </trkpt>
      <trkpt lat="45.89566" lon="4.48302">
        <ele>501.20001220703</ele>
        <time>2020-03-14T15:19:01.000Z</time>
      </trkpt>
      <trkpt lat="45.89567" lon="4.483">
        <ele>501.39999389648</ele>
        <time>2020-03-14T15:19:02.000Z</time>
      </trkpt>
      <trkpt lat="45.89569" lon="4.48297">
        <ele>501.39999389648</ele>
        <time>2020-03-14T15:19:03.000Z</time>
      </trkpt>
      <trkpt lat="45.8957" lon="4.48294">
        <ele>501.39999389648</ele>
        <time>2020-03-14T15:19:04.000Z</time>
      </trkpt>
      <trkpt lat="45.89572" lon="4.48291">
        <ele>501.20001220703</ele>
        <time>2020-03-14T15:19:05.000Z</time>
      </trkpt>
      <trkpt lat="45.89573" lon="4.48288">
        <ele>501</ele>
        <time>2020-03-14T15:19:06.000Z</time>
      </trkpt>
      <trkpt lat="45.89574" lon="4.48285">
        <ele>500.79998779297</ele>
        <time>2020-03-14T15:19:07.000Z</time>
      </trkpt>
      <trkpt lat="45.89576" lon="4.48282">
        <ele>500.79998779297</ele>
        <time>2020-03-14T15:19:08.000Z</time>
      </trkpt>
      <trkpt lat="45.89578" lon="4.48279">
        <ele>500.79998779297</ele>
        <time>2020-03-14T15:19:09.000Z</time>
      </trkpt>
      <trkpt lat="45.89579" lon="4.48276">
        <ele>500.79998779297</ele>
        <time>2020-03-14T15:19:10.000Z</time>
      </trkpt>
      <trkpt lat="45.8958" lon="4.48272">
        <ele>500.79998779297</ele>
        <time>2020-03-14T15:19:11.000Z</time>
      </trkpt>
      <trkpt lat="45.89582" lon="4.48269">
        <ele>501.20001220703</ele>
        <time>2020-03-14T15:19:12.000Z</time>
      </trkpt>
      <trkpt lat="45.89584" lon="4.48265">
        <ele>501.39999389648</ele>
        <time>2020-03-14T15:19:13.000Z</time>
      </trkpt>
      <trkpt lat="45.89586" lon="4.48262">
        <ele>501.39999389648</ele>
        <time>2020-03-14T15:19:14.000Z</time>
      </trkpt>
      <trkpt lat="45.89587" lon="4.48258">
        <ele>501.60000610352</ele>
        <time>2020-03-14T15:19:15.000Z</time>
      </trkpt>
      <trkpt lat="45.89588" lon="4.48255">
        <ele>501.79998779297</ele>
        <time>2020-03-14T15:19:16.000Z</time>
      </trkpt>
      <trkpt lat="45.89589" lon="4.48251">
        <ele>501.79998779297</ele>
        <time>2020-03-14T15:19:17.000Z</time>
      </trkpt>
      <trkpt lat="45.89591" lon="4.48248">
        <ele>502</ele>
        <time>2020-03-14T15:19:18.000Z</time>
      </trkpt>
      <trkpt lat="45.89594" lon="4.48245">
        <ele>502.20001220703</ele>
        <time>2020-03-14T15:19:19.000Z</time>
      </trkpt>
      <trkpt lat="45.89597" lon="4.48242">
        <ele>502.20001220703</ele>
        <time>2020-03-14T15:19:20.000Z</time>
      </trkpt>
      <trkpt lat="45.896" lon="4.48239">
        <ele>502.20001220703</ele>
        <time>2020-03-14T15:19:21.000Z</time>
      </trkpt>
      <trkpt lat="45.89604" lon="4.48236">
        <ele>502.20001220703</ele>
        <time>2020-03-14T15:19:22.000Z</time>
      </trkpt>
      <trkpt lat="45.89608" lon="4.48234">
        <ele>502</ele>
        <time>2020-03-14T15:19:23.000Z</time>
      </trkpt>
      <trkpt lat="45.89609" lon="4.4823">
        <ele>502</ele>
        <time>2020-03-14T15:19:24.000Z</time>
      </trkpt>
      <trkpt lat="45.8961" lon="4.48226">
        <ele>502</ele>
        <time>2020-03-14T15:19:25.000Z</time>
      </trkpt>
      <trkpt lat="45.89612" lon="4.48222">
        <ele>502</ele>
        <time>2020-03-14T15:19:26.000Z</time>
      </trkpt>
      <trkpt lat="45.89614" lon="4.48219">
        <ele>502</ele>
        <time>2020-03-14T15:19:27.000Z</time>
      </trkpt>
      <trkpt lat="45.89616" lon="4.48217">
        <ele>502.20001220703</ele>
        <time>2020-03-14T15:19:28.000Z</time>
      </trkpt>
      <trkpt lat="45.89619" lon="4.48214">
        <ele>502.20001220703</ele>
        <time>2020-03-14T15:19:29.000Z</time>
      </trkpt>
      <trkpt lat="45.89619" lon="4.4821">
        <ele>502.39999389648</ele>
        <time>2020-03-14T15:19:30.000Z</time>
      </trkpt>
      <trkpt lat="45.89621" lon="4.48207">
        <ele>502.39999389648</ele>
        <time>2020-03-14T15:19:31.000Z</time>
      </trkpt>
      <trkpt lat="45.89624" lon="4.48205">
        <ele>502.60000610352</ele>
        <time>2020-03-14T15:19:32.000Z</time>
      </trkpt>
      <trkpt lat="45.89626" lon="4.48201">
        <ele>502.60000610352</ele>
        <time>2020-03-14T15:19:33.000Z</time>
      </trkpt>
      <trkpt lat="45.89626" lon="4.48197">
        <ele>502.79998779297</ele>
        <time>2020-03-14T15:19:34.000Z</time>
      </trkpt>
      <trkpt lat="45.89626" lon="4.48193">
        <ele>503</ele>
        <time>2020-03-14T15:19:35.000Z</time>
      </trkpt>
      <trkpt lat="45.89627" lon="4.4819">
        <ele>503</ele>
        <time>2020-03-14T15:19:36.000Z</time>
      </trkpt>
      <trkpt lat="45.89627" lon="4.48186">
        <ele>503</ele>
        <time>2020-03-14T15:19:37.000Z</time>
      </trkpt>
      <trkpt lat="45.89631" lon="4.48183">
        <ele>503</ele>
        <time>2020-03-14T15:19:38.000Z</time>
      </trkpt>
      <trkpt lat="45.89633" lon="4.48179">
        <ele>503</ele>
        <time>2020-03-14T15:19:39.000Z</time>
      </trkpt>
      <trkpt lat="45.89636" lon="4.48174">
        <ele>503</ele>
        <time>2020-03-14T15:19:40.000Z</time>
      </trkpt>
      <trkpt lat="45.89638" lon="4.48169">
        <ele>502.79998779297</ele>
        <time>2020-03-14T15:19:41.000Z</time>
      </trkpt>
      <trkpt lat="45.8964" lon="4.48164">
        <ele>502.60000610352</ele>
        <time>2020-03-14T15:19:42.000Z</time>
      </trkpt>
      <trkpt lat="45.89643" lon="4.4816">
        <ele>502.60000610352</ele>
        <time>2020-03-14T15:19:43.000Z</time>
      </trkpt>
      <trkpt lat="45.89645" lon="4.48156">
        <ele>502.39999389648</ele>
        <time>2020-03-14T15:19:44.000Z</time>
      </trkpt>
      <trkpt lat="45.89647" lon="4.48151">
        <ele>502.20001220703</ele>
        <time>2020-03-14T15:19:45.000Z</time>
      </trkpt>
      <trkpt lat="45.89649" lon="4.48147">
        <ele>502.20001220703</ele>
        <time>2020-03-14T15:19:46.000Z</time>
      </trkpt>
      <trkpt lat="45.89651" lon="4.48142">
        <ele>502.20001220703</ele>
        <time>2020-03-14T15:19:47.000Z</time>
      </trkpt>
      <trkpt lat="45.89652" lon="4.48138">
        <ele>502.20001220703</ele>
        <time>2020-03-14T15:19:48.000Z</time>
      </trkpt>
      <trkpt lat="45.89655" lon="4.48133">
        <ele>502.39999389648</ele>
        <time>2020-03-14T15:19:49.000Z</time>
      </trkpt>
      <trkpt lat="45.89657" lon="4.48129">
        <ele>502.39999389648</ele>
        <time>2020-03-14T15:19:50.000Z</time>
      </trkpt>
      <trkpt lat="45.89659" lon="4.48124">
        <ele>502.60000610352</ele>
        <time>2020-03-14T15:19:51.000Z</time>
      </trkpt>
      <trkpt lat="45.89661" lon="4.48121">
        <ele>502.79998779297</ele>
        <time>2020-03-14T15:19:52.000Z</time>
      </trkpt>
      <trkpt lat="45.89663" lon="4.48118">
        <ele>503</ele>
        <time>2020-03-14T15:19:53.000Z</time>
      </trkpt>
      <trkpt lat="45.89664" lon="4.48114">
        <ele>503.20001220703</ele>
        <time>2020-03-14T15:19:54.000Z</time>
      </trkpt>
      <trkpt lat="45.89664" lon="4.48112">
        <ele>503.39999389648</ele>
        <time>2020-03-14T15:19:55.000Z</time>
      </trkpt>
      <trkpt lat="45.89666" lon="4.4811">
        <ele>503.60000610352</ele>
        <time>2020-03-14T15:19:56.000Z</time>
      </trkpt>
      <trkpt lat="45.89667" lon="4.48108">
        <ele>503.79998779297</ele>
        <time>2020-03-14T15:19:57.000Z</time>
      </trkpt>
      <trkpt lat="45.8967" lon="4.48106">
        <ele>504</ele>
        <time>2020-03-14T15:19:58.000Z</time>
      </trkpt>
      <trkpt lat="45.89672" lon="4.48105">
        <ele>504.20001220703</ele>
        <time>2020-03-14T15:19:59.000Z</time>
      </trkpt>
      <trkpt lat="45.89661" lon="4.48094">
        <ele>504.60000610352</ele>
        <time>2020-03-14T15:20:00.000Z</time>
      </trkpt>
      <trkpt lat="45.89661" lon="4.4809">
        <ele>505</ele>
        <time>2020-03-14T15:20:01.000Z</time>
      </trkpt>
      <trkpt lat="45.89658" lon="4.48085">
        <ele>505</ele>
        <time>2020-03-14T15:20:02.000Z</time>
      </trkpt>
      <trkpt lat="45.89659" lon="4.48083">
        <ele>505.60000610352</ele>
        <time>2020-03-14T15:20:03.000Z</time>
      </trkpt>
      <trkpt lat="45.89656" lon="4.48079">
        <ele>505.79998779297</ele>
        <time>2020-03-14T15:20:04.000Z</time>
      </trkpt>
      <trkpt lat="45.89657" lon="4.48077">
        <ele>506.20001220703</ele>
        <time>2020-03-14T15:20:05.000Z</time>
      </trkpt>
      <trkpt lat="45.89658" lon="4.48075">
        <ele>506.60000610352</ele>
        <time>2020-03-14T15:20:06.000Z</time>
      </trkpt>
      <trkpt lat="45.89658" lon="4.48073">
        <ele>506.79998779297</ele>
        <time>2020-03-14T15:20:07.000Z</time>
      </trkpt>
      <trkpt lat="45.89658" lon="4.4807">
        <ele>507</ele>
        <time>2020-03-14T15:20:08.000Z</time>
      </trkpt>
      <trkpt lat="45.89659" lon="4.48068">
        <ele>507.20001220703</ele>
        <time>2020-03-14T15:20:09.000Z</time>
      </trkpt>
      <trkpt lat="45.8966" lon="4.48066">
        <ele>507.20001220703</ele>
        <time>2020-03-14T15:20:10.000Z</time>
      </trkpt>
      <trkpt lat="45.89662" lon="4.48064">
        <ele>507.20001220703</ele>
        <time>2020-03-14T15:20:11.000Z</time>
      </trkpt>
      <trkpt lat="45.89664" lon="4.48062">
        <ele>507.20001220703</ele>
        <time>2020-03-14T15:20:12.000Z</time>
      </trkpt>
      <trkpt lat="45.89666" lon="4.4806">
        <ele>507.39999389648</ele>
        <time>2020-03-14T15:20:13.000Z</time>
      </trkpt>
      <trkpt lat="45.89667" lon="4.48059">
        <ele>507.39999389648</ele>
        <time>2020-03-14T15:20:14.000Z</time>
      </trkpt>
      <trkpt lat="45.89667" lon="4.48055">
        <ele>507.60000610352</ele>
        <time>2020-03-14T15:20:15.000Z</time>
      </trkpt>
      <trkpt lat="45.89668" lon="4.48053">
        <ele>507.60000610352</ele>
        <time>2020-03-14T15:20:16.000Z</time>
      </trkpt>
      <trkpt lat="45.8967" lon="4.4805">
        <ele>507.79998779297</ele>
        <time>2020-03-14T15:20:17.000Z</time>
      </trkpt>
      <trkpt lat="45.89671" lon="4.48048">
        <ele>508</ele>
        <time>2020-03-14T15:20:18.000Z</time>
      </trkpt>
      <trkpt lat="45.89672" lon="4.48045">
        <ele>508</ele>
        <time>2020-03-14T15:20:19.000Z</time>
      </trkpt>
      <trkpt lat="45.89674" lon="4.48043">
        <ele>508</ele>
        <time>2020-03-14T15:20:20.000Z</time>
      </trkpt>
      <trkpt lat="45.89676" lon="4.48041">
        <ele>508</ele>
        <time>2020-03-14T15:20:21.000Z</time>
      </trkpt>
      <trkpt lat="45.89677" lon="4.4804">
        <ele>508</ele>
        <time>2020-03-14T15:20:22.000Z</time>
      </trkpt>
      <trkpt lat="45.89678" lon="4.48037">
        <ele>508.20001220703</ele>
        <time>2020-03-14T15:20:23.000Z</time>
      </trkpt>
      <trkpt lat="45.89679" lon="4.48036">
        <ele>508.20001220703</ele>
        <time>2020-03-14T15:20:24.000Z</time>
      </trkpt>
      <trkpt lat="45.89681" lon="4.48035">
        <ele>508.39999389648</ele>
        <time>2020-03-14T15:20:25.000Z</time>
      </trkpt>
      <trkpt lat="45.89683" lon="4.48032">
        <ele>508.60000610352</ele>
        <time>2020-03-14T15:20:26.000Z</time>
      </trkpt>
      <trkpt lat="45.89685" lon="4.4803">
        <ele>508.60000610352</ele>
        <time>2020-03-14T15:20:27.000Z</time>
      </trkpt>
      <trkpt lat="45.89687" lon="4.48027">
        <ele>508.79998779297</ele>
        <time>2020-03-14T15:20:28.000Z</time>
      </trkpt>
      <trkpt lat="45.8969" lon="4.48025">
        <ele>508.79998779297</ele>
        <time>2020-03-14T15:20:29.000Z</time>
      </trkpt>
      <trkpt lat="45.89693" lon="4.48022">
        <ele>508.79998779297</ele>
        <time>2020-03-14T15:20:30.000Z</time>
      </trkpt>
      <trkpt lat="45.89696" lon="4.48021">
        <ele>508.60000610352</ele>
        <time>2020-03-14T15:20:31.000Z</time>
      </trkpt>
      <trkpt lat="45.89699" lon="4.48018">
        <ele>508.39999389648</ele>
        <time>2020-03-14T15:20:32.000Z</time>
      </trkpt>
      <trkpt lat="45.89701" lon="4.48016">
        <ele>508.39999389648</ele>
        <time>2020-03-14T15:20:33.000Z</time>
      </trkpt>
      <trkpt lat="45.89705" lon="4.48012">
        <ele>508.20001220703</ele>
        <time>2020-03-14T15:20:34.000Z</time>
      </trkpt>
      <trkpt lat="45.89708" lon="4.48009">
        <ele>508</ele>
        <time>2020-03-14T15:20:35.000Z</time>
      </trkpt>
      <trkpt lat="45.8971" lon="4.48007">
        <ele>508</ele>
        <time>2020-03-14T15:20:36.000Z</time>
      </trkpt>
      <trkpt lat="45.89713" lon="4.48004">
        <ele>507.79998779297</ele>
        <time>2020-03-14T15:20:37.000Z</time>
      </trkpt>
      <trkpt lat="45.89716" lon="4.48002">
        <ele>507.60000610352</ele>
        <time>2020-03-14T15:20:38.000Z</time>
      </trkpt>
      <trkpt lat="45.89719" lon="4.48">
        <ele>507.20001220703</ele>
        <time>2020-03-14T15:20:39.000Z</time>
      </trkpt>
      <trkpt lat="45.89722" lon="4.47998">
        <ele>507</ele>
        <time>2020-03-14T15:20:40.000Z</time>
      </trkpt>
      <trkpt lat="45.89726" lon="4.47997">
        <ele>506.79998779297</ele>
        <time>2020-03-14T15:20:41.000Z</time>
      </trkpt>
      <trkpt lat="45.8973" lon="4.47997">
        <ele>506.60000610352</ele>
        <time>2020-03-14T15:20:42.000Z</time>
      </trkpt>
      <trkpt lat="45.89734" lon="4.47997">
        <ele>506.39999389648</ele>
        <time>2020-03-14T15:20:43.000Z</time>
      </trkpt>
      <trkpt lat="45.89737" lon="4.47998">
        <ele>506.20001220703</ele>
        <time>2020-03-14T15:20:44.000Z</time>
      </trkpt>
      <trkpt lat="45.89743" lon="4.47998">
        <ele>506</ele>
        <time>2020-03-14T15:20:45.000Z</time>
      </trkpt>
      <trkpt lat="45.89748" lon="4.47998">
        <ele>506</ele>
        <time>2020-03-14T15:20:46.000Z</time>
      </trkpt>
      <trkpt lat="45.89753" lon="4.48">
        <ele>506</ele>
        <time>2020-03-14T15:20:47.000Z</time>
      </trkpt>
      <trkpt lat="45.89758" lon="4.48">
        <ele>506</ele>
        <time>2020-03-14T15:20:48.000Z</time>
      </trkpt>
      <trkpt lat="45.89763" lon="4.48002">
        <ele>506</ele>
        <time>2020-03-14T15:20:49.000Z</time>
      </trkpt>
      <trkpt lat="45.89767" lon="4.48004">
        <ele>506.20001220703</ele>
        <time>2020-03-14T15:20:50.000Z</time>
      </trkpt>
      <trkpt lat="45.89771" lon="4.48007">
        <ele>506.39999389648</ele>
        <time>2020-03-14T15:20:51.000Z</time>
      </trkpt>
      <trkpt lat="45.89774" lon="4.4801">
        <ele>507</ele>
        <time>2020-03-14T15:20:52.000Z</time>
      </trkpt>
      <trkpt lat="45.89777" lon="4.48013">
        <ele>507.39999389648</ele>
        <time>2020-03-14T15:20:53.000Z</time>
      </trkpt>
      <trkpt lat="45.8978" lon="4.48014">
        <ele>507.60000610352</ele>
        <time>2020-03-14T15:20:54.000Z</time>
      </trkpt>
      <trkpt lat="45.89783" lon="4.48017">
        <ele>507.60000610352</ele>
        <time>2020-03-14T15:20:55.000Z</time>
      </trkpt>
      <trkpt lat="45.89787" lon="4.48021">
        <ele>508</ele>
        <time>2020-03-14T15:20:56.000Z</time>
      </trkpt>
      <trkpt lat="45.8979" lon="4.48023">
        <ele>508.20001220703</ele>
        <time>2020-03-14T15:20:57.000Z</time>
      </trkpt>
      <trkpt lat="45.89793" lon="4.48027">
        <ele>508.39999389648</ele>
        <time>2020-03-14T15:20:58.000Z</time>
      </trkpt>
      <trkpt lat="45.89796" lon="4.4803">
        <ele>508.79998779297</ele>
        <time>2020-03-14T15:20:59.000Z</time>
      </trkpt>
      <trkpt lat="45.89799" lon="4.48032">
        <ele>509.20001220703</ele>
        <time>2020-03-14T15:21:00.000Z</time>
      </trkpt>
      <trkpt lat="45.89802" lon="4.48034">
        <ele>509.39999389648</ele>
        <time>2020-03-14T15:21:01.000Z</time>
      </trkpt>
      <trkpt lat="45.89805" lon="4.48036">
        <ele>509.60000610352</ele>
        <time>2020-03-14T15:21:02.000Z</time>
      </trkpt>
      <trkpt lat="45.89808" lon="4.48037">
        <ele>509.60000610352</ele>
        <time>2020-03-14T15:21:03.000Z</time>
      </trkpt>
      <trkpt lat="45.89811" lon="4.48038">
        <ele>509.79998779297</ele>
        <time>2020-03-14T15:21:04.000Z</time>
      </trkpt>
      <trkpt lat="45.89814" lon="4.48039">
        <ele>509.79998779297</ele>
        <time>2020-03-14T15:21:05.000Z</time>
      </trkpt>
      <trkpt lat="45.89816" lon="4.4804">
        <ele>510.20001220703</ele>
        <time>2020-03-14T15:21:06.000Z</time>
      </trkpt>
      <trkpt lat="45.89819" lon="4.4804">
        <ele>510.60000610352</ele>
        <time>2020-03-14T15:21:07.000Z</time>
      </trkpt>
      <trkpt lat="45.89821" lon="4.4804">
        <ele>510.79998779297</ele>
        <time>2020-03-14T15:21:08.000Z</time>
      </trkpt>
      <trkpt lat="45.89823" lon="4.48041">
        <ele>510.60000610352</ele>
        <time>2020-03-14T15:21:09.000Z</time>
      </trkpt>
      <trkpt lat="45.89824" lon="4.48041">
        <ele>510.60000610352</ele>
        <time>2020-03-14T15:21:10.000Z</time>
      </trkpt>
      <trkpt lat="45.89825" lon="4.48041">
        <ele>510.60000610352</ele>
        <time>2020-03-14T15:21:11.000Z</time>
      </trkpt>
      <trkpt lat="45.89826" lon="4.48041">
        <ele>510.39999389648</ele>
        <time>2020-03-14T15:21:12.000Z</time>
      </trkpt>
      <trkpt lat="45.89826" lon="4.48041">
        <ele>510.39999389648</ele>
        <time>2020-03-14T15:21:13.000Z</time>
      </trkpt>
      <trkpt lat="45.89826" lon="4.48041">
        <ele>510.20001220703</ele>
        <time>2020-03-14T15:21:14.000Z</time>
      </trkpt>
      <trkpt lat="45.89826" lon="4.48041">
        <ele>510.20001220703</ele>
        <time>2020-03-14T15:21:15.000Z</time>
      </trkpt>
      <trkpt lat="45.89826" lon="4.48041">
        <ele>510.20001220703</ele>
        <time>2020-03-14T15:21:16.000Z</time>
      </trkpt>
      <trkpt lat="45.89826" lon="4.48041">
        <ele>510.20001220703</ele>
        <time>2020-03-14T15:21:17.000Z</time>
      </trkpt>
      <trkpt lat="45.89826" lon="4.48041">
        <ele>510</ele>
        <time>2020-03-14T15:21:18.000Z</time>
      </trkpt>
      <trkpt lat="45.89826" lon="4.48041">
        <ele>510</ele>
        <time>2020-03-14T15:21:19.000Z</time>
      </trkpt>
      <trkpt lat="45.89826" lon="4.48041">
        <ele>509.79998779297</ele>
        <time>2020-03-14T15:21:20.000Z</time>
      </trkpt>
      <trkpt lat="45.89826" lon="4.48041">
        <ele>509.79998779297</ele>
        <time>2020-03-14T15:21:21.000Z</time>
      </trkpt>
      <trkpt lat="45.89826" lon="4.48041">
        <ele>509.79998779297</ele>
        <time>2020-03-14T15:21:22.000Z</time>
      </trkpt>
      <trkpt lat="45.89826" lon="4.48041">
        <ele>509.60000610352</ele>
        <time>2020-03-14T15:21:23.000Z</time>
      </trkpt>
      <trkpt lat="45.89826" lon="4.48041">
        <ele>509.60000610352</ele>
        <time>2020-03-14T15:21:24.000Z</time>
      </trkpt>
      <trkpt lat="45.89826" lon="4.48041">
        <ele>509.60000610352</ele>
        <time>2020-03-14T15:21:25.000Z</time>
      </trkpt>
      <trkpt lat="45.89826" lon="4.48041">
        <ele>509.60000610352</ele>
        <time>2020-03-14T15:21:26.000Z</time>
      </trkpt>
      <trkpt lat="45.89826" lon="4.48041">
        <ele>509.60000610352</ele>
        <time>2020-03-14T15:21:27.000Z</time>
      </trkpt>
      <trkpt lat="45.89826" lon="4.48041">
        <ele>509.60000610352</ele>
        <time>2020-03-14T15:21:28.000Z</time>
      </trkpt>
      <trkpt lat="45.89827" lon="4.48041">
        <ele>509.79998779297</ele>
        <time>2020-03-14T15:21:29.000Z</time>
      </trkpt>
      <trkpt lat="45.89827" lon="4.48041">
        <ele>509.79998779297</ele>
        <time>2020-03-14T15:21:30.000Z</time>
      </trkpt>
      <trkpt lat="45.89827" lon="4.48041">
        <ele>509.79998779297</ele>
        <time>2020-03-14T15:21:31.000Z</time>
      </trkpt>
      <trkpt lat="45.89827" lon="4.48041">
        <ele>509.79998779297</ele>
        <time>2020-03-14T15:21:32.000Z</time>
      </trkpt>
      <trkpt lat="45.89827" lon="4.48041">
        <ele>509.79998779297</ele>
        <time>2020-03-14T15:21:33.000Z</time>
      </trkpt>
      <trkpt lat="45.89827" lon="4.48041">
        <ele>509.79998779297</ele>
        <time>2020-03-14T15:21:34.000Z</time>
      </trkpt>
      <trkpt lat="45.89827" lon="4.48041">
        <ele>509.79998779297</ele>
        <time>2020-03-14T15:21:35.000Z</time>
      </trkpt>
      <trkpt lat="45.89827" lon="4.4804">
        <ele>509.79998779297</ele>
        <time>2020-03-14T15:21:36.000Z</time>
      </trkpt>
      <trkpt lat="45.89828" lon="4.4804">
        <ele>509.60000610352</ele>
        <time>2020-03-14T15:21:37.000Z</time>
      </trkpt>
      <trkpt lat="45.89829" lon="4.48039">
        <ele>509.60000610352</ele>
        <time>2020-03-14T15:21:38.000Z</time>
      </trkpt>
      <trkpt lat="45.89832" lon="4.48039">
        <ele>509.79998779297</ele>
        <time>2020-03-14T15:21:39.000Z</time>
      </trkpt>
      <trkpt lat="45.89834" lon="4.48038">
        <ele>509.79998779297</ele>
        <time>2020-03-14T15:21:40.000Z</time>
      </trkpt>
      <trkpt lat="45.89836" lon="4.48038">
        <ele>510</ele>
        <time>2020-03-14T15:21:41.000Z</time>
      </trkpt>
      <trkpt lat="45.89839" lon="4.48037">
        <ele>510</ele>
        <time>2020-03-14T15:21:42.000Z</time>
      </trkpt>
      <trkpt lat="45.89841" lon="4.48037">
        <ele>510</ele>
        <time>2020-03-14T15:21:43.000Z</time>
      </trkpt>
      <trkpt lat="45.89844" lon="4.48036">
        <ele>510</ele>
        <time>2020-03-14T15:21:44.000Z</time>
      </trkpt>
      <trkpt lat="45.89846" lon="4.48035">
        <ele>509.79998779297</ele>
        <time>2020-03-14T15:21:45.000Z</time>
      </trkpt>
      <trkpt lat="45.89848" lon="4.48033">
        <ele>509.60000610352</ele>
        <time>2020-03-14T15:21:46.000Z</time>
      </trkpt>
      <trkpt lat="45.89851" lon="4.48031">
        <ele>509.39999389648</ele>
        <time>2020-03-14T15:21:47.000Z</time>
      </trkpt>
      <trkpt lat="45.89854" lon="4.48029">
        <ele>509.20001220703</ele>
        <time>2020-03-14T15:21:48.000Z</time>
      </trkpt>
      <trkpt lat="45.89856" lon="4.48026">
        <ele>509.20001220703</ele>
        <time>2020-03-14T15:21:49.000Z</time>
      </trkpt>
      <trkpt lat="45.89858" lon="4.48024">
        <ele>509.39999389648</ele>
        <time>2020-03-14T15:21:50.000Z</time>
      </trkpt>
      <trkpt lat="45.89861" lon="4.48022">
        <ele>509.60000610352</ele>
        <time>2020-03-14T15:21:51.000Z</time>
      </trkpt>
      <trkpt lat="45.89863" lon="4.4802">
        <ele>509.79998779297</ele>
        <time>2020-03-14T15:21:52.000Z</time>
      </trkpt>
      <trkpt lat="45.89865" lon="4.48018">
        <ele>510.20001220703</ele>
        <time>2020-03-14T15:21:53.000Z</time>
      </trkpt>
      <trkpt lat="45.89867" lon="4.48016">
        <ele>510.39999389648</ele>
        <time>2020-03-14T15:21:54.000Z</time>
      </trkpt>
      <trkpt lat="45.89869" lon="4.48014">
        <ele>510.20001220703</ele>
        <time>2020-03-14T15:21:55.000Z</time>
      </trkpt>
      <trkpt lat="45.89871" lon="4.48011">
        <ele>510.20001220703</ele>
        <time>2020-03-14T15:21:56.000Z</time>
      </trkpt>
      <trkpt lat="45.89873" lon="4.48008">
        <ele>510.20001220703</ele>
        <time>2020-03-14T15:21:57.000Z</time>
      </trkpt>
      <trkpt lat="45.89875" lon="4.48005">
        <ele>510.39999389648</ele>
        <time>2020-03-14T15:21:58.000Z</time>
      </trkpt>
      <trkpt lat="45.89877" lon="4.48">
        <ele>510.39999389648</ele>
        <time>2020-03-14T15:21:59.000Z</time>
      </trkpt>
      <trkpt lat="45.89879" lon="4.47995">
        <ele>510.20001220703</ele>
        <time>2020-03-14T15:22:00.000Z</time>
      </trkpt>
      <trkpt lat="45.89882" lon="4.4799">
        <ele>510.20001220703</ele>
        <time>2020-03-14T15:22:01.000Z</time>
      </trkpt>
      <trkpt lat="45.89884" lon="4.47987">
        <ele>510.20001220703</ele>
        <time>2020-03-14T15:22:02.000Z</time>
      </trkpt>
      <trkpt lat="45.89887" lon="4.47982">
        <ele>510.20001220703</ele>
        <time>2020-03-14T15:22:03.000Z</time>
      </trkpt>
      <trkpt lat="45.89889" lon="4.47978">
        <ele>510.20001220703</ele>
        <time>2020-03-14T15:22:04.000Z</time>
      </trkpt>
      <trkpt lat="45.89891" lon="4.47973">
        <ele>510.20001220703</ele>
        <time>2020-03-14T15:22:05.000Z</time>
      </trkpt>
      <trkpt lat="45.89893" lon="4.47969">
        <ele>510.20001220703</ele>
        <time>2020-03-14T15:22:06.000Z</time>
      </trkpt>
      <trkpt lat="45.89895" lon="4.47965">
        <ele>510.39999389648</ele>
        <time>2020-03-14T15:22:07.000Z</time>
      </trkpt>
      <trkpt lat="45.89897" lon="4.47961">
        <ele>510.39999389648</ele>
        <time>2020-03-14T15:22:08.000Z</time>
      </trkpt>
      <trkpt lat="45.89899" lon="4.47958">
        <ele>510.60000610352</ele>
        <time>2020-03-14T15:22:09.000Z</time>
      </trkpt>
      <trkpt lat="45.899" lon="4.47955">
        <ele>510.79998779297</ele>
        <time>2020-03-14T15:22:10.000Z</time>
      </trkpt>
      <trkpt lat="45.89902" lon="4.47951">
        <ele>510.79998779297</ele>
        <time>2020-03-14T15:22:11.000Z</time>
      </trkpt>
      <trkpt lat="45.89903" lon="4.47947">
        <ele>511</ele>
        <time>2020-03-14T15:22:12.000Z</time>
      </trkpt>
      <trkpt lat="45.89905" lon="4.47943">
        <ele>511</ele>
        <time>2020-03-14T15:22:13.000Z</time>
      </trkpt>
      <trkpt lat="45.89907" lon="4.47941">
        <ele>511.20001220703</ele>
        <time>2020-03-14T15:22:14.000Z</time>
      </trkpt>
      <trkpt lat="45.89909" lon="4.47936">
        <ele>511.39999389648</ele>
        <time>2020-03-14T15:22:15.000Z</time>
      </trkpt>
      <trkpt lat="45.89911" lon="4.47932">
        <ele>511.60000610352</ele>
        <time>2020-03-14T15:22:16.000Z</time>
      </trkpt>
      <trkpt lat="45.89914" lon="4.47928">
        <ele>511.60000610352</ele>
        <time>2020-03-14T15:22:17.000Z</time>
      </trkpt>
      <trkpt lat="45.89915" lon="4.47924">
        <ele>511.79998779297</ele>
        <time>2020-03-14T15:22:18.000Z</time>
      </trkpt>
      <trkpt lat="45.89917" lon="4.4792">
        <ele>511.60000610352</ele>
        <time>2020-03-14T15:22:19.000Z</time>
      </trkpt>
      <trkpt lat="45.89919" lon="4.47916">
        <ele>511.60000610352</ele>
        <time>2020-03-14T15:22:20.000Z</time>
      </trkpt>
      <trkpt lat="45.89921" lon="4.47912">
        <ele>511.60000610352</ele>
        <time>2020-03-14T15:22:21.000Z</time>
      </trkpt>
      <trkpt lat="45.89923" lon="4.47909">
        <ele>511.60000610352</ele>
        <time>2020-03-14T15:22:22.000Z</time>
      </trkpt>
      <trkpt lat="45.89925" lon="4.47905">
        <ele>511.60000610352</ele>
        <time>2020-03-14T15:22:23.000Z</time>
      </trkpt>
      <trkpt lat="45.89928" lon="4.47902">
        <ele>511.39999389648</ele>
        <time>2020-03-14T15:22:24.000Z</time>
      </trkpt>
      <trkpt lat="45.8993" lon="4.47898">
        <ele>511.39999389648</ele>
        <time>2020-03-14T15:22:25.000Z</time>
      </trkpt>
      <trkpt lat="45.89931" lon="4.47895">
        <ele>511.79998779297</ele>
        <time>2020-03-14T15:22:26.000Z</time>
      </trkpt>
      <trkpt lat="45.89932" lon="4.47892">
        <ele>512</ele>
        <time>2020-03-14T15:22:27.000Z</time>
      </trkpt>
      <trkpt lat="45.89934" lon="4.47889">
        <ele>512.20001220703</ele>
        <time>2020-03-14T15:22:28.000Z</time>
      </trkpt>
      <trkpt lat="45.89935" lon="4.47887">
        <ele>512.40002441406</ele>
        <time>2020-03-14T15:22:29.000Z</time>
      </trkpt>
      <trkpt lat="45.89937" lon="4.47884">
        <ele>512.59997558594</ele>
        <time>2020-03-14T15:22:30.000Z</time>
      </trkpt>
      <trkpt lat="45.89938" lon="4.47882">
        <ele>512.59997558594</ele>
        <time>2020-03-14T15:22:31.000Z</time>
      </trkpt>
      <trkpt lat="45.8994" lon="4.47879">
        <ele>512.59997558594</ele>
        <time>2020-03-14T15:22:32.000Z</time>
      </trkpt>
      <trkpt lat="45.89941" lon="4.47877">
        <ele>512.79998779297</ele>
        <time>2020-03-14T15:22:33.000Z</time>
      </trkpt>
      <trkpt lat="45.89942" lon="4.47874">
        <ele>513</ele>
        <time>2020-03-14T15:22:34.000Z</time>
      </trkpt>
      <trkpt lat="45.89943" lon="4.47872">
        <ele>513</ele>
        <time>2020-03-14T15:22:35.000Z</time>
      </trkpt>
      <trkpt lat="45.89945" lon="4.47869">
        <ele>513.20001220703</ele>
        <time>2020-03-14T15:22:36.000Z</time>
      </trkpt>
      <trkpt lat="45.89946" lon="4.47867">
        <ele>513.40002441406</ele>
        <time>2020-03-14T15:22:37.000Z</time>
      </trkpt>
      <trkpt lat="45.89947" lon="4.47865">
        <ele>513.59997558594</ele>
        <time>2020-03-14T15:22:38.000Z</time>
      </trkpt>
      <trkpt lat="45.89948" lon="4.47862">
        <ele>514</ele>
        <time>2020-03-14T15:22:39.000Z</time>
      </trkpt>
      <trkpt lat="45.89949" lon="4.4786">
        <ele>514</ele>
        <time>2020-03-14T15:22:40.000Z</time>
      </trkpt>
      <trkpt lat="45.8995" lon="4.47858">
        <ele>514.20001220703</ele>
        <time>2020-03-14T15:22:41.000Z</time>
      </trkpt>
      <trkpt lat="45.89951" lon="4.47855">
        <ele>514.40002441406</ele>
        <time>2020-03-14T15:22:42.000Z</time>
      </trkpt>
      <trkpt lat="45.89953" lon="4.47853">
        <ele>514.40002441406</ele>
        <time>2020-03-14T15:22:43.000Z</time>
      </trkpt>
      <trkpt lat="45.89954" lon="4.47852">
        <ele>514.40002441406</ele>
        <time>2020-03-14T15:22:44.000Z</time>
      </trkpt>
      <trkpt lat="45.89955" lon="4.47849">
        <ele>514.59997558594</ele>
        <time>2020-03-14T15:22:45.000Z</time>
      </trkpt>
      <trkpt lat="45.89956" lon="4.47848">
        <ele>514.59997558594</ele>
        <time>2020-03-14T15:22:46.000Z</time>
      </trkpt>
      <trkpt lat="45.89958" lon="4.47846">
        <ele>514.59997558594</ele>
        <time>2020-03-14T15:22:47.000Z</time>
      </trkpt>
      <trkpt lat="45.89959" lon="4.47844">
        <ele>514.59997558594</ele>
        <time>2020-03-14T15:22:48.000Z</time>
      </trkpt>
      <trkpt lat="45.89961" lon="4.47842">
        <ele>514.79998779297</ele>
        <time>2020-03-14T15:22:49.000Z</time>
      </trkpt>
      <trkpt lat="45.89962" lon="4.4784">
        <ele>515</ele>
        <time>2020-03-14T15:22:50.000Z</time>
      </trkpt>
      <trkpt lat="45.89963" lon="4.47839">
        <ele>515</ele>
        <time>2020-03-14T15:22:51.000Z</time>
      </trkpt>
      <trkpt lat="45.89964" lon="4.47838">
        <ele>515.20001220703</ele>
        <time>2020-03-14T15:22:52.000Z</time>
      </trkpt>
      <trkpt lat="45.89966" lon="4.47837">
        <ele>515.20001220703</ele>
        <time>2020-03-14T15:22:53.000Z</time>
      </trkpt>
      <trkpt lat="45.89967" lon="4.47836">
        <ele>515.59997558594</ele>
        <time>2020-03-14T15:22:54.000Z</time>
      </trkpt>
      <trkpt lat="45.89969" lon="4.47835">
        <ele>515.59997558594</ele>
        <time>2020-03-14T15:22:55.000Z</time>
      </trkpt>
      <trkpt lat="45.89971" lon="4.47835">
        <ele>515.79998779297</ele>
        <time>2020-03-14T15:22:56.000Z</time>
      </trkpt>
      <trkpt lat="45.89972" lon="4.47834">
        <ele>515.59997558594</ele>
        <time>2020-03-14T15:22:57.000Z</time>
      </trkpt>
      <trkpt lat="45.89974" lon="4.47834">
        <ele>515.79998779297</ele>
        <time>2020-03-14T15:22:58.000Z</time>
      </trkpt>
      <trkpt lat="45.89975" lon="4.47834">
        <ele>516</ele>
        <time>2020-03-14T15:22:59.000Z</time>
      </trkpt>
      <trkpt lat="45.89977" lon="4.47833">
        <ele>516.20001220703</ele>
        <time>2020-03-14T15:23:00.000Z</time>
      </trkpt>
      <trkpt lat="45.89978" lon="4.47833">
        <ele>516.40002441406</ele>
        <time>2020-03-14T15:23:01.000Z</time>
      </trkpt>
      <trkpt lat="45.89981" lon="4.47832">
        <ele>516.40002441406</ele>
        <time>2020-03-14T15:23:02.000Z</time>
      </trkpt>
      <trkpt lat="45.89983" lon="4.47832">
        <ele>516.59997558594</ele>
        <time>2020-03-14T15:23:03.000Z</time>
      </trkpt>
      <trkpt lat="45.89984" lon="4.47831">
        <ele>516.79998779297</ele>
        <time>2020-03-14T15:23:04.000Z</time>
      </trkpt>
      <trkpt lat="45.89986" lon="4.47831">
        <ele>517</ele>
        <time>2020-03-14T15:23:05.000Z</time>
      </trkpt>
      <trkpt lat="45.89987" lon="4.4783">
        <ele>517.20001220703</ele>
        <time>2020-03-14T15:23:06.000Z</time>
      </trkpt>
      <trkpt lat="45.89989" lon="4.4783">
        <ele>517.40002441406</ele>
        <time>2020-03-14T15:23:07.000Z</time>
      </trkpt>
      <trkpt lat="45.8999" lon="4.47829">
        <ele>517.59997558594</ele>
        <time>2020-03-14T15:23:08.000Z</time>
      </trkpt>
      <trkpt lat="45.89992" lon="4.47828">
        <ele>517.59997558594</ele>
        <time>2020-03-14T15:23:09.000Z</time>
      </trkpt>
      <trkpt lat="45.89993" lon="4.47828">
        <ele>517.79998779297</ele>
        <time>2020-03-14T15:23:10.000Z</time>
      </trkpt>
      <trkpt lat="45.89995" lon="4.47827">
        <ele>518</ele>
        <time>2020-03-14T15:23:11.000Z</time>
      </trkpt>
      <trkpt lat="45.89997" lon="4.47826">
        <ele>518.20001220703</ele>
        <time>2020-03-14T15:23:12.000Z</time>
      </trkpt>
      <trkpt lat="45.89998" lon="4.47826">
        <ele>518.40002441406</ele>
        <time>2020-03-14T15:23:13.000Z</time>
      </trkpt>
      <trkpt lat="45.89999" lon="4.47825">
        <ele>518.59997558594</ele>
        <time>2020-03-14T15:23:14.000Z</time>
      </trkpt>
      <trkpt lat="45.90001" lon="4.47825">
        <ele>518.79998779297</ele>
        <time>2020-03-14T15:23:15.000Z</time>
      </trkpt>
      <trkpt lat="45.90002" lon="4.47825">
        <ele>518.79998779297</ele>
        <time>2020-03-14T15:23:16.000Z</time>
      </trkpt>
      <trkpt lat="45.90003" lon="4.47825">
        <ele>519</ele>
        <time>2020-03-14T15:23:17.000Z</time>
      </trkpt>
      <trkpt lat="45.90004" lon="4.47825">
        <ele>519.20001220703</ele>
        <time>2020-03-14T15:23:18.000Z</time>
      </trkpt>
      <trkpt lat="45.90005" lon="4.47825">
        <ele>519.20001220703</ele>
        <time>2020-03-14T15:23:19.000Z</time>
      </trkpt>
      <trkpt lat="45.90006" lon="4.47824">
        <ele>519.40002441406</ele>
        <time>2020-03-14T15:23:20.000Z</time>
      </trkpt>
      <trkpt lat="45.90007" lon="4.47824">
        <ele>519.40002441406</ele>
        <time>2020-03-14T15:23:21.000Z</time>
      </trkpt>
      <trkpt lat="45.90008" lon="4.47824">
        <ele>519.59997558594</ele>
        <time>2020-03-14T15:23:22.000Z</time>
      </trkpt>
      <trkpt lat="45.90009" lon="4.47824">
        <ele>519.79998779297</ele>
        <time>2020-03-14T15:23:23.000Z</time>
      </trkpt>
      <trkpt lat="45.9001" lon="4.47824">
        <ele>520.20001220703</ele>
        <time>2020-03-14T15:23:24.000Z</time>
      </trkpt>
      <trkpt lat="45.90011" lon="4.47824">
        <ele>520.40002441406</ele>
        <time>2020-03-14T15:23:25.000Z</time>
      </trkpt>
      <trkpt lat="45.90012" lon="4.47823">
        <ele>520.79998779297</ele>
        <time>2020-03-14T15:23:26.000Z</time>
      </trkpt>
      <trkpt lat="45.90013" lon="4.47823">
        <ele>520.79998779297</ele>
        <time>2020-03-14T15:23:27.000Z</time>
      </trkpt>
      <trkpt lat="45.90014" lon="4.47823">
        <ele>521</ele>
        <time>2020-03-14T15:23:28.000Z</time>
      </trkpt>
      <trkpt lat="45.90015" lon="4.47822">
        <ele>521.40002441406</ele>
        <time>2020-03-14T15:23:29.000Z</time>
      </trkpt>
      <trkpt lat="45.90016" lon="4.47822">
        <ele>521.59997558594</ele>
        <time>2020-03-14T15:23:30.000Z</time>
      </trkpt>
      <trkpt lat="45.90017" lon="4.47822">
        <ele>521.59997558594</ele>
        <time>2020-03-14T15:23:31.000Z</time>
      </trkpt>
      <trkpt lat="45.90018" lon="4.47822">
        <ele>522</ele>
        <time>2020-03-14T15:23:32.000Z</time>
      </trkpt>
      <trkpt lat="45.90019" lon="4.47822">
        <ele>522</ele>
        <time>2020-03-14T15:23:33.000Z</time>
      </trkpt>
      <trkpt lat="45.9002" lon="4.47821">
        <ele>522.20001220703</ele>
        <time>2020-03-14T15:23:34.000Z</time>
      </trkpt>
      <trkpt lat="45.90021" lon="4.47821">
        <ele>522.40002441406</ele>
        <time>2020-03-14T15:23:35.000Z</time>
      </trkpt>
      <trkpt lat="45.90022" lon="4.4782">
        <ele>522.59997558594</ele>
        <time>2020-03-14T15:23:36.000Z</time>
      </trkpt>
      <trkpt lat="45.90023" lon="4.4782">
        <ele>523</ele>
        <time>2020-03-14T15:23:37.000Z</time>
      </trkpt>
      <trkpt lat="45.90024" lon="4.47819">
        <ele>523.20001220703</ele>
        <time>2020-03-14T15:23:38.000Z</time>
      </trkpt>
      <trkpt lat="45.90025" lon="4.47819">
        <ele>523.40002441406</ele>
        <time>2020-03-14T15:23:39.000Z</time>
      </trkpt>
      <trkpt lat="45.90026" lon="4.47818">
        <ele>523.79998779297</ele>
        <time>2020-03-14T15:23:40.000Z</time>
      </trkpt>
      <trkpt lat="45.90027" lon="4.47817">
        <ele>524.20001220703</ele>
        <time>2020-03-14T15:23:41.000Z</time>
      </trkpt>
      <trkpt lat="45.90028" lon="4.47817">
        <ele>524.40002441406</ele>
        <time>2020-03-14T15:23:42.000Z</time>
      </trkpt>
      <trkpt lat="45.90029" lon="4.47817">
        <ele>524.59997558594</ele>
        <time>2020-03-14T15:23:43.000Z</time>
      </trkpt>
      <trkpt lat="45.90031" lon="4.47816">
        <ele>524.79998779297</ele>
        <time>2020-03-14T15:23:44.000Z</time>
      </trkpt>
      <trkpt lat="45.90032" lon="4.47817">
        <ele>525</ele>
        <time>2020-03-14T15:23:45.000Z</time>
      </trkpt>
      <trkpt lat="45.90033" lon="4.47817">
        <ele>525</ele>
        <time>2020-03-14T15:23:46.000Z</time>
      </trkpt>
      <trkpt lat="45.90033" lon="4.47817">
        <ele>525.20001220703</ele>
        <time>2020-03-14T15:23:47.000Z</time>
      </trkpt>
      <trkpt lat="45.90035" lon="4.47816">
        <ele>525.20001220703</ele>
        <time>2020-03-14T15:23:48.000Z</time>
      </trkpt>
      <trkpt lat="45.90036" lon="4.47816">
        <ele>525.40002441406</ele>
        <time>2020-03-14T15:23:49.000Z</time>
      </trkpt>
      <trkpt lat="45.90037" lon="4.47816">
        <ele>525.40002441406</ele>
        <time>2020-03-14T15:23:50.000Z</time>
      </trkpt>
      <trkpt lat="45.90038" lon="4.47816">
        <ele>525.59997558594</ele>
        <time>2020-03-14T15:23:51.000Z</time>
      </trkpt>
      <trkpt lat="45.90039" lon="4.47815">
        <ele>525.59997558594</ele>
        <time>2020-03-14T15:23:52.000Z</time>
      </trkpt>
      <trkpt lat="45.9004" lon="4.47814">
        <ele>525.79998779297</ele>
        <time>2020-03-14T15:23:53.000Z</time>
      </trkpt>
      <trkpt lat="45.9004" lon="4.47812">
        <ele>526</ele>
        <time>2020-03-14T15:23:54.000Z</time>
      </trkpt>
      <trkpt lat="45.90041" lon="4.4781">
        <ele>526</ele>
        <time>2020-03-14T15:23:55.000Z</time>
      </trkpt>
      <trkpt lat="45.90042" lon="4.47808">
        <ele>526.20001220703</ele>
        <time>2020-03-14T15:23:56.000Z</time>
      </trkpt>
      <trkpt lat="45.90042" lon="4.47807">
        <ele>526.20001220703</ele>
        <time>2020-03-14T15:23:57.000Z</time>
      </trkpt>
      <trkpt lat="45.90043" lon="4.47806">
        <ele>526.59997558594</ele>
        <time>2020-03-14T15:23:58.000Z</time>
      </trkpt>
      <trkpt lat="45.90044" lon="4.47805">
        <ele>526.79998779297</ele>
        <time>2020-03-14T15:23:59.000Z</time>
      </trkpt>
      <trkpt lat="45.90044" lon="4.47803">
        <ele>527</ele>
        <time>2020-03-14T15:24:00.000Z</time>
      </trkpt>
      <trkpt lat="45.90045" lon="4.47801">
        <ele>527</ele>
        <time>2020-03-14T15:24:01.000Z</time>
      </trkpt>
      <trkpt lat="45.90045" lon="4.478">
        <ele>527.20001220703</ele>
        <time>2020-03-14T15:24:02.000Z</time>
      </trkpt>
      <trkpt lat="45.90046" lon="4.47798">
        <ele>527.40002441406</ele>
        <time>2020-03-14T15:24:03.000Z</time>
      </trkpt>
      <trkpt lat="45.90046" lon="4.47796">
        <ele>527.79998779297</ele>
        <time>2020-03-14T15:24:04.000Z</time>
      </trkpt>
      <trkpt lat="45.90046" lon="4.47795">
        <ele>528.40002441406</ele>
        <time>2020-03-14T15:24:05.000Z</time>
      </trkpt>
      <trkpt lat="45.90046" lon="4.47793">
        <ele>528.79998779297</ele>
        <time>2020-03-14T15:24:06.000Z</time>
      </trkpt>
      <trkpt lat="45.90046" lon="4.47792">
        <ele>529.20001220703</ele>
        <time>2020-03-14T15:24:07.000Z</time>
      </trkpt>
      <trkpt lat="45.90047" lon="4.4779">
        <ele>529.40002441406</ele>
        <time>2020-03-14T15:24:08.000Z</time>
      </trkpt>
      <trkpt lat="45.90047" lon="4.47788">
        <ele>529.40002441406</ele>
        <time>2020-03-14T15:24:09.000Z</time>
      </trkpt>
      <trkpt lat="45.90048" lon="4.47787">
        <ele>529.40002441406</ele>
        <time>2020-03-14T15:24:10.000Z</time>
      </trkpt>
      <trkpt lat="45.90048" lon="4.47785">
        <ele>529.59997558594</ele>
        <time>2020-03-14T15:24:11.000Z</time>
      </trkpt>
      <trkpt lat="45.90049" lon="4.47783">
        <ele>529.59997558594</ele>
        <time>2020-03-14T15:24:12.000Z</time>
      </trkpt>
      <trkpt lat="45.90049" lon="4.47782">
        <ele>529.40002441406</ele>
        <time>2020-03-14T15:24:13.000Z</time>
      </trkpt>
      <trkpt lat="45.9005" lon="4.4778">
        <ele>529.40002441406</ele>
        <time>2020-03-14T15:24:14.000Z</time>
      </trkpt>
      <trkpt lat="45.9005" lon="4.47779">
        <ele>529.40002441406</ele>
        <time>2020-03-14T15:24:15.000Z</time>
      </trkpt>
      <trkpt lat="45.9005" lon="4.47777">
        <ele>529.59997558594</ele>
        <time>2020-03-14T15:24:16.000Z</time>
      </trkpt>
      <trkpt lat="45.90051" lon="4.47776">
        <ele>529.59997558594</ele>
        <time>2020-03-14T15:24:17.000Z</time>
      </trkpt>
      <trkpt lat="45.90051" lon="4.47774">
        <ele>529.79998779297</ele>
        <time>2020-03-14T15:24:18.000Z</time>
      </trkpt>
      <trkpt lat="45.90051" lon="4.47772">
        <ele>530</ele>
        <time>2020-03-14T15:24:19.000Z</time>
      </trkpt>
      <trkpt lat="45.90051" lon="4.47771">
        <ele>530.20001220703</ele>
        <time>2020-03-14T15:24:20.000Z</time>
      </trkpt>
      <trkpt lat="45.90051" lon="4.47769">
        <ele>530.20001220703</ele>
        <time>2020-03-14T15:24:21.000Z</time>
      </trkpt>
      <trkpt lat="45.90051" lon="4.47767">
        <ele>530.40002441406</ele>
        <time>2020-03-14T15:24:22.000Z</time>
      </trkpt>
      <trkpt lat="45.90052" lon="4.47766">
        <ele>530.59997558594</ele>
        <time>2020-03-14T15:24:23.000Z</time>
      </trkpt>
      <trkpt lat="45.90052" lon="4.47764">
        <ele>530.59997558594</ele>
        <time>2020-03-14T15:24:24.000Z</time>
      </trkpt>
      <trkpt lat="45.90052" lon="4.47762">
        <ele>530.79998779297</ele>
        <time>2020-03-14T15:24:25.000Z</time>
      </trkpt>
      <trkpt lat="45.90052" lon="4.4776">
        <ele>530.79998779297</ele>
        <time>2020-03-14T15:24:26.000Z</time>
      </trkpt>
      <trkpt lat="45.90053" lon="4.47758">
        <ele>530.79998779297</ele>
        <time>2020-03-14T15:24:27.000Z</time>
      </trkpt>
      <trkpt lat="45.90053" lon="4.47757">
        <ele>530.79998779297</ele>
        <time>2020-03-14T15:24:28.000Z</time>
      </trkpt>
      <trkpt lat="45.90053" lon="4.47755">
        <ele>530.79998779297</ele>
        <time>2020-03-14T15:24:29.000Z</time>
      </trkpt>
      <trkpt lat="45.90054" lon="4.47753">
        <ele>530.79998779297</ele>
        <time>2020-03-14T15:24:30.000Z</time>
      </trkpt>
      <trkpt lat="45.90054" lon="4.47751">
        <ele>530.79998779297</ele>
        <time>2020-03-14T15:24:31.000Z</time>
      </trkpt>
      <trkpt lat="45.90054" lon="4.47749">
        <ele>530.79998779297</ele>
        <time>2020-03-14T15:24:32.000Z</time>
      </trkpt>
      <trkpt lat="45.90054" lon="4.47747">
        <ele>531</ele>
        <time>2020-03-14T15:24:33.000Z</time>
      </trkpt>
      <trkpt lat="45.90053" lon="4.47745">
        <ele>531</ele>
        <time>2020-03-14T15:24:34.000Z</time>
      </trkpt>
      <trkpt lat="45.90053" lon="4.47742">
        <ele>531.40002441406</ele>
        <time>2020-03-14T15:24:35.000Z</time>
      </trkpt>
      <trkpt lat="45.90053" lon="4.4774">
        <ele>531.79998779297</ele>
        <time>2020-03-14T15:24:36.000Z</time>
      </trkpt>
      <trkpt lat="45.90053" lon="4.47738">
        <ele>532</ele>
        <time>2020-03-14T15:24:37.000Z</time>
      </trkpt>
      <trkpt lat="45.90053" lon="4.47735">
        <ele>532.20001220703</ele>
        <time>2020-03-14T15:24:38.000Z</time>
      </trkpt>
      <trkpt lat="45.90053" lon="4.47733">
        <ele>532.40002441406</ele>
        <time>2020-03-14T15:24:39.000Z</time>
      </trkpt>
      <trkpt lat="45.90053" lon="4.47731">
        <ele>532.59997558594</ele>
        <time>2020-03-14T15:24:40.000Z</time>
      </trkpt>
      <trkpt lat="45.90054" lon="4.47729">
        <ele>532.59997558594</ele>
        <time>2020-03-14T15:24:41.000Z</time>
      </trkpt>
      <trkpt lat="45.90055" lon="4.47728">
        <ele>532.79998779297</ele>
        <time>2020-03-14T15:24:42.000Z</time>
      </trkpt>
      <trkpt lat="45.90055" lon="4.47726">
        <ele>532.79998779297</ele>
        <time>2020-03-14T15:24:43.000Z</time>
      </trkpt>
      <trkpt lat="45.90056" lon="4.47724">
        <ele>532.79998779297</ele>
        <time>2020-03-14T15:24:44.000Z</time>
      </trkpt>
      <trkpt lat="45.90056" lon="4.47721">
        <ele>533</ele>
        <time>2020-03-14T15:24:45.000Z</time>
      </trkpt>
      <trkpt lat="45.90056" lon="4.47719">
        <ele>533</ele>
        <time>2020-03-14T15:24:46.000Z</time>
      </trkpt>
      <trkpt lat="45.90056" lon="4.47717">
        <ele>533.20001220703</ele>
        <time>2020-03-14T15:24:47.000Z</time>
      </trkpt>
      <trkpt lat="45.90057" lon="4.47715">
        <ele>533.40002441406</ele>
        <time>2020-03-14T15:24:48.000Z</time>
      </trkpt>
      <trkpt lat="45.90057" lon="4.47713">
        <ele>533.40002441406</ele>
        <time>2020-03-14T15:24:49.000Z</time>
      </trkpt>
      <trkpt lat="45.90057" lon="4.47711">
        <ele>533.59997558594</ele>
        <time>2020-03-14T15:24:50.000Z</time>
      </trkpt>
      <trkpt lat="45.90056" lon="4.47708">
        <ele>533.79998779297</ele>
        <time>2020-03-14T15:24:51.000Z</time>
      </trkpt>
      <trkpt lat="45.90056" lon="4.47706">
        <ele>533.79998779297</ele>
        <time>2020-03-14T15:24:52.000Z</time>
      </trkpt>
      <trkpt lat="45.90056" lon="4.47704">
        <ele>533.59997558594</ele>
        <time>2020-03-14T15:24:53.000Z</time>
      </trkpt>
      <trkpt lat="45.90056" lon="4.47702">
        <ele>533.40002441406</ele>
        <time>2020-03-14T15:24:54.000Z</time>
      </trkpt>
      <trkpt lat="45.90056" lon="4.477">
        <ele>533.20001220703</ele>
        <time>2020-03-14T15:24:55.000Z</time>
      </trkpt>
      <trkpt lat="45.90056" lon="4.47698">
        <ele>533.20001220703</ele>
        <time>2020-03-14T15:24:56.000Z</time>
      </trkpt>
      <trkpt lat="45.90056" lon="4.47695">
        <ele>533</ele>
        <time>2020-03-14T15:24:57.000Z</time>
      </trkpt>
      <trkpt lat="45.90056" lon="4.47693">
        <ele>533</ele>
        <time>2020-03-14T15:24:58.000Z</time>
      </trkpt>
      <trkpt lat="45.90056" lon="4.47692">
        <ele>533</ele>
        <time>2020-03-14T15:24:59.000Z</time>
      </trkpt>
      <trkpt lat="45.90056" lon="4.47691">
        <ele>533</ele>
        <time>2020-03-14T15:25:00.000Z</time>
      </trkpt>
      <trkpt lat="45.90056" lon="4.47689">
        <ele>533.20001220703</ele>
        <time>2020-03-14T15:25:01.000Z</time>
      </trkpt>
      <trkpt lat="45.90056" lon="4.47687">
        <ele>533.20001220703</ele>
        <time>2020-03-14T15:25:02.000Z</time>
      </trkpt>
      <trkpt lat="45.90056" lon="4.47685">
        <ele>533</ele>
        <time>2020-03-14T15:25:03.000Z</time>
      </trkpt>
      <trkpt lat="45.90056" lon="4.47682">
        <ele>533</ele>
        <time>2020-03-14T15:25:04.000Z</time>
      </trkpt>
      <trkpt lat="45.90056" lon="4.4768">
        <ele>533.20001220703</ele>
        <time>2020-03-14T15:25:05.000Z</time>
      </trkpt>
      <trkpt lat="45.90056" lon="4.47678">
        <ele>533.20001220703</ele>
        <time>2020-03-14T15:25:06.000Z</time>
      </trkpt>
      <trkpt lat="45.90056" lon="4.47676">
        <ele>533.20001220703</ele>
        <time>2020-03-14T15:25:07.000Z</time>
      </trkpt>
      <trkpt lat="45.90056" lon="4.47674">
        <ele>533.20001220703</ele>
        <time>2020-03-14T15:25:08.000Z</time>
      </trkpt>
      <trkpt lat="45.90056" lon="4.47671">
        <ele>533.40002441406</ele>
        <time>2020-03-14T15:25:09.000Z</time>
      </trkpt>
      <trkpt lat="45.90056" lon="4.47669">
        <ele>533.40002441406</ele>
        <time>2020-03-14T15:25:10.000Z</time>
      </trkpt>
      <trkpt lat="45.90056" lon="4.47667">
        <ele>533.40002441406</ele>
        <time>2020-03-14T15:25:11.000Z</time>
      </trkpt>
      <trkpt lat="45.90056" lon="4.47665">
        <ele>533.59997558594</ele>
        <time>2020-03-14T15:25:12.000Z</time>
      </trkpt>
      <trkpt lat="45.90056" lon="4.47663">
        <ele>533.59997558594</ele>
        <time>2020-03-14T15:25:13.000Z</time>
      </trkpt>
      <trkpt lat="45.90056" lon="4.47661">
        <ele>533.79998779297</ele>
        <time>2020-03-14T15:25:14.000Z</time>
      </trkpt>
      <trkpt lat="45.90056" lon="4.47659">
        <ele>534</ele>
        <time>2020-03-14T15:25:15.000Z</time>
      </trkpt>
      <trkpt lat="45.90056" lon="4.47657">
        <ele>534.20001220703</ele>
        <time>2020-03-14T15:25:16.000Z</time>
      </trkpt>
      <trkpt lat="45.90056" lon="4.47655">
        <ele>534.40002441406</ele>
        <time>2020-03-14T15:25:17.000Z</time>
      </trkpt>
      <trkpt lat="45.90056" lon="4.47653">
        <ele>534.40002441406</ele>
        <time>2020-03-14T15:25:18.000Z</time>
      </trkpt>
      <trkpt lat="45.90056" lon="4.47651">
        <ele>534.40002441406</ele>
        <time>2020-03-14T15:25:19.000Z</time>
      </trkpt>
      <trkpt lat="45.90056" lon="4.47648">
        <ele>534.40002441406</ele>
        <time>2020-03-14T15:25:20.000Z</time>
      </trkpt>
      <trkpt lat="45.90056" lon="4.47645">
        <ele>534.40002441406</ele>
        <time>2020-03-14T15:25:21.000Z</time>
      </trkpt>
      <trkpt lat="45.90056" lon="4.47643">
        <ele>534.40002441406</ele>
        <time>2020-03-14T15:25:22.000Z</time>
      </trkpt>
      <trkpt lat="45.90055" lon="4.4764">
        <ele>534.40002441406</ele>
        <time>2020-03-14T15:25:23.000Z</time>
      </trkpt>
      <trkpt lat="45.90055" lon="4.47637">
        <ele>534.40002441406</ele>
        <time>2020-03-14T15:25:24.000Z</time>
      </trkpt>
      <trkpt lat="45.90055" lon="4.47635">
        <ele>534.40002441406</ele>
        <time>2020-03-14T15:25:25.000Z</time>
      </trkpt>
      <trkpt lat="45.90055" lon="4.47633">
        <ele>534.59997558594</ele>
        <time>2020-03-14T15:25:26.000Z</time>
      </trkpt>
      <trkpt lat="45.90055" lon="4.4763">
        <ele>534.59997558594</ele>
        <time>2020-03-14T15:25:27.000Z</time>
      </trkpt>
      <trkpt lat="45.90055" lon="4.47629">
        <ele>534.79998779297</ele>
        <time>2020-03-14T15:25:28.000Z</time>
      </trkpt>
      <trkpt lat="45.90055" lon="4.47627">
        <ele>534.79998779297</ele>
        <time>2020-03-14T15:25:29.000Z</time>
      </trkpt>
      <trkpt lat="45.90054" lon="4.47625">
        <ele>535</ele>
        <time>2020-03-14T15:25:30.000Z</time>
      </trkpt>
      <trkpt lat="45.90054" lon="4.47623">
        <ele>535.20001220703</ele>
        <time>2020-03-14T15:25:31.000Z</time>
      </trkpt>
      <trkpt lat="45.90053" lon="4.4762">
        <ele>535.20001220703</ele>
        <time>2020-03-14T15:25:32.000Z</time>
      </trkpt>
      <trkpt lat="45.90053" lon="4.47618">
        <ele>535.40002441406</ele>
        <time>2020-03-14T15:25:33.000Z</time>
      </trkpt>
      <trkpt lat="45.90053" lon="4.47616">
        <ele>535.59997558594</ele>
        <time>2020-03-14T15:25:34.000Z</time>
      </trkpt>
      <trkpt lat="45.90053" lon="4.47614">
        <ele>535.59997558594</ele>
        <time>2020-03-14T15:25:35.000Z</time>
      </trkpt>
      <trkpt lat="45.90052" lon="4.47612">
        <ele>535.79998779297</ele>
        <time>2020-03-14T15:25:36.000Z</time>
      </trkpt>
      <trkpt lat="45.90052" lon="4.4761">
        <ele>536</ele>
        <time>2020-03-14T15:25:37.000Z</time>
      </trkpt>
      <trkpt lat="45.90051" lon="4.47608">
        <ele>536</ele>
        <time>2020-03-14T15:25:38.000Z</time>
      </trkpt>
      <trkpt lat="45.90051" lon="4.47606">
        <ele>536.20001220703</ele>
        <time>2020-03-14T15:25:39.000Z</time>
      </trkpt>
      <trkpt lat="45.9005" lon="4.47604">
        <ele>536.20001220703</ele>
        <time>2020-03-14T15:25:40.000Z</time>
      </trkpt>
      <trkpt lat="45.9005" lon="4.47602">
        <ele>536.20001220703</ele>
        <time>2020-03-14T15:25:41.000Z</time>
      </trkpt>
      <trkpt lat="45.90049" lon="4.47601">
        <ele>536.40002441406</ele>
        <time>2020-03-14T15:25:42.000Z</time>
      </trkpt>
      <trkpt lat="45.90049" lon="4.47599">
        <ele>536.40002441406</ele>
        <time>2020-03-14T15:25:43.000Z</time>
      </trkpt>
      <trkpt lat="45.90048" lon="4.47597">
        <ele>536.59997558594</ele>
        <time>2020-03-14T15:25:44.000Z</time>
      </trkpt>
      <trkpt lat="45.90048" lon="4.47595">
        <ele>536.79998779297</ele>
        <time>2020-03-14T15:25:45.000Z</time>
      </trkpt>
      <trkpt lat="45.90047" lon="4.47593">
        <ele>536.79998779297</ele>
        <time>2020-03-14T15:25:46.000Z</time>
      </trkpt>
      <trkpt lat="45.90047" lon="4.47591">
        <ele>537</ele>
        <time>2020-03-14T15:25:47.000Z</time>
      </trkpt>
      <trkpt lat="45.90046" lon="4.47589">
        <ele>537.20001220703</ele>
        <time>2020-03-14T15:25:48.000Z</time>
      </trkpt>
      <trkpt lat="45.90046" lon="4.47587">
        <ele>537.40002441406</ele>
        <time>2020-03-14T15:25:49.000Z</time>
      </trkpt>
      <trkpt lat="45.90045" lon="4.47585">
        <ele>537.59997558594</ele>
        <time>2020-03-14T15:25:50.000Z</time>
      </trkpt>
      <trkpt lat="45.90044" lon="4.47583">
        <ele>537.79998779297</ele>
        <time>2020-03-14T15:25:51.000Z</time>
      </trkpt>
      <trkpt lat="45.90044" lon="4.47581">
        <ele>538.20001220703</ele>
        <time>2020-03-14T15:25:52.000Z</time>
      </trkpt>
      <trkpt lat="45.90043" lon="4.47579">
        <ele>538.40002441406</ele>
        <time>2020-03-14T15:25:53.000Z</time>
      </trkpt>
      <trkpt lat="45.90043" lon="4.47577">
        <ele>538.79998779297</ele>
        <time>2020-03-14T15:25:54.000Z</time>
      </trkpt>
      <trkpt lat="45.90042" lon="4.47576">
        <ele>539</ele>
        <time>2020-03-14T15:25:55.000Z</time>
      </trkpt>
      <trkpt lat="45.90042" lon="4.47574">
        <ele>539.20001220703</ele>
        <time>2020-03-14T15:25:56.000Z</time>
      </trkpt>
      <trkpt lat="45.90042" lon="4.47572">
        <ele>539.20001220703</ele>
        <time>2020-03-14T15:25:57.000Z</time>
      </trkpt>
      <trkpt lat="45.90041" lon="4.4757">
        <ele>539.40002441406</ele>
        <time>2020-03-14T15:25:58.000Z</time>
      </trkpt>
      <trkpt lat="45.90041" lon="4.47568">
        <ele>539.59997558594</ele>
        <time>2020-03-14T15:25:59.000Z</time>
      </trkpt>
      <trkpt lat="45.9004" lon="4.47566">
        <ele>539.79998779297</ele>
        <time>2020-03-14T15:26:00.000Z</time>
      </trkpt>
      <trkpt lat="45.90039" lon="4.47564">
        <ele>539.79998779297</ele>
        <time>2020-03-14T15:26:01.000Z</time>
      </trkpt>
      <trkpt lat="45.90039" lon="4.47562">
        <ele>540</ele>
        <time>2020-03-14T15:26:02.000Z</time>
      </trkpt>
      <trkpt lat="45.90038" lon="4.4756">
        <ele>540.20001220703</ele>
        <time>2020-03-14T15:26:03.000Z</time>
      </trkpt>
      <trkpt lat="45.90038" lon="4.47558">
        <ele>540.40002441406</ele>
        <time>2020-03-14T15:26:04.000Z</time>
      </trkpt>
      <trkpt lat="45.90037" lon="4.47555">
        <ele>540.59997558594</ele>
        <time>2020-03-14T15:26:05.000Z</time>
      </trkpt>
      <trkpt lat="45.90037" lon="4.47553">
        <ele>540.59997558594</ele>
        <time>2020-03-14T15:26:06.000Z</time>
      </trkpt>
      <trkpt lat="45.90036" lon="4.47551">
        <ele>540.79998779297</ele>
        <time>2020-03-14T15:26:07.000Z</time>
      </trkpt>
      <trkpt lat="45.90036" lon="4.47549">
        <ele>540.79998779297</ele>
        <time>2020-03-14T15:26:08.000Z</time>
      </trkpt>
      <trkpt lat="45.90036" lon="4.47548">
        <ele>541</ele>
        <time>2020-03-14T15:26:09.000Z</time>
      </trkpt>
      <trkpt lat="45.90035" lon="4.47546">
        <ele>541.20001220703</ele>
        <time>2020-03-14T15:26:10.000Z</time>
      </trkpt>
      <trkpt lat="45.90035" lon="4.47544">
        <ele>541.59997558594</ele>
        <time>2020-03-14T15:26:11.000Z</time>
      </trkpt>
      <trkpt lat="45.90034" lon="4.47542">
        <ele>541.79998779297</ele>
        <time>2020-03-14T15:26:12.000Z</time>
      </trkpt>
      <trkpt lat="45.90033" lon="4.47541">
        <ele>541.79998779297</ele>
        <time>2020-03-14T15:26:13.000Z</time>
      </trkpt>
      <trkpt lat="45.90033" lon="4.47539">
        <ele>542</ele>
        <time>2020-03-14T15:26:14.000Z</time>
      </trkpt>
      <trkpt lat="45.90032" lon="4.47537">
        <ele>542</ele>
        <time>2020-03-14T15:26:15.000Z</time>
      </trkpt>
      <trkpt lat="45.90032" lon="4.47535">
        <ele>542</ele>
        <time>2020-03-14T15:26:16.000Z</time>
      </trkpt>
      <trkpt lat="45.90032" lon="4.47534">
        <ele>542.20001220703</ele>
        <time>2020-03-14T15:26:17.000Z</time>
      </trkpt>
      <trkpt lat="45.90032" lon="4.47533">
        <ele>542.40002441406</ele>
        <time>2020-03-14T15:26:18.000Z</time>
      </trkpt>
      <trkpt lat="45.90033" lon="4.47531">
        <ele>542.59997558594</ele>
        <time>2020-03-14T15:26:19.000Z</time>
      </trkpt>
      <trkpt lat="45.90033" lon="4.47529">
        <ele>542.59997558594</ele>
        <time>2020-03-14T15:26:20.000Z</time>
      </trkpt>
      <trkpt lat="45.90033" lon="4.47527">
        <ele>542.79998779297</ele>
        <time>2020-03-14T15:26:21.000Z</time>
      </trkpt>
      <trkpt lat="45.90033" lon="4.47525">
        <ele>542.79998779297</ele>
        <time>2020-03-14T15:26:22.000Z</time>
      </trkpt>
      <trkpt lat="45.90033" lon="4.47523">
        <ele>543</ele>
        <time>2020-03-14T15:26:23.000Z</time>
      </trkpt>
      <trkpt lat="45.90033" lon="4.47521">
        <ele>543</ele>
        <time>2020-03-14T15:26:24.000Z</time>
      </trkpt>
      <trkpt lat="45.90033" lon="4.47518">
        <ele>543</ele>
        <time>2020-03-14T15:26:25.000Z</time>
      </trkpt>
      <trkpt lat="45.90033" lon="4.47515">
        <ele>543</ele>
        <time>2020-03-14T15:26:26.000Z</time>
      </trkpt>
      <trkpt lat="45.90033" lon="4.47513">
        <ele>543.20001220703</ele>
        <time>2020-03-14T15:26:27.000Z</time>
      </trkpt>
      <trkpt lat="45.90033" lon="4.47511">
        <ele>543.20001220703</ele>
        <time>2020-03-14T15:26:28.000Z</time>
      </trkpt>
      <trkpt lat="45.90034" lon="4.47509">
        <ele>543.40002441406</ele>
        <time>2020-03-14T15:26:29.000Z</time>
      </trkpt>
      <trkpt lat="45.90034" lon="4.47507">
        <ele>543.40002441406</ele>
        <time>2020-03-14T15:26:30.000Z</time>
      </trkpt>
      <trkpt lat="45.90034" lon="4.47505">
        <ele>543.59997558594</ele>
        <time>2020-03-14T15:26:31.000Z</time>
      </trkpt>
      <trkpt lat="45.90034" lon="4.47503">
        <ele>543.79998779297</ele>
        <time>2020-03-14T15:26:32.000Z</time>
      </trkpt>
      <trkpt lat="45.90034" lon="4.47501">
        <ele>543.79998779297</ele>
        <time>2020-03-14T15:26:33.000Z</time>
      </trkpt>
      <trkpt lat="45.90034" lon="4.47499">
        <ele>544</ele>
        <time>2020-03-14T15:26:34.000Z</time>
      </trkpt>
      <trkpt lat="45.90034" lon="4.47497">
        <ele>544</ele>
        <time>2020-03-14T15:26:35.000Z</time>
      </trkpt>
      <trkpt lat="45.90034" lon="4.47495">
        <ele>544.20001220703</ele>
        <time>2020-03-14T15:26:36.000Z</time>
      </trkpt>
      <trkpt lat="45.90034" lon="4.47493">
        <ele>544.20001220703</ele>
        <time>2020-03-14T15:26:37.000Z</time>
      </trkpt>
      <trkpt lat="45.90034" lon="4.4749">
        <ele>544.40002441406</ele>
        <time>2020-03-14T15:26:38.000Z</time>
      </trkpt>
      <trkpt lat="45.90035" lon="4.47488">
        <ele>544.40002441406</ele>
        <time>2020-03-14T15:26:39.000Z</time>
      </trkpt>
      <trkpt lat="45.90035" lon="4.47486">
        <ele>544.59997558594</ele>
        <time>2020-03-14T15:26:40.000Z</time>
      </trkpt>
      <trkpt lat="45.90035" lon="4.47484">
        <ele>544.59997558594</ele>
        <time>2020-03-14T15:26:41.000Z</time>
      </trkpt>
      <trkpt lat="45.90035" lon="4.47482">
        <ele>544.79998779297</ele>
        <time>2020-03-14T15:26:42.000Z</time>
      </trkpt>
      <trkpt lat="45.90035" lon="4.4748">
        <ele>545</ele>
        <time>2020-03-14T15:26:43.000Z</time>
      </trkpt>
      <trkpt lat="45.90035" lon="4.47478">
        <ele>545.20001220703</ele>
        <time>2020-03-14T15:26:44.000Z</time>
      </trkpt>
      <trkpt lat="45.90034" lon="4.47476">
        <ele>545.59997558594</ele>
        <time>2020-03-14T15:26:45.000Z</time>
      </trkpt>
      <trkpt lat="45.90034" lon="4.47474">
        <ele>545.79998779297</ele>
        <time>2020-03-14T15:26:46.000Z</time>
      </trkpt>
      <trkpt lat="45.90034" lon="4.47471">
        <ele>546</ele>
        <time>2020-03-14T15:26:47.000Z</time>
      </trkpt>
      <trkpt lat="45.90034" lon="4.47469">
        <ele>546.20001220703</ele>
        <time>2020-03-14T15:26:48.000Z</time>
      </trkpt>
      <trkpt lat="45.90034" lon="4.47467">
        <ele>546.40002441406</ele>
        <time>2020-03-14T15:26:49.000Z</time>
      </trkpt>
      <trkpt lat="45.90033" lon="4.47464">
        <ele>546.40002441406</ele>
        <time>2020-03-14T15:26:50.000Z</time>
      </trkpt>
      <trkpt lat="45.90034" lon="4.47462">
        <ele>546.59997558594</ele>
        <time>2020-03-14T15:26:51.000Z</time>
      </trkpt>
      <trkpt lat="45.90035" lon="4.47461">
        <ele>546.79998779297</ele>
        <time>2020-03-14T15:26:52.000Z</time>
      </trkpt>
      <trkpt lat="45.90035" lon="4.47459">
        <ele>547</ele>
        <time>2020-03-14T15:26:53.000Z</time>
      </trkpt>
      <trkpt lat="45.90036" lon="4.47457">
        <ele>547.20001220703</ele>
        <time>2020-03-14T15:26:54.000Z</time>
      </trkpt>
      <trkpt lat="45.90037" lon="4.47456">
        <ele>547.40002441406</ele>
        <time>2020-03-14T15:26:55.000Z</time>
      </trkpt>
      <trkpt lat="45.90038" lon="4.47455">
        <ele>547.40002441406</ele>
        <time>2020-03-14T15:26:56.000Z</time>
      </trkpt>
      <trkpt lat="45.90039" lon="4.47453">
        <ele>547.59997558594</ele>
        <time>2020-03-14T15:26:57.000Z</time>
      </trkpt>
      <trkpt lat="45.90039" lon="4.47451">
        <ele>547.79998779297</ele>
        <time>2020-03-14T15:26:58.000Z</time>
      </trkpt>
      <trkpt lat="45.9004" lon="4.47449">
        <ele>548</ele>
        <time>2020-03-14T15:26:59.000Z</time>
      </trkpt>
      <trkpt lat="45.90041" lon="4.47447">
        <ele>548</ele>
        <time>2020-03-14T15:27:00.000Z</time>
      </trkpt>
      <trkpt lat="45.90042" lon="4.47445">
        <ele>548</ele>
        <time>2020-03-14T15:27:01.000Z</time>
      </trkpt>
      <trkpt lat="45.90042" lon="4.47444">
        <ele>548</ele>
        <time>2020-03-14T15:27:02.000Z</time>
      </trkpt>
      <trkpt lat="45.90043" lon="4.47442">
        <ele>548</ele>
        <time>2020-03-14T15:27:03.000Z</time>
      </trkpt>
      <trkpt lat="45.90043" lon="4.4744">
        <ele>548</ele>
        <time>2020-03-14T15:27:04.000Z</time>
      </trkpt>
      <trkpt lat="45.90044" lon="4.47438">
        <ele>548</ele>
        <time>2020-03-14T15:27:05.000Z</time>
      </trkpt>
      <trkpt lat="45.90044" lon="4.47436">
        <ele>548.20001220703</ele>
        <time>2020-03-14T15:27:06.000Z</time>
      </trkpt>
      <trkpt lat="45.90044" lon="4.47434">
        <ele>548.20001220703</ele>
        <time>2020-03-14T15:27:07.000Z</time>
      </trkpt>
      <trkpt lat="45.90044" lon="4.47432">
        <ele>548.40002441406</ele>
        <time>2020-03-14T15:27:08.000Z</time>
      </trkpt>
      <trkpt lat="45.90045" lon="4.4743">
        <ele>548.40002441406</ele>
        <time>2020-03-14T15:27:09.000Z</time>
      </trkpt>
      <trkpt lat="45.90045" lon="4.47428">
        <ele>548.40002441406</ele>
        <time>2020-03-14T15:27:10.000Z</time>
      </trkpt>
      <trkpt lat="45.90046" lon="4.47427">
        <ele>548.59997558594</ele>
        <time>2020-03-14T15:27:11.000Z</time>
      </trkpt>
      <trkpt lat="45.90046" lon="4.47425">
        <ele>548.79998779297</ele>
        <time>2020-03-14T15:27:12.000Z</time>
      </trkpt>
      <trkpt lat="45.90047" lon="4.47423">
        <ele>548.79998779297</ele>
        <time>2020-03-14T15:27:13.000Z</time>
      </trkpt>
      <trkpt lat="45.90047" lon="4.47422">
        <ele>548.79998779297</ele>
        <time>2020-03-14T15:27:14.000Z</time>
      </trkpt>
      <trkpt lat="45.90047" lon="4.47419">
        <ele>549</ele>
        <time>2020-03-14T15:27:15.000Z</time>
      </trkpt>
      <trkpt lat="45.90048" lon="4.47416">
        <ele>549</ele>
        <time>2020-03-14T15:27:16.000Z</time>
      </trkpt>
      <trkpt lat="45.90048" lon="4.47415">
        <ele>549.20001220703</ele>
        <time>2020-03-14T15:27:17.000Z</time>
      </trkpt>
      <trkpt lat="45.90049" lon="4.47413">
        <ele>549.20001220703</ele>
        <time>2020-03-14T15:27:18.000Z</time>
      </trkpt>
      <trkpt lat="45.90049" lon="4.47411">
        <ele>549.40002441406</ele>
        <time>2020-03-14T15:27:19.000Z</time>
      </trkpt>
      <trkpt lat="45.9005" lon="4.47409">
        <ele>549.40002441406</ele>
        <time>2020-03-14T15:27:20.000Z</time>
      </trkpt>
      <trkpt lat="45.90051" lon="4.47407">
        <ele>549.40002441406</ele>
        <time>2020-03-14T15:27:21.000Z</time>
      </trkpt>
      <trkpt lat="45.90051" lon="4.47405">
        <ele>549.40002441406</ele>
        <time>2020-03-14T15:27:22.000Z</time>
      </trkpt>
      <trkpt lat="45.90052" lon="4.47403">
        <ele>549.59997558594</ele>
        <time>2020-03-14T15:27:23.000Z</time>
      </trkpt>
      <trkpt lat="45.90052" lon="4.47401">
        <ele>549.59997558594</ele>
        <time>2020-03-14T15:27:24.000Z</time>
      </trkpt>
      <trkpt lat="45.90053" lon="4.47399">
        <ele>549.59997558594</ele>
        <time>2020-03-14T15:27:25.000Z</time>
      </trkpt>
      <trkpt lat="45.90053" lon="4.47397">
        <ele>549.79998779297</ele>
        <time>2020-03-14T15:27:26.000Z</time>
      </trkpt>
      <trkpt lat="45.90054" lon="4.47395">
        <ele>550</ele>
        <time>2020-03-14T15:27:27.000Z</time>
      </trkpt>
      <trkpt lat="45.90054" lon="4.47392">
        <ele>550</ele>
        <time>2020-03-14T15:27:28.000Z</time>
      </trkpt>
      <trkpt lat="45.90054" lon="4.4739">
        <ele>550.20001220703</ele>
        <time>2020-03-14T15:27:29.000Z</time>
      </trkpt>
      <trkpt lat="45.90054" lon="4.47388">
        <ele>550.20001220703</ele>
        <time>2020-03-14T15:27:30.000Z</time>
      </trkpt>
      <trkpt lat="45.90055" lon="4.47387">
        <ele>550.40002441406</ele>
        <time>2020-03-14T15:27:31.000Z</time>
      </trkpt>
      <trkpt lat="45.90055" lon="4.47385">
        <ele>550.40002441406</ele>
        <time>2020-03-14T15:27:32.000Z</time>
      </trkpt>
      <trkpt lat="45.90055" lon="4.47383">
        <ele>550.40002441406</ele>
        <time>2020-03-14T15:27:33.000Z</time>
      </trkpt>
      <trkpt lat="45.90055" lon="4.47381">
        <ele>550.40002441406</ele>
        <time>2020-03-14T15:27:34.000Z</time>
      </trkpt>
      <trkpt lat="45.90055" lon="4.47379">
        <ele>550.40002441406</ele>
        <time>2020-03-14T15:27:35.000Z</time>
      </trkpt>
      <trkpt lat="45.90056" lon="4.47377">
        <ele>550.59997558594</ele>
        <time>2020-03-14T15:27:36.000Z</time>
      </trkpt>
      <trkpt lat="45.90056" lon="4.47376">
        <ele>550.59997558594</ele>
        <time>2020-03-14T15:27:37.000Z</time>
      </trkpt>
      <trkpt lat="45.90056" lon="4.47374">
        <ele>550.79998779297</ele>
        <time>2020-03-14T15:27:38.000Z</time>
      </trkpt>
      <trkpt lat="45.90057" lon="4.47372">
        <ele>551</ele>
        <time>2020-03-14T15:27:39.000Z</time>
      </trkpt>
      <trkpt lat="45.90057" lon="4.4737">
        <ele>551</ele>
        <time>2020-03-14T15:27:40.000Z</time>
      </trkpt>
      <trkpt lat="45.90057" lon="4.47368">
        <ele>551.20001220703</ele>
        <time>2020-03-14T15:27:41.000Z</time>
      </trkpt>
      <trkpt lat="45.90057" lon="4.47366">
        <ele>551.20001220703</ele>
        <time>2020-03-14T15:27:42.000Z</time>
      </trkpt>
      <trkpt lat="45.90057" lon="4.47364">
        <ele>551.40002441406</ele>
        <time>2020-03-14T15:27:43.000Z</time>
      </trkpt>
      <trkpt lat="45.90057" lon="4.47362">
        <ele>551.79998779297</ele>
        <time>2020-03-14T15:27:44.000Z</time>
      </trkpt>
      <trkpt lat="45.90057" lon="4.4736">
        <ele>552</ele>
        <time>2020-03-14T15:27:45.000Z</time>
      </trkpt>
      <trkpt lat="45.90059" lon="4.47359">
        <ele>552.40002441406</ele>
        <time>2020-03-14T15:27:46.000Z</time>
      </trkpt>
      <trkpt lat="45.90059" lon="4.47357">
        <ele>552.40002441406</ele>
        <time>2020-03-14T15:27:47.000Z</time>
      </trkpt>
      <trkpt lat="45.90059" lon="4.47355">
        <ele>552.59997558594</ele>
        <time>2020-03-14T15:27:48.000Z</time>
      </trkpt>
      <trkpt lat="45.90059" lon="4.47353">
        <ele>552.79998779297</ele>
        <time>2020-03-14T15:27:49.000Z</time>
      </trkpt>
      <trkpt lat="45.90059" lon="4.47351">
        <ele>553.20001220703</ele>
        <time>2020-03-14T15:27:50.000Z</time>
      </trkpt>
      <trkpt lat="45.90059" lon="4.47349">
        <ele>553.40002441406</ele>
        <time>2020-03-14T15:27:51.000Z</time>
      </trkpt>
      <trkpt lat="45.90059" lon="4.47347">
        <ele>553.59997558594</ele>
        <time>2020-03-14T15:27:52.000Z</time>
      </trkpt>
      <trkpt lat="45.9006" lon="4.47345">
        <ele>553.79998779297</ele>
        <time>2020-03-14T15:27:53.000Z</time>
      </trkpt>
      <trkpt lat="45.90059" lon="4.47343">
        <ele>553.79998779297</ele>
        <time>2020-03-14T15:27:54.000Z</time>
      </trkpt>
      <trkpt lat="45.90059" lon="4.47341">
        <ele>554</ele>
        <time>2020-03-14T15:27:55.000Z</time>
      </trkpt>
      <trkpt lat="45.90058" lon="4.47339">
        <ele>554.20001220703</ele>
        <time>2020-03-14T15:27:56.000Z</time>
      </trkpt>
      <trkpt lat="45.90058" lon="4.47337">
        <ele>554.40002441406</ele>
        <time>2020-03-14T15:27:57.000Z</time>
      </trkpt>
      <trkpt lat="45.90057" lon="4.47335">
        <ele>554.59997558594</ele>
        <time>2020-03-14T15:27:58.000Z</time>
      </trkpt>
      <trkpt lat="45.90057" lon="4.47333">
        <ele>555.20001220703</ele>
        <time>2020-03-14T15:27:59.000Z</time>
      </trkpt>
      <trkpt lat="45.90057" lon="4.47331">
        <ele>555.79998779297</ele>
        <time>2020-03-14T15:28:00.000Z</time>
      </trkpt>
      <trkpt lat="45.90056" lon="4.47329">
        <ele>556.40002441406</ele>
        <time>2020-03-14T15:28:01.000Z</time>
      </trkpt>
      <trkpt lat="45.90057" lon="4.47328">
        <ele>556.59997558594</ele>
        <time>2020-03-14T15:28:02.000Z</time>
      </trkpt>
      <trkpt lat="45.90057" lon="4.47326">
        <ele>557</ele>
        <time>2020-03-14T15:28:03.000Z</time>
      </trkpt>
      <trkpt lat="45.90057" lon="4.47324">
        <ele>557.40002441406</ele>
        <time>2020-03-14T15:28:04.000Z</time>
      </trkpt>
      <trkpt lat="45.90056" lon="4.47322">
        <ele>557.79998779297</ele>
        <time>2020-03-14T15:28:05.000Z</time>
      </trkpt>
      <trkpt lat="45.90056" lon="4.47321">
        <ele>558</ele>
        <time>2020-03-14T15:28:06.000Z</time>
      </trkpt>
      <trkpt lat="45.90056" lon="4.47319">
        <ele>558.20001220703</ele>
        <time>2020-03-14T15:28:07.000Z</time>
      </trkpt>
      <trkpt lat="45.90057" lon="4.47317">
        <ele>558.40002441406</ele>
        <time>2020-03-14T15:28:08.000Z</time>
      </trkpt>
      <trkpt lat="45.90057" lon="4.47316">
        <ele>558.40002441406</ele>
        <time>2020-03-14T15:28:09.000Z</time>
      </trkpt>
      <trkpt lat="45.90056" lon="4.47314">
        <ele>558.59997558594</ele>
        <time>2020-03-14T15:28:10.000Z</time>
      </trkpt>
      <trkpt lat="45.90056" lon="4.47312">
        <ele>558.79998779297</ele>
        <time>2020-03-14T15:28:11.000Z</time>
      </trkpt>
      <trkpt lat="45.90056" lon="4.47309">
        <ele>558.79998779297</ele>
        <time>2020-03-14T15:28:12.000Z</time>
      </trkpt>
      <trkpt lat="45.90056" lon="4.47307">
        <ele>559</ele>
        <time>2020-03-14T15:28:13.000Z</time>
      </trkpt>
      <trkpt lat="45.90056" lon="4.47306">
        <ele>559</ele>
        <time>2020-03-14T15:28:14.000Z</time>
      </trkpt>
      <trkpt lat="45.90056" lon="4.47303">
        <ele>559</ele>
        <time>2020-03-14T15:28:15.000Z</time>
      </trkpt>
      <trkpt lat="45.90055" lon="4.47301">
        <ele>559.20001220703</ele>
        <time>2020-03-14T15:28:16.000Z</time>
      </trkpt>
      <trkpt lat="45.90054" lon="4.473">
        <ele>559.40002441406</ele>
        <time>2020-03-14T15:28:17.000Z</time>
      </trkpt>
      <trkpt lat="45.90053" lon="4.47298">
        <ele>559.40002441406</ele>
        <time>2020-03-14T15:28:18.000Z</time>
      </trkpt>
      <trkpt lat="45.90053" lon="4.47296">
        <ele>559.40002441406</ele>
        <time>2020-03-14T15:28:19.000Z</time>
      </trkpt>
      <trkpt lat="45.90052" lon="4.47294">
        <ele>559.40002441406</ele>
        <time>2020-03-14T15:28:20.000Z</time>
      </trkpt>
      <trkpt lat="45.90051" lon="4.47292">
        <ele>559.59997558594</ele>
        <time>2020-03-14T15:28:21.000Z</time>
      </trkpt>
      <trkpt lat="45.90051" lon="4.4729">
        <ele>559.59997558594</ele>
        <time>2020-03-14T15:28:22.000Z</time>
      </trkpt>
      <trkpt lat="45.9005" lon="4.47287">
        <ele>559.79998779297</ele>
        <time>2020-03-14T15:28:23.000Z</time>
      </trkpt>
      <trkpt lat="45.90049" lon="4.47285">
        <ele>559.79998779297</ele>
        <time>2020-03-14T15:28:24.000Z</time>
      </trkpt>
      <trkpt lat="45.90049" lon="4.47283">
        <ele>559.79998779297</ele>
        <time>2020-03-14T15:28:25.000Z</time>
      </trkpt>
      <trkpt lat="45.90048" lon="4.47281">
        <ele>559.79998779297</ele>
        <time>2020-03-14T15:28:26.000Z</time>
      </trkpt>
      <trkpt lat="45.90047" lon="4.47279">
        <ele>560</ele>
        <time>2020-03-14T15:28:27.000Z</time>
      </trkpt>
      <trkpt lat="45.90047" lon="4.47278">
        <ele>560</ele>
        <time>2020-03-14T15:28:28.000Z</time>
      </trkpt>
      <trkpt lat="45.90045" lon="4.47275">
        <ele>560.20001220703</ele>
        <time>2020-03-14T15:28:29.000Z</time>
      </trkpt>
      <trkpt lat="45.90045" lon="4.47273">
        <ele>560.40002441406</ele>
        <time>2020-03-14T15:28:30.000Z</time>
      </trkpt>
      <trkpt lat="45.90044" lon="4.47271">
        <ele>560.59997558594</ele>
        <time>2020-03-14T15:28:31.000Z</time>
      </trkpt>
      <trkpt lat="45.90043" lon="4.47269">
        <ele>560.59997558594</ele>
        <time>2020-03-14T15:28:32.000Z</time>
      </trkpt>
      <trkpt lat="45.90042" lon="4.47266">
        <ele>560.79998779297</ele>
        <time>2020-03-14T15:28:33.000Z</time>
      </trkpt>
      <trkpt lat="45.90042" lon="4.47264">
        <ele>560.79998779297</ele>
        <time>2020-03-14T15:28:34.000Z</time>
      </trkpt>
      <trkpt lat="45.90042" lon="4.47262">
        <ele>561</ele>
        <time>2020-03-14T15:28:35.000Z</time>
      </trkpt>
      <trkpt lat="45.90042" lon="4.4726">
        <ele>561</ele>
        <time>2020-03-14T15:28:36.000Z</time>
      </trkpt>
      <trkpt lat="45.90041" lon="4.47258">
        <ele>561.20001220703</ele>
        <time>2020-03-14T15:28:37.000Z</time>
      </trkpt>
      <trkpt lat="45.90041" lon="4.47258">
        <ele>561.20001220703</ele>
        <time>2020-03-14T15:28:38.000Z</time>
      </trkpt>
      <trkpt lat="45.90041" lon="4.47257">
        <ele>561.40002441406</ele>
        <time>2020-03-14T15:28:39.000Z</time>
      </trkpt>
      <trkpt lat="45.9004" lon="4.47256">
        <ele>561.40002441406</ele>
        <time>2020-03-14T15:28:40.000Z</time>
      </trkpt>
      <trkpt lat="45.90039" lon="4.47255">
        <ele>561.40002441406</ele>
        <time>2020-03-14T15:28:41.000Z</time>
      </trkpt>
      <trkpt lat="45.90039" lon="4.47253">
        <ele>561.40002441406</ele>
        <time>2020-03-14T15:28:42.000Z</time>
      </trkpt>
      <trkpt lat="45.90038" lon="4.47251">
        <ele>561.20001220703</ele>
        <time>2020-03-14T15:28:43.000Z</time>
      </trkpt>
      <trkpt lat="45.90037" lon="4.47248">
        <ele>561.20001220703</ele>
        <time>2020-03-14T15:28:44.000Z</time>
      </trkpt>
      <trkpt lat="45.90036" lon="4.47244">
        <ele>561</ele>
        <time>2020-03-14T15:28:45.000Z</time>
      </trkpt>
      <trkpt lat="45.90034" lon="4.4724">
        <ele>561</ele>
        <time>2020-03-14T15:28:46.000Z</time>
      </trkpt>
      <trkpt lat="45.90033" lon="4.47236">
        <ele>560.79998779297</ele>
        <time>2020-03-14T15:28:47.000Z</time>
      </trkpt>
      <trkpt lat="45.90031" lon="4.47232">
        <ele>560.40002441406</ele>
        <time>2020-03-14T15:28:48.000Z</time>
      </trkpt>
      <trkpt lat="45.90029" lon="4.47229">
        <ele>560.20001220703</ele>
        <time>2020-03-14T15:28:49.000Z</time>
      </trkpt>
      <trkpt lat="45.90027" lon="4.47226">
        <ele>559.79998779297</ele>
        <time>2020-03-14T15:28:50.000Z</time>
      </trkpt>
      <trkpt lat="45.90025" lon="4.47223">
        <ele>559.59997558594</ele>
        <time>2020-03-14T15:28:51.000Z</time>
      </trkpt>
      <trkpt lat="45.90023" lon="4.47219">
        <ele>559</ele>
        <time>2020-03-14T15:28:52.000Z</time>
      </trkpt>
      <trkpt lat="45.90021" lon="4.47216">
        <ele>558.59997558594</ele>
        <time>2020-03-14T15:28:53.000Z</time>
      </trkpt>
      <trkpt lat="45.90018" lon="4.47214">
        <ele>558.20001220703</ele>
        <time>2020-03-14T15:28:54.000Z</time>
      </trkpt>
      <trkpt lat="45.90016" lon="4.47212">
        <ele>558</ele>
        <time>2020-03-14T15:28:55.000Z</time>
      </trkpt>
      <trkpt lat="45.90014" lon="4.4721">
        <ele>557.40002441406</ele>
        <time>2020-03-14T15:28:56.000Z</time>
      </trkpt>
      <trkpt lat="45.90012" lon="4.47208">
        <ele>556.79998779297</ele>
        <time>2020-03-14T15:28:57.000Z</time>
      </trkpt>
      <trkpt lat="45.90011" lon="4.47206">
        <ele>556</ele>
        <time>2020-03-14T15:28:58.000Z</time>
      </trkpt>
      <trkpt lat="45.90009" lon="4.47204">
        <ele>555.79998779297</ele>
        <time>2020-03-14T15:28:59.000Z</time>
      </trkpt>
      <trkpt lat="45.90008" lon="4.47201">
        <ele>555.59997558594</ele>
        <time>2020-03-14T15:29:00.000Z</time>
      </trkpt>
      <trkpt lat="45.90007" lon="4.47198">
        <ele>555.40002441406</ele>
        <time>2020-03-14T15:29:01.000Z</time>
      </trkpt>
      <trkpt lat="45.90007" lon="4.47192">
        <ele>555.20001220703</ele>
        <time>2020-03-14T15:29:02.000Z</time>
      </trkpt>
      <trkpt lat="45.90007" lon="4.47187">
        <ele>554.40002441406</ele>
        <time>2020-03-14T15:29:03.000Z</time>
      </trkpt>
      <trkpt lat="45.90008" lon="4.47183">
        <ele>553.59997558594</ele>
        <time>2020-03-14T15:29:04.000Z</time>
      </trkpt>
      <trkpt lat="45.90008" lon="4.47177">
        <ele>553</ele>
        <time>2020-03-14T15:29:05.000Z</time>
      </trkpt>
      <trkpt lat="45.90008" lon="4.47171">
        <ele>552.40002441406</ele>
        <time>2020-03-14T15:29:06.000Z</time>
      </trkpt>
      <trkpt lat="45.90009" lon="4.47166">
        <ele>551.79998779297</ele>
        <time>2020-03-14T15:29:07.000Z</time>
      </trkpt>
      <trkpt lat="45.90009" lon="4.47161">
        <ele>551.40002441406</ele>
        <time>2020-03-14T15:29:08.000Z</time>
      </trkpt>
      <trkpt lat="45.90009" lon="4.47155">
        <ele>551.20001220703</ele>
        <time>2020-03-14T15:29:09.000Z</time>
      </trkpt>
      <trkpt lat="45.9001" lon="4.4715">
        <ele>550.59997558594</ele>
        <time>2020-03-14T15:29:10.000Z</time>
      </trkpt>
      <trkpt lat="45.90011" lon="4.47144">
        <ele>549.40002441406</ele>
        <time>2020-03-14T15:29:11.000Z</time>
      </trkpt>
      <trkpt lat="45.90013" lon="4.47137">
        <ele>548.40002441406</ele>
        <time>2020-03-14T15:29:12.000Z</time>
      </trkpt>
      <trkpt lat="45.90014" lon="4.47129">
        <ele>547.59997558594</ele>
        <time>2020-03-14T15:29:13.000Z</time>
      </trkpt>
      <trkpt lat="45.90016" lon="4.47121">
        <ele>547.20001220703</ele>
        <time>2020-03-14T15:29:14.000Z</time>
      </trkpt>
      <trkpt lat="45.90017" lon="4.47114">
        <ele>546.59997558594</ele>
        <time>2020-03-14T15:29:15.000Z</time>
      </trkpt>
      <trkpt lat="45.90018" lon="4.47108">
        <ele>545.79998779297</ele>
        <time>2020-03-14T15:29:16.000Z</time>
      </trkpt>
      <trkpt lat="45.9002" lon="4.47101">
        <ele>545.40002441406</ele>
        <time>2020-03-14T15:29:17.000Z</time>
      </trkpt>
      <trkpt lat="45.90021" lon="4.47094">
        <ele>545.20001220703</ele>
        <time>2020-03-14T15:29:18.000Z</time>
      </trkpt>
      <trkpt lat="45.90022" lon="4.47088">
        <ele>544.79998779297</ele>
        <time>2020-03-14T15:29:19.000Z</time>
      </trkpt>
      <trkpt lat="45.90024" lon="4.47082">
        <ele>544.40002441406</ele>
        <time>2020-03-14T15:29:20.000Z</time>
      </trkpt>
      <trkpt lat="45.90025" lon="4.47075">
        <ele>544</ele>
        <time>2020-03-14T15:29:21.000Z</time>
      </trkpt>
      <trkpt lat="45.90026" lon="4.47068">
        <ele>543.59997558594</ele>
        <time>2020-03-14T15:29:22.000Z</time>
      </trkpt>
      <trkpt lat="45.90027" lon="4.4706">
        <ele>543.20001220703</ele>
        <time>2020-03-14T15:29:23.000Z</time>
      </trkpt>
      <trkpt lat="45.90028" lon="4.47052">
        <ele>543</ele>
        <time>2020-03-14T15:29:24.000Z</time>
      </trkpt>
      <trkpt lat="45.90029" lon="4.47044">
        <ele>542.79998779297</ele>
        <time>2020-03-14T15:29:25.000Z</time>
      </trkpt>
      <trkpt lat="45.90029" lon="4.47035">
        <ele>542.59997558594</ele>
        <time>2020-03-14T15:29:26.000Z</time>
      </trkpt>
      <trkpt lat="45.9003" lon="4.47026">
        <ele>542.40002441406</ele>
        <time>2020-03-14T15:29:27.000Z</time>
      </trkpt>
      <trkpt lat="45.90031" lon="4.47018">
        <ele>542.20001220703</ele>
        <time>2020-03-14T15:29:28.000Z</time>
      </trkpt>
      <trkpt lat="45.90031" lon="4.4701">
        <ele>542</ele>
        <time>2020-03-14T15:29:29.000Z</time>
      </trkpt>
      <trkpt lat="45.90032" lon="4.47002">
        <ele>541.79998779297</ele>
        <time>2020-03-14T15:29:30.000Z</time>
      </trkpt>
      <trkpt lat="45.90031" lon="4.46996">
        <ele>541.79998779297</ele>
        <time>2020-03-14T15:29:31.000Z</time>
      </trkpt>
      <trkpt lat="45.90031" lon="4.4699">
        <ele>541.59997558594</ele>
        <time>2020-03-14T15:29:32.000Z</time>
      </trkpt>
      <trkpt lat="45.90032" lon="4.46984">
        <ele>541.40002441406</ele>
        <time>2020-03-14T15:29:33.000Z</time>
      </trkpt>
      <trkpt lat="45.90032" lon="4.46978">
        <ele>541.40002441406</ele>
        <time>2020-03-14T15:29:34.000Z</time>
      </trkpt>
      <trkpt lat="45.90032" lon="4.46972">
        <ele>541</ele>
        <time>2020-03-14T15:29:35.000Z</time>
      </trkpt>
      <trkpt lat="45.90033" lon="4.46966">
        <ele>540.79998779297</ele>
        <time>2020-03-14T15:29:36.000Z</time>
      </trkpt>
      <trkpt lat="45.90033" lon="4.46961">
        <ele>540.40002441406</ele>
        <time>2020-03-14T15:29:37.000Z</time>
      </trkpt>
      <trkpt lat="45.90033" lon="4.46957">
        <ele>539.59997558594</ele>
        <time>2020-03-14T15:29:38.000Z</time>
      </trkpt>
      <trkpt lat="45.90035" lon="4.46956">
        <ele>538.79998779297</ele>
        <time>2020-03-14T15:29:39.000Z</time>
      </trkpt>
      <trkpt lat="45.90035" lon="4.46952">
        <ele>538.40002441406</ele>
        <time>2020-03-14T15:29:40.000Z</time>
      </trkpt>
      <trkpt lat="45.90036" lon="4.4695">
        <ele>538.20001220703</ele>
        <time>2020-03-14T15:29:41.000Z</time>
      </trkpt>
      <trkpt lat="45.90038" lon="4.46948">
        <ele>538</ele>
        <time>2020-03-14T15:29:42.000Z</time>
      </trkpt>
      <trkpt lat="45.90039" lon="4.46946">
        <ele>537.79998779297</ele>
        <time>2020-03-14T15:29:43.000Z</time>
      </trkpt>
      <trkpt lat="45.90041" lon="4.46943">
        <ele>537.59997558594</ele>
        <time>2020-03-14T15:29:44.000Z</time>
      </trkpt>
      <trkpt lat="45.90043" lon="4.4694">
        <ele>537.40002441406</ele>
        <time>2020-03-14T15:29:45.000Z</time>
      </trkpt>
      <trkpt lat="45.90046" lon="4.46935">
        <ele>537</ele>
        <time>2020-03-14T15:29:46.000Z</time>
      </trkpt>
      <trkpt lat="45.90048" lon="4.4693">
        <ele>536.59997558594</ele>
        <time>2020-03-14T15:29:47.000Z</time>
      </trkpt>
      <trkpt lat="45.9005" lon="4.46926">
        <ele>536.40002441406</ele>
        <time>2020-03-14T15:29:48.000Z</time>
      </trkpt>
      <trkpt lat="45.90052" lon="4.46921">
        <ele>535.79998779297</ele>
        <time>2020-03-14T15:29:49.000Z</time>
      </trkpt>
      <trkpt lat="45.90055" lon="4.46916">
        <ele>535.20001220703</ele>
        <time>2020-03-14T15:29:50.000Z</time>
      </trkpt>
      <trkpt lat="45.90058" lon="4.4691">
        <ele>534.40002441406</ele>
        <time>2020-03-14T15:29:51.000Z</time>
      </trkpt>
      <trkpt lat="45.90061" lon="4.46906">
        <ele>533.59997558594</ele>
        <time>2020-03-14T15:29:52.000Z</time>
      </trkpt>
      <trkpt lat="45.90064" lon="4.46901">
        <ele>533</ele>
        <time>2020-03-14T15:29:53.000Z</time>
      </trkpt>
      <trkpt lat="45.90067" lon="4.46897">
        <ele>532.59997558594</ele>
        <time>2020-03-14T15:29:54.000Z</time>
      </trkpt>
      <trkpt lat="45.90068" lon="4.46893">
        <ele>532.20001220703</ele>
        <time>2020-03-14T15:29:55.000Z</time>
      </trkpt>
      <trkpt lat="45.9007" lon="4.46886">
        <ele>531.79998779297</ele>
        <time>2020-03-14T15:29:56.000Z</time>
      </trkpt>
      <trkpt lat="45.90072" lon="4.46882">
        <ele>531.40002441406</ele>
        <time>2020-03-14T15:29:57.000Z</time>
      </trkpt>
      <trkpt lat="45.90075" lon="4.46878">
        <ele>531.20001220703</ele>
        <time>2020-03-14T15:29:58.000Z</time>
      </trkpt>
      <trkpt lat="45.90077" lon="4.46872">
        <ele>530.79998779297</ele>
        <time>2020-03-14T15:29:59.000Z</time>
      </trkpt>
      <trkpt lat="45.90079" lon="4.46867">
        <ele>530.40002441406</ele>
        <time>2020-03-14T15:30:00.000Z</time>
      </trkpt>
      <trkpt lat="45.90081" lon="4.46863">
        <ele>529.79998779297</ele>
        <time>2020-03-14T15:30:01.000Z</time>
      </trkpt>
      <trkpt lat="45.90083" lon="4.46858">
        <ele>529.20001220703</ele>
        <time>2020-03-14T15:30:02.000Z</time>
      </trkpt>
      <trkpt lat="45.90086" lon="4.46855">
        <ele>528.79998779297</ele>
        <time>2020-03-14T15:30:03.000Z</time>
      </trkpt>
      <trkpt lat="45.90089" lon="4.46851">
        <ele>528.59997558594</ele>
        <time>2020-03-14T15:30:04.000Z</time>
      </trkpt>
      <trkpt lat="45.90092" lon="4.46847">
        <ele>528.40002441406</ele>
        <time>2020-03-14T15:30:05.000Z</time>
      </trkpt>
      <trkpt lat="45.90096" lon="4.46845">
        <ele>528</ele>
        <time>2020-03-14T15:30:06.000Z</time>
      </trkpt>
      <trkpt lat="45.90098" lon="4.46842">
        <ele>527.40002441406</ele>
        <time>2020-03-14T15:30:07.000Z</time>
      </trkpt>
      <trkpt lat="45.90101" lon="4.4684">
        <ele>526.79998779297</ele>
        <time>2020-03-14T15:30:08.000Z</time>
      </trkpt>
      <trkpt lat="45.90106" lon="4.46838">
        <ele>526.40002441406</ele>
        <time>2020-03-14T15:30:09.000Z</time>
      </trkpt>
      <trkpt lat="45.90108" lon="4.46835">
        <ele>525.79998779297</ele>
        <time>2020-03-14T15:30:10.000Z</time>
      </trkpt>
      <trkpt lat="45.9011" lon="4.46832">
        <ele>525.20001220703</ele>
        <time>2020-03-14T15:30:11.000Z</time>
      </trkpt>
      <trkpt lat="45.90112" lon="4.4683">
        <ele>525</ele>
        <time>2020-03-14T15:30:12.000Z</time>
      </trkpt>
      <trkpt lat="45.90113" lon="4.46826">
        <ele>524.79998779297</ele>
        <time>2020-03-14T15:30:13.000Z</time>
      </trkpt>
      <trkpt lat="45.90116" lon="4.46825">
        <ele>524.40002441406</ele>
        <time>2020-03-14T15:30:14.000Z</time>
      </trkpt>
      <trkpt lat="45.90118" lon="4.46823">
        <ele>523.79998779297</ele>
        <time>2020-03-14T15:30:15.000Z</time>
      </trkpt>
      <trkpt lat="45.9012" lon="4.4682">
        <ele>523.40002441406</ele>
        <time>2020-03-14T15:30:16.000Z</time>
      </trkpt>
      <trkpt lat="45.90122" lon="4.46818">
        <ele>523</ele>
        <time>2020-03-14T15:30:17.000Z</time>
      </trkpt>
      <trkpt lat="45.90125" lon="4.46816">
        <ele>522.79998779297</ele>
        <time>2020-03-14T15:30:18.000Z</time>
      </trkpt>
      <trkpt lat="45.90126" lon="4.46811">
        <ele>522.59997558594</ele>
        <time>2020-03-14T15:30:19.000Z</time>
      </trkpt>
      <trkpt lat="45.90128" lon="4.46808">
        <ele>522.20001220703</ele>
        <time>2020-03-14T15:30:20.000Z</time>
      </trkpt>
      <trkpt lat="45.90129" lon="4.46804">
        <ele>522</ele>
        <time>2020-03-14T15:30:21.000Z</time>
      </trkpt>
      <trkpt lat="45.90131" lon="4.468">
        <ele>522</ele>
        <time>2020-03-14T15:30:22.000Z</time>
      </trkpt>
      <trkpt lat="45.90137" lon="4.46798">
        <ele>521.40002441406</ele>
        <time>2020-03-14T15:30:23.000Z</time>
      </trkpt>
      <trkpt lat="45.9014" lon="4.46792">
        <ele>521.20001220703</ele>
        <time>2020-03-14T15:30:24.000Z</time>
      </trkpt>
      <trkpt lat="45.90145" lon="4.46789">
        <ele>520.79998779297</ele>
        <time>2020-03-14T15:30:25.000Z</time>
      </trkpt>
      <trkpt lat="45.9015" lon="4.46785">
        <ele>520.40002441406</ele>
        <time>2020-03-14T15:30:26.000Z</time>
      </trkpt>
      <trkpt lat="45.90153" lon="4.46781">
        <ele>519.79998779297</ele>
        <time>2020-03-14T15:30:27.000Z</time>
      </trkpt>
      <trkpt lat="45.90157" lon="4.46778">
        <ele>519.20001220703</ele>
        <time>2020-03-14T15:30:28.000Z</time>
      </trkpt>
      <trkpt lat="45.9016" lon="4.46775">
        <ele>518.40002441406</ele>
        <time>2020-03-14T15:30:29.000Z</time>
      </trkpt>
      <trkpt lat="45.90163" lon="4.46772">
        <ele>518</ele>
        <time>2020-03-14T15:30:30.000Z</time>
      </trkpt>
      <trkpt lat="45.90166" lon="4.46769">
        <ele>517.79998779297</ele>
        <time>2020-03-14T15:30:31.000Z</time>
      </trkpt>
      <trkpt lat="45.90171" lon="4.46766">
        <ele>517.59997558594</ele>
        <time>2020-03-14T15:30:32.000Z</time>
      </trkpt>
      <trkpt lat="45.90175" lon="4.46761">
        <ele>517.20001220703</ele>
        <time>2020-03-14T15:30:33.000Z</time>
      </trkpt>
      <trkpt lat="45.90179" lon="4.46757">
        <ele>516.79998779297</ele>
        <time>2020-03-14T15:30:34.000Z</time>
      </trkpt>
      <trkpt lat="45.90185" lon="4.46753">
        <ele>516.40002441406</ele>
        <time>2020-03-14T15:30:35.000Z</time>
      </trkpt>
      <trkpt lat="45.90191" lon="4.46749">
        <ele>515.79998779297</ele>
        <time>2020-03-14T15:30:36.000Z</time>
      </trkpt>
      <trkpt lat="45.90196" lon="4.46745">
        <ele>515</ele>
        <time>2020-03-14T15:30:37.000Z</time>
      </trkpt>
      <trkpt lat="45.90201" lon="4.46741">
        <ele>514.59997558594</ele>
        <time>2020-03-14T15:30:38.000Z</time>
      </trkpt>
      <trkpt lat="45.90205" lon="4.46737">
        <ele>514.40002441406</ele>
        <time>2020-03-14T15:30:39.000Z</time>
      </trkpt>
      <trkpt lat="45.90209" lon="4.46734">
        <ele>513.79998779297</ele>
        <time>2020-03-14T15:30:40.000Z</time>
      </trkpt>
      <trkpt lat="45.90211" lon="4.46731">
        <ele>512.79998779297</ele>
        <time>2020-03-14T15:30:41.000Z</time>
      </trkpt>
      <trkpt lat="45.90214" lon="4.46728">
        <ele>512</ele>
        <time>2020-03-14T15:30:42.000Z</time>
      </trkpt>
      <trkpt lat="45.90216" lon="4.46725">
        <ele>511.60000610352</ele>
        <time>2020-03-14T15:30:43.000Z</time>
      </trkpt>
      <trkpt lat="45.90218" lon="4.46722">
        <ele>511.60000610352</ele>
        <time>2020-03-14T15:30:44.000Z</time>
      </trkpt>
      <trkpt lat="45.9022" lon="4.4672">
        <ele>511.39999389648</ele>
        <time>2020-03-14T15:30:45.000Z</time>
      </trkpt>
      <trkpt lat="45.90223" lon="4.46718">
        <ele>511.39999389648</ele>
        <time>2020-03-14T15:30:46.000Z</time>
      </trkpt>
      <trkpt lat="45.90225" lon="4.46715">
        <ele>511.60000610352</ele>
        <time>2020-03-14T15:30:47.000Z</time>
      </trkpt>
      <trkpt lat="45.90229" lon="4.46712">
        <ele>511.60000610352</ele>
        <time>2020-03-14T15:30:48.000Z</time>
      </trkpt>
      <trkpt lat="45.90232" lon="4.46709">
        <ele>511.60000610352</ele>
        <time>2020-03-14T15:30:49.000Z</time>
      </trkpt>
      <trkpt lat="45.90235" lon="4.46706">
        <ele>511.39999389648</ele>
        <time>2020-03-14T15:30:50.000Z</time>
      </trkpt>
      <trkpt lat="45.9024" lon="4.46702">
        <ele>511.20001220703</ele>
        <time>2020-03-14T15:30:51.000Z</time>
      </trkpt>
      <trkpt lat="45.90243" lon="4.46699">
        <ele>511</ele>
        <time>2020-03-14T15:30:52.000Z</time>
      </trkpt>
      <trkpt lat="45.90247" lon="4.46695">
        <ele>510.79998779297</ele>
        <time>2020-03-14T15:30:53.000Z</time>
      </trkpt>
      <trkpt lat="45.90252" lon="4.46691">
        <ele>510.39999389648</ele>
        <time>2020-03-14T15:30:54.000Z</time>
      </trkpt>
      <trkpt lat="45.90256" lon="4.46687">
        <ele>509.79998779297</ele>
        <time>2020-03-14T15:30:55.000Z</time>
      </trkpt>
      <trkpt lat="45.90259" lon="4.46682">
        <ele>509.20001220703</ele>
        <time>2020-03-14T15:30:56.000Z</time>
      </trkpt>
      <trkpt lat="45.90263" lon="4.46676">
        <ele>508.39999389648</ele>
        <time>2020-03-14T15:30:57.000Z</time>
      </trkpt>
      <trkpt lat="45.90265" lon="4.46672">
        <ele>507.60000610352</ele>
        <time>2020-03-14T15:30:58.000Z</time>
      </trkpt>
      <trkpt lat="45.90268" lon="4.46668">
        <ele>507</ele>
        <time>2020-03-14T15:30:59.000Z</time>
      </trkpt>
      <trkpt lat="45.9027" lon="4.46664">
        <ele>506.39999389648</ele>
        <time>2020-03-14T15:31:00.000Z</time>
      </trkpt>
      <trkpt lat="45.90272" lon="4.4666">
        <ele>506</ele>
        <time>2020-03-14T15:31:01.000Z</time>
      </trkpt>
      <trkpt lat="45.90275" lon="4.46657">
        <ele>505.79998779297</ele>
        <time>2020-03-14T15:31:02.000Z</time>
      </trkpt>
      <trkpt lat="45.90277" lon="4.46653">
        <ele>505.60000610352</ele>
        <time>2020-03-14T15:31:03.000Z</time>
      </trkpt>
      <trkpt lat="45.9028" lon="4.46649">
        <ele>505</ele>
        <time>2020-03-14T15:31:04.000Z</time>
      </trkpt>
      <trkpt lat="45.90283" lon="4.46646">
        <ele>504.60000610352</ele>
        <time>2020-03-14T15:31:05.000Z</time>
      </trkpt>
      <trkpt lat="45.90287" lon="4.46644">
        <ele>504</ele>
        <time>2020-03-14T15:31:06.000Z</time>
      </trkpt>
      <trkpt lat="45.9029" lon="4.46641">
        <ele>503.79998779297</ele>
        <time>2020-03-14T15:31:07.000Z</time>
      </trkpt>
      <trkpt lat="45.90293" lon="4.46637">
        <ele>503.39999389648</ele>
        <time>2020-03-14T15:31:08.000Z</time>
      </trkpt>
      <trkpt lat="45.90297" lon="4.46632">
        <ele>503.20001220703</ele>
        <time>2020-03-14T15:31:09.000Z</time>
      </trkpt>
      <trkpt lat="45.903" lon="4.46625">
        <ele>503</ele>
        <time>2020-03-14T15:31:10.000Z</time>
      </trkpt>
      <trkpt lat="45.90303" lon="4.46618">
        <ele>502.79998779297</ele>
        <time>2020-03-14T15:31:11.000Z</time>
      </trkpt>
      <trkpt lat="45.90306" lon="4.46611">
        <ele>502.39999389648</ele>
        <time>2020-03-14T15:31:12.000Z</time>
      </trkpt>
      <trkpt lat="45.9031" lon="4.46604">
        <ele>502.20001220703</ele>
        <time>2020-03-14T15:31:13.000Z</time>
      </trkpt>
      <trkpt lat="45.90314" lon="4.46597">
        <ele>502</ele>
        <time>2020-03-14T15:31:14.000Z</time>
      </trkpt>
      <trkpt lat="45.90317" lon="4.46591">
        <ele>501.79998779297</ele>
        <time>2020-03-14T15:31:15.000Z</time>
      </trkpt>
      <trkpt lat="45.90321" lon="4.46585">
        <ele>501.39999389648</ele>
        <time>2020-03-14T15:31:16.000Z</time>
      </trkpt>
      <trkpt lat="45.90324" lon="4.46579">
        <ele>500.79998779297</ele>
        <time>2020-03-14T15:31:17.000Z</time>
      </trkpt>
      <trkpt lat="45.90328" lon="4.46575">
        <ele>500.39999389648</ele>
        <time>2020-03-14T15:31:18.000Z</time>
      </trkpt>
      <trkpt lat="45.90331" lon="4.46571">
        <ele>500.20001220703</ele>
        <time>2020-03-14T15:31:19.000Z</time>
      </trkpt>
      <trkpt lat="45.90336" lon="4.46567">
        <ele>500</ele>
        <time>2020-03-14T15:31:20.000Z</time>
      </trkpt>
      <trkpt lat="45.9034" lon="4.46564">
        <ele>499.79998779297</ele>
        <time>2020-03-14T15:31:21.000Z</time>
      </trkpt>
      <trkpt lat="45.90343" lon="4.46561">
        <ele>499.60000610352</ele>
        <time>2020-03-14T15:31:22.000Z</time>
      </trkpt>
      <trkpt lat="45.90347" lon="4.46558">
        <ele>499.39999389648</ele>
        <time>2020-03-14T15:31:23.000Z</time>
      </trkpt>
      <trkpt lat="45.90349" lon="4.46555">
        <ele>498.79998779297</ele>
        <time>2020-03-14T15:31:24.000Z</time>
      </trkpt>
      <trkpt lat="45.90352" lon="4.46552">
        <ele>498.20001220703</ele>
        <time>2020-03-14T15:31:25.000Z</time>
      </trkpt>
      <trkpt lat="45.90353" lon="4.46548">
        <ele>497.79998779297</ele>
        <time>2020-03-14T15:31:26.000Z</time>
      </trkpt>
      <trkpt lat="45.90355" lon="4.46544">
        <ele>497.79998779297</ele>
        <time>2020-03-14T15:31:27.000Z</time>
      </trkpt>
      <trkpt lat="45.90356" lon="4.46539">
        <ele>497.60000610352</ele>
        <time>2020-03-14T15:31:28.000Z</time>
      </trkpt>
      <trkpt lat="45.90358" lon="4.46534">
        <ele>497.60000610352</ele>
        <time>2020-03-14T15:31:29.000Z</time>
      </trkpt>
      <trkpt lat="45.90358" lon="4.46531">
        <ele>497.79998779297</ele>
        <time>2020-03-14T15:31:30.000Z</time>
      </trkpt>
      <trkpt lat="45.90359" lon="4.46528">
        <ele>498</ele>
        <time>2020-03-14T15:31:31.000Z</time>
      </trkpt>
      <trkpt lat="45.9036" lon="4.46525">
        <ele>498.20001220703</ele>
        <time>2020-03-14T15:31:32.000Z</time>
      </trkpt>
      <trkpt lat="45.90361" lon="4.46522">
        <ele>498.20001220703</ele>
        <time>2020-03-14T15:31:33.000Z</time>
      </trkpt>
      <trkpt lat="45.90361" lon="4.46516">
        <ele>498.39999389648</ele>
        <time>2020-03-14T15:31:34.000Z</time>
      </trkpt>
      <trkpt lat="45.90361" lon="4.46511">
        <ele>498.39999389648</ele>
        <time>2020-03-14T15:31:35.000Z</time>
      </trkpt>
      <trkpt lat="45.90362" lon="4.46507">
        <ele>498.60000610352</ele>
        <time>2020-03-14T15:31:36.000Z</time>
      </trkpt>
      <trkpt lat="45.90362" lon="4.46504">
        <ele>498.39999389648</ele>
        <time>2020-03-14T15:31:37.000Z</time>
      </trkpt>
      <trkpt lat="45.90363" lon="4.46501">
        <ele>498.39999389648</ele>
        <time>2020-03-14T15:31:38.000Z</time>
      </trkpt>
      <trkpt lat="45.90363" lon="4.46498">
        <ele>498.39999389648</ele>
        <time>2020-03-14T15:31:39.000Z</time>
      </trkpt>
      <trkpt lat="45.90363" lon="4.46495">
        <ele>498.39999389648</ele>
        <time>2020-03-14T15:31:40.000Z</time>
      </trkpt>
      <trkpt lat="45.90362" lon="4.46491">
        <ele>498.39999389648</ele>
        <time>2020-03-14T15:31:41.000Z</time>
      </trkpt>
      <trkpt lat="45.90362" lon="4.46488">
        <ele>498.39999389648</ele>
        <time>2020-03-14T15:31:42.000Z</time>
      </trkpt>
      <trkpt lat="45.90362" lon="4.46486">
        <ele>498.39999389648</ele>
        <time>2020-03-14T15:31:43.000Z</time>
      </trkpt>
      <trkpt lat="45.90361" lon="4.46483">
        <ele>498.79998779297</ele>
        <time>2020-03-14T15:31:44.000Z</time>
      </trkpt>
      <trkpt lat="45.90361" lon="4.4648">
        <ele>499</ele>
        <time>2020-03-14T15:31:45.000Z</time>
      </trkpt>
      <trkpt lat="45.9036" lon="4.46477">
        <ele>499.20001220703</ele>
        <time>2020-03-14T15:31:46.000Z</time>
      </trkpt>
      <trkpt lat="45.90359" lon="4.46475">
        <ele>499.20001220703</ele>
        <time>2020-03-14T15:31:47.000Z</time>
      </trkpt>
      <trkpt lat="45.90359" lon="4.46473">
        <ele>499.39999389648</ele>
        <time>2020-03-14T15:31:48.000Z</time>
      </trkpt>
      <trkpt lat="45.90359" lon="4.4647">
        <ele>499.39999389648</ele>
        <time>2020-03-14T15:31:49.000Z</time>
      </trkpt>
      <trkpt lat="45.90358" lon="4.46467">
        <ele>499.60000610352</ele>
        <time>2020-03-14T15:31:50.000Z</time>
      </trkpt>
      <trkpt lat="45.90358" lon="4.46463">
        <ele>499.79998779297</ele>
        <time>2020-03-14T15:31:51.000Z</time>
      </trkpt>
      <trkpt lat="45.90357" lon="4.4646">
        <ele>500</ele>
        <time>2020-03-14T15:31:52.000Z</time>
      </trkpt>
      <trkpt lat="45.90357" lon="4.46457">
        <ele>500.20001220703</ele>
        <time>2020-03-14T15:31:53.000Z</time>
      </trkpt>
      <trkpt lat="45.90357" lon="4.46454">
        <ele>500.20001220703</ele>
        <time>2020-03-14T15:31:54.000Z</time>
      </trkpt>
      <trkpt lat="45.90357" lon="4.46452">
        <ele>500.39999389648</ele>
        <time>2020-03-14T15:31:55.000Z</time>
      </trkpt>
      <trkpt lat="45.90357" lon="4.46449">
        <ele>500.60000610352</ele>
        <time>2020-03-14T15:31:56.000Z</time>
      </trkpt>
      <trkpt lat="45.90357" lon="4.46447">
        <ele>500.79998779297</ele>
        <time>2020-03-14T15:31:57.000Z</time>
      </trkpt>
      <trkpt lat="45.90354" lon="4.46445">
        <ele>501</ele>
        <time>2020-03-14T15:31:58.000Z</time>
      </trkpt>
      <trkpt lat="45.90353" lon="4.46442">
        <ele>501.39999389648</ele>
        <time>2020-03-14T15:31:59.000Z</time>
      </trkpt>
      <trkpt lat="45.90352" lon="4.4644">
        <ele>501.60000610352</ele>
        <time>2020-03-14T15:32:00.000Z</time>
      </trkpt>
      <trkpt lat="45.90351" lon="4.46438">
        <ele>502</ele>
        <time>2020-03-14T15:32:01.000Z</time>
      </trkpt>
      <trkpt lat="45.9035" lon="4.46436">
        <ele>502.20001220703</ele>
        <time>2020-03-14T15:32:02.000Z</time>
      </trkpt>
      <trkpt lat="45.9035" lon="4.46433">
        <ele>502.39999389648</ele>
        <time>2020-03-14T15:32:03.000Z</time>
      </trkpt>
      <trkpt lat="45.9035" lon="4.46431">
        <ele>502.39999389648</ele>
        <time>2020-03-14T15:32:04.000Z</time>
      </trkpt>
      <trkpt lat="45.9035" lon="4.46428">
        <ele>502.39999389648</ele>
        <time>2020-03-14T15:32:05.000Z</time>
      </trkpt>
      <trkpt lat="45.90349" lon="4.46424">
        <ele>502.39999389648</ele>
        <time>2020-03-14T15:32:06.000Z</time>
      </trkpt>
      <trkpt lat="45.90349" lon="4.46422">
        <ele>502.39999389648</ele>
        <time>2020-03-14T15:32:07.000Z</time>
      </trkpt>
      <trkpt lat="45.90349" lon="4.46419">
        <ele>502.39999389648</ele>
        <time>2020-03-14T15:32:08.000Z</time>
      </trkpt>
      <trkpt lat="45.90349" lon="4.46417">
        <ele>502.39999389648</ele>
        <time>2020-03-14T15:32:09.000Z</time>
      </trkpt>
      <trkpt lat="45.90348" lon="4.46416">
        <ele>502.20001220703</ele>
        <time>2020-03-14T15:32:10.000Z</time>
      </trkpt>
      <trkpt lat="45.90348" lon="4.46415">
        <ele>502</ele>
        <time>2020-03-14T15:32:11.000Z</time>
      </trkpt>
      <trkpt lat="45.90348" lon="4.46413">
        <ele>501.79998779297</ele>
        <time>2020-03-14T15:32:12.000Z</time>
      </trkpt>
      <trkpt lat="45.90346" lon="4.4641">
        <ele>501.79998779297</ele>
        <time>2020-03-14T15:32:13.000Z</time>
      </trkpt>
      <trkpt lat="45.90344" lon="4.46406">
        <ele>501.79998779297</ele>
        <time>2020-03-14T15:32:14.000Z</time>
      </trkpt>
      <trkpt lat="45.90341" lon="4.46401">
        <ele>501.79998779297</ele>
        <time>2020-03-14T15:32:15.000Z</time>
      </trkpt>
      <trkpt lat="45.9034" lon="4.46398">
        <ele>501.60000610352</ele>
        <time>2020-03-14T15:32:16.000Z</time>
      </trkpt>
      <trkpt lat="45.90338" lon="4.46394">
        <ele>501.39999389648</ele>
        <time>2020-03-14T15:32:17.000Z</time>
      </trkpt>
      <trkpt lat="45.90336" lon="4.46391">
        <ele>501.39999389648</ele>
        <time>2020-03-14T15:32:18.000Z</time>
      </trkpt>
      <trkpt lat="45.90335" lon="4.46389">
        <ele>501.39999389648</ele>
        <time>2020-03-14T15:32:19.000Z</time>
      </trkpt>
      <trkpt lat="45.90334" lon="4.46388">
        <ele>501.39999389648</ele>
        <time>2020-03-14T15:32:20.000Z</time>
      </trkpt>
      <trkpt lat="45.90333" lon="4.46387">
        <ele>501.20001220703</ele>
        <time>2020-03-14T15:32:21.000Z</time>
      </trkpt>
      <trkpt lat="45.90333" lon="4.46386">
        <ele>501.20001220703</ele>
        <time>2020-03-14T15:32:22.000Z</time>
      </trkpt>
      <trkpt lat="45.90332" lon="4.46384">
        <ele>501.20001220703</ele>
        <time>2020-03-14T15:32:23.000Z</time>
      </trkpt>
      <trkpt lat="45.90331" lon="4.46383">
        <ele>501.39999389648</ele>
        <time>2020-03-14T15:32:24.000Z</time>
      </trkpt>
      <trkpt lat="45.90329" lon="4.46381">
        <ele>501.39999389648</ele>
        <time>2020-03-14T15:32:25.000Z</time>
      </trkpt>
      <trkpt lat="45.90327" lon="4.4638">
        <ele>501.79998779297</ele>
        <time>2020-03-14T15:32:26.000Z</time>
      </trkpt>
      <trkpt lat="45.90326" lon="4.46378">
        <ele>502</ele>
        <time>2020-03-14T15:32:27.000Z</time>
      </trkpt>
      <trkpt lat="45.90324" lon="4.46377">
        <ele>502.20001220703</ele>
        <time>2020-03-14T15:32:28.000Z</time>
      </trkpt>
      <trkpt lat="45.90322" lon="4.46375">
        <ele>502.39999389648</ele>
        <time>2020-03-14T15:32:29.000Z</time>
      </trkpt>
      <trkpt lat="45.9032" lon="4.46374">
        <ele>502.79998779297</ele>
        <time>2020-03-14T15:32:30.000Z</time>
      </trkpt>
      <trkpt lat="45.9032" lon="4.46372">
        <ele>503</ele>
        <time>2020-03-14T15:32:31.000Z</time>
      </trkpt>
      <trkpt lat="45.90318" lon="4.46372">
        <ele>503</ele>
        <time>2020-03-14T15:32:32.000Z</time>
      </trkpt>
      <trkpt lat="45.90317" lon="4.46371">
        <ele>503</ele>
        <time>2020-03-14T15:32:33.000Z</time>
      </trkpt>
      <trkpt lat="45.90316" lon="4.4637">
        <ele>503</ele>
        <time>2020-03-14T15:32:34.000Z</time>
      </trkpt>
      <trkpt lat="45.90315" lon="4.46369">
        <ele>503.20001220703</ele>
        <time>2020-03-14T15:32:35.000Z</time>
      </trkpt>
      <trkpt lat="45.90314" lon="4.46368">
        <ele>503.20001220703</ele>
        <time>2020-03-14T15:32:36.000Z</time>
      </trkpt>
      <trkpt lat="45.90313" lon="4.46368">
        <ele>503.20001220703</ele>
        <time>2020-03-14T15:32:37.000Z</time>
      </trkpt>
      <trkpt lat="45.90312" lon="4.46367">
        <ele>503.20001220703</ele>
        <time>2020-03-14T15:32:38.000Z</time>
      </trkpt>
      <trkpt lat="45.90311" lon="4.46367">
        <ele>503.20001220703</ele>
        <time>2020-03-14T15:32:39.000Z</time>
      </trkpt>
      <trkpt lat="45.9031" lon="4.46368">
        <ele>503.20001220703</ele>
        <time>2020-03-14T15:32:40.000Z</time>
      </trkpt>
      <trkpt lat="45.90309" lon="4.46368">
        <ele>503.39999389648</ele>
        <time>2020-03-14T15:32:41.000Z</time>
      </trkpt>
      <trkpt lat="45.90308" lon="4.46369">
        <ele>503.60000610352</ele>
        <time>2020-03-14T15:32:42.000Z</time>
      </trkpt>
      <trkpt lat="45.90308" lon="4.46369">
        <ele>503.79998779297</ele>
        <time>2020-03-14T15:32:43.000Z</time>
      </trkpt>
      <trkpt lat="45.90308" lon="4.4637">
        <ele>504</ele>
        <time>2020-03-14T15:32:44.000Z</time>
      </trkpt>
      <trkpt lat="45.90307" lon="4.46372">
        <ele>504.39999389648</ele>
        <time>2020-03-14T15:32:45.000Z</time>
      </trkpt>
      <trkpt lat="45.90307" lon="4.46372">
        <ele>504.60000610352</ele>
        <time>2020-03-14T15:32:46.000Z</time>
      </trkpt>
      <trkpt lat="45.90306" lon="4.46372">
        <ele>505</ele>
        <time>2020-03-14T15:32:47.000Z</time>
      </trkpt>
      <trkpt lat="45.90305" lon="4.46373">
        <ele>505.20001220703</ele>
        <time>2020-03-14T15:32:48.000Z</time>
      </trkpt>
      <trkpt lat="45.90305" lon="4.46374">
        <ele>505.39999389648</ele>
        <time>2020-03-14T15:32:49.000Z</time>
      </trkpt>
      <trkpt lat="45.90304" lon="4.46375">
        <ele>505.60000610352</ele>
        <time>2020-03-14T15:32:50.000Z</time>
      </trkpt>
      <trkpt lat="45.90303" lon="4.46376">
        <ele>505.79998779297</ele>
        <time>2020-03-14T15:32:51.000Z</time>
      </trkpt>
      <trkpt lat="45.90303" lon="4.46377">
        <ele>506</ele>
        <time>2020-03-14T15:32:52.000Z</time>
      </trkpt>
      <trkpt lat="45.90301" lon="4.46378">
        <ele>506</ele>
        <time>2020-03-14T15:32:53.000Z</time>
      </trkpt>
      <trkpt lat="45.903" lon="4.46379">
        <ele>506.20001220703</ele>
        <time>2020-03-14T15:32:54.000Z</time>
      </trkpt>
      <trkpt lat="45.90299" lon="4.46379">
        <ele>506.20001220703</ele>
        <time>2020-03-14T15:32:55.000Z</time>
      </trkpt>
      <trkpt lat="45.90298" lon="4.46379">
        <ele>506.39999389648</ele>
        <time>2020-03-14T15:32:56.000Z</time>
      </trkpt>
      <trkpt lat="45.90296" lon="4.4638">
        <ele>506.79998779297</ele>
        <time>2020-03-14T15:32:57.000Z</time>
      </trkpt>
      <trkpt lat="45.90296" lon="4.46382">
        <ele>507</ele>
        <time>2020-03-14T15:32:58.000Z</time>
      </trkpt>
      <trkpt lat="45.90295" lon="4.46383">
        <ele>507.20001220703</ele>
        <time>2020-03-14T15:32:59.000Z</time>
      </trkpt>
      <trkpt lat="45.90294" lon="4.46386">
        <ele>507.20001220703</ele>
        <time>2020-03-14T15:33:00.000Z</time>
      </trkpt>
      <trkpt lat="45.90293" lon="4.46388">
        <ele>507.20001220703</ele>
        <time>2020-03-14T15:33:01.000Z</time>
      </trkpt>
      <trkpt lat="45.90292" lon="4.46389">
        <ele>507.39999389648</ele>
        <time>2020-03-14T15:33:02.000Z</time>
      </trkpt>
      <trkpt lat="45.9029" lon="4.4639">
        <ele>507.20001220703</ele>
        <time>2020-03-14T15:33:03.000Z</time>
      </trkpt>
      <trkpt lat="45.90289" lon="4.46391">
        <ele>507.20001220703</ele>
        <time>2020-03-14T15:33:04.000Z</time>
      </trkpt>
      <trkpt lat="45.90288" lon="4.46393">
        <ele>507.20001220703</ele>
        <time>2020-03-14T15:33:05.000Z</time>
      </trkpt>
      <trkpt lat="45.90288" lon="4.46394">
        <ele>507</ele>
        <time>2020-03-14T15:33:06.000Z</time>
      </trkpt>
      <trkpt lat="45.90287" lon="4.46395">
        <ele>507</ele>
        <time>2020-03-14T15:33:07.000Z</time>
      </trkpt>
      <trkpt lat="45.90286" lon="4.46397">
        <ele>507</ele>
        <time>2020-03-14T15:33:08.000Z</time>
      </trkpt>
      <trkpt lat="45.90285" lon="4.46398">
        <ele>507</ele>
        <time>2020-03-14T15:33:09.000Z</time>
      </trkpt>
      <trkpt lat="45.90284" lon="4.46401">
        <ele>507</ele>
        <time>2020-03-14T15:33:10.000Z</time>
      </trkpt>
      <trkpt lat="45.90283" lon="4.46402">
        <ele>507</ele>
        <time>2020-03-14T15:33:11.000Z</time>
      </trkpt>
      <trkpt lat="45.90282" lon="4.46403">
        <ele>507</ele>
        <time>2020-03-14T15:33:12.000Z</time>
      </trkpt>
      <trkpt lat="45.90282" lon="4.46405">
        <ele>507.20001220703</ele>
        <time>2020-03-14T15:33:13.000Z</time>
      </trkpt>
      <trkpt lat="45.9028" lon="4.46407">
        <ele>507.20001220703</ele>
        <time>2020-03-14T15:33:14.000Z</time>
      </trkpt>
      <trkpt lat="45.90279" lon="4.46409">
        <ele>507.20001220703</ele>
        <time>2020-03-14T15:33:15.000Z</time>
      </trkpt>
      <trkpt lat="45.90278" lon="4.4641">
        <ele>507.39999389648</ele>
        <time>2020-03-14T15:33:16.000Z</time>
      </trkpt>
      <trkpt lat="45.90277" lon="4.46412">
        <ele>507.39999389648</ele>
        <time>2020-03-14T15:33:17.000Z</time>
      </trkpt>
      <trkpt lat="45.90276" lon="4.46412">
        <ele>507.60000610352</ele>
        <time>2020-03-14T15:33:18.000Z</time>
      </trkpt>
      <trkpt lat="45.90275" lon="4.46414">
        <ele>507.60000610352</ele>
        <time>2020-03-14T15:33:19.000Z</time>
      </trkpt>
      <trkpt lat="45.90273" lon="4.46415">
        <ele>507.60000610352</ele>
        <time>2020-03-14T15:33:20.000Z</time>
      </trkpt>
      <trkpt lat="45.90272" lon="4.46417">
        <ele>507.60000610352</ele>
        <time>2020-03-14T15:33:21.000Z</time>
      </trkpt>
      <trkpt lat="45.90271" lon="4.46418">
        <ele>507.60000610352</ele>
        <time>2020-03-14T15:33:22.000Z</time>
      </trkpt>
      <trkpt lat="45.90269" lon="4.46419">
        <ele>507.60000610352</ele>
        <time>2020-03-14T15:33:23.000Z</time>
      </trkpt>
      <trkpt lat="45.90268" lon="4.4642">
        <ele>507.60000610352</ele>
        <time>2020-03-14T15:33:24.000Z</time>
      </trkpt>
      <trkpt lat="45.90266" lon="4.46421">
        <ele>507.60000610352</ele>
        <time>2020-03-14T15:33:25.000Z</time>
      </trkpt>
      <trkpt lat="45.90264" lon="4.46423">
        <ele>507.79998779297</ele>
        <time>2020-03-14T15:33:26.000Z</time>
      </trkpt>
      <trkpt lat="45.90261" lon="4.46424">
        <ele>507.79998779297</ele>
        <time>2020-03-14T15:33:27.000Z</time>
      </trkpt>
      <trkpt lat="45.9026" lon="4.46425">
        <ele>508</ele>
        <time>2020-03-14T15:33:28.000Z</time>
      </trkpt>
      <trkpt lat="45.90258" lon="4.46426">
        <ele>508</ele>
        <time>2020-03-14T15:33:29.000Z</time>
      </trkpt>
      <trkpt lat="45.90256" lon="4.46427">
        <ele>508</ele>
        <time>2020-03-14T15:33:30.000Z</time>
      </trkpt>
      <trkpt lat="45.90254" lon="4.46427">
        <ele>508</ele>
        <time>2020-03-14T15:33:31.000Z</time>
      </trkpt>
      <trkpt lat="45.90252" lon="4.46428">
        <ele>508</ele>
        <time>2020-03-14T15:33:32.000Z</time>
      </trkpt>
      <trkpt lat="45.90251" lon="4.46429">
        <ele>508</ele>
        <time>2020-03-14T15:33:33.000Z</time>
      </trkpt>
      <trkpt lat="45.90249" lon="4.4643">
        <ele>507.79998779297</ele>
        <time>2020-03-14T15:33:34.000Z</time>
      </trkpt>
      <trkpt lat="45.90247" lon="4.4643">
        <ele>508</ele>
        <time>2020-03-14T15:33:35.000Z</time>
      </trkpt>
      <trkpt lat="45.90245" lon="4.4643">
        <ele>508.20001220703</ele>
        <time>2020-03-14T15:33:36.000Z</time>
      </trkpt>
      <trkpt lat="45.90243" lon="4.4643">
        <ele>508.39999389648</ele>
        <time>2020-03-14T15:33:37.000Z</time>
      </trkpt>
      <trkpt lat="45.90242" lon="4.46429">
        <ele>508.79998779297</ele>
        <time>2020-03-14T15:33:38.000Z</time>
      </trkpt>
      <trkpt lat="45.9024" lon="4.46429">
        <ele>509</ele>
        <time>2020-03-14T15:33:39.000Z</time>
      </trkpt>
      <trkpt lat="45.90238" lon="4.46429">
        <ele>509.20001220703</ele>
        <time>2020-03-14T15:33:40.000Z</time>
      </trkpt>
      <trkpt lat="45.90237" lon="4.46428">
        <ele>509.39999389648</ele>
        <time>2020-03-14T15:33:41.000Z</time>
      </trkpt>
      <trkpt lat="45.90235" lon="4.46428">
        <ele>509.39999389648</ele>
        <time>2020-03-14T15:33:42.000Z</time>
      </trkpt>
      <trkpt lat="45.90233" lon="4.46429">
        <ele>509.39999389648</ele>
        <time>2020-03-14T15:33:43.000Z</time>
      </trkpt>
      <trkpt lat="45.90231" lon="4.46429">
        <ele>509.39999389648</ele>
        <time>2020-03-14T15:33:44.000Z</time>
      </trkpt>
      <trkpt lat="45.90229" lon="4.46429">
        <ele>509.20001220703</ele>
        <time>2020-03-14T15:33:45.000Z</time>
      </trkpt>
      <trkpt lat="45.90228" lon="4.46429">
        <ele>509.20001220703</ele>
        <time>2020-03-14T15:33:46.000Z</time>
      </trkpt>
      <trkpt lat="45.90226" lon="4.46429">
        <ele>509.20001220703</ele>
        <time>2020-03-14T15:33:47.000Z</time>
      </trkpt>
      <trkpt lat="45.90224" lon="4.46428">
        <ele>509.20001220703</ele>
        <time>2020-03-14T15:33:48.000Z</time>
      </trkpt>
      <trkpt lat="45.90222" lon="4.46429">
        <ele>509</ele>
        <time>2020-03-14T15:33:49.000Z</time>
      </trkpt>
      <trkpt lat="45.90221" lon="4.46428">
        <ele>509</ele>
        <time>2020-03-14T15:33:50.000Z</time>
      </trkpt>
      <trkpt lat="45.90219" lon="4.46427">
        <ele>509.20001220703</ele>
        <time>2020-03-14T15:33:51.000Z</time>
      </trkpt>
      <trkpt lat="45.90217" lon="4.46428">
        <ele>509.20001220703</ele>
        <time>2020-03-14T15:33:52.000Z</time>
      </trkpt>
      <trkpt lat="45.90215" lon="4.46429">
        <ele>509.39999389648</ele>
        <time>2020-03-14T15:33:53.000Z</time>
      </trkpt>
      <trkpt lat="45.90213" lon="4.4643">
        <ele>509.60000610352</ele>
        <time>2020-03-14T15:33:54.000Z</time>
      </trkpt>
      <trkpt lat="45.90211" lon="4.46429">
        <ele>509.60000610352</ele>
        <time>2020-03-14T15:33:55.000Z</time>
      </trkpt>
      <trkpt lat="45.9021" lon="4.46429">
        <ele>509.79998779297</ele>
        <time>2020-03-14T15:33:56.000Z</time>
      </trkpt>
      <trkpt lat="45.90209" lon="4.46429">
        <ele>509.79998779297</ele>
        <time>2020-03-14T15:33:57.000Z</time>
      </trkpt>
      <trkpt lat="45.90208" lon="4.46429">
        <ele>509.79998779297</ele>
        <time>2020-03-14T15:33:58.000Z</time>
      </trkpt>
      <trkpt lat="45.90206" lon="4.4643">
        <ele>510</ele>
        <time>2020-03-14T15:33:59.000Z</time>
      </trkpt>
      <trkpt lat="45.90203" lon="4.46431">
        <ele>510</ele>
        <time>2020-03-14T15:34:00.000Z</time>
      </trkpt>
      <trkpt lat="45.902" lon="4.46432">
        <ele>509.79998779297</ele>
        <time>2020-03-14T15:34:01.000Z</time>
      </trkpt>
      <trkpt lat="45.90197" lon="4.46433">
        <ele>509.79998779297</ele>
        <time>2020-03-14T15:34:02.000Z</time>
      </trkpt>
      <trkpt lat="45.90194" lon="4.46433">
        <ele>509.79998779297</ele>
        <time>2020-03-14T15:34:03.000Z</time>
      </trkpt>
      <trkpt lat="45.90191" lon="4.46433">
        <ele>509.60000610352</ele>
        <time>2020-03-14T15:34:04.000Z</time>
      </trkpt>
      <trkpt lat="45.90187" lon="4.46433">
        <ele>509.20001220703</ele>
        <time>2020-03-14T15:34:05.000Z</time>
      </trkpt>
      <trkpt lat="45.90182" lon="4.46434">
        <ele>508.79998779297</ele>
        <time>2020-03-14T15:34:06.000Z</time>
      </trkpt>
      <trkpt lat="45.90178" lon="4.46435">
        <ele>508.20001220703</ele>
        <time>2020-03-14T15:34:07.000Z</time>
      </trkpt>
      <trkpt lat="45.90174" lon="4.46436">
        <ele>507.79998779297</ele>
        <time>2020-03-14T15:34:08.000Z</time>
      </trkpt>
      <trkpt lat="45.9017" lon="4.46437">
        <ele>507.60000610352</ele>
        <time>2020-03-14T15:34:09.000Z</time>
      </trkpt>
      <trkpt lat="45.90166" lon="4.46439">
        <ele>507.39999389648</ele>
        <time>2020-03-14T15:34:10.000Z</time>
      </trkpt>
      <trkpt lat="45.90161" lon="4.46443">
        <ele>507.39999389648</ele>
        <time>2020-03-14T15:34:11.000Z</time>
      </trkpt>
      <trkpt lat="45.90158" lon="4.46443">
        <ele>507.20001220703</ele>
        <time>2020-03-14T15:34:12.000Z</time>
      </trkpt>
      <trkpt lat="45.90154" lon="4.46442">
        <ele>507.20001220703</ele>
        <time>2020-03-14T15:34:13.000Z</time>
      </trkpt>
      <trkpt lat="45.9015" lon="4.46441">
        <ele>507.20001220703</ele>
        <time>2020-03-14T15:34:14.000Z</time>
      </trkpt>
      <trkpt lat="45.90147" lon="4.46441">
        <ele>507.39999389648</ele>
        <time>2020-03-14T15:34:15.000Z</time>
      </trkpt>
      <trkpt lat="45.90143" lon="4.46442">
        <ele>507.39999389648</ele>
        <time>2020-03-14T15:34:16.000Z</time>
      </trkpt>
      <trkpt lat="45.90139" lon="4.46441">
        <ele>507.60000610352</ele>
        <time>2020-03-14T15:34:17.000Z</time>
      </trkpt>
      <trkpt lat="45.90134" lon="4.46441">
        <ele>507.60000610352</ele>
        <time>2020-03-14T15:34:18.000Z</time>
      </trkpt>
      <trkpt lat="45.9013" lon="4.46441">
        <ele>508</ele>
        <time>2020-03-14T15:34:19.000Z</time>
      </trkpt>
      <trkpt lat="45.90126" lon="4.46439">
        <ele>508.20001220703</ele>
        <time>2020-03-14T15:34:20.000Z</time>
      </trkpt>
      <trkpt lat="45.90121" lon="4.46438">
        <ele>508.39999389648</ele>
        <time>2020-03-14T15:34:21.000Z</time>
      </trkpt>
      <trkpt lat="45.90118" lon="4.46437">
        <ele>508.79998779297</ele>
        <time>2020-03-14T15:34:22.000Z</time>
      </trkpt>
      <trkpt lat="45.90114" lon="4.46436">
        <ele>508.79998779297</ele>
        <time>2020-03-14T15:34:23.000Z</time>
      </trkpt>
      <trkpt lat="45.90109" lon="4.46435">
        <ele>509</ele>
        <time>2020-03-14T15:34:24.000Z</time>
      </trkpt>
      <trkpt lat="45.90104" lon="4.46435">
        <ele>509</ele>
        <time>2020-03-14T15:34:25.000Z</time>
      </trkpt>
      <trkpt lat="45.901" lon="4.46435">
        <ele>509.20001220703</ele>
        <time>2020-03-14T15:34:26.000Z</time>
      </trkpt>
      <trkpt lat="45.90096" lon="4.46434">
        <ele>509.20001220703</ele>
        <time>2020-03-14T15:34:27.000Z</time>
      </trkpt>
      <trkpt lat="45.90089" lon="4.46436">
        <ele>509.20001220703</ele>
        <time>2020-03-14T15:34:28.000Z</time>
      </trkpt>
      <trkpt lat="45.90085" lon="4.46436">
        <ele>509.20001220703</ele>
        <time>2020-03-14T15:34:29.000Z</time>
      </trkpt>
      <trkpt lat="45.9008" lon="4.46435">
        <ele>509.20001220703</ele>
        <time>2020-03-14T15:34:30.000Z</time>
      </trkpt>
      <trkpt lat="45.90076" lon="4.46433">
        <ele>509.39999389648</ele>
        <time>2020-03-14T15:34:31.000Z</time>
      </trkpt>
      <trkpt lat="45.90073" lon="4.46432">
        <ele>509.39999389648</ele>
        <time>2020-03-14T15:34:32.000Z</time>
      </trkpt>
      <trkpt lat="45.90069" lon="4.46431">
        <ele>509.39999389648</ele>
        <time>2020-03-14T15:34:33.000Z</time>
      </trkpt>
      <trkpt lat="45.90066" lon="4.4643">
        <ele>509.39999389648</ele>
        <time>2020-03-14T15:34:34.000Z</time>
      </trkpt>
      <trkpt lat="45.90063" lon="4.46427">
        <ele>509.60000610352</ele>
        <time>2020-03-14T15:34:35.000Z</time>
      </trkpt>
      <trkpt lat="45.9006" lon="4.46425">
        <ele>509.60000610352</ele>
        <time>2020-03-14T15:34:36.000Z</time>
      </trkpt>
      <trkpt lat="45.90058" lon="4.46423">
        <ele>509.79998779297</ele>
        <time>2020-03-14T15:34:37.000Z</time>
      </trkpt>
      <trkpt lat="45.90055" lon="4.4642">
        <ele>510</ele>
        <time>2020-03-14T15:34:38.000Z</time>
      </trkpt>
      <trkpt lat="45.90053" lon="4.46417">
        <ele>510</ele>
        <time>2020-03-14T15:34:39.000Z</time>
      </trkpt>
      <trkpt lat="45.9005" lon="4.46414">
        <ele>510.39999389648</ele>
        <time>2020-03-14T15:34:40.000Z</time>
      </trkpt>
      <trkpt lat="45.90047" lon="4.46409">
        <ele>510.79998779297</ele>
        <time>2020-03-14T15:34:41.000Z</time>
      </trkpt>
      <trkpt lat="45.90045" lon="4.46405">
        <ele>511</ele>
        <time>2020-03-14T15:34:42.000Z</time>
      </trkpt>
      <trkpt lat="45.90042" lon="4.46401">
        <ele>511.20001220703</ele>
        <time>2020-03-14T15:34:43.000Z</time>
      </trkpt>
      <trkpt lat="45.9004" lon="4.46398">
        <ele>511.20001220703</ele>
        <time>2020-03-14T15:34:44.000Z</time>
      </trkpt>
      <trkpt lat="45.90038" lon="4.46394">
        <ele>511.39999389648</ele>
        <time>2020-03-14T15:34:45.000Z</time>
      </trkpt>
      <trkpt lat="45.90036" lon="4.46391">
        <ele>511.39999389648</ele>
        <time>2020-03-14T15:34:46.000Z</time>
      </trkpt>
      <trkpt lat="45.90034" lon="4.46388">
        <ele>511.39999389648</ele>
        <time>2020-03-14T15:34:47.000Z</time>
      </trkpt>
      <trkpt lat="45.90032" lon="4.46383">
        <ele>511.39999389648</ele>
        <time>2020-03-14T15:34:48.000Z</time>
      </trkpt>
      <trkpt lat="45.9003" lon="4.46378">
        <ele>511.39999389648</ele>
        <time>2020-03-14T15:34:49.000Z</time>
      </trkpt>
      <trkpt lat="45.90027" lon="4.46372">
        <ele>511.20001220703</ele>
        <time>2020-03-14T15:34:50.000Z</time>
      </trkpt>
      <trkpt lat="45.90024" lon="4.46365">
        <ele>510.79998779297</ele>
        <time>2020-03-14T15:34:51.000Z</time>
      </trkpt>
      <trkpt lat="45.90022" lon="4.4636">
        <ele>510.60000610352</ele>
        <time>2020-03-14T15:34:52.000Z</time>
      </trkpt>
      <trkpt lat="45.9002" lon="4.46354">
        <ele>510.39999389648</ele>
        <time>2020-03-14T15:34:53.000Z</time>
      </trkpt>
      <trkpt lat="45.90018" lon="4.46349">
        <ele>510</ele>
        <time>2020-03-14T15:34:54.000Z</time>
      </trkpt>
      <trkpt lat="45.90018" lon="4.46345">
        <ele>509.79998779297</ele>
        <time>2020-03-14T15:34:55.000Z</time>
      </trkpt>
      <trkpt lat="45.90017" lon="4.46342">
        <ele>509.79998779297</ele>
        <time>2020-03-14T15:34:56.000Z</time>
      </trkpt>
      <trkpt lat="45.90015" lon="4.46339">
        <ele>509.79998779297</ele>
        <time>2020-03-14T15:34:57.000Z</time>
      </trkpt>
      <trkpt lat="45.90015" lon="4.46337">
        <ele>509.79998779297</ele>
        <time>2020-03-14T15:34:58.000Z</time>
      </trkpt>
      <trkpt lat="45.90013" lon="4.46333">
        <ele>509.79998779297</ele>
        <time>2020-03-14T15:34:59.000Z</time>
      </trkpt>
      <trkpt lat="45.90012" lon="4.46329">
        <ele>509.79998779297</ele>
        <time>2020-03-14T15:35:00.000Z</time>
      </trkpt>
      <trkpt lat="45.9001" lon="4.46324">
        <ele>510</ele>
        <time>2020-03-14T15:35:01.000Z</time>
      </trkpt>
      <trkpt lat="45.9001" lon="4.46321">
        <ele>510</ele>
        <time>2020-03-14T15:35:02.000Z</time>
      </trkpt>
      <trkpt lat="45.9001" lon="4.46316">
        <ele>510</ele>
        <time>2020-03-14T15:35:03.000Z</time>
      </trkpt>
      <trkpt lat="45.90009" lon="4.46311">
        <ele>510</ele>
        <time>2020-03-14T15:35:04.000Z</time>
      </trkpt>
      <trkpt lat="45.90008" lon="4.46307">
        <ele>510</ele>
        <time>2020-03-14T15:35:05.000Z</time>
      </trkpt>
      <trkpt lat="45.90007" lon="4.46303">
        <ele>510</ele>
        <time>2020-03-14T15:35:06.000Z</time>
      </trkpt>
      <trkpt lat="45.90006" lon="4.46299">
        <ele>510</ele>
        <time>2020-03-14T15:35:07.000Z</time>
      </trkpt>
      <trkpt lat="45.90005" lon="4.46294">
        <ele>510</ele>
        <time>2020-03-14T15:35:08.000Z</time>
      </trkpt>
      <trkpt lat="45.90004" lon="4.4629">
        <ele>510.20001220703</ele>
        <time>2020-03-14T15:35:09.000Z</time>
      </trkpt>
      <trkpt lat="45.90002" lon="4.46286">
        <ele>510.20001220703</ele>
        <time>2020-03-14T15:35:10.000Z</time>
      </trkpt>
      <trkpt lat="45.90001" lon="4.46283">
        <ele>510.20001220703</ele>
        <time>2020-03-14T15:35:11.000Z</time>
      </trkpt>
      <trkpt lat="45.89999" lon="4.4628">
        <ele>510.39999389648</ele>
        <time>2020-03-14T15:35:12.000Z</time>
      </trkpt>
      <trkpt lat="45.89997" lon="4.46275">
        <ele>510.39999389648</ele>
        <time>2020-03-14T15:35:13.000Z</time>
      </trkpt>
      <trkpt lat="45.89996" lon="4.46272">
        <ele>510.79998779297</ele>
        <time>2020-03-14T15:35:14.000Z</time>
      </trkpt>
      <trkpt lat="45.89994" lon="4.46268">
        <ele>511.20001220703</ele>
        <time>2020-03-14T15:35:15.000Z</time>
      </trkpt>
      <trkpt lat="45.89992" lon="4.46265">
        <ele>511.60000610352</ele>
        <time>2020-03-14T15:35:16.000Z</time>
      </trkpt>
      <trkpt lat="45.89991" lon="4.46262">
        <ele>511.79998779297</ele>
        <time>2020-03-14T15:35:17.000Z</time>
      </trkpt>
      <trkpt lat="45.8999" lon="4.4626">
        <ele>512</ele>
        <time>2020-03-14T15:35:18.000Z</time>
      </trkpt>
      <trkpt lat="45.89989" lon="4.46257">
        <ele>512</ele>
        <time>2020-03-14T15:35:19.000Z</time>
      </trkpt>
      <trkpt lat="45.89989" lon="4.46255">
        <ele>512.20001220703</ele>
        <time>2020-03-14T15:35:20.000Z</time>
      </trkpt>
      <trkpt lat="45.89989" lon="4.46253">
        <ele>512.40002441406</ele>
        <time>2020-03-14T15:35:21.000Z</time>
      </trkpt>
      <trkpt lat="45.89988" lon="4.4625">
        <ele>512.59997558594</ele>
        <time>2020-03-14T15:35:22.000Z</time>
      </trkpt>
      <trkpt lat="45.89987" lon="4.46248">
        <ele>512.79998779297</ele>
        <time>2020-03-14T15:35:23.000Z</time>
      </trkpt>
      <trkpt lat="45.89986" lon="4.46246">
        <ele>513</ele>
        <time>2020-03-14T15:35:24.000Z</time>
      </trkpt>
      <trkpt lat="45.89985" lon="4.46244">
        <ele>513.20001220703</ele>
        <time>2020-03-14T15:35:25.000Z</time>
      </trkpt>
      <trkpt lat="45.89985" lon="4.46241">
        <ele>513.20001220703</ele>
        <time>2020-03-14T15:35:26.000Z</time>
      </trkpt>
      <trkpt lat="45.89984" lon="4.46239">
        <ele>513.20001220703</ele>
        <time>2020-03-14T15:35:27.000Z</time>
      </trkpt>
      <trkpt lat="45.89985" lon="4.46238">
        <ele>513.40002441406</ele>
        <time>2020-03-14T15:35:28.000Z</time>
      </trkpt>
      <trkpt lat="45.89985" lon="4.46236">
        <ele>513.59997558594</ele>
        <time>2020-03-14T15:35:29.000Z</time>
      </trkpt>
      <trkpt lat="45.89985" lon="4.46234">
        <ele>513.79998779297</ele>
        <time>2020-03-14T15:35:30.000Z</time>
      </trkpt>
      <trkpt lat="45.89984" lon="4.46232">
        <ele>514</ele>
        <time>2020-03-14T15:35:31.000Z</time>
      </trkpt>
      <trkpt lat="45.89984" lon="4.4623">
        <ele>514.20001220703</ele>
        <time>2020-03-14T15:35:32.000Z</time>
      </trkpt>
      <trkpt lat="45.89984" lon="4.46229">
        <ele>514.40002441406</ele>
        <time>2020-03-14T15:35:33.000Z</time>
      </trkpt>
      <trkpt lat="45.89984" lon="4.46226">
        <ele>514.59997558594</ele>
        <time>2020-03-14T15:35:34.000Z</time>
      </trkpt>
      <trkpt lat="45.89983" lon="4.46224">
        <ele>514.79998779297</ele>
        <time>2020-03-14T15:35:35.000Z</time>
      </trkpt>
      <trkpt lat="45.89983" lon="4.46223">
        <ele>515</ele>
        <time>2020-03-14T15:35:36.000Z</time>
      </trkpt>
      <trkpt lat="45.89983" lon="4.46222">
        <ele>515.40002441406</ele>
        <time>2020-03-14T15:35:37.000Z</time>
      </trkpt>
      <trkpt lat="45.89983" lon="4.46221">
        <ele>515.79998779297</ele>
        <time>2020-03-14T15:35:38.000Z</time>
      </trkpt>
      <trkpt lat="45.89982" lon="4.46219">
        <ele>516.20001220703</ele>
        <time>2020-03-14T15:35:39.000Z</time>
      </trkpt>
      <trkpt lat="45.89981" lon="4.46217">
        <ele>517</ele>
        <time>2020-03-14T15:35:40.000Z</time>
      </trkpt>
      <trkpt lat="45.8998" lon="4.46215">
        <ele>517.79998779297</ele>
        <time>2020-03-14T15:35:41.000Z</time>
      </trkpt>
      <trkpt lat="45.8998" lon="4.46214">
        <ele>518</ele>
        <time>2020-03-14T15:35:42.000Z</time>
      </trkpt>
      <trkpt lat="45.8998" lon="4.46213">
        <ele>518.40002441406</ele>
        <time>2020-03-14T15:35:43.000Z</time>
      </trkpt>
      <trkpt lat="45.89979" lon="4.46213">
        <ele>518.40002441406</ele>
        <time>2020-03-14T15:35:44.000Z</time>
      </trkpt>
      <trkpt lat="45.89979" lon="4.46213">
        <ele>518.59997558594</ele>
        <time>2020-03-14T15:35:45.000Z</time>
      </trkpt>
      <trkpt lat="45.89978" lon="4.46211">
        <ele>518.79998779297</ele>
        <time>2020-03-14T15:35:46.000Z</time>
      </trkpt>
      <trkpt lat="45.89976" lon="4.4621">
        <ele>519</ele>
        <time>2020-03-14T15:35:47.000Z</time>
      </trkpt>
      <trkpt lat="45.89976" lon="4.4621">
        <ele>519</ele>
        <time>2020-03-14T15:35:48.000Z</time>
      </trkpt>
      <trkpt lat="45.89976" lon="4.46209">
        <ele>519.20001220703</ele>
        <time>2020-03-14T15:35:49.000Z</time>
      </trkpt>
      <trkpt lat="45.89975" lon="4.46208">
        <ele>519.40002441406</ele>
        <time>2020-03-14T15:35:50.000Z</time>
      </trkpt>
      <trkpt lat="45.89973" lon="4.46207">
        <ele>519.79998779297</ele>
        <time>2020-03-14T15:35:51.000Z</time>
      </trkpt>
      <trkpt lat="45.89973" lon="4.46207">
        <ele>520.20001220703</ele>
        <time>2020-03-14T15:35:52.000Z</time>
      </trkpt>
      <trkpt lat="45.89973" lon="4.46205">
        <ele>520.40002441406</ele>
        <time>2020-03-14T15:35:53.000Z</time>
      </trkpt>
      <trkpt lat="45.89972" lon="4.46204">
        <ele>520.59997558594</ele>
        <time>2020-03-14T15:35:54.000Z</time>
      </trkpt>
      <trkpt lat="45.89971" lon="4.46203">
        <ele>520.59997558594</ele>
        <time>2020-03-14T15:35:55.000Z</time>
      </trkpt>
      <trkpt lat="45.8997" lon="4.46203">
        <ele>520.79998779297</ele>
        <time>2020-03-14T15:35:56.000Z</time>
      </trkpt>
      <trkpt lat="45.89969" lon="4.46202">
        <ele>521</ele>
        <time>2020-03-14T15:35:57.000Z</time>
      </trkpt>
      <trkpt lat="45.89967" lon="4.46202">
        <ele>521.20001220703</ele>
        <time>2020-03-14T15:35:58.000Z</time>
      </trkpt>
      <trkpt lat="45.89966" lon="4.46202">
        <ele>521.20001220703</ele>
        <time>2020-03-14T15:35:59.000Z</time>
      </trkpt>
      <trkpt lat="45.89964" lon="4.46201">
        <ele>521.40002441406</ele>
        <time>2020-03-14T15:36:00.000Z</time>
      </trkpt>
      <trkpt lat="45.89962" lon="4.46201">
        <ele>521.40002441406</ele>
        <time>2020-03-14T15:36:01.000Z</time>
      </trkpt>
      <trkpt lat="45.8996" lon="4.462">
        <ele>521.59997558594</ele>
        <time>2020-03-14T15:36:02.000Z</time>
      </trkpt>
      <trkpt lat="45.89959" lon="4.462">
        <ele>522</ele>
        <time>2020-03-14T15:36:03.000Z</time>
      </trkpt>
      <trkpt lat="45.89958" lon="4.462">
        <ele>522.20001220703</ele>
        <time>2020-03-14T15:36:04.000Z</time>
      </trkpt>
      <trkpt lat="45.89957" lon="4.462">
        <ele>522.40002441406</ele>
        <time>2020-03-14T15:36:05.000Z</time>
      </trkpt>
      <trkpt lat="45.89957" lon="4.46199">
        <ele>522.40002441406</ele>
        <time>2020-03-14T15:36:06.000Z</time>
      </trkpt>
      <trkpt lat="45.89956" lon="4.46198">
        <ele>522.40002441406</ele>
        <time>2020-03-14T15:36:07.000Z</time>
      </trkpt>
      <trkpt lat="45.89955" lon="4.46197">
        <ele>522.59997558594</ele>
        <time>2020-03-14T15:36:08.000Z</time>
      </trkpt>
      <trkpt lat="45.89953" lon="4.46197">
        <ele>522.59997558594</ele>
        <time>2020-03-14T15:36:09.000Z</time>
      </trkpt>
      <trkpt lat="45.89952" lon="4.46197">
        <ele>522.59997558594</ele>
        <time>2020-03-14T15:36:10.000Z</time>
      </trkpt>
      <trkpt lat="45.8995" lon="4.46196">
        <ele>522.79998779297</ele>
        <time>2020-03-14T15:36:11.000Z</time>
      </trkpt>
      <trkpt lat="45.89949" lon="4.46196">
        <ele>522.79998779297</ele>
        <time>2020-03-14T15:36:12.000Z</time>
      </trkpt>
      <trkpt lat="45.89948" lon="4.46196">
        <ele>523</ele>
        <time>2020-03-14T15:36:13.000Z</time>
      </trkpt>
      <trkpt lat="45.89947" lon="4.46194">
        <ele>523</ele>
        <time>2020-03-14T15:36:14.000Z</time>
      </trkpt>
      <trkpt lat="45.89946" lon="4.46193">
        <ele>523</ele>
        <time>2020-03-14T15:36:15.000Z</time>
      </trkpt>
      <trkpt lat="45.89944" lon="4.46192">
        <ele>523.20001220703</ele>
        <time>2020-03-14T15:36:16.000Z</time>
      </trkpt>
      <trkpt lat="45.89942" lon="4.46191">
        <ele>523</ele>
        <time>2020-03-14T15:36:17.000Z</time>
      </trkpt>
      <trkpt lat="45.89941" lon="4.46191">
        <ele>523</ele>
        <time>2020-03-14T15:36:18.000Z</time>
      </trkpt>
      <trkpt lat="45.8994" lon="4.46189">
        <ele>523.20001220703</ele>
        <time>2020-03-14T15:36:19.000Z</time>
      </trkpt>
      <trkpt lat="45.89939" lon="4.46189">
        <ele>523.20001220703</ele>
        <time>2020-03-14T15:36:20.000Z</time>
      </trkpt>
      <trkpt lat="45.89937" lon="4.46188">
        <ele>523.20001220703</ele>
        <time>2020-03-14T15:36:21.000Z</time>
      </trkpt>
      <trkpt lat="45.89936" lon="4.46188">
        <ele>523.20001220703</ele>
        <time>2020-03-14T15:36:22.000Z</time>
      </trkpt>
      <trkpt lat="45.89935" lon="4.46187">
        <ele>523.20001220703</ele>
        <time>2020-03-14T15:36:23.000Z</time>
      </trkpt>
      <trkpt lat="45.89934" lon="4.46187">
        <ele>523.40002441406</ele>
        <time>2020-03-14T15:36:24.000Z</time>
      </trkpt>
      <trkpt lat="45.89932" lon="4.46185">
        <ele>523.40002441406</ele>
        <time>2020-03-14T15:36:25.000Z</time>
      </trkpt>
      <trkpt lat="45.8993" lon="4.46183">
        <ele>523.59997558594</ele>
        <time>2020-03-14T15:36:26.000Z</time>
      </trkpt>
      <trkpt lat="45.89929" lon="4.46183">
        <ele>523.59997558594</ele>
        <time>2020-03-14T15:36:27.000Z</time>
      </trkpt>
      <trkpt lat="45.89927" lon="4.46183">
        <ele>523.79998779297</ele>
        <time>2020-03-14T15:36:28.000Z</time>
      </trkpt>
      <trkpt lat="45.89926" lon="4.46182">
        <ele>523.79998779297</ele>
        <time>2020-03-14T15:36:29.000Z</time>
      </trkpt>
      <trkpt lat="45.89925" lon="4.46181">
        <ele>524</ele>
        <time>2020-03-14T15:36:30.000Z</time>
      </trkpt>
      <trkpt lat="45.89923" lon="4.46181">
        <ele>524</ele>
        <time>2020-03-14T15:36:31.000Z</time>
      </trkpt>
      <trkpt lat="45.89922" lon="4.46181">
        <ele>524.20001220703</ele>
        <time>2020-03-14T15:36:32.000Z</time>
      </trkpt>
      <trkpt lat="45.89921" lon="4.4618">
        <ele>524.20001220703</ele>
        <time>2020-03-14T15:36:33.000Z</time>
      </trkpt>
      <trkpt lat="45.8992" lon="4.4618">
        <ele>524.59997558594</ele>
        <time>2020-03-14T15:36:34.000Z</time>
      </trkpt>
      <trkpt lat="45.89919" lon="4.46179">
        <ele>524.79998779297</ele>
        <time>2020-03-14T15:36:35.000Z</time>
      </trkpt>
      <trkpt lat="45.89917" lon="4.46178">
        <ele>524.79998779297</ele>
        <time>2020-03-14T15:36:36.000Z</time>
      </trkpt>
      <trkpt lat="45.89915" lon="4.46178">
        <ele>524.79998779297</ele>
        <time>2020-03-14T15:36:37.000Z</time>
      </trkpt>
      <trkpt lat="45.89915" lon="4.46179">
        <ele>525</ele>
        <time>2020-03-14T15:36:38.000Z</time>
      </trkpt>
      <trkpt lat="45.89914" lon="4.46178">
        <ele>525.20001220703</ele>
        <time>2020-03-14T15:36:39.000Z</time>
      </trkpt>
      <trkpt lat="45.89913" lon="4.46177">
        <ele>525.40002441406</ele>
        <time>2020-03-14T15:36:40.000Z</time>
      </trkpt>
      <trkpt lat="45.89912" lon="4.46176">
        <ele>525.40002441406</ele>
        <time>2020-03-14T15:36:41.000Z</time>
      </trkpt>
      <trkpt lat="45.89911" lon="4.46174">
        <ele>525.59997558594</ele>
        <time>2020-03-14T15:36:42.000Z</time>
      </trkpt>
      <trkpt lat="45.8991" lon="4.46173">
        <ele>525.79998779297</ele>
        <time>2020-03-14T15:36:43.000Z</time>
      </trkpt>
      <trkpt lat="45.89909" lon="4.46172">
        <ele>526</ele>
        <time>2020-03-14T15:36:44.000Z</time>
      </trkpt>
      <trkpt lat="45.89907" lon="4.46171">
        <ele>526</ele>
        <time>2020-03-14T15:36:45.000Z</time>
      </trkpt>
      <trkpt lat="45.89905" lon="4.46169">
        <ele>526.20001220703</ele>
        <time>2020-03-14T15:36:46.000Z</time>
      </trkpt>
      <trkpt lat="45.89904" lon="4.46168">
        <ele>526.20001220703</ele>
        <time>2020-03-14T15:36:47.000Z</time>
      </trkpt>
      <trkpt lat="45.89903" lon="4.46167">
        <ele>526.40002441406</ele>
        <time>2020-03-14T15:36:48.000Z</time>
      </trkpt>
      <trkpt lat="45.89902" lon="4.46166">
        <ele>526.40002441406</ele>
        <time>2020-03-14T15:36:49.000Z</time>
      </trkpt>
      <trkpt lat="45.89901" lon="4.46166">
        <ele>526.59997558594</ele>
        <time>2020-03-14T15:36:50.000Z</time>
      </trkpt>
      <trkpt lat="45.89899" lon="4.46166">
        <ele>526.59997558594</ele>
        <time>2020-03-14T15:36:51.000Z</time>
      </trkpt>
      <trkpt lat="45.89898" lon="4.46165">
        <ele>526.59997558594</ele>
        <time>2020-03-14T15:36:52.000Z</time>
      </trkpt>
      <trkpt lat="45.89896" lon="4.46164">
        <ele>526.79998779297</ele>
        <time>2020-03-14T15:36:53.000Z</time>
      </trkpt>
      <trkpt lat="45.89895" lon="4.46163">
        <ele>526.79998779297</ele>
        <time>2020-03-14T15:36:54.000Z</time>
      </trkpt>
      <trkpt lat="45.89893" lon="4.46162">
        <ele>527</ele>
        <time>2020-03-14T15:36:55.000Z</time>
      </trkpt>
      <trkpt lat="45.89892" lon="4.46161">
        <ele>527</ele>
        <time>2020-03-14T15:36:56.000Z</time>
      </trkpt>
      <trkpt lat="45.89891" lon="4.46161">
        <ele>527.20001220703</ele>
        <time>2020-03-14T15:36:57.000Z</time>
      </trkpt>
      <trkpt lat="45.89891" lon="4.4616">
        <ele>527.40002441406</ele>
        <time>2020-03-14T15:36:58.000Z</time>
      </trkpt>
      <trkpt lat="45.8989" lon="4.46159">
        <ele>527.40002441406</ele>
        <time>2020-03-14T15:36:59.000Z</time>
      </trkpt>
      <trkpt lat="45.89888" lon="4.46158">
        <ele>527.59997558594</ele>
        <time>2020-03-14T15:37:00.000Z</time>
      </trkpt>
      <trkpt lat="45.89887" lon="4.46157">
        <ele>527.59997558594</ele>
        <time>2020-03-14T15:37:01.000Z</time>
      </trkpt>
      <trkpt lat="45.89886" lon="4.46156">
        <ele>527.79998779297</ele>
        <time>2020-03-14T15:37:02.000Z</time>
      </trkpt>
      <trkpt lat="45.89885" lon="4.46155">
        <ele>527.79998779297</ele>
        <time>2020-03-14T15:37:03.000Z</time>
      </trkpt>
      <trkpt lat="45.89884" lon="4.46154">
        <ele>528</ele>
        <time>2020-03-14T15:37:04.000Z</time>
      </trkpt>
      <trkpt lat="45.89882" lon="4.46153">
        <ele>528</ele>
        <time>2020-03-14T15:37:05.000Z</time>
      </trkpt>
      <trkpt lat="45.89882" lon="4.46152">
        <ele>528</ele>
        <time>2020-03-14T15:37:06.000Z</time>
      </trkpt>
      <trkpt lat="45.8988" lon="4.46152">
        <ele>528.20001220703</ele>
        <time>2020-03-14T15:37:07.000Z</time>
      </trkpt>
      <trkpt lat="45.8988" lon="4.46152">
        <ele>528.20001220703</ele>
        <time>2020-03-14T15:37:08.000Z</time>
      </trkpt>
      <trkpt lat="45.89879" lon="4.46153">
        <ele>528.20001220703</ele>
        <time>2020-03-14T15:37:09.000Z</time>
      </trkpt>
      <trkpt lat="45.89878" lon="4.46153">
        <ele>528.20001220703</ele>
        <time>2020-03-14T15:37:10.000Z</time>
      </trkpt>
      <trkpt lat="45.89877" lon="4.46155">
        <ele>528.20001220703</ele>
        <time>2020-03-14T15:37:11.000Z</time>
      </trkpt>
      <trkpt lat="45.89877" lon="4.46156">
        <ele>528.20001220703</ele>
        <time>2020-03-14T15:37:12.000Z</time>
      </trkpt>
      <trkpt lat="45.89877" lon="4.46157">
        <ele>528.20001220703</ele>
        <time>2020-03-14T15:37:13.000Z</time>
      </trkpt>
      <trkpt lat="45.89877" lon="4.46157">
        <ele>528.40002441406</ele>
        <time>2020-03-14T15:37:14.000Z</time>
      </trkpt>
      <trkpt lat="45.89878" lon="4.46157">
        <ele>528.40002441406</ele>
        <time>2020-03-14T15:37:15.000Z</time>
      </trkpt>
      <trkpt lat="45.89878" lon="4.46157">
        <ele>528.40002441406</ele>
        <time>2020-03-14T15:37:16.000Z</time>
      </trkpt>
      <trkpt lat="45.89878" lon="4.46157">
        <ele>528.20001220703</ele>
        <time>2020-03-14T15:37:17.000Z</time>
      </trkpt>
      <trkpt lat="45.89879" lon="4.46157">
        <ele>528.20001220703</ele>
        <time>2020-03-14T15:37:18.000Z</time>
      </trkpt>
      <trkpt lat="45.89879" lon="4.46157">
        <ele>528.20001220703</ele>
        <time>2020-03-14T15:37:19.000Z</time>
      </trkpt>
      <trkpt lat="45.89879" lon="4.46157">
        <ele>528.20001220703</ele>
        <time>2020-03-14T15:37:20.000Z</time>
      </trkpt>
      <trkpt lat="45.89878" lon="4.46158">
        <ele>528.20001220703</ele>
        <time>2020-03-14T15:37:21.000Z</time>
      </trkpt>
      <trkpt lat="45.89876" lon="4.46159">
        <ele>528.20001220703</ele>
        <time>2020-03-14T15:37:22.000Z</time>
      </trkpt>
      <trkpt lat="45.89875" lon="4.4616">
        <ele>528.20001220703</ele>
        <time>2020-03-14T15:37:23.000Z</time>
      </trkpt>
      <trkpt lat="45.89874" lon="4.4616">
        <ele>528.20001220703</ele>
        <time>2020-03-14T15:37:24.000Z</time>
      </trkpt>
      <trkpt lat="45.89874" lon="4.4616">
        <ele>528.20001220703</ele>
        <time>2020-03-14T15:37:25.000Z</time>
      </trkpt>
      <trkpt lat="45.89873" lon="4.46159">
        <ele>528.20001220703</ele>
        <time>2020-03-14T15:37:26.000Z</time>
      </trkpt>
      <trkpt lat="45.89872" lon="4.46159">
        <ele>528.20001220703</ele>
        <time>2020-03-14T15:37:27.000Z</time>
      </trkpt>
      <trkpt lat="45.8987" lon="4.46159">
        <ele>528.20001220703</ele>
        <time>2020-03-14T15:37:28.000Z</time>
      </trkpt>
      <trkpt lat="45.89869" lon="4.46158">
        <ele>528.20001220703</ele>
        <time>2020-03-14T15:37:29.000Z</time>
      </trkpt>
      <trkpt lat="45.89868" lon="4.46156">
        <ele>528</ele>
        <time>2020-03-14T15:37:30.000Z</time>
      </trkpt>
      <trkpt lat="45.89866" lon="4.46154">
        <ele>527.79998779297</ele>
        <time>2020-03-14T15:37:31.000Z</time>
      </trkpt>
      <trkpt lat="45.89864" lon="4.46152">
        <ele>527.40002441406</ele>
        <time>2020-03-14T15:37:32.000Z</time>
      </trkpt>
      <trkpt lat="45.89861" lon="4.46151">
        <ele>527</ele>
        <time>2020-03-14T15:37:33.000Z</time>
      </trkpt>
      <trkpt lat="45.89858" lon="4.46149">
        <ele>526.79998779297</ele>
        <time>2020-03-14T15:37:34.000Z</time>
      </trkpt>
      <trkpt lat="45.89856" lon="4.46147">
        <ele>526.59997558594</ele>
        <time>2020-03-14T15:37:35.000Z</time>
      </trkpt>
      <trkpt lat="45.89854" lon="4.46144">
        <ele>526.59997558594</ele>
        <time>2020-03-14T15:37:36.000Z</time>
      </trkpt>
      <trkpt lat="45.89852" lon="4.46142">
        <ele>526.40002441406</ele>
        <time>2020-03-14T15:37:37.000Z</time>
      </trkpt>
      <trkpt lat="45.8985" lon="4.4614">
        <ele>526.40002441406</ele>
        <time>2020-03-14T15:37:38.000Z</time>
      </trkpt>
      <trkpt lat="45.89849" lon="4.46139">
        <ele>526.20001220703</ele>
        <time>2020-03-14T15:37:39.000Z</time>
      </trkpt>
      <trkpt lat="45.89848" lon="4.46137">
        <ele>526</ele>
        <time>2020-03-14T15:37:40.000Z</time>
      </trkpt>
      <trkpt lat="45.89845" lon="4.46135">
        <ele>526</ele>
        <time>2020-03-14T15:37:41.000Z</time>
      </trkpt>
      <trkpt lat="45.89844" lon="4.46133">
        <ele>525.79998779297</ele>
        <time>2020-03-14T15:37:42.000Z</time>
      </trkpt>
      <trkpt lat="45.89844" lon="4.46132">
        <ele>525.79998779297</ele>
        <time>2020-03-14T15:37:43.000Z</time>
      </trkpt>
      <trkpt lat="45.89843" lon="4.4613">
        <ele>525.79998779297</ele>
        <time>2020-03-14T15:37:44.000Z</time>
      </trkpt>
      <trkpt lat="45.89842" lon="4.46129">
        <ele>526</ele>
        <time>2020-03-14T15:37:45.000Z</time>
      </trkpt>
      <trkpt lat="45.8984" lon="4.46128">
        <ele>525.79998779297</ele>
        <time>2020-03-14T15:37:46.000Z</time>
      </trkpt>
      <trkpt lat="45.89839" lon="4.46127">
        <ele>525.79998779297</ele>
        <time>2020-03-14T15:37:47.000Z</time>
      </trkpt>
      <trkpt lat="45.89837" lon="4.46126">
        <ele>525.79998779297</ele>
        <time>2020-03-14T15:37:48.000Z</time>
      </trkpt>
      <trkpt lat="45.89834" lon="4.46125">
        <ele>525.59997558594</ele>
        <time>2020-03-14T15:37:49.000Z</time>
      </trkpt>
      <trkpt lat="45.89833" lon="4.46124">
        <ele>525.20001220703</ele>
        <time>2020-03-14T15:37:50.000Z</time>
      </trkpt>
      <trkpt lat="45.8983" lon="4.46121">
        <ele>525.20001220703</ele>
        <time>2020-03-14T15:37:51.000Z</time>
      </trkpt>
      <trkpt lat="45.89829" lon="4.4612">
        <ele>525.20001220703</ele>
        <time>2020-03-14T15:37:52.000Z</time>
      </trkpt>
      <trkpt lat="45.89826" lon="4.46119">
        <ele>525</ele>
        <time>2020-03-14T15:37:53.000Z</time>
      </trkpt>
      <trkpt lat="45.89825" lon="4.46118">
        <ele>525</ele>
        <time>2020-03-14T15:37:54.000Z</time>
      </trkpt>
      <trkpt lat="45.89823" lon="4.46117">
        <ele>525</ele>
        <time>2020-03-14T15:37:55.000Z</time>
      </trkpt>
      <trkpt lat="45.89822" lon="4.46115">
        <ele>525.20001220703</ele>
        <time>2020-03-14T15:37:56.000Z</time>
      </trkpt>
      <trkpt lat="45.8982" lon="4.46115">
        <ele>525.20001220703</ele>
        <time>2020-03-14T15:37:57.000Z</time>
      </trkpt>
      <trkpt lat="45.89818" lon="4.46114">
        <ele>525.20001220703</ele>
        <time>2020-03-14T15:37:58.000Z</time>
      </trkpt>
      <trkpt lat="45.89816" lon="4.46115">
        <ele>525.20001220703</ele>
        <time>2020-03-14T15:37:59.000Z</time>
      </trkpt>
      <trkpt lat="45.89813" lon="4.46115">
        <ele>525.20001220703</ele>
        <time>2020-03-14T15:38:00.000Z</time>
      </trkpt>
      <trkpt lat="45.8981" lon="4.46115">
        <ele>525.40002441406</ele>
        <time>2020-03-14T15:38:01.000Z</time>
      </trkpt>
      <trkpt lat="45.89808" lon="4.46114">
        <ele>525.40002441406</ele>
        <time>2020-03-14T15:38:02.000Z</time>
      </trkpt>
      <trkpt lat="45.89806" lon="4.46111">
        <ele>525.59997558594</ele>
        <time>2020-03-14T15:38:03.000Z</time>
      </trkpt>
      <trkpt lat="45.89804" lon="4.4611">
        <ele>526</ele>
        <time>2020-03-14T15:38:04.000Z</time>
      </trkpt>
      <trkpt lat="45.89799" lon="4.46106">
        <ele>526.20001220703</ele>
        <time>2020-03-14T15:38:05.000Z</time>
      </trkpt>
      <trkpt lat="45.89794" lon="4.46105">
        <ele>526.40002441406</ele>
        <time>2020-03-14T15:38:06.000Z</time>
      </trkpt>
      <trkpt lat="45.89791" lon="4.46102">
        <ele>526.59997558594</ele>
        <time>2020-03-14T15:38:07.000Z</time>
      </trkpt>
      <trkpt lat="45.89787" lon="4.461">
        <ele>526.79998779297</ele>
        <time>2020-03-14T15:38:08.000Z</time>
      </trkpt>
      <trkpt lat="45.89783" lon="4.46099">
        <ele>526.79998779297</ele>
        <time>2020-03-14T15:38:09.000Z</time>
      </trkpt>
      <trkpt lat="45.8978" lon="4.46098">
        <ele>527</ele>
        <time>2020-03-14T15:38:10.000Z</time>
      </trkpt>
      <trkpt lat="45.89779" lon="4.46096">
        <ele>527.20001220703</ele>
        <time>2020-03-14T15:38:11.000Z</time>
      </trkpt>
      <trkpt lat="45.89776" lon="4.46098">
        <ele>527.40002441406</ele>
        <time>2020-03-14T15:38:12.000Z</time>
      </trkpt>
      <trkpt lat="45.89773" lon="4.46097">
        <ele>527.59997558594</ele>
        <time>2020-03-14T15:38:13.000Z</time>
      </trkpt>
      <trkpt lat="45.89773" lon="4.46097">
        <ele>527.59997558594</ele>
        <time>2020-03-14T15:38:14.000Z</time>
      </trkpt>
      <trkpt lat="45.8977" lon="4.46099">
        <ele>527.59997558594</ele>
        <time>2020-03-14T15:38:15.000Z</time>
      </trkpt>
      <trkpt lat="45.89769" lon="4.46099">
        <ele>527.59997558594</ele>
        <time>2020-03-14T15:38:16.000Z</time>
      </trkpt>
      <trkpt lat="45.89767" lon="4.46101">
        <ele>527.59997558594</ele>
        <time>2020-03-14T15:38:17.000Z</time>
      </trkpt>
      <trkpt lat="45.89766" lon="4.461">
        <ele>527.59997558594</ele>
        <time>2020-03-14T15:38:18.000Z</time>
      </trkpt>
      <trkpt lat="45.89766" lon="4.46099">
        <ele>527.40002441406</ele>
        <time>2020-03-14T15:38:19.000Z</time>
      </trkpt>
      <trkpt lat="45.89765" lon="4.461">
        <ele>527.40002441406</ele>
        <time>2020-03-14T15:38:20.000Z</time>
      </trkpt>
      <trkpt lat="45.89764" lon="4.461">
        <ele>527.40002441406</ele>
        <time>2020-03-14T15:38:21.000Z</time>
      </trkpt>
      <trkpt lat="45.89763" lon="4.461">
        <ele>527.40002441406</ele>
        <time>2020-03-14T15:38:22.000Z</time>
      </trkpt>
      <trkpt lat="45.89762" lon="4.46101">
        <ele>527.40002441406</ele>
        <time>2020-03-14T15:38:23.000Z</time>
      </trkpt>
      <trkpt lat="45.89762" lon="4.461">
        <ele>527.40002441406</ele>
        <time>2020-03-14T15:38:24.000Z</time>
      </trkpt>
      <trkpt lat="45.89762" lon="4.461">
        <ele>527.40002441406</ele>
        <time>2020-03-14T15:38:25.000Z</time>
      </trkpt>
      <trkpt lat="45.89761" lon="4.46099">
        <ele>527.40002441406</ele>
        <time>2020-03-14T15:38:26.000Z</time>
      </trkpt>
      <trkpt lat="45.89759" lon="4.46098">
        <ele>527.40002441406</ele>
        <time>2020-03-14T15:38:27.000Z</time>
      </trkpt>
      <trkpt lat="45.8976" lon="4.46098">
        <ele>527.20001220703</ele>
        <time>2020-03-14T15:38:28.000Z</time>
      </trkpt>
      <trkpt lat="45.89759" lon="4.46098">
        <ele>527.20001220703</ele>
        <time>2020-03-14T15:38:29.000Z</time>
      </trkpt>
      <trkpt lat="45.89759" lon="4.46098">
        <ele>527.20001220703</ele>
        <time>2020-03-14T15:38:30.000Z</time>
      </trkpt>
      <trkpt lat="45.89759" lon="4.46097">
        <ele>527.20001220703</ele>
        <time>2020-03-14T15:38:31.000Z</time>
      </trkpt>
      <trkpt lat="45.8976" lon="4.46097">
        <ele>527.20001220703</ele>
        <time>2020-03-14T15:38:32.000Z</time>
      </trkpt>
      <trkpt lat="45.8976" lon="4.46098">
        <ele>527.20001220703</ele>
        <time>2020-03-14T15:38:33.000Z</time>
      </trkpt>
      <trkpt lat="45.8976" lon="4.46098">
        <ele>527</ele>
        <time>2020-03-14T15:38:34.000Z</time>
      </trkpt>
      <trkpt lat="45.89759" lon="4.46098">
        <ele>527</ele>
        <time>2020-03-14T15:38:35.000Z</time>
      </trkpt>
      <trkpt lat="45.89758" lon="4.46098">
        <ele>527</ele>
        <time>2020-03-14T15:38:36.000Z</time>
      </trkpt>
      <trkpt lat="45.89757" lon="4.46099">
        <ele>527.20001220703</ele>
        <time>2020-03-14T15:38:37.000Z</time>
      </trkpt>
      <trkpt lat="45.89755" lon="4.461">
        <ele>527</ele>
        <time>2020-03-14T15:38:38.000Z</time>
      </trkpt>
      <trkpt lat="45.89753" lon="4.46101">
        <ele>527</ele>
        <time>2020-03-14T15:38:39.000Z</time>
      </trkpt>
      <trkpt lat="45.89752" lon="4.46102">
        <ele>526.79998779297</ele>
        <time>2020-03-14T15:38:40.000Z</time>
      </trkpt>
      <trkpt lat="45.8975" lon="4.46101">
        <ele>526.20001220703</ele>
        <time>2020-03-14T15:38:41.000Z</time>
      </trkpt>
      <trkpt lat="45.89749" lon="4.46102">
        <ele>525.40002441406</ele>
        <time>2020-03-14T15:38:42.000Z</time>
      </trkpt>
      <trkpt lat="45.89748" lon="4.46103">
        <ele>524.59997558594</ele>
        <time>2020-03-14T15:38:43.000Z</time>
      </trkpt>
      <trkpt lat="45.89747" lon="4.46104">
        <ele>523.79998779297</ele>
        <time>2020-03-14T15:38:44.000Z</time>
      </trkpt>
      <trkpt lat="45.89747" lon="4.46104">
        <ele>523</ele>
        <time>2020-03-14T15:38:45.000Z</time>
      </trkpt>
      <trkpt lat="45.89745" lon="4.46104">
        <ele>522.59997558594</ele>
        <time>2020-03-14T15:38:46.000Z</time>
      </trkpt>
      <trkpt lat="45.89744" lon="4.46105">
        <ele>522.20001220703</ele>
        <time>2020-03-14T15:38:47.000Z</time>
      </trkpt>
      <trkpt lat="45.89744" lon="4.46105">
        <ele>522</ele>
        <time>2020-03-14T15:38:48.000Z</time>
      </trkpt>
      <trkpt lat="45.89743" lon="4.46107">
        <ele>521.79998779297</ele>
        <time>2020-03-14T15:38:49.000Z</time>
      </trkpt>
      <trkpt lat="45.89743" lon="4.46107">
        <ele>521.59997558594</ele>
        <time>2020-03-14T15:38:50.000Z</time>
      </trkpt>
      <trkpt lat="45.89742" lon="4.46108">
        <ele>521.59997558594</ele>
        <time>2020-03-14T15:38:51.000Z</time>
      </trkpt>
      <trkpt lat="45.89742" lon="4.4611">
        <ele>521.40002441406</ele>
        <time>2020-03-14T15:38:52.000Z</time>
      </trkpt>
      <trkpt lat="45.89742" lon="4.46109">
        <ele>521.40002441406</ele>
        <time>2020-03-14T15:38:53.000Z</time>
      </trkpt>
      <trkpt lat="45.89742" lon="4.4611">
        <ele>521.20001220703</ele>
        <time>2020-03-14T15:38:54.000Z</time>
      </trkpt>
      <trkpt lat="45.89741" lon="4.46112">
        <ele>521.20001220703</ele>
        <time>2020-03-14T15:38:55.000Z</time>
      </trkpt>
      <trkpt lat="45.89741" lon="4.46113">
        <ele>521</ele>
        <time>2020-03-14T15:38:56.000Z</time>
      </trkpt>
      <trkpt lat="45.89742" lon="4.46112">
        <ele>521</ele>
        <time>2020-03-14T15:38:57.000Z</time>
      </trkpt>
      <trkpt lat="45.89743" lon="4.46111">
        <ele>521</ele>
        <time>2020-03-14T15:38:58.000Z</time>
      </trkpt>
      <trkpt lat="45.89744" lon="4.46111">
        <ele>521</ele>
        <time>2020-03-14T15:38:59.000Z</time>
      </trkpt>
      <trkpt lat="45.89744" lon="4.46111">
        <ele>521.20001220703</ele>
        <time>2020-03-14T15:39:00.000Z</time>
      </trkpt>
      <trkpt lat="45.89745" lon="4.4611">
        <ele>521.40002441406</ele>
        <time>2020-03-14T15:39:01.000Z</time>
      </trkpt>
      <trkpt lat="45.89745" lon="4.4611">
        <ele>521.79998779297</ele>
        <time>2020-03-14T15:39:02.000Z</time>
      </trkpt>
      <trkpt lat="45.89745" lon="4.4611">
        <ele>522</ele>
        <time>2020-03-14T15:39:03.000Z</time>
      </trkpt>
      <trkpt lat="45.89746" lon="4.4611">
        <ele>522.20001220703</ele>
        <time>2020-03-14T15:39:04.000Z</time>
      </trkpt>
      <trkpt lat="45.89746" lon="4.4611">
        <ele>522.40002441406</ele>
        <time>2020-03-14T15:39:05.000Z</time>
      </trkpt>
      <trkpt lat="45.89746" lon="4.4611">
        <ele>522.59997558594</ele>
        <time>2020-03-14T15:39:06.000Z</time>
      </trkpt>
      <trkpt lat="45.89747" lon="4.46108">
        <ele>522.79998779297</ele>
        <time>2020-03-14T15:39:07.000Z</time>
      </trkpt>
      <trkpt lat="45.89748" lon="4.46108">
        <ele>523</ele>
        <time>2020-03-14T15:39:08.000Z</time>
      </trkpt>
      <trkpt lat="45.89749" lon="4.46107">
        <ele>523</ele>
        <time>2020-03-14T15:39:09.000Z</time>
      </trkpt>
      <trkpt lat="45.89749" lon="4.46107">
        <ele>523.20001220703</ele>
        <time>2020-03-14T15:39:10.000Z</time>
      </trkpt>
      <trkpt lat="45.8975" lon="4.46106">
        <ele>523.40002441406</ele>
        <time>2020-03-14T15:39:11.000Z</time>
      </trkpt>
      <trkpt lat="45.89751" lon="4.46105">
        <ele>523.79998779297</ele>
        <time>2020-03-14T15:39:12.000Z</time>
      </trkpt>
      <trkpt lat="45.8975" lon="4.46105">
        <ele>524.20001220703</ele>
        <time>2020-03-14T15:39:13.000Z</time>
      </trkpt>
      <trkpt lat="45.89751" lon="4.46104">
        <ele>524.40002441406</ele>
        <time>2020-03-14T15:39:14.000Z</time>
      </trkpt>
      <trkpt lat="45.89751" lon="4.46104">
        <ele>524.79998779297</ele>
        <time>2020-03-14T15:39:15.000Z</time>
      </trkpt>
      <trkpt lat="45.89752" lon="4.46103">
        <ele>525</ele>
        <time>2020-03-14T15:39:16.000Z</time>
      </trkpt>
      <trkpt lat="45.89752" lon="4.46102">
        <ele>525.40002441406</ele>
        <time>2020-03-14T15:39:17.000Z</time>
      </trkpt>
      <trkpt lat="45.89752" lon="4.46102">
        <ele>525.59997558594</ele>
        <time>2020-03-14T15:39:18.000Z</time>
      </trkpt>
      <trkpt lat="45.89753" lon="4.46101">
        <ele>525.59997558594</ele>
        <time>2020-03-14T15:39:19.000Z</time>
      </trkpt>
      <trkpt lat="45.89752" lon="4.461">
        <ele>525.79998779297</ele>
        <time>2020-03-14T15:39:20.000Z</time>
      </trkpt>
      <trkpt lat="45.89753" lon="4.461">
        <ele>526</ele>
        <time>2020-03-14T15:39:21.000Z</time>
      </trkpt>
      <trkpt lat="45.89752" lon="4.461">
        <ele>526.20001220703</ele>
        <time>2020-03-14T15:39:22.000Z</time>
      </trkpt>
      <trkpt lat="45.89752" lon="4.46099">
        <ele>526.20001220703</ele>
        <time>2020-03-14T15:39:23.000Z</time>
      </trkpt>
      <trkpt lat="45.89752" lon="4.46099">
        <ele>526.40002441406</ele>
        <time>2020-03-14T15:39:24.000Z</time>
      </trkpt>
      <trkpt lat="45.89752" lon="4.46098">
        <ele>526.59997558594</ele>
        <time>2020-03-14T15:39:25.000Z</time>
      </trkpt>
      <trkpt lat="45.89752" lon="4.46098">
        <ele>526.79998779297</ele>
        <time>2020-03-14T15:39:26.000Z</time>
      </trkpt>
      <trkpt lat="45.89752" lon="4.46098">
        <ele>526.79998779297</ele>
        <time>2020-03-14T15:39:27.000Z</time>
      </trkpt>
      <trkpt lat="45.89751" lon="4.46098">
        <ele>527</ele>
        <time>2020-03-14T15:39:28.000Z</time>
      </trkpt>
      <trkpt lat="45.8975" lon="4.46098">
        <ele>527.20001220703</ele>
        <time>2020-03-14T15:39:29.000Z</time>
      </trkpt>
      <trkpt lat="45.8975" lon="4.46098">
        <ele>527.20001220703</ele>
        <time>2020-03-14T15:39:30.000Z</time>
      </trkpt>
      <trkpt lat="45.8975" lon="4.46097">
        <ele>527.20001220703</ele>
        <time>2020-03-14T15:39:31.000Z</time>
      </trkpt>
      <trkpt lat="45.8975" lon="4.46096">
        <ele>527.40002441406</ele>
        <time>2020-03-14T15:39:32.000Z</time>
      </trkpt>
      <trkpt lat="45.8975" lon="4.46095">
        <ele>527.40002441406</ele>
        <time>2020-03-14T15:39:33.000Z</time>
      </trkpt>
      <trkpt lat="45.89749" lon="4.46094">
        <ele>527.40002441406</ele>
        <time>2020-03-14T15:39:34.000Z</time>
      </trkpt>
      <trkpt lat="45.89749" lon="4.46094">
        <ele>527.59997558594</ele>
        <time>2020-03-14T15:39:35.000Z</time>
      </trkpt>
      <trkpt lat="45.89748" lon="4.46094">
        <ele>527.79998779297</ele>
        <time>2020-03-14T15:39:36.000Z</time>
      </trkpt>
      <trkpt lat="45.89748" lon="4.46093">
        <ele>528</ele>
        <time>2020-03-14T15:39:37.000Z</time>
      </trkpt>
      <trkpt lat="45.89748" lon="4.46093">
        <ele>528.20001220703</ele>
        <time>2020-03-14T15:39:38.000Z</time>
      </trkpt>
      <trkpt lat="45.89747" lon="4.46092">
        <ele>528.40002441406</ele>
        <time>2020-03-14T15:39:39.000Z</time>
      </trkpt>
      <trkpt lat="45.89747" lon="4.46091">
        <ele>528.59997558594</ele>
        <time>2020-03-14T15:39:40.000Z</time>
      </trkpt>
      <trkpt lat="45.89746" lon="4.46091">
        <ele>528.79998779297</ele>
        <time>2020-03-14T15:39:41.000Z</time>
      </trkpt>
      <trkpt lat="45.89746" lon="4.4609">
        <ele>529.20001220703</ele>
        <time>2020-03-14T15:39:42.000Z</time>
      </trkpt>
      <trkpt lat="45.89746" lon="4.46089">
        <ele>529.59997558594</ele>
        <time>2020-03-14T15:39:43.000Z</time>
      </trkpt>
      <trkpt lat="45.89746" lon="4.46089">
        <ele>529.79998779297</ele>
        <time>2020-03-14T15:39:44.000Z</time>
      </trkpt>
      <trkpt lat="45.89746" lon="4.46088">
        <ele>530.20001220703</ele>
        <time>2020-03-14T15:39:45.000Z</time>
      </trkpt>
      <trkpt lat="45.89745" lon="4.46087">
        <ele>530.40002441406</ele>
        <time>2020-03-14T15:39:46.000Z</time>
      </trkpt>
      <trkpt lat="45.89744" lon="4.46088">
        <ele>530.40002441406</ele>
        <time>2020-03-14T15:39:47.000Z</time>
      </trkpt>
      <trkpt lat="45.89744" lon="4.46086">
        <ele>530.59997558594</ele>
        <time>2020-03-14T15:39:48.000Z</time>
      </trkpt>
      <trkpt lat="45.89743" lon="4.46085">
        <ele>530.79998779297</ele>
        <time>2020-03-14T15:39:49.000Z</time>
      </trkpt>
      <trkpt lat="45.89742" lon="4.46084">
        <ele>530.79998779297</ele>
        <time>2020-03-14T15:39:50.000Z</time>
      </trkpt>
      <trkpt lat="45.89742" lon="4.46083">
        <ele>530.79998779297</ele>
        <time>2020-03-14T15:39:51.000Z</time>
      </trkpt>
      <trkpt lat="45.89741" lon="4.46082">
        <ele>531</ele>
        <time>2020-03-14T15:39:52.000Z</time>
      </trkpt>
      <trkpt lat="45.89739" lon="4.46083">
        <ele>531</ele>
        <time>2020-03-14T15:39:53.000Z</time>
      </trkpt>
      <trkpt lat="45.89738" lon="4.46083">
        <ele>531</ele>
        <time>2020-03-14T15:39:54.000Z</time>
      </trkpt>
      <trkpt lat="45.89738" lon="4.46082">
        <ele>531</ele>
        <time>2020-03-14T15:39:55.000Z</time>
      </trkpt>
      <trkpt lat="45.89737" lon="4.46082">
        <ele>531</ele>
        <time>2020-03-14T15:39:56.000Z</time>
      </trkpt>
      <trkpt lat="45.89736" lon="4.4608">
        <ele>530.79998779297</ele>
        <time>2020-03-14T15:39:57.000Z</time>
      </trkpt>
      <trkpt lat="45.89736" lon="4.46079">
        <ele>530.79998779297</ele>
        <time>2020-03-14T15:39:58.000Z</time>
      </trkpt>
      <trkpt lat="45.89735" lon="4.46078">
        <ele>530.79998779297</ele>
        <time>2020-03-14T15:39:59.000Z</time>
      </trkpt>
      <trkpt lat="45.89735" lon="4.46077">
        <ele>531</ele>
        <time>2020-03-14T15:40:00.000Z</time>
      </trkpt>
      <trkpt lat="45.89734" lon="4.46077">
        <ele>531</ele>
        <time>2020-03-14T15:40:01.000Z</time>
      </trkpt>
      <trkpt lat="45.89733" lon="4.46077">
        <ele>531.20001220703</ele>
        <time>2020-03-14T15:40:02.000Z</time>
      </trkpt>
      <trkpt lat="45.89732" lon="4.46076">
        <ele>531.20001220703</ele>
        <time>2020-03-14T15:40:03.000Z</time>
      </trkpt>
      <trkpt lat="45.89732" lon="4.46076">
        <ele>531.40002441406</ele>
        <time>2020-03-14T15:40:04.000Z</time>
      </trkpt>
      <trkpt lat="45.89731" lon="4.46077">
        <ele>531.59997558594</ele>
        <time>2020-03-14T15:40:05.000Z</time>
      </trkpt>
      <trkpt lat="45.8973" lon="4.46077">
        <ele>531.79998779297</ele>
        <time>2020-03-14T15:40:06.000Z</time>
      </trkpt>
      <trkpt lat="45.8973" lon="4.46077">
        <ele>532</ele>
        <time>2020-03-14T15:40:07.000Z</time>
      </trkpt>
      <trkpt lat="45.89729" lon="4.46077">
        <ele>532</ele>
        <time>2020-03-14T15:40:08.000Z</time>
      </trkpt>
      <trkpt lat="45.89728" lon="4.46077">
        <ele>532.20001220703</ele>
        <time>2020-03-14T15:40:09.000Z</time>
      </trkpt>
      <trkpt lat="45.89727" lon="4.46075">
        <ele>532.20001220703</ele>
        <time>2020-03-14T15:40:10.000Z</time>
      </trkpt>
      <trkpt lat="45.89727" lon="4.46074">
        <ele>532</ele>
        <time>2020-03-14T15:40:11.000Z</time>
      </trkpt>
      <trkpt lat="45.89726" lon="4.46073">
        <ele>532.20001220703</ele>
        <time>2020-03-14T15:40:12.000Z</time>
      </trkpt>
      <trkpt lat="45.89725" lon="4.46072">
        <ele>532.20001220703</ele>
        <time>2020-03-14T15:40:13.000Z</time>
      </trkpt>
      <trkpt lat="45.89725" lon="4.46072">
        <ele>532.59997558594</ele>
        <time>2020-03-14T15:40:14.000Z</time>
      </trkpt>
      <trkpt lat="45.89724" lon="4.46071">
        <ele>532.79998779297</ele>
        <time>2020-03-14T15:40:15.000Z</time>
      </trkpt>
      <trkpt lat="45.89723" lon="4.46072">
        <ele>532.79998779297</ele>
        <time>2020-03-14T15:40:16.000Z</time>
      </trkpt>
      <trkpt lat="45.89723" lon="4.46071">
        <ele>533</ele>
        <time>2020-03-14T15:40:17.000Z</time>
      </trkpt>
      <trkpt lat="45.89722" lon="4.4607">
        <ele>533.20001220703</ele>
        <time>2020-03-14T15:40:18.000Z</time>
      </trkpt>
      <trkpt lat="45.89722" lon="4.46069">
        <ele>533.40002441406</ele>
        <time>2020-03-14T15:40:19.000Z</time>
      </trkpt>
      <trkpt lat="45.89722" lon="4.46069">
        <ele>533.40002441406</ele>
        <time>2020-03-14T15:40:20.000Z</time>
      </trkpt>
      <trkpt lat="45.89722" lon="4.46067">
        <ele>533.40002441406</ele>
        <time>2020-03-14T15:40:21.000Z</time>
      </trkpt>
      <trkpt lat="45.89721" lon="4.46067">
        <ele>533.40002441406</ele>
        <time>2020-03-14T15:40:22.000Z</time>
      </trkpt>
      <trkpt lat="45.89721" lon="4.46066">
        <ele>533.59997558594</ele>
        <time>2020-03-14T15:40:23.000Z</time>
      </trkpt>
      <trkpt lat="45.89721" lon="4.46065">
        <ele>533.59997558594</ele>
        <time>2020-03-14T15:40:24.000Z</time>
      </trkpt>
      <trkpt lat="45.8972" lon="4.46064">
        <ele>533.59997558594</ele>
        <time>2020-03-14T15:40:25.000Z</time>
      </trkpt>
      <trkpt lat="45.8972" lon="4.46064">
        <ele>533.79998779297</ele>
        <time>2020-03-14T15:40:26.000Z</time>
      </trkpt>
      <trkpt lat="45.89719" lon="4.46063">
        <ele>534</ele>
        <time>2020-03-14T15:40:27.000Z</time>
      </trkpt>
      <trkpt lat="45.89719" lon="4.46062">
        <ele>534.20001220703</ele>
        <time>2020-03-14T15:40:28.000Z</time>
      </trkpt>
      <trkpt lat="45.89718" lon="4.46061">
        <ele>534.40002441406</ele>
        <time>2020-03-14T15:40:29.000Z</time>
      </trkpt>
      <trkpt lat="45.89718" lon="4.4606">
        <ele>534.59997558594</ele>
        <time>2020-03-14T15:40:30.000Z</time>
      </trkpt>
      <trkpt lat="45.89718" lon="4.46059">
        <ele>534.59997558594</ele>
        <time>2020-03-14T15:40:31.000Z</time>
      </trkpt>
      <trkpt lat="45.89718" lon="4.46057">
        <ele>534.79998779297</ele>
        <time>2020-03-14T15:40:32.000Z</time>
      </trkpt>
      <trkpt lat="45.89717" lon="4.46056">
        <ele>535</ele>
        <time>2020-03-14T15:40:33.000Z</time>
      </trkpt>
      <trkpt lat="45.89717" lon="4.46055">
        <ele>535.20001220703</ele>
        <time>2020-03-14T15:40:34.000Z</time>
      </trkpt>
      <trkpt lat="45.89716" lon="4.46054">
        <ele>535.40002441406</ele>
        <time>2020-03-14T15:40:35.000Z</time>
      </trkpt>
      <trkpt lat="45.89715" lon="4.46054">
        <ele>535.59997558594</ele>
        <time>2020-03-14T15:40:36.000Z</time>
      </trkpt>
      <trkpt lat="45.89714" lon="4.46054">
        <ele>535.79998779297</ele>
        <time>2020-03-14T15:40:37.000Z</time>
      </trkpt>
      <trkpt lat="45.89713" lon="4.46053">
        <ele>536</ele>
        <time>2020-03-14T15:40:38.000Z</time>
      </trkpt>
      <trkpt lat="45.89713" lon="4.46052">
        <ele>536.20001220703</ele>
        <time>2020-03-14T15:40:39.000Z</time>
      </trkpt>
      <trkpt lat="45.89712" lon="4.46052">
        <ele>536.40002441406</ele>
        <time>2020-03-14T15:40:40.000Z</time>
      </trkpt>
      <trkpt lat="45.89711" lon="4.46051">
        <ele>536.59997558594</ele>
        <time>2020-03-14T15:40:41.000Z</time>
      </trkpt>
      <trkpt lat="45.89711" lon="4.4605">
        <ele>537</ele>
        <time>2020-03-14T15:40:42.000Z</time>
      </trkpt>
      <trkpt lat="45.8971" lon="4.46049">
        <ele>537</ele>
        <time>2020-03-14T15:40:43.000Z</time>
      </trkpt>
      <trkpt lat="45.8971" lon="4.46048">
        <ele>537</ele>
        <time>2020-03-14T15:40:44.000Z</time>
      </trkpt>
      <trkpt lat="45.8971" lon="4.46047">
        <ele>537.20001220703</ele>
        <time>2020-03-14T15:40:45.000Z</time>
      </trkpt>
      <trkpt lat="45.89709" lon="4.46047">
        <ele>537.20001220703</ele>
        <time>2020-03-14T15:40:46.000Z</time>
      </trkpt>
      <trkpt lat="45.89708" lon="4.46046">
        <ele>537.20001220703</ele>
        <time>2020-03-14T15:40:47.000Z</time>
      </trkpt>
      <trkpt lat="45.89708" lon="4.46045">
        <ele>537.20001220703</ele>
        <time>2020-03-14T15:40:48.000Z</time>
      </trkpt>
      <trkpt lat="45.89707" lon="4.46045">
        <ele>537.59997558594</ele>
        <time>2020-03-14T15:40:49.000Z</time>
      </trkpt>
      <trkpt lat="45.89707" lon="4.46045">
        <ele>537.59997558594</ele>
        <time>2020-03-14T15:40:50.000Z</time>
      </trkpt>
      <trkpt lat="45.89706" lon="4.46044">
        <ele>537.79998779297</ele>
        <time>2020-03-14T15:40:51.000Z</time>
      </trkpt>
      <trkpt lat="45.89706" lon="4.46043">
        <ele>538</ele>
        <time>2020-03-14T15:40:52.000Z</time>
      </trkpt>
      <trkpt lat="45.89705" lon="4.46043">
        <ele>538</ele>
        <time>2020-03-14T15:40:53.000Z</time>
      </trkpt>
      <trkpt lat="45.89705" lon="4.46042">
        <ele>538.20001220703</ele>
        <time>2020-03-14T15:40:54.000Z</time>
      </trkpt>
      <trkpt lat="45.89705" lon="4.46042">
        <ele>538.40002441406</ele>
        <time>2020-03-14T15:40:55.000Z</time>
      </trkpt>
      <trkpt lat="45.89705" lon="4.46041">
        <ele>538.79998779297</ele>
        <time>2020-03-14T15:40:56.000Z</time>
      </trkpt>
      <trkpt lat="45.89704" lon="4.4604">
        <ele>539.20001220703</ele>
        <time>2020-03-14T15:40:57.000Z</time>
      </trkpt>
      <trkpt lat="45.89704" lon="4.4604">
        <ele>539.20001220703</ele>
        <time>2020-03-14T15:40:58.000Z</time>
      </trkpt>
      <trkpt lat="45.89704" lon="4.46039">
        <ele>539.40002441406</ele>
        <time>2020-03-14T15:40:59.000Z</time>
      </trkpt>
      <trkpt lat="45.89704" lon="4.46038">
        <ele>539.59997558594</ele>
        <time>2020-03-14T15:41:00.000Z</time>
      </trkpt>
      <trkpt lat="45.89704" lon="4.46038">
        <ele>539.59997558594</ele>
        <time>2020-03-14T15:41:01.000Z</time>
      </trkpt>
      <trkpt lat="45.89704" lon="4.46038">
        <ele>539.79998779297</ele>
        <time>2020-03-14T15:41:02.000Z</time>
      </trkpt>
      <trkpt lat="45.89704" lon="4.46037">
        <ele>540.20001220703</ele>
        <time>2020-03-14T15:41:03.000Z</time>
      </trkpt>
      <trkpt lat="45.89704" lon="4.46036">
        <ele>540.40002441406</ele>
        <time>2020-03-14T15:41:04.000Z</time>
      </trkpt>
      <trkpt lat="45.89704" lon="4.46035">
        <ele>540.79998779297</ele>
        <time>2020-03-14T15:41:05.000Z</time>
      </trkpt>
      <trkpt lat="45.89704" lon="4.46035">
        <ele>541</ele>
        <time>2020-03-14T15:41:06.000Z</time>
      </trkpt>
      <trkpt lat="45.89704" lon="4.46034">
        <ele>541</ele>
        <time>2020-03-14T15:41:07.000Z</time>
      </trkpt>
      <trkpt lat="45.89704" lon="4.46034">
        <ele>541.20001220703</ele>
        <time>2020-03-14T15:41:08.000Z</time>
      </trkpt>
      <trkpt lat="45.89704" lon="4.46033">
        <ele>541.20001220703</ele>
        <time>2020-03-14T15:41:09.000Z</time>
      </trkpt>
      <trkpt lat="45.89704" lon="4.46033">
        <ele>541.40002441406</ele>
        <time>2020-03-14T15:41:10.000Z</time>
      </trkpt>
      <trkpt lat="45.89703" lon="4.46033">
        <ele>541.40002441406</ele>
        <time>2020-03-14T15:41:11.000Z</time>
      </trkpt>
      <trkpt lat="45.89703" lon="4.46033">
        <ele>541.40002441406</ele>
        <time>2020-03-14T15:41:12.000Z</time>
      </trkpt>
      <trkpt lat="45.89702" lon="4.46033">
        <ele>541.40002441406</ele>
        <time>2020-03-14T15:41:13.000Z</time>
      </trkpt>
      <trkpt lat="45.89701" lon="4.46033">
        <ele>541.40002441406</ele>
        <time>2020-03-14T15:41:14.000Z</time>
      </trkpt>
      <trkpt lat="45.89701" lon="4.46033">
        <ele>541.40002441406</ele>
        <time>2020-03-14T15:41:15.000Z</time>
      </trkpt>
      <trkpt lat="45.89701" lon="4.46032">
        <ele>541.40002441406</ele>
        <time>2020-03-14T15:41:16.000Z</time>
      </trkpt>
      <trkpt lat="45.897" lon="4.46032">
        <ele>541.20001220703</ele>
        <time>2020-03-14T15:41:17.000Z</time>
      </trkpt>
      <trkpt lat="45.89699" lon="4.46032">
        <ele>541.40002441406</ele>
        <time>2020-03-14T15:41:18.000Z</time>
      </trkpt>
      <trkpt lat="45.89698" lon="4.46031">
        <ele>541.20001220703</ele>
        <time>2020-03-14T15:41:19.000Z</time>
      </trkpt>
      <trkpt lat="45.89696" lon="4.4603">
        <ele>541.20001220703</ele>
        <time>2020-03-14T15:41:20.000Z</time>
      </trkpt>
      <trkpt lat="45.89695" lon="4.46029">
        <ele>541.20001220703</ele>
        <time>2020-03-14T15:41:21.000Z</time>
      </trkpt>
      <trkpt lat="45.89694" lon="4.46029">
        <ele>541.20001220703</ele>
        <time>2020-03-14T15:41:22.000Z</time>
      </trkpt>
      <trkpt lat="45.89693" lon="4.46028">
        <ele>541.40002441406</ele>
        <time>2020-03-14T15:41:23.000Z</time>
      </trkpt>
      <trkpt lat="45.89692" lon="4.46027">
        <ele>541.59997558594</ele>
        <time>2020-03-14T15:41:24.000Z</time>
      </trkpt>
      <trkpt lat="45.89691" lon="4.46027">
        <ele>541.59997558594</ele>
        <time>2020-03-14T15:41:25.000Z</time>
      </trkpt>
      <trkpt lat="45.8969" lon="4.46026">
        <ele>541.59997558594</ele>
        <time>2020-03-14T15:41:26.000Z</time>
      </trkpt>
      <trkpt lat="45.8969" lon="4.46025">
        <ele>541.59997558594</ele>
        <time>2020-03-14T15:41:27.000Z</time>
      </trkpt>
      <trkpt lat="45.89689" lon="4.46023">
        <ele>541.79998779297</ele>
        <time>2020-03-14T15:41:28.000Z</time>
      </trkpt>
      <trkpt lat="45.89688" lon="4.46022">
        <ele>542.20001220703</ele>
        <time>2020-03-14T15:41:29.000Z</time>
      </trkpt>
      <trkpt lat="45.89688" lon="4.46021">
        <ele>542.40002441406</ele>
        <time>2020-03-14T15:41:30.000Z</time>
      </trkpt>
      <trkpt lat="45.89687" lon="4.46021">
        <ele>542.79998779297</ele>
        <time>2020-03-14T15:41:31.000Z</time>
      </trkpt>
      <trkpt lat="45.89687" lon="4.4602">
        <ele>543</ele>
        <time>2020-03-14T15:41:32.000Z</time>
      </trkpt>
      <trkpt lat="45.89686" lon="4.46019">
        <ele>543.20001220703</ele>
        <time>2020-03-14T15:41:33.000Z</time>
      </trkpt>
      <trkpt lat="45.89684" lon="4.46018">
        <ele>543.40002441406</ele>
        <time>2020-03-14T15:41:34.000Z</time>
      </trkpt>
      <trkpt lat="45.89683" lon="4.46017">
        <ele>543.40002441406</ele>
        <time>2020-03-14T15:41:35.000Z</time>
      </trkpt>
      <trkpt lat="45.89681" lon="4.46016">
        <ele>543.40002441406</ele>
        <time>2020-03-14T15:41:36.000Z</time>
      </trkpt>
      <trkpt lat="45.8968" lon="4.46015">
        <ele>543.40002441406</ele>
        <time>2020-03-14T15:41:37.000Z</time>
      </trkpt>
      <trkpt lat="45.89679" lon="4.46014">
        <ele>543.40002441406</ele>
        <time>2020-03-14T15:41:38.000Z</time>
      </trkpt>
      <trkpt lat="45.89678" lon="4.46013">
        <ele>543.40002441406</ele>
        <time>2020-03-14T15:41:39.000Z</time>
      </trkpt>
      <trkpt lat="45.89677" lon="4.46011">
        <ele>543.40002441406</ele>
        <time>2020-03-14T15:41:40.000Z</time>
      </trkpt>
      <trkpt lat="45.89675" lon="4.46009">
        <ele>543.59997558594</ele>
        <time>2020-03-14T15:41:41.000Z</time>
      </trkpt>
      <trkpt lat="45.89674" lon="4.46007">
        <ele>543.59997558594</ele>
        <time>2020-03-14T15:41:42.000Z</time>
      </trkpt>
      <trkpt lat="45.89672" lon="4.46006">
        <ele>543.40002441406</ele>
        <time>2020-03-14T15:41:43.000Z</time>
      </trkpt>
      <trkpt lat="45.89671" lon="4.46004">
        <ele>543.40002441406</ele>
        <time>2020-03-14T15:41:44.000Z</time>
      </trkpt>
      <trkpt lat="45.89669" lon="4.46002">
        <ele>543.20001220703</ele>
        <time>2020-03-14T15:41:45.000Z</time>
      </trkpt>
      <trkpt lat="45.89667" lon="4.46001">
        <ele>543</ele>
        <time>2020-03-14T15:41:46.000Z</time>
      </trkpt>
      <trkpt lat="45.89665" lon="4.46001">
        <ele>542.79998779297</ele>
        <time>2020-03-14T15:41:47.000Z</time>
      </trkpt>
      <trkpt lat="45.89663" lon="4.45999">
        <ele>542.40002441406</ele>
        <time>2020-03-14T15:41:48.000Z</time>
      </trkpt>
      <trkpt lat="45.89662" lon="4.45997">
        <ele>542.20001220703</ele>
        <time>2020-03-14T15:41:49.000Z</time>
      </trkpt>
      <trkpt lat="45.89659" lon="4.45997">
        <ele>542.20001220703</ele>
        <time>2020-03-14T15:41:50.000Z</time>
      </trkpt>
      <trkpt lat="45.89658" lon="4.45995">
        <ele>542</ele>
        <time>2020-03-14T15:41:51.000Z</time>
      </trkpt>
      <trkpt lat="45.89656" lon="4.45994">
        <ele>542</ele>
        <time>2020-03-14T15:41:52.000Z</time>
      </trkpt>
      <trkpt lat="45.89655" lon="4.45994">
        <ele>541.79998779297</ele>
        <time>2020-03-14T15:41:53.000Z</time>
      </trkpt>
      <trkpt lat="45.89652" lon="4.45993">
        <ele>541.79998779297</ele>
        <time>2020-03-14T15:41:54.000Z</time>
      </trkpt>
      <trkpt lat="45.8965" lon="4.45994">
        <ele>541.79998779297</ele>
        <time>2020-03-14T15:41:55.000Z</time>
      </trkpt>
      <trkpt lat="45.89649" lon="4.45993">
        <ele>542</ele>
        <time>2020-03-14T15:41:56.000Z</time>
      </trkpt>
      <trkpt lat="45.89647" lon="4.45992">
        <ele>542.40002441406</ele>
        <time>2020-03-14T15:41:57.000Z</time>
      </trkpt>
      <trkpt lat="45.89645" lon="4.4599">
        <ele>542.59997558594</ele>
        <time>2020-03-14T15:41:58.000Z</time>
      </trkpt>
      <trkpt lat="45.89643" lon="4.45989">
        <ele>542.79998779297</ele>
        <time>2020-03-14T15:41:59.000Z</time>
      </trkpt>
      <trkpt lat="45.89641" lon="4.45987">
        <ele>542.79998779297</ele>
        <time>2020-03-14T15:42:00.000Z</time>
      </trkpt>
      <trkpt lat="45.89636" lon="4.45986">
        <ele>542.79998779297</ele>
        <time>2020-03-14T15:42:01.000Z</time>
      </trkpt>
      <trkpt lat="45.89632" lon="4.45986">
        <ele>542.59997558594</ele>
        <time>2020-03-14T15:42:02.000Z</time>
      </trkpt>
      <trkpt lat="45.89629" lon="4.45986">
        <ele>542.40002441406</ele>
        <time>2020-03-14T15:42:03.000Z</time>
      </trkpt>
      <trkpt lat="45.89627" lon="4.45985">
        <ele>542.40002441406</ele>
        <time>2020-03-14T15:42:04.000Z</time>
      </trkpt>
      <trkpt lat="45.89624" lon="4.45984">
        <ele>542.40002441406</ele>
        <time>2020-03-14T15:42:05.000Z</time>
      </trkpt>
      <trkpt lat="45.8962" lon="4.45983">
        <ele>542.20001220703</ele>
        <time>2020-03-14T15:42:06.000Z</time>
      </trkpt>
      <trkpt lat="45.89617" lon="4.45981">
        <ele>542.20001220703</ele>
        <time>2020-03-14T15:42:07.000Z</time>
      </trkpt>
      <trkpt lat="45.89614" lon="4.4598">
        <ele>542.20001220703</ele>
        <time>2020-03-14T15:42:08.000Z</time>
      </trkpt>
      <trkpt lat="45.89609" lon="4.4598">
        <ele>542.20001220703</ele>
        <time>2020-03-14T15:42:09.000Z</time>
      </trkpt>
      <trkpt lat="45.89605" lon="4.45979">
        <ele>542.20001220703</ele>
        <time>2020-03-14T15:42:10.000Z</time>
      </trkpt>
      <trkpt lat="45.89601" lon="4.4598">
        <ele>542</ele>
        <time>2020-03-14T15:42:11.000Z</time>
      </trkpt>
      <trkpt lat="45.89597" lon="4.45981">
        <ele>541.79998779297</ele>
        <time>2020-03-14T15:42:12.000Z</time>
      </trkpt>
      <trkpt lat="45.89593" lon="4.45982">
        <ele>541.59997558594</ele>
        <time>2020-03-14T15:42:13.000Z</time>
      </trkpt>
      <trkpt lat="45.89589" lon="4.45983">
        <ele>541</ele>
        <time>2020-03-14T15:42:14.000Z</time>
      </trkpt>
      <trkpt lat="45.89585" lon="4.45983">
        <ele>540.59997558594</ele>
        <time>2020-03-14T15:42:15.000Z</time>
      </trkpt>
      <trkpt lat="45.89582" lon="4.45984">
        <ele>540.40002441406</ele>
        <time>2020-03-14T15:42:16.000Z</time>
      </trkpt>
      <trkpt lat="45.89579" lon="4.45986">
        <ele>540.40002441406</ele>
        <time>2020-03-14T15:42:17.000Z</time>
      </trkpt>
      <trkpt lat="45.89576" lon="4.45987">
        <ele>540.40002441406</ele>
        <time>2020-03-14T15:42:18.000Z</time>
      </trkpt>
      <trkpt lat="45.89573" lon="4.45987">
        <ele>540.40002441406</ele>
        <time>2020-03-14T15:42:19.000Z</time>
      </trkpt>
      <trkpt lat="45.8957" lon="4.45988">
        <ele>540.59997558594</ele>
        <time>2020-03-14T15:42:20.000Z</time>
      </trkpt>
      <trkpt lat="45.89568" lon="4.45986">
        <ele>541</ele>
        <time>2020-03-14T15:42:21.000Z</time>
      </trkpt>
      <trkpt lat="45.89566" lon="4.45986">
        <ele>541.40002441406</ele>
        <time>2020-03-14T15:42:22.000Z</time>
      </trkpt>
      <trkpt lat="45.89564" lon="4.45986">
        <ele>541.79998779297</ele>
        <time>2020-03-14T15:42:23.000Z</time>
      </trkpt>
      <trkpt lat="45.89562" lon="4.45985">
        <ele>542</ele>
        <time>2020-03-14T15:42:24.000Z</time>
      </trkpt>
      <trkpt lat="45.89559" lon="4.45985">
        <ele>542</ele>
        <time>2020-03-14T15:42:25.000Z</time>
      </trkpt>
      <trkpt lat="45.89557" lon="4.45984">
        <ele>542.20001220703</ele>
        <time>2020-03-14T15:42:26.000Z</time>
      </trkpt>
      <trkpt lat="45.89555" lon="4.45984">
        <ele>542.20001220703</ele>
        <time>2020-03-14T15:42:27.000Z</time>
      </trkpt>
      <trkpt lat="45.89552" lon="4.45985">
        <ele>542.20001220703</ele>
        <time>2020-03-14T15:42:28.000Z</time>
      </trkpt>
      <trkpt lat="45.89548" lon="4.45985">
        <ele>542</ele>
        <time>2020-03-14T15:42:29.000Z</time>
      </trkpt>
      <trkpt lat="45.89543" lon="4.45987">
        <ele>542</ele>
        <time>2020-03-14T15:42:30.000Z</time>
      </trkpt>
      <trkpt lat="45.89539" lon="4.45987">
        <ele>542</ele>
        <time>2020-03-14T15:42:31.000Z</time>
      </trkpt>
      <trkpt lat="45.89536" lon="4.45988">
        <ele>541.79998779297</ele>
        <time>2020-03-14T15:42:32.000Z</time>
      </trkpt>
      <trkpt lat="45.89532" lon="4.45987">
        <ele>541.59997558594</ele>
        <time>2020-03-14T15:42:33.000Z</time>
      </trkpt>
      <trkpt lat="45.89529" lon="4.45988">
        <ele>541.40002441406</ele>
        <time>2020-03-14T15:42:34.000Z</time>
      </trkpt>
      <trkpt lat="45.89526" lon="4.45987">
        <ele>541.20001220703</ele>
        <time>2020-03-14T15:42:35.000Z</time>
      </trkpt>
      <trkpt lat="45.89523" lon="4.45986">
        <ele>541</ele>
        <time>2020-03-14T15:42:36.000Z</time>
      </trkpt>
      <trkpt lat="45.89521" lon="4.45985">
        <ele>540.79998779297</ele>
        <time>2020-03-14T15:42:37.000Z</time>
      </trkpt>
      <trkpt lat="45.89519" lon="4.45985">
        <ele>540.59997558594</ele>
        <time>2020-03-14T15:42:38.000Z</time>
      </trkpt>
      <trkpt lat="45.89516" lon="4.45984">
        <ele>540.40002441406</ele>
        <time>2020-03-14T15:42:39.000Z</time>
      </trkpt>
      <trkpt lat="45.89513" lon="4.45985">
        <ele>540.40002441406</ele>
        <time>2020-03-14T15:42:40.000Z</time>
      </trkpt>
      <trkpt lat="45.8951" lon="4.45987">
        <ele>540</ele>
        <time>2020-03-14T15:42:41.000Z</time>
      </trkpt>
      <trkpt lat="45.89507" lon="4.4599">
        <ele>539.59997558594</ele>
        <time>2020-03-14T15:42:42.000Z</time>
      </trkpt>
      <trkpt lat="45.89504" lon="4.45993">
        <ele>539</ele>
        <time>2020-03-14T15:42:43.000Z</time>
      </trkpt>
      <trkpt lat="45.89501" lon="4.45994">
        <ele>538</ele>
        <time>2020-03-14T15:42:44.000Z</time>
      </trkpt>
      <trkpt lat="45.89498" lon="4.45997">
        <ele>537.20001220703</ele>
        <time>2020-03-14T15:42:45.000Z</time>
      </trkpt>
      <trkpt lat="45.89495" lon="4.45999">
        <ele>536.59997558594</ele>
        <time>2020-03-14T15:42:46.000Z</time>
      </trkpt>
      <trkpt lat="45.89492" lon="4.46003">
        <ele>536</ele>
        <time>2020-03-14T15:42:47.000Z</time>
      </trkpt>
      <trkpt lat="45.89489" lon="4.46005">
        <ele>535.59997558594</ele>
        <time>2020-03-14T15:42:48.000Z</time>
      </trkpt>
      <trkpt lat="45.89488" lon="4.46007">
        <ele>535</ele>
        <time>2020-03-14T15:42:49.000Z</time>
      </trkpt>
      <trkpt lat="45.89485" lon="4.46009">
        <ele>534</ele>
        <time>2020-03-14T15:42:50.000Z</time>
      </trkpt>
      <trkpt lat="45.89481" lon="4.46013">
        <ele>533</ele>
        <time>2020-03-14T15:42:51.000Z</time>
      </trkpt>
      <trkpt lat="45.89478" lon="4.46015">
        <ele>532.20001220703</ele>
        <time>2020-03-14T15:42:52.000Z</time>
      </trkpt>
      <trkpt lat="45.89476" lon="4.46015">
        <ele>531.59997558594</ele>
        <time>2020-03-14T15:42:53.000Z</time>
      </trkpt>
      <trkpt lat="45.89473" lon="4.46016">
        <ele>531.20001220703</ele>
        <time>2020-03-14T15:42:54.000Z</time>
      </trkpt>
      <trkpt lat="45.8947" lon="4.46015">
        <ele>531.20001220703</ele>
        <time>2020-03-14T15:42:55.000Z</time>
      </trkpt>
      <trkpt lat="45.89468" lon="4.46013">
        <ele>531.20001220703</ele>
        <time>2020-03-14T15:42:56.000Z</time>
      </trkpt>
      <trkpt lat="45.89464" lon="4.46019">
        <ele>531.20001220703</ele>
        <time>2020-03-14T15:42:57.000Z</time>
      </trkpt>
      <trkpt lat="45.89462" lon="4.46021">
        <ele>531.40002441406</ele>
        <time>2020-03-14T15:42:58.000Z</time>
      </trkpt>
      <trkpt lat="45.8946" lon="4.46021">
        <ele>531.40002441406</ele>
        <time>2020-03-14T15:42:59.000Z</time>
      </trkpt>
      <trkpt lat="45.89458" lon="4.46021">
        <ele>531.59997558594</ele>
        <time>2020-03-14T15:43:00.000Z</time>
      </trkpt>
      <trkpt lat="45.89455" lon="4.46021">
        <ele>531.59997558594</ele>
        <time>2020-03-14T15:43:01.000Z</time>
      </trkpt>
      <trkpt lat="45.89452" lon="4.46021">
        <ele>531.59997558594</ele>
        <time>2020-03-14T15:43:02.000Z</time>
      </trkpt>
      <trkpt lat="45.89449" lon="4.4602">
        <ele>531.40002441406</ele>
        <time>2020-03-14T15:43:03.000Z</time>
      </trkpt>
      <trkpt lat="45.89447" lon="4.46019">
        <ele>531.20001220703</ele>
        <time>2020-03-14T15:43:04.000Z</time>
      </trkpt>
      <trkpt lat="45.89445" lon="4.46016">
        <ele>531.20001220703</ele>
        <time>2020-03-14T15:43:05.000Z</time>
      </trkpt>
      <trkpt lat="45.89443" lon="4.46014">
        <ele>531.20001220703</ele>
        <time>2020-03-14T15:43:06.000Z</time>
      </trkpt>
      <trkpt lat="45.89441" lon="4.46012">
        <ele>531</ele>
        <time>2020-03-14T15:43:07.000Z</time>
      </trkpt>
      <trkpt lat="45.89439" lon="4.46011">
        <ele>530.79998779297</ele>
        <time>2020-03-14T15:43:08.000Z</time>
      </trkpt>
      <trkpt lat="45.89437" lon="4.46008">
        <ele>530.79998779297</ele>
        <time>2020-03-14T15:43:09.000Z</time>
      </trkpt>
      <trkpt lat="45.89433" lon="4.46003">
        <ele>530.79998779297</ele>
        <time>2020-03-14T15:43:10.000Z</time>
      </trkpt>
      <trkpt lat="45.8943" lon="4.46">
        <ele>530.79998779297</ele>
        <time>2020-03-14T15:43:11.000Z</time>
      </trkpt>
      <trkpt lat="45.89428" lon="4.46001">
        <ele>530.59997558594</ele>
        <time>2020-03-14T15:43:12.000Z</time>
      </trkpt>
      <trkpt lat="45.89426" lon="4.46">
        <ele>530.20001220703</ele>
        <time>2020-03-14T15:43:13.000Z</time>
      </trkpt>
      <trkpt lat="45.89424" lon="4.46">
        <ele>529.79998779297</ele>
        <time>2020-03-14T15:43:14.000Z</time>
      </trkpt>
      <trkpt lat="45.89422" lon="4.46001">
        <ele>529.20001220703</ele>
        <time>2020-03-14T15:43:15.000Z</time>
      </trkpt>
      <trkpt lat="45.89421" lon="4.46002">
        <ele>528.79998779297</ele>
        <time>2020-03-14T15:43:16.000Z</time>
      </trkpt>
      <trkpt lat="45.89418" lon="4.46005">
        <ele>528.20001220703</ele>
        <time>2020-03-14T15:43:17.000Z</time>
      </trkpt>
      <trkpt lat="45.89416" lon="4.46008">
        <ele>527.59997558594</ele>
        <time>2020-03-14T15:43:18.000Z</time>
      </trkpt>
      <trkpt lat="45.89414" lon="4.46011">
        <ele>526.59997558594</ele>
        <time>2020-03-14T15:43:19.000Z</time>
      </trkpt>
      <trkpt lat="45.89413" lon="4.46014">
        <ele>525.79998779297</ele>
        <time>2020-03-14T15:43:20.000Z</time>
      </trkpt>
      <trkpt lat="45.89411" lon="4.46018">
        <ele>525.20001220703</ele>
        <time>2020-03-14T15:43:21.000Z</time>
      </trkpt>
      <trkpt lat="45.89409" lon="4.46021">
        <ele>524.79998779297</ele>
        <time>2020-03-14T15:43:22.000Z</time>
      </trkpt>
      <trkpt lat="45.89407" lon="4.46025">
        <ele>524.20001220703</ele>
        <time>2020-03-14T15:43:23.000Z</time>
      </trkpt>
      <trkpt lat="45.89406" lon="4.46028">
        <ele>523.59997558594</ele>
        <time>2020-03-14T15:43:24.000Z</time>
      </trkpt>
      <trkpt lat="45.89404" lon="4.4603">
        <ele>523</ele>
        <time>2020-03-14T15:43:25.000Z</time>
      </trkpt>
      <trkpt lat="45.89402" lon="4.46033">
        <ele>522.79998779297</ele>
        <time>2020-03-14T15:43:26.000Z</time>
      </trkpt>
      <trkpt lat="45.894" lon="4.46035">
        <ele>522.20001220703</ele>
        <time>2020-03-14T15:43:27.000Z</time>
      </trkpt>
      <trkpt lat="45.89399" lon="4.46038">
        <ele>521.20001220703</ele>
        <time>2020-03-14T15:43:28.000Z</time>
      </trkpt>
      <trkpt lat="45.89397" lon="4.4604">
        <ele>520.20001220703</ele>
        <time>2020-03-14T15:43:29.000Z</time>
      </trkpt>
      <trkpt lat="45.89395" lon="4.46043">
        <ele>519.79998779297</ele>
        <time>2020-03-14T15:43:30.000Z</time>
      </trkpt>
      <trkpt lat="45.89393" lon="4.46045">
        <ele>519.40002441406</ele>
        <time>2020-03-14T15:43:31.000Z</time>
      </trkpt>
      <trkpt lat="45.89392" lon="4.46047">
        <ele>519.20001220703</ele>
        <time>2020-03-14T15:43:32.000Z</time>
      </trkpt>
      <trkpt lat="45.8939" lon="4.46049">
        <ele>518.79998779297</ele>
        <time>2020-03-14T15:43:33.000Z</time>
      </trkpt>
      <trkpt lat="45.89387" lon="4.4605">
        <ele>518.59997558594</ele>
        <time>2020-03-14T15:43:34.000Z</time>
      </trkpt>
      <trkpt lat="45.89386" lon="4.46052">
        <ele>518.20001220703</ele>
        <time>2020-03-14T15:43:35.000Z</time>
      </trkpt>
      <trkpt lat="45.89385" lon="4.46054">
        <ele>517.79998779297</ele>
        <time>2020-03-14T15:43:36.000Z</time>
      </trkpt>
      <trkpt lat="45.89383" lon="4.46056">
        <ele>517.40002441406</ele>
        <time>2020-03-14T15:43:37.000Z</time>
      </trkpt>
      <trkpt lat="45.89382" lon="4.46057">
        <ele>517</ele>
        <time>2020-03-14T15:43:38.000Z</time>
      </trkpt>
      <trkpt lat="45.89381" lon="4.4606">
        <ele>516.59997558594</ele>
        <time>2020-03-14T15:43:39.000Z</time>
      </trkpt>
      <trkpt lat="45.89379" lon="4.46062">
        <ele>516.20001220703</ele>
        <time>2020-03-14T15:43:40.000Z</time>
      </trkpt>
      <trkpt lat="45.89378" lon="4.46065">
        <ele>516</ele>
        <time>2020-03-14T15:43:41.000Z</time>
      </trkpt>
      <trkpt lat="45.89377" lon="4.46067">
        <ele>515.79998779297</ele>
        <time>2020-03-14T15:43:42.000Z</time>
      </trkpt>
      <trkpt lat="45.89376" lon="4.4607">
        <ele>515.59997558594</ele>
        <time>2020-03-14T15:43:43.000Z</time>
      </trkpt>
      <trkpt lat="45.89375" lon="4.46072">
        <ele>515.20001220703</ele>
        <time>2020-03-14T15:43:44.000Z</time>
      </trkpt>
      <trkpt lat="45.89375" lon="4.46074">
        <ele>515</ele>
        <time>2020-03-14T15:43:45.000Z</time>
      </trkpt>
      <trkpt lat="45.89374" lon="4.46076">
        <ele>514.59997558594</ele>
        <time>2020-03-14T15:43:46.000Z</time>
      </trkpt>
      <trkpt lat="45.89373" lon="4.46078">
        <ele>514</ele>
        <time>2020-03-14T15:43:47.000Z</time>
      </trkpt>
      <trkpt lat="45.89372" lon="4.46079">
        <ele>513.59997558594</ele>
        <time>2020-03-14T15:43:48.000Z</time>
      </trkpt>
      <trkpt lat="45.89372" lon="4.46081">
        <ele>512.79998779297</ele>
        <time>2020-03-14T15:43:49.000Z</time>
      </trkpt>
      <trkpt lat="45.8937" lon="4.46082">
        <ele>512.20001220703</ele>
        <time>2020-03-14T15:43:50.000Z</time>
      </trkpt>
      <trkpt lat="45.89369" lon="4.46084">
        <ele>511.60000610352</ele>
        <time>2020-03-14T15:43:51.000Z</time>
      </trkpt>
      <trkpt lat="45.89367" lon="4.46084">
        <ele>511.20001220703</ele>
        <time>2020-03-14T15:43:52.000Z</time>
      </trkpt>
      <trkpt lat="45.89366" lon="4.46084">
        <ele>510.60000610352</ele>
        <time>2020-03-14T15:43:53.000Z</time>
      </trkpt>
      <trkpt lat="45.89363" lon="4.46086">
        <ele>510</ele>
        <time>2020-03-14T15:43:54.000Z</time>
      </trkpt>
      <trkpt lat="45.89362" lon="4.46086">
        <ele>509.79998779297</ele>
        <time>2020-03-14T15:43:55.000Z</time>
      </trkpt>
      <trkpt lat="45.8936" lon="4.46086">
        <ele>509.39999389648</ele>
        <time>2020-03-14T15:43:56.000Z</time>
      </trkpt>
      <trkpt lat="45.89359" lon="4.46086">
        <ele>509</ele>
        <time>2020-03-14T15:43:57.000Z</time>
      </trkpt>
      <trkpt lat="45.89358" lon="4.46087">
        <ele>508.20001220703</ele>
        <time>2020-03-14T15:43:58.000Z</time>
      </trkpt>
      <trkpt lat="45.89356" lon="4.46087">
        <ele>507.79998779297</ele>
        <time>2020-03-14T15:43:59.000Z</time>
      </trkpt>
      <trkpt lat="45.89354" lon="4.46089">
        <ele>507.39999389648</ele>
        <time>2020-03-14T15:44:00.000Z</time>
      </trkpt>
      <trkpt lat="45.89351" lon="4.4609">
        <ele>507.20001220703</ele>
        <time>2020-03-14T15:44:01.000Z</time>
      </trkpt>
      <trkpt lat="45.89349" lon="4.46091">
        <ele>507</ele>
        <time>2020-03-14T15:44:02.000Z</time>
      </trkpt>
      <trkpt lat="45.89348" lon="4.46091">
        <ele>506.79998779297</ele>
        <time>2020-03-14T15:44:03.000Z</time>
      </trkpt>
      <trkpt lat="45.89347" lon="4.46094">
        <ele>506.39999389648</ele>
        <time>2020-03-14T15:44:04.000Z</time>
      </trkpt>
      <trkpt lat="45.89346" lon="4.46095">
        <ele>505.79998779297</ele>
        <time>2020-03-14T15:44:05.000Z</time>
      </trkpt>
      <trkpt lat="45.89343" lon="4.46098">
        <ele>505</ele>
        <time>2020-03-14T15:44:06.000Z</time>
      </trkpt>
      <trkpt lat="45.89341" lon="4.46101">
        <ele>504.60000610352</ele>
        <time>2020-03-14T15:44:07.000Z</time>
      </trkpt>
      <trkpt lat="45.8934" lon="4.46103">
        <ele>504.20001220703</ele>
        <time>2020-03-14T15:44:08.000Z</time>
      </trkpt>
      <trkpt lat="45.89338" lon="4.46105">
        <ele>503.39999389648</ele>
        <time>2020-03-14T15:44:09.000Z</time>
      </trkpt>
      <trkpt lat="45.89336" lon="4.46106">
        <ele>502.79998779297</ele>
        <time>2020-03-14T15:44:10.000Z</time>
      </trkpt>
      <trkpt lat="45.89335" lon="4.46106">
        <ele>502.39999389648</ele>
        <time>2020-03-14T15:44:11.000Z</time>
      </trkpt>
      <trkpt lat="45.89332" lon="4.46107">
        <ele>501.79998779297</ele>
        <time>2020-03-14T15:44:12.000Z</time>
      </trkpt>
      <trkpt lat="45.8933" lon="4.46108">
        <ele>501.20001220703</ele>
        <time>2020-03-14T15:44:13.000Z</time>
      </trkpt>
      <trkpt lat="45.89327" lon="4.4611">
        <ele>501</ele>
        <time>2020-03-14T15:44:14.000Z</time>
      </trkpt>
      <trkpt lat="45.89325" lon="4.46111">
        <ele>500.39999389648</ele>
        <time>2020-03-14T15:44:15.000Z</time>
      </trkpt>
      <trkpt lat="45.89321" lon="4.46114">
        <ele>499.60000610352</ele>
        <time>2020-03-14T15:44:16.000Z</time>
      </trkpt>
      <trkpt lat="45.89317" lon="4.46116">
        <ele>499</ele>
        <time>2020-03-14T15:44:17.000Z</time>
      </trkpt>
      <trkpt lat="45.89314" lon="4.46119">
        <ele>498.39999389648</ele>
        <time>2020-03-14T15:44:18.000Z</time>
      </trkpt>
      <trkpt lat="45.89312" lon="4.46121">
        <ele>498</ele>
        <time>2020-03-14T15:44:19.000Z</time>
      </trkpt>
      <trkpt lat="45.89311" lon="4.46125">
        <ele>497.39999389648</ele>
        <time>2020-03-14T15:44:20.000Z</time>
      </trkpt>
      <trkpt lat="45.89311" lon="4.46128">
        <ele>497</ele>
        <time>2020-03-14T15:44:21.000Z</time>
      </trkpt>
      <trkpt lat="45.8931" lon="4.46131">
        <ele>496.60000610352</ele>
        <time>2020-03-14T15:44:22.000Z</time>
      </trkpt>
      <trkpt lat="45.89309" lon="4.46135">
        <ele>496</ele>
        <time>2020-03-14T15:44:23.000Z</time>
      </trkpt>
      <trkpt lat="45.89309" lon="4.46138">
        <ele>495.39999389648</ele>
        <time>2020-03-14T15:44:24.000Z</time>
      </trkpt>
      <trkpt lat="45.89308" lon="4.46141">
        <ele>494.60000610352</ele>
        <time>2020-03-14T15:44:25.000Z</time>
      </trkpt>
      <trkpt lat="45.89308" lon="4.46145">
        <ele>494</ele>
        <time>2020-03-14T15:44:26.000Z</time>
      </trkpt>
      <trkpt lat="45.89307" lon="4.46149">
        <ele>493.60000610352</ele>
        <time>2020-03-14T15:44:27.000Z</time>
      </trkpt>
      <trkpt lat="45.89307" lon="4.46152">
        <ele>493.20001220703</ele>
        <time>2020-03-14T15:44:28.000Z</time>
      </trkpt>
      <trkpt lat="45.89307" lon="4.46155">
        <ele>492.79998779297</ele>
        <time>2020-03-14T15:44:29.000Z</time>
      </trkpt>
      <trkpt lat="45.89306" lon="4.46158">
        <ele>492.60000610352</ele>
        <time>2020-03-14T15:44:30.000Z</time>
      </trkpt>
      <trkpt lat="45.89306" lon="4.4616">
        <ele>492.20001220703</ele>
        <time>2020-03-14T15:44:31.000Z</time>
      </trkpt>
      <trkpt lat="45.89305" lon="4.46163">
        <ele>491.79998779297</ele>
        <time>2020-03-14T15:44:32.000Z</time>
      </trkpt>
      <trkpt lat="45.89305" lon="4.46166">
        <ele>491.39999389648</ele>
        <time>2020-03-14T15:44:33.000Z</time>
      </trkpt>
      <trkpt lat="45.89304" lon="4.46169">
        <ele>491</ele>
        <time>2020-03-14T15:44:34.000Z</time>
      </trkpt>
      <trkpt lat="45.89303" lon="4.46172">
        <ele>490.39999389648</ele>
        <time>2020-03-14T15:44:35.000Z</time>
      </trkpt>
      <trkpt lat="45.89302" lon="4.46175">
        <ele>490</ele>
        <time>2020-03-14T15:44:36.000Z</time>
      </trkpt>
      <trkpt lat="45.893" lon="4.46177">
        <ele>489.39999389648</ele>
        <time>2020-03-14T15:44:37.000Z</time>
      </trkpt>
      <trkpt lat="45.89298" lon="4.46178">
        <ele>488.79998779297</ele>
        <time>2020-03-14T15:44:38.000Z</time>
      </trkpt>
      <trkpt lat="45.89296" lon="4.46179">
        <ele>488.20001220703</ele>
        <time>2020-03-14T15:44:39.000Z</time>
      </trkpt>
      <trkpt lat="45.89293" lon="4.46178">
        <ele>487.60000610352</ele>
        <time>2020-03-14T15:44:40.000Z</time>
      </trkpt>
      <trkpt lat="45.89291" lon="4.46178">
        <ele>486.79998779297</ele>
        <time>2020-03-14T15:44:41.000Z</time>
      </trkpt>
      <trkpt lat="45.89289" lon="4.46179">
        <ele>486</ele>
        <time>2020-03-14T15:44:42.000Z</time>
      </trkpt>
      <trkpt lat="45.89287" lon="4.46178">
        <ele>485.39999389648</ele>
        <time>2020-03-14T15:44:43.000Z</time>
      </trkpt>
      <trkpt lat="45.89284" lon="4.46177">
        <ele>485</ele>
        <time>2020-03-14T15:44:44.000Z</time>
      </trkpt>
      <trkpt lat="45.89282" lon="4.46176">
        <ele>484.79998779297</ele>
        <time>2020-03-14T15:44:45.000Z</time>
      </trkpt>
      <trkpt lat="45.8928" lon="4.46175">
        <ele>484.39999389648</ele>
        <time>2020-03-14T15:44:46.000Z</time>
      </trkpt>
      <trkpt lat="45.89278" lon="4.46174">
        <ele>484</ele>
        <time>2020-03-14T15:44:47.000Z</time>
      </trkpt>
      <trkpt lat="45.89276" lon="4.46173">
        <ele>483.79998779297</ele>
        <time>2020-03-14T15:44:48.000Z</time>
      </trkpt>
      <trkpt lat="45.89273" lon="4.46172">
        <ele>483.20001220703</ele>
        <time>2020-03-14T15:44:49.000Z</time>
      </trkpt>
      <trkpt lat="45.89271" lon="4.46172">
        <ele>482.20001220703</ele>
        <time>2020-03-14T15:44:50.000Z</time>
      </trkpt>
      <trkpt lat="45.89269" lon="4.46171">
        <ele>481.39999389648</ele>
        <time>2020-03-14T15:44:51.000Z</time>
      </trkpt>
      <trkpt lat="45.89266" lon="4.46171">
        <ele>480.79998779297</ele>
        <time>2020-03-14T15:44:52.000Z</time>
      </trkpt>
      <trkpt lat="45.89263" lon="4.46172">
        <ele>480.20001220703</ele>
        <time>2020-03-14T15:44:53.000Z</time>
      </trkpt>
      <trkpt lat="45.89259" lon="4.46171">
        <ele>479.79998779297</ele>
        <time>2020-03-14T15:44:54.000Z</time>
      </trkpt>
      <trkpt lat="45.89256" lon="4.4617">
        <ele>479.20001220703</ele>
        <time>2020-03-14T15:44:55.000Z</time>
      </trkpt>
      <trkpt lat="45.89252" lon="4.46169">
        <ele>478.79998779297</ele>
        <time>2020-03-14T15:44:56.000Z</time>
      </trkpt>
      <trkpt lat="45.89248" lon="4.4617">
        <ele>478.39999389648</ele>
        <time>2020-03-14T15:44:57.000Z</time>
      </trkpt>
      <trkpt lat="45.89245" lon="4.46169">
        <ele>478</ele>
        <time>2020-03-14T15:44:58.000Z</time>
      </trkpt>
      <trkpt lat="45.89242" lon="4.46168">
        <ele>477.60000610352</ele>
        <time>2020-03-14T15:44:59.000Z</time>
      </trkpt>
      <trkpt lat="45.89239" lon="4.46169">
        <ele>477</ele>
        <time>2020-03-14T15:45:00.000Z</time>
      </trkpt>
      <trkpt lat="45.89235" lon="4.46168">
        <ele>476.39999389648</ele>
        <time>2020-03-14T15:45:01.000Z</time>
      </trkpt>
      <trkpt lat="45.89232" lon="4.46166">
        <ele>475.60000610352</ele>
        <time>2020-03-14T15:45:02.000Z</time>
      </trkpt>
      <trkpt lat="45.89229" lon="4.46166">
        <ele>475.20001220703</ele>
        <time>2020-03-14T15:45:03.000Z</time>
      </trkpt>
      <trkpt lat="45.89225" lon="4.46167">
        <ele>474.79998779297</ele>
        <time>2020-03-14T15:45:04.000Z</time>
      </trkpt>
      <trkpt lat="45.8922" lon="4.46171">
        <ele>474.39999389648</ele>
        <time>2020-03-14T15:45:05.000Z</time>
      </trkpt>
      <trkpt lat="45.89216" lon="4.46172">
        <ele>474</ele>
        <time>2020-03-14T15:45:06.000Z</time>
      </trkpt>
      <trkpt lat="45.89211" lon="4.46173">
        <ele>473.60000610352</ele>
        <time>2020-03-14T15:45:07.000Z</time>
      </trkpt>
      <trkpt lat="45.89207" lon="4.46174">
        <ele>473</ele>
        <time>2020-03-14T15:45:08.000Z</time>
      </trkpt>
      <trkpt lat="45.89204" lon="4.46175">
        <ele>472</ele>
        <time>2020-03-14T15:45:09.000Z</time>
      </trkpt>
      <trkpt lat="45.89201" lon="4.46177">
        <ele>471.20001220703</ele>
        <time>2020-03-14T15:45:10.000Z</time>
      </trkpt>
      <trkpt lat="45.89198" lon="4.46179">
        <ele>470.60000610352</ele>
        <time>2020-03-14T15:45:11.000Z</time>
      </trkpt>
      <trkpt lat="45.89196" lon="4.46182">
        <ele>470</ele>
        <time>2020-03-14T15:45:12.000Z</time>
      </trkpt>
      <trkpt lat="45.89194" lon="4.46185">
        <ele>469.39999389648</ele>
        <time>2020-03-14T15:45:13.000Z</time>
      </trkpt>
      <trkpt lat="45.89191" lon="4.46187">
        <ele>468.79998779297</ele>
        <time>2020-03-14T15:45:14.000Z</time>
      </trkpt>
      <trkpt lat="45.89189" lon="4.46189">
        <ele>468.39999389648</ele>
        <time>2020-03-14T15:45:15.000Z</time>
      </trkpt>
      <trkpt lat="45.89187" lon="4.46191">
        <ele>468.20001220703</ele>
        <time>2020-03-14T15:45:16.000Z</time>
      </trkpt>
      <trkpt lat="45.89185" lon="4.46192">
        <ele>467.79998779297</ele>
        <time>2020-03-14T15:45:17.000Z</time>
      </trkpt>
      <trkpt lat="45.89183" lon="4.46193">
        <ele>467.39999389648</ele>
        <time>2020-03-14T15:45:18.000Z</time>
      </trkpt>
      <trkpt lat="45.89178" lon="4.46197">
        <ele>466.79998779297</ele>
        <time>2020-03-14T15:45:19.000Z</time>
      </trkpt>
      <trkpt lat="45.89175" lon="4.46205">
        <ele>466.20001220703</ele>
        <time>2020-03-14T15:45:20.000Z</time>
      </trkpt>
      <trkpt lat="45.89174" lon="4.46207">
        <ele>465.79998779297</ele>
        <time>2020-03-14T15:45:21.000Z</time>
      </trkpt>
      <trkpt lat="45.89171" lon="4.46211">
        <ele>465.39999389648</ele>
        <time>2020-03-14T15:45:22.000Z</time>
      </trkpt>
      <trkpt lat="45.89169" lon="4.46215">
        <ele>465</ele>
        <time>2020-03-14T15:45:23.000Z</time>
      </trkpt>
      <trkpt lat="45.89167" lon="4.46219">
        <ele>464.60000610352</ele>
        <time>2020-03-14T15:45:24.000Z</time>
      </trkpt>
      <trkpt lat="45.89165" lon="4.46224">
        <ele>464.20001220703</ele>
        <time>2020-03-14T15:45:25.000Z</time>
      </trkpt>
      <trkpt lat="45.89163" lon="4.46229">
        <ele>463.60000610352</ele>
        <time>2020-03-14T15:45:26.000Z</time>
      </trkpt>
      <trkpt lat="45.89162" lon="4.46234">
        <ele>463</ele>
        <time>2020-03-14T15:45:27.000Z</time>
      </trkpt>
      <trkpt lat="45.8916" lon="4.46239">
        <ele>462</ele>
        <time>2020-03-14T15:45:28.000Z</time>
      </trkpt>
      <trkpt lat="45.89159" lon="4.46244">
        <ele>461</ele>
        <time>2020-03-14T15:45:29.000Z</time>
      </trkpt>
      <trkpt lat="45.89158" lon="4.4625">
        <ele>460.20001220703</ele>
        <time>2020-03-14T15:45:30.000Z</time>
      </trkpt>
      <trkpt lat="45.89157" lon="4.46255">
        <ele>459.39999389648</ele>
        <time>2020-03-14T15:45:31.000Z</time>
      </trkpt>
      <trkpt lat="45.89157" lon="4.46261">
        <ele>458.79998779297</ele>
        <time>2020-03-14T15:45:32.000Z</time>
      </trkpt>
      <trkpt lat="45.89156" lon="4.46265">
        <ele>458.20001220703</ele>
        <time>2020-03-14T15:45:33.000Z</time>
      </trkpt>
      <trkpt lat="45.89155" lon="4.46269">
        <ele>457.60000610352</ele>
        <time>2020-03-14T15:45:34.000Z</time>
      </trkpt>
      <trkpt lat="45.89154" lon="4.46272">
        <ele>457</ele>
        <time>2020-03-14T15:45:35.000Z</time>
      </trkpt>
      <trkpt lat="45.89154" lon="4.46276">
        <ele>456.39999389648</ele>
        <time>2020-03-14T15:45:36.000Z</time>
      </trkpt>
      <trkpt lat="45.89153" lon="4.4628">
        <ele>455.79998779297</ele>
        <time>2020-03-14T15:45:37.000Z</time>
      </trkpt>
      <trkpt lat="45.89153" lon="4.46285">
        <ele>455.20001220703</ele>
        <time>2020-03-14T15:45:38.000Z</time>
      </trkpt>
      <trkpt lat="45.89152" lon="4.4629">
        <ele>454.39999389648</ele>
        <time>2020-03-14T15:45:39.000Z</time>
      </trkpt>
      <trkpt lat="45.89152" lon="4.46295">
        <ele>453.60000610352</ele>
        <time>2020-03-14T15:45:40.000Z</time>
      </trkpt>
      <trkpt lat="45.89152" lon="4.46301">
        <ele>453</ele>
        <time>2020-03-14T15:45:41.000Z</time>
      </trkpt>
      <trkpt lat="45.89152" lon="4.46306">
        <ele>452.39999389648</ele>
        <time>2020-03-14T15:45:42.000Z</time>
      </trkpt>
      <trkpt lat="45.89151" lon="4.46311">
        <ele>452</ele>
        <time>2020-03-14T15:45:43.000Z</time>
      </trkpt>
      <trkpt lat="45.89151" lon="4.46315">
        <ele>451.60000610352</ele>
        <time>2020-03-14T15:45:44.000Z</time>
      </trkpt>
      <trkpt lat="45.89151" lon="4.46319">
        <ele>451</ele>
        <time>2020-03-14T15:45:45.000Z</time>
      </trkpt>
      <trkpt lat="45.89152" lon="4.46323">
        <ele>450.39999389648</ele>
        <time>2020-03-14T15:45:46.000Z</time>
      </trkpt>
      <trkpt lat="45.89152" lon="4.46327">
        <ele>449.79998779297</ele>
        <time>2020-03-14T15:45:47.000Z</time>
      </trkpt>
      <trkpt lat="45.89153" lon="4.46331">
        <ele>449.39999389648</ele>
        <time>2020-03-14T15:45:48.000Z</time>
      </trkpt>
      <trkpt lat="45.89153" lon="4.46334">
        <ele>448.79998779297</ele>
        <time>2020-03-14T15:45:49.000Z</time>
      </trkpt>
      <trkpt lat="45.89154" lon="4.46338">
        <ele>448.20001220703</ele>
        <time>2020-03-14T15:45:50.000Z</time>
      </trkpt>
      <trkpt lat="45.89155" lon="4.46343">
        <ele>447.60000610352</ele>
        <time>2020-03-14T15:45:51.000Z</time>
      </trkpt>
      <trkpt lat="45.89158" lon="4.46349">
        <ele>447.20001220703</ele>
        <time>2020-03-14T15:45:52.000Z</time>
      </trkpt>
      <trkpt lat="45.8916" lon="4.46355">
        <ele>446.39999389648</ele>
        <time>2020-03-14T15:45:53.000Z</time>
      </trkpt>
      <trkpt lat="45.89163" lon="4.46361">
        <ele>444.60000610352</ele>
        <time>2020-03-14T15:45:54.000Z</time>
      </trkpt>
      <trkpt lat="45.89166" lon="4.46367">
        <ele>443</ele>
        <time>2020-03-14T15:45:55.000Z</time>
      </trkpt>
      <trkpt lat="45.89169" lon="4.46372">
        <ele>442.20001220703</ele>
        <time>2020-03-14T15:45:56.000Z</time>
      </trkpt>
      <trkpt lat="45.89173" lon="4.46378">
        <ele>441.60000610352</ele>
        <time>2020-03-14T15:45:57.000Z</time>
      </trkpt>
      <trkpt lat="45.89176" lon="4.46385">
        <ele>441</ele>
        <time>2020-03-14T15:45:58.000Z</time>
      </trkpt>
      <trkpt lat="45.8918" lon="4.46392">
        <ele>440.39999389648</ele>
        <time>2020-03-14T15:45:59.000Z</time>
      </trkpt>
      <trkpt lat="45.89184" lon="4.46399">
        <ele>439.60000610352</ele>
        <time>2020-03-14T15:46:00.000Z</time>
      </trkpt>
      <trkpt lat="45.89187" lon="4.46404">
        <ele>439</ele>
        <time>2020-03-14T15:46:01.000Z</time>
      </trkpt>
      <trkpt lat="45.8919" lon="4.46409">
        <ele>438.39999389648</ele>
        <time>2020-03-14T15:46:02.000Z</time>
      </trkpt>
      <trkpt lat="45.89193" lon="4.46414">
        <ele>437.79998779297</ele>
        <time>2020-03-14T15:46:03.000Z</time>
      </trkpt>
      <trkpt lat="45.89196" lon="4.46419">
        <ele>437.60000610352</ele>
        <time>2020-03-14T15:46:04.000Z</time>
      </trkpt>
      <trkpt lat="45.89199" lon="4.46424">
        <ele>437.20001220703</ele>
        <time>2020-03-14T15:46:05.000Z</time>
      </trkpt>
      <trkpt lat="45.89202" lon="4.46429">
        <ele>436.60000610352</ele>
        <time>2020-03-14T15:46:06.000Z</time>
      </trkpt>
      <trkpt lat="45.89204" lon="4.46435">
        <ele>435.79998779297</ele>
        <time>2020-03-14T15:46:07.000Z</time>
      </trkpt>
      <trkpt lat="45.89207" lon="4.4644">
        <ele>435.20001220703</ele>
        <time>2020-03-14T15:46:08.000Z</time>
      </trkpt>
      <trkpt lat="45.8921" lon="4.46446">
        <ele>434.60000610352</ele>
        <time>2020-03-14T15:46:09.000Z</time>
      </trkpt>
      <trkpt lat="45.89214" lon="4.46452">
        <ele>434.20001220703</ele>
        <time>2020-03-14T15:46:10.000Z</time>
      </trkpt>
      <trkpt lat="45.89217" lon="4.46458">
        <ele>434</ele>
        <time>2020-03-14T15:46:11.000Z</time>
      </trkpt>
      <trkpt lat="45.8922" lon="4.46462">
        <ele>433.39999389648</ele>
        <time>2020-03-14T15:46:12.000Z</time>
      </trkpt>
      <trkpt lat="45.89222" lon="4.46466">
        <ele>433</ele>
        <time>2020-03-14T15:46:13.000Z</time>
      </trkpt>
      <trkpt lat="45.89225" lon="4.46469">
        <ele>432.60000610352</ele>
        <time>2020-03-14T15:46:14.000Z</time>
      </trkpt>
      <trkpt lat="45.89227" lon="4.46472">
        <ele>431.79998779297</ele>
        <time>2020-03-14T15:46:15.000Z</time>
      </trkpt>
      <trkpt lat="45.89229" lon="4.46475">
        <ele>431</ele>
        <time>2020-03-14T15:46:16.000Z</time>
      </trkpt>
      <trkpt lat="45.89232" lon="4.46478">
        <ele>430.39999389648</ele>
        <time>2020-03-14T15:46:17.000Z</time>
      </trkpt>
      <trkpt lat="45.89235" lon="4.46482">
        <ele>429.79998779297</ele>
        <time>2020-03-14T15:46:18.000Z</time>
      </trkpt>
      <trkpt lat="45.89238" lon="4.46486">
        <ele>429.39999389648</ele>
        <time>2020-03-14T15:46:19.000Z</time>
      </trkpt>
      <trkpt lat="45.89242" lon="4.4649">
        <ele>429</ele>
        <time>2020-03-14T15:46:20.000Z</time>
      </trkpt>
      <trkpt lat="45.89245" lon="4.46494">
        <ele>428.60000610352</ele>
        <time>2020-03-14T15:46:21.000Z</time>
      </trkpt>
      <trkpt lat="45.89248" lon="4.46499">
        <ele>428</ele>
        <time>2020-03-14T15:46:22.000Z</time>
      </trkpt>
      <trkpt lat="45.8925" lon="4.46503">
        <ele>427.20001220703</ele>
        <time>2020-03-14T15:46:23.000Z</time>
      </trkpt>
      <trkpt lat="45.89253" lon="4.46507">
        <ele>426.60000610352</ele>
        <time>2020-03-14T15:46:24.000Z</time>
      </trkpt>
      <trkpt lat="45.89255" lon="4.4651">
        <ele>426</ele>
        <time>2020-03-14T15:46:25.000Z</time>
      </trkpt>
      <trkpt lat="45.89257" lon="4.46512">
        <ele>425.39999389648</ele>
        <time>2020-03-14T15:46:26.000Z</time>
      </trkpt>
      <trkpt lat="45.8926" lon="4.46514">
        <ele>425</ele>
        <time>2020-03-14T15:46:27.000Z</time>
      </trkpt>
      <trkpt lat="45.89263" lon="4.46516">
        <ele>424.79998779297</ele>
        <time>2020-03-14T15:46:28.000Z</time>
      </trkpt>
      <trkpt lat="45.89266" lon="4.46518">
        <ele>424.39999389648</ele>
        <time>2020-03-14T15:46:29.000Z</time>
      </trkpt>
      <trkpt lat="45.8927" lon="4.46519">
        <ele>423.60000610352</ele>
        <time>2020-03-14T15:46:30.000Z</time>
      </trkpt>
      <trkpt lat="45.89275" lon="4.46521">
        <ele>422.39999389648</ele>
        <time>2020-03-14T15:46:31.000Z</time>
      </trkpt>
      <trkpt lat="45.89278" lon="4.46521">
        <ele>421.20001220703</ele>
        <time>2020-03-14T15:46:32.000Z</time>
      </trkpt>
      <trkpt lat="45.89282" lon="4.46522">
        <ele>420.39999389648</ele>
        <time>2020-03-14T15:46:33.000Z</time>
      </trkpt>
      <trkpt lat="45.89284" lon="4.46523">
        <ele>420</ele>
        <time>2020-03-14T15:46:34.000Z</time>
      </trkpt>
      <trkpt lat="45.89286" lon="4.46524">
        <ele>419.39999389648</ele>
        <time>2020-03-14T15:46:35.000Z</time>
      </trkpt>
      <trkpt lat="45.89289" lon="4.46524">
        <ele>419</ele>
        <time>2020-03-14T15:46:36.000Z</time>
      </trkpt>
      <trkpt lat="45.89292" lon="4.46524">
        <ele>418.39999389648</ele>
        <time>2020-03-14T15:46:37.000Z</time>
      </trkpt>
      <trkpt lat="45.89296" lon="4.46526">
        <ele>417.79998779297</ele>
        <time>2020-03-14T15:46:38.000Z</time>
      </trkpt>
      <trkpt lat="45.893" lon="4.46527">
        <ele>417</ele>
        <time>2020-03-14T15:46:39.000Z</time>
      </trkpt>
      <trkpt lat="45.89304" lon="4.46528">
        <ele>416.20001220703</ele>
        <time>2020-03-14T15:46:40.000Z</time>
      </trkpt>
      <trkpt lat="45.89308" lon="4.46529">
        <ele>415.20001220703</ele>
        <time>2020-03-14T15:46:41.000Z</time>
      </trkpt>
      <trkpt lat="45.89311" lon="4.4653">
        <ele>413.79998779297</ele>
        <time>2020-03-14T15:46:42.000Z</time>
      </trkpt>
      <trkpt lat="45.89315" lon="4.4653">
        <ele>412.60000610352</ele>
        <time>2020-03-14T15:46:43.000Z</time>
      </trkpt>
      <trkpt lat="45.89319" lon="4.46531">
        <ele>411.60000610352</ele>
        <time>2020-03-14T15:46:44.000Z</time>
      </trkpt>
      <trkpt lat="45.89324" lon="4.46531">
        <ele>410.60000610352</ele>
        <time>2020-03-14T15:46:45.000Z</time>
      </trkpt>
      <trkpt lat="45.89329" lon="4.4653">
        <ele>409.79998779297</ele>
        <time>2020-03-14T15:46:46.000Z</time>
      </trkpt>
      <trkpt lat="45.89333" lon="4.4653">
        <ele>409.20001220703</ele>
        <time>2020-03-14T15:46:47.000Z</time>
      </trkpt>
      <trkpt lat="45.89338" lon="4.46531">
        <ele>408.60000610352</ele>
        <time>2020-03-14T15:46:48.000Z</time>
      </trkpt>
      <trkpt lat="45.89345" lon="4.46533">
        <ele>408.20001220703</ele>
        <time>2020-03-14T15:46:49.000Z</time>
      </trkpt>
      <trkpt lat="45.89353" lon="4.46535">
        <ele>408</ele>
        <time>2020-03-14T15:46:50.000Z</time>
      </trkpt>
      <trkpt lat="45.89361" lon="4.46538">
        <ele>407.60000610352</ele>
        <time>2020-03-14T15:46:51.000Z</time>
      </trkpt>
      <trkpt lat="45.89368" lon="4.46542">
        <ele>407.39999389648</ele>
        <time>2020-03-14T15:46:52.000Z</time>
      </trkpt>
      <trkpt lat="45.89372" lon="4.46548">
        <ele>407.20001220703</ele>
        <time>2020-03-14T15:46:53.000Z</time>
      </trkpt>
      <trkpt lat="45.89375" lon="4.46554">
        <ele>407</ele>
        <time>2020-03-14T15:46:54.000Z</time>
      </trkpt>
      <trkpt lat="45.89379" lon="4.4656">
        <ele>406.60000610352</ele>
        <time>2020-03-14T15:46:55.000Z</time>
      </trkpt>
      <trkpt lat="45.89384" lon="4.46567">
        <ele>406.60000610352</ele>
        <time>2020-03-14T15:46:56.000Z</time>
      </trkpt>
      <trkpt lat="45.89386" lon="4.46574">
        <ele>406.60000610352</ele>
        <time>2020-03-14T15:46:57.000Z</time>
      </trkpt>
      <trkpt lat="45.89385" lon="4.46578">
        <ele>406.79998779297</ele>
        <time>2020-03-14T15:46:58.000Z</time>
      </trkpt>
      <trkpt lat="45.89384" lon="4.46581">
        <ele>407</ele>
        <time>2020-03-14T15:46:59.000Z</time>
      </trkpt>
      <trkpt lat="45.89383" lon="4.46583">
        <ele>407.20001220703</ele>
        <time>2020-03-14T15:47:00.000Z</time>
      </trkpt>
      <trkpt lat="45.89382" lon="4.46586">
        <ele>407.39999389648</ele>
        <time>2020-03-14T15:47:01.000Z</time>
      </trkpt>
      <trkpt lat="45.89381" lon="4.46588">
        <ele>407.39999389648</ele>
        <time>2020-03-14T15:47:02.000Z</time>
      </trkpt>
      <trkpt lat="45.89379" lon="4.4659">
        <ele>407.39999389648</ele>
        <time>2020-03-14T15:47:03.000Z</time>
      </trkpt>
      <trkpt lat="45.89378" lon="4.46592">
        <ele>407.39999389648</ele>
        <time>2020-03-14T15:47:04.000Z</time>
      </trkpt>
      <trkpt lat="45.89376" lon="4.46594">
        <ele>407.39999389648</ele>
        <time>2020-03-14T15:47:05.000Z</time>
      </trkpt>
      <trkpt lat="45.89374" lon="4.46596">
        <ele>407.60000610352</ele>
        <time>2020-03-14T15:47:06.000Z</time>
      </trkpt>
      <trkpt lat="45.89371" lon="4.46599">
        <ele>407.60000610352</ele>
        <time>2020-03-14T15:47:07.000Z</time>
      </trkpt>
      <trkpt lat="45.89368" lon="4.46602">
        <ele>407.39999389648</ele>
        <time>2020-03-14T15:47:08.000Z</time>
      </trkpt>
      <trkpt lat="45.89365" lon="4.46605">
        <ele>407.39999389648</ele>
        <time>2020-03-14T15:47:09.000Z</time>
      </trkpt>
      <trkpt lat="45.89362" lon="4.46608">
        <ele>407</ele>
        <time>2020-03-14T15:47:10.000Z</time>
      </trkpt>
      <trkpt lat="45.8936" lon="4.46611">
        <ele>406.60000610352</ele>
        <time>2020-03-14T15:47:11.000Z</time>
      </trkpt>
      <trkpt lat="45.89358" lon="4.46614">
        <ele>406.39999389648</ele>
        <time>2020-03-14T15:47:12.000Z</time>
      </trkpt>
      <trkpt lat="45.89355" lon="4.46617">
        <ele>406.20001220703</ele>
        <time>2020-03-14T15:47:13.000Z</time>
      </trkpt>
      <trkpt lat="45.89353" lon="4.4662">
        <ele>406.20001220703</ele>
        <time>2020-03-14T15:47:14.000Z</time>
      </trkpt>
      <trkpt lat="45.89351" lon="4.46622">
        <ele>406</ele>
        <time>2020-03-14T15:47:15.000Z</time>
      </trkpt>
      <trkpt lat="45.89349" lon="4.46625">
        <ele>406</ele>
        <time>2020-03-14T15:47:16.000Z</time>
      </trkpt>
      <trkpt lat="45.89346" lon="4.46629">
        <ele>405.79998779297</ele>
        <time>2020-03-14T15:47:17.000Z</time>
      </trkpt>
      <trkpt lat="45.89344" lon="4.46631">
        <ele>405.79998779297</ele>
        <time>2020-03-14T15:47:18.000Z</time>
      </trkpt>
      <trkpt lat="45.89343" lon="4.46634">
        <ele>405.79998779297</ele>
        <time>2020-03-14T15:47:19.000Z</time>
      </trkpt>
      <trkpt lat="45.89341" lon="4.46636">
        <ele>405.79998779297</ele>
        <time>2020-03-14T15:47:20.000Z</time>
      </trkpt>
      <trkpt lat="45.89339" lon="4.46639">
        <ele>405.79998779297</ele>
        <time>2020-03-14T15:47:21.000Z</time>
      </trkpt>
      <trkpt lat="45.89338" lon="4.46641">
        <ele>405.60000610352</ele>
        <time>2020-03-14T15:47:22.000Z</time>
      </trkpt>
      <trkpt lat="45.89336" lon="4.46644">
        <ele>405.60000610352</ele>
        <time>2020-03-14T15:47:23.000Z</time>
      </trkpt>
      <trkpt lat="45.89334" lon="4.46647">
        <ele>405.60000610352</ele>
        <time>2020-03-14T15:47:24.000Z</time>
      </trkpt>
      <trkpt lat="45.89333" lon="4.46649">
        <ele>405.60000610352</ele>
        <time>2020-03-14T15:47:25.000Z</time>
      </trkpt>
      <trkpt lat="45.89332" lon="4.46651">
        <ele>405.60000610352</ele>
        <time>2020-03-14T15:47:26.000Z</time>
      </trkpt>
      <trkpt lat="45.89331" lon="4.46653">
        <ele>405.60000610352</ele>
        <time>2020-03-14T15:47:27.000Z</time>
      </trkpt>
      <trkpt lat="45.89329" lon="4.46656">
        <ele>405.60000610352</ele>
        <time>2020-03-14T15:47:28.000Z</time>
      </trkpt>
      <trkpt lat="45.89327" lon="4.46661">
        <ele>405.60000610352</ele>
        <time>2020-03-14T15:47:29.000Z</time>
      </trkpt>
      <trkpt lat="45.89326" lon="4.46665">
        <ele>405.60000610352</ele>
        <time>2020-03-14T15:47:30.000Z</time>
      </trkpt>
      <trkpt lat="45.89324" lon="4.46669">
        <ele>405.39999389648</ele>
        <time>2020-03-14T15:47:31.000Z</time>
      </trkpt>
      <trkpt lat="45.89322" lon="4.46672">
        <ele>405.39999389648</ele>
        <time>2020-03-14T15:47:32.000Z</time>
      </trkpt>
      <trkpt lat="45.89321" lon="4.46674">
        <ele>405.20001220703</ele>
        <time>2020-03-14T15:47:33.000Z</time>
      </trkpt>
      <trkpt lat="45.89319" lon="4.46676">
        <ele>405.20001220703</ele>
        <time>2020-03-14T15:47:34.000Z</time>
      </trkpt>
      <trkpt lat="45.89318" lon="4.46678">
        <ele>405</ele>
        <time>2020-03-14T15:47:35.000Z</time>
      </trkpt>
      <trkpt lat="45.89316" lon="4.4668">
        <ele>405</ele>
        <time>2020-03-14T15:47:36.000Z</time>
      </trkpt>
      <trkpt lat="45.89315" lon="4.46682">
        <ele>405</ele>
        <time>2020-03-14T15:47:37.000Z</time>
      </trkpt>
      <trkpt lat="45.89313" lon="4.46685">
        <ele>405</ele>
        <time>2020-03-14T15:47:38.000Z</time>
      </trkpt>
      <trkpt lat="45.89312" lon="4.46687">
        <ele>405</ele>
        <time>2020-03-14T15:47:39.000Z</time>
      </trkpt>
      <trkpt lat="45.89311" lon="4.46689">
        <ele>405</ele>
        <time>2020-03-14T15:47:40.000Z</time>
      </trkpt>
      <trkpt lat="45.89309" lon="4.46691">
        <ele>404.79998779297</ele>
        <time>2020-03-14T15:47:41.000Z</time>
      </trkpt>
      <trkpt lat="45.89307" lon="4.46692">
        <ele>404.60000610352</ele>
        <time>2020-03-14T15:47:42.000Z</time>
      </trkpt>
      <trkpt lat="45.89306" lon="4.46694">
        <ele>404.39999389648</ele>
        <time>2020-03-14T15:47:43.000Z</time>
      </trkpt>
      <trkpt lat="45.89306" lon="4.46696">
        <ele>404.20001220703</ele>
        <time>2020-03-14T15:47:44.000Z</time>
      </trkpt>
      <trkpt lat="45.89305" lon="4.46697">
        <ele>404.20001220703</ele>
        <time>2020-03-14T15:47:45.000Z</time>
      </trkpt>
      <trkpt lat="45.89303" lon="4.46698">
        <ele>404.20001220703</ele>
        <time>2020-03-14T15:47:46.000Z</time>
      </trkpt>
      <trkpt lat="45.89302" lon="4.46698">
        <ele>404.39999389648</ele>
        <time>2020-03-14T15:47:47.000Z</time>
      </trkpt>
      <trkpt lat="45.893" lon="4.46701">
        <ele>404.39999389648</ele>
        <time>2020-03-14T15:47:48.000Z</time>
      </trkpt>
      <trkpt lat="45.89297" lon="4.46704">
        <ele>404.60000610352</ele>
        <time>2020-03-14T15:47:49.000Z</time>
      </trkpt>
      <trkpt lat="45.89295" lon="4.46705">
        <ele>404.60000610352</ele>
        <time>2020-03-14T15:47:50.000Z</time>
      </trkpt>
      <trkpt lat="45.89293" lon="4.46706">
        <ele>404.79998779297</ele>
        <time>2020-03-14T15:47:51.000Z</time>
      </trkpt>
      <trkpt lat="45.89291" lon="4.46707">
        <ele>404.79998779297</ele>
        <time>2020-03-14T15:47:52.000Z</time>
      </trkpt>
      <trkpt lat="45.89288" lon="4.46707">
        <ele>404.79998779297</ele>
        <time>2020-03-14T15:47:53.000Z</time>
      </trkpt>
      <trkpt lat="45.89286" lon="4.46707">
        <ele>405</ele>
        <time>2020-03-14T15:47:54.000Z</time>
      </trkpt>
      <trkpt lat="45.89284" lon="4.46708">
        <ele>405</ele>
        <time>2020-03-14T15:47:55.000Z</time>
      </trkpt>
      <trkpt lat="45.89282" lon="4.46708">
        <ele>405</ele>
        <time>2020-03-14T15:47:56.000Z</time>
      </trkpt>
      <trkpt lat="45.89279" lon="4.46708">
        <ele>405</ele>
        <time>2020-03-14T15:47:57.000Z</time>
      </trkpt>
      <trkpt lat="45.89277" lon="4.46708">
        <ele>405</ele>
        <time>2020-03-14T15:47:58.000Z</time>
      </trkpt>
      <trkpt lat="45.89275" lon="4.46708">
        <ele>405</ele>
        <time>2020-03-14T15:47:59.000Z</time>
      </trkpt>
      <trkpt lat="45.89273" lon="4.46709">
        <ele>404.79998779297</ele>
        <time>2020-03-14T15:48:00.000Z</time>
      </trkpt>
      <trkpt lat="45.89271" lon="4.46709">
        <ele>404.79998779297</ele>
        <time>2020-03-14T15:48:01.000Z</time>
      </trkpt>
      <trkpt lat="45.89268" lon="4.4671">
        <ele>404.79998779297</ele>
        <time>2020-03-14T15:48:02.000Z</time>
      </trkpt>
      <trkpt lat="45.89266" lon="4.46711">
        <ele>404.79998779297</ele>
        <time>2020-03-14T15:48:03.000Z</time>
      </trkpt>
      <trkpt lat="45.89264" lon="4.46712">
        <ele>405.20001220703</ele>
        <time>2020-03-14T15:48:04.000Z</time>
      </trkpt>
      <trkpt lat="45.89262" lon="4.46713">
        <ele>405.39999389648</ele>
        <time>2020-03-14T15:48:05.000Z</time>
      </trkpt>
      <trkpt lat="45.8926" lon="4.46714">
        <ele>405.79998779297</ele>
        <time>2020-03-14T15:48:06.000Z</time>
      </trkpt>
      <trkpt lat="45.89259" lon="4.46715">
        <ele>406</ele>
        <time>2020-03-14T15:48:07.000Z</time>
      </trkpt>
      <trkpt lat="45.89257" lon="4.46717">
        <ele>406</ele>
        <time>2020-03-14T15:48:08.000Z</time>
      </trkpt>
      <trkpt lat="45.89255" lon="4.46718">
        <ele>406.20001220703</ele>
        <time>2020-03-14T15:48:09.000Z</time>
      </trkpt>
      <trkpt lat="45.89254" lon="4.46718">
        <ele>406.20001220703</ele>
        <time>2020-03-14T15:48:10.000Z</time>
      </trkpt>
      <trkpt lat="45.89253" lon="4.46718">
        <ele>406.39999389648</ele>
        <time>2020-03-14T15:48:11.000Z</time>
      </trkpt>
      <trkpt lat="45.89251" lon="4.46718">
        <ele>406.60000610352</ele>
        <time>2020-03-14T15:48:12.000Z</time>
      </trkpt>
      <trkpt lat="45.8925" lon="4.46719">
        <ele>406.79998779297</ele>
        <time>2020-03-14T15:48:13.000Z</time>
      </trkpt>
      <trkpt lat="45.89248" lon="4.4672">
        <ele>406.79998779297</ele>
        <time>2020-03-14T15:48:14.000Z</time>
      </trkpt>
      <trkpt lat="45.89247" lon="4.46721">
        <ele>407</ele>
        <time>2020-03-14T15:48:15.000Z</time>
      </trkpt>
      <trkpt lat="45.89245" lon="4.46722">
        <ele>407</ele>
        <time>2020-03-14T15:48:16.000Z</time>
      </trkpt>
      <trkpt lat="45.89244" lon="4.46723">
        <ele>407.20001220703</ele>
        <time>2020-03-14T15:48:17.000Z</time>
      </trkpt>
      <trkpt lat="45.89242" lon="4.46724">
        <ele>407.20001220703</ele>
        <time>2020-03-14T15:48:18.000Z</time>
      </trkpt>
      <trkpt lat="45.89241" lon="4.46725">
        <ele>407.39999389648</ele>
        <time>2020-03-14T15:48:19.000Z</time>
      </trkpt>
      <trkpt lat="45.8924" lon="4.46727">
        <ele>407.79998779297</ele>
        <time>2020-03-14T15:48:20.000Z</time>
      </trkpt>
      <trkpt lat="45.89238" lon="4.46728">
        <ele>408</ele>
        <time>2020-03-14T15:48:21.000Z</time>
      </trkpt>
      <trkpt lat="45.89237" lon="4.46729">
        <ele>408</ele>
        <time>2020-03-14T15:48:22.000Z</time>
      </trkpt>
      <trkpt lat="45.89236" lon="4.4673">
        <ele>408.20001220703</ele>
        <time>2020-03-14T15:48:23.000Z</time>
      </trkpt>
      <trkpt lat="45.89235" lon="4.46731">
        <ele>408.60000610352</ele>
        <time>2020-03-14T15:48:24.000Z</time>
      </trkpt>
      <trkpt lat="45.89233" lon="4.46732">
        <ele>408.79998779297</ele>
        <time>2020-03-14T15:48:25.000Z</time>
      </trkpt>
      <trkpt lat="45.89232" lon="4.46733">
        <ele>409</ele>
        <time>2020-03-14T15:48:26.000Z</time>
      </trkpt>
      <trkpt lat="45.89231" lon="4.46734">
        <ele>409.20001220703</ele>
        <time>2020-03-14T15:48:27.000Z</time>
      </trkpt>
      <trkpt lat="45.89229" lon="4.46734">
        <ele>409.39999389648</ele>
        <time>2020-03-14T15:48:28.000Z</time>
      </trkpt>
      <trkpt lat="45.89227" lon="4.46735">
        <ele>409.60000610352</ele>
        <time>2020-03-14T15:48:29.000Z</time>
      </trkpt>
      <trkpt lat="45.89226" lon="4.46736">
        <ele>409.60000610352</ele>
        <time>2020-03-14T15:48:30.000Z</time>
      </trkpt>
      <trkpt lat="45.89224" lon="4.46738">
        <ele>409.79998779297</ele>
        <time>2020-03-14T15:48:31.000Z</time>
      </trkpt>
      <trkpt lat="45.89222" lon="4.46739">
        <ele>409.79998779297</ele>
        <time>2020-03-14T15:48:32.000Z</time>
      </trkpt>
      <trkpt lat="45.89221" lon="4.46739">
        <ele>409.60000610352</ele>
        <time>2020-03-14T15:48:33.000Z</time>
      </trkpt>
      <trkpt lat="45.89219" lon="4.4674">
        <ele>409.60000610352</ele>
        <time>2020-03-14T15:48:34.000Z</time>
      </trkpt>
      <trkpt lat="45.89217" lon="4.4674">
        <ele>409.60000610352</ele>
        <time>2020-03-14T15:48:35.000Z</time>
      </trkpt>
      <trkpt lat="45.89216" lon="4.46741">
        <ele>409.60000610352</ele>
        <time>2020-03-14T15:48:36.000Z</time>
      </trkpt>
      <trkpt lat="45.89214" lon="4.46741">
        <ele>409.79998779297</ele>
        <time>2020-03-14T15:48:37.000Z</time>
      </trkpt>
      <trkpt lat="45.89213" lon="4.46742">
        <ele>409.79998779297</ele>
        <time>2020-03-14T15:48:38.000Z</time>
      </trkpt>
      <trkpt lat="45.89211" lon="4.46743">
        <ele>410</ele>
        <time>2020-03-14T15:48:39.000Z</time>
      </trkpt>
      <trkpt lat="45.89209" lon="4.46744">
        <ele>410.20001220703</ele>
        <time>2020-03-14T15:48:40.000Z</time>
      </trkpt>
      <trkpt lat="45.89208" lon="4.46745">
        <ele>410.20001220703</ele>
        <time>2020-03-14T15:48:41.000Z</time>
      </trkpt>
      <trkpt lat="45.89206" lon="4.46746">
        <ele>410.20001220703</ele>
        <time>2020-03-14T15:48:42.000Z</time>
      </trkpt>
      <trkpt lat="45.89205" lon="4.46746">
        <ele>410.39999389648</ele>
        <time>2020-03-14T15:48:43.000Z</time>
      </trkpt>
      <trkpt lat="45.89204" lon="4.46747">
        <ele>410.39999389648</ele>
        <time>2020-03-14T15:48:44.000Z</time>
      </trkpt>
      <trkpt lat="45.89203" lon="4.46747">
        <ele>410.60000610352</ele>
        <time>2020-03-14T15:48:45.000Z</time>
      </trkpt>
      <trkpt lat="45.89201" lon="4.46748">
        <ele>410.60000610352</ele>
        <time>2020-03-14T15:48:46.000Z</time>
      </trkpt>
      <trkpt lat="45.892" lon="4.46749">
        <ele>410.60000610352</ele>
        <time>2020-03-14T15:48:47.000Z</time>
      </trkpt>
      <trkpt lat="45.89199" lon="4.4675">
        <ele>410.79998779297</ele>
        <time>2020-03-14T15:48:48.000Z</time>
      </trkpt>
      <trkpt lat="45.89198" lon="4.46751">
        <ele>410.79998779297</ele>
        <time>2020-03-14T15:48:49.000Z</time>
      </trkpt>
      <trkpt lat="45.89196" lon="4.46751">
        <ele>411</ele>
        <time>2020-03-14T15:48:50.000Z</time>
      </trkpt>
      <trkpt lat="45.89194" lon="4.46751">
        <ele>411.20001220703</ele>
        <time>2020-03-14T15:48:51.000Z</time>
      </trkpt>
      <trkpt lat="45.89193" lon="4.46752">
        <ele>411.39999389648</ele>
        <time>2020-03-14T15:48:52.000Z</time>
      </trkpt>
      <trkpt lat="45.89192" lon="4.46752">
        <ele>411.60000610352</ele>
        <time>2020-03-14T15:48:53.000Z</time>
      </trkpt>
      <trkpt lat="45.89191" lon="4.46753">
        <ele>411.79998779297</ele>
        <time>2020-03-14T15:48:54.000Z</time>
      </trkpt>
      <trkpt lat="45.89189" lon="4.46753">
        <ele>412.20001220703</ele>
        <time>2020-03-14T15:48:55.000Z</time>
      </trkpt>
      <trkpt lat="45.89188" lon="4.46753">
        <ele>412.60000610352</ele>
        <time>2020-03-14T15:48:56.000Z</time>
      </trkpt>
      <trkpt lat="45.89187" lon="4.46754">
        <ele>412.79998779297</ele>
        <time>2020-03-14T15:48:57.000Z</time>
      </trkpt>
      <trkpt lat="45.89185" lon="4.46756">
        <ele>412.79998779297</ele>
        <time>2020-03-14T15:48:58.000Z</time>
      </trkpt>
      <trkpt lat="45.89184" lon="4.46756">
        <ele>413</ele>
        <time>2020-03-14T15:48:59.000Z</time>
      </trkpt>
      <trkpt lat="45.89183" lon="4.46756">
        <ele>413</ele>
        <time>2020-03-14T15:49:00.000Z</time>
      </trkpt>
      <trkpt lat="45.89182" lon="4.46756">
        <ele>413</ele>
        <time>2020-03-14T15:49:01.000Z</time>
      </trkpt>
      <trkpt lat="45.89181" lon="4.46756">
        <ele>413</ele>
        <time>2020-03-14T15:49:02.000Z</time>
      </trkpt>
      <trkpt lat="45.89181" lon="4.46757">
        <ele>413</ele>
        <time>2020-03-14T15:49:03.000Z</time>
      </trkpt>
      <trkpt lat="45.8918" lon="4.46757">
        <ele>413</ele>
        <time>2020-03-14T15:49:04.000Z</time>
      </trkpt>
      <trkpt lat="45.89179" lon="4.46758">
        <ele>413.20001220703</ele>
        <time>2020-03-14T15:49:05.000Z</time>
      </trkpt>
      <trkpt lat="45.89178" lon="4.4676">
        <ele>413.20001220703</ele>
        <time>2020-03-14T15:49:06.000Z</time>
      </trkpt>
      <trkpt lat="45.89177" lon="4.46761">
        <ele>413.39999389648</ele>
        <time>2020-03-14T15:49:07.000Z</time>
      </trkpt>
      <trkpt lat="45.89176" lon="4.46762">
        <ele>413.39999389648</ele>
        <time>2020-03-14T15:49:08.000Z</time>
      </trkpt>
      <trkpt lat="45.89175" lon="4.46763">
        <ele>413.79998779297</ele>
        <time>2020-03-14T15:49:09.000Z</time>
      </trkpt>
      <trkpt lat="45.89175" lon="4.46763">
        <ele>413.79998779297</ele>
        <time>2020-03-14T15:49:10.000Z</time>
      </trkpt>
      <trkpt lat="45.89174" lon="4.46764">
        <ele>414</ele>
        <time>2020-03-14T15:49:11.000Z</time>
      </trkpt>
      <trkpt lat="45.89173" lon="4.46765">
        <ele>414.20001220703</ele>
        <time>2020-03-14T15:49:12.000Z</time>
      </trkpt>
      <trkpt lat="45.89172" lon="4.46766">
        <ele>414.39999389648</ele>
        <time>2020-03-14T15:49:13.000Z</time>
      </trkpt>
      <trkpt lat="45.89171" lon="4.46767">
        <ele>414.39999389648</ele>
        <time>2020-03-14T15:49:14.000Z</time>
      </trkpt>
      <trkpt lat="45.8917" lon="4.46767">
        <ele>414.60000610352</ele>
        <time>2020-03-14T15:49:15.000Z</time>
      </trkpt>
      <trkpt lat="45.8917" lon="4.46768">
        <ele>414.60000610352</ele>
        <time>2020-03-14T15:49:16.000Z</time>
      </trkpt>
      <trkpt lat="45.89168" lon="4.46769">
        <ele>414.60000610352</ele>
        <time>2020-03-14T15:49:17.000Z</time>
      </trkpt>
      <trkpt lat="45.89167" lon="4.4677">
        <ele>414.79998779297</ele>
        <time>2020-03-14T15:49:18.000Z</time>
      </trkpt>
      <trkpt lat="45.89166" lon="4.46771">
        <ele>414.79998779297</ele>
        <time>2020-03-14T15:49:19.000Z</time>
      </trkpt>
      <trkpt lat="45.89166" lon="4.46771">
        <ele>414.79998779297</ele>
        <time>2020-03-14T15:49:20.000Z</time>
      </trkpt>
      <trkpt lat="45.89165" lon="4.46772">
        <ele>414.79998779297</ele>
        <time>2020-03-14T15:49:21.000Z</time>
      </trkpt>
      <trkpt lat="45.89164" lon="4.46773">
        <ele>415</ele>
        <time>2020-03-14T15:49:22.000Z</time>
      </trkpt>
      <trkpt lat="45.89163" lon="4.46774">
        <ele>415.20001220703</ele>
        <time>2020-03-14T15:49:23.000Z</time>
      </trkpt>
      <trkpt lat="45.89162" lon="4.46775">
        <ele>415.39999389648</ele>
        <time>2020-03-14T15:49:24.000Z</time>
      </trkpt>
      <trkpt lat="45.89161" lon="4.46776">
        <ele>415.79998779297</ele>
        <time>2020-03-14T15:49:25.000Z</time>
      </trkpt>
      <trkpt lat="45.8916" lon="4.46777">
        <ele>415.79998779297</ele>
        <time>2020-03-14T15:49:26.000Z</time>
      </trkpt>
      <trkpt lat="45.89159" lon="4.46778">
        <ele>416</ele>
        <time>2020-03-14T15:49:27.000Z</time>
      </trkpt>
      <trkpt lat="45.89158" lon="4.46779">
        <ele>416.20001220703</ele>
        <time>2020-03-14T15:49:28.000Z</time>
      </trkpt>
      <trkpt lat="45.89157" lon="4.46779">
        <ele>416.20001220703</ele>
        <time>2020-03-14T15:49:29.000Z</time>
      </trkpt>
      <trkpt lat="45.89156" lon="4.46782">
        <ele>416.39999389648</ele>
        <time>2020-03-14T15:49:30.000Z</time>
      </trkpt>
      <trkpt lat="45.89155" lon="4.46783">
        <ele>416.39999389648</ele>
        <time>2020-03-14T15:49:31.000Z</time>
      </trkpt>
      <trkpt lat="45.89154" lon="4.46784">
        <ele>416.79998779297</ele>
        <time>2020-03-14T15:49:32.000Z</time>
      </trkpt>
      <trkpt lat="45.89153" lon="4.46785">
        <ele>417</ele>
        <time>2020-03-14T15:49:33.000Z</time>
      </trkpt>
      <trkpt lat="45.89152" lon="4.46786">
        <ele>417.39999389648</ele>
        <time>2020-03-14T15:49:34.000Z</time>
      </trkpt>
      <trkpt lat="45.89151" lon="4.46787">
        <ele>417.39999389648</ele>
        <time>2020-03-14T15:49:35.000Z</time>
      </trkpt>
      <trkpt lat="45.8915" lon="4.46788">
        <ele>417.39999389648</ele>
        <time>2020-03-14T15:49:36.000Z</time>
      </trkpt>
      <trkpt lat="45.89149" lon="4.46789">
        <ele>417.60000610352</ele>
        <time>2020-03-14T15:49:37.000Z</time>
      </trkpt>
      <trkpt lat="45.89148" lon="4.4679">
        <ele>417.60000610352</ele>
        <time>2020-03-14T15:49:38.000Z</time>
      </trkpt>
      <trkpt lat="45.89147" lon="4.4679">
        <ele>417.60000610352</ele>
        <time>2020-03-14T15:49:39.000Z</time>
      </trkpt>
      <trkpt lat="45.89146" lon="4.46791">
        <ele>417.60000610352</ele>
        <time>2020-03-14T15:49:40.000Z</time>
      </trkpt>
      <trkpt lat="45.89146" lon="4.46792">
        <ele>417.79998779297</ele>
        <time>2020-03-14T15:49:41.000Z</time>
      </trkpt>
      <trkpt lat="45.89144" lon="4.46793">
        <ele>417.79998779297</ele>
        <time>2020-03-14T15:49:42.000Z</time>
      </trkpt>
      <trkpt lat="45.89143" lon="4.46794">
        <ele>417.79998779297</ele>
        <time>2020-03-14T15:49:43.000Z</time>
      </trkpt>
      <trkpt lat="45.89142" lon="4.46795">
        <ele>417.79998779297</ele>
        <time>2020-03-14T15:49:44.000Z</time>
      </trkpt>
      <trkpt lat="45.89142" lon="4.46795">
        <ele>417.60000610352</ele>
        <time>2020-03-14T15:49:45.000Z</time>
      </trkpt>
      <trkpt lat="45.89141" lon="4.46795">
        <ele>417.79998779297</ele>
        <time>2020-03-14T15:49:46.000Z</time>
      </trkpt>
      <trkpt lat="45.8914" lon="4.46796">
        <ele>417.79998779297</ele>
        <time>2020-03-14T15:49:47.000Z</time>
      </trkpt>
      <trkpt lat="45.89139" lon="4.46796">
        <ele>417.79998779297</ele>
        <time>2020-03-14T15:49:48.000Z</time>
      </trkpt>
      <trkpt lat="45.89138" lon="4.46797">
        <ele>417.79998779297</ele>
        <time>2020-03-14T15:49:49.000Z</time>
      </trkpt>
      <trkpt lat="45.89136" lon="4.46798">
        <ele>417.79998779297</ele>
        <time>2020-03-14T15:49:50.000Z</time>
      </trkpt>
      <trkpt lat="45.89135" lon="4.46799">
        <ele>418</ele>
        <time>2020-03-14T15:49:51.000Z</time>
      </trkpt>
      <trkpt lat="45.89134" lon="4.468">
        <ele>418.20001220703</ele>
        <time>2020-03-14T15:49:52.000Z</time>
      </trkpt>
      <trkpt lat="45.89133" lon="4.46801">
        <ele>418.20001220703</ele>
        <time>2020-03-14T15:49:53.000Z</time>
      </trkpt>
      <trkpt lat="45.89132" lon="4.46801">
        <ele>418.39999389648</ele>
        <time>2020-03-14T15:49:54.000Z</time>
      </trkpt>
      <trkpt lat="45.8913" lon="4.46802">
        <ele>418.79998779297</ele>
        <time>2020-03-14T15:49:55.000Z</time>
      </trkpt>
      <trkpt lat="45.8913" lon="4.46803">
        <ele>419</ele>
        <time>2020-03-14T15:49:56.000Z</time>
      </trkpt>
      <trkpt lat="45.89128" lon="4.46805">
        <ele>419.39999389648</ele>
        <time>2020-03-14T15:49:57.000Z</time>
      </trkpt>
      <trkpt lat="45.89128" lon="4.46807">
        <ele>419.39999389648</ele>
        <time>2020-03-14T15:49:58.000Z</time>
      </trkpt>
      <trkpt lat="45.89128" lon="4.46808">
        <ele>419.60000610352</ele>
        <time>2020-03-14T15:49:59.000Z</time>
      </trkpt>
      <trkpt lat="45.89127" lon="4.4681">
        <ele>419.60000610352</ele>
        <time>2020-03-14T15:50:00.000Z</time>
      </trkpt>
      <trkpt lat="45.89127" lon="4.4681">
        <ele>419.79998779297</ele>
        <time>2020-03-14T15:50:01.000Z</time>
      </trkpt>
      <trkpt lat="45.89126" lon="4.46811">
        <ele>419.79998779297</ele>
        <time>2020-03-14T15:50:02.000Z</time>
      </trkpt>
      <trkpt lat="45.89125" lon="4.46811">
        <ele>420</ele>
        <time>2020-03-14T15:50:03.000Z</time>
      </trkpt>
      <trkpt lat="45.89124" lon="4.46812">
        <ele>420.20001220703</ele>
        <time>2020-03-14T15:50:04.000Z</time>
      </trkpt>
      <trkpt lat="45.89123" lon="4.46813">
        <ele>420.39999389648</ele>
        <time>2020-03-14T15:50:05.000Z</time>
      </trkpt>
      <trkpt lat="45.89122" lon="4.46814">
        <ele>420.79998779297</ele>
        <time>2020-03-14T15:50:06.000Z</time>
      </trkpt>
      <trkpt lat="45.89122" lon="4.46815">
        <ele>421</ele>
        <time>2020-03-14T15:50:07.000Z</time>
      </trkpt>
      <trkpt lat="45.89121" lon="4.46816">
        <ele>421.20001220703</ele>
        <time>2020-03-14T15:50:08.000Z</time>
      </trkpt>
      <trkpt lat="45.8912" lon="4.46817">
        <ele>421.20001220703</ele>
        <time>2020-03-14T15:50:09.000Z</time>
      </trkpt>
      <trkpt lat="45.89119" lon="4.46818">
        <ele>421.20001220703</ele>
        <time>2020-03-14T15:50:10.000Z</time>
      </trkpt>
      <trkpt lat="45.89118" lon="4.46818">
        <ele>421.20001220703</ele>
        <time>2020-03-14T15:50:11.000Z</time>
      </trkpt>
      <trkpt lat="45.89117" lon="4.46819">
        <ele>421.39999389648</ele>
        <time>2020-03-14T15:50:12.000Z</time>
      </trkpt>
      <trkpt lat="45.89117" lon="4.4682">
        <ele>421.79998779297</ele>
        <time>2020-03-14T15:50:13.000Z</time>
      </trkpt>
      <trkpt lat="45.89116" lon="4.4682">
        <ele>422.20001220703</ele>
        <time>2020-03-14T15:50:14.000Z</time>
      </trkpt>
      <trkpt lat="45.89115" lon="4.46821">
        <ele>422.60000610352</ele>
        <time>2020-03-14T15:50:15.000Z</time>
      </trkpt>
      <trkpt lat="45.89115" lon="4.46821">
        <ele>422.79998779297</ele>
        <time>2020-03-14T15:50:16.000Z</time>
      </trkpt>
      <trkpt lat="45.89114" lon="4.46821">
        <ele>423</ele>
        <time>2020-03-14T15:50:17.000Z</time>
      </trkpt>
      <trkpt lat="45.89113" lon="4.46821">
        <ele>423</ele>
        <time>2020-03-14T15:50:18.000Z</time>
      </trkpt>
      <trkpt lat="45.89113" lon="4.46822">
        <ele>423</ele>
        <time>2020-03-14T15:50:19.000Z</time>
      </trkpt>
      <trkpt lat="45.89112" lon="4.46822">
        <ele>423</ele>
        <time>2020-03-14T15:50:20.000Z</time>
      </trkpt>
      <trkpt lat="45.89111" lon="4.46822">
        <ele>423</ele>
        <time>2020-03-14T15:50:21.000Z</time>
      </trkpt>
      <trkpt lat="45.8911" lon="4.46822">
        <ele>423.20001220703</ele>
        <time>2020-03-14T15:50:22.000Z</time>
      </trkpt>
      <trkpt lat="45.89109" lon="4.46822">
        <ele>423.20001220703</ele>
        <time>2020-03-14T15:50:23.000Z</time>
      </trkpt>
      <trkpt lat="45.89108" lon="4.46823">
        <ele>423.39999389648</ele>
        <time>2020-03-14T15:50:24.000Z</time>
      </trkpt>
      <trkpt lat="45.89107" lon="4.46824">
        <ele>423.60000610352</ele>
        <time>2020-03-14T15:50:25.000Z</time>
      </trkpt>
      <trkpt lat="45.89106" lon="4.46825">
        <ele>423.79998779297</ele>
        <time>2020-03-14T15:50:26.000Z</time>
      </trkpt>
      <trkpt lat="45.89105" lon="4.46826">
        <ele>424</ele>
        <time>2020-03-14T15:50:27.000Z</time>
      </trkpt>
      <trkpt lat="45.89104" lon="4.46826">
        <ele>424.20001220703</ele>
        <time>2020-03-14T15:50:28.000Z</time>
      </trkpt>
      <trkpt lat="45.89102" lon="4.46827">
        <ele>424.39999389648</ele>
        <time>2020-03-14T15:50:29.000Z</time>
      </trkpt>
      <trkpt lat="45.89101" lon="4.46828">
        <ele>424.39999389648</ele>
        <time>2020-03-14T15:50:30.000Z</time>
      </trkpt>
      <trkpt lat="45.89101" lon="4.46829">
        <ele>424.60000610352</ele>
        <time>2020-03-14T15:50:31.000Z</time>
      </trkpt>
      <trkpt lat="45.891" lon="4.4683">
        <ele>424.79998779297</ele>
        <time>2020-03-14T15:50:32.000Z</time>
      </trkpt>
      <trkpt lat="45.89099" lon="4.4683">
        <ele>424.79998779297</ele>
        <time>2020-03-14T15:50:33.000Z</time>
      </trkpt>
      <trkpt lat="45.89098" lon="4.4683">
        <ele>425</ele>
        <time>2020-03-14T15:50:34.000Z</time>
      </trkpt>
      <trkpt lat="45.89097" lon="4.46831">
        <ele>425</ele>
        <time>2020-03-14T15:50:35.000Z</time>
      </trkpt>
      <trkpt lat="45.89097" lon="4.46832">
        <ele>425.20001220703</ele>
        <time>2020-03-14T15:50:36.000Z</time>
      </trkpt>
      <trkpt lat="45.89096" lon="4.46833">
        <ele>425.20001220703</ele>
        <time>2020-03-14T15:50:37.000Z</time>
      </trkpt>
      <trkpt lat="45.89095" lon="4.46833">
        <ele>425.39999389648</ele>
        <time>2020-03-14T15:50:38.000Z</time>
      </trkpt>
      <trkpt lat="45.89094" lon="4.46834">
        <ele>425.60000610352</ele>
        <time>2020-03-14T15:50:39.000Z</time>
      </trkpt>
      <trkpt lat="45.89093" lon="4.46834">
        <ele>425.79998779297</ele>
        <time>2020-03-14T15:50:40.000Z</time>
      </trkpt>
      <trkpt lat="45.89092" lon="4.46834">
        <ele>425.79998779297</ele>
        <time>2020-03-14T15:50:41.000Z</time>
      </trkpt>
      <trkpt lat="45.89091" lon="4.46835">
        <ele>425.79998779297</ele>
        <time>2020-03-14T15:50:42.000Z</time>
      </trkpt>
      <trkpt lat="45.8909" lon="4.46835">
        <ele>426</ele>
        <time>2020-03-14T15:50:43.000Z</time>
      </trkpt>
      <trkpt lat="45.89089" lon="4.46836">
        <ele>426</ele>
        <time>2020-03-14T15:50:44.000Z</time>
      </trkpt>
      <trkpt lat="45.89088" lon="4.46837">
        <ele>426</ele>
        <time>2020-03-14T15:50:45.000Z</time>
      </trkpt>
      <trkpt lat="45.89087" lon="4.46839">
        <ele>426</ele>
        <time>2020-03-14T15:50:46.000Z</time>
      </trkpt>
      <trkpt lat="45.89085" lon="4.4684">
        <ele>426</ele>
        <time>2020-03-14T15:50:47.000Z</time>
      </trkpt>
      <trkpt lat="45.89085" lon="4.46841">
        <ele>426.20001220703</ele>
        <time>2020-03-14T15:50:48.000Z</time>
      </trkpt>
      <trkpt lat="45.89085" lon="4.46842">
        <ele>426.39999389648</ele>
        <time>2020-03-14T15:50:49.000Z</time>
      </trkpt>
      <trkpt lat="45.89085" lon="4.46844">
        <ele>426.39999389648</ele>
        <time>2020-03-14T15:50:50.000Z</time>
      </trkpt>
      <trkpt lat="45.89085" lon="4.46844">
        <ele>426.60000610352</ele>
        <time>2020-03-14T15:50:51.000Z</time>
      </trkpt>
      <trkpt lat="45.89084" lon="4.46845">
        <ele>426.60000610352</ele>
        <time>2020-03-14T15:50:52.000Z</time>
      </trkpt>
      <trkpt lat="45.89083" lon="4.46846">
        <ele>426.60000610352</ele>
        <time>2020-03-14T15:50:53.000Z</time>
      </trkpt>
      <trkpt lat="45.89082" lon="4.46847">
        <ele>426.79998779297</ele>
        <time>2020-03-14T15:50:54.000Z</time>
      </trkpt>
      <trkpt lat="45.89081" lon="4.46848">
        <ele>426.79998779297</ele>
        <time>2020-03-14T15:50:55.000Z</time>
      </trkpt>
      <trkpt lat="45.8908" lon="4.46849">
        <ele>427.20001220703</ele>
        <time>2020-03-14T15:50:56.000Z</time>
      </trkpt>
      <trkpt lat="45.8908" lon="4.46849">
        <ele>427.39999389648</ele>
        <time>2020-03-14T15:50:57.000Z</time>
      </trkpt>
      <trkpt lat="45.89079" lon="4.4685">
        <ele>427.60000610352</ele>
        <time>2020-03-14T15:50:58.000Z</time>
      </trkpt>
      <trkpt lat="45.89078" lon="4.46851">
        <ele>427.79998779297</ele>
        <time>2020-03-14T15:50:59.000Z</time>
      </trkpt>
      <trkpt lat="45.89077" lon="4.46851">
        <ele>427.79998779297</ele>
        <time>2020-03-14T15:51:00.000Z</time>
      </trkpt>
      <trkpt lat="45.89076" lon="4.46852">
        <ele>427.79998779297</ele>
        <time>2020-03-14T15:51:01.000Z</time>
      </trkpt>
      <trkpt lat="45.89075" lon="4.46852">
        <ele>428</ele>
        <time>2020-03-14T15:51:02.000Z</time>
      </trkpt>
      <trkpt lat="45.89075" lon="4.46853">
        <ele>428</ele>
        <time>2020-03-14T15:51:03.000Z</time>
      </trkpt>
      <trkpt lat="45.89074" lon="4.46855">
        <ele>428.20001220703</ele>
        <time>2020-03-14T15:51:04.000Z</time>
      </trkpt>
      <trkpt lat="45.89073" lon="4.46856">
        <ele>428.20001220703</ele>
        <time>2020-03-14T15:51:05.000Z</time>
      </trkpt>
      <trkpt lat="45.89072" lon="4.46856">
        <ele>428.39999389648</ele>
        <time>2020-03-14T15:51:06.000Z</time>
      </trkpt>
      <trkpt lat="45.89071" lon="4.46857">
        <ele>428.60000610352</ele>
        <time>2020-03-14T15:51:07.000Z</time>
      </trkpt>
      <trkpt lat="45.8907" lon="4.46857">
        <ele>428.79998779297</ele>
        <time>2020-03-14T15:51:08.000Z</time>
      </trkpt>
      <trkpt lat="45.89069" lon="4.46858">
        <ele>429</ele>
        <time>2020-03-14T15:51:09.000Z</time>
      </trkpt>
      <trkpt lat="45.89068" lon="4.46859">
        <ele>429</ele>
        <time>2020-03-14T15:51:10.000Z</time>
      </trkpt>
      <trkpt lat="45.89068" lon="4.46859">
        <ele>429.20001220703</ele>
        <time>2020-03-14T15:51:11.000Z</time>
      </trkpt>
      <trkpt lat="45.89067" lon="4.4686">
        <ele>429.20001220703</ele>
        <time>2020-03-14T15:51:12.000Z</time>
      </trkpt>
      <trkpt lat="45.89065" lon="4.46861">
        <ele>429.39999389648</ele>
        <time>2020-03-14T15:51:13.000Z</time>
      </trkpt>
      <trkpt lat="45.89065" lon="4.46861">
        <ele>429.39999389648</ele>
        <time>2020-03-14T15:51:14.000Z</time>
      </trkpt>
      <trkpt lat="45.89064" lon="4.46862">
        <ele>429.60000610352</ele>
        <time>2020-03-14T15:51:15.000Z</time>
      </trkpt>
      <trkpt lat="45.89062" lon="4.46863">
        <ele>429.79998779297</ele>
        <time>2020-03-14T15:51:16.000Z</time>
      </trkpt>
      <trkpt lat="45.89061" lon="4.46863">
        <ele>430</ele>
        <time>2020-03-14T15:51:17.000Z</time>
      </trkpt>
      <trkpt lat="45.8906" lon="4.46863">
        <ele>430</ele>
        <time>2020-03-14T15:51:18.000Z</time>
      </trkpt>
      <trkpt lat="45.89059" lon="4.46864">
        <ele>430.20001220703</ele>
        <time>2020-03-14T15:51:19.000Z</time>
      </trkpt>
      <trkpt lat="45.89058" lon="4.46865">
        <ele>430.20001220703</ele>
        <time>2020-03-14T15:51:20.000Z</time>
      </trkpt>
      <trkpt lat="45.89058" lon="4.46866">
        <ele>430.39999389648</ele>
        <time>2020-03-14T15:51:21.000Z</time>
      </trkpt>
      <trkpt lat="45.89056" lon="4.46867">
        <ele>430.60000610352</ele>
        <time>2020-03-14T15:51:22.000Z</time>
      </trkpt>
      <trkpt lat="45.89055" lon="4.46868">
        <ele>430.79998779297</ele>
        <time>2020-03-14T15:51:23.000Z</time>
      </trkpt>
      <trkpt lat="45.89054" lon="4.46868">
        <ele>431</ele>
        <time>2020-03-14T15:51:24.000Z</time>
      </trkpt>
      <trkpt lat="45.89053" lon="4.46869">
        <ele>431</ele>
        <time>2020-03-14T15:51:25.000Z</time>
      </trkpt>
      <trkpt lat="45.89052" lon="4.4687">
        <ele>431</ele>
        <time>2020-03-14T15:51:26.000Z</time>
      </trkpt>
      <trkpt lat="45.89051" lon="4.4687">
        <ele>431</ele>
        <time>2020-03-14T15:51:27.000Z</time>
      </trkpt>
      <trkpt lat="45.8905" lon="4.46871">
        <ele>431.20001220703</ele>
        <time>2020-03-14T15:51:28.000Z</time>
      </trkpt>
      <trkpt lat="45.89049" lon="4.46871">
        <ele>431.60000610352</ele>
        <time>2020-03-14T15:51:29.000Z</time>
      </trkpt>
      <trkpt lat="45.89048" lon="4.46872">
        <ele>431.79998779297</ele>
        <time>2020-03-14T15:51:30.000Z</time>
      </trkpt>
      <trkpt lat="45.89047" lon="4.46873">
        <ele>432</ele>
        <time>2020-03-14T15:51:31.000Z</time>
      </trkpt>
      <trkpt lat="45.89045" lon="4.46873">
        <ele>432.20001220703</ele>
        <time>2020-03-14T15:51:32.000Z</time>
      </trkpt>
      <trkpt lat="45.89044" lon="4.46874">
        <ele>432.39999389648</ele>
        <time>2020-03-14T15:51:33.000Z</time>
      </trkpt>
      <trkpt lat="45.89043" lon="4.46874">
        <ele>432.60000610352</ele>
        <time>2020-03-14T15:51:34.000Z</time>
      </trkpt>
      <trkpt lat="45.89042" lon="4.46874">
        <ele>432.60000610352</ele>
        <time>2020-03-14T15:51:35.000Z</time>
      </trkpt>
      <trkpt lat="45.89041" lon="4.46874">
        <ele>432.60000610352</ele>
        <time>2020-03-14T15:51:36.000Z</time>
      </trkpt>
      <trkpt lat="45.8904" lon="4.46874">
        <ele>432.60000610352</ele>
        <time>2020-03-14T15:51:37.000Z</time>
      </trkpt>
      <trkpt lat="45.89039" lon="4.46875">
        <ele>432.79998779297</ele>
        <time>2020-03-14T15:51:38.000Z</time>
      </trkpt>
      <trkpt lat="45.89038" lon="4.46875">
        <ele>432.79998779297</ele>
        <time>2020-03-14T15:51:39.000Z</time>
      </trkpt>
      <trkpt lat="45.89038" lon="4.46876">
        <ele>433</ele>
        <time>2020-03-14T15:51:40.000Z</time>
      </trkpt>
      <trkpt lat="45.89038" lon="4.46876">
        <ele>433</ele>
        <time>2020-03-14T15:51:41.000Z</time>
      </trkpt>
      <trkpt lat="45.89037" lon="4.46877">
        <ele>433.20001220703</ele>
        <time>2020-03-14T15:51:42.000Z</time>
      </trkpt>
      <trkpt lat="45.89036" lon="4.46877">
        <ele>433.20001220703</ele>
        <time>2020-03-14T15:51:43.000Z</time>
      </trkpt>
      <trkpt lat="45.89035" lon="4.46878">
        <ele>433.20001220703</ele>
        <time>2020-03-14T15:51:44.000Z</time>
      </trkpt>
      <trkpt lat="45.89035" lon="4.46879">
        <ele>433.39999389648</ele>
        <time>2020-03-14T15:51:45.000Z</time>
      </trkpt>
      <trkpt lat="45.89034" lon="4.46879">
        <ele>433.39999389648</ele>
        <time>2020-03-14T15:51:46.000Z</time>
      </trkpt>
      <trkpt lat="45.89033" lon="4.4688">
        <ele>433.60000610352</ele>
        <time>2020-03-14T15:51:47.000Z</time>
      </trkpt>
      <trkpt lat="45.89032" lon="4.46881">
        <ele>433.60000610352</ele>
        <time>2020-03-14T15:51:48.000Z</time>
      </trkpt>
      <trkpt lat="45.89031" lon="4.46881">
        <ele>433.79998779297</ele>
        <time>2020-03-14T15:51:49.000Z</time>
      </trkpt>
      <trkpt lat="45.8903" lon="4.46882">
        <ele>433.79998779297</ele>
        <time>2020-03-14T15:51:50.000Z</time>
      </trkpt>
      <trkpt lat="45.89029" lon="4.46883">
        <ele>434</ele>
        <time>2020-03-14T15:51:51.000Z</time>
      </trkpt>
      <trkpt lat="45.89028" lon="4.46883">
        <ele>434</ele>
        <time>2020-03-14T15:51:52.000Z</time>
      </trkpt>
      <trkpt lat="45.89027" lon="4.46883">
        <ele>434.20001220703</ele>
        <time>2020-03-14T15:51:53.000Z</time>
      </trkpt>
      <trkpt lat="45.89026" lon="4.46884">
        <ele>434.39999389648</ele>
        <time>2020-03-14T15:51:54.000Z</time>
      </trkpt>
      <trkpt lat="45.89025" lon="4.46884">
        <ele>434.60000610352</ele>
        <time>2020-03-14T15:51:55.000Z</time>
      </trkpt>
      <trkpt lat="45.89024" lon="4.46884">
        <ele>434.79998779297</ele>
        <time>2020-03-14T15:51:56.000Z</time>
      </trkpt>
      <trkpt lat="45.89023" lon="4.46885">
        <ele>434.79998779297</ele>
        <time>2020-03-14T15:51:57.000Z</time>
      </trkpt>
      <trkpt lat="45.89022" lon="4.46886">
        <ele>435</ele>
        <time>2020-03-14T15:51:58.000Z</time>
      </trkpt>
      <trkpt lat="45.89022" lon="4.46886">
        <ele>435</ele>
        <time>2020-03-14T15:51:59.000Z</time>
      </trkpt>
      <trkpt lat="45.89021" lon="4.46886">
        <ele>435</ele>
        <time>2020-03-14T15:52:00.000Z</time>
      </trkpt>
      <trkpt lat="45.8902" lon="4.46887">
        <ele>435.20001220703</ele>
        <time>2020-03-14T15:52:01.000Z</time>
      </trkpt>
      <trkpt lat="45.8902" lon="4.46887">
        <ele>435.39999389648</ele>
        <time>2020-03-14T15:52:02.000Z</time>
      </trkpt>
      <trkpt lat="45.89019" lon="4.46888">
        <ele>435.60000610352</ele>
        <time>2020-03-14T15:52:03.000Z</time>
      </trkpt>
      <trkpt lat="45.89018" lon="4.46888">
        <ele>435.79998779297</ele>
        <time>2020-03-14T15:52:04.000Z</time>
      </trkpt>
      <trkpt lat="45.89018" lon="4.46889">
        <ele>436.20001220703</ele>
        <time>2020-03-14T15:52:05.000Z</time>
      </trkpt>
      <trkpt lat="45.89017" lon="4.4689">
        <ele>436.39999389648</ele>
        <time>2020-03-14T15:52:06.000Z</time>
      </trkpt>
      <trkpt lat="45.89016" lon="4.46891">
        <ele>436.60000610352</ele>
        <time>2020-03-14T15:52:07.000Z</time>
      </trkpt>
      <trkpt lat="45.89015" lon="4.46892">
        <ele>436.79998779297</ele>
        <time>2020-03-14T15:52:08.000Z</time>
      </trkpt>
      <trkpt lat="45.89014" lon="4.46892">
        <ele>436.79998779297</ele>
        <time>2020-03-14T15:52:09.000Z</time>
      </trkpt>
      <trkpt lat="45.89013" lon="4.46893">
        <ele>437</ele>
        <time>2020-03-14T15:52:10.000Z</time>
      </trkpt>
      <trkpt lat="45.89011" lon="4.46895">
        <ele>437</ele>
        <time>2020-03-14T15:52:11.000Z</time>
      </trkpt>
      <trkpt lat="45.8901" lon="4.46895">
        <ele>437</ele>
        <time>2020-03-14T15:52:12.000Z</time>
      </trkpt>
      <trkpt lat="45.8901" lon="4.46896">
        <ele>437.20001220703</ele>
        <time>2020-03-14T15:52:13.000Z</time>
      </trkpt>
      <trkpt lat="45.89009" lon="4.46897">
        <ele>437.20001220703</ele>
        <time>2020-03-14T15:52:14.000Z</time>
      </trkpt>
      <trkpt lat="45.89007" lon="4.46897">
        <ele>437.39999389648</ele>
        <time>2020-03-14T15:52:15.000Z</time>
      </trkpt>
      <trkpt lat="45.89006" lon="4.46898">
        <ele>437.60000610352</ele>
        <time>2020-03-14T15:52:16.000Z</time>
      </trkpt>
      <trkpt lat="45.89005" lon="4.46899">
        <ele>437.60000610352</ele>
        <time>2020-03-14T15:52:17.000Z</time>
      </trkpt>
      <trkpt lat="45.89004" lon="4.46899">
        <ele>437.79998779297</ele>
        <time>2020-03-14T15:52:18.000Z</time>
      </trkpt>
      <trkpt lat="45.89002" lon="4.469">
        <ele>437.79998779297</ele>
        <time>2020-03-14T15:52:19.000Z</time>
      </trkpt>
      <trkpt lat="45.89001" lon="4.46901">
        <ele>438</ele>
        <time>2020-03-14T15:52:20.000Z</time>
      </trkpt>
      <trkpt lat="45.89" lon="4.46903">
        <ele>438</ele>
        <time>2020-03-14T15:52:21.000Z</time>
      </trkpt>
      <trkpt lat="45.88998" lon="4.46904">
        <ele>438</ele>
        <time>2020-03-14T15:52:22.000Z</time>
      </trkpt>
      <trkpt lat="45.88997" lon="4.46905">
        <ele>438.20001220703</ele>
        <time>2020-03-14T15:52:23.000Z</time>
      </trkpt>
      <trkpt lat="45.88995" lon="4.46906">
        <ele>438.20001220703</ele>
        <time>2020-03-14T15:52:24.000Z</time>
      </trkpt>
      <trkpt lat="45.88994" lon="4.46906">
        <ele>438.20001220703</ele>
        <time>2020-03-14T15:52:25.000Z</time>
      </trkpt>
      <trkpt lat="45.88992" lon="4.46907">
        <ele>438.20001220703</ele>
        <time>2020-03-14T15:52:26.000Z</time>
      </trkpt>
      <trkpt lat="45.88991" lon="4.46907">
        <ele>438.39999389648</ele>
        <time>2020-03-14T15:52:27.000Z</time>
      </trkpt>
      <trkpt lat="45.8899" lon="4.46907">
        <ele>438.39999389648</ele>
        <time>2020-03-14T15:52:28.000Z</time>
      </trkpt>
      <trkpt lat="45.88989" lon="4.46908">
        <ele>438.60000610352</ele>
        <time>2020-03-14T15:52:29.000Z</time>
      </trkpt>
      <trkpt lat="45.88988" lon="4.46908">
        <ele>438.79998779297</ele>
        <time>2020-03-14T15:52:30.000Z</time>
      </trkpt>
      <trkpt lat="45.88986" lon="4.46909">
        <ele>439</ele>
        <time>2020-03-14T15:52:31.000Z</time>
      </trkpt>
      <trkpt lat="45.88985" lon="4.4691">
        <ele>439</ele>
        <time>2020-03-14T15:52:32.000Z</time>
      </trkpt>
      <trkpt lat="45.88984" lon="4.46911">
        <ele>439.20001220703</ele>
        <time>2020-03-14T15:52:33.000Z</time>
      </trkpt>
      <trkpt lat="45.88983" lon="4.46911">
        <ele>439.20001220703</ele>
        <time>2020-03-14T15:52:34.000Z</time>
      </trkpt>
      <trkpt lat="45.88982" lon="4.46912">
        <ele>439.39999389648</ele>
        <time>2020-03-14T15:52:35.000Z</time>
      </trkpt>
      <trkpt lat="45.88981" lon="4.46913">
        <ele>439.39999389648</ele>
        <time>2020-03-14T15:52:36.000Z</time>
      </trkpt>
      <trkpt lat="45.8898" lon="4.46915">
        <ele>439.60000610352</ele>
        <time>2020-03-14T15:52:37.000Z</time>
      </trkpt>
      <trkpt lat="45.88978" lon="4.46917">
        <ele>439.79998779297</ele>
        <time>2020-03-14T15:52:38.000Z</time>
      </trkpt>
      <trkpt lat="45.88977" lon="4.46918">
        <ele>440</ele>
        <time>2020-03-14T15:52:39.000Z</time>
      </trkpt>
      <trkpt lat="45.88976" lon="4.46919">
        <ele>440</ele>
        <time>2020-03-14T15:52:40.000Z</time>
      </trkpt>
      <trkpt lat="45.88975" lon="4.4692">
        <ele>440</ele>
        <time>2020-03-14T15:52:41.000Z</time>
      </trkpt>
      <trkpt lat="45.88973" lon="4.4692">
        <ele>440</ele>
        <time>2020-03-14T15:52:42.000Z</time>
      </trkpt>
      <trkpt lat="45.88972" lon="4.46921">
        <ele>440.20001220703</ele>
        <time>2020-03-14T15:52:43.000Z</time>
      </trkpt>
      <trkpt lat="45.88971" lon="4.46922">
        <ele>440.20001220703</ele>
        <time>2020-03-14T15:52:44.000Z</time>
      </trkpt>
      <trkpt lat="45.8897" lon="4.46923">
        <ele>440.20001220703</ele>
        <time>2020-03-14T15:52:45.000Z</time>
      </trkpt>
      <trkpt lat="45.88968" lon="4.46923">
        <ele>440.20001220703</ele>
        <time>2020-03-14T15:52:46.000Z</time>
      </trkpt>
      <trkpt lat="45.88967" lon="4.46923">
        <ele>440.20001220703</ele>
        <time>2020-03-14T15:52:47.000Z</time>
      </trkpt>
      <trkpt lat="45.88966" lon="4.46925">
        <ele>440.39999389648</ele>
        <time>2020-03-14T15:52:48.000Z</time>
      </trkpt>
      <trkpt lat="45.88965" lon="4.46926">
        <ele>440.60000610352</ele>
        <time>2020-03-14T15:52:49.000Z</time>
      </trkpt>
      <trkpt lat="45.88963" lon="4.46927">
        <ele>440.79998779297</ele>
        <time>2020-03-14T15:52:50.000Z</time>
      </trkpt>
      <trkpt lat="45.88962" lon="4.46928">
        <ele>440.79998779297</ele>
        <time>2020-03-14T15:52:51.000Z</time>
      </trkpt>
      <trkpt lat="45.88961" lon="4.46929">
        <ele>441</ele>
        <time>2020-03-14T15:52:52.000Z</time>
      </trkpt>
      <trkpt lat="45.8896" lon="4.4693">
        <ele>441</ele>
        <time>2020-03-14T15:52:53.000Z</time>
      </trkpt>
      <trkpt lat="45.88959" lon="4.46931">
        <ele>441.20001220703</ele>
        <time>2020-03-14T15:52:54.000Z</time>
      </trkpt>
      <trkpt lat="45.88958" lon="4.46932">
        <ele>441.39999389648</ele>
        <time>2020-03-14T15:52:55.000Z</time>
      </trkpt>
      <trkpt lat="45.88957" lon="4.46933">
        <ele>441.60000610352</ele>
        <time>2020-03-14T15:52:56.000Z</time>
      </trkpt>
      <trkpt lat="45.88956" lon="4.46935">
        <ele>441.60000610352</ele>
        <time>2020-03-14T15:52:57.000Z</time>
      </trkpt>
      <trkpt lat="45.88955" lon="4.46937">
        <ele>441.79998779297</ele>
        <time>2020-03-14T15:52:58.000Z</time>
      </trkpt>
      <trkpt lat="45.88954" lon="4.46938">
        <ele>441.79998779297</ele>
        <time>2020-03-14T15:52:59.000Z</time>
      </trkpt>
      <trkpt lat="45.88952" lon="4.46939">
        <ele>442</ele>
        <time>2020-03-14T15:53:00.000Z</time>
      </trkpt>
      <trkpt lat="45.88951" lon="4.4694">
        <ele>442.20001220703</ele>
        <time>2020-03-14T15:53:01.000Z</time>
      </trkpt>
      <trkpt lat="45.8895" lon="4.46941">
        <ele>442.20001220703</ele>
        <time>2020-03-14T15:53:02.000Z</time>
      </trkpt>
      <trkpt lat="45.88949" lon="4.46943">
        <ele>442.39999389648</ele>
        <time>2020-03-14T15:53:03.000Z</time>
      </trkpt>
      <trkpt lat="45.88948" lon="4.46945">
        <ele>442.39999389648</ele>
        <time>2020-03-14T15:53:04.000Z</time>
      </trkpt>
      <trkpt lat="45.88947" lon="4.46946">
        <ele>442.60000610352</ele>
        <time>2020-03-14T15:53:05.000Z</time>
      </trkpt>
      <trkpt lat="45.88945" lon="4.46949">
        <ele>442.60000610352</ele>
        <time>2020-03-14T15:53:06.000Z</time>
      </trkpt>
      <trkpt lat="45.88944" lon="4.4695">
        <ele>442.60000610352</ele>
        <time>2020-03-14T15:53:07.000Z</time>
      </trkpt>
      <trkpt lat="45.88942" lon="4.46952">
        <ele>442.60000610352</ele>
        <time>2020-03-14T15:53:08.000Z</time>
      </trkpt>
      <trkpt lat="45.88941" lon="4.46953">
        <ele>442.79998779297</ele>
        <time>2020-03-14T15:53:09.000Z</time>
      </trkpt>
      <trkpt lat="45.88941" lon="4.46954">
        <ele>442.79998779297</ele>
        <time>2020-03-14T15:53:10.000Z</time>
      </trkpt>
      <trkpt lat="45.88939" lon="4.46955">
        <ele>443</ele>
        <time>2020-03-14T15:53:11.000Z</time>
      </trkpt>
      <trkpt lat="45.88939" lon="4.46957">
        <ele>443.20001220703</ele>
        <time>2020-03-14T15:53:12.000Z</time>
      </trkpt>
      <trkpt lat="45.88937" lon="4.46958">
        <ele>443.20001220703</ele>
        <time>2020-03-14T15:53:13.000Z</time>
      </trkpt>
      <trkpt lat="45.88936" lon="4.4696">
        <ele>443.39999389648</ele>
        <time>2020-03-14T15:53:14.000Z</time>
      </trkpt>
      <trkpt lat="45.88935" lon="4.46961">
        <ele>443.60000610352</ele>
        <time>2020-03-14T15:53:15.000Z</time>
      </trkpt>
      <trkpt lat="45.88935" lon="4.46962">
        <ele>443.79998779297</ele>
        <time>2020-03-14T15:53:16.000Z</time>
      </trkpt>
      <trkpt lat="45.88934" lon="4.46965">
        <ele>444</ele>
        <time>2020-03-14T15:53:17.000Z</time>
      </trkpt>
      <trkpt lat="45.88932" lon="4.46968">
        <ele>444</ele>
        <time>2020-03-14T15:53:18.000Z</time>
      </trkpt>
      <trkpt lat="45.88931" lon="4.4697">
        <ele>444</ele>
        <time>2020-03-14T15:53:19.000Z</time>
      </trkpt>
      <trkpt lat="45.8893" lon="4.46971">
        <ele>444</ele>
        <time>2020-03-14T15:53:20.000Z</time>
      </trkpt>
      <trkpt lat="45.8893" lon="4.46973">
        <ele>444.20001220703</ele>
        <time>2020-03-14T15:53:21.000Z</time>
      </trkpt>
      <trkpt lat="45.8893" lon="4.46976">
        <ele>444.20001220703</ele>
        <time>2020-03-14T15:53:22.000Z</time>
      </trkpt>
      <trkpt lat="45.88931" lon="4.46979">
        <ele>444.20001220703</ele>
        <time>2020-03-14T15:53:23.000Z</time>
      </trkpt>
      <trkpt lat="45.88931" lon="4.46979">
        <ele>444.20001220703</ele>
        <time>2020-03-14T15:53:24.000Z</time>
      </trkpt>
      <trkpt lat="45.88932" lon="4.46979">
        <ele>444.39999389648</ele>
        <time>2020-03-14T15:53:25.000Z</time>
      </trkpt>
      <trkpt lat="45.88933" lon="4.46978">
        <ele>444.60000610352</ele>
        <time>2020-03-14T15:53:26.000Z</time>
      </trkpt>
      <trkpt lat="45.88934" lon="4.46977">
        <ele>444.79998779297</ele>
        <time>2020-03-14T15:53:27.000Z</time>
      </trkpt>
      <trkpt lat="45.88935" lon="4.46976">
        <ele>445</ele>
        <time>2020-03-14T15:53:28.000Z</time>
      </trkpt>
      <trkpt lat="45.88936" lon="4.46974">
        <ele>445.39999389648</ele>
        <time>2020-03-14T15:53:29.000Z</time>
      </trkpt>
      <trkpt lat="45.88937" lon="4.46973">
        <ele>445.60000610352</ele>
        <time>2020-03-14T15:53:30.000Z</time>
      </trkpt>
      <trkpt lat="45.88939" lon="4.46972">
        <ele>445.79998779297</ele>
        <time>2020-03-14T15:53:31.000Z</time>
      </trkpt>
      <trkpt lat="45.8894" lon="4.46971">
        <ele>446</ele>
        <time>2020-03-14T15:53:32.000Z</time>
      </trkpt>
      <trkpt lat="45.88941" lon="4.4697">
        <ele>446.20001220703</ele>
        <time>2020-03-14T15:53:33.000Z</time>
      </trkpt>
      <trkpt lat="45.88943" lon="4.46969">
        <ele>446.20001220703</ele>
        <time>2020-03-14T15:53:34.000Z</time>
      </trkpt>
      <trkpt lat="45.88945" lon="4.46968">
        <ele>446.39999389648</ele>
        <time>2020-03-14T15:53:35.000Z</time>
      </trkpt>
      <trkpt lat="45.88946" lon="4.46967">
        <ele>446.39999389648</ele>
        <time>2020-03-14T15:53:36.000Z</time>
      </trkpt>
      <trkpt lat="45.88948" lon="4.46966">
        <ele>446.60000610352</ele>
        <time>2020-03-14T15:53:37.000Z</time>
      </trkpt>
      <trkpt lat="45.8895" lon="4.46966">
        <ele>446.79998779297</ele>
        <time>2020-03-14T15:53:38.000Z</time>
      </trkpt>
      <trkpt lat="45.88951" lon="4.46965">
        <ele>446.79998779297</ele>
        <time>2020-03-14T15:53:39.000Z</time>
      </trkpt>
      <trkpt lat="45.88953" lon="4.46965">
        <ele>447</ele>
        <time>2020-03-14T15:53:40.000Z</time>
      </trkpt>
      <trkpt lat="45.88955" lon="4.46965">
        <ele>447</ele>
        <time>2020-03-14T15:53:41.000Z</time>
      </trkpt>
      <trkpt lat="45.88957" lon="4.46964">
        <ele>447</ele>
        <time>2020-03-14T15:53:42.000Z</time>
      </trkpt>
      <trkpt lat="45.88958" lon="4.46965">
        <ele>447.20001220703</ele>
        <time>2020-03-14T15:53:43.000Z</time>
      </trkpt>
      <trkpt lat="45.8896" lon="4.46965">
        <ele>447.20001220703</ele>
        <time>2020-03-14T15:53:44.000Z</time>
      </trkpt>
      <trkpt lat="45.88961" lon="4.46966">
        <ele>447.20001220703</ele>
        <time>2020-03-14T15:53:45.000Z</time>
      </trkpt>
      <trkpt lat="45.88962" lon="4.46967">
        <ele>447.39999389648</ele>
        <time>2020-03-14T15:53:46.000Z</time>
      </trkpt>
      <trkpt lat="45.88963" lon="4.46968">
        <ele>447.39999389648</ele>
        <time>2020-03-14T15:53:47.000Z</time>
      </trkpt>
      <trkpt lat="45.88964" lon="4.4697">
        <ele>447.60000610352</ele>
        <time>2020-03-14T15:53:48.000Z</time>
      </trkpt>
      <trkpt lat="45.88965" lon="4.46971">
        <ele>447.60000610352</ele>
        <time>2020-03-14T15:53:49.000Z</time>
      </trkpt>
      <trkpt lat="45.88966" lon="4.46972">
        <ele>447.79998779297</ele>
        <time>2020-03-14T15:53:50.000Z</time>
      </trkpt>
      <trkpt lat="45.88967" lon="4.46974">
        <ele>448.20001220703</ele>
        <time>2020-03-14T15:53:51.000Z</time>
      </trkpt>
      <trkpt lat="45.88968" lon="4.46975">
        <ele>448.39999389648</ele>
        <time>2020-03-14T15:53:52.000Z</time>
      </trkpt>
      <trkpt lat="45.88969" lon="4.46977">
        <ele>448.79998779297</ele>
        <time>2020-03-14T15:53:53.000Z</time>
      </trkpt>
      <trkpt lat="45.88969" lon="4.46978">
        <ele>449</ele>
        <time>2020-03-14T15:53:54.000Z</time>
      </trkpt>
      <trkpt lat="45.8897" lon="4.46979">
        <ele>449.20001220703</ele>
        <time>2020-03-14T15:53:55.000Z</time>
      </trkpt>
      <trkpt lat="45.88971" lon="4.4698">
        <ele>449.39999389648</ele>
        <time>2020-03-14T15:53:56.000Z</time>
      </trkpt>
      <trkpt lat="45.88972" lon="4.46981">
        <ele>449.79998779297</ele>
        <time>2020-03-14T15:53:57.000Z</time>
      </trkpt>
      <trkpt lat="45.88973" lon="4.46982">
        <ele>450.20001220703</ele>
        <time>2020-03-14T15:53:58.000Z</time>
      </trkpt>
      <trkpt lat="45.88974" lon="4.46983">
        <ele>450.79998779297</ele>
        <time>2020-03-14T15:53:59.000Z</time>
      </trkpt>
      <trkpt lat="45.88974" lon="4.46985">
        <ele>451.20001220703</ele>
        <time>2020-03-14T15:54:00.000Z</time>
      </trkpt>
      <trkpt lat="45.88975" lon="4.46986">
        <ele>451.39999389648</ele>
        <time>2020-03-14T15:54:01.000Z</time>
      </trkpt>
      <trkpt lat="45.88976" lon="4.46987">
        <ele>451.79998779297</ele>
        <time>2020-03-14T15:54:02.000Z</time>
      </trkpt>
      <trkpt lat="45.88976" lon="4.46988">
        <ele>452.20001220703</ele>
        <time>2020-03-14T15:54:03.000Z</time>
      </trkpt>
      <trkpt lat="45.88977" lon="4.46989">
        <ele>452.39999389648</ele>
        <time>2020-03-14T15:54:04.000Z</time>
      </trkpt>
      <trkpt lat="45.88978" lon="4.46991">
        <ele>452.39999389648</ele>
        <time>2020-03-14T15:54:05.000Z</time>
      </trkpt>
      <trkpt lat="45.88979" lon="4.46992">
        <ele>452.79998779297</ele>
        <time>2020-03-14T15:54:06.000Z</time>
      </trkpt>
      <trkpt lat="45.8898" lon="4.46993">
        <ele>453</ele>
        <time>2020-03-14T15:54:07.000Z</time>
      </trkpt>
      <trkpt lat="45.8898" lon="4.46994">
        <ele>453.39999389648</ele>
        <time>2020-03-14T15:54:08.000Z</time>
      </trkpt>
      <trkpt lat="45.88981" lon="4.46995">
        <ele>453.60000610352</ele>
        <time>2020-03-14T15:54:09.000Z</time>
      </trkpt>
      <trkpt lat="45.88982" lon="4.46996">
        <ele>453.79998779297</ele>
        <time>2020-03-14T15:54:10.000Z</time>
      </trkpt>
      <trkpt lat="45.88982" lon="4.46997">
        <ele>454</ele>
        <time>2020-03-14T15:54:11.000Z</time>
      </trkpt>
      <trkpt lat="45.88983" lon="4.46998">
        <ele>454.20001220703</ele>
        <time>2020-03-14T15:54:12.000Z</time>
      </trkpt>
      <trkpt lat="45.88984" lon="4.46999">
        <ele>454.39999389648</ele>
        <time>2020-03-14T15:54:13.000Z</time>
      </trkpt>
      <trkpt lat="45.88985" lon="4.47">
        <ele>454.60000610352</ele>
        <time>2020-03-14T15:54:14.000Z</time>
      </trkpt>
      <trkpt lat="45.88985" lon="4.47001">
        <ele>455</ele>
        <time>2020-03-14T15:54:15.000Z</time>
      </trkpt>
      <trkpt lat="45.88986" lon="4.47002">
        <ele>455.39999389648</ele>
        <time>2020-03-14T15:54:16.000Z</time>
      </trkpt>
      <trkpt lat="45.88987" lon="4.47003">
        <ele>455.79998779297</ele>
        <time>2020-03-14T15:54:17.000Z</time>
      </trkpt>
      <trkpt lat="45.88987" lon="4.47004">
        <ele>456</ele>
        <time>2020-03-14T15:54:18.000Z</time>
      </trkpt>
      <trkpt lat="45.88988" lon="4.47005">
        <ele>456</ele>
        <time>2020-03-14T15:54:19.000Z</time>
      </trkpt>
      <trkpt lat="45.88989" lon="4.47006">
        <ele>456.39999389648</ele>
        <time>2020-03-14T15:54:20.000Z</time>
      </trkpt>
      <trkpt lat="45.88989" lon="4.47007">
        <ele>456.79998779297</ele>
        <time>2020-03-14T15:54:21.000Z</time>
      </trkpt>
      <trkpt lat="45.8899" lon="4.47008">
        <ele>457.20001220703</ele>
        <time>2020-03-14T15:54:22.000Z</time>
      </trkpt>
      <trkpt lat="45.88991" lon="4.47009">
        <ele>457.60000610352</ele>
        <time>2020-03-14T15:54:23.000Z</time>
      </trkpt>
      <trkpt lat="45.88991" lon="4.4701">
        <ele>458</ele>
        <time>2020-03-14T15:54:24.000Z</time>
      </trkpt>
      <trkpt lat="45.88992" lon="4.47011">
        <ele>458.60000610352</ele>
        <time>2020-03-14T15:54:25.000Z</time>
      </trkpt>
      <trkpt lat="45.88993" lon="4.47012">
        <ele>458.79998779297</ele>
        <time>2020-03-14T15:54:26.000Z</time>
      </trkpt>
      <trkpt lat="45.88993" lon="4.47012">
        <ele>459.20001220703</ele>
        <time>2020-03-14T15:54:27.000Z</time>
      </trkpt>
      <trkpt lat="45.88994" lon="4.47013">
        <ele>459.20001220703</ele>
        <time>2020-03-14T15:54:28.000Z</time>
      </trkpt>
      <trkpt lat="45.88995" lon="4.47014">
        <ele>459.39999389648</ele>
        <time>2020-03-14T15:54:29.000Z</time>
      </trkpt>
      <trkpt lat="45.88995" lon="4.47014">
        <ele>459.39999389648</ele>
        <time>2020-03-14T15:54:30.000Z</time>
      </trkpt>
      <trkpt lat="45.88996" lon="4.47015">
        <ele>459.60000610352</ele>
        <time>2020-03-14T15:54:31.000Z</time>
      </trkpt>
      <trkpt lat="45.88997" lon="4.47016">
        <ele>459.79998779297</ele>
        <time>2020-03-14T15:54:32.000Z</time>
      </trkpt>
      <trkpt lat="45.88998" lon="4.47017">
        <ele>460</ele>
        <time>2020-03-14T15:54:33.000Z</time>
      </trkpt>
      <trkpt lat="45.88998" lon="4.47019">
        <ele>460.39999389648</ele>
        <time>2020-03-14T15:54:34.000Z</time>
      </trkpt>
      <trkpt lat="45.88999" lon="4.4702">
        <ele>460.79998779297</ele>
        <time>2020-03-14T15:54:35.000Z</time>
      </trkpt>
      <trkpt lat="45.89" lon="4.4702">
        <ele>461</ele>
        <time>2020-03-14T15:54:36.000Z</time>
      </trkpt>
      <trkpt lat="45.89" lon="4.47021">
        <ele>461.20001220703</ele>
        <time>2020-03-14T15:54:37.000Z</time>
      </trkpt>
      <trkpt lat="45.89001" lon="4.47022">
        <ele>461.39999389648</ele>
        <time>2020-03-14T15:54:38.000Z</time>
      </trkpt>
      <trkpt lat="45.89002" lon="4.47023">
        <ele>461.60000610352</ele>
        <time>2020-03-14T15:54:39.000Z</time>
      </trkpt>
      <trkpt lat="45.89003" lon="4.47024">
        <ele>462</ele>
        <time>2020-03-14T15:54:40.000Z</time>
      </trkpt>
      <trkpt lat="45.89004" lon="4.47026">
        <ele>462.39999389648</ele>
        <time>2020-03-14T15:54:41.000Z</time>
      </trkpt>
      <trkpt lat="45.89004" lon="4.47027">
        <ele>462.79998779297</ele>
        <time>2020-03-14T15:54:42.000Z</time>
      </trkpt>
      <trkpt lat="45.89005" lon="4.47028">
        <ele>463.20001220703</ele>
        <time>2020-03-14T15:54:43.000Z</time>
      </trkpt>
      <trkpt lat="45.89006" lon="4.47029">
        <ele>463.39999389648</ele>
        <time>2020-03-14T15:54:44.000Z</time>
      </trkpt>
      <trkpt lat="45.89006" lon="4.4703">
        <ele>463.60000610352</ele>
        <time>2020-03-14T15:54:45.000Z</time>
      </trkpt>
      <trkpt lat="45.89007" lon="4.47031">
        <ele>463.79998779297</ele>
        <time>2020-03-14T15:54:46.000Z</time>
      </trkpt>
      <trkpt lat="45.89008" lon="4.47032">
        <ele>464</ele>
        <time>2020-03-14T15:54:47.000Z</time>
      </trkpt>
      <trkpt lat="45.89009" lon="4.47033">
        <ele>464.39999389648</ele>
        <time>2020-03-14T15:54:48.000Z</time>
      </trkpt>
      <trkpt lat="45.8901" lon="4.47034">
        <ele>464.60000610352</ele>
        <time>2020-03-14T15:54:49.000Z</time>
      </trkpt>
      <trkpt lat="45.8901" lon="4.47035">
        <ele>465</ele>
        <time>2020-03-14T15:54:50.000Z</time>
      </trkpt>
      <trkpt lat="45.89011" lon="4.47036">
        <ele>465.39999389648</ele>
        <time>2020-03-14T15:54:51.000Z</time>
      </trkpt>
      <trkpt lat="45.89012" lon="4.47037">
        <ele>465.79998779297</ele>
        <time>2020-03-14T15:54:52.000Z</time>
      </trkpt>
      <trkpt lat="45.89013" lon="4.47038">
        <ele>466</ele>
        <time>2020-03-14T15:54:53.000Z</time>
      </trkpt>
      <trkpt lat="45.89013" lon="4.47039">
        <ele>466.20001220703</ele>
        <time>2020-03-14T15:54:54.000Z</time>
      </trkpt>
      <trkpt lat="45.89014" lon="4.4704">
        <ele>466.20001220703</ele>
        <time>2020-03-14T15:54:55.000Z</time>
      </trkpt>
      <trkpt lat="45.89014" lon="4.47041">
        <ele>466.20001220703</ele>
        <time>2020-03-14T15:54:56.000Z</time>
      </trkpt>
      <trkpt lat="45.89015" lon="4.47042">
        <ele>466.39999389648</ele>
        <time>2020-03-14T15:54:57.000Z</time>
      </trkpt>
      <trkpt lat="45.89016" lon="4.47042">
        <ele>466.39999389648</ele>
        <time>2020-03-14T15:54:58.000Z</time>
      </trkpt>
      <trkpt lat="45.89017" lon="4.47043">
        <ele>466.39999389648</ele>
        <time>2020-03-14T15:54:59.000Z</time>
      </trkpt>
      <trkpt lat="45.89018" lon="4.47044">
        <ele>466.39999389648</ele>
        <time>2020-03-14T15:55:00.000Z</time>
      </trkpt>
      <trkpt lat="45.89018" lon="4.47045">
        <ele>466.60000610352</ele>
        <time>2020-03-14T15:55:01.000Z</time>
      </trkpt>
      <trkpt lat="45.89018" lon="4.47046">
        <ele>466.79998779297</ele>
        <time>2020-03-14T15:55:02.000Z</time>
      </trkpt>
      <trkpt lat="45.89019" lon="4.47047">
        <ele>467</ele>
        <time>2020-03-14T15:55:03.000Z</time>
      </trkpt>
      <trkpt lat="45.8902" lon="4.47048">
        <ele>467.39999389648</ele>
        <time>2020-03-14T15:55:04.000Z</time>
      </trkpt>
      <trkpt lat="45.8902" lon="4.47049">
        <ele>467.60000610352</ele>
        <time>2020-03-14T15:55:05.000Z</time>
      </trkpt>
      <trkpt lat="45.89021" lon="4.4705">
        <ele>467.79998779297</ele>
        <time>2020-03-14T15:55:06.000Z</time>
      </trkpt>
      <trkpt lat="45.89022" lon="4.47051">
        <ele>467.79998779297</ele>
        <time>2020-03-14T15:55:07.000Z</time>
      </trkpt>
      <trkpt lat="45.89023" lon="4.47052">
        <ele>467.79998779297</ele>
        <time>2020-03-14T15:55:08.000Z</time>
      </trkpt>
      <trkpt lat="45.89023" lon="4.47053">
        <ele>467.79998779297</ele>
        <time>2020-03-14T15:55:09.000Z</time>
      </trkpt>
      <trkpt lat="45.89024" lon="4.47054">
        <ele>468</ele>
        <time>2020-03-14T15:55:10.000Z</time>
      </trkpt>
      <trkpt lat="45.89025" lon="4.47054">
        <ele>468.20001220703</ele>
        <time>2020-03-14T15:55:11.000Z</time>
      </trkpt>
      <trkpt lat="45.89026" lon="4.47055">
        <ele>468.39999389648</ele>
        <time>2020-03-14T15:55:12.000Z</time>
      </trkpt>
      <trkpt lat="45.89026" lon="4.47056">
        <ele>468.39999389648</ele>
        <time>2020-03-14T15:55:13.000Z</time>
      </trkpt>
      <trkpt lat="45.89027" lon="4.47057">
        <ele>468.60000610352</ele>
        <time>2020-03-14T15:55:14.000Z</time>
      </trkpt>
      <trkpt lat="45.89028" lon="4.47057">
        <ele>468.60000610352</ele>
        <time>2020-03-14T15:55:15.000Z</time>
      </trkpt>
      <trkpt lat="45.89028" lon="4.47058">
        <ele>469</ele>
        <time>2020-03-14T15:55:16.000Z</time>
      </trkpt>
      <trkpt lat="45.89029" lon="4.47058">
        <ele>469.20001220703</ele>
        <time>2020-03-14T15:55:17.000Z</time>
      </trkpt>
      <trkpt lat="45.89029" lon="4.47059">
        <ele>469.39999389648</ele>
        <time>2020-03-14T15:55:18.000Z</time>
      </trkpt>
      <trkpt lat="45.8903" lon="4.4706">
        <ele>469.39999389648</ele>
        <time>2020-03-14T15:55:19.000Z</time>
      </trkpt>
      <trkpt lat="45.89031" lon="4.4706">
        <ele>469.79998779297</ele>
        <time>2020-03-14T15:55:20.000Z</time>
      </trkpt>
      <trkpt lat="45.89032" lon="4.47061">
        <ele>470</ele>
        <time>2020-03-14T15:55:21.000Z</time>
      </trkpt>
      <trkpt lat="45.89032" lon="4.47062">
        <ele>470.39999389648</ele>
        <time>2020-03-14T15:55:22.000Z</time>
      </trkpt>
      <trkpt lat="45.89033" lon="4.47062">
        <ele>470.60000610352</ele>
        <time>2020-03-14T15:55:23.000Z</time>
      </trkpt>
      <trkpt lat="45.89032" lon="4.47062">
        <ele>470.79998779297</ele>
        <time>2020-03-14T15:55:24.000Z</time>
      </trkpt>
      <trkpt lat="45.89032" lon="4.47062">
        <ele>470.79998779297</ele>
        <time>2020-03-14T15:55:25.000Z</time>
      </trkpt>
      <trkpt lat="45.89031" lon="4.47062">
        <ele>470.79998779297</ele>
        <time>2020-03-14T15:55:26.000Z</time>
      </trkpt>
      <trkpt lat="45.89031" lon="4.47062">
        <ele>470.79998779297</ele>
        <time>2020-03-14T15:55:27.000Z</time>
      </trkpt>
      <trkpt lat="45.89031" lon="4.47062">
        <ele>470.79998779297</ele>
        <time>2020-03-14T15:55:28.000Z</time>
      </trkpt>
      <trkpt lat="45.89031" lon="4.47062">
        <ele>470.79998779297</ele>
        <time>2020-03-14T15:55:29.000Z</time>
      </trkpt>
      <trkpt lat="45.89031" lon="4.47062">
        <ele>470.79998779297</ele>
        <time>2020-03-14T15:55:30.000Z</time>
      </trkpt>
      <trkpt lat="45.89032" lon="4.47063">
        <ele>470.60000610352</ele>
        <time>2020-03-14T15:55:31.000Z</time>
      </trkpt>
      <trkpt lat="45.89032" lon="4.47063">
        <ele>470.79998779297</ele>
        <time>2020-03-14T15:55:32.000Z</time>
      </trkpt>
      <trkpt lat="45.89033" lon="4.47064">
        <ele>470.79998779297</ele>
        <time>2020-03-14T15:55:33.000Z</time>
      </trkpt>
      <trkpt lat="45.89033" lon="4.47065">
        <ele>471</ele>
        <time>2020-03-14T15:55:34.000Z</time>
      </trkpt>
      <trkpt lat="45.89034" lon="4.47065">
        <ele>471</ele>
        <time>2020-03-14T15:55:35.000Z</time>
      </trkpt>
      <trkpt lat="45.89034" lon="4.47065">
        <ele>471.20001220703</ele>
        <time>2020-03-14T15:55:36.000Z</time>
      </trkpt>
      <trkpt lat="45.89034" lon="4.47065">
        <ele>471.20001220703</ele>
        <time>2020-03-14T15:55:37.000Z</time>
      </trkpt>
      <trkpt lat="45.89033" lon="4.47065">
        <ele>471.20001220703</ele>
        <time>2020-03-14T15:55:38.000Z</time>
      </trkpt>
      <trkpt lat="45.89033" lon="4.47066">
        <ele>471</ele>
        <time>2020-03-14T15:55:39.000Z</time>
      </trkpt>
      <trkpt lat="45.89034" lon="4.47066">
        <ele>470.79998779297</ele>
        <time>2020-03-14T15:55:40.000Z</time>
      </trkpt>
      <trkpt lat="45.89034" lon="4.47065">
        <ele>470.60000610352</ele>
        <time>2020-03-14T15:55:41.000Z</time>
      </trkpt>
      <trkpt lat="45.89034" lon="4.47066">
        <ele>470.39999389648</ele>
        <time>2020-03-14T15:55:42.000Z</time>
      </trkpt>
      <trkpt lat="45.89034" lon="4.47066">
        <ele>470.20001220703</ele>
        <time>2020-03-14T15:55:43.000Z</time>
      </trkpt>
      <trkpt lat="45.89034" lon="4.47066">
        <ele>470.20001220703</ele>
        <time>2020-03-14T15:55:44.000Z</time>
      </trkpt>
      <trkpt lat="45.89034" lon="4.47066">
        <ele>470</ele>
        <time>2020-03-14T15:55:45.000Z</time>
      </trkpt>
      <trkpt lat="45.89034" lon="4.47066">
        <ele>470</ele>
        <time>2020-03-14T15:55:46.000Z</time>
      </trkpt>
      <trkpt lat="45.89034" lon="4.47066">
        <ele>470</ele>
        <time>2020-03-14T15:55:47.000Z</time>
      </trkpt>
      <trkpt lat="45.89034" lon="4.47066">
        <ele>470</ele>
        <time>2020-03-14T15:55:48.000Z</time>
      </trkpt>
      <trkpt lat="45.89033" lon="4.47066">
        <ele>470</ele>
        <time>2020-03-14T15:55:49.000Z</time>
      </trkpt>
      <trkpt lat="45.89033" lon="4.47066">
        <ele>470</ele>
        <time>2020-03-14T15:55:50.000Z</time>
      </trkpt>
      <trkpt lat="45.89033" lon="4.47066">
        <ele>470</ele>
        <time>2020-03-14T15:55:51.000Z</time>
      </trkpt>
      <trkpt lat="45.89033" lon="4.47066">
        <ele>470</ele>
        <time>2020-03-14T15:55:52.000Z</time>
      </trkpt>
      <trkpt lat="45.89033" lon="4.47066">
        <ele>470</ele>
        <time>2020-03-14T15:55:53.000Z</time>
      </trkpt>
      <trkpt lat="45.89033" lon="4.47066">
        <ele>469.79998779297</ele>
        <time>2020-03-14T15:55:54.000Z</time>
      </trkpt>
      <trkpt lat="45.89033" lon="4.47066">
        <ele>469.79998779297</ele>
        <time>2020-03-14T15:55:55.000Z</time>
      </trkpt>
      <trkpt lat="45.89033" lon="4.47066">
        <ele>469.60000610352</ele>
        <time>2020-03-14T15:55:56.000Z</time>
      </trkpt>
      <trkpt lat="45.89033" lon="4.47066">
        <ele>469.60000610352</ele>
        <time>2020-03-14T15:55:57.000Z</time>
      </trkpt>
      <trkpt lat="45.89033" lon="4.47066">
        <ele>469.39999389648</ele>
        <time>2020-03-14T15:55:58.000Z</time>
      </trkpt>
      <trkpt lat="45.89033" lon="4.47066">
        <ele>469.39999389648</ele>
        <time>2020-03-14T15:55:59.000Z</time>
      </trkpt>
      <trkpt lat="45.89033" lon="4.47066">
        <ele>469.39999389648</ele>
        <time>2020-03-14T15:56:00.000Z</time>
      </trkpt>
      <trkpt lat="45.89033" lon="4.47066">
        <ele>469.39999389648</ele>
        <time>2020-03-14T15:56:01.000Z</time>
      </trkpt>
      <trkpt lat="45.89033" lon="4.47066">
        <ele>469.20001220703</ele>
        <time>2020-03-14T15:56:02.000Z</time>
      </trkpt>
      <trkpt lat="45.89033" lon="4.47066">
        <ele>469.20001220703</ele>
        <time>2020-03-14T15:56:03.000Z</time>
      </trkpt>
      <trkpt lat="45.89033" lon="4.47066">
        <ele>469.20001220703</ele>
        <time>2020-03-14T15:56:04.000Z</time>
      </trkpt>
      <trkpt lat="45.89032" lon="4.47066">
        <ele>469.20001220703</ele>
        <time>2020-03-14T15:56:05.000Z</time>
      </trkpt>
      <trkpt lat="45.89032" lon="4.47066">
        <ele>469.20001220703</ele>
        <time>2020-03-14T15:56:06.000Z</time>
      </trkpt>
      <trkpt lat="45.89032" lon="4.47066">
        <ele>469.20001220703</ele>
        <time>2020-03-14T15:56:07.000Z</time>
      </trkpt>
      <trkpt lat="45.89032" lon="4.47066">
        <ele>469.20001220703</ele>
        <time>2020-03-14T15:56:08.000Z</time>
      </trkpt>
      <trkpt lat="45.89032" lon="4.47066">
        <ele>469.20001220703</ele>
        <time>2020-03-14T15:56:09.000Z</time>
      </trkpt>
      <trkpt lat="45.89032" lon="4.47065">
        <ele>469.20001220703</ele>
        <time>2020-03-14T15:56:10.000Z</time>
      </trkpt>
      <trkpt lat="45.89032" lon="4.47065">
        <ele>469.20001220703</ele>
        <time>2020-03-14T15:56:11.000Z</time>
      </trkpt>
      <trkpt lat="45.89031" lon="4.47063">
        <ele>469.39999389648</ele>
        <time>2020-03-14T15:56:12.000Z</time>
      </trkpt>
      <trkpt lat="45.89031" lon="4.47063">
        <ele>469.39999389648</ele>
        <time>2020-03-14T15:56:13.000Z</time>
      </trkpt>
      <trkpt lat="45.89031" lon="4.47063">
        <ele>469.60000610352</ele>
        <time>2020-03-14T15:56:14.000Z</time>
      </trkpt>
      <trkpt lat="45.89031" lon="4.47063">
        <ele>469.60000610352</ele>
        <time>2020-03-14T15:56:15.000Z</time>
      </trkpt>
      <trkpt lat="45.89031" lon="4.47062">
        <ele>469.60000610352</ele>
        <time>2020-03-14T15:56:16.000Z</time>
      </trkpt>
      <trkpt lat="45.89032" lon="4.47062">
        <ele>469.60000610352</ele>
        <time>2020-03-14T15:56:17.000Z</time>
      </trkpt>
      <trkpt lat="45.89032" lon="4.47063">
        <ele>469.60000610352</ele>
        <time>2020-03-14T15:56:18.000Z</time>
      </trkpt>
      <trkpt lat="45.89033" lon="4.47063">
        <ele>469.60000610352</ele>
        <time>2020-03-14T15:56:19.000Z</time>
      </trkpt>
      <trkpt lat="45.89033" lon="4.47064">
        <ele>469.60000610352</ele>
        <time>2020-03-14T15:56:20.000Z</time>
      </trkpt>
      <trkpt lat="45.89033" lon="4.47063">
        <ele>469.39999389648</ele>
        <time>2020-03-14T15:56:21.000Z</time>
      </trkpt>
      <trkpt lat="45.89034" lon="4.47063">
        <ele>469.39999389648</ele>
        <time>2020-03-14T15:56:22.000Z</time>
      </trkpt>
      <trkpt lat="45.89035" lon="4.47062">
        <ele>469.39999389648</ele>
        <time>2020-03-14T15:56:23.000Z</time>
      </trkpt>
      <trkpt lat="45.89037" lon="4.47062">
        <ele>469.39999389648</ele>
        <time>2020-03-14T15:56:24.000Z</time>
      </trkpt>
      <trkpt lat="45.89039" lon="4.47062">
        <ele>469.60000610352</ele>
        <time>2020-03-14T15:56:25.000Z</time>
      </trkpt>
      <trkpt lat="45.89041" lon="4.47063">
        <ele>469.60000610352</ele>
        <time>2020-03-14T15:56:26.000Z</time>
      </trkpt>
      <trkpt lat="45.89043" lon="4.47063">
        <ele>469.60000610352</ele>
        <time>2020-03-14T15:56:27.000Z</time>
      </trkpt>
      <trkpt lat="45.89045" lon="4.47063">
        <ele>469.79998779297</ele>
        <time>2020-03-14T15:56:28.000Z</time>
      </trkpt>
      <trkpt lat="45.89047" lon="4.47064">
        <ele>469.79998779297</ele>
        <time>2020-03-14T15:56:29.000Z</time>
      </trkpt>
      <trkpt lat="45.89048" lon="4.47064">
        <ele>469.79998779297</ele>
        <time>2020-03-14T15:56:30.000Z</time>
      </trkpt>
      <trkpt lat="45.8905" lon="4.47065">
        <ele>469.79998779297</ele>
        <time>2020-03-14T15:56:31.000Z</time>
      </trkpt>
      <trkpt lat="45.89051" lon="4.47066">
        <ele>469.79998779297</ele>
        <time>2020-03-14T15:56:32.000Z</time>
      </trkpt>
      <trkpt lat="45.89053" lon="4.47066">
        <ele>469.79998779297</ele>
        <time>2020-03-14T15:56:33.000Z</time>
      </trkpt>
      <trkpt lat="45.89054" lon="4.47067">
        <ele>470</ele>
        <time>2020-03-14T15:56:34.000Z</time>
      </trkpt>
      <trkpt lat="45.89056" lon="4.47067">
        <ele>470.20001220703</ele>
        <time>2020-03-14T15:56:35.000Z</time>
      </trkpt>
      <trkpt lat="45.89057" lon="4.47068">
        <ele>470.39999389648</ele>
        <time>2020-03-14T15:56:36.000Z</time>
      </trkpt>
      <trkpt lat="45.89059" lon="4.47068">
        <ele>470.60000610352</ele>
        <time>2020-03-14T15:56:37.000Z</time>
      </trkpt>
      <trkpt lat="45.8906" lon="4.47068">
        <ele>470.79998779297</ele>
        <time>2020-03-14T15:56:38.000Z</time>
      </trkpt>
      <trkpt lat="45.89062" lon="4.47069">
        <ele>471</ele>
        <time>2020-03-14T15:56:39.000Z</time>
      </trkpt>
      <trkpt lat="45.89063" lon="4.47069">
        <ele>471.20001220703</ele>
        <time>2020-03-14T15:56:40.000Z</time>
      </trkpt>
      <trkpt lat="45.89065" lon="4.47069">
        <ele>471.39999389648</ele>
        <time>2020-03-14T15:56:41.000Z</time>
      </trkpt>
      <trkpt lat="45.89067" lon="4.47069">
        <ele>471.60000610352</ele>
        <time>2020-03-14T15:56:42.000Z</time>
      </trkpt>
      <trkpt lat="45.89068" lon="4.4707">
        <ele>471.79998779297</ele>
        <time>2020-03-14T15:56:43.000Z</time>
      </trkpt>
      <trkpt lat="45.8907" lon="4.4707">
        <ele>472</ele>
        <time>2020-03-14T15:56:44.000Z</time>
      </trkpt>
      <trkpt lat="45.89071" lon="4.47071">
        <ele>472.20001220703</ele>
        <time>2020-03-14T15:56:45.000Z</time>
      </trkpt>
      <trkpt lat="45.89073" lon="4.47071">
        <ele>472.20001220703</ele>
        <time>2020-03-14T15:56:46.000Z</time>
      </trkpt>
      <trkpt lat="45.89074" lon="4.47072">
        <ele>472.39999389648</ele>
        <time>2020-03-14T15:56:47.000Z</time>
      </trkpt>
      <trkpt lat="45.89076" lon="4.47072">
        <ele>472.39999389648</ele>
        <time>2020-03-14T15:56:48.000Z</time>
      </trkpt>
      <trkpt lat="45.89077" lon="4.47073">
        <ele>472.60000610352</ele>
        <time>2020-03-14T15:56:49.000Z</time>
      </trkpt>
      <trkpt lat="45.89078" lon="4.47074">
        <ele>473</ele>
        <time>2020-03-14T15:56:50.000Z</time>
      </trkpt>
      <trkpt lat="45.89079" lon="4.47074">
        <ele>473.20001220703</ele>
        <time>2020-03-14T15:56:51.000Z</time>
      </trkpt>
      <trkpt lat="45.89081" lon="4.47075">
        <ele>473.39999389648</ele>
        <time>2020-03-14T15:56:52.000Z</time>
      </trkpt>
      <trkpt lat="45.89082" lon="4.47075">
        <ele>473.39999389648</ele>
        <time>2020-03-14T15:56:53.000Z</time>
      </trkpt>
      <trkpt lat="45.89083" lon="4.47076">
        <ele>473.60000610352</ele>
        <time>2020-03-14T15:56:54.000Z</time>
      </trkpt>
      <trkpt lat="45.89085" lon="4.47077">
        <ele>473.60000610352</ele>
        <time>2020-03-14T15:56:55.000Z</time>
      </trkpt>
      <trkpt lat="45.89086" lon="4.47078">
        <ele>473.60000610352</ele>
        <time>2020-03-14T15:56:56.000Z</time>
      </trkpt>
      <trkpt lat="45.89087" lon="4.47079">
        <ele>473.60000610352</ele>
        <time>2020-03-14T15:56:57.000Z</time>
      </trkpt>
      <trkpt lat="45.89088" lon="4.4708">
        <ele>473.79998779297</ele>
        <time>2020-03-14T15:56:58.000Z</time>
      </trkpt>
      <trkpt lat="45.89089" lon="4.47082">
        <ele>474</ele>
        <time>2020-03-14T15:56:59.000Z</time>
      </trkpt>
      <trkpt lat="45.8909" lon="4.47083">
        <ele>474.20001220703</ele>
        <time>2020-03-14T15:57:00.000Z</time>
      </trkpt>
      <trkpt lat="45.89091" lon="4.47084">
        <ele>474.39999389648</ele>
        <time>2020-03-14T15:57:01.000Z</time>
      </trkpt>
      <trkpt lat="45.89091" lon="4.47085">
        <ele>474.60000610352</ele>
        <time>2020-03-14T15:57:02.000Z</time>
      </trkpt>
      <trkpt lat="45.89092" lon="4.47086">
        <ele>474.79998779297</ele>
        <time>2020-03-14T15:57:03.000Z</time>
      </trkpt>
      <trkpt lat="45.89093" lon="4.47087">
        <ele>474.79998779297</ele>
        <time>2020-03-14T15:57:04.000Z</time>
      </trkpt>
      <trkpt lat="45.89094" lon="4.47089">
        <ele>475</ele>
        <time>2020-03-14T15:57:05.000Z</time>
      </trkpt>
      <trkpt lat="45.89094" lon="4.4709">
        <ele>475</ele>
        <time>2020-03-14T15:57:06.000Z</time>
      </trkpt>
      <trkpt lat="45.89095" lon="4.47091">
        <ele>475.20001220703</ele>
        <time>2020-03-14T15:57:07.000Z</time>
      </trkpt>
      <trkpt lat="45.89095" lon="4.47093">
        <ele>475.39999389648</ele>
        <time>2020-03-14T15:57:08.000Z</time>
      </trkpt>
      <trkpt lat="45.89096" lon="4.47094">
        <ele>475.39999389648</ele>
        <time>2020-03-14T15:57:09.000Z</time>
      </trkpt>
      <trkpt lat="45.89097" lon="4.47095">
        <ele>475.60000610352</ele>
        <time>2020-03-14T15:57:10.000Z</time>
      </trkpt>
      <trkpt lat="45.89097" lon="4.47097">
        <ele>475.60000610352</ele>
        <time>2020-03-14T15:57:11.000Z</time>
      </trkpt>
      <trkpt lat="45.89097" lon="4.47099">
        <ele>475.79998779297</ele>
        <time>2020-03-14T15:57:12.000Z</time>
      </trkpt>
      <trkpt lat="45.89098" lon="4.471">
        <ele>476.20001220703</ele>
        <time>2020-03-14T15:57:13.000Z</time>
      </trkpt>
      <trkpt lat="45.89098" lon="4.47101">
        <ele>476.39999389648</ele>
        <time>2020-03-14T15:57:14.000Z</time>
      </trkpt>
      <trkpt lat="45.89099" lon="4.47103">
        <ele>476.60000610352</ele>
        <time>2020-03-14T15:57:15.000Z</time>
      </trkpt>
      <trkpt lat="45.89099" lon="4.47104">
        <ele>476.79998779297</ele>
        <time>2020-03-14T15:57:16.000Z</time>
      </trkpt>
      <trkpt lat="45.89099" lon="4.47106">
        <ele>477</ele>
        <time>2020-03-14T15:57:17.000Z</time>
      </trkpt>
      <trkpt lat="45.891" lon="4.47107">
        <ele>477.20001220703</ele>
        <time>2020-03-14T15:57:18.000Z</time>
      </trkpt>
      <trkpt lat="45.891" lon="4.47109">
        <ele>477.39999389648</ele>
        <time>2020-03-14T15:57:19.000Z</time>
      </trkpt>
      <trkpt lat="45.891" lon="4.4711">
        <ele>477.39999389648</ele>
        <time>2020-03-14T15:57:20.000Z</time>
      </trkpt>
      <trkpt lat="45.89101" lon="4.47112">
        <ele>477.39999389648</ele>
        <time>2020-03-14T15:57:21.000Z</time>
      </trkpt>
      <trkpt lat="45.89101" lon="4.47113">
        <ele>477.60000610352</ele>
        <time>2020-03-14T15:57:22.000Z</time>
      </trkpt>
      <trkpt lat="45.89102" lon="4.47114">
        <ele>477.60000610352</ele>
        <time>2020-03-14T15:57:23.000Z</time>
      </trkpt>
      <trkpt lat="45.89102" lon="4.47116">
        <ele>477.79998779297</ele>
        <time>2020-03-14T15:57:24.000Z</time>
      </trkpt>
      <trkpt lat="45.89102" lon="4.47118">
        <ele>478.20001220703</ele>
        <time>2020-03-14T15:57:25.000Z</time>
      </trkpt>
      <trkpt lat="45.89103" lon="4.47119">
        <ele>478.39999389648</ele>
        <time>2020-03-14T15:57:26.000Z</time>
      </trkpt>
      <trkpt lat="45.89103" lon="4.47121">
        <ele>478.60000610352</ele>
        <time>2020-03-14T15:57:27.000Z</time>
      </trkpt>
      <trkpt lat="45.89103" lon="4.47122">
        <ele>478.79998779297</ele>
        <time>2020-03-14T15:57:28.000Z</time>
      </trkpt>
      <trkpt lat="45.89103" lon="4.47123">
        <ele>478.79998779297</ele>
        <time>2020-03-14T15:57:29.000Z</time>
      </trkpt>
      <trkpt lat="45.89104" lon="4.47125">
        <ele>479.20001220703</ele>
        <time>2020-03-14T15:57:30.000Z</time>
      </trkpt>
      <trkpt lat="45.89104" lon="4.47126">
        <ele>479.39999389648</ele>
        <time>2020-03-14T15:57:31.000Z</time>
      </trkpt>
      <trkpt lat="45.89104" lon="4.47128">
        <ele>479.60000610352</ele>
        <time>2020-03-14T15:57:32.000Z</time>
      </trkpt>
      <trkpt lat="45.89104" lon="4.4713">
        <ele>479.79998779297</ele>
        <time>2020-03-14T15:57:33.000Z</time>
      </trkpt>
      <trkpt lat="45.89104" lon="4.47131">
        <ele>480</ele>
        <time>2020-03-14T15:57:34.000Z</time>
      </trkpt>
      <trkpt lat="45.89104" lon="4.47133">
        <ele>480</ele>
        <time>2020-03-14T15:57:35.000Z</time>
      </trkpt>
      <trkpt lat="45.89104" lon="4.47134">
        <ele>480.20001220703</ele>
        <time>2020-03-14T15:57:36.000Z</time>
      </trkpt>
      <trkpt lat="45.89104" lon="4.47136">
        <ele>480.20001220703</ele>
        <time>2020-03-14T15:57:37.000Z</time>
      </trkpt>
      <trkpt lat="45.89103" lon="4.47138">
        <ele>480.39999389648</ele>
        <time>2020-03-14T15:57:38.000Z</time>
      </trkpt>
      <trkpt lat="45.89103" lon="4.4714">
        <ele>480.39999389648</ele>
        <time>2020-03-14T15:57:39.000Z</time>
      </trkpt>
      <trkpt lat="45.89103" lon="4.47142">
        <ele>480.60000610352</ele>
        <time>2020-03-14T15:57:40.000Z</time>
      </trkpt>
      <trkpt lat="45.89103" lon="4.47143">
        <ele>480.79998779297</ele>
        <time>2020-03-14T15:57:41.000Z</time>
      </trkpt>
      <trkpt lat="45.89102" lon="4.47145">
        <ele>480.79998779297</ele>
        <time>2020-03-14T15:57:42.000Z</time>
      </trkpt>
      <trkpt lat="45.89102" lon="4.47147">
        <ele>481</ele>
        <time>2020-03-14T15:57:43.000Z</time>
      </trkpt>
      <trkpt lat="45.89101" lon="4.47149">
        <ele>481</ele>
        <time>2020-03-14T15:57:44.000Z</time>
      </trkpt>
      <trkpt lat="45.89101" lon="4.47151">
        <ele>481</ele>
        <time>2020-03-14T15:57:45.000Z</time>
      </trkpt>
      <trkpt lat="45.891" lon="4.47153">
        <ele>481</ele>
        <time>2020-03-14T15:57:46.000Z</time>
      </trkpt>
      <trkpt lat="45.891" lon="4.47154">
        <ele>481</ele>
        <time>2020-03-14T15:57:47.000Z</time>
      </trkpt>
      <trkpt lat="45.89099" lon="4.47156">
        <ele>481</ele>
        <time>2020-03-14T15:57:48.000Z</time>
      </trkpt>
      <trkpt lat="45.89099" lon="4.47158">
        <ele>481</ele>
        <time>2020-03-14T15:57:49.000Z</time>
      </trkpt>
      <trkpt lat="45.89099" lon="4.47159">
        <ele>481</ele>
        <time>2020-03-14T15:57:50.000Z</time>
      </trkpt>
      <trkpt lat="45.89098" lon="4.47161">
        <ele>481</ele>
        <time>2020-03-14T15:57:51.000Z</time>
      </trkpt>
      <trkpt lat="45.89098" lon="4.47163">
        <ele>481</ele>
        <time>2020-03-14T15:57:52.000Z</time>
      </trkpt>
      <trkpt lat="45.89098" lon="4.47165">
        <ele>481</ele>
        <time>2020-03-14T15:57:53.000Z</time>
      </trkpt>
      <trkpt lat="45.89098" lon="4.47167">
        <ele>481</ele>
        <time>2020-03-14T15:57:54.000Z</time>
      </trkpt>
      <trkpt lat="45.89098" lon="4.47169">
        <ele>481</ele>
        <time>2020-03-14T15:57:55.000Z</time>
      </trkpt>
      <trkpt lat="45.89097" lon="4.47171">
        <ele>481</ele>
        <time>2020-03-14T15:57:56.000Z</time>
      </trkpt>
      <trkpt lat="45.89097" lon="4.47173">
        <ele>481</ele>
        <time>2020-03-14T15:57:57.000Z</time>
      </trkpt>
      <trkpt lat="45.89096" lon="4.47175">
        <ele>481</ele>
        <time>2020-03-14T15:57:58.000Z</time>
      </trkpt>
      <trkpt lat="45.89095" lon="4.47176">
        <ele>481.20001220703</ele>
        <time>2020-03-14T15:57:59.000Z</time>
      </trkpt>
      <trkpt lat="45.89095" lon="4.47178">
        <ele>481.20001220703</ele>
        <time>2020-03-14T15:58:00.000Z</time>
      </trkpt>
      <trkpt lat="45.89095" lon="4.4718">
        <ele>481.20001220703</ele>
        <time>2020-03-14T15:58:01.000Z</time>
      </trkpt>
      <trkpt lat="45.89094" lon="4.47182">
        <ele>481.20001220703</ele>
        <time>2020-03-14T15:58:02.000Z</time>
      </trkpt>
      <trkpt lat="45.89094" lon="4.47184">
        <ele>481.20001220703</ele>
        <time>2020-03-14T15:58:03.000Z</time>
      </trkpt>
      <trkpt lat="45.89094" lon="4.47186">
        <ele>481</ele>
        <time>2020-03-14T15:58:04.000Z</time>
      </trkpt>
      <trkpt lat="45.89093" lon="4.47188">
        <ele>481</ele>
        <time>2020-03-14T15:58:05.000Z</time>
      </trkpt>
      <trkpt lat="45.89093" lon="4.4719">
        <ele>481</ele>
        <time>2020-03-14T15:58:06.000Z</time>
      </trkpt>
      <trkpt lat="45.89093" lon="4.47193">
        <ele>480.79998779297</ele>
        <time>2020-03-14T15:58:07.000Z</time>
      </trkpt>
      <trkpt lat="45.89092" lon="4.47195">
        <ele>480.79998779297</ele>
        <time>2020-03-14T15:58:08.000Z</time>
      </trkpt>
      <trkpt lat="45.89091" lon="4.47198">
        <ele>480.79998779297</ele>
        <time>2020-03-14T15:58:09.000Z</time>
      </trkpt>
      <trkpt lat="45.89091" lon="4.47201">
        <ele>480.79998779297</ele>
        <time>2020-03-14T15:58:10.000Z</time>
      </trkpt>
      <trkpt lat="45.89091" lon="4.47203">
        <ele>480.79998779297</ele>
        <time>2020-03-14T15:58:11.000Z</time>
      </trkpt>
      <trkpt lat="45.8909" lon="4.47206">
        <ele>480.79998779297</ele>
        <time>2020-03-14T15:58:12.000Z</time>
      </trkpt>
      <trkpt lat="45.8909" lon="4.47208">
        <ele>480.79998779297</ele>
        <time>2020-03-14T15:58:13.000Z</time>
      </trkpt>
      <trkpt lat="45.8909" lon="4.4721">
        <ele>481</ele>
        <time>2020-03-14T15:58:14.000Z</time>
      </trkpt>
      <trkpt lat="45.8909" lon="4.47212">
        <ele>481</ele>
        <time>2020-03-14T15:58:15.000Z</time>
      </trkpt>
      <trkpt lat="45.89089" lon="4.47214">
        <ele>481</ele>
        <time>2020-03-14T15:58:16.000Z</time>
      </trkpt>
      <trkpt lat="45.89089" lon="4.47217">
        <ele>481.20001220703</ele>
        <time>2020-03-14T15:58:17.000Z</time>
      </trkpt>
      <trkpt lat="45.89089" lon="4.47219">
        <ele>481.20001220703</ele>
        <time>2020-03-14T15:58:18.000Z</time>
      </trkpt>
      <trkpt lat="45.8909" lon="4.47221">
        <ele>481.20001220703</ele>
        <time>2020-03-14T15:58:19.000Z</time>
      </trkpt>
      <trkpt lat="45.89091" lon="4.47222">
        <ele>481.20001220703</ele>
        <time>2020-03-14T15:58:20.000Z</time>
      </trkpt>
      <trkpt lat="45.89092" lon="4.47223">
        <ele>481.20001220703</ele>
        <time>2020-03-14T15:58:21.000Z</time>
      </trkpt>
      <trkpt lat="45.89093" lon="4.47224">
        <ele>481.20001220703</ele>
        <time>2020-03-14T15:58:22.000Z</time>
      </trkpt>
      <trkpt lat="45.89094" lon="4.47225">
        <ele>481.20001220703</ele>
        <time>2020-03-14T15:58:23.000Z</time>
      </trkpt>
      <trkpt lat="45.89095" lon="4.47226">
        <ele>481</ele>
        <time>2020-03-14T15:58:24.000Z</time>
      </trkpt>
      <trkpt lat="45.89096" lon="4.47227">
        <ele>481.20001220703</ele>
        <time>2020-03-14T15:58:25.000Z</time>
      </trkpt>
      <trkpt lat="45.89097" lon="4.47227">
        <ele>481.39999389648</ele>
        <time>2020-03-14T15:58:26.000Z</time>
      </trkpt>
      <trkpt lat="45.89098" lon="4.47228">
        <ele>481.60000610352</ele>
        <time>2020-03-14T15:58:27.000Z</time>
      </trkpt>
      <trkpt lat="45.89099" lon="4.47229">
        <ele>481.79998779297</ele>
        <time>2020-03-14T15:58:28.000Z</time>
      </trkpt>
      <trkpt lat="45.89101" lon="4.47229">
        <ele>482</ele>
        <time>2020-03-14T15:58:29.000Z</time>
      </trkpt>
      <trkpt lat="45.89102" lon="4.4723">
        <ele>482.39999389648</ele>
        <time>2020-03-14T15:58:30.000Z</time>
      </trkpt>
      <trkpt lat="45.89103" lon="4.4723">
        <ele>482.79998779297</ele>
        <time>2020-03-14T15:58:31.000Z</time>
      </trkpt>
      <trkpt lat="45.89104" lon="4.47231">
        <ele>483.20001220703</ele>
        <time>2020-03-14T15:58:32.000Z</time>
      </trkpt>
      <trkpt lat="45.89105" lon="4.47231">
        <ele>483.60000610352</ele>
        <time>2020-03-14T15:58:33.000Z</time>
      </trkpt>
      <trkpt lat="45.89106" lon="4.47232">
        <ele>484</ele>
        <time>2020-03-14T15:58:34.000Z</time>
      </trkpt>
      <trkpt lat="45.89107" lon="4.47233">
        <ele>484.20001220703</ele>
        <time>2020-03-14T15:58:35.000Z</time>
      </trkpt>
      <trkpt lat="45.89108" lon="4.47233">
        <ele>484.39999389648</ele>
        <time>2020-03-14T15:58:36.000Z</time>
      </trkpt>
      <trkpt lat="45.89109" lon="4.47234">
        <ele>484.79998779297</ele>
        <time>2020-03-14T15:58:37.000Z</time>
      </trkpt>
      <trkpt lat="45.8911" lon="4.47235">
        <ele>484.79998779297</ele>
        <time>2020-03-14T15:58:38.000Z</time>
      </trkpt>
      <trkpt lat="45.89111" lon="4.47235">
        <ele>485.20001220703</ele>
        <time>2020-03-14T15:58:39.000Z</time>
      </trkpt>
      <trkpt lat="45.89112" lon="4.47236">
        <ele>485.39999389648</ele>
        <time>2020-03-14T15:58:40.000Z</time>
      </trkpt>
      <trkpt lat="45.89113" lon="4.47236">
        <ele>485.60000610352</ele>
        <time>2020-03-14T15:58:41.000Z</time>
      </trkpt>
      <trkpt lat="45.89114" lon="4.47237">
        <ele>485.79998779297</ele>
        <time>2020-03-14T15:58:42.000Z</time>
      </trkpt>
      <trkpt lat="45.89115" lon="4.47237">
        <ele>486</ele>
        <time>2020-03-14T15:58:43.000Z</time>
      </trkpt>
      <trkpt lat="45.89116" lon="4.47238">
        <ele>486</ele>
        <time>2020-03-14T15:58:44.000Z</time>
      </trkpt>
      <trkpt lat="45.89118" lon="4.47238">
        <ele>486.20001220703</ele>
        <time>2020-03-14T15:58:45.000Z</time>
      </trkpt>
      <trkpt lat="45.89119" lon="4.47239">
        <ele>486.39999389648</ele>
        <time>2020-03-14T15:58:46.000Z</time>
      </trkpt>
      <trkpt lat="45.8912" lon="4.47239">
        <ele>486.60000610352</ele>
        <time>2020-03-14T15:58:47.000Z</time>
      </trkpt>
      <trkpt lat="45.89121" lon="4.4724">
        <ele>486.79998779297</ele>
        <time>2020-03-14T15:58:48.000Z</time>
      </trkpt>
      <trkpt lat="45.89122" lon="4.4724">
        <ele>486.79998779297</ele>
        <time>2020-03-14T15:58:49.000Z</time>
      </trkpt>
      <trkpt lat="45.89123" lon="4.47241">
        <ele>487</ele>
        <time>2020-03-14T15:58:50.000Z</time>
      </trkpt>
      <trkpt lat="45.89124" lon="4.47241">
        <ele>487</ele>
        <time>2020-03-14T15:58:51.000Z</time>
      </trkpt>
      <trkpt lat="45.89125" lon="4.47242">
        <ele>487.20001220703</ele>
        <time>2020-03-14T15:58:52.000Z</time>
      </trkpt>
      <trkpt lat="45.89127" lon="4.47243">
        <ele>487.20001220703</ele>
        <time>2020-03-14T15:58:53.000Z</time>
      </trkpt>
      <trkpt lat="45.89128" lon="4.47243">
        <ele>487.39999389648</ele>
        <time>2020-03-14T15:58:54.000Z</time>
      </trkpt>
      <trkpt lat="45.89128" lon="4.47244">
        <ele>487.39999389648</ele>
        <time>2020-03-14T15:58:55.000Z</time>
      </trkpt>
      <trkpt lat="45.89129" lon="4.47245">
        <ele>487.39999389648</ele>
        <time>2020-03-14T15:58:56.000Z</time>
      </trkpt>
      <trkpt lat="45.8913" lon="4.47246">
        <ele>487.60000610352</ele>
        <time>2020-03-14T15:58:57.000Z</time>
      </trkpt>
      <trkpt lat="45.89131" lon="4.47247">
        <ele>487.79998779297</ele>
        <time>2020-03-14T15:58:58.000Z</time>
      </trkpt>
      <trkpt lat="45.89133" lon="4.47248">
        <ele>487.79998779297</ele>
        <time>2020-03-14T15:58:59.000Z</time>
      </trkpt>
      <trkpt lat="45.89134" lon="4.47248">
        <ele>488</ele>
        <time>2020-03-14T15:59:00.000Z</time>
      </trkpt>
      <trkpt lat="45.89135" lon="4.47249">
        <ele>488.20001220703</ele>
        <time>2020-03-14T15:59:01.000Z</time>
      </trkpt>
      <trkpt lat="45.89136" lon="4.47249">
        <ele>488.39999389648</ele>
        <time>2020-03-14T15:59:02.000Z</time>
      </trkpt>
      <trkpt lat="45.89137" lon="4.4725">
        <ele>488.79998779297</ele>
        <time>2020-03-14T15:59:03.000Z</time>
      </trkpt>
      <trkpt lat="45.89138" lon="4.4725">
        <ele>489</ele>
        <time>2020-03-14T15:59:04.000Z</time>
      </trkpt>
      <trkpt lat="45.89139" lon="4.47251">
        <ele>489.20001220703</ele>
        <time>2020-03-14T15:59:05.000Z</time>
      </trkpt>
      <trkpt lat="45.8914" lon="4.47252">
        <ele>489.20001220703</ele>
        <time>2020-03-14T15:59:06.000Z</time>
      </trkpt>
      <trkpt lat="45.89141" lon="4.47252">
        <ele>489.20001220703</ele>
        <time>2020-03-14T15:59:07.000Z</time>
      </trkpt>
      <trkpt lat="45.89143" lon="4.47253">
        <ele>489.20001220703</ele>
        <time>2020-03-14T15:59:08.000Z</time>
      </trkpt>
      <trkpt lat="45.89144" lon="4.47253">
        <ele>489.20001220703</ele>
        <time>2020-03-14T15:59:09.000Z</time>
      </trkpt>
      <trkpt lat="45.89145" lon="4.47254">
        <ele>489.39999389648</ele>
        <time>2020-03-14T15:59:10.000Z</time>
      </trkpt>
      <trkpt lat="45.89146" lon="4.47254">
        <ele>489.60000610352</ele>
        <time>2020-03-14T15:59:11.000Z</time>
      </trkpt>
      <trkpt lat="45.89147" lon="4.47255">
        <ele>489.79998779297</ele>
        <time>2020-03-14T15:59:12.000Z</time>
      </trkpt>
      <trkpt lat="45.89148" lon="4.47255">
        <ele>490.20001220703</ele>
        <time>2020-03-14T15:59:13.000Z</time>
      </trkpt>
      <trkpt lat="45.89149" lon="4.47256">
        <ele>490.39999389648</ele>
        <time>2020-03-14T15:59:14.000Z</time>
      </trkpt>
      <trkpt lat="45.8915" lon="4.47256">
        <ele>490.60000610352</ele>
        <time>2020-03-14T15:59:15.000Z</time>
      </trkpt>
      <trkpt lat="45.89151" lon="4.47257">
        <ele>490.79998779297</ele>
        <time>2020-03-14T15:59:16.000Z</time>
      </trkpt>
      <trkpt lat="45.89153" lon="4.47257">
        <ele>491</ele>
        <time>2020-03-14T15:59:17.000Z</time>
      </trkpt>
      <trkpt lat="45.89154" lon="4.47258">
        <ele>491.20001220703</ele>
        <time>2020-03-14T15:59:18.000Z</time>
      </trkpt>
      <trkpt lat="45.89155" lon="4.47259">
        <ele>491.20001220703</ele>
        <time>2020-03-14T15:59:19.000Z</time>
      </trkpt>
      <trkpt lat="45.89156" lon="4.47259">
        <ele>491.39999389648</ele>
        <time>2020-03-14T15:59:20.000Z</time>
      </trkpt>
      <trkpt lat="45.89157" lon="4.4726">
        <ele>491.60000610352</ele>
        <time>2020-03-14T15:59:21.000Z</time>
      </trkpt>
      <trkpt lat="45.89158" lon="4.47261">
        <ele>491.79998779297</ele>
        <time>2020-03-14T15:59:22.000Z</time>
      </trkpt>
      <trkpt lat="45.89159" lon="4.47261">
        <ele>491.79998779297</ele>
        <time>2020-03-14T15:59:23.000Z</time>
      </trkpt>
      <trkpt lat="45.8916" lon="4.47261">
        <ele>491.79998779297</ele>
        <time>2020-03-14T15:59:24.000Z</time>
      </trkpt>
      <trkpt lat="45.89161" lon="4.47262">
        <ele>492</ele>
        <time>2020-03-14T15:59:25.000Z</time>
      </trkpt>
      <trkpt lat="45.89163" lon="4.47262">
        <ele>492</ele>
        <time>2020-03-14T15:59:26.000Z</time>
      </trkpt>
      <trkpt lat="45.89164" lon="4.47262">
        <ele>492</ele>
        <time>2020-03-14T15:59:27.000Z</time>
      </trkpt>
      <trkpt lat="45.89165" lon="4.47263">
        <ele>492</ele>
        <time>2020-03-14T15:59:28.000Z</time>
      </trkpt>
      <trkpt lat="45.89166" lon="4.47263">
        <ele>492</ele>
        <time>2020-03-14T15:59:29.000Z</time>
      </trkpt>
      <trkpt lat="45.89167" lon="4.47264">
        <ele>492</ele>
        <time>2020-03-14T15:59:30.000Z</time>
      </trkpt>
      <trkpt lat="45.89167" lon="4.47265">
        <ele>492</ele>
        <time>2020-03-14T15:59:31.000Z</time>
      </trkpt>
      <trkpt lat="45.89168" lon="4.47265">
        <ele>492</ele>
        <time>2020-03-14T15:59:32.000Z</time>
      </trkpt>
      <trkpt lat="45.89169" lon="4.47265">
        <ele>492</ele>
        <time>2020-03-14T15:59:33.000Z</time>
      </trkpt>
      <trkpt lat="45.8917" lon="4.47266">
        <ele>492.20001220703</ele>
        <time>2020-03-14T15:59:34.000Z</time>
      </trkpt>
      <trkpt lat="45.89171" lon="4.47266">
        <ele>492.39999389648</ele>
        <time>2020-03-14T15:59:35.000Z</time>
      </trkpt>
      <trkpt lat="45.89172" lon="4.47267">
        <ele>492.60000610352</ele>
        <time>2020-03-14T15:59:36.000Z</time>
      </trkpt>
      <trkpt lat="45.89173" lon="4.47267">
        <ele>492.79998779297</ele>
        <time>2020-03-14T15:59:37.000Z</time>
      </trkpt>
      <trkpt lat="45.89174" lon="4.47267">
        <ele>493</ele>
        <time>2020-03-14T15:59:38.000Z</time>
      </trkpt>
      <trkpt lat="45.89174" lon="4.47268">
        <ele>493.20001220703</ele>
        <time>2020-03-14T15:59:39.000Z</time>
      </trkpt>
      <trkpt lat="45.89175" lon="4.47268">
        <ele>493.39999389648</ele>
        <time>2020-03-14T15:59:40.000Z</time>
      </trkpt>
      <trkpt lat="45.89176" lon="4.47269">
        <ele>493.60000610352</ele>
        <time>2020-03-14T15:59:41.000Z</time>
      </trkpt>
      <trkpt lat="45.89177" lon="4.47269">
        <ele>493.60000610352</ele>
        <time>2020-03-14T15:59:42.000Z</time>
      </trkpt>
      <trkpt lat="45.89178" lon="4.4727">
        <ele>493.79998779297</ele>
        <time>2020-03-14T15:59:43.000Z</time>
      </trkpt>
      <trkpt lat="45.89179" lon="4.4727">
        <ele>493.79998779297</ele>
        <time>2020-03-14T15:59:44.000Z</time>
      </trkpt>
      <trkpt lat="45.8918" lon="4.47271">
        <ele>494</ele>
        <time>2020-03-14T15:59:45.000Z</time>
      </trkpt>
      <trkpt lat="45.89181" lon="4.47271">
        <ele>494</ele>
        <time>2020-03-14T15:59:46.000Z</time>
      </trkpt>
      <trkpt lat="45.89182" lon="4.47272">
        <ele>494.20001220703</ele>
        <time>2020-03-14T15:59:47.000Z</time>
      </trkpt>
      <trkpt lat="45.89183" lon="4.47272">
        <ele>494.60000610352</ele>
        <time>2020-03-14T15:59:48.000Z</time>
      </trkpt>
      <trkpt lat="45.89184" lon="4.47273">
        <ele>494.79998779297</ele>
        <time>2020-03-14T15:59:49.000Z</time>
      </trkpt>
      <trkpt lat="45.89185" lon="4.47273">
        <ele>495</ele>
        <time>2020-03-14T15:59:50.000Z</time>
      </trkpt>
      <trkpt lat="45.89186" lon="4.47273">
        <ele>495</ele>
        <time>2020-03-14T15:59:51.000Z</time>
      </trkpt>
      <trkpt lat="45.89187" lon="4.47273">
        <ele>495</ele>
        <time>2020-03-14T15:59:52.000Z</time>
      </trkpt>
      <trkpt lat="45.89188" lon="4.47273">
        <ele>495.20001220703</ele>
        <time>2020-03-14T15:59:53.000Z</time>
      </trkpt>
      <trkpt lat="45.89189" lon="4.47273">
        <ele>495.20001220703</ele>
        <time>2020-03-14T15:59:54.000Z</time>
      </trkpt>
      <trkpt lat="45.8919" lon="4.47273">
        <ele>495.39999389648</ele>
        <time>2020-03-14T15:59:55.000Z</time>
      </trkpt>
      <trkpt lat="45.89191" lon="4.47274">
        <ele>495.60000610352</ele>
        <time>2020-03-14T15:59:56.000Z</time>
      </trkpt>
      <trkpt lat="45.89193" lon="4.47274">
        <ele>495.79998779297</ele>
        <time>2020-03-14T15:59:57.000Z</time>
      </trkpt>
      <trkpt lat="45.89194" lon="4.47274">
        <ele>496</ele>
        <time>2020-03-14T15:59:58.000Z</time>
      </trkpt>
      <trkpt lat="45.89195" lon="4.47275">
        <ele>496.20001220703</ele>
        <time>2020-03-14T15:59:59.000Z</time>
      </trkpt>
      <trkpt lat="45.89196" lon="4.47275">
        <ele>496.20001220703</ele>
        <time>2020-03-14T16:00:00.000Z</time>
      </trkpt>
      <trkpt lat="45.89197" lon="4.47276">
        <ele>496.39999389648</ele>
        <time>2020-03-14T16:00:01.000Z</time>
      </trkpt>
      <trkpt lat="45.89198" lon="4.47276">
        <ele>496.60000610352</ele>
        <time>2020-03-14T16:00:02.000Z</time>
      </trkpt>
      <trkpt lat="45.89199" lon="4.47276">
        <ele>496.79998779297</ele>
        <time>2020-03-14T16:00:03.000Z</time>
      </trkpt>
      <trkpt lat="45.892" lon="4.47277">
        <ele>497</ele>
        <time>2020-03-14T16:00:04.000Z</time>
      </trkpt>
      <trkpt lat="45.89201" lon="4.47277">
        <ele>497.20001220703</ele>
        <time>2020-03-14T16:00:05.000Z</time>
      </trkpt>
      <trkpt lat="45.89202" lon="4.47277">
        <ele>497.39999389648</ele>
        <time>2020-03-14T16:00:06.000Z</time>
      </trkpt>
      <trkpt lat="45.89203" lon="4.47278">
        <ele>497.39999389648</ele>
        <time>2020-03-14T16:00:07.000Z</time>
      </trkpt>
      <trkpt lat="45.89203" lon="4.47278">
        <ele>497.60000610352</ele>
        <time>2020-03-14T16:00:08.000Z</time>
      </trkpt>
      <trkpt lat="45.89204" lon="4.47279">
        <ele>497.79998779297</ele>
        <time>2020-03-14T16:00:09.000Z</time>
      </trkpt>
      <trkpt lat="45.89205" lon="4.47279">
        <ele>498</ele>
        <time>2020-03-14T16:00:10.000Z</time>
      </trkpt>
      <trkpt lat="45.89206" lon="4.47279">
        <ele>498</ele>
        <time>2020-03-14T16:00:11.000Z</time>
      </trkpt>
      <trkpt lat="45.89207" lon="4.4728">
        <ele>498.20001220703</ele>
        <time>2020-03-14T16:00:12.000Z</time>
      </trkpt>
      <trkpt lat="45.89207" lon="4.4728">
        <ele>498.20001220703</ele>
        <time>2020-03-14T16:00:13.000Z</time>
      </trkpt>
      <trkpt lat="45.89208" lon="4.47281">
        <ele>498.60000610352</ele>
        <time>2020-03-14T16:00:14.000Z</time>
      </trkpt>
      <trkpt lat="45.89209" lon="4.47281">
        <ele>498.60000610352</ele>
        <time>2020-03-14T16:00:15.000Z</time>
      </trkpt>
      <trkpt lat="45.8921" lon="4.47281">
        <ele>498.79998779297</ele>
        <time>2020-03-14T16:00:16.000Z</time>
      </trkpt>
      <trkpt lat="45.89212" lon="4.47282">
        <ele>499</ele>
        <time>2020-03-14T16:00:17.000Z</time>
      </trkpt>
      <trkpt lat="45.89213" lon="4.47282">
        <ele>499.20001220703</ele>
        <time>2020-03-14T16:00:18.000Z</time>
      </trkpt>
      <trkpt lat="45.89214" lon="4.47283">
        <ele>499.60000610352</ele>
        <time>2020-03-14T16:00:19.000Z</time>
      </trkpt>
      <trkpt lat="45.89215" lon="4.47283">
        <ele>500</ele>
        <time>2020-03-14T16:00:20.000Z</time>
      </trkpt>
      <trkpt lat="45.89216" lon="4.47284">
        <ele>500.39999389648</ele>
        <time>2020-03-14T16:00:21.000Z</time>
      </trkpt>
      <trkpt lat="45.89217" lon="4.47284">
        <ele>500.60000610352</ele>
        <time>2020-03-14T16:00:22.000Z</time>
      </trkpt>
      <trkpt lat="45.89218" lon="4.47285">
        <ele>500.60000610352</ele>
        <time>2020-03-14T16:00:23.000Z</time>
      </trkpt>
      <trkpt lat="45.89219" lon="4.47285">
        <ele>500.60000610352</ele>
        <time>2020-03-14T16:00:24.000Z</time>
      </trkpt>
      <trkpt lat="45.8922" lon="4.47285">
        <ele>500.79998779297</ele>
        <time>2020-03-14T16:00:25.000Z</time>
      </trkpt>
      <trkpt lat="45.8922" lon="4.47286">
        <ele>500.79998779297</ele>
        <time>2020-03-14T16:00:26.000Z</time>
      </trkpt>
      <trkpt lat="45.89221" lon="4.47287">
        <ele>501</ele>
        <time>2020-03-14T16:00:27.000Z</time>
      </trkpt>
      <trkpt lat="45.89222" lon="4.47288">
        <ele>501.39999389648</ele>
        <time>2020-03-14T16:00:28.000Z</time>
      </trkpt>
      <trkpt lat="45.89223" lon="4.47288">
        <ele>501.39999389648</ele>
        <time>2020-03-14T16:00:29.000Z</time>
      </trkpt>
      <trkpt lat="45.89224" lon="4.47289">
        <ele>501.60000610352</ele>
        <time>2020-03-14T16:00:30.000Z</time>
      </trkpt>
      <trkpt lat="45.89225" lon="4.47289">
        <ele>501.60000610352</ele>
        <time>2020-03-14T16:00:31.000Z</time>
      </trkpt>
      <trkpt lat="45.89226" lon="4.4729">
        <ele>501.79998779297</ele>
        <time>2020-03-14T16:00:32.000Z</time>
      </trkpt>
      <trkpt lat="45.89227" lon="4.47291">
        <ele>501.79998779297</ele>
        <time>2020-03-14T16:00:33.000Z</time>
      </trkpt>
      <trkpt lat="45.89228" lon="4.47291">
        <ele>501.79998779297</ele>
        <time>2020-03-14T16:00:34.000Z</time>
      </trkpt>
      <trkpt lat="45.89229" lon="4.47292">
        <ele>502</ele>
        <time>2020-03-14T16:00:35.000Z</time>
      </trkpt>
      <trkpt lat="45.8923" lon="4.47292">
        <ele>502</ele>
        <time>2020-03-14T16:00:36.000Z</time>
      </trkpt>
      <trkpt lat="45.89231" lon="4.47293">
        <ele>502.20001220703</ele>
        <time>2020-03-14T16:00:37.000Z</time>
      </trkpt>
      <trkpt lat="45.89232" lon="4.47294">
        <ele>502.39999389648</ele>
        <time>2020-03-14T16:00:38.000Z</time>
      </trkpt>
      <trkpt lat="45.89233" lon="4.47294">
        <ele>502.39999389648</ele>
        <time>2020-03-14T16:00:39.000Z</time>
      </trkpt>
      <trkpt lat="45.89234" lon="4.47294">
        <ele>502.60000610352</ele>
        <time>2020-03-14T16:00:40.000Z</time>
      </trkpt>
      <trkpt lat="45.89234" lon="4.47294">
        <ele>502.60000610352</ele>
        <time>2020-03-14T16:00:41.000Z</time>
      </trkpt>
      <trkpt lat="45.89234" lon="4.47294">
        <ele>502.60000610352</ele>
        <time>2020-03-14T16:00:42.000Z</time>
      </trkpt>
      <trkpt lat="45.89234" lon="4.47294">
        <ele>502.79998779297</ele>
        <time>2020-03-14T16:00:43.000Z</time>
      </trkpt>
      <trkpt lat="45.89233" lon="4.47293">
        <ele>502.79998779297</ele>
        <time>2020-03-14T16:00:44.000Z</time>
      </trkpt>
      <trkpt lat="45.89233" lon="4.47294">
        <ele>502.79998779297</ele>
        <time>2020-03-14T16:00:45.000Z</time>
      </trkpt>
      <trkpt lat="45.89233" lon="4.47294">
        <ele>502.79998779297</ele>
        <time>2020-03-14T16:00:46.000Z</time>
      </trkpt>
      <trkpt lat="45.89233" lon="4.47294">
        <ele>502.60000610352</ele>
        <time>2020-03-14T16:00:47.000Z</time>
      </trkpt>
      <trkpt lat="45.89232" lon="4.47293">
        <ele>502.20001220703</ele>
        <time>2020-03-14T16:00:48.000Z</time>
      </trkpt>
      <trkpt lat="45.89232" lon="4.47293">
        <ele>501.79998779297</ele>
        <time>2020-03-14T16:00:49.000Z</time>
      </trkpt>
      <trkpt lat="45.89232" lon="4.47293">
        <ele>501.60000610352</ele>
        <time>2020-03-14T16:00:50.000Z</time>
      </trkpt>
      <trkpt lat="45.89232" lon="4.47293">
        <ele>501.39999389648</ele>
        <time>2020-03-14T16:00:51.000Z</time>
      </trkpt>
      <trkpt lat="45.89232" lon="4.47293">
        <ele>501.39999389648</ele>
        <time>2020-03-14T16:00:52.000Z</time>
      </trkpt>
      <trkpt lat="45.89232" lon="4.47293">
        <ele>501.39999389648</ele>
        <time>2020-03-14T16:00:53.000Z</time>
      </trkpt>
      <trkpt lat="45.89232" lon="4.47293">
        <ele>501.20001220703</ele>
        <time>2020-03-14T16:00:54.000Z</time>
      </trkpt>
      <trkpt lat="45.89232" lon="4.47293">
        <ele>501.20001220703</ele>
        <time>2020-03-14T16:00:55.000Z</time>
      </trkpt>
      <trkpt lat="45.89232" lon="4.47293">
        <ele>501.20001220703</ele>
        <time>2020-03-14T16:00:56.000Z</time>
      </trkpt>
      <trkpt lat="45.89232" lon="4.47293">
        <ele>501.20001220703</ele>
        <time>2020-03-14T16:00:57.000Z</time>
      </trkpt>
      <trkpt lat="45.89232" lon="4.47293">
        <ele>501.20001220703</ele>
        <time>2020-03-14T16:00:58.000Z</time>
      </trkpt>
      <trkpt lat="45.89232" lon="4.47293">
        <ele>501.20001220703</ele>
        <time>2020-03-14T16:00:59.000Z</time>
      </trkpt>
      <trkpt lat="45.89232" lon="4.47292">
        <ele>501.20001220703</ele>
        <time>2020-03-14T16:01:00.000Z</time>
      </trkpt>
      <trkpt lat="45.89232" lon="4.47292">
        <ele>501.20001220703</ele>
        <time>2020-03-14T16:01:01.000Z</time>
      </trkpt>
      <trkpt lat="45.89232" lon="4.47292">
        <ele>501.39999389648</ele>
        <time>2020-03-14T16:01:02.000Z</time>
      </trkpt>
      <trkpt lat="45.89232" lon="4.47293">
        <ele>501.60000610352</ele>
        <time>2020-03-14T16:01:03.000Z</time>
      </trkpt>
      <trkpt lat="45.89232" lon="4.47293">
        <ele>501.60000610352</ele>
        <time>2020-03-14T16:01:04.000Z</time>
      </trkpt>
      <trkpt lat="45.89232" lon="4.47293">
        <ele>501.79998779297</ele>
        <time>2020-03-14T16:01:05.000Z</time>
      </trkpt>
      <trkpt lat="45.89232" lon="4.47293">
        <ele>501.79998779297</ele>
        <time>2020-03-14T16:01:06.000Z</time>
      </trkpt>
      <trkpt lat="45.89232" lon="4.47293">
        <ele>501.79998779297</ele>
        <time>2020-03-14T16:01:07.000Z</time>
      </trkpt>
      <trkpt lat="45.89232" lon="4.47293">
        <ele>501.79998779297</ele>
        <time>2020-03-14T16:01:08.000Z</time>
      </trkpt>
      <trkpt lat="45.89232" lon="4.47293">
        <ele>501.79998779297</ele>
        <time>2020-03-14T16:01:09.000Z</time>
      </trkpt>
      <trkpt lat="45.89232" lon="4.47293">
        <ele>501.79998779297</ele>
        <time>2020-03-14T16:01:10.000Z</time>
      </trkpt>
      <trkpt lat="45.89232" lon="4.47293">
        <ele>501.79998779297</ele>
        <time>2020-03-14T16:01:11.000Z</time>
      </trkpt>
      <trkpt lat="45.89232" lon="4.47293">
        <ele>501.79998779297</ele>
        <time>2020-03-14T16:01:12.000Z</time>
      </trkpt>
      <trkpt lat="45.89232" lon="4.47293">
        <ele>501.60000610352</ele>
        <time>2020-03-14T16:01:13.000Z</time>
      </trkpt>
      <trkpt lat="45.89232" lon="4.47293">
        <ele>501.39999389648</ele>
        <time>2020-03-14T16:01:14.000Z</time>
      </trkpt>
      <trkpt lat="45.89232" lon="4.47293">
        <ele>501.39999389648</ele>
        <time>2020-03-14T16:01:15.000Z</time>
      </trkpt>
      <trkpt lat="45.89232" lon="4.47293">
        <ele>501.20001220703</ele>
        <time>2020-03-14T16:01:16.000Z</time>
      </trkpt>
      <trkpt lat="45.89232" lon="4.47293">
        <ele>501</ele>
        <time>2020-03-14T16:01:17.000Z</time>
      </trkpt>
      <trkpt lat="45.89232" lon="4.47294">
        <ele>500.79998779297</ele>
        <time>2020-03-14T16:01:18.000Z</time>
      </trkpt>
      <trkpt lat="45.89232" lon="4.47293">
        <ele>500.79998779297</ele>
        <time>2020-03-14T16:01:19.000Z</time>
      </trkpt>
      <trkpt lat="45.89232" lon="4.47294">
        <ele>500.60000610352</ele>
        <time>2020-03-14T16:01:20.000Z</time>
      </trkpt>
      <trkpt lat="45.89232" lon="4.47293">
        <ele>500.60000610352</ele>
        <time>2020-03-14T16:01:21.000Z</time>
      </trkpt>
      <trkpt lat="45.89232" lon="4.47293">
        <ele>500.60000610352</ele>
        <time>2020-03-14T16:01:22.000Z</time>
      </trkpt>
      <trkpt lat="45.89232" lon="4.47293">
        <ele>500.79998779297</ele>
        <time>2020-03-14T16:01:23.000Z</time>
      </trkpt>
      <trkpt lat="45.89232" lon="4.47293">
        <ele>501</ele>
        <time>2020-03-14T16:01:24.000Z</time>
      </trkpt>
      <trkpt lat="45.89232" lon="4.47293">
        <ele>501</ele>
        <time>2020-03-14T16:01:25.000Z</time>
      </trkpt>
      <trkpt lat="45.89232" lon="4.47293">
        <ele>501.20001220703</ele>
        <time>2020-03-14T16:01:26.000Z</time>
      </trkpt>
      <trkpt lat="45.89232" lon="4.47293">
        <ele>501.39999389648</ele>
        <time>2020-03-14T16:01:27.000Z</time>
      </trkpt>
      <trkpt lat="45.89232" lon="4.47293">
        <ele>501.60000610352</ele>
        <time>2020-03-14T16:01:28.000Z</time>
      </trkpt>
      <trkpt lat="45.89232" lon="4.47293">
        <ele>501.60000610352</ele>
        <time>2020-03-14T16:01:29.000Z</time>
      </trkpt>
      <trkpt lat="45.89232" lon="4.47294">
        <ele>501.79998779297</ele>
        <time>2020-03-14T16:01:30.000Z</time>
      </trkpt>
      <trkpt lat="45.89232" lon="4.47294">
        <ele>501.79998779297</ele>
        <time>2020-03-14T16:01:31.000Z</time>
      </trkpt>
      <trkpt lat="45.89233" lon="4.47294">
        <ele>502</ele>
        <time>2020-03-14T16:01:32.000Z</time>
      </trkpt>
      <trkpt lat="45.89233" lon="4.47294">
        <ele>502.39999389648</ele>
        <time>2020-03-14T16:01:33.000Z</time>
      </trkpt>
      <trkpt lat="45.89233" lon="4.47295">
        <ele>502.60000610352</ele>
        <time>2020-03-14T16:01:34.000Z</time>
      </trkpt>
      <trkpt lat="45.89233" lon="4.47294">
        <ele>502.79998779297</ele>
        <time>2020-03-14T16:01:35.000Z</time>
      </trkpt>
      <trkpt lat="45.89233" lon="4.47294">
        <ele>502.60000610352</ele>
        <time>2020-03-14T16:01:36.000Z</time>
      </trkpt>
      <trkpt lat="45.89233" lon="4.47294">
        <ele>502.60000610352</ele>
        <time>2020-03-14T16:01:37.000Z</time>
      </trkpt>
      <trkpt lat="45.89233" lon="4.47294">
        <ele>502.60000610352</ele>
        <time>2020-03-14T16:01:38.000Z</time>
      </trkpt>
      <trkpt lat="45.89233" lon="4.47294">
        <ele>502.39999389648</ele>
        <time>2020-03-14T16:01:39.000Z</time>
      </trkpt>
      <trkpt lat="45.89233" lon="4.47294">
        <ele>502.20001220703</ele>
        <time>2020-03-14T16:01:40.000Z</time>
      </trkpt>
      <trkpt lat="45.89233" lon="4.47294">
        <ele>502</ele>
        <time>2020-03-14T16:01:41.000Z</time>
      </trkpt>
      <trkpt lat="45.89233" lon="4.47295">
        <ele>502</ele>
        <time>2020-03-14T16:01:42.000Z</time>
      </trkpt>
      <trkpt lat="45.89233" lon="4.47295">
        <ele>501.79998779297</ele>
        <time>2020-03-14T16:01:43.000Z</time>
      </trkpt>
      <trkpt lat="45.89233" lon="4.47295">
        <ele>501.60000610352</ele>
        <time>2020-03-14T16:01:44.000Z</time>
      </trkpt>
      <trkpt lat="45.89233" lon="4.47294">
        <ele>501.39999389648</ele>
        <time>2020-03-14T16:01:45.000Z</time>
      </trkpt>
      <trkpt lat="45.89233" lon="4.47294">
        <ele>501.20001220703</ele>
        <time>2020-03-14T16:01:46.000Z</time>
      </trkpt>
      <trkpt lat="45.89233" lon="4.47295">
        <ele>501.20001220703</ele>
        <time>2020-03-14T16:01:47.000Z</time>
      </trkpt>
      <trkpt lat="45.89233" lon="4.47295">
        <ele>501.20001220703</ele>
        <time>2020-03-14T16:01:48.000Z</time>
      </trkpt>
      <trkpt lat="45.89233" lon="4.47295">
        <ele>501.20001220703</ele>
        <time>2020-03-14T16:01:49.000Z</time>
      </trkpt>
      <trkpt lat="45.89233" lon="4.47294">
        <ele>501.39999389648</ele>
        <time>2020-03-14T16:01:50.000Z</time>
      </trkpt>
      <trkpt lat="45.89233" lon="4.47294">
        <ele>501.39999389648</ele>
        <time>2020-03-14T16:01:51.000Z</time>
      </trkpt>
      <trkpt lat="45.89233" lon="4.47294">
        <ele>501.60000610352</ele>
        <time>2020-03-14T16:01:52.000Z</time>
      </trkpt>
      <trkpt lat="45.89233" lon="4.47294">
        <ele>501.79998779297</ele>
        <time>2020-03-14T16:01:53.000Z</time>
      </trkpt>
      <trkpt lat="45.89233" lon="4.47294">
        <ele>502</ele>
        <time>2020-03-14T16:01:54.000Z</time>
      </trkpt>
      <trkpt lat="45.89233" lon="4.47294">
        <ele>502</ele>
        <time>2020-03-14T16:01:55.000Z</time>
      </trkpt>
      <trkpt lat="45.89233" lon="4.47294">
        <ele>502.20001220703</ele>
        <time>2020-03-14T16:01:56.000Z</time>
      </trkpt>
      <trkpt lat="45.89233" lon="4.47294">
        <ele>502.20001220703</ele>
        <time>2020-03-14T16:01:57.000Z</time>
      </trkpt>
      <trkpt lat="45.89233" lon="4.47294">
        <ele>502.39999389648</ele>
        <time>2020-03-14T16:01:58.000Z</time>
      </trkpt>
      <trkpt lat="45.89233" lon="4.47294">
        <ele>502.39999389648</ele>
        <time>2020-03-14T16:01:59.000Z</time>
      </trkpt>
      <trkpt lat="45.89233" lon="4.47294">
        <ele>502.60000610352</ele>
        <time>2020-03-14T16:02:00.000Z</time>
      </trkpt>
      <trkpt lat="45.89233" lon="4.47294">
        <ele>502.60000610352</ele>
        <time>2020-03-14T16:02:01.000Z</time>
      </trkpt>
      <trkpt lat="45.89233" lon="4.47294">
        <ele>502.60000610352</ele>
        <time>2020-03-14T16:02:02.000Z</time>
      </trkpt>
      <trkpt lat="45.89233" lon="4.47294">
        <ele>502.60000610352</ele>
        <time>2020-03-14T16:02:03.000Z</time>
      </trkpt>
      <trkpt lat="45.89233" lon="4.47294">
        <ele>502.60000610352</ele>
        <time>2020-03-14T16:02:04.000Z</time>
      </trkpt>
      <trkpt lat="45.89233" lon="4.47294">
        <ele>502.60000610352</ele>
        <time>2020-03-14T16:02:05.000Z</time>
      </trkpt>
      <trkpt lat="45.89233" lon="4.47294">
        <ele>502.60000610352</ele>
        <time>2020-03-14T16:02:06.000Z</time>
      </trkpt>
      <trkpt lat="45.89233" lon="4.47294">
        <ele>502.60000610352</ele>
        <time>2020-03-14T16:02:07.000Z</time>
      </trkpt>
      <trkpt lat="45.89233" lon="4.47294">
        <ele>502.39999389648</ele>
        <time>2020-03-14T16:02:08.000Z</time>
      </trkpt>
      <trkpt lat="45.89233" lon="4.47294">
        <ele>502.20001220703</ele>
        <time>2020-03-14T16:02:09.000Z</time>
      </trkpt>
      <trkpt lat="45.89233" lon="4.47294">
        <ele>502.20001220703</ele>
        <time>2020-03-14T16:02:10.000Z</time>
      </trkpt>
      <trkpt lat="45.89233" lon="4.47293">
        <ele>502</ele>
        <time>2020-03-14T16:02:11.000Z</time>
      </trkpt>
      <trkpt lat="45.89233" lon="4.47293">
        <ele>502</ele>
        <time>2020-03-14T16:02:12.000Z</time>
      </trkpt>
      <trkpt lat="45.89233" lon="4.47293">
        <ele>502</ele>
        <time>2020-03-14T16:02:13.000Z</time>
      </trkpt>
      <trkpt lat="45.89233" lon="4.47293">
        <ele>501.79998779297</ele>
        <time>2020-03-14T16:02:14.000Z</time>
      </trkpt>
      <trkpt lat="45.89232" lon="4.47293">
        <ele>501.79998779297</ele>
        <time>2020-03-14T16:02:15.000Z</time>
      </trkpt>
      <trkpt lat="45.89232" lon="4.47293">
        <ele>501.60000610352</ele>
        <time>2020-03-14T16:02:16.000Z</time>
      </trkpt>
      <trkpt lat="45.89232" lon="4.47294">
        <ele>501.79998779297</ele>
        <time>2020-03-14T16:02:17.000Z</time>
      </trkpt>
      <trkpt lat="45.89232" lon="4.47294">
        <ele>501.79998779297</ele>
        <time>2020-03-14T16:02:18.000Z</time>
      </trkpt>
      <trkpt lat="45.89232" lon="4.47294">
        <ele>501.60000610352</ele>
        <time>2020-03-14T16:02:19.000Z</time>
      </trkpt>
      <trkpt lat="45.89232" lon="4.47293">
        <ele>501.79998779297</ele>
        <time>2020-03-14T16:02:20.000Z</time>
      </trkpt>
      <trkpt lat="45.89232" lon="4.47293">
        <ele>502</ele>
        <time>2020-03-14T16:02:21.000Z</time>
      </trkpt>
      <trkpt lat="45.89232" lon="4.47294">
        <ele>502.20001220703</ele>
        <time>2020-03-14T16:02:22.000Z</time>
      </trkpt>
      <trkpt lat="45.89232" lon="4.47294">
        <ele>502.20001220703</ele>
        <time>2020-03-14T16:02:23.000Z</time>
      </trkpt>
      <trkpt lat="45.89232" lon="4.47294">
        <ele>502.39999389648</ele>
        <time>2020-03-14T16:02:24.000Z</time>
      </trkpt>
      <trkpt lat="45.89232" lon="4.47294">
        <ele>502.39999389648</ele>
        <time>2020-03-14T16:02:25.000Z</time>
      </trkpt>
      <trkpt lat="45.89232" lon="4.47294">
        <ele>502.60000610352</ele>
        <time>2020-03-14T16:02:26.000Z</time>
      </trkpt>
      <trkpt lat="45.89232" lon="4.47294">
        <ele>502.60000610352</ele>
        <time>2020-03-14T16:02:27.000Z</time>
      </trkpt>
      <trkpt lat="45.89233" lon="4.47294">
        <ele>502.60000610352</ele>
        <time>2020-03-14T16:02:28.000Z</time>
      </trkpt>
      <trkpt lat="45.89233" lon="4.47294">
        <ele>502.39999389648</ele>
        <time>2020-03-14T16:02:29.000Z</time>
      </trkpt>
      <trkpt lat="45.89233" lon="4.47294">
        <ele>502.20001220703</ele>
        <time>2020-03-14T16:02:30.000Z</time>
      </trkpt>
      <trkpt lat="45.89233" lon="4.47294">
        <ele>502</ele>
        <time>2020-03-14T16:02:31.000Z</time>
      </trkpt>
      <trkpt lat="45.89233" lon="4.47294">
        <ele>501.79998779297</ele>
        <time>2020-03-14T16:02:32.000Z</time>
      </trkpt>
      <trkpt lat="45.89233" lon="4.47295">
        <ele>501.79998779297</ele>
        <time>2020-03-14T16:02:33.000Z</time>
      </trkpt>
      <trkpt lat="45.89233" lon="4.47295">
        <ele>501.79998779297</ele>
        <time>2020-03-14T16:02:34.000Z</time>
      </trkpt>
      <trkpt lat="45.89233" lon="4.47295">
        <ele>501.60000610352</ele>
        <time>2020-03-14T16:02:35.000Z</time>
      </trkpt>
      <trkpt lat="45.89233" lon="4.47295">
        <ele>501.60000610352</ele>
        <time>2020-03-14T16:02:36.000Z</time>
      </trkpt>
      <trkpt lat="45.89233" lon="4.47295">
        <ele>501.60000610352</ele>
        <time>2020-03-14T16:02:37.000Z</time>
      </trkpt>
      <trkpt lat="45.89233" lon="4.47295">
        <ele>501.39999389648</ele>
        <time>2020-03-14T16:02:38.000Z</time>
      </trkpt>
      <trkpt lat="45.89233" lon="4.47295">
        <ele>501.39999389648</ele>
        <time>2020-03-14T16:02:39.000Z</time>
      </trkpt>
      <trkpt lat="45.89233" lon="4.47295">
        <ele>501.39999389648</ele>
        <time>2020-03-14T16:02:40.000Z</time>
      </trkpt>
      <trkpt lat="45.89233" lon="4.47295">
        <ele>501.39999389648</ele>
        <time>2020-03-14T16:02:41.000Z</time>
      </trkpt>
      <trkpt lat="45.89233" lon="4.47294">
        <ele>501.39999389648</ele>
        <time>2020-03-14T16:02:42.000Z</time>
      </trkpt>
      <trkpt lat="45.89233" lon="4.47294">
        <ele>501.60000610352</ele>
        <time>2020-03-14T16:02:43.000Z</time>
      </trkpt>
      <trkpt lat="45.89233" lon="4.47294">
        <ele>501.60000610352</ele>
        <time>2020-03-14T16:02:44.000Z</time>
      </trkpt>
      <trkpt lat="45.89233" lon="4.47294">
        <ele>501.79998779297</ele>
        <time>2020-03-14T16:02:45.000Z</time>
      </trkpt>
      <trkpt lat="45.89233" lon="4.47294">
        <ele>502</ele>
        <time>2020-03-14T16:02:46.000Z</time>
      </trkpt>
      <trkpt lat="45.89233" lon="4.47294">
        <ele>502</ele>
        <time>2020-03-14T16:02:47.000Z</time>
      </trkpt>
      <trkpt lat="45.89233" lon="4.47294">
        <ele>502.20001220703</ele>
        <time>2020-03-14T16:02:48.000Z</time>
      </trkpt>
      <trkpt lat="45.89233" lon="4.47294">
        <ele>502.20001220703</ele>
        <time>2020-03-14T16:02:49.000Z</time>
      </trkpt>
      <trkpt lat="45.89233" lon="4.47294">
        <ele>502.39999389648</ele>
        <time>2020-03-14T16:02:50.000Z</time>
      </trkpt>
      <trkpt lat="45.89233" lon="4.47294">
        <ele>502.39999389648</ele>
        <time>2020-03-14T16:02:51.000Z</time>
      </trkpt>
      <trkpt lat="45.89233" lon="4.47294">
        <ele>502.60000610352</ele>
        <time>2020-03-14T16:02:52.000Z</time>
      </trkpt>
      <trkpt lat="45.89233" lon="4.47294">
        <ele>502.60000610352</ele>
        <time>2020-03-14T16:02:53.000Z</time>
      </trkpt>
      <trkpt lat="45.89233" lon="4.47294">
        <ele>502.60000610352</ele>
        <time>2020-03-14T16:02:54.000Z</time>
      </trkpt>
      <trkpt lat="45.89233" lon="4.47294">
        <ele>502.60000610352</ele>
        <time>2020-03-14T16:02:55.000Z</time>
      </trkpt>
      <trkpt lat="45.89233" lon="4.47294">
        <ele>502.60000610352</ele>
        <time>2020-03-14T16:02:56.000Z</time>
      </trkpt>
      <trkpt lat="45.89233" lon="4.47294">
        <ele>502.60000610352</ele>
        <time>2020-03-14T16:02:57.000Z</time>
      </trkpt>
      <trkpt lat="45.89234" lon="4.47294">
        <ele>502.39999389648</ele>
        <time>2020-03-14T16:02:58.000Z</time>
      </trkpt>
      <trkpt lat="45.89234" lon="4.47294">
        <ele>502.39999389648</ele>
        <time>2020-03-14T16:02:59.000Z</time>
      </trkpt>
      <trkpt lat="45.89234" lon="4.47294">
        <ele>502.60000610352</ele>
        <time>2020-03-14T16:03:00.000Z</time>
      </trkpt>
      <trkpt lat="45.89234" lon="4.47294">
        <ele>502.39999389648</ele>
        <time>2020-03-14T16:03:01.000Z</time>
      </trkpt>
      <trkpt lat="45.89234" lon="4.47294">
        <ele>502.60000610352</ele>
        <time>2020-03-14T16:03:02.000Z</time>
      </trkpt>
      <trkpt lat="45.89234" lon="4.47295">
        <ele>502.60000610352</ele>
        <time>2020-03-14T16:03:03.000Z</time>
      </trkpt>
      <trkpt lat="45.89234" lon="4.47295">
        <ele>502.39999389648</ele>
        <time>2020-03-14T16:03:04.000Z</time>
      </trkpt>
      <trkpt lat="45.89234" lon="4.47295">
        <ele>502.60000610352</ele>
        <time>2020-03-14T16:03:05.000Z</time>
      </trkpt>
      <trkpt lat="45.89234" lon="4.47295">
        <ele>502.60000610352</ele>
        <time>2020-03-14T16:03:06.000Z</time>
      </trkpt>
      <trkpt lat="45.89234" lon="4.47295">
        <ele>502.60000610352</ele>
        <time>2020-03-14T16:03:07.000Z</time>
      </trkpt>
      <trkpt lat="45.89234" lon="4.47295">
        <ele>502.60000610352</ele>
        <time>2020-03-14T16:03:08.000Z</time>
      </trkpt>
      <trkpt lat="45.89234" lon="4.47295">
        <ele>502.60000610352</ele>
        <time>2020-03-14T16:03:09.000Z</time>
      </trkpt>
      <trkpt lat="45.89234" lon="4.47294">
        <ele>502.60000610352</ele>
        <time>2020-03-14T16:03:10.000Z</time>
      </trkpt>
      <trkpt lat="45.89234" lon="4.47294">
        <ele>502.60000610352</ele>
        <time>2020-03-14T16:03:11.000Z</time>
      </trkpt>
      <trkpt lat="45.89234" lon="4.47294">
        <ele>502.60000610352</ele>
        <time>2020-03-14T16:03:12.000Z</time>
      </trkpt>
      <trkpt lat="45.89234" lon="4.47294">
        <ele>502.60000610352</ele>
        <time>2020-03-14T16:03:13.000Z</time>
      </trkpt>
      <trkpt lat="45.89234" lon="4.47294">
        <ele>502.60000610352</ele>
        <time>2020-03-14T16:03:14.000Z</time>
      </trkpt>
      <trkpt lat="45.89234" lon="4.47294">
        <ele>502.60000610352</ele>
        <time>2020-03-14T16:03:15.000Z</time>
      </trkpt>
      <trkpt lat="45.89234" lon="4.47294">
        <ele>502.60000610352</ele>
        <time>2020-03-14T16:03:16.000Z</time>
      </trkpt>
      <trkpt lat="45.89234" lon="4.47294">
        <ele>502.60000610352</ele>
        <time>2020-03-14T16:03:17.000Z</time>
      </trkpt>
      <trkpt lat="45.89234" lon="4.47294">
        <ele>502.39999389648</ele>
        <time>2020-03-14T16:03:18.000Z</time>
      </trkpt>
      <trkpt lat="45.89234" lon="4.47294">
        <ele>502.39999389648</ele>
        <time>2020-03-14T16:03:19.000Z</time>
      </trkpt>
      <trkpt lat="45.89234" lon="4.47294">
        <ele>502.20001220703</ele>
        <time>2020-03-14T16:03:20.000Z</time>
      </trkpt>
      <trkpt lat="45.89234" lon="4.47294">
        <ele>502.20001220703</ele>
        <time>2020-03-14T16:03:21.000Z</time>
      </trkpt>
      <trkpt lat="45.89234" lon="4.47294">
        <ele>502</ele>
        <time>2020-03-14T16:03:22.000Z</time>
      </trkpt>
      <trkpt lat="45.89234" lon="4.47294">
        <ele>502</ele>
        <time>2020-03-14T16:03:23.000Z</time>
      </trkpt>
      <trkpt lat="45.89234" lon="4.47294">
        <ele>501.79998779297</ele>
        <time>2020-03-14T16:03:24.000Z</time>
      </trkpt>
      <trkpt lat="45.89234" lon="4.47294">
        <ele>501.60000610352</ele>
        <time>2020-03-14T16:03:25.000Z</time>
      </trkpt>
      <trkpt lat="45.89234" lon="4.47294">
        <ele>501.60000610352</ele>
        <time>2020-03-14T16:03:26.000Z</time>
      </trkpt>
      <trkpt lat="45.89234" lon="4.47294">
        <ele>501.60000610352</ele>
        <time>2020-03-14T16:03:27.000Z</time>
      </trkpt>
      <trkpt lat="45.89234" lon="4.47294">
        <ele>501.60000610352</ele>
        <time>2020-03-14T16:03:28.000Z</time>
      </trkpt>
      <trkpt lat="45.89234" lon="4.47294">
        <ele>501.60000610352</ele>
        <time>2020-03-14T16:03:29.000Z</time>
      </trkpt>
      <trkpt lat="45.89234" lon="4.47295">
        <ele>501.60000610352</ele>
        <time>2020-03-14T16:03:30.000Z</time>
      </trkpt>
      <trkpt lat="45.89235" lon="4.47295">
        <ele>501.60000610352</ele>
        <time>2020-03-14T16:03:31.000Z</time>
      </trkpt>
      <trkpt lat="45.89235" lon="4.47295">
        <ele>501.60000610352</ele>
        <time>2020-03-14T16:03:32.000Z</time>
      </trkpt>
      <trkpt lat="45.89235" lon="4.47295">
        <ele>501.60000610352</ele>
        <time>2020-03-14T16:03:33.000Z</time>
      </trkpt>
      <trkpt lat="45.89235" lon="4.47295">
        <ele>501.60000610352</ele>
        <time>2020-03-14T16:03:34.000Z</time>
      </trkpt>
      <trkpt lat="45.89235" lon="4.47295">
        <ele>501.60000610352</ele>
        <time>2020-03-14T16:03:35.000Z</time>
      </trkpt>
      <trkpt lat="45.89235" lon="4.47295">
        <ele>501.60000610352</ele>
        <time>2020-03-14T16:03:36.000Z</time>
      </trkpt>
      <trkpt lat="45.89235" lon="4.47295">
        <ele>501.60000610352</ele>
        <time>2020-03-14T16:03:37.000Z</time>
      </trkpt>
      <trkpt lat="45.89235" lon="4.47295">
        <ele>501.60000610352</ele>
        <time>2020-03-14T16:03:38.000Z</time>
      </trkpt>
      <trkpt lat="45.89235" lon="4.47295">
        <ele>501.60000610352</ele>
        <time>2020-03-14T16:03:39.000Z</time>
      </trkpt>
      <trkpt lat="45.89235" lon="4.47295">
        <ele>501.60000610352</ele>
        <time>2020-03-14T16:03:40.000Z</time>
      </trkpt>
      <trkpt lat="45.89235" lon="4.47295">
        <ele>501.60000610352</ele>
        <time>2020-03-14T16:03:41.000Z</time>
      </trkpt>
      <trkpt lat="45.89235" lon="4.47295">
        <ele>501.60000610352</ele>
        <time>2020-03-14T16:03:42.000Z</time>
      </trkpt>
      <trkpt lat="45.89235" lon="4.47295">
        <ele>501.39999389648</ele>
        <time>2020-03-14T16:03:43.000Z</time>
      </trkpt>
      <trkpt lat="45.89235" lon="4.47296">
        <ele>501.39999389648</ele>
        <time>2020-03-14T16:03:44.000Z</time>
      </trkpt>
      <trkpt lat="45.89235" lon="4.47296">
        <ele>501.39999389648</ele>
        <time>2020-03-14T16:03:45.000Z</time>
      </trkpt>
      <trkpt lat="45.89235" lon="4.47296">
        <ele>501.39999389648</ele>
        <time>2020-03-14T16:03:46.000Z</time>
      </trkpt>
      <trkpt lat="45.89235" lon="4.47295">
        <ele>501.20001220703</ele>
        <time>2020-03-14T16:03:47.000Z</time>
      </trkpt>
      <trkpt lat="45.89235" lon="4.47295">
        <ele>501.20001220703</ele>
        <time>2020-03-14T16:03:48.000Z</time>
      </trkpt>
      <trkpt lat="45.89235" lon="4.47296">
        <ele>501.20001220703</ele>
        <time>2020-03-14T16:03:49.000Z</time>
      </trkpt>
      <trkpt lat="45.89236" lon="4.47296">
        <ele>501.20001220703</ele>
        <time>2020-03-14T16:03:50.000Z</time>
      </trkpt>
      <trkpt lat="45.89236" lon="4.47296">
        <ele>501.20001220703</ele>
        <time>2020-03-14T16:03:51.000Z</time>
      </trkpt>
      <trkpt lat="45.89236" lon="4.47296">
        <ele>501.20001220703</ele>
        <time>2020-03-14T16:03:52.000Z</time>
      </trkpt>
      <trkpt lat="45.89236" lon="4.47296">
        <ele>501.20001220703</ele>
        <time>2020-03-14T16:03:53.000Z</time>
      </trkpt>
      <trkpt lat="45.89236" lon="4.47296">
        <ele>501.20001220703</ele>
        <time>2020-03-14T16:03:54.000Z</time>
      </trkpt>
      <trkpt lat="45.89236" lon="4.47296">
        <ele>501.20001220703</ele>
        <time>2020-03-14T16:03:55.000Z</time>
      </trkpt>
      <trkpt lat="45.89236" lon="4.47296">
        <ele>501.20001220703</ele>
        <time>2020-03-14T16:03:56.000Z</time>
      </trkpt>
      <trkpt lat="45.89236" lon="4.47296">
        <ele>501.20001220703</ele>
        <time>2020-03-14T16:03:57.000Z</time>
      </trkpt>
      <trkpt lat="45.89237" lon="4.47296">
        <ele>501.20001220703</ele>
        <time>2020-03-14T16:03:58.000Z</time>
      </trkpt>
      <trkpt lat="45.89237" lon="4.47296">
        <ele>501</ele>
        <time>2020-03-14T16:03:59.000Z</time>
      </trkpt>
      <trkpt lat="45.89236" lon="4.47296">
        <ele>501</ele>
        <time>2020-03-14T16:04:00.000Z</time>
      </trkpt>
      <trkpt lat="45.89236" lon="4.47295">
        <ele>501</ele>
        <time>2020-03-14T16:04:01.000Z</time>
      </trkpt>
      <trkpt lat="45.89236" lon="4.47295">
        <ele>501</ele>
        <time>2020-03-14T16:04:02.000Z</time>
      </trkpt>
      <trkpt lat="45.89236" lon="4.47295">
        <ele>501</ele>
        <time>2020-03-14T16:04:03.000Z</time>
      </trkpt>
      <trkpt lat="45.89236" lon="4.47295">
        <ele>501</ele>
        <time>2020-03-14T16:04:04.000Z</time>
      </trkpt>
      <trkpt lat="45.89236" lon="4.47295">
        <ele>501</ele>
        <time>2020-03-14T16:04:05.000Z</time>
      </trkpt>
      <trkpt lat="45.89235" lon="4.47295">
        <ele>501</ele>
        <time>2020-03-14T16:04:06.000Z</time>
      </trkpt>
      <trkpt lat="45.89236" lon="4.47295">
        <ele>501</ele>
        <time>2020-03-14T16:04:07.000Z</time>
      </trkpt>
      <trkpt lat="45.89236" lon="4.47295">
        <ele>501.20001220703</ele>
        <time>2020-03-14T16:04:08.000Z</time>
      </trkpt>
      <trkpt lat="45.89235" lon="4.47295">
        <ele>501.20001220703</ele>
        <time>2020-03-14T16:04:09.000Z</time>
      </trkpt>
      <trkpt lat="45.89235" lon="4.47295">
        <ele>501.20001220703</ele>
        <time>2020-03-14T16:04:10.000Z</time>
      </trkpt>
      <trkpt lat="45.89235" lon="4.47295">
        <ele>501.20001220703</ele>
        <time>2020-03-14T16:04:11.000Z</time>
      </trkpt>
      <trkpt lat="45.89235" lon="4.47296">
        <ele>501.20001220703</ele>
        <time>2020-03-14T16:04:12.000Z</time>
      </trkpt>
      <trkpt lat="45.89235" lon="4.47296">
        <ele>501.20001220703</ele>
        <time>2020-03-14T16:04:13.000Z</time>
      </trkpt>
      <trkpt lat="45.89234" lon="4.47296">
        <ele>501.20001220703</ele>
        <time>2020-03-14T16:04:14.000Z</time>
      </trkpt>
      <trkpt lat="45.89234" lon="4.47296">
        <ele>501.20001220703</ele>
        <time>2020-03-14T16:04:15.000Z</time>
      </trkpt>
      <trkpt lat="45.89234" lon="4.47296">
        <ele>501.20001220703</ele>
        <time>2020-03-14T16:04:16.000Z</time>
      </trkpt>
      <trkpt lat="45.89234" lon="4.47296">
        <ele>501.39999389648</ele>
        <time>2020-03-14T16:04:17.000Z</time>
      </trkpt>
      <trkpt lat="45.89234" lon="4.47296">
        <ele>501.60000610352</ele>
        <time>2020-03-14T16:04:18.000Z</time>
      </trkpt>
      <trkpt lat="45.89234" lon="4.47296">
        <ele>501.60000610352</ele>
        <time>2020-03-14T16:04:19.000Z</time>
      </trkpt>
      <trkpt lat="45.89234" lon="4.47296">
        <ele>501.79998779297</ele>
        <time>2020-03-14T16:04:20.000Z</time>
      </trkpt>
      <trkpt lat="45.89234" lon="4.47296">
        <ele>501.79998779297</ele>
        <time>2020-03-14T16:04:21.000Z</time>
      </trkpt>
      <trkpt lat="45.89233" lon="4.47296">
        <ele>501.79998779297</ele>
        <time>2020-03-14T16:04:22.000Z</time>
      </trkpt>
      <trkpt lat="45.89233" lon="4.47296">
        <ele>501.79998779297</ele>
        <time>2020-03-14T16:04:23.000Z</time>
      </trkpt>
      <trkpt lat="45.89233" lon="4.47296">
        <ele>501.79998779297</ele>
        <time>2020-03-14T16:04:24.000Z</time>
      </trkpt>
      <trkpt lat="45.89233" lon="4.47297">
        <ele>501.79998779297</ele>
        <time>2020-03-14T16:04:25.000Z</time>
      </trkpt>
      <trkpt lat="45.89233" lon="4.47297">
        <ele>502</ele>
        <time>2020-03-14T16:04:26.000Z</time>
      </trkpt>
      <trkpt lat="45.89234" lon="4.47297">
        <ele>502</ele>
        <time>2020-03-14T16:04:27.000Z</time>
      </trkpt>
      <trkpt lat="45.89233" lon="4.47296">
        <ele>502</ele>
        <time>2020-03-14T16:04:28.000Z</time>
      </trkpt>
      <trkpt lat="45.89233" lon="4.47296">
        <ele>502</ele>
        <time>2020-03-14T16:04:29.000Z</time>
      </trkpt>
      <trkpt lat="45.89233" lon="4.47296">
        <ele>502</ele>
        <time>2020-03-14T16:04:30.000Z</time>
      </trkpt>
      <trkpt lat="45.89233" lon="4.47296">
        <ele>501.79998779297</ele>
        <time>2020-03-14T16:04:31.000Z</time>
      </trkpt>
      <trkpt lat="45.89233" lon="4.47296">
        <ele>501.79998779297</ele>
        <time>2020-03-14T16:04:32.000Z</time>
      </trkpt>
      <trkpt lat="45.89233" lon="4.47296">
        <ele>501.79998779297</ele>
        <time>2020-03-14T16:04:33.000Z</time>
      </trkpt>
      <trkpt lat="45.89233" lon="4.47296">
        <ele>501.79998779297</ele>
        <time>2020-03-14T16:04:34.000Z</time>
      </trkpt>
      <trkpt lat="45.89233" lon="4.47296">
        <ele>501.79998779297</ele>
        <time>2020-03-14T16:04:35.000Z</time>
      </trkpt>
      <trkpt lat="45.89233" lon="4.47295">
        <ele>501.60000610352</ele>
        <time>2020-03-14T16:04:36.000Z</time>
      </trkpt>
      <trkpt lat="45.89234" lon="4.47295">
        <ele>501.60000610352</ele>
        <time>2020-03-14T16:04:37.000Z</time>
      </trkpt>
      <trkpt lat="45.89234" lon="4.47295">
        <ele>501.60000610352</ele>
        <time>2020-03-14T16:04:38.000Z</time>
      </trkpt>
      <trkpt lat="45.89234" lon="4.47296">
        <ele>501.60000610352</ele>
        <time>2020-03-14T16:04:39.000Z</time>
      </trkpt>
      <trkpt lat="45.89234" lon="4.47296">
        <ele>501.60000610352</ele>
        <time>2020-03-14T16:04:40.000Z</time>
      </trkpt>
      <trkpt lat="45.89234" lon="4.47296">
        <ele>501.39999389648</ele>
        <time>2020-03-14T16:04:41.000Z</time>
      </trkpt>
      <trkpt lat="45.89235" lon="4.47296">
        <ele>501.39999389648</ele>
        <time>2020-03-14T16:04:42.000Z</time>
      </trkpt>
      <trkpt lat="45.89234" lon="4.47296">
        <ele>501.20001220703</ele>
        <time>2020-03-14T16:04:43.000Z</time>
      </trkpt>
      <trkpt lat="45.89234" lon="4.47296">
        <ele>501.20001220703</ele>
        <time>2020-03-14T16:04:44.000Z</time>
      </trkpt>
      <trkpt lat="45.89234" lon="4.47296">
        <ele>501.20001220703</ele>
        <time>2020-03-14T16:04:45.000Z</time>
      </trkpt>
      <trkpt lat="45.89234" lon="4.47296">
        <ele>501</ele>
        <time>2020-03-14T16:04:46.000Z</time>
      </trkpt>
      <trkpt lat="45.89234" lon="4.47296">
        <ele>501.20001220703</ele>
        <time>2020-03-14T16:04:47.000Z</time>
      </trkpt>
      <trkpt lat="45.89234" lon="4.47296">
        <ele>501.20001220703</ele>
        <time>2020-03-14T16:04:48.000Z</time>
      </trkpt>
      <trkpt lat="45.89234" lon="4.47296">
        <ele>501.20001220703</ele>
        <time>2020-03-14T16:04:49.000Z</time>
      </trkpt>
      <trkpt lat="45.89234" lon="4.47296">
        <ele>501.20001220703</ele>
        <time>2020-03-14T16:04:50.000Z</time>
      </trkpt>
      <trkpt lat="45.89234" lon="4.47296">
        <ele>501</ele>
        <time>2020-03-14T16:04:51.000Z</time>
      </trkpt>
      <trkpt lat="45.89234" lon="4.47296">
        <ele>501</ele>
        <time>2020-03-14T16:04:52.000Z</time>
      </trkpt>
      <trkpt lat="45.89234" lon="4.47296">
        <ele>501</ele>
        <time>2020-03-14T16:04:53.000Z</time>
      </trkpt>
      <trkpt lat="45.89234" lon="4.47296">
        <ele>501</ele>
        <time>2020-03-14T16:04:54.000Z</time>
      </trkpt>
      <trkpt lat="45.89234" lon="4.47296">
        <ele>501</ele>
        <time>2020-03-14T16:04:55.000Z</time>
      </trkpt>
      <trkpt lat="45.89234" lon="4.47296">
        <ele>501</ele>
        <time>2020-03-14T16:04:56.000Z</time>
      </trkpt>
      <trkpt lat="45.89234" lon="4.47296">
        <ele>501.20001220703</ele>
        <time>2020-03-14T16:04:57.000Z</time>
      </trkpt>
      <trkpt lat="45.89234" lon="4.47296">
        <ele>501.39999389648</ele>
        <time>2020-03-14T16:04:58.000Z</time>
      </trkpt>
      <trkpt lat="45.89234" lon="4.47296">
        <ele>501.39999389648</ele>
        <time>2020-03-14T16:04:59.000Z</time>
      </trkpt>
      <trkpt lat="45.89234" lon="4.47296">
        <ele>501.39999389648</ele>
        <time>2020-03-14T16:05:00.000Z</time>
      </trkpt>
      <trkpt lat="45.89234" lon="4.47297">
        <ele>501.60000610352</ele>
        <time>2020-03-14T16:05:01.000Z</time>
      </trkpt>
      <trkpt lat="45.89234" lon="4.47297">
        <ele>501.60000610352</ele>
        <time>2020-03-14T16:05:02.000Z</time>
      </trkpt>
      <trkpt lat="45.89234" lon="4.47297">
        <ele>501.60000610352</ele>
        <time>2020-03-14T16:05:03.000Z</time>
      </trkpt>
      <trkpt lat="45.89234" lon="4.47297">
        <ele>501.60000610352</ele>
        <time>2020-03-14T16:05:04.000Z</time>
      </trkpt>
      <trkpt lat="45.89234" lon="4.47296">
        <ele>501.60000610352</ele>
        <time>2020-03-14T16:05:05.000Z</time>
      </trkpt>
      <trkpt lat="45.89234" lon="4.47296">
        <ele>501.60000610352</ele>
        <time>2020-03-14T16:05:06.000Z</time>
      </trkpt>
      <trkpt lat="45.89234" lon="4.47296">
        <ele>501.60000610352</ele>
        <time>2020-03-14T16:05:07.000Z</time>
      </trkpt>
      <trkpt lat="45.89234" lon="4.47296">
        <ele>501.60000610352</ele>
        <time>2020-03-14T16:05:08.000Z</time>
      </trkpt>
      <trkpt lat="45.89234" lon="4.47296">
        <ele>501.79998779297</ele>
        <time>2020-03-14T16:05:09.000Z</time>
      </trkpt>
      <trkpt lat="45.89234" lon="4.47296">
        <ele>501.79998779297</ele>
        <time>2020-03-14T16:05:10.000Z</time>
      </trkpt>
      <trkpt lat="45.89234" lon="4.47296">
        <ele>501.79998779297</ele>
        <time>2020-03-14T16:05:11.000Z</time>
      </trkpt>
      <trkpt lat="45.89234" lon="4.47296">
        <ele>502</ele>
        <time>2020-03-14T16:05:12.000Z</time>
      </trkpt>
      <trkpt lat="45.89234" lon="4.47297">
        <ele>502.20001220703</ele>
        <time>2020-03-14T16:05:13.000Z</time>
      </trkpt>
      <trkpt lat="45.89234" lon="4.47297">
        <ele>502.20001220703</ele>
        <time>2020-03-14T16:05:14.000Z</time>
      </trkpt>
      <trkpt lat="45.89234" lon="4.47297">
        <ele>502.39999389648</ele>
        <time>2020-03-14T16:05:15.000Z</time>
      </trkpt>
      <trkpt lat="45.89234" lon="4.47297">
        <ele>502.39999389648</ele>
        <time>2020-03-14T16:05:16.000Z</time>
      </trkpt>
      <trkpt lat="45.89234" lon="4.47297">
        <ele>502.39999389648</ele>
        <time>2020-03-14T16:05:17.000Z</time>
      </trkpt>
      <trkpt lat="45.89234" lon="4.47297">
        <ele>502.39999389648</ele>
        <time>2020-03-14T16:05:18.000Z</time>
      </trkpt>
      <trkpt lat="45.89234" lon="4.47297">
        <ele>502.39999389648</ele>
        <time>2020-03-14T16:05:19.000Z</time>
      </trkpt>
      <trkpt lat="45.89234" lon="4.47297">
        <ele>502.39999389648</ele>
        <time>2020-03-14T16:05:20.000Z</time>
      </trkpt>
      <trkpt lat="45.89234" lon="4.47297">
        <ele>502.39999389648</ele>
        <time>2020-03-14T16:05:21.000Z</time>
      </trkpt>
      <trkpt lat="45.89234" lon="4.47297">
        <ele>502.20001220703</ele>
        <time>2020-03-14T16:05:22.000Z</time>
      </trkpt>
      <trkpt lat="45.89234" lon="4.47296">
        <ele>502.20001220703</ele>
        <time>2020-03-14T16:05:23.000Z</time>
      </trkpt>
      <trkpt lat="45.89234" lon="4.47295">
        <ele>502.20001220703</ele>
        <time>2020-03-14T16:05:24.000Z</time>
      </trkpt>
      <trkpt lat="45.89234" lon="4.47294">
        <ele>502.20001220703</ele>
        <time>2020-03-14T16:05:25.000Z</time>
      </trkpt>
      <trkpt lat="45.89233" lon="4.47294">
        <ele>502.20001220703</ele>
        <time>2020-03-14T16:05:26.000Z</time>
      </trkpt>
      <trkpt lat="45.89233" lon="4.47294">
        <ele>502.20001220703</ele>
        <time>2020-03-14T16:05:27.000Z</time>
      </trkpt>
      <trkpt lat="45.89233" lon="4.47293">
        <ele>502.20001220703</ele>
        <time>2020-03-14T16:05:28.000Z</time>
      </trkpt>
      <trkpt lat="45.89233" lon="4.47293">
        <ele>502.20001220703</ele>
        <time>2020-03-14T16:05:29.000Z</time>
      </trkpt>
      <trkpt lat="45.89234" lon="4.47293">
        <ele>502.39999389648</ele>
        <time>2020-03-14T16:05:30.000Z</time>
      </trkpt>
      <trkpt lat="45.89234" lon="4.47293">
        <ele>502.79998779297</ele>
        <time>2020-03-14T16:05:31.000Z</time>
      </trkpt>
      <trkpt lat="45.89234" lon="4.47293">
        <ele>502.79998779297</ele>
        <time>2020-03-14T16:05:32.000Z</time>
      </trkpt>
      <trkpt lat="45.89234" lon="4.47293">
        <ele>503</ele>
        <time>2020-03-14T16:05:33.000Z</time>
      </trkpt>
      <trkpt lat="45.89235" lon="4.47293">
        <ele>503</ele>
        <time>2020-03-14T16:05:34.000Z</time>
      </trkpt>
      <trkpt lat="45.89235" lon="4.47293">
        <ele>502.79998779297</ele>
        <time>2020-03-14T16:05:35.000Z</time>
      </trkpt>
      <trkpt lat="45.89235" lon="4.47293">
        <ele>502.79998779297</ele>
        <time>2020-03-14T16:05:36.000Z</time>
      </trkpt>
      <trkpt lat="45.89235" lon="4.47293">
        <ele>502.79998779297</ele>
        <time>2020-03-14T16:05:37.000Z</time>
      </trkpt>
      <trkpt lat="45.89235" lon="4.47294">
        <ele>502.79998779297</ele>
        <time>2020-03-14T16:05:38.000Z</time>
      </trkpt>
      <trkpt lat="45.89235" lon="4.47294">
        <ele>502.60000610352</ele>
        <time>2020-03-14T16:05:39.000Z</time>
      </trkpt>
      <trkpt lat="45.89235" lon="4.47294">
        <ele>502.60000610352</ele>
        <time>2020-03-14T16:05:40.000Z</time>
      </trkpt>
      <trkpt lat="45.89235" lon="4.47294">
        <ele>502.60000610352</ele>
        <time>2020-03-14T16:05:41.000Z</time>
      </trkpt>
      <trkpt lat="45.89235" lon="4.47294">
        <ele>502.60000610352</ele>
        <time>2020-03-14T16:05:42.000Z</time>
      </trkpt>
      <trkpt lat="45.89235" lon="4.47294">
        <ele>502.39999389648</ele>
        <time>2020-03-14T16:05:43.000Z</time>
      </trkpt>
      <trkpt lat="45.89235" lon="4.47294">
        <ele>502.39999389648</ele>
        <time>2020-03-14T16:05:44.000Z</time>
      </trkpt>
      <trkpt lat="45.89234" lon="4.47295">
        <ele>502.20001220703</ele>
        <time>2020-03-14T16:05:45.000Z</time>
      </trkpt>
      <trkpt lat="45.89234" lon="4.47295">
        <ele>502.20001220703</ele>
        <time>2020-03-14T16:05:46.000Z</time>
      </trkpt>
      <trkpt lat="45.89234" lon="4.47295">
        <ele>502.20001220703</ele>
        <time>2020-03-14T16:05:47.000Z</time>
      </trkpt>
      <trkpt lat="45.89234" lon="4.47295">
        <ele>502.20001220703</ele>
        <time>2020-03-14T16:05:48.000Z</time>
      </trkpt>
      <trkpt lat="45.89234" lon="4.47295">
        <ele>502.39999389648</ele>
        <time>2020-03-14T16:05:49.000Z</time>
      </trkpt>
      <trkpt lat="45.89234" lon="4.47295">
        <ele>502.39999389648</ele>
        <time>2020-03-14T16:05:50.000Z</time>
      </trkpt>
      <trkpt lat="45.89234" lon="4.47295">
        <ele>502.39999389648</ele>
        <time>2020-03-14T16:05:51.000Z</time>
      </trkpt>
      <trkpt lat="45.89234" lon="4.47295">
        <ele>502.20001220703</ele>
        <time>2020-03-14T16:05:52.000Z</time>
      </trkpt>
      <trkpt lat="45.89234" lon="4.47295">
        <ele>502.20001220703</ele>
        <time>2020-03-14T16:05:53.000Z</time>
      </trkpt>
      <trkpt lat="45.89234" lon="4.47295">
        <ele>502.20001220703</ele>
        <time>2020-03-14T16:05:54.000Z</time>
      </trkpt>
      <trkpt lat="45.89234" lon="4.47295">
        <ele>502.20001220703</ele>
        <time>2020-03-14T16:05:55.000Z</time>
      </trkpt>
      <trkpt lat="45.89233" lon="4.47295">
        <ele>502.20001220703</ele>
        <time>2020-03-14T16:05:56.000Z</time>
      </trkpt>
      <trkpt lat="45.89233" lon="4.47295">
        <ele>502.20001220703</ele>
        <time>2020-03-14T16:05:57.000Z</time>
      </trkpt>
      <trkpt lat="45.89233" lon="4.47294">
        <ele>502.20001220703</ele>
        <time>2020-03-14T16:05:58.000Z</time>
      </trkpt>
      <trkpt lat="45.89233" lon="4.47294">
        <ele>502.20001220703</ele>
        <time>2020-03-14T16:05:59.000Z</time>
      </trkpt>
      <trkpt lat="45.89233" lon="4.47294">
        <ele>502.39999389648</ele>
        <time>2020-03-14T16:06:00.000Z</time>
      </trkpt>
      <trkpt lat="45.89233" lon="4.47294">
        <ele>502.39999389648</ele>
        <time>2020-03-14T16:06:01.000Z</time>
      </trkpt>
      <trkpt lat="45.89233" lon="4.47294">
        <ele>502.39999389648</ele>
        <time>2020-03-14T16:06:02.000Z</time>
      </trkpt>
      <trkpt lat="45.89233" lon="4.47294">
        <ele>502.20001220703</ele>
        <time>2020-03-14T16:06:03.000Z</time>
      </trkpt>
      <trkpt lat="45.89233" lon="4.47294">
        <ele>502.20001220703</ele>
        <time>2020-03-14T16:06:04.000Z</time>
      </trkpt>
      <trkpt lat="45.89234" lon="4.47294">
        <ele>502.20001220703</ele>
        <time>2020-03-14T16:06:05.000Z</time>
      </trkpt>
      <trkpt lat="45.89234" lon="4.47294">
        <ele>502.20001220703</ele>
        <time>2020-03-14T16:06:06.000Z</time>
      </trkpt>
      <trkpt lat="45.89234" lon="4.47295">
        <ele>502.20001220703</ele>
        <time>2020-03-14T16:06:07.000Z</time>
      </trkpt>
      <trkpt lat="45.89234" lon="4.47295">
        <ele>502</ele>
        <time>2020-03-14T16:06:08.000Z</time>
      </trkpt>
      <trkpt lat="45.89234" lon="4.47294">
        <ele>501.79998779297</ele>
        <time>2020-03-14T16:06:09.000Z</time>
      </trkpt>
      <trkpt lat="45.89235" lon="4.47294">
        <ele>501.79998779297</ele>
        <time>2020-03-14T16:06:10.000Z</time>
      </trkpt>
      <trkpt lat="45.89235" lon="4.47294">
        <ele>501.79998779297</ele>
        <time>2020-03-14T16:06:11.000Z</time>
      </trkpt>
      <trkpt lat="45.89235" lon="4.47294">
        <ele>501.79998779297</ele>
        <time>2020-03-14T16:06:12.000Z</time>
      </trkpt>
      <trkpt lat="45.89235" lon="4.47294">
        <ele>501.79998779297</ele>
        <time>2020-03-14T16:06:13.000Z</time>
      </trkpt>
      <trkpt lat="45.89235" lon="4.47294">
        <ele>501.79998779297</ele>
        <time>2020-03-14T16:06:14.000Z</time>
      </trkpt>
      <trkpt lat="45.89236" lon="4.47293">
        <ele>501.79998779297</ele>
        <time>2020-03-14T16:06:15.000Z</time>
      </trkpt>
      <trkpt lat="45.89236" lon="4.47294">
        <ele>501.79998779297</ele>
        <time>2020-03-14T16:06:16.000Z</time>
      </trkpt>
      <trkpt lat="45.89235" lon="4.47294">
        <ele>501.79998779297</ele>
        <time>2020-03-14T16:06:17.000Z</time>
      </trkpt>
      <trkpt lat="45.89235" lon="4.47294">
        <ele>501.79998779297</ele>
        <time>2020-03-14T16:06:18.000Z</time>
      </trkpt>
      <trkpt lat="45.89234" lon="4.47294">
        <ele>501.79998779297</ele>
        <time>2020-03-14T16:06:19.000Z</time>
      </trkpt>
      <trkpt lat="45.89234" lon="4.47294">
        <ele>501.79998779297</ele>
        <time>2020-03-14T16:06:20.000Z</time>
      </trkpt>
      <trkpt lat="45.89233" lon="4.47294">
        <ele>501.79998779297</ele>
        <time>2020-03-14T16:06:21.000Z</time>
      </trkpt>
      <trkpt lat="45.89233" lon="4.47293">
        <ele>501.79998779297</ele>
        <time>2020-03-14T16:06:22.000Z</time>
      </trkpt>
      <trkpt lat="45.89233" lon="4.47293">
        <ele>501.20001220703</ele>
        <time>2020-03-14T16:06:23.000Z</time>
      </trkpt>
      <trkpt lat="45.89233" lon="4.47293">
        <ele>500.79998779297</ele>
        <time>2020-03-14T16:06:24.000Z</time>
      </trkpt>
      <trkpt lat="45.89233" lon="4.47294">
        <ele>500.60000610352</ele>
        <time>2020-03-14T16:06:25.000Z</time>
      </trkpt>
      <trkpt lat="45.89233" lon="4.47294">
        <ele>500.79998779297</ele>
        <time>2020-03-14T16:06:26.000Z</time>
      </trkpt>
      <trkpt lat="45.89233" lon="4.47294">
        <ele>500.60000610352</ele>
        <time>2020-03-14T16:06:27.000Z</time>
      </trkpt>
      <trkpt lat="45.89233" lon="4.47294">
        <ele>500.39999389648</ele>
        <time>2020-03-14T16:06:28.000Z</time>
      </trkpt>
      <trkpt lat="45.89233" lon="4.47294">
        <ele>500.20001220703</ele>
        <time>2020-03-14T16:06:29.000Z</time>
      </trkpt>
      <trkpt lat="45.89233" lon="4.47294">
        <ele>500.20001220703</ele>
        <time>2020-03-14T16:06:30.000Z</time>
      </trkpt>
      <trkpt lat="45.89233" lon="4.47294">
        <ele>500.20001220703</ele>
        <time>2020-03-14T16:06:31.000Z</time>
      </trkpt>
      <trkpt lat="45.89233" lon="4.47294">
        <ele>500.20001220703</ele>
        <time>2020-03-14T16:06:32.000Z</time>
      </trkpt>
      <trkpt lat="45.89233" lon="4.47295">
        <ele>500.20001220703</ele>
        <time>2020-03-14T16:06:33.000Z</time>
      </trkpt>
      <trkpt lat="45.89233" lon="4.47295">
        <ele>500.20001220703</ele>
        <time>2020-03-14T16:06:34.000Z</time>
      </trkpt>
      <trkpt lat="45.89233" lon="4.47294">
        <ele>500.20001220703</ele>
        <time>2020-03-14T16:06:35.000Z</time>
      </trkpt>
      <trkpt lat="45.89233" lon="4.47294">
        <ele>500.20001220703</ele>
        <time>2020-03-14T16:06:36.000Z</time>
      </trkpt>
      <trkpt lat="45.89233" lon="4.47294">
        <ele>500.20001220703</ele>
        <time>2020-03-14T16:06:37.000Z</time>
      </trkpt>
      <trkpt lat="45.89233" lon="4.47294">
        <ele>500.39999389648</ele>
        <time>2020-03-14T16:06:38.000Z</time>
      </trkpt>
      <trkpt lat="45.89233" lon="4.47295">
        <ele>500.39999389648</ele>
        <time>2020-03-14T16:06:39.000Z</time>
      </trkpt>
      <trkpt lat="45.89233" lon="4.47295">
        <ele>500.39999389648</ele>
        <time>2020-03-14T16:06:40.000Z</time>
      </trkpt>
      <trkpt lat="45.89233" lon="4.47295">
        <ele>500.39999389648</ele>
        <time>2020-03-14T16:06:41.000Z</time>
      </trkpt>
      <trkpt lat="45.89232" lon="4.47295">
        <ele>500.60000610352</ele>
        <time>2020-03-14T16:06:42.000Z</time>
      </trkpt>
      <trkpt lat="45.89233" lon="4.47294">
        <ele>500.60000610352</ele>
        <time>2020-03-14T16:06:43.000Z</time>
      </trkpt>
      <trkpt lat="45.89233" lon="4.47294">
        <ele>500.60000610352</ele>
        <time>2020-03-14T16:06:44.000Z</time>
      </trkpt>
      <trkpt lat="45.89233" lon="4.47294">
        <ele>500.79998779297</ele>
        <time>2020-03-14T16:06:45.000Z</time>
      </trkpt>
      <trkpt lat="45.89233" lon="4.47294">
        <ele>500.79998779297</ele>
        <time>2020-03-14T16:06:46.000Z</time>
      </trkpt>
      <trkpt lat="45.89233" lon="4.47294">
        <ele>500.79998779297</ele>
        <time>2020-03-14T16:06:47.000Z</time>
      </trkpt>
      <trkpt lat="45.89233" lon="4.47295">
        <ele>502.39999389648</ele>
        <time>2020-03-14T16:06:48.000Z</time>
      </trkpt>
      <trkpt lat="45.89233" lon="4.47295">
        <ele>502.79998779297</ele>
        <time>2020-03-14T16:06:49.000Z</time>
      </trkpt>
      <trkpt lat="45.89234" lon="4.47295">
        <ele>502.79998779297</ele>
        <time>2020-03-14T16:06:50.000Z</time>
      </trkpt>
      <trkpt lat="45.89233" lon="4.47295">
        <ele>502.79998779297</ele>
        <time>2020-03-14T16:06:51.000Z</time>
      </trkpt>
      <trkpt lat="45.89233" lon="4.47295">
        <ele>503.39999389648</ele>
        <time>2020-03-14T16:06:52.000Z</time>
      </trkpt>
      <trkpt lat="45.89233" lon="4.47295">
        <ele>502.79998779297</ele>
        <time>2020-03-14T16:06:53.000Z</time>
      </trkpt>
      <trkpt lat="45.89233" lon="4.47295">
        <ele>502.39999389648</ele>
        <time>2020-03-14T16:06:54.000Z</time>
      </trkpt>
      <trkpt lat="45.89233" lon="4.47295">
        <ele>502.39999389648</ele>
        <time>2020-03-14T16:06:55.000Z</time>
      </trkpt>
      <trkpt lat="45.89234" lon="4.47295">
        <ele>502.60000610352</ele>
        <time>2020-03-14T16:06:56.000Z</time>
      </trkpt>
      <trkpt lat="45.89234" lon="4.47294">
        <ele>502.39999389648</ele>
        <time>2020-03-14T16:06:57.000Z</time>
      </trkpt>
      <trkpt lat="45.89234" lon="4.47294">
        <ele>502.39999389648</ele>
        <time>2020-03-14T16:06:58.000Z</time>
      </trkpt>
      <trkpt lat="45.89234" lon="4.47294">
        <ele>502.20001220703</ele>
        <time>2020-03-14T16:06:59.000Z</time>
      </trkpt>
      <trkpt lat="45.89234" lon="4.47294">
        <ele>502.20001220703</ele>
        <time>2020-03-14T16:07:00.000Z</time>
      </trkpt>
      <trkpt lat="45.89234" lon="4.47294">
        <ele>502.20001220703</ele>
        <time>2020-03-14T16:07:01.000Z</time>
      </trkpt>
      <trkpt lat="45.89234" lon="4.47294">
        <ele>502.20001220703</ele>
        <time>2020-03-14T16:07:02.000Z</time>
      </trkpt>
      <trkpt lat="45.89234" lon="4.47294">
        <ele>502.39999389648</ele>
        <time>2020-03-14T16:07:03.000Z</time>
      </trkpt>
      <trkpt lat="45.89234" lon="4.47294">
        <ele>502.39999389648</ele>
        <time>2020-03-14T16:07:04.000Z</time>
      </trkpt>
      <trkpt lat="45.89234" lon="4.47294">
        <ele>502.39999389648</ele>
        <time>2020-03-14T16:07:05.000Z</time>
      </trkpt>
      <trkpt lat="45.89234" lon="4.47294">
        <ele>502.39999389648</ele>
        <time>2020-03-14T16:07:06.000Z</time>
      </trkpt>
      <trkpt lat="45.89235" lon="4.47294">
        <ele>502.20001220703</ele>
        <time>2020-03-14T16:07:07.000Z</time>
      </trkpt>
      <trkpt lat="45.89236" lon="4.47293">
        <ele>502.20001220703</ele>
        <time>2020-03-14T16:07:08.000Z</time>
      </trkpt>
      <trkpt lat="45.89238" lon="4.47294">
        <ele>502.20001220703</ele>
        <time>2020-03-14T16:07:09.000Z</time>
      </trkpt>
      <trkpt lat="45.89239" lon="4.47295">
        <ele>502.20001220703</ele>
        <time>2020-03-14T16:07:10.000Z</time>
      </trkpt>
      <trkpt lat="45.8924" lon="4.47295">
        <ele>502.39999389648</ele>
        <time>2020-03-14T16:07:11.000Z</time>
      </trkpt>
      <trkpt lat="45.89241" lon="4.47296">
        <ele>502.79998779297</ele>
        <time>2020-03-14T16:07:12.000Z</time>
      </trkpt>
      <trkpt lat="45.89242" lon="4.47296">
        <ele>503</ele>
        <time>2020-03-14T16:07:13.000Z</time>
      </trkpt>
      <trkpt lat="45.89243" lon="4.47297">
        <ele>503.39999389648</ele>
        <time>2020-03-14T16:07:14.000Z</time>
      </trkpt>
      <trkpt lat="45.89244" lon="4.47298">
        <ele>503.39999389648</ele>
        <time>2020-03-14T16:07:15.000Z</time>
      </trkpt>
      <trkpt lat="45.89245" lon="4.47299">
        <ele>503.60000610352</ele>
        <time>2020-03-14T16:07:16.000Z</time>
      </trkpt>
      <trkpt lat="45.89246" lon="4.473">
        <ele>504</ele>
        <time>2020-03-14T16:07:17.000Z</time>
      </trkpt>
      <trkpt lat="45.89247" lon="4.47301">
        <ele>504</ele>
        <time>2020-03-14T16:07:18.000Z</time>
      </trkpt>
      <trkpt lat="45.89249" lon="4.47302">
        <ele>504.20001220703</ele>
        <time>2020-03-14T16:07:19.000Z</time>
      </trkpt>
      <trkpt lat="45.89251" lon="4.47303">
        <ele>504.39999389648</ele>
        <time>2020-03-14T16:07:20.000Z</time>
      </trkpt>
      <trkpt lat="45.89252" lon="4.47303">
        <ele>504.39999389648</ele>
        <time>2020-03-14T16:07:21.000Z</time>
      </trkpt>
      <trkpt lat="45.89254" lon="4.47304">
        <ele>504.39999389648</ele>
        <time>2020-03-14T16:07:22.000Z</time>
      </trkpt>
      <trkpt lat="45.89256" lon="4.47305">
        <ele>504.39999389648</ele>
        <time>2020-03-14T16:07:23.000Z</time>
      </trkpt>
      <trkpt lat="45.89257" lon="4.47306">
        <ele>504.39999389648</ele>
        <time>2020-03-14T16:07:24.000Z</time>
      </trkpt>
      <trkpt lat="45.89259" lon="4.47306">
        <ele>504.60000610352</ele>
        <time>2020-03-14T16:07:25.000Z</time>
      </trkpt>
      <trkpt lat="45.8926" lon="4.47307">
        <ele>504.60000610352</ele>
        <time>2020-03-14T16:07:26.000Z</time>
      </trkpt>
      <trkpt lat="45.89262" lon="4.47308">
        <ele>504.79998779297</ele>
        <time>2020-03-14T16:07:27.000Z</time>
      </trkpt>
      <trkpt lat="45.89264" lon="4.47309">
        <ele>505</ele>
        <time>2020-03-14T16:07:28.000Z</time>
      </trkpt>
      <trkpt lat="45.89265" lon="4.47309">
        <ele>505.20001220703</ele>
        <time>2020-03-14T16:07:29.000Z</time>
      </trkpt>
      <trkpt lat="45.89267" lon="4.4731">
        <ele>505.39999389648</ele>
        <time>2020-03-14T16:07:30.000Z</time>
      </trkpt>
      <trkpt lat="45.89268" lon="4.47311">
        <ele>505.39999389648</ele>
        <time>2020-03-14T16:07:31.000Z</time>
      </trkpt>
      <trkpt lat="45.8927" lon="4.47312">
        <ele>505.39999389648</ele>
        <time>2020-03-14T16:07:32.000Z</time>
      </trkpt>
      <trkpt lat="45.89271" lon="4.47313">
        <ele>505.60000610352</ele>
        <time>2020-03-14T16:07:33.000Z</time>
      </trkpt>
      <trkpt lat="45.89272" lon="4.47314">
        <ele>506</ele>
        <time>2020-03-14T16:07:34.000Z</time>
      </trkpt>
      <trkpt lat="45.89273" lon="4.47315">
        <ele>506</ele>
        <time>2020-03-14T16:07:35.000Z</time>
      </trkpt>
      <trkpt lat="45.89275" lon="4.47316">
        <ele>506.20001220703</ele>
        <time>2020-03-14T16:07:36.000Z</time>
      </trkpt>
      <trkpt lat="45.89276" lon="4.47316">
        <ele>506.20001220703</ele>
        <time>2020-03-14T16:07:37.000Z</time>
      </trkpt>
      <trkpt lat="45.89277" lon="4.47317">
        <ele>506.39999389648</ele>
        <time>2020-03-14T16:07:38.000Z</time>
      </trkpt>
      <trkpt lat="45.89279" lon="4.47317">
        <ele>506.60000610352</ele>
        <time>2020-03-14T16:07:39.000Z</time>
      </trkpt>
      <trkpt lat="45.8928" lon="4.47318">
        <ele>506.60000610352</ele>
        <time>2020-03-14T16:07:40.000Z</time>
      </trkpt>
      <trkpt lat="45.89281" lon="4.47319">
        <ele>506.79998779297</ele>
        <time>2020-03-14T16:07:41.000Z</time>
      </trkpt>
      <trkpt lat="45.89283" lon="4.4732">
        <ele>507</ele>
        <time>2020-03-14T16:07:42.000Z</time>
      </trkpt>
      <trkpt lat="45.89284" lon="4.4732">
        <ele>507.20001220703</ele>
        <time>2020-03-14T16:07:43.000Z</time>
      </trkpt>
      <trkpt lat="45.89285" lon="4.47321">
        <ele>507.20001220703</ele>
        <time>2020-03-14T16:07:44.000Z</time>
      </trkpt>
      <trkpt lat="45.89287" lon="4.47321">
        <ele>507.39999389648</ele>
        <time>2020-03-14T16:07:45.000Z</time>
      </trkpt>
      <trkpt lat="45.89288" lon="4.47322">
        <ele>507.60000610352</ele>
        <time>2020-03-14T16:07:46.000Z</time>
      </trkpt>
      <trkpt lat="45.89289" lon="4.47323">
        <ele>507.60000610352</ele>
        <time>2020-03-14T16:07:47.000Z</time>
      </trkpt>
      <trkpt lat="45.8929" lon="4.47324">
        <ele>507.79998779297</ele>
        <time>2020-03-14T16:07:48.000Z</time>
      </trkpt>
      <trkpt lat="45.89292" lon="4.47324">
        <ele>507.79998779297</ele>
        <time>2020-03-14T16:07:49.000Z</time>
      </trkpt>
      <trkpt lat="45.89294" lon="4.47325">
        <ele>508</ele>
        <time>2020-03-14T16:07:50.000Z</time>
      </trkpt>
      <trkpt lat="45.89295" lon="4.47326">
        <ele>508</ele>
        <time>2020-03-14T16:07:51.000Z</time>
      </trkpt>
      <trkpt lat="45.89297" lon="4.47327">
        <ele>508</ele>
        <time>2020-03-14T16:07:52.000Z</time>
      </trkpt>
      <trkpt lat="45.89298" lon="4.47327">
        <ele>508.20001220703</ele>
        <time>2020-03-14T16:07:53.000Z</time>
      </trkpt>
      <trkpt lat="45.893" lon="4.47328">
        <ele>508.60000610352</ele>
        <time>2020-03-14T16:07:54.000Z</time>
      </trkpt>
      <trkpt lat="45.89301" lon="4.47329">
        <ele>508.60000610352</ele>
        <time>2020-03-14T16:07:55.000Z</time>
      </trkpt>
      <trkpt lat="45.89303" lon="4.4733">
        <ele>508.79998779297</ele>
        <time>2020-03-14T16:07:56.000Z</time>
      </trkpt>
      <trkpt lat="45.89304" lon="4.47331">
        <ele>508.79998779297</ele>
        <time>2020-03-14T16:07:57.000Z</time>
      </trkpt>
      <trkpt lat="45.89306" lon="4.47331">
        <ele>509</ele>
        <time>2020-03-14T16:07:58.000Z</time>
      </trkpt>
      <trkpt lat="45.89308" lon="4.47332">
        <ele>509</ele>
        <time>2020-03-14T16:07:59.000Z</time>
      </trkpt>
      <trkpt lat="45.89309" lon="4.47333">
        <ele>509</ele>
        <time>2020-03-14T16:08:00.000Z</time>
      </trkpt>
      <trkpt lat="45.89311" lon="4.47333">
        <ele>509</ele>
        <time>2020-03-14T16:08:01.000Z</time>
      </trkpt>
      <trkpt lat="45.89312" lon="4.47334">
        <ele>509.20001220703</ele>
        <time>2020-03-14T16:08:02.000Z</time>
      </trkpt>
      <trkpt lat="45.89314" lon="4.47335">
        <ele>509.20001220703</ele>
        <time>2020-03-14T16:08:03.000Z</time>
      </trkpt>
      <trkpt lat="45.89315" lon="4.47336">
        <ele>509.39999389648</ele>
        <time>2020-03-14T16:08:04.000Z</time>
      </trkpt>
      <trkpt lat="45.89317" lon="4.47337">
        <ele>509.39999389648</ele>
        <time>2020-03-14T16:08:05.000Z</time>
      </trkpt>
      <trkpt lat="45.89318" lon="4.47338">
        <ele>509.39999389648</ele>
        <time>2020-03-14T16:08:06.000Z</time>
      </trkpt>
      <trkpt lat="45.8932" lon="4.47338">
        <ele>509.39999389648</ele>
        <time>2020-03-14T16:08:07.000Z</time>
      </trkpt>
      <trkpt lat="45.89322" lon="4.47339">
        <ele>509.60000610352</ele>
        <time>2020-03-14T16:08:08.000Z</time>
      </trkpt>
      <trkpt lat="45.89324" lon="4.4734">
        <ele>509.60000610352</ele>
        <time>2020-03-14T16:08:09.000Z</time>
      </trkpt>
      <trkpt lat="45.89326" lon="4.47341">
        <ele>509.79998779297</ele>
        <time>2020-03-14T16:08:10.000Z</time>
      </trkpt>
      <trkpt lat="45.89328" lon="4.47342">
        <ele>509.79998779297</ele>
        <time>2020-03-14T16:08:11.000Z</time>
      </trkpt>
      <trkpt lat="45.89329" lon="4.47343">
        <ele>509.79998779297</ele>
        <time>2020-03-14T16:08:12.000Z</time>
      </trkpt>
      <trkpt lat="45.89331" lon="4.47344">
        <ele>509.79998779297</ele>
        <time>2020-03-14T16:08:13.000Z</time>
      </trkpt>
      <trkpt lat="45.89333" lon="4.47345">
        <ele>509.79998779297</ele>
        <time>2020-03-14T16:08:14.000Z</time>
      </trkpt>
      <trkpt lat="45.89335" lon="4.47346">
        <ele>509.79998779297</ele>
        <time>2020-03-14T16:08:15.000Z</time>
      </trkpt>
      <trkpt lat="45.89338" lon="4.47346">
        <ele>509.79998779297</ele>
        <time>2020-03-14T16:08:16.000Z</time>
      </trkpt>
      <trkpt lat="45.8934" lon="4.47347">
        <ele>509.79998779297</ele>
        <time>2020-03-14T16:08:17.000Z</time>
      </trkpt>
      <trkpt lat="45.89342" lon="4.47348">
        <ele>510</ele>
        <time>2020-03-14T16:08:18.000Z</time>
      </trkpt>
      <trkpt lat="45.89344" lon="4.47349">
        <ele>510.20001220703</ele>
        <time>2020-03-14T16:08:19.000Z</time>
      </trkpt>
      <trkpt lat="45.89346" lon="4.4735">
        <ele>510.20001220703</ele>
        <time>2020-03-14T16:08:20.000Z</time>
      </trkpt>
      <trkpt lat="45.89348" lon="4.47351">
        <ele>510.39999389648</ele>
        <time>2020-03-14T16:08:21.000Z</time>
      </trkpt>
      <trkpt lat="45.8935" lon="4.47352">
        <ele>510.60000610352</ele>
        <time>2020-03-14T16:08:22.000Z</time>
      </trkpt>
      <trkpt lat="45.89352" lon="4.47353">
        <ele>510.60000610352</ele>
        <time>2020-03-14T16:08:23.000Z</time>
      </trkpt>
      <trkpt lat="45.89354" lon="4.47354">
        <ele>510.79998779297</ele>
        <time>2020-03-14T16:08:24.000Z</time>
      </trkpt>
      <trkpt lat="45.89356" lon="4.47355">
        <ele>510.79998779297</ele>
        <time>2020-03-14T16:08:25.000Z</time>
      </trkpt>
      <trkpt lat="45.89358" lon="4.47355">
        <ele>511</ele>
        <time>2020-03-14T16:08:26.000Z</time>
      </trkpt>
      <trkpt lat="45.89359" lon="4.47356">
        <ele>511</ele>
        <time>2020-03-14T16:08:27.000Z</time>
      </trkpt>
      <trkpt lat="45.89361" lon="4.47357">
        <ele>511.20001220703</ele>
        <time>2020-03-14T16:08:28.000Z</time>
      </trkpt>
      <trkpt lat="45.89363" lon="4.47358">
        <ele>511.60000610352</ele>
        <time>2020-03-14T16:08:29.000Z</time>
      </trkpt>
      <trkpt lat="45.89365" lon="4.47359">
        <ele>511.60000610352</ele>
        <time>2020-03-14T16:08:30.000Z</time>
      </trkpt>
      <trkpt lat="45.89366" lon="4.4736">
        <ele>512</ele>
        <time>2020-03-14T16:08:31.000Z</time>
      </trkpt>
      <trkpt lat="45.89368" lon="4.47361">
        <ele>512</ele>
        <time>2020-03-14T16:08:32.000Z</time>
      </trkpt>
      <trkpt lat="45.89369" lon="4.47362">
        <ele>512.20001220703</ele>
        <time>2020-03-14T16:08:33.000Z</time>
      </trkpt>
      <trkpt lat="45.8937" lon="4.47365">
        <ele>512.20001220703</ele>
        <time>2020-03-14T16:08:34.000Z</time>
      </trkpt>
      <trkpt lat="45.89371" lon="4.47367">
        <ele>512.20001220703</ele>
        <time>2020-03-14T16:08:35.000Z</time>
      </trkpt>
      <trkpt lat="45.89371" lon="4.47369">
        <ele>512.20001220703</ele>
        <time>2020-03-14T16:08:36.000Z</time>
      </trkpt>
      <trkpt lat="45.89371" lon="4.47372">
        <ele>512.20001220703</ele>
        <time>2020-03-14T16:08:37.000Z</time>
      </trkpt>
      <trkpt lat="45.89371" lon="4.47375">
        <ele>512.20001220703</ele>
        <time>2020-03-14T16:08:38.000Z</time>
      </trkpt>
      <trkpt lat="45.8937" lon="4.47378">
        <ele>512.20001220703</ele>
        <time>2020-03-14T16:08:39.000Z</time>
      </trkpt>
      <trkpt lat="45.89369" lon="4.47381">
        <ele>512.20001220703</ele>
        <time>2020-03-14T16:08:40.000Z</time>
      </trkpt>
      <trkpt lat="45.89368" lon="4.47383">
        <ele>512</ele>
        <time>2020-03-14T16:08:41.000Z</time>
      </trkpt>
      <trkpt lat="45.89367" lon="4.47387">
        <ele>512</ele>
        <time>2020-03-14T16:08:42.000Z</time>
      </trkpt>
      <trkpt lat="45.89366" lon="4.4739">
        <ele>512</ele>
        <time>2020-03-14T16:08:43.000Z</time>
      </trkpt>
      <trkpt lat="45.89366" lon="4.47393">
        <ele>511.79998779297</ele>
        <time>2020-03-14T16:08:44.000Z</time>
      </trkpt>
      <trkpt lat="45.89365" lon="4.47397">
        <ele>511.79998779297</ele>
        <time>2020-03-14T16:08:45.000Z</time>
      </trkpt>
      <trkpt lat="45.89365" lon="4.47401">
        <ele>511.60000610352</ele>
        <time>2020-03-14T16:08:46.000Z</time>
      </trkpt>
      <trkpt lat="45.89365" lon="4.47404">
        <ele>511.39999389648</ele>
        <time>2020-03-14T16:08:47.000Z</time>
      </trkpt>
      <trkpt lat="45.89365" lon="4.47408">
        <ele>511.39999389648</ele>
        <time>2020-03-14T16:08:48.000Z</time>
      </trkpt>
      <trkpt lat="45.89366" lon="4.47412">
        <ele>511.20001220703</ele>
        <time>2020-03-14T16:08:49.000Z</time>
      </trkpt>
      <trkpt lat="45.89366" lon="4.47415">
        <ele>511.20001220703</ele>
        <time>2020-03-14T16:08:50.000Z</time>
      </trkpt>
      <trkpt lat="45.89366" lon="4.47419">
        <ele>511.20001220703</ele>
        <time>2020-03-14T16:08:51.000Z</time>
      </trkpt>
      <trkpt lat="45.89366" lon="4.47422">
        <ele>511.20001220703</ele>
        <time>2020-03-14T16:08:52.000Z</time>
      </trkpt>
      <trkpt lat="45.89366" lon="4.47426">
        <ele>511</ele>
        <time>2020-03-14T16:08:53.000Z</time>
      </trkpt>
      <trkpt lat="45.89366" lon="4.47429">
        <ele>511</ele>
        <time>2020-03-14T16:08:54.000Z</time>
      </trkpt>
      <trkpt lat="45.89366" lon="4.47432">
        <ele>511</ele>
        <time>2020-03-14T16:08:55.000Z</time>
      </trkpt>
      <trkpt lat="45.89367" lon="4.47436">
        <ele>511</ele>
        <time>2020-03-14T16:08:56.000Z</time>
      </trkpt>
      <trkpt lat="45.89367" lon="4.4744">
        <ele>511</ele>
        <time>2020-03-14T16:08:57.000Z</time>
      </trkpt>
      <trkpt lat="45.89367" lon="4.47443">
        <ele>511</ele>
        <time>2020-03-14T16:08:58.000Z</time>
      </trkpt>
      <trkpt lat="45.89367" lon="4.47447">
        <ele>511</ele>
        <time>2020-03-14T16:08:59.000Z</time>
      </trkpt>
      <trkpt lat="45.89368" lon="4.47451">
        <ele>511</ele>
        <time>2020-03-14T16:09:00.000Z</time>
      </trkpt>
      <trkpt lat="45.89369" lon="4.47454">
        <ele>511</ele>
        <time>2020-03-14T16:09:01.000Z</time>
      </trkpt>
      <trkpt lat="45.8937" lon="4.47456">
        <ele>511</ele>
        <time>2020-03-14T16:09:02.000Z</time>
      </trkpt>
      <trkpt lat="45.89371" lon="4.47458">
        <ele>511.20001220703</ele>
        <time>2020-03-14T16:09:03.000Z</time>
      </trkpt>
      <trkpt lat="45.89372" lon="4.47459">
        <ele>511.20001220703</ele>
        <time>2020-03-14T16:09:04.000Z</time>
      </trkpt>
      <trkpt lat="45.89373" lon="4.4746">
        <ele>511.39999389648</ele>
        <time>2020-03-14T16:09:05.000Z</time>
      </trkpt>
      <trkpt lat="45.89374" lon="4.4746">
        <ele>511.79998779297</ele>
        <time>2020-03-14T16:09:06.000Z</time>
      </trkpt>
      <trkpt lat="45.89375" lon="4.47461">
        <ele>512.20001220703</ele>
        <time>2020-03-14T16:09:07.000Z</time>
      </trkpt>
      <trkpt lat="45.89376" lon="4.47461">
        <ele>512.40002441406</ele>
        <time>2020-03-14T16:09:08.000Z</time>
      </trkpt>
      <trkpt lat="45.89377" lon="4.47462">
        <ele>512.59997558594</ele>
        <time>2020-03-14T16:09:09.000Z</time>
      </trkpt>
      <trkpt lat="45.89378" lon="4.47462">
        <ele>512.79998779297</ele>
        <time>2020-03-14T16:09:10.000Z</time>
      </trkpt>
      <trkpt lat="45.8938" lon="4.47462">
        <ele>512.79998779297</ele>
        <time>2020-03-14T16:09:11.000Z</time>
      </trkpt>
      <trkpt lat="45.89381" lon="4.47462">
        <ele>513</ele>
        <time>2020-03-14T16:09:12.000Z</time>
      </trkpt>
      <trkpt lat="45.89382" lon="4.47463">
        <ele>513</ele>
        <time>2020-03-14T16:09:13.000Z</time>
      </trkpt>
      <trkpt lat="45.89383" lon="4.47463">
        <ele>513.40002441406</ele>
        <time>2020-03-14T16:09:14.000Z</time>
      </trkpt>
      <trkpt lat="45.89385" lon="4.47463">
        <ele>513.79998779297</ele>
        <time>2020-03-14T16:09:15.000Z</time>
      </trkpt>
      <trkpt lat="45.89386" lon="4.47463">
        <ele>514.20001220703</ele>
        <time>2020-03-14T16:09:16.000Z</time>
      </trkpt>
      <trkpt lat="45.89387" lon="4.47464">
        <ele>514.40002441406</ele>
        <time>2020-03-14T16:09:17.000Z</time>
      </trkpt>
      <trkpt lat="45.89388" lon="4.47464">
        <ele>514.59997558594</ele>
        <time>2020-03-14T16:09:18.000Z</time>
      </trkpt>
      <trkpt lat="45.89389" lon="4.47464">
        <ele>514.79998779297</ele>
        <time>2020-03-14T16:09:19.000Z</time>
      </trkpt>
      <trkpt lat="45.89391" lon="4.47464">
        <ele>515</ele>
        <time>2020-03-14T16:09:20.000Z</time>
      </trkpt>
      <trkpt lat="45.89392" lon="4.47464">
        <ele>515.20001220703</ele>
        <time>2020-03-14T16:09:21.000Z</time>
      </trkpt>
      <trkpt lat="45.89393" lon="4.47465">
        <ele>515.40002441406</ele>
        <time>2020-03-14T16:09:22.000Z</time>
      </trkpt>
      <trkpt lat="45.89394" lon="4.47465">
        <ele>515.59997558594</ele>
        <time>2020-03-14T16:09:23.000Z</time>
      </trkpt>
      <trkpt lat="45.89395" lon="4.47465">
        <ele>515.79998779297</ele>
        <time>2020-03-14T16:09:24.000Z</time>
      </trkpt>
      <trkpt lat="45.89396" lon="4.47465">
        <ele>516</ele>
        <time>2020-03-14T16:09:25.000Z</time>
      </trkpt>
      <trkpt lat="45.89397" lon="4.47465">
        <ele>516.20001220703</ele>
        <time>2020-03-14T16:09:26.000Z</time>
      </trkpt>
      <trkpt lat="45.89398" lon="4.47465">
        <ele>516.40002441406</ele>
        <time>2020-03-14T16:09:27.000Z</time>
      </trkpt>
      <trkpt lat="45.89399" lon="4.47466">
        <ele>516.40002441406</ele>
        <time>2020-03-14T16:09:28.000Z</time>
      </trkpt>
      <trkpt lat="45.89401" lon="4.47466">
        <ele>516.59997558594</ele>
        <time>2020-03-14T16:09:29.000Z</time>
      </trkpt>
      <trkpt lat="45.89402" lon="4.47466">
        <ele>516.79998779297</ele>
        <time>2020-03-14T16:09:30.000Z</time>
      </trkpt>
      <trkpt lat="45.89403" lon="4.47467">
        <ele>517</ele>
        <time>2020-03-14T16:09:31.000Z</time>
      </trkpt>
      <trkpt lat="45.89404" lon="4.47467">
        <ele>517</ele>
        <time>2020-03-14T16:09:32.000Z</time>
      </trkpt>
      <trkpt lat="45.89405" lon="4.47467">
        <ele>517.20001220703</ele>
        <time>2020-03-14T16:09:33.000Z</time>
      </trkpt>
      <trkpt lat="45.89406" lon="4.47467">
        <ele>517.40002441406</ele>
        <time>2020-03-14T16:09:34.000Z</time>
      </trkpt>
      <trkpt lat="45.89408" lon="4.47468">
        <ele>517.79998779297</ele>
        <time>2020-03-14T16:09:35.000Z</time>
      </trkpt>
      <trkpt lat="45.89409" lon="4.47468">
        <ele>518.20001220703</ele>
        <time>2020-03-14T16:09:36.000Z</time>
      </trkpt>
      <trkpt lat="45.8941" lon="4.47468">
        <ele>518.59997558594</ele>
        <time>2020-03-14T16:09:37.000Z</time>
      </trkpt>
      <trkpt lat="45.89411" lon="4.47468">
        <ele>518.79998779297</ele>
        <time>2020-03-14T16:09:38.000Z</time>
      </trkpt>
      <trkpt lat="45.89412" lon="4.47468">
        <ele>519.20001220703</ele>
        <time>2020-03-14T16:09:39.000Z</time>
      </trkpt>
      <trkpt lat="45.89414" lon="4.47469">
        <ele>519.40002441406</ele>
        <time>2020-03-14T16:09:40.000Z</time>
      </trkpt>
      <trkpt lat="45.89415" lon="4.47469">
        <ele>519.79998779297</ele>
        <time>2020-03-14T16:09:41.000Z</time>
      </trkpt>
      <trkpt lat="45.89416" lon="4.4747">
        <ele>520.20001220703</ele>
        <time>2020-03-14T16:09:42.000Z</time>
      </trkpt>
      <trkpt lat="45.89417" lon="4.4747">
        <ele>520.59997558594</ele>
        <time>2020-03-14T16:09:43.000Z</time>
      </trkpt>
      <trkpt lat="45.89418" lon="4.47471">
        <ele>520.79998779297</ele>
        <time>2020-03-14T16:09:44.000Z</time>
      </trkpt>
      <trkpt lat="45.89419" lon="4.47473">
        <ele>521</ele>
        <time>2020-03-14T16:09:45.000Z</time>
      </trkpt>
      <trkpt lat="45.8942" lon="4.47475">
        <ele>521.20001220703</ele>
        <time>2020-03-14T16:09:46.000Z</time>
      </trkpt>
      <trkpt lat="45.89419" lon="4.47476">
        <ele>521.40002441406</ele>
        <time>2020-03-14T16:09:47.000Z</time>
      </trkpt>
      <trkpt lat="45.89419" lon="4.47478">
        <ele>521.40002441406</ele>
        <time>2020-03-14T16:09:48.000Z</time>
      </trkpt>
      <trkpt lat="45.89418" lon="4.4748">
        <ele>521.59997558594</ele>
        <time>2020-03-14T16:09:49.000Z</time>
      </trkpt>
      <trkpt lat="45.89417" lon="4.47482">
        <ele>521.59997558594</ele>
        <time>2020-03-14T16:09:50.000Z</time>
      </trkpt>
      <trkpt lat="45.89417" lon="4.47484">
        <ele>521.59997558594</ele>
        <time>2020-03-14T16:09:51.000Z</time>
      </trkpt>
      <trkpt lat="45.89416" lon="4.47487">
        <ele>521.40002441406</ele>
        <time>2020-03-14T16:09:52.000Z</time>
      </trkpt>
      <trkpt lat="45.89415" lon="4.4749">
        <ele>521.40002441406</ele>
        <time>2020-03-14T16:09:53.000Z</time>
      </trkpt>
      <trkpt lat="45.89414" lon="4.47493">
        <ele>521.20001220703</ele>
        <time>2020-03-14T16:09:54.000Z</time>
      </trkpt>
      <trkpt lat="45.89413" lon="4.47496">
        <ele>521</ele>
        <time>2020-03-14T16:09:55.000Z</time>
      </trkpt>
      <trkpt lat="45.89411" lon="4.475">
        <ele>520.79998779297</ele>
        <time>2020-03-14T16:09:56.000Z</time>
      </trkpt>
      <trkpt lat="45.8941" lon="4.47505">
        <ele>520.59997558594</ele>
        <time>2020-03-14T16:09:57.000Z</time>
      </trkpt>
      <trkpt lat="45.89408" lon="4.47509">
        <ele>520.40002441406</ele>
        <time>2020-03-14T16:09:58.000Z</time>
      </trkpt>
      <trkpt lat="45.89406" lon="4.47515">
        <ele>520</ele>
        <time>2020-03-14T16:09:59.000Z</time>
      </trkpt>
      <trkpt lat="45.89405" lon="4.4752">
        <ele>519.59997558594</ele>
        <time>2020-03-14T16:10:00.000Z</time>
      </trkpt>
      <trkpt lat="45.89404" lon="4.47526">
        <ele>519.20001220703</ele>
        <time>2020-03-14T16:10:01.000Z</time>
      </trkpt>
      <trkpt lat="45.89402" lon="4.47532">
        <ele>519</ele>
        <time>2020-03-14T16:10:02.000Z</time>
      </trkpt>
      <trkpt lat="45.89401" lon="4.47538">
        <ele>518.79998779297</ele>
        <time>2020-03-14T16:10:03.000Z</time>
      </trkpt>
      <trkpt lat="45.894" lon="4.47544">
        <ele>518.79998779297</ele>
        <time>2020-03-14T16:10:04.000Z</time>
      </trkpt>
      <trkpt lat="45.89399" lon="4.47551">
        <ele>518.40002441406</ele>
        <time>2020-03-14T16:10:05.000Z</time>
      </trkpt>
      <trkpt lat="45.89398" lon="4.47557">
        <ele>518.20001220703</ele>
        <time>2020-03-14T16:10:06.000Z</time>
      </trkpt>
      <trkpt lat="45.89397" lon="4.47564">
        <ele>518</ele>
        <time>2020-03-14T16:10:07.000Z</time>
      </trkpt>
      <trkpt lat="45.89395" lon="4.47572">
        <ele>517.79998779297</ele>
        <time>2020-03-14T16:10:08.000Z</time>
      </trkpt>
      <trkpt lat="45.89393" lon="4.47579">
        <ele>517.59997558594</ele>
        <time>2020-03-14T16:10:09.000Z</time>
      </trkpt>
      <trkpt lat="45.89392" lon="4.47587">
        <ele>517.40002441406</ele>
        <time>2020-03-14T16:10:10.000Z</time>
      </trkpt>
      <trkpt lat="45.89391" lon="4.47594">
        <ele>517.20001220703</ele>
        <time>2020-03-14T16:10:11.000Z</time>
      </trkpt>
      <trkpt lat="45.8939" lon="4.47601">
        <ele>517</ele>
        <time>2020-03-14T16:10:12.000Z</time>
      </trkpt>
      <trkpt lat="45.89388" lon="4.4761">
        <ele>516.79998779297</ele>
        <time>2020-03-14T16:10:13.000Z</time>
      </trkpt>
      <trkpt lat="45.89386" lon="4.47618">
        <ele>516.79998779297</ele>
        <time>2020-03-14T16:10:14.000Z</time>
      </trkpt>
      <trkpt lat="45.89385" lon="4.47625">
        <ele>516.59997558594</ele>
        <time>2020-03-14T16:10:15.000Z</time>
      </trkpt>
      <trkpt lat="45.89384" lon="4.47632">
        <ele>516.59997558594</ele>
        <time>2020-03-14T16:10:16.000Z</time>
      </trkpt>
      <trkpt lat="45.89382" lon="4.47641">
        <ele>516.40002441406</ele>
        <time>2020-03-14T16:10:17.000Z</time>
      </trkpt>
      <trkpt lat="45.89381" lon="4.47648">
        <ele>516.40002441406</ele>
        <time>2020-03-14T16:10:18.000Z</time>
      </trkpt>
      <trkpt lat="45.8938" lon="4.47656">
        <ele>516.40002441406</ele>
        <time>2020-03-14T16:10:19.000Z</time>
      </trkpt>
      <trkpt lat="45.89379" lon="4.47662">
        <ele>516.20001220703</ele>
        <time>2020-03-14T16:10:20.000Z</time>
      </trkpt>
      <trkpt lat="45.89378" lon="4.47669">
        <ele>516.20001220703</ele>
        <time>2020-03-14T16:10:21.000Z</time>
      </trkpt>
      <trkpt lat="45.89377" lon="4.47676">
        <ele>516</ele>
        <time>2020-03-14T16:10:22.000Z</time>
      </trkpt>
      <trkpt lat="45.89375" lon="4.47683">
        <ele>515.79998779297</ele>
        <time>2020-03-14T16:10:23.000Z</time>
      </trkpt>
      <trkpt lat="45.89374" lon="4.4769">
        <ele>515.79998779297</ele>
        <time>2020-03-14T16:10:24.000Z</time>
      </trkpt>
      <trkpt lat="45.89372" lon="4.47698">
        <ele>515.59997558594</ele>
        <time>2020-03-14T16:10:25.000Z</time>
      </trkpt>
      <trkpt lat="45.89371" lon="4.47706">
        <ele>515.59997558594</ele>
        <time>2020-03-14T16:10:26.000Z</time>
      </trkpt>
      <trkpt lat="45.89369" lon="4.47713">
        <ele>515.20001220703</ele>
        <time>2020-03-14T16:10:27.000Z</time>
      </trkpt>
      <trkpt lat="45.89368" lon="4.4772">
        <ele>515</ele>
        <time>2020-03-14T16:10:28.000Z</time>
      </trkpt>
      <trkpt lat="45.89367" lon="4.47727">
        <ele>514.79998779297</ele>
        <time>2020-03-14T16:10:29.000Z</time>
      </trkpt>
      <trkpt lat="45.89366" lon="4.47734">
        <ele>514.40002441406</ele>
        <time>2020-03-14T16:10:30.000Z</time>
      </trkpt>
      <trkpt lat="45.89364" lon="4.47741">
        <ele>514.20001220703</ele>
        <time>2020-03-14T16:10:31.000Z</time>
      </trkpt>
      <trkpt lat="45.89362" lon="4.47748">
        <ele>513.79998779297</ele>
        <time>2020-03-14T16:10:32.000Z</time>
      </trkpt>
      <trkpt lat="45.89359" lon="4.47755">
        <ele>513.20001220703</ele>
        <time>2020-03-14T16:10:33.000Z</time>
      </trkpt>
      <trkpt lat="45.89355" lon="4.47761">
        <ele>512.59997558594</ele>
        <time>2020-03-14T16:10:34.000Z</time>
      </trkpt>
      <trkpt lat="45.8935" lon="4.47766">
        <ele>512.20001220703</ele>
        <time>2020-03-14T16:10:35.000Z</time>
      </trkpt>
      <trkpt lat="45.89344" lon="4.4777">
        <ele>511.79998779297</ele>
        <time>2020-03-14T16:10:36.000Z</time>
      </trkpt>
      <trkpt lat="45.89337" lon="4.47774">
        <ele>511.39999389648</ele>
        <time>2020-03-14T16:10:37.000Z</time>
      </trkpt>
      <trkpt lat="45.89331" lon="4.47778">
        <ele>510.60000610352</ele>
        <time>2020-03-14T16:10:38.000Z</time>
      </trkpt>
      <trkpt lat="45.89323" lon="4.47781">
        <ele>509.79998779297</ele>
        <time>2020-03-14T16:10:39.000Z</time>
      </trkpt>
      <trkpt lat="45.89316" lon="4.47785">
        <ele>508.79998779297</ele>
        <time>2020-03-14T16:10:40.000Z</time>
      </trkpt>
      <trkpt lat="45.89309" lon="4.47789">
        <ele>507.79998779297</ele>
        <time>2020-03-14T16:10:41.000Z</time>
      </trkpt>
      <trkpt lat="45.89301" lon="4.47792">
        <ele>506.79998779297</ele>
        <time>2020-03-14T16:10:42.000Z</time>
      </trkpt>
      <trkpt lat="45.89295" lon="4.47795">
        <ele>506</ele>
        <time>2020-03-14T16:10:43.000Z</time>
      </trkpt>
      <trkpt lat="45.89288" lon="4.47798">
        <ele>505</ele>
        <time>2020-03-14T16:10:44.000Z</time>
      </trkpt>
      <trkpt lat="45.89282" lon="4.47801">
        <ele>504.39999389648</ele>
        <time>2020-03-14T16:10:45.000Z</time>
      </trkpt>
      <trkpt lat="45.89276" lon="4.47804">
        <ele>504.20001220703</ele>
        <time>2020-03-14T16:10:46.000Z</time>
      </trkpt>
      <trkpt lat="45.89271" lon="4.47807">
        <ele>503.79998779297</ele>
        <time>2020-03-14T16:10:47.000Z</time>
      </trkpt>
      <trkpt lat="45.89266" lon="4.4781">
        <ele>503.60000610352</ele>
        <time>2020-03-14T16:10:48.000Z</time>
      </trkpt>
      <trkpt lat="45.8926" lon="4.47813">
        <ele>503.20001220703</ele>
        <time>2020-03-14T16:10:49.000Z</time>
      </trkpt>
      <trkpt lat="45.89255" lon="4.47815">
        <ele>503</ele>
        <time>2020-03-14T16:10:50.000Z</time>
      </trkpt>
      <trkpt lat="45.8925" lon="4.47817">
        <ele>502.79998779297</ele>
        <time>2020-03-14T16:10:51.000Z</time>
      </trkpt>
      <trkpt lat="45.89244" lon="4.47819">
        <ele>502.60000610352</ele>
        <time>2020-03-14T16:10:52.000Z</time>
      </trkpt>
      <trkpt lat="45.89238" lon="4.47821">
        <ele>502.39999389648</ele>
        <time>2020-03-14T16:10:53.000Z</time>
      </trkpt>
      <trkpt lat="45.89233" lon="4.47823">
        <ele>502.20001220703</ele>
        <time>2020-03-14T16:10:54.000Z</time>
      </trkpt>
      <trkpt lat="45.89227" lon="4.47824">
        <ele>502</ele>
        <time>2020-03-14T16:10:55.000Z</time>
      </trkpt>
      <trkpt lat="45.89222" lon="4.47826">
        <ele>501.79998779297</ele>
        <time>2020-03-14T16:10:56.000Z</time>
      </trkpt>
      <trkpt lat="45.89216" lon="4.47827">
        <ele>501.60000610352</ele>
        <time>2020-03-14T16:10:57.000Z</time>
      </trkpt>
      <trkpt lat="45.89211" lon="4.47829">
        <ele>501.60000610352</ele>
        <time>2020-03-14T16:10:58.000Z</time>
      </trkpt>
      <trkpt lat="45.89205" lon="4.47832">
        <ele>501.39999389648</ele>
        <time>2020-03-14T16:10:59.000Z</time>
      </trkpt>
      <trkpt lat="45.89199" lon="4.47834">
        <ele>501.20001220703</ele>
        <time>2020-03-14T16:11:00.000Z</time>
      </trkpt>
      <trkpt lat="45.89193" lon="4.47836">
        <ele>501.20001220703</ele>
        <time>2020-03-14T16:11:01.000Z</time>
      </trkpt>
      <trkpt lat="45.89187" lon="4.47839">
        <ele>500.79998779297</ele>
        <time>2020-03-14T16:11:02.000Z</time>
      </trkpt>
      <trkpt lat="45.89181" lon="4.47841">
        <ele>500.20001220703</ele>
        <time>2020-03-14T16:11:03.000Z</time>
      </trkpt>
      <trkpt lat="45.89177" lon="4.47843">
        <ele>499.60000610352</ele>
        <time>2020-03-14T16:11:04.000Z</time>
      </trkpt>
      <trkpt lat="45.89174" lon="4.47845">
        <ele>499</ele>
        <time>2020-03-14T16:11:05.000Z</time>
      </trkpt>
      <trkpt lat="45.89172" lon="4.47846">
        <ele>498.39999389648</ele>
        <time>2020-03-14T16:11:06.000Z</time>
      </trkpt>
      <trkpt lat="45.89171" lon="4.47847">
        <ele>498</ele>
        <time>2020-03-14T16:11:07.000Z</time>
      </trkpt>
      <trkpt lat="45.8917" lon="4.47848">
        <ele>497.60000610352</ele>
        <time>2020-03-14T16:11:08.000Z</time>
      </trkpt>
      <trkpt lat="45.89171" lon="4.47848">
        <ele>497.20001220703</ele>
        <time>2020-03-14T16:11:09.000Z</time>
      </trkpt>
      <trkpt lat="45.89171" lon="4.4785">
        <ele>497</ele>
        <time>2020-03-14T16:11:10.000Z</time>
      </trkpt>
      <trkpt lat="45.89171" lon="4.47853">
        <ele>497</ele>
        <time>2020-03-14T16:11:11.000Z</time>
      </trkpt>
      <trkpt lat="45.89172" lon="4.47855">
        <ele>496.79998779297</ele>
        <time>2020-03-14T16:11:12.000Z</time>
      </trkpt>
      <trkpt lat="45.89173" lon="4.47857">
        <ele>496.79998779297</ele>
        <time>2020-03-14T16:11:13.000Z</time>
      </trkpt>
      <trkpt lat="45.89173" lon="4.47859">
        <ele>497</ele>
        <time>2020-03-14T16:11:14.000Z</time>
      </trkpt>
      <trkpt lat="45.89174" lon="4.4786">
        <ele>497.60000610352</ele>
        <time>2020-03-14T16:11:15.000Z</time>
      </trkpt>
      <trkpt lat="45.89175" lon="4.47862">
        <ele>498.20001220703</ele>
        <time>2020-03-14T16:11:16.000Z</time>
      </trkpt>
      <trkpt lat="45.89176" lon="4.47864">
        <ele>498.39999389648</ele>
        <time>2020-03-14T16:11:17.000Z</time>
      </trkpt>
      <trkpt lat="45.89176" lon="4.47865">
        <ele>498.60000610352</ele>
        <time>2020-03-14T16:11:18.000Z</time>
      </trkpt>
      <trkpt lat="45.89176" lon="4.47867">
        <ele>498.60000610352</ele>
        <time>2020-03-14T16:11:19.000Z</time>
      </trkpt>
      <trkpt lat="45.89176" lon="4.47867">
        <ele>498.79998779297</ele>
        <time>2020-03-14T16:11:20.000Z</time>
      </trkpt>
      <trkpt lat="45.89175" lon="4.47867">
        <ele>498.79998779297</ele>
        <time>2020-03-14T16:11:21.000Z</time>
      </trkpt>
      <trkpt lat="45.89175" lon="4.47867">
        <ele>499</ele>
        <time>2020-03-14T16:11:22.000Z</time>
      </trkpt>
      <trkpt lat="45.89175" lon="4.47867">
        <ele>498.79998779297</ele>
        <time>2020-03-14T16:11:23.000Z</time>
      </trkpt>
      <trkpt lat="45.89175" lon="4.47866">
        <ele>498.79998779297</ele>
        <time>2020-03-14T16:11:24.000Z</time>
      </trkpt>
      <trkpt lat="45.89174" lon="4.47866">
        <ele>498.79998779297</ele>
        <time>2020-03-14T16:11:25.000Z</time>
      </trkpt>
      <trkpt lat="45.89174" lon="4.47865">
        <ele>498.60000610352</ele>
        <time>2020-03-14T16:11:26.000Z</time>
      </trkpt>
      <trkpt lat="45.89173" lon="4.47864">
        <ele>498.60000610352</ele>
        <time>2020-03-14T16:11:27.000Z</time>
      </trkpt>
      <trkpt lat="45.89173" lon="4.47861">
        <ele>498.39999389648</ele>
        <time>2020-03-14T16:11:28.000Z</time>
      </trkpt>
      <trkpt lat="45.89172" lon="4.47858">
        <ele>498.20001220703</ele>
        <time>2020-03-14T16:11:29.000Z</time>
      </trkpt>
      <trkpt lat="45.89172" lon="4.47856">
        <ele>498</ele>
        <time>2020-03-14T16:11:30.000Z</time>
      </trkpt>
      <trkpt lat="45.89171" lon="4.47854">
        <ele>497.79998779297</ele>
        <time>2020-03-14T16:11:31.000Z</time>
      </trkpt>
      <trkpt lat="45.8917" lon="4.47853">
        <ele>497.60000610352</ele>
        <time>2020-03-14T16:11:32.000Z</time>
      </trkpt>
      <trkpt lat="45.89168" lon="4.47852">
        <ele>497.39999389648</ele>
        <time>2020-03-14T16:11:33.000Z</time>
      </trkpt>
      <trkpt lat="45.89166" lon="4.47851">
        <ele>497.20001220703</ele>
        <time>2020-03-14T16:11:34.000Z</time>
      </trkpt>
      <trkpt lat="45.89165" lon="4.47851">
        <ele>496.79998779297</ele>
        <time>2020-03-14T16:11:35.000Z</time>
      </trkpt>
      <trkpt lat="45.89163" lon="4.47852">
        <ele>496.39999389648</ele>
        <time>2020-03-14T16:11:36.000Z</time>
      </trkpt>
      <trkpt lat="45.89161" lon="4.47852">
        <ele>496</ele>
        <time>2020-03-14T16:11:37.000Z</time>
      </trkpt>
      <trkpt lat="45.89159" lon="4.47853">
        <ele>495.39999389648</ele>
        <time>2020-03-14T16:11:38.000Z</time>
      </trkpt>
      <trkpt lat="45.89157" lon="4.47853">
        <ele>495.20001220703</ele>
        <time>2020-03-14T16:11:39.000Z</time>
      </trkpt>
      <trkpt lat="45.89155" lon="4.47854">
        <ele>495</ele>
        <time>2020-03-14T16:11:40.000Z</time>
      </trkpt>
      <trkpt lat="45.89152" lon="4.47854">
        <ele>494.60000610352</ele>
        <time>2020-03-14T16:11:41.000Z</time>
      </trkpt>
      <trkpt lat="45.8915" lon="4.47854">
        <ele>494.39999389648</ele>
        <time>2020-03-14T16:11:42.000Z</time>
      </trkpt>
      <trkpt lat="45.89147" lon="4.47855">
        <ele>494</ele>
        <time>2020-03-14T16:11:43.000Z</time>
      </trkpt>
      <trkpt lat="45.89145" lon="4.47855">
        <ele>493.60000610352</ele>
        <time>2020-03-14T16:11:44.000Z</time>
      </trkpt>
      <trkpt lat="45.89142" lon="4.47856">
        <ele>493.20001220703</ele>
        <time>2020-03-14T16:11:45.000Z</time>
      </trkpt>
      <trkpt lat="45.8914" lon="4.47856">
        <ele>492.79998779297</ele>
        <time>2020-03-14T16:11:46.000Z</time>
      </trkpt>
      <trkpt lat="45.89137" lon="4.47856">
        <ele>492.39999389648</ele>
        <time>2020-03-14T16:11:47.000Z</time>
      </trkpt>
      <trkpt lat="45.89135" lon="4.47857">
        <ele>492.20001220703</ele>
        <time>2020-03-14T16:11:48.000Z</time>
      </trkpt>
      <trkpt lat="45.89133" lon="4.47857">
        <ele>492</ele>
        <time>2020-03-14T16:11:49.000Z</time>
      </trkpt>
      <trkpt lat="45.89131" lon="4.47859">
        <ele>491.39999389648</ele>
        <time>2020-03-14T16:11:50.000Z</time>
      </trkpt>
      <trkpt lat="45.8913" lon="4.47861">
        <ele>491.20001220703</ele>
        <time>2020-03-14T16:11:51.000Z</time>
      </trkpt>
      <trkpt lat="45.89129" lon="4.47863">
        <ele>491</ele>
        <time>2020-03-14T16:11:52.000Z</time>
      </trkpt>
      <trkpt lat="45.89129" lon="4.47866">
        <ele>490.79998779297</ele>
        <time>2020-03-14T16:11:53.000Z</time>
      </trkpt>
      <trkpt lat="45.89129" lon="4.4787">
        <ele>490.60000610352</ele>
        <time>2020-03-14T16:11:54.000Z</time>
      </trkpt>
      <trkpt lat="45.89128" lon="4.47873">
        <ele>490.39999389648</ele>
        <time>2020-03-14T16:11:55.000Z</time>
      </trkpt>
      <trkpt lat="45.89128" lon="4.47877">
        <ele>490.20001220703</ele>
        <time>2020-03-14T16:11:56.000Z</time>
      </trkpt>
      <trkpt lat="45.89127" lon="4.47881">
        <ele>490</ele>
        <time>2020-03-14T16:11:57.000Z</time>
      </trkpt>
      <trkpt lat="45.89127" lon="4.47885">
        <ele>490</ele>
        <time>2020-03-14T16:11:58.000Z</time>
      </trkpt>
      <trkpt lat="45.89126" lon="4.4789">
        <ele>490</ele>
        <time>2020-03-14T16:11:59.000Z</time>
      </trkpt>
      <trkpt lat="45.89126" lon="4.47894">
        <ele>489.79998779297</ele>
        <time>2020-03-14T16:12:00.000Z</time>
      </trkpt>
      <trkpt lat="45.89125" lon="4.47899">
        <ele>489.79998779297</ele>
        <time>2020-03-14T16:12:01.000Z</time>
      </trkpt>
      <trkpt lat="45.89125" lon="4.47904">
        <ele>489.79998779297</ele>
        <time>2020-03-14T16:12:02.000Z</time>
      </trkpt>
      <trkpt lat="45.89124" lon="4.47909">
        <ele>489.79998779297</ele>
        <time>2020-03-14T16:12:03.000Z</time>
      </trkpt>
      <trkpt lat="45.89123" lon="4.47914">
        <ele>489.79998779297</ele>
        <time>2020-03-14T16:12:04.000Z</time>
      </trkpt>
      <trkpt lat="45.89123" lon="4.47918">
        <ele>489.79998779297</ele>
        <time>2020-03-14T16:12:05.000Z</time>
      </trkpt>
      <trkpt lat="45.89122" lon="4.47924">
        <ele>490</ele>
        <time>2020-03-14T16:12:06.000Z</time>
      </trkpt>
      <trkpt lat="45.89122" lon="4.47928">
        <ele>490.20001220703</ele>
        <time>2020-03-14T16:12:07.000Z</time>
      </trkpt>
      <trkpt lat="45.89121" lon="4.47933">
        <ele>490.39999389648</ele>
        <time>2020-03-14T16:12:08.000Z</time>
      </trkpt>
      <trkpt lat="45.8912" lon="4.47938">
        <ele>490.60000610352</ele>
        <time>2020-03-14T16:12:09.000Z</time>
      </trkpt>
      <trkpt lat="45.8912" lon="4.47943">
        <ele>490.60000610352</ele>
        <time>2020-03-14T16:12:10.000Z</time>
      </trkpt>
      <trkpt lat="45.89119" lon="4.47947">
        <ele>490.60000610352</ele>
        <time>2020-03-14T16:12:11.000Z</time>
      </trkpt>
      <trkpt lat="45.89118" lon="4.47952">
        <ele>490.60000610352</ele>
        <time>2020-03-14T16:12:12.000Z</time>
      </trkpt>
      <trkpt lat="45.89117" lon="4.47958">
        <ele>490.60000610352</ele>
        <time>2020-03-14T16:12:13.000Z</time>
      </trkpt>
      <trkpt lat="45.89117" lon="4.47964">
        <ele>490.60000610352</ele>
        <time>2020-03-14T16:12:14.000Z</time>
      </trkpt>
      <trkpt lat="45.89115" lon="4.47971">
        <ele>490.60000610352</ele>
        <time>2020-03-14T16:12:15.000Z</time>
      </trkpt>
      <trkpt lat="45.89114" lon="4.47977">
        <ele>490.60000610352</ele>
        <time>2020-03-14T16:12:16.000Z</time>
      </trkpt>
      <trkpt lat="45.89113" lon="4.47982">
        <ele>490.79998779297</ele>
        <time>2020-03-14T16:12:17.000Z</time>
      </trkpt>
      <trkpt lat="45.89112" lon="4.47989">
        <ele>490.60000610352</ele>
        <time>2020-03-14T16:12:18.000Z</time>
      </trkpt>
      <trkpt lat="45.89111" lon="4.47995">
        <ele>490.79998779297</ele>
        <time>2020-03-14T16:12:19.000Z</time>
      </trkpt>
      <trkpt lat="45.89109" lon="4.48002">
        <ele>490.79998779297</ele>
        <time>2020-03-14T16:12:20.000Z</time>
      </trkpt>
      <trkpt lat="45.89108" lon="4.48008">
        <ele>490.60000610352</ele>
        <time>2020-03-14T16:12:21.000Z</time>
      </trkpt>
      <trkpt lat="45.89107" lon="4.48013">
        <ele>490</ele>
        <time>2020-03-14T16:12:22.000Z</time>
      </trkpt>
      <trkpt lat="45.89106" lon="4.48017">
        <ele>489.20001220703</ele>
        <time>2020-03-14T16:12:23.000Z</time>
      </trkpt>
      <trkpt lat="45.89106" lon="4.48019">
        <ele>488.39999389648</ele>
        <time>2020-03-14T16:12:24.000Z</time>
      </trkpt>
      <trkpt lat="45.89106" lon="4.4802">
        <ele>488</ele>
        <time>2020-03-14T16:12:25.000Z</time>
      </trkpt>
      <trkpt lat="45.89106" lon="4.4802">
        <ele>487.79998779297</ele>
        <time>2020-03-14T16:12:26.000Z</time>
      </trkpt>
      <trkpt lat="45.89106" lon="4.48019">
        <ele>487.79998779297</ele>
        <time>2020-03-14T16:12:27.000Z</time>
      </trkpt>
      <trkpt lat="45.89106" lon="4.48019">
        <ele>487.60000610352</ele>
        <time>2020-03-14T16:12:28.000Z</time>
      </trkpt>
      <trkpt lat="45.89106" lon="4.4802">
        <ele>487.60000610352</ele>
        <time>2020-03-14T16:12:29.000Z</time>
      </trkpt>
      <trkpt lat="45.89106" lon="4.48022">
        <ele>487.60000610352</ele>
        <time>2020-03-14T16:12:30.000Z</time>
      </trkpt>
      <trkpt lat="45.89105" lon="4.48024">
        <ele>487.39999389648</ele>
        <time>2020-03-14T16:12:31.000Z</time>
      </trkpt>
      <trkpt lat="45.89104" lon="4.48025">
        <ele>487.20001220703</ele>
        <time>2020-03-14T16:12:32.000Z</time>
      </trkpt>
      <trkpt lat="45.89105" lon="4.48026">
        <ele>487</ele>
        <time>2020-03-14T16:12:33.000Z</time>
      </trkpt>
      <trkpt lat="45.89104" lon="4.48026">
        <ele>486.60000610352</ele>
        <time>2020-03-14T16:12:34.000Z</time>
      </trkpt>
      <trkpt lat="45.89104" lon="4.48027">
        <ele>486.39999389648</ele>
        <time>2020-03-14T16:12:35.000Z</time>
      </trkpt>
      <trkpt lat="45.89104" lon="4.48027">
        <ele>486.20001220703</ele>
        <time>2020-03-14T16:12:36.000Z</time>
      </trkpt>
      <trkpt lat="45.89104" lon="4.48027">
        <ele>486</ele>
        <time>2020-03-14T16:12:37.000Z</time>
      </trkpt>
      <trkpt lat="45.89104" lon="4.48027">
        <ele>485.79998779297</ele>
        <time>2020-03-14T16:12:38.000Z</time>
      </trkpt>
      <trkpt lat="45.89104" lon="4.48027">
        <ele>485.60000610352</ele>
        <time>2020-03-14T16:12:39.000Z</time>
      </trkpt>
      <trkpt lat="45.89104" lon="4.48027">
        <ele>485.60000610352</ele>
        <time>2020-03-14T16:12:40.000Z</time>
      </trkpt>
      <trkpt lat="45.89104" lon="4.48027">
        <ele>485.60000610352</ele>
        <time>2020-03-14T16:12:41.000Z</time>
      </trkpt>
      <trkpt lat="45.89104" lon="4.48027">
        <ele>485.60000610352</ele>
        <time>2020-03-14T16:12:42.000Z</time>
      </trkpt>
      <trkpt lat="45.89104" lon="4.48027">
        <ele>485.39999389648</ele>
        <time>2020-03-14T16:12:43.000Z</time>
      </trkpt>
      <trkpt lat="45.89104" lon="4.48027">
        <ele>485.39999389648</ele>
        <time>2020-03-14T16:12:44.000Z</time>
      </trkpt>
      <trkpt lat="45.89104" lon="4.48028">
        <ele>485.39999389648</ele>
        <time>2020-03-14T16:12:45.000Z</time>
      </trkpt>
      <trkpt lat="45.89104" lon="4.48029">
        <ele>485.39999389648</ele>
        <time>2020-03-14T16:12:46.000Z</time>
      </trkpt>
      <trkpt lat="45.89103" lon="4.48032">
        <ele>485.39999389648</ele>
        <time>2020-03-14T16:12:47.000Z</time>
      </trkpt>
      <trkpt lat="45.89101" lon="4.48036">
        <ele>485.20001220703</ele>
        <time>2020-03-14T16:12:48.000Z</time>
      </trkpt>
      <trkpt lat="45.891" lon="4.4804">
        <ele>485.20001220703</ele>
        <time>2020-03-14T16:12:49.000Z</time>
      </trkpt>
      <trkpt lat="45.89099" lon="4.48043">
        <ele>485.20001220703</ele>
        <time>2020-03-14T16:12:50.000Z</time>
      </trkpt>
      <trkpt lat="45.89097" lon="4.48049">
        <ele>485</ele>
        <time>2020-03-14T16:12:51.000Z</time>
      </trkpt>
      <trkpt lat="45.89095" lon="4.48054">
        <ele>484.79998779297</ele>
        <time>2020-03-14T16:12:52.000Z</time>
      </trkpt>
      <trkpt lat="45.89093" lon="4.4806">
        <ele>484.79998779297</ele>
        <time>2020-03-14T16:12:53.000Z</time>
      </trkpt>
      <trkpt lat="45.8909" lon="4.48065">
        <ele>484.60000610352</ele>
        <time>2020-03-14T16:12:54.000Z</time>
      </trkpt>
      <trkpt lat="45.89086" lon="4.48069">
        <ele>484.39999389648</ele>
        <time>2020-03-14T16:12:55.000Z</time>
      </trkpt>
      <trkpt lat="45.89081" lon="4.48071">
        <ele>483.79998779297</ele>
        <time>2020-03-14T16:12:56.000Z</time>
      </trkpt>
      <trkpt lat="45.89075" lon="4.48071">
        <ele>483</ele>
        <time>2020-03-14T16:12:57.000Z</time>
      </trkpt>
      <trkpt lat="45.89068" lon="4.4807">
        <ele>482.20001220703</ele>
        <time>2020-03-14T16:12:58.000Z</time>
      </trkpt>
      <trkpt lat="45.89061" lon="4.48068">
        <ele>481.60000610352</ele>
        <time>2020-03-14T16:12:59.000Z</time>
      </trkpt>
      <trkpt lat="45.89054" lon="4.48066">
        <ele>481</ele>
        <time>2020-03-14T16:13:00.000Z</time>
      </trkpt>
      <trkpt lat="45.89047" lon="4.48064">
        <ele>480.39999389648</ele>
        <time>2020-03-14T16:13:01.000Z</time>
      </trkpt>
      <trkpt lat="45.89039" lon="4.48062">
        <ele>479.79998779297</ele>
        <time>2020-03-14T16:13:02.000Z</time>
      </trkpt>
      <trkpt lat="45.89032" lon="4.4806">
        <ele>479</ele>
        <time>2020-03-14T16:13:03.000Z</time>
      </trkpt>
      <trkpt lat="45.89025" lon="4.48058">
        <ele>478.20001220703</ele>
        <time>2020-03-14T16:13:04.000Z</time>
      </trkpt>
      <trkpt lat="45.89019" lon="4.48055">
        <ele>477.79998779297</ele>
        <time>2020-03-14T16:13:05.000Z</time>
      </trkpt>
      <trkpt lat="45.89012" lon="4.48054">
        <ele>477.20001220703</ele>
        <time>2020-03-14T16:13:06.000Z</time>
      </trkpt>
      <trkpt lat="45.89005" lon="4.48054">
        <ele>476.60000610352</ele>
        <time>2020-03-14T16:13:07.000Z</time>
      </trkpt>
      <trkpt lat="45.88997" lon="4.48054">
        <ele>476.20001220703</ele>
        <time>2020-03-14T16:13:08.000Z</time>
      </trkpt>
      <trkpt lat="45.88989" lon="4.48054">
        <ele>476</ele>
        <time>2020-03-14T16:13:09.000Z</time>
      </trkpt>
      <trkpt lat="45.88981" lon="4.48054">
        <ele>475.60000610352</ele>
        <time>2020-03-14T16:13:10.000Z</time>
      </trkpt>
      <trkpt lat="45.88973" lon="4.48056">
        <ele>475.39999389648</ele>
        <time>2020-03-14T16:13:11.000Z</time>
      </trkpt>
      <trkpt lat="45.88965" lon="4.48057">
        <ele>475.20001220703</ele>
        <time>2020-03-14T16:13:12.000Z</time>
      </trkpt>
      <trkpt lat="45.88957" lon="4.48059">
        <ele>474.79998779297</ele>
        <time>2020-03-14T16:13:13.000Z</time>
      </trkpt>
      <trkpt lat="45.88949" lon="4.4806">
        <ele>474.60000610352</ele>
        <time>2020-03-14T16:13:14.000Z</time>
      </trkpt>
      <trkpt lat="45.88941" lon="4.48062">
        <ele>474.39999389648</ele>
        <time>2020-03-14T16:13:15.000Z</time>
      </trkpt>
      <trkpt lat="45.88933" lon="4.48063">
        <ele>474</ele>
        <time>2020-03-14T16:13:16.000Z</time>
      </trkpt>
      <trkpt lat="45.88926" lon="4.48065">
        <ele>473.39999389648</ele>
        <time>2020-03-14T16:13:17.000Z</time>
      </trkpt>
      <trkpt lat="45.88918" lon="4.48067">
        <ele>472.79998779297</ele>
        <time>2020-03-14T16:13:18.000Z</time>
      </trkpt>
      <trkpt lat="45.88911" lon="4.4807">
        <ele>472.20001220703</ele>
        <time>2020-03-14T16:13:19.000Z</time>
      </trkpt>
      <trkpt lat="45.88903" lon="4.48073">
        <ele>471.39999389648</ele>
        <time>2020-03-14T16:13:20.000Z</time>
      </trkpt>
      <trkpt lat="45.88896" lon="4.48077">
        <ele>470.20001220703</ele>
        <time>2020-03-14T16:13:21.000Z</time>
      </trkpt>
      <trkpt lat="45.88888" lon="4.48081">
        <ele>469</ele>
        <time>2020-03-14T16:13:22.000Z</time>
      </trkpt>
      <trkpt lat="45.8888" lon="4.48085">
        <ele>468.39999389648</ele>
        <time>2020-03-14T16:13:23.000Z</time>
      </trkpt>
      <trkpt lat="45.88872" lon="4.4809">
        <ele>468.20001220703</ele>
        <time>2020-03-14T16:13:24.000Z</time>
      </trkpt>
      <trkpt lat="45.88865" lon="4.48094">
        <ele>468</ele>
        <time>2020-03-14T16:13:25.000Z</time>
      </trkpt>
      <trkpt lat="45.88857" lon="4.48099">
        <ele>467.79998779297</ele>
        <time>2020-03-14T16:13:26.000Z</time>
      </trkpt>
      <trkpt lat="45.8885" lon="4.48104">
        <ele>467.79998779297</ele>
        <time>2020-03-14T16:13:27.000Z</time>
      </trkpt>
      <trkpt lat="45.88843" lon="4.48108">
        <ele>467.60000610352</ele>
        <time>2020-03-14T16:13:28.000Z</time>
      </trkpt>
      <trkpt lat="45.88837" lon="4.48113">
        <ele>467.39999389648</ele>
        <time>2020-03-14T16:13:29.000Z</time>
      </trkpt>
      <trkpt lat="45.88832" lon="4.48117">
        <ele>467.39999389648</ele>
        <time>2020-03-14T16:13:30.000Z</time>
      </trkpt>
      <trkpt lat="45.88827" lon="4.4812">
        <ele>467.20001220703</ele>
        <time>2020-03-14T16:13:31.000Z</time>
      </trkpt>
      <trkpt lat="45.88822" lon="4.48123">
        <ele>467.20001220703</ele>
        <time>2020-03-14T16:13:32.000Z</time>
      </trkpt>
      <trkpt lat="45.88818" lon="4.48127">
        <ele>467.20001220703</ele>
        <time>2020-03-14T16:13:33.000Z</time>
      </trkpt>
      <trkpt lat="45.88814" lon="4.4813">
        <ele>467</ele>
        <time>2020-03-14T16:13:34.000Z</time>
      </trkpt>
      <trkpt lat="45.88809" lon="4.48134">
        <ele>466.60000610352</ele>
        <time>2020-03-14T16:13:35.000Z</time>
      </trkpt>
      <trkpt lat="45.88804" lon="4.48139">
        <ele>465.79998779297</ele>
        <time>2020-03-14T16:13:36.000Z</time>
      </trkpt>
      <trkpt lat="45.88799" lon="4.48144">
        <ele>465.20001220703</ele>
        <time>2020-03-14T16:13:37.000Z</time>
      </trkpt>
      <trkpt lat="45.88794" lon="4.48149">
        <ele>464.79998779297</ele>
        <time>2020-03-14T16:13:38.000Z</time>
      </trkpt>
      <trkpt lat="45.8879" lon="4.48153">
        <ele>464.60000610352</ele>
        <time>2020-03-14T16:13:39.000Z</time>
      </trkpt>
      <trkpt lat="45.88786" lon="4.48158">
        <ele>464.39999389648</ele>
        <time>2020-03-14T16:13:40.000Z</time>
      </trkpt>
      <trkpt lat="45.88783" lon="4.48161">
        <ele>464.39999389648</ele>
        <time>2020-03-14T16:13:41.000Z</time>
      </trkpt>
      <trkpt lat="45.88782" lon="4.48163">
        <ele>464.39999389648</ele>
        <time>2020-03-14T16:13:42.000Z</time>
      </trkpt>
      <trkpt lat="45.88781" lon="4.48165">
        <ele>464.20001220703</ele>
        <time>2020-03-14T16:13:43.000Z</time>
      </trkpt>
      <trkpt lat="45.8878" lon="4.48169">
        <ele>464</ele>
        <time>2020-03-14T16:13:44.000Z</time>
      </trkpt>
      <trkpt lat="45.88779" lon="4.48172">
        <ele>463.60000610352</ele>
        <time>2020-03-14T16:13:45.000Z</time>
      </trkpt>
      <trkpt lat="45.88778" lon="4.48173">
        <ele>463.20001220703</ele>
        <time>2020-03-14T16:13:46.000Z</time>
      </trkpt>
      <trkpt lat="45.88778" lon="4.48174">
        <ele>462.79998779297</ele>
        <time>2020-03-14T16:13:47.000Z</time>
      </trkpt>
      <trkpt lat="45.88778" lon="4.48174">
        <ele>462.60000610352</ele>
        <time>2020-03-14T16:13:48.000Z</time>
      </trkpt>
      <trkpt lat="45.88778" lon="4.48174">
        <ele>462.60000610352</ele>
        <time>2020-03-14T16:13:49.000Z</time>
      </trkpt>
      <trkpt lat="45.88778" lon="4.48174">
        <ele>462.39999389648</ele>
        <time>2020-03-14T16:13:50.000Z</time>
      </trkpt>
      <trkpt lat="45.88778" lon="4.48174">
        <ele>462.39999389648</ele>
        <time>2020-03-14T16:13:51.000Z</time>
      </trkpt>
      <trkpt lat="45.88778" lon="4.48174">
        <ele>462.39999389648</ele>
        <time>2020-03-14T16:13:52.000Z</time>
      </trkpt>
      <trkpt lat="45.88778" lon="4.48174">
        <ele>462.39999389648</ele>
        <time>2020-03-14T16:13:53.000Z</time>
      </trkpt>
      <trkpt lat="45.88778" lon="4.48174">
        <ele>462.39999389648</ele>
        <time>2020-03-14T16:13:54.000Z</time>
      </trkpt>
      <trkpt lat="45.88778" lon="4.48174">
        <ele>462.39999389648</ele>
        <time>2020-03-14T16:13:55.000Z</time>
      </trkpt>
      <trkpt lat="45.88778" lon="4.48174">
        <ele>462.60000610352</ele>
        <time>2020-03-14T16:13:56.000Z</time>
      </trkpt>
      <trkpt lat="45.88778" lon="4.48174">
        <ele>462.60000610352</ele>
        <time>2020-03-14T16:13:57.000Z</time>
      </trkpt>
      <trkpt lat="45.88778" lon="4.48174">
        <ele>462.60000610352</ele>
        <time>2020-03-14T16:13:58.000Z</time>
      </trkpt>
      <trkpt lat="45.88778" lon="4.48174">
        <ele>462.79998779297</ele>
        <time>2020-03-14T16:13:59.000Z</time>
      </trkpt>
      <trkpt lat="45.88778" lon="4.48174">
        <ele>462.60000610352</ele>
        <time>2020-03-14T16:14:00.000Z</time>
      </trkpt>
      <trkpt lat="45.88778" lon="4.48174">
        <ele>462.20001220703</ele>
        <time>2020-03-14T16:14:01.000Z</time>
      </trkpt>
      <trkpt lat="45.88778" lon="4.48174">
        <ele>462.20001220703</ele>
        <time>2020-03-14T16:14:02.000Z</time>
      </trkpt>
      <trkpt lat="45.88778" lon="4.48175">
        <ele>462</ele>
        <time>2020-03-14T16:14:03.000Z</time>
      </trkpt>
      <trkpt lat="45.88778" lon="4.48175">
        <ele>462</ele>
        <time>2020-03-14T16:14:04.000Z</time>
      </trkpt>
      <trkpt lat="45.88778" lon="4.48175">
        <ele>462</ele>
        <time>2020-03-14T16:14:05.000Z</time>
      </trkpt>
      <trkpt lat="45.88778" lon="4.48175">
        <ele>461.79998779297</ele>
        <time>2020-03-14T16:14:06.000Z</time>
      </trkpt>
      <trkpt lat="45.88778" lon="4.48176">
        <ele>461.79998779297</ele>
        <time>2020-03-14T16:14:07.000Z</time>
      </trkpt>
      <trkpt lat="45.88778" lon="4.48176">
        <ele>461.79998779297</ele>
        <time>2020-03-14T16:14:08.000Z</time>
      </trkpt>
      <trkpt lat="45.88778" lon="4.48176">
        <ele>461.60000610352</ele>
        <time>2020-03-14T16:14:09.000Z</time>
      </trkpt>
      <trkpt lat="45.88779" lon="4.48177">
        <ele>461.60000610352</ele>
        <time>2020-03-14T16:14:10.000Z</time>
      </trkpt>
      <trkpt lat="45.88779" lon="4.48177">
        <ele>461.39999389648</ele>
        <time>2020-03-14T16:14:11.000Z</time>
      </trkpt>
      <trkpt lat="45.88779" lon="4.48177">
        <ele>461.39999389648</ele>
        <time>2020-03-14T16:14:12.000Z</time>
      </trkpt>
      <trkpt lat="45.88779" lon="4.48177">
        <ele>461.39999389648</ele>
        <time>2020-03-14T16:14:13.000Z</time>
      </trkpt>
      <trkpt lat="45.88779" lon="4.48177">
        <ele>461.20001220703</ele>
        <time>2020-03-14T16:14:14.000Z</time>
      </trkpt>
      <trkpt lat="45.88779" lon="4.48177">
        <ele>461.20001220703</ele>
        <time>2020-03-14T16:14:15.000Z</time>
      </trkpt>
      <trkpt lat="45.88779" lon="4.48177">
        <ele>461.20001220703</ele>
        <time>2020-03-14T16:14:16.000Z</time>
      </trkpt>
      <trkpt lat="45.88779" lon="4.48177">
        <ele>461.20001220703</ele>
        <time>2020-03-14T16:14:17.000Z</time>
      </trkpt>
      <trkpt lat="45.88779" lon="4.48177">
        <ele>461.20001220703</ele>
        <time>2020-03-14T16:14:18.000Z</time>
      </trkpt>
      <trkpt lat="45.88779" lon="4.48177">
        <ele>461.20001220703</ele>
        <time>2020-03-14T16:14:19.000Z</time>
      </trkpt>
      <trkpt lat="45.88779" lon="4.48177">
        <ele>461.20001220703</ele>
        <time>2020-03-14T16:14:20.000Z</time>
      </trkpt>
      <trkpt lat="45.88779" lon="4.48177">
        <ele>461.20001220703</ele>
        <time>2020-03-14T16:14:21.000Z</time>
      </trkpt>
      <trkpt lat="45.88779" lon="4.48177">
        <ele>461.20001220703</ele>
        <time>2020-03-14T16:14:22.000Z</time>
      </trkpt>
      <trkpt lat="45.88779" lon="4.48177">
        <ele>461.20001220703</ele>
        <time>2020-03-14T16:14:23.000Z</time>
      </trkpt>
      <trkpt lat="45.88779" lon="4.48178">
        <ele>461.39999389648</ele>
        <time>2020-03-14T16:14:24.000Z</time>
      </trkpt>
      <trkpt lat="45.88779" lon="4.48178">
        <ele>461.60000610352</ele>
        <time>2020-03-14T16:14:25.000Z</time>
      </trkpt>
      <trkpt lat="45.88779" lon="4.48179">
        <ele>461.79998779297</ele>
        <time>2020-03-14T16:14:26.000Z</time>
      </trkpt>
      <trkpt lat="45.88779" lon="4.48179">
        <ele>461.79998779297</ele>
        <time>2020-03-14T16:14:27.000Z</time>
      </trkpt>
      <trkpt lat="45.88779" lon="4.48179">
        <ele>461.60000610352</ele>
        <time>2020-03-14T16:14:28.000Z</time>
      </trkpt>
      <trkpt lat="45.88779" lon="4.48179">
        <ele>461.60000610352</ele>
        <time>2020-03-14T16:14:29.000Z</time>
      </trkpt>
      <trkpt lat="45.88779" lon="4.48179">
        <ele>461.39999389648</ele>
        <time>2020-03-14T16:14:30.000Z</time>
      </trkpt>
      <trkpt lat="45.88779" lon="4.48179">
        <ele>461.39999389648</ele>
        <time>2020-03-14T16:14:31.000Z</time>
      </trkpt>
      <trkpt lat="45.88779" lon="4.48179">
        <ele>461.20001220703</ele>
        <time>2020-03-14T16:14:32.000Z</time>
      </trkpt>
      <trkpt lat="45.88778" lon="4.48179">
        <ele>461.39999389648</ele>
        <time>2020-03-14T16:14:33.000Z</time>
      </trkpt>
      <trkpt lat="45.88777" lon="4.4818">
        <ele>461.39999389648</ele>
        <time>2020-03-14T16:14:34.000Z</time>
      </trkpt>
      <trkpt lat="45.88775" lon="4.48181">
        <ele>461.39999389648</ele>
        <time>2020-03-14T16:14:35.000Z</time>
      </trkpt>
      <trkpt lat="45.88773" lon="4.48182">
        <ele>461.39999389648</ele>
        <time>2020-03-14T16:14:36.000Z</time>
      </trkpt>
      <trkpt lat="45.8877" lon="4.48183">
        <ele>461.39999389648</ele>
        <time>2020-03-14T16:14:37.000Z</time>
      </trkpt>
      <trkpt lat="45.88768" lon="4.48184">
        <ele>461.39999389648</ele>
        <time>2020-03-14T16:14:38.000Z</time>
      </trkpt>
      <trkpt lat="45.88764" lon="4.48185">
        <ele>461.20001220703</ele>
        <time>2020-03-14T16:14:39.000Z</time>
      </trkpt>
      <trkpt lat="45.88761" lon="4.48187">
        <ele>460.79998779297</ele>
        <time>2020-03-14T16:14:40.000Z</time>
      </trkpt>
      <trkpt lat="45.88757" lon="4.48189">
        <ele>460.39999389648</ele>
        <time>2020-03-14T16:14:41.000Z</time>
      </trkpt>
      <trkpt lat="45.88754" lon="4.48192">
        <ele>459.79998779297</ele>
        <time>2020-03-14T16:14:42.000Z</time>
      </trkpt>
      <trkpt lat="45.88751" lon="4.48195">
        <ele>459.39999389648</ele>
        <time>2020-03-14T16:14:43.000Z</time>
      </trkpt>
      <trkpt lat="45.88748" lon="4.48197">
        <ele>459</ele>
        <time>2020-03-14T16:14:44.000Z</time>
      </trkpt>
      <trkpt lat="45.88746" lon="4.482">
        <ele>458.60000610352</ele>
        <time>2020-03-14T16:14:45.000Z</time>
      </trkpt>
      <trkpt lat="45.88744" lon="4.48203">
        <ele>458.20001220703</ele>
        <time>2020-03-14T16:14:46.000Z</time>
      </trkpt>
      <trkpt lat="45.88741" lon="4.48206">
        <ele>458</ele>
        <time>2020-03-14T16:14:47.000Z</time>
      </trkpt>
      <trkpt lat="45.88739" lon="4.48207">
        <ele>457.79998779297</ele>
        <time>2020-03-14T16:14:48.000Z</time>
      </trkpt>
      <trkpt lat="45.88737" lon="4.48208">
        <ele>457.60000610352</ele>
        <time>2020-03-14T16:14:49.000Z</time>
      </trkpt>
      <trkpt lat="45.88735" lon="4.48211">
        <ele>457.39999389648</ele>
        <time>2020-03-14T16:14:50.000Z</time>
      </trkpt>
      <trkpt lat="45.88735" lon="4.48214">
        <ele>457.39999389648</ele>
        <time>2020-03-14T16:14:51.000Z</time>
      </trkpt>
      <trkpt lat="45.88734" lon="4.48218">
        <ele>457.20001220703</ele>
        <time>2020-03-14T16:14:52.000Z</time>
      </trkpt>
      <trkpt lat="45.88734" lon="4.48221">
        <ele>457</ele>
        <time>2020-03-14T16:14:53.000Z</time>
      </trkpt>
      <trkpt lat="45.88734" lon="4.48224">
        <ele>456.79998779297</ele>
        <time>2020-03-14T16:14:54.000Z</time>
      </trkpt>
      <trkpt lat="45.88734" lon="4.48228">
        <ele>456.60000610352</ele>
        <time>2020-03-14T16:14:55.000Z</time>
      </trkpt>
      <trkpt lat="45.88734" lon="4.48233">
        <ele>456.39999389648</ele>
        <time>2020-03-14T16:14:56.000Z</time>
      </trkpt>
      <trkpt lat="45.88734" lon="4.48237">
        <ele>456.39999389648</ele>
        <time>2020-03-14T16:14:57.000Z</time>
      </trkpt>
      <trkpt lat="45.88734" lon="4.48242">
        <ele>456.20001220703</ele>
        <time>2020-03-14T16:14:58.000Z</time>
      </trkpt>
      <trkpt lat="45.88734" lon="4.48247">
        <ele>456.20001220703</ele>
        <time>2020-03-14T16:14:59.000Z</time>
      </trkpt>
      <trkpt lat="45.88735" lon="4.48253">
        <ele>456</ele>
        <time>2020-03-14T16:15:00.000Z</time>
      </trkpt>
      <trkpt lat="45.88736" lon="4.48259">
        <ele>455.60000610352</ele>
        <time>2020-03-14T16:15:01.000Z</time>
      </trkpt>
      <trkpt lat="45.88737" lon="4.48265">
        <ele>455.39999389648</ele>
        <time>2020-03-14T16:15:02.000Z</time>
      </trkpt>
      <trkpt lat="45.88738" lon="4.48273">
        <ele>455.20001220703</ele>
        <time>2020-03-14T16:15:03.000Z</time>
      </trkpt>
      <trkpt lat="45.8874" lon="4.4828">
        <ele>455.20001220703</ele>
        <time>2020-03-14T16:15:04.000Z</time>
      </trkpt>
      <trkpt lat="45.88742" lon="4.48288">
        <ele>455</ele>
        <time>2020-03-14T16:15:05.000Z</time>
      </trkpt>
      <trkpt lat="45.88744" lon="4.48296">
        <ele>454.79998779297</ele>
        <time>2020-03-14T16:15:06.000Z</time>
      </trkpt>
      <trkpt lat="45.88746" lon="4.48303">
        <ele>454.60000610352</ele>
        <time>2020-03-14T16:15:07.000Z</time>
      </trkpt>
      <trkpt lat="45.88748" lon="4.48311">
        <ele>454.60000610352</ele>
        <time>2020-03-14T16:15:08.000Z</time>
      </trkpt>
      <trkpt lat="45.8875" lon="4.48319">
        <ele>454.39999389648</ele>
        <time>2020-03-14T16:15:09.000Z</time>
      </trkpt>
      <trkpt lat="45.88752" lon="4.48327">
        <ele>454.20001220703</ele>
        <time>2020-03-14T16:15:10.000Z</time>
      </trkpt>
      <trkpt lat="45.88754" lon="4.48336">
        <ele>454</ele>
        <time>2020-03-14T16:15:11.000Z</time>
      </trkpt>
      <trkpt lat="45.88756" lon="4.48345">
        <ele>454</ele>
        <time>2020-03-14T16:15:12.000Z</time>
      </trkpt>
      <trkpt lat="45.88758" lon="4.48354">
        <ele>453.60000610352</ele>
        <time>2020-03-14T16:15:13.000Z</time>
      </trkpt>
      <trkpt lat="45.8876" lon="4.48363">
        <ele>453.39999389648</ele>
        <time>2020-03-14T16:15:14.000Z</time>
      </trkpt>
      <trkpt lat="45.88762" lon="4.48372">
        <ele>453.20001220703</ele>
        <time>2020-03-14T16:15:15.000Z</time>
      </trkpt>
      <trkpt lat="45.88764" lon="4.48381">
        <ele>453</ele>
        <time>2020-03-14T16:15:16.000Z</time>
      </trkpt>
      <trkpt lat="45.88766" lon="4.48389">
        <ele>453</ele>
        <time>2020-03-14T16:15:17.000Z</time>
      </trkpt>
      <trkpt lat="45.88769" lon="4.48397">
        <ele>453</ele>
        <time>2020-03-14T16:15:18.000Z</time>
      </trkpt>
      <trkpt lat="45.88771" lon="4.48406">
        <ele>453</ele>
        <time>2020-03-14T16:15:19.000Z</time>
      </trkpt>
      <trkpt lat="45.88772" lon="4.48415">
        <ele>453</ele>
        <time>2020-03-14T16:15:20.000Z</time>
      </trkpt>
      <trkpt lat="45.88774" lon="4.48423">
        <ele>453</ele>
        <time>2020-03-14T16:15:21.000Z</time>
      </trkpt>
      <trkpt lat="45.88776" lon="4.48432">
        <ele>453.20001220703</ele>
        <time>2020-03-14T16:15:22.000Z</time>
      </trkpt>
      <trkpt lat="45.88777" lon="4.4844">
        <ele>453.39999389648</ele>
        <time>2020-03-14T16:15:23.000Z</time>
      </trkpt>
      <trkpt lat="45.88778" lon="4.48449">
        <ele>453.79998779297</ele>
        <time>2020-03-14T16:15:24.000Z</time>
      </trkpt>
      <trkpt lat="45.88778" lon="4.48457">
        <ele>454.20001220703</ele>
        <time>2020-03-14T16:15:25.000Z</time>
      </trkpt>
      <trkpt lat="45.88777" lon="4.48465">
        <ele>454.39999389648</ele>
        <time>2020-03-14T16:15:26.000Z</time>
      </trkpt>
      <trkpt lat="45.88777" lon="4.48472">
        <ele>454.60000610352</ele>
        <time>2020-03-14T16:15:27.000Z</time>
      </trkpt>
      <trkpt lat="45.88776" lon="4.48479">
        <ele>455</ele>
        <time>2020-03-14T16:15:28.000Z</time>
      </trkpt>
      <trkpt lat="45.88775" lon="4.48485">
        <ele>455.20001220703</ele>
        <time>2020-03-14T16:15:29.000Z</time>
      </trkpt>
      <trkpt lat="45.88773" lon="4.48491">
        <ele>455.20001220703</ele>
        <time>2020-03-14T16:15:30.000Z</time>
      </trkpt>
      <trkpt lat="45.88771" lon="4.48496">
        <ele>455.20001220703</ele>
        <time>2020-03-14T16:15:31.000Z</time>
      </trkpt>
      <trkpt lat="45.88769" lon="4.48502">
        <ele>455.39999389648</ele>
        <time>2020-03-14T16:15:32.000Z</time>
      </trkpt>
      <trkpt lat="45.88766" lon="4.48506">
        <ele>455.39999389648</ele>
        <time>2020-03-14T16:15:33.000Z</time>
      </trkpt>
      <trkpt lat="45.88762" lon="4.48507">
        <ele>455.39999389648</ele>
        <time>2020-03-14T16:15:34.000Z</time>
      </trkpt>
      <trkpt lat="45.88758" lon="4.48508">
        <ele>455.39999389648</ele>
        <time>2020-03-14T16:15:35.000Z</time>
      </trkpt>
      <trkpt lat="45.88753" lon="4.48509">
        <ele>455.39999389648</ele>
        <time>2020-03-14T16:15:36.000Z</time>
      </trkpt>
      <trkpt lat="45.88749" lon="4.4851">
        <ele>455.39999389648</ele>
        <time>2020-03-14T16:15:37.000Z</time>
      </trkpt>
      <trkpt lat="45.88744" lon="4.48512">
        <ele>454.79998779297</ele>
        <time>2020-03-14T16:15:38.000Z</time>
      </trkpt>
      <trkpt lat="45.88741" lon="4.48513">
        <ele>454</ele>
        <time>2020-03-14T16:15:39.000Z</time>
      </trkpt>
      <trkpt lat="45.88738" lon="4.48515">
        <ele>453</ele>
        <time>2020-03-14T16:15:40.000Z</time>
      </trkpt>
      <trkpt lat="45.88735" lon="4.48517">
        <ele>452.39999389648</ele>
        <time>2020-03-14T16:15:41.000Z</time>
      </trkpt>
      <trkpt lat="45.88731" lon="4.48519">
        <ele>452</ele>
        <time>2020-03-14T16:15:42.000Z</time>
      </trkpt>
      <trkpt lat="45.88728" lon="4.4852">
        <ele>451.39999389648</ele>
        <time>2020-03-14T16:15:43.000Z</time>
      </trkpt>
      <trkpt lat="45.88726" lon="4.48521">
        <ele>450.79998779297</ele>
        <time>2020-03-14T16:15:44.000Z</time>
      </trkpt>
      <trkpt lat="45.88723" lon="4.48522">
        <ele>450.39999389648</ele>
        <time>2020-03-14T16:15:45.000Z</time>
      </trkpt>
      <trkpt lat="45.8872" lon="4.48524">
        <ele>449.79998779297</ele>
        <time>2020-03-14T16:15:46.000Z</time>
      </trkpt>
      <trkpt lat="45.88717" lon="4.48526">
        <ele>449.20001220703</ele>
        <time>2020-03-14T16:15:47.000Z</time>
      </trkpt>
      <trkpt lat="45.88714" lon="4.48528">
        <ele>448.60000610352</ele>
        <time>2020-03-14T16:15:48.000Z</time>
      </trkpt>
      <trkpt lat="45.8871" lon="4.4853">
        <ele>447.60000610352</ele>
        <time>2020-03-14T16:15:49.000Z</time>
      </trkpt>
      <trkpt lat="45.88708" lon="4.48533">
        <ele>446.79998779297</ele>
        <time>2020-03-14T16:15:50.000Z</time>
      </trkpt>
      <trkpt lat="45.88705" lon="4.48537">
        <ele>446</ele>
        <time>2020-03-14T16:15:51.000Z</time>
      </trkpt>
      <trkpt lat="45.88701" lon="4.48542">
        <ele>445.39999389648</ele>
        <time>2020-03-14T16:15:52.000Z</time>
      </trkpt>
      <trkpt lat="45.88699" lon="4.48546">
        <ele>444.60000610352</ele>
        <time>2020-03-14T16:15:53.000Z</time>
      </trkpt>
      <trkpt lat="45.88696" lon="4.4855">
        <ele>444</ele>
        <time>2020-03-14T16:15:54.000Z</time>
      </trkpt>
      <trkpt lat="45.88694" lon="4.48555">
        <ele>443.39999389648</ele>
        <time>2020-03-14T16:15:55.000Z</time>
      </trkpt>
      <trkpt lat="45.88692" lon="4.4856">
        <ele>443.20001220703</ele>
        <time>2020-03-14T16:15:56.000Z</time>
      </trkpt>
      <trkpt lat="45.8869" lon="4.48566">
        <ele>442.79998779297</ele>
        <time>2020-03-14T16:15:57.000Z</time>
      </trkpt>
      <trkpt lat="45.88688" lon="4.48573">
        <ele>441.79998779297</ele>
        <time>2020-03-14T16:15:58.000Z</time>
      </trkpt>
      <trkpt lat="45.88686" lon="4.48581">
        <ele>440.60000610352</ele>
        <time>2020-03-14T16:15:59.000Z</time>
      </trkpt>
      <trkpt lat="45.88685" lon="4.4859">
        <ele>439.60000610352</ele>
        <time>2020-03-14T16:16:00.000Z</time>
      </trkpt>
      <trkpt lat="45.88685" lon="4.486">
        <ele>438.60000610352</ele>
        <time>2020-03-14T16:16:01.000Z</time>
      </trkpt>
      <trkpt lat="45.88685" lon="4.4861">
        <ele>438.20001220703</ele>
        <time>2020-03-14T16:16:02.000Z</time>
      </trkpt>
      <trkpt lat="45.88686" lon="4.48619">
        <ele>437.39999389648</ele>
        <time>2020-03-14T16:16:03.000Z</time>
      </trkpt>
      <trkpt lat="45.88687" lon="4.48628">
        <ele>437</ele>
        <time>2020-03-14T16:16:04.000Z</time>
      </trkpt>
      <trkpt lat="45.88688" lon="4.48637">
        <ele>436.79998779297</ele>
        <time>2020-03-14T16:16:05.000Z</time>
      </trkpt>
      <trkpt lat="45.88689" lon="4.48645">
        <ele>436.60000610352</ele>
        <time>2020-03-14T16:16:06.000Z</time>
      </trkpt>
      <trkpt lat="45.8869" lon="4.48653">
        <ele>436.20001220703</ele>
        <time>2020-03-14T16:16:07.000Z</time>
      </trkpt>
      <trkpt lat="45.88692" lon="4.48659">
        <ele>436</ele>
        <time>2020-03-14T16:16:08.000Z</time>
      </trkpt>
      <trkpt lat="45.88693" lon="4.48664">
        <ele>435.60000610352</ele>
        <time>2020-03-14T16:16:09.000Z</time>
      </trkpt>
      <trkpt lat="45.88695" lon="4.48669">
        <ele>435.39999389648</ele>
        <time>2020-03-14T16:16:10.000Z</time>
      </trkpt>
      <trkpt lat="45.88696" lon="4.48672">
        <ele>435.20001220703</ele>
        <time>2020-03-14T16:16:11.000Z</time>
      </trkpt>
      <trkpt lat="45.88696" lon="4.48676">
        <ele>435</ele>
        <time>2020-03-14T16:16:12.000Z</time>
      </trkpt>
      <trkpt lat="45.88697" lon="4.48679">
        <ele>434.60000610352</ele>
        <time>2020-03-14T16:16:13.000Z</time>
      </trkpt>
      <trkpt lat="45.88696" lon="4.48682">
        <ele>434.39999389648</ele>
        <time>2020-03-14T16:16:14.000Z</time>
      </trkpt>
      <trkpt lat="45.88695" lon="4.48686">
        <ele>433.79998779297</ele>
        <time>2020-03-14T16:16:15.000Z</time>
      </trkpt>
      <trkpt lat="45.88693" lon="4.4869">
        <ele>433.20001220703</ele>
        <time>2020-03-14T16:16:16.000Z</time>
      </trkpt>
      <trkpt lat="45.88691" lon="4.48693">
        <ele>432.39999389648</ele>
        <time>2020-03-14T16:16:17.000Z</time>
      </trkpt>
      <trkpt lat="45.88688" lon="4.48697">
        <ele>431.79998779297</ele>
        <time>2020-03-14T16:16:18.000Z</time>
      </trkpt>
      <trkpt lat="45.88684" lon="4.48701">
        <ele>431.20001220703</ele>
        <time>2020-03-14T16:16:19.000Z</time>
      </trkpt>
      <trkpt lat="45.8868" lon="4.48706">
        <ele>430.39999389648</ele>
        <time>2020-03-14T16:16:20.000Z</time>
      </trkpt>
      <trkpt lat="45.88674" lon="4.48711">
        <ele>429.60000610352</ele>
        <time>2020-03-14T16:16:21.000Z</time>
      </trkpt>
      <trkpt lat="45.88668" lon="4.48716">
        <ele>428.60000610352</ele>
        <time>2020-03-14T16:16:22.000Z</time>
      </trkpt>
      <trkpt lat="45.88662" lon="4.48721">
        <ele>427</ele>
        <time>2020-03-14T16:16:23.000Z</time>
      </trkpt>
      <trkpt lat="45.88656" lon="4.48726">
        <ele>425.60000610352</ele>
        <time>2020-03-14T16:16:24.000Z</time>
      </trkpt>
      <trkpt lat="45.8865" lon="4.4873">
        <ele>424.20001220703</ele>
        <time>2020-03-14T16:16:25.000Z</time>
      </trkpt>
      <trkpt lat="45.88645" lon="4.48735">
        <ele>422.79998779297</ele>
        <time>2020-03-14T16:16:26.000Z</time>
      </trkpt>
      <trkpt lat="45.88639" lon="4.48739">
        <ele>421.79998779297</ele>
        <time>2020-03-14T16:16:27.000Z</time>
      </trkpt>
      <trkpt lat="45.88635" lon="4.48742">
        <ele>421</ele>
        <time>2020-03-14T16:16:28.000Z</time>
      </trkpt>
      <trkpt lat="45.88631" lon="4.48745">
        <ele>420.20001220703</ele>
        <time>2020-03-14T16:16:29.000Z</time>
      </trkpt>
      <trkpt lat="45.88629" lon="4.48747">
        <ele>419.60000610352</ele>
        <time>2020-03-14T16:16:30.000Z</time>
      </trkpt>
      <trkpt lat="45.88627" lon="4.48749">
        <ele>418.79998779297</ele>
        <time>2020-03-14T16:16:31.000Z</time>
      </trkpt>
      <trkpt lat="45.88625" lon="4.48751">
        <ele>418</ele>
        <time>2020-03-14T16:16:32.000Z</time>
      </trkpt>
      <trkpt lat="45.88624" lon="4.48752">
        <ele>417.39999389648</ele>
        <time>2020-03-14T16:16:33.000Z</time>
      </trkpt>
      <trkpt lat="45.88623" lon="4.48753">
        <ele>416.60000610352</ele>
        <time>2020-03-14T16:16:34.000Z</time>
      </trkpt>
      <trkpt lat="45.88622" lon="4.48754">
        <ele>416.20001220703</ele>
        <time>2020-03-14T16:16:35.000Z</time>
      </trkpt>
      <trkpt lat="45.8862" lon="4.48755">
        <ele>416</ele>
        <time>2020-03-14T16:16:36.000Z</time>
      </trkpt>
      <trkpt lat="45.88619" lon="4.48755">
        <ele>416</ele>
        <time>2020-03-14T16:16:37.000Z</time>
      </trkpt>
      <trkpt lat="45.88617" lon="4.48756">
        <ele>415.79998779297</ele>
        <time>2020-03-14T16:16:38.000Z</time>
      </trkpt>
      <trkpt lat="45.88615" lon="4.48758">
        <ele>415.79998779297</ele>
        <time>2020-03-14T16:16:39.000Z</time>
      </trkpt>
      <trkpt lat="45.88612" lon="4.4876">
        <ele>415.60000610352</ele>
        <time>2020-03-14T16:16:40.000Z</time>
      </trkpt>
      <trkpt lat="45.88609" lon="4.48762">
        <ele>415.39999389648</ele>
        <time>2020-03-14T16:16:41.000Z</time>
      </trkpt>
      <trkpt lat="45.88605" lon="4.48765">
        <ele>414.60000610352</ele>
        <time>2020-03-14T16:16:42.000Z</time>
      </trkpt>
      <trkpt lat="45.88601" lon="4.48769">
        <ele>413.60000610352</ele>
        <time>2020-03-14T16:16:43.000Z</time>
      </trkpt>
      <trkpt lat="45.88598" lon="4.48771">
        <ele>412.60000610352</ele>
        <time>2020-03-14T16:16:44.000Z</time>
      </trkpt>
      <trkpt lat="45.88595" lon="4.48775">
        <ele>412</ele>
        <time>2020-03-14T16:16:45.000Z</time>
      </trkpt>
      <trkpt lat="45.88592" lon="4.4878">
        <ele>411.39999389648</ele>
        <time>2020-03-14T16:16:46.000Z</time>
      </trkpt>
      <trkpt lat="45.88589" lon="4.48786">
        <ele>410.39999389648</ele>
        <time>2020-03-14T16:16:47.000Z</time>
      </trkpt>
      <trkpt lat="45.88586" lon="4.48795">
        <ele>409</ele>
        <time>2020-03-14T16:16:48.000Z</time>
      </trkpt>
      <trkpt lat="45.88584" lon="4.48802">
        <ele>408</ele>
        <time>2020-03-14T16:16:49.000Z</time>
      </trkpt>
      <trkpt lat="45.88581" lon="4.48809">
        <ele>407.39999389648</ele>
        <time>2020-03-14T16:16:50.000Z</time>
      </trkpt>
      <trkpt lat="45.88578" lon="4.48814">
        <ele>407.20001220703</ele>
        <time>2020-03-14T16:16:51.000Z</time>
      </trkpt>
      <trkpt lat="45.88575" lon="4.48818">
        <ele>407</ele>
        <time>2020-03-14T16:16:52.000Z</time>
      </trkpt>
      <trkpt lat="45.88571" lon="4.48821">
        <ele>406.79998779297</ele>
        <time>2020-03-14T16:16:53.000Z</time>
      </trkpt>
      <trkpt lat="45.88568" lon="4.48824">
        <ele>406.60000610352</ele>
        <time>2020-03-14T16:16:54.000Z</time>
      </trkpt>
      <trkpt lat="45.88564" lon="4.48826">
        <ele>406.60000610352</ele>
        <time>2020-03-14T16:16:55.000Z</time>
      </trkpt>
      <trkpt lat="45.8856" lon="4.48828">
        <ele>406.39999389648</ele>
        <time>2020-03-14T16:16:56.000Z</time>
      </trkpt>
      <trkpt lat="45.88556" lon="4.4883">
        <ele>406</ele>
        <time>2020-03-14T16:16:57.000Z</time>
      </trkpt>
      <trkpt lat="45.88551" lon="4.48832">
        <ele>405.60000610352</ele>
        <time>2020-03-14T16:16:58.000Z</time>
      </trkpt>
      <trkpt lat="45.88548" lon="4.48835">
        <ele>405.20001220703</ele>
        <time>2020-03-14T16:16:59.000Z</time>
      </trkpt>
      <trkpt lat="45.88545" lon="4.48839">
        <ele>404.79998779297</ele>
        <time>2020-03-14T16:17:00.000Z</time>
      </trkpt>
      <trkpt lat="45.88544" lon="4.48846">
        <ele>404.60000610352</ele>
        <time>2020-03-14T16:17:01.000Z</time>
      </trkpt>
      <trkpt lat="45.88543" lon="4.48854">
        <ele>404.20001220703</ele>
        <time>2020-03-14T16:17:02.000Z</time>
      </trkpt>
      <trkpt lat="45.88544" lon="4.48861">
        <ele>404</ele>
        <time>2020-03-14T16:17:03.000Z</time>
      </trkpt>
      <trkpt lat="45.88544" lon="4.48867">
        <ele>404</ele>
        <time>2020-03-14T16:17:04.000Z</time>
      </trkpt>
      <trkpt lat="45.88546" lon="4.48874">
        <ele>403.79998779297</ele>
        <time>2020-03-14T16:17:05.000Z</time>
      </trkpt>
      <trkpt lat="45.88547" lon="4.4888">
        <ele>403.79998779297</ele>
        <time>2020-03-14T16:17:06.000Z</time>
      </trkpt>
      <trkpt lat="45.88547" lon="4.48887">
        <ele>403.79998779297</ele>
        <time>2020-03-14T16:17:07.000Z</time>
      </trkpt>
      <trkpt lat="45.88548" lon="4.48893">
        <ele>403.60000610352</ele>
        <time>2020-03-14T16:17:08.000Z</time>
      </trkpt>
      <trkpt lat="45.88548" lon="4.48899">
        <ele>403.60000610352</ele>
        <time>2020-03-14T16:17:09.000Z</time>
      </trkpt>
      <trkpt lat="45.88549" lon="4.48905">
        <ele>403.79998779297</ele>
        <time>2020-03-14T16:17:10.000Z</time>
      </trkpt>
      <trkpt lat="45.88549" lon="4.4891">
        <ele>403.79998779297</ele>
        <time>2020-03-14T16:17:11.000Z</time>
      </trkpt>
      <trkpt lat="45.88549" lon="4.48915">
        <ele>404</ele>
        <time>2020-03-14T16:17:12.000Z</time>
      </trkpt>
      <trkpt lat="45.88549" lon="4.4892">
        <ele>404</ele>
        <time>2020-03-14T16:17:13.000Z</time>
      </trkpt>
      <trkpt lat="45.8855" lon="4.48925">
        <ele>404.20001220703</ele>
        <time>2020-03-14T16:17:14.000Z</time>
      </trkpt>
      <trkpt lat="45.88551" lon="4.48928">
        <ele>404.20001220703</ele>
        <time>2020-03-14T16:17:15.000Z</time>
      </trkpt>
      <trkpt lat="45.88551" lon="4.48931">
        <ele>404.39999389648</ele>
        <time>2020-03-14T16:17:16.000Z</time>
      </trkpt>
      <trkpt lat="45.88552" lon="4.48934">
        <ele>404.39999389648</ele>
        <time>2020-03-14T16:17:17.000Z</time>
      </trkpt>
      <trkpt lat="45.88553" lon="4.48937">
        <ele>404.39999389648</ele>
        <time>2020-03-14T16:17:18.000Z</time>
      </trkpt>
      <trkpt lat="45.88554" lon="4.4894">
        <ele>404.20001220703</ele>
        <time>2020-03-14T16:17:19.000Z</time>
      </trkpt>
      <trkpt lat="45.88554" lon="4.48943">
        <ele>404.20001220703</ele>
        <time>2020-03-14T16:17:20.000Z</time>
      </trkpt>
      <trkpt lat="45.88555" lon="4.48947">
        <ele>404</ele>
        <time>2020-03-14T16:17:21.000Z</time>
      </trkpt>
      <trkpt lat="45.88556" lon="4.48951">
        <ele>404</ele>
        <time>2020-03-14T16:17:22.000Z</time>
      </trkpt>
      <trkpt lat="45.88556" lon="4.48955">
        <ele>404</ele>
        <time>2020-03-14T16:17:23.000Z</time>
      </trkpt>
      <trkpt lat="45.88557" lon="4.48959">
        <ele>404.20001220703</ele>
        <time>2020-03-14T16:17:24.000Z</time>
      </trkpt>
      <trkpt lat="45.88558" lon="4.48963">
        <ele>404.39999389648</ele>
        <time>2020-03-14T16:17:25.000Z</time>
      </trkpt>
      <trkpt lat="45.88559" lon="4.48967">
        <ele>404.79998779297</ele>
        <time>2020-03-14T16:17:26.000Z</time>
      </trkpt>
      <trkpt lat="45.8856" lon="4.4897">
        <ele>405</ele>
        <time>2020-03-14T16:17:27.000Z</time>
      </trkpt>
      <trkpt lat="45.8856" lon="4.48974">
        <ele>405.20001220703</ele>
        <time>2020-03-14T16:17:28.000Z</time>
      </trkpt>
      <trkpt lat="45.88561" lon="4.48978">
        <ele>405.20001220703</ele>
        <time>2020-03-14T16:17:29.000Z</time>
      </trkpt>
      <trkpt lat="45.88561" lon="4.48982">
        <ele>405.20001220703</ele>
        <time>2020-03-14T16:17:30.000Z</time>
      </trkpt>
      <trkpt lat="45.8856" lon="4.48986">
        <ele>405.39999389648</ele>
        <time>2020-03-14T16:17:31.000Z</time>
      </trkpt>
      <trkpt lat="45.88559" lon="4.48991">
        <ele>405.20001220703</ele>
        <time>2020-03-14T16:17:32.000Z</time>
      </trkpt>
      <trkpt lat="45.88558" lon="4.48996">
        <ele>405.20001220703</ele>
        <time>2020-03-14T16:17:33.000Z</time>
      </trkpt>
      <trkpt lat="45.88555" lon="4.49001">
        <ele>405.20001220703</ele>
        <time>2020-03-14T16:17:34.000Z</time>
      </trkpt>
      <trkpt lat="45.88553" lon="4.49007">
        <ele>405</ele>
        <time>2020-03-14T16:17:35.000Z</time>
      </trkpt>
      <trkpt lat="45.8855" lon="4.49013">
        <ele>405</ele>
        <time>2020-03-14T16:17:36.000Z</time>
      </trkpt>
      <trkpt lat="45.88547" lon="4.49019">
        <ele>404.60000610352</ele>
        <time>2020-03-14T16:17:37.000Z</time>
      </trkpt>
      <trkpt lat="45.88544" lon="4.49025">
        <ele>404.20001220703</ele>
        <time>2020-03-14T16:17:38.000Z</time>
      </trkpt>
      <trkpt lat="45.88541" lon="4.49031">
        <ele>404</ele>
        <time>2020-03-14T16:17:39.000Z</time>
      </trkpt>
      <trkpt lat="45.88537" lon="4.49038">
        <ele>403.79998779297</ele>
        <time>2020-03-14T16:17:40.000Z</time>
      </trkpt>
      <trkpt lat="45.88534" lon="4.49044">
        <ele>403.60000610352</ele>
        <time>2020-03-14T16:17:41.000Z</time>
      </trkpt>
      <trkpt lat="45.8853" lon="4.49051">
        <ele>403.39999389648</ele>
        <time>2020-03-14T16:17:42.000Z</time>
      </trkpt>
      <trkpt lat="45.88526" lon="4.49056">
        <ele>403.39999389648</ele>
        <time>2020-03-14T16:17:43.000Z</time>
      </trkpt>
      <trkpt lat="45.88522" lon="4.49062">
        <ele>403.20001220703</ele>
        <time>2020-03-14T16:17:44.000Z</time>
      </trkpt>
      <trkpt lat="45.88517" lon="4.49068">
        <ele>402.79998779297</ele>
        <time>2020-03-14T16:17:45.000Z</time>
      </trkpt>
      <trkpt lat="45.88513" lon="4.49075">
        <ele>402.79998779297</ele>
        <time>2020-03-14T16:17:46.000Z</time>
      </trkpt>
      <trkpt lat="45.88509" lon="4.49082">
        <ele>402.39999389648</ele>
        <time>2020-03-14T16:17:47.000Z</time>
      </trkpt>
      <trkpt lat="45.88504" lon="4.49088">
        <ele>402.20001220703</ele>
        <time>2020-03-14T16:17:48.000Z</time>
      </trkpt>
      <trkpt lat="45.88499" lon="4.49095">
        <ele>401.60000610352</ele>
        <time>2020-03-14T16:17:49.000Z</time>
      </trkpt>
      <trkpt lat="45.88495" lon="4.49103">
        <ele>401.39999389648</ele>
        <time>2020-03-14T16:17:50.000Z</time>
      </trkpt>
      <trkpt lat="45.8849" lon="4.4911">
        <ele>401</ele>
        <time>2020-03-14T16:17:51.000Z</time>
      </trkpt>
      <trkpt lat="45.88485" lon="4.49118">
        <ele>401</ele>
        <time>2020-03-14T16:17:52.000Z</time>
      </trkpt>
      <trkpt lat="45.88481" lon="4.49126">
        <ele>400.60000610352</ele>
        <time>2020-03-14T16:17:53.000Z</time>
      </trkpt>
      <trkpt lat="45.88476" lon="4.49134">
        <ele>400.60000610352</ele>
        <time>2020-03-14T16:17:54.000Z</time>
      </trkpt>
      <trkpt lat="45.88472" lon="4.49142">
        <ele>400.39999389648</ele>
        <time>2020-03-14T16:17:55.000Z</time>
      </trkpt>
      <trkpt lat="45.88469" lon="4.4915">
        <ele>400</ele>
        <time>2020-03-14T16:17:56.000Z</time>
      </trkpt>
      <trkpt lat="45.88466" lon="4.49159">
        <ele>399.79998779297</ele>
        <time>2020-03-14T16:17:57.000Z</time>
      </trkpt>
      <trkpt lat="45.88462" lon="4.49169">
        <ele>399.60000610352</ele>
        <time>2020-03-14T16:17:58.000Z</time>
      </trkpt>
      <trkpt lat="45.88459" lon="4.49179">
        <ele>399.20001220703</ele>
        <time>2020-03-14T16:17:59.000Z</time>
      </trkpt>
      <trkpt lat="45.88457" lon="4.49189">
        <ele>398.60000610352</ele>
        <time>2020-03-14T16:18:00.000Z</time>
      </trkpt>
      <trkpt lat="45.88455" lon="4.49199">
        <ele>398.39999389648</ele>
        <time>2020-03-14T16:18:01.000Z</time>
      </trkpt>
      <trkpt lat="45.88452" lon="4.49208">
        <ele>398.20001220703</ele>
        <time>2020-03-14T16:18:02.000Z</time>
      </trkpt>
      <trkpt lat="45.88451" lon="4.49217">
        <ele>398</ele>
        <time>2020-03-14T16:18:03.000Z</time>
      </trkpt>
      <trkpt lat="45.8845" lon="4.49225">
        <ele>397.60000610352</ele>
        <time>2020-03-14T16:18:04.000Z</time>
      </trkpt>
      <trkpt lat="45.88449" lon="4.49233">
        <ele>397.20001220703</ele>
        <time>2020-03-14T16:18:05.000Z</time>
      </trkpt>
      <trkpt lat="45.88448" lon="4.49241">
        <ele>396.60000610352</ele>
        <time>2020-03-14T16:18:06.000Z</time>
      </trkpt>
      <trkpt lat="45.88448" lon="4.49248">
        <ele>396</ele>
        <time>2020-03-14T16:18:07.000Z</time>
      </trkpt>
      <trkpt lat="45.88449" lon="4.49255">
        <ele>395.60000610352</ele>
        <time>2020-03-14T16:18:08.000Z</time>
      </trkpt>
      <trkpt lat="45.8845" lon="4.49262">
        <ele>395.39999389648</ele>
        <time>2020-03-14T16:18:09.000Z</time>
      </trkpt>
      <trkpt lat="45.88451" lon="4.49268">
        <ele>395.20001220703</ele>
        <time>2020-03-14T16:18:10.000Z</time>
      </trkpt>
      <trkpt lat="45.88451" lon="4.49274">
        <ele>394.79998779297</ele>
        <time>2020-03-14T16:18:11.000Z</time>
      </trkpt>
      <trkpt lat="45.88451" lon="4.4928">
        <ele>394.60000610352</ele>
        <time>2020-03-14T16:18:12.000Z</time>
      </trkpt>
      <trkpt lat="45.88452" lon="4.49286">
        <ele>394.39999389648</ele>
        <time>2020-03-14T16:18:13.000Z</time>
      </trkpt>
      <trkpt lat="45.88454" lon="4.49292">
        <ele>394</ele>
        <time>2020-03-14T16:18:14.000Z</time>
      </trkpt>
      <trkpt lat="45.88456" lon="4.49298">
        <ele>393.60000610352</ele>
        <time>2020-03-14T16:18:15.000Z</time>
      </trkpt>
      <trkpt lat="45.88457" lon="4.49304">
        <ele>393.20001220703</ele>
        <time>2020-03-14T16:18:16.000Z</time>
      </trkpt>
      <trkpt lat="45.88459" lon="4.4931">
        <ele>392.60000610352</ele>
        <time>2020-03-14T16:18:17.000Z</time>
      </trkpt>
      <trkpt lat="45.88461" lon="4.49316">
        <ele>392</ele>
        <time>2020-03-14T16:18:18.000Z</time>
      </trkpt>
      <trkpt lat="45.88463" lon="4.49322">
        <ele>391.60000610352</ele>
        <time>2020-03-14T16:18:19.000Z</time>
      </trkpt>
      <trkpt lat="45.88464" lon="4.49328">
        <ele>391.20001220703</ele>
        <time>2020-03-14T16:18:20.000Z</time>
      </trkpt>
      <trkpt lat="45.88466" lon="4.49334">
        <ele>390.60000610352</ele>
        <time>2020-03-14T16:18:21.000Z</time>
      </trkpt>
      <trkpt lat="45.88467" lon="4.4934">
        <ele>390</ele>
        <time>2020-03-14T16:18:22.000Z</time>
      </trkpt>
      <trkpt lat="45.88467" lon="4.49346">
        <ele>389.20001220703</ele>
        <time>2020-03-14T16:18:23.000Z</time>
      </trkpt>
      <trkpt lat="45.88468" lon="4.49352">
        <ele>388.39999389648</ele>
        <time>2020-03-14T16:18:24.000Z</time>
      </trkpt>
      <trkpt lat="45.88469" lon="4.49357">
        <ele>387.60000610352</ele>
        <time>2020-03-14T16:18:25.000Z</time>
      </trkpt>
      <trkpt lat="45.8847" lon="4.49363">
        <ele>386.79998779297</ele>
        <time>2020-03-14T16:18:26.000Z</time>
      </trkpt>
      <trkpt lat="45.88472" lon="4.49369">
        <ele>386</ele>
        <time>2020-03-14T16:18:27.000Z</time>
      </trkpt>
      <trkpt lat="45.88473" lon="4.49374">
        <ele>385.20001220703</ele>
        <time>2020-03-14T16:18:28.000Z</time>
      </trkpt>
      <trkpt lat="45.88474" lon="4.49379">
        <ele>384.60000610352</ele>
        <time>2020-03-14T16:18:29.000Z</time>
      </trkpt>
      <trkpt lat="45.88476" lon="4.49384">
        <ele>383.79998779297</ele>
        <time>2020-03-14T16:18:30.000Z</time>
      </trkpt>
      <trkpt lat="45.88477" lon="4.49389">
        <ele>382.79998779297</ele>
        <time>2020-03-14T16:18:31.000Z</time>
      </trkpt>
      <trkpt lat="45.88478" lon="4.49394">
        <ele>382</ele>
        <time>2020-03-14T16:18:32.000Z</time>
      </trkpt>
      <trkpt lat="45.8848" lon="4.49399">
        <ele>381.39999389648</ele>
        <time>2020-03-14T16:18:33.000Z</time>
      </trkpt>
      <trkpt lat="45.88482" lon="4.49405">
        <ele>380.79998779297</ele>
        <time>2020-03-14T16:18:34.000Z</time>
      </trkpt>
      <trkpt lat="45.88484" lon="4.4941">
        <ele>380.20001220703</ele>
        <time>2020-03-14T16:18:35.000Z</time>
      </trkpt>
      <trkpt lat="45.88486" lon="4.49415">
        <ele>379.79998779297</ele>
        <time>2020-03-14T16:18:36.000Z</time>
      </trkpt>
      <trkpt lat="45.88489" lon="4.4942">
        <ele>379.20001220703</ele>
        <time>2020-03-14T16:18:37.000Z</time>
      </trkpt>
      <trkpt lat="45.88491" lon="4.49424">
        <ele>378.79998779297</ele>
        <time>2020-03-14T16:18:38.000Z</time>
      </trkpt>
      <trkpt lat="45.88492" lon="4.49428">
        <ele>378.39999389648</ele>
        <time>2020-03-14T16:18:39.000Z</time>
      </trkpt>
      <trkpt lat="45.88494" lon="4.49432">
        <ele>378</ele>
        <time>2020-03-14T16:18:40.000Z</time>
      </trkpt>
      <trkpt lat="45.88496" lon="4.49436">
        <ele>377.60000610352</ele>
        <time>2020-03-14T16:18:41.000Z</time>
      </trkpt>
      <trkpt lat="45.88498" lon="4.4944">
        <ele>377.20001220703</ele>
        <time>2020-03-14T16:18:42.000Z</time>
      </trkpt>
      <trkpt lat="45.88499" lon="4.49445">
        <ele>377</ele>
        <time>2020-03-14T16:18:43.000Z</time>
      </trkpt>
      <trkpt lat="45.885" lon="4.49449">
        <ele>376.79998779297</ele>
        <time>2020-03-14T16:18:44.000Z</time>
      </trkpt>
      <trkpt lat="45.88501" lon="4.49453">
        <ele>376.39999389648</ele>
        <time>2020-03-14T16:18:45.000Z</time>
      </trkpt>
      <trkpt lat="45.88502" lon="4.49457">
        <ele>376.20001220703</ele>
        <time>2020-03-14T16:18:46.000Z</time>
      </trkpt>
      <trkpt lat="45.88504" lon="4.49462">
        <ele>375.79998779297</ele>
        <time>2020-03-14T16:18:47.000Z</time>
      </trkpt>
      <trkpt lat="45.88506" lon="4.49466">
        <ele>375.79998779297</ele>
        <time>2020-03-14T16:18:48.000Z</time>
      </trkpt>
      <trkpt lat="45.88507" lon="4.49469">
        <ele>375.60000610352</ele>
        <time>2020-03-14T16:18:49.000Z</time>
      </trkpt>
      <trkpt lat="45.88508" lon="4.49471">
        <ele>375.39999389648</ele>
        <time>2020-03-14T16:18:50.000Z</time>
      </trkpt>
      <trkpt lat="45.88509" lon="4.49474">
        <ele>375.20001220703</ele>
        <time>2020-03-14T16:18:51.000Z</time>
      </trkpt>
      <trkpt lat="45.8851" lon="4.49477">
        <ele>375</ele>
        <time>2020-03-14T16:18:52.000Z</time>
      </trkpt>
      <trkpt lat="45.88511" lon="4.4948">
        <ele>374.79998779297</ele>
        <time>2020-03-14T16:18:53.000Z</time>
      </trkpt>
      <trkpt lat="45.88512" lon="4.49485">
        <ele>374.60000610352</ele>
        <time>2020-03-14T16:18:54.000Z</time>
      </trkpt>
      <trkpt lat="45.88514" lon="4.49489">
        <ele>374.60000610352</ele>
        <time>2020-03-14T16:18:55.000Z</time>
      </trkpt>
      <trkpt lat="45.88516" lon="4.49494">
        <ele>374.39999389648</ele>
        <time>2020-03-14T16:18:56.000Z</time>
      </trkpt>
      <trkpt lat="45.88519" lon="4.49499">
        <ele>374</ele>
        <time>2020-03-14T16:18:57.000Z</time>
      </trkpt>
      <trkpt lat="45.88521" lon="4.49505">
        <ele>373.79998779297</ele>
        <time>2020-03-14T16:18:58.000Z</time>
      </trkpt>
      <trkpt lat="45.88524" lon="4.49509">
        <ele>373.39999389648</ele>
        <time>2020-03-14T16:18:59.000Z</time>
      </trkpt>
      <trkpt lat="45.88527" lon="4.49514">
        <ele>373.20001220703</ele>
        <time>2020-03-14T16:19:00.000Z</time>
      </trkpt>
      <trkpt lat="45.8853" lon="4.49519">
        <ele>373</ele>
        <time>2020-03-14T16:19:01.000Z</time>
      </trkpt>
      <trkpt lat="45.88531" lon="4.49524">
        <ele>373</ele>
        <time>2020-03-14T16:19:02.000Z</time>
      </trkpt>
      <trkpt lat="45.88532" lon="4.4953">
        <ele>372.79998779297</ele>
        <time>2020-03-14T16:19:03.000Z</time>
      </trkpt>
      <trkpt lat="45.88532" lon="4.49536">
        <ele>372.60000610352</ele>
        <time>2020-03-14T16:19:04.000Z</time>
      </trkpt>
      <trkpt lat="45.88532" lon="4.49543">
        <ele>372.39999389648</ele>
        <time>2020-03-14T16:19:05.000Z</time>
      </trkpt>
      <trkpt lat="45.8853" lon="4.49551">
        <ele>372.20001220703</ele>
        <time>2020-03-14T16:19:06.000Z</time>
      </trkpt>
      <trkpt lat="45.88529" lon="4.49559">
        <ele>371.79998779297</ele>
        <time>2020-03-14T16:19:07.000Z</time>
      </trkpt>
      <trkpt lat="45.88528" lon="4.49567">
        <ele>371.39999389648</ele>
        <time>2020-03-14T16:19:08.000Z</time>
      </trkpt>
      <trkpt lat="45.88527" lon="4.49577">
        <ele>371.20001220703</ele>
        <time>2020-03-14T16:19:09.000Z</time>
      </trkpt>
      <trkpt lat="45.88527" lon="4.49586">
        <ele>371</ele>
        <time>2020-03-14T16:19:10.000Z</time>
      </trkpt>
      <trkpt lat="45.88527" lon="4.49596">
        <ele>370.60000610352</ele>
        <time>2020-03-14T16:19:11.000Z</time>
      </trkpt>
      <trkpt lat="45.88528" lon="4.49606">
        <ele>370.20001220703</ele>
        <time>2020-03-14T16:19:12.000Z</time>
      </trkpt>
      <trkpt lat="45.88529" lon="4.49615">
        <ele>369.60000610352</ele>
        <time>2020-03-14T16:19:13.000Z</time>
      </trkpt>
      <trkpt lat="45.8853" lon="4.49625">
        <ele>369</ele>
        <time>2020-03-14T16:19:14.000Z</time>
      </trkpt>
      <trkpt lat="45.8853" lon="4.49635">
        <ele>368.79998779297</ele>
        <time>2020-03-14T16:19:15.000Z</time>
      </trkpt>
      <trkpt lat="45.88531" lon="4.49645">
        <ele>368.60000610352</ele>
        <time>2020-03-14T16:19:16.000Z</time>
      </trkpt>
      <trkpt lat="45.88531" lon="4.49654">
        <ele>368.39999389648</ele>
        <time>2020-03-14T16:19:17.000Z</time>
      </trkpt>
      <trkpt lat="45.8853" lon="4.49664">
        <ele>368.39999389648</ele>
        <time>2020-03-14T16:19:18.000Z</time>
      </trkpt>
      <trkpt lat="45.88528" lon="4.49673">
        <ele>368.39999389648</ele>
        <time>2020-03-14T16:19:19.000Z</time>
      </trkpt>
      <trkpt lat="45.88526" lon="4.49682">
        <ele>368.39999389648</ele>
        <time>2020-03-14T16:19:20.000Z</time>
      </trkpt>
      <trkpt lat="45.88524" lon="4.49691">
        <ele>368.39999389648</ele>
        <time>2020-03-14T16:19:21.000Z</time>
      </trkpt>
      <trkpt lat="45.88521" lon="4.49699">
        <ele>368.20001220703</ele>
        <time>2020-03-14T16:19:22.000Z</time>
      </trkpt>
      <trkpt lat="45.88518" lon="4.49706">
        <ele>368.39999389648</ele>
        <time>2020-03-14T16:19:23.000Z</time>
      </trkpt>
      <trkpt lat="45.88514" lon="4.49714">
        <ele>368.39999389648</ele>
        <time>2020-03-14T16:19:24.000Z</time>
      </trkpt>
      <trkpt lat="45.88511" lon="4.49722">
        <ele>368.39999389648</ele>
        <time>2020-03-14T16:19:25.000Z</time>
      </trkpt>
      <trkpt lat="45.88507" lon="4.49729">
        <ele>368.39999389648</ele>
        <time>2020-03-14T16:19:26.000Z</time>
      </trkpt>
      <trkpt lat="45.88503" lon="4.49736">
        <ele>368.39999389648</ele>
        <time>2020-03-14T16:19:27.000Z</time>
      </trkpt>
      <trkpt lat="45.885" lon="4.49743">
        <ele>368.60000610352</ele>
        <time>2020-03-14T16:19:28.000Z</time>
      </trkpt>
      <trkpt lat="45.88497" lon="4.49751">
        <ele>368.60000610352</ele>
        <time>2020-03-14T16:19:29.000Z</time>
      </trkpt>
      <trkpt lat="45.88494" lon="4.49759">
        <ele>368.39999389648</ele>
        <time>2020-03-14T16:19:30.000Z</time>
      </trkpt>
      <trkpt lat="45.88492" lon="4.49768">
        <ele>368.20001220703</ele>
        <time>2020-03-14T16:19:31.000Z</time>
      </trkpt>
      <trkpt lat="45.88491" lon="4.49776">
        <ele>368</ele>
        <time>2020-03-14T16:19:32.000Z</time>
      </trkpt>
      <trkpt lat="45.88489" lon="4.49785">
        <ele>367.60000610352</ele>
        <time>2020-03-14T16:19:33.000Z</time>
      </trkpt>
      <trkpt lat="45.88488" lon="4.49794">
        <ele>367.39999389648</ele>
        <time>2020-03-14T16:19:34.000Z</time>
      </trkpt>
      <trkpt lat="45.88487" lon="4.49804">
        <ele>367.20001220703</ele>
        <time>2020-03-14T16:19:35.000Z</time>
      </trkpt>
      <trkpt lat="45.88487" lon="4.49815">
        <ele>367.20001220703</ele>
        <time>2020-03-14T16:19:36.000Z</time>
      </trkpt>
      <trkpt lat="45.88486" lon="4.49825">
        <ele>367</ele>
        <time>2020-03-14T16:19:37.000Z</time>
      </trkpt>
      <trkpt lat="45.88486" lon="4.49835">
        <ele>366.79998779297</ele>
        <time>2020-03-14T16:19:38.000Z</time>
      </trkpt>
      <trkpt lat="45.88486" lon="4.49845">
        <ele>366.79998779297</ele>
        <time>2020-03-14T16:19:39.000Z</time>
      </trkpt>
      <trkpt lat="45.88488" lon="4.49856">
        <ele>366.60000610352</ele>
        <time>2020-03-14T16:19:40.000Z</time>
      </trkpt>
      <trkpt lat="45.88489" lon="4.49866">
        <ele>366.60000610352</ele>
        <time>2020-03-14T16:19:41.000Z</time>
      </trkpt>
      <trkpt lat="45.88491" lon="4.49876">
        <ele>366.60000610352</ele>
        <time>2020-03-14T16:19:42.000Z</time>
      </trkpt>
      <trkpt lat="45.88493" lon="4.49885">
        <ele>366.39999389648</ele>
        <time>2020-03-14T16:19:43.000Z</time>
      </trkpt>
      <trkpt lat="45.88494" lon="4.49895">
        <ele>366.20001220703</ele>
        <time>2020-03-14T16:19:44.000Z</time>
      </trkpt>
      <trkpt lat="45.88496" lon="4.49905">
        <ele>366</ele>
        <time>2020-03-14T16:19:45.000Z</time>
      </trkpt>
      <trkpt lat="45.88497" lon="4.49915">
        <ele>365.79998779297</ele>
        <time>2020-03-14T16:19:46.000Z</time>
      </trkpt>
      <trkpt lat="45.88499" lon="4.49924">
        <ele>365.39999389648</ele>
        <time>2020-03-14T16:19:47.000Z</time>
      </trkpt>
      <trkpt lat="45.88501" lon="4.49934">
        <ele>365</ele>
        <time>2020-03-14T16:19:48.000Z</time>
      </trkpt>
      <trkpt lat="45.88503" lon="4.49944">
        <ele>364.79998779297</ele>
        <time>2020-03-14T16:19:49.000Z</time>
      </trkpt>
      <trkpt lat="45.88506" lon="4.49953">
        <ele>364.39999389648</ele>
        <time>2020-03-14T16:19:50.000Z</time>
      </trkpt>
      <trkpt lat="45.88508" lon="4.49963">
        <ele>364.39999389648</ele>
        <time>2020-03-14T16:19:51.000Z</time>
      </trkpt>
      <trkpt lat="45.88511" lon="4.49972">
        <ele>364.20001220703</ele>
        <time>2020-03-14T16:19:52.000Z</time>
      </trkpt>
      <trkpt lat="45.88514" lon="4.49981">
        <ele>363.79998779297</ele>
        <time>2020-03-14T16:19:53.000Z</time>
      </trkpt>
      <trkpt lat="45.88517" lon="4.4999">
        <ele>363.39999389648</ele>
        <time>2020-03-14T16:19:54.000Z</time>
      </trkpt>
      <trkpt lat="45.88521" lon="4.49999">
        <ele>363.39999389648</ele>
        <time>2020-03-14T16:19:55.000Z</time>
      </trkpt>
      <trkpt lat="45.88524" lon="4.50008">
        <ele>363.20001220703</ele>
        <time>2020-03-14T16:19:56.000Z</time>
      </trkpt>
      <trkpt lat="45.88527" lon="4.50017">
        <ele>363.20001220703</ele>
        <time>2020-03-14T16:19:57.000Z</time>
      </trkpt>
      <trkpt lat="45.8853" lon="4.50025">
        <ele>363.20001220703</ele>
        <time>2020-03-14T16:19:58.000Z</time>
      </trkpt>
      <trkpt lat="45.88533" lon="4.50034">
        <ele>363.20001220703</ele>
        <time>2020-03-14T16:19:59.000Z</time>
      </trkpt>
      <trkpt lat="45.88535" lon="4.50042">
        <ele>363.39999389648</ele>
        <time>2020-03-14T16:20:00.000Z</time>
      </trkpt>
      <trkpt lat="45.88538" lon="4.50051">
        <ele>363.39999389648</ele>
        <time>2020-03-14T16:20:01.000Z</time>
      </trkpt>
      <trkpt lat="45.8854" lon="4.5006">
        <ele>363.60000610352</ele>
        <time>2020-03-14T16:20:02.000Z</time>
      </trkpt>
      <trkpt lat="45.88542" lon="4.50068">
        <ele>363.60000610352</ele>
        <time>2020-03-14T16:20:03.000Z</time>
      </trkpt>
      <trkpt lat="45.88545" lon="4.50076">
        <ele>363.60000610352</ele>
        <time>2020-03-14T16:20:04.000Z</time>
      </trkpt>
      <trkpt lat="45.88548" lon="4.50084">
        <ele>363.60000610352</ele>
        <time>2020-03-14T16:20:05.000Z</time>
      </trkpt>
      <trkpt lat="45.88551" lon="4.50091">
        <ele>363.60000610352</ele>
        <time>2020-03-14T16:20:06.000Z</time>
      </trkpt>
      <trkpt lat="45.88555" lon="4.50099">
        <ele>363.60000610352</ele>
        <time>2020-03-14T16:20:07.000Z</time>
      </trkpt>
      <trkpt lat="45.88559" lon="4.50106">
        <ele>363.60000610352</ele>
        <time>2020-03-14T16:20:08.000Z</time>
      </trkpt>
      <trkpt lat="45.88563" lon="4.50113">
        <ele>363.39999389648</ele>
        <time>2020-03-14T16:20:09.000Z</time>
      </trkpt>
      <trkpt lat="45.88567" lon="4.5012">
        <ele>363.39999389648</ele>
        <time>2020-03-14T16:20:10.000Z</time>
      </trkpt>
      <trkpt lat="45.88571" lon="4.50127">
        <ele>363.39999389648</ele>
        <time>2020-03-14T16:20:11.000Z</time>
      </trkpt>
      <trkpt lat="45.88576" lon="4.50132">
        <ele>363.20001220703</ele>
        <time>2020-03-14T16:20:12.000Z</time>
      </trkpt>
      <trkpt lat="45.88581" lon="4.50138">
        <ele>363.20001220703</ele>
        <time>2020-03-14T16:20:13.000Z</time>
      </trkpt>
      <trkpt lat="45.88586" lon="4.50144">
        <ele>363</ele>
        <time>2020-03-14T16:20:14.000Z</time>
      </trkpt>
      <trkpt lat="45.88591" lon="4.5015">
        <ele>362.79998779297</ele>
        <time>2020-03-14T16:20:15.000Z</time>
      </trkpt>
      <trkpt lat="45.88596" lon="4.50155">
        <ele>362.60000610352</ele>
        <time>2020-03-14T16:20:16.000Z</time>
      </trkpt>
      <trkpt lat="45.88601" lon="4.5016">
        <ele>362.39999389648</ele>
        <time>2020-03-14T16:20:17.000Z</time>
      </trkpt>
      <trkpt lat="45.88606" lon="4.50164">
        <ele>362.20001220703</ele>
        <time>2020-03-14T16:20:18.000Z</time>
      </trkpt>
      <trkpt lat="45.88611" lon="4.50168">
        <ele>362.20001220703</ele>
        <time>2020-03-14T16:20:19.000Z</time>
      </trkpt>
      <trkpt lat="45.88615" lon="4.50173">
        <ele>362</ele>
        <time>2020-03-14T16:20:20.000Z</time>
      </trkpt>
      <trkpt lat="45.88619" lon="4.50178">
        <ele>362.20001220703</ele>
        <time>2020-03-14T16:20:21.000Z</time>
      </trkpt>
      <trkpt lat="45.88622" lon="4.50183">
        <ele>362.39999389648</ele>
        <time>2020-03-14T16:20:22.000Z</time>
      </trkpt>
      <trkpt lat="45.88625" lon="4.50189">
        <ele>362.60000610352</ele>
        <time>2020-03-14T16:20:23.000Z</time>
      </trkpt>
      <trkpt lat="45.88627" lon="4.50195">
        <ele>362.79998779297</ele>
        <time>2020-03-14T16:20:24.000Z</time>
      </trkpt>
      <trkpt lat="45.88628" lon="4.50202">
        <ele>363.20001220703</ele>
        <time>2020-03-14T16:20:25.000Z</time>
      </trkpt>
      <trkpt lat="45.8863" lon="4.50208">
        <ele>363.39999389648</ele>
        <time>2020-03-14T16:20:26.000Z</time>
      </trkpt>
      <trkpt lat="45.88631" lon="4.50216">
        <ele>363.60000610352</ele>
        <time>2020-03-14T16:20:27.000Z</time>
      </trkpt>
      <trkpt lat="45.88632" lon="4.50223">
        <ele>363.79998779297</ele>
        <time>2020-03-14T16:20:28.000Z</time>
      </trkpt>
      <trkpt lat="45.88634" lon="4.50229">
        <ele>364</ele>
        <time>2020-03-14T16:20:29.000Z</time>
      </trkpt>
      <trkpt lat="45.88635" lon="4.50235">
        <ele>364.20001220703</ele>
        <time>2020-03-14T16:20:30.000Z</time>
      </trkpt>
      <trkpt lat="45.88636" lon="4.50242">
        <ele>364.39999389648</ele>
        <time>2020-03-14T16:20:31.000Z</time>
      </trkpt>
      <trkpt lat="45.88638" lon="4.50247">
        <ele>364.39999389648</ele>
        <time>2020-03-14T16:20:32.000Z</time>
      </trkpt>
      <trkpt lat="45.88639" lon="4.50252">
        <ele>364.60000610352</ele>
        <time>2020-03-14T16:20:33.000Z</time>
      </trkpt>
      <trkpt lat="45.88639" lon="4.50256">
        <ele>364.60000610352</ele>
        <time>2020-03-14T16:20:34.000Z</time>
      </trkpt>
      <trkpt lat="45.8864" lon="4.50261">
        <ele>364.79998779297</ele>
        <time>2020-03-14T16:20:35.000Z</time>
      </trkpt>
      <trkpt lat="45.88641" lon="4.50264">
        <ele>365</ele>
        <time>2020-03-14T16:20:36.000Z</time>
      </trkpt>
      <trkpt lat="45.88642" lon="4.50268">
        <ele>365.20001220703</ele>
        <time>2020-03-14T16:20:37.000Z</time>
      </trkpt>
      <trkpt lat="45.88642" lon="4.50271">
        <ele>365.39999389648</ele>
        <time>2020-03-14T16:20:38.000Z</time>
      </trkpt>
      <trkpt lat="45.88642" lon="4.50275">
        <ele>365.79998779297</ele>
        <time>2020-03-14T16:20:39.000Z</time>
      </trkpt>
      <trkpt lat="45.88643" lon="4.50278">
        <ele>366</ele>
        <time>2020-03-14T16:20:40.000Z</time>
      </trkpt>
      <trkpt lat="45.88643" lon="4.50281">
        <ele>366.20001220703</ele>
        <time>2020-03-14T16:20:41.000Z</time>
      </trkpt>
      <trkpt lat="45.88644" lon="4.50284">
        <ele>366.39999389648</ele>
        <time>2020-03-14T16:20:42.000Z</time>
      </trkpt>
      <trkpt lat="45.88644" lon="4.50287">
        <ele>366.60000610352</ele>
        <time>2020-03-14T16:20:43.000Z</time>
      </trkpt>
      <trkpt lat="45.88645" lon="4.5029">
        <ele>366.60000610352</ele>
        <time>2020-03-14T16:20:44.000Z</time>
      </trkpt>
      <trkpt lat="45.88645" lon="4.50293">
        <ele>366.60000610352</ele>
        <time>2020-03-14T16:20:45.000Z</time>
      </trkpt>
      <trkpt lat="45.88645" lon="4.50296">
        <ele>366.79998779297</ele>
        <time>2020-03-14T16:20:46.000Z</time>
      </trkpt>
      <trkpt lat="45.88646" lon="4.50299">
        <ele>367</ele>
        <time>2020-03-14T16:20:47.000Z</time>
      </trkpt>
      <trkpt lat="45.88647" lon="4.50301">
        <ele>367.39999389648</ele>
        <time>2020-03-14T16:20:48.000Z</time>
      </trkpt>
      <trkpt lat="45.88647" lon="4.50304">
        <ele>367.79998779297</ele>
        <time>2020-03-14T16:20:49.000Z</time>
      </trkpt>
      <trkpt lat="45.88648" lon="4.50307">
        <ele>368.39999389648</ele>
        <time>2020-03-14T16:20:50.000Z</time>
      </trkpt>
      <trkpt lat="45.88648" lon="4.50309">
        <ele>368.60000610352</ele>
        <time>2020-03-14T16:20:51.000Z</time>
      </trkpt>
      <trkpt lat="45.88649" lon="4.50312">
        <ele>368.60000610352</ele>
        <time>2020-03-14T16:20:52.000Z</time>
      </trkpt>
      <trkpt lat="45.88649" lon="4.50315">
        <ele>368.79998779297</ele>
        <time>2020-03-14T16:20:53.000Z</time>
      </trkpt>
      <trkpt lat="45.8865" lon="4.50318">
        <ele>368.79998779297</ele>
        <time>2020-03-14T16:20:54.000Z</time>
      </trkpt>
      <trkpt lat="45.8865" lon="4.50322">
        <ele>368.79998779297</ele>
        <time>2020-03-14T16:20:55.000Z</time>
      </trkpt>
      <trkpt lat="45.88651" lon="4.50325">
        <ele>368.79998779297</ele>
        <time>2020-03-14T16:20:56.000Z</time>
      </trkpt>
      <trkpt lat="45.88651" lon="4.50327">
        <ele>368.79998779297</ele>
        <time>2020-03-14T16:20:57.000Z</time>
      </trkpt>
      <trkpt lat="45.88652" lon="4.5033">
        <ele>368.79998779297</ele>
        <time>2020-03-14T16:20:58.000Z</time>
      </trkpt>
      <trkpt lat="45.88653" lon="4.50334">
        <ele>368.79998779297</ele>
        <time>2020-03-14T16:20:59.000Z</time>
      </trkpt>
      <trkpt lat="45.88653" lon="4.50337">
        <ele>368.79998779297</ele>
        <time>2020-03-14T16:21:00.000Z</time>
      </trkpt>
      <trkpt lat="45.88654" lon="4.5034">
        <ele>369</ele>
        <time>2020-03-14T16:21:01.000Z</time>
      </trkpt>
      <trkpt lat="45.88655" lon="4.50343">
        <ele>369</ele>
        <time>2020-03-14T16:21:02.000Z</time>
      </trkpt>
      <trkpt lat="45.88656" lon="4.50346">
        <ele>369.20001220703</ele>
        <time>2020-03-14T16:21:03.000Z</time>
      </trkpt>
      <trkpt lat="45.88657" lon="4.50349">
        <ele>369.20001220703</ele>
        <time>2020-03-14T16:21:04.000Z</time>
      </trkpt>
      <trkpt lat="45.88658" lon="4.50353">
        <ele>369.20001220703</ele>
        <time>2020-03-14T16:21:05.000Z</time>
      </trkpt>
      <trkpt lat="45.8866" lon="4.50357">
        <ele>369.20001220703</ele>
        <time>2020-03-14T16:21:06.000Z</time>
      </trkpt>
      <trkpt lat="45.88661" lon="4.5036">
        <ele>369.20001220703</ele>
        <time>2020-03-14T16:21:07.000Z</time>
      </trkpt>
      <trkpt lat="45.88662" lon="4.50363">
        <ele>369.20001220703</ele>
        <time>2020-03-14T16:21:08.000Z</time>
      </trkpt>
      <trkpt lat="45.88664" lon="4.50367">
        <ele>369.39999389648</ele>
        <time>2020-03-14T16:21:09.000Z</time>
      </trkpt>
      <trkpt lat="45.88665" lon="4.5037">
        <ele>369.39999389648</ele>
        <time>2020-03-14T16:21:10.000Z</time>
      </trkpt>
      <trkpt lat="45.88667" lon="4.50374">
        <ele>369.60000610352</ele>
        <time>2020-03-14T16:21:11.000Z</time>
      </trkpt>
      <trkpt lat="45.88669" lon="4.50378">
        <ele>369.60000610352</ele>
        <time>2020-03-14T16:21:12.000Z</time>
      </trkpt>
      <trkpt lat="45.8867" lon="4.50382">
        <ele>369.60000610352</ele>
        <time>2020-03-14T16:21:13.000Z</time>
      </trkpt>
      <trkpt lat="45.88672" lon="4.50386">
        <ele>369.60000610352</ele>
        <time>2020-03-14T16:21:14.000Z</time>
      </trkpt>
      <trkpt lat="45.88674" lon="4.5039">
        <ele>369.60000610352</ele>
        <time>2020-03-14T16:21:15.000Z</time>
      </trkpt>
      <trkpt lat="45.88675" lon="4.50395">
        <ele>369.79998779297</ele>
        <time>2020-03-14T16:21:16.000Z</time>
      </trkpt>
      <trkpt lat="45.88677" lon="4.50399">
        <ele>370</ele>
        <time>2020-03-14T16:21:17.000Z</time>
      </trkpt>
      <trkpt lat="45.88679" lon="4.50404">
        <ele>370</ele>
        <time>2020-03-14T16:21:18.000Z</time>
      </trkpt>
      <trkpt lat="45.8868" lon="4.50409">
        <ele>370</ele>
        <time>2020-03-14T16:21:19.000Z</time>
      </trkpt>
      <trkpt lat="45.88682" lon="4.50414">
        <ele>370</ele>
        <time>2020-03-14T16:21:20.000Z</time>
      </trkpt>
      <trkpt lat="45.88683" lon="4.50418">
        <ele>370</ele>
        <time>2020-03-14T16:21:21.000Z</time>
      </trkpt>
      <trkpt lat="45.88684" lon="4.50423">
        <ele>370</ele>
        <time>2020-03-14T16:21:22.000Z</time>
      </trkpt>
      <trkpt lat="45.88686" lon="4.50429">
        <ele>370</ele>
        <time>2020-03-14T16:21:23.000Z</time>
      </trkpt>
      <trkpt lat="45.88687" lon="4.50434">
        <ele>370</ele>
        <time>2020-03-14T16:21:24.000Z</time>
      </trkpt>
      <trkpt lat="45.88688" lon="4.5044">
        <ele>369.79998779297</ele>
        <time>2020-03-14T16:21:25.000Z</time>
      </trkpt>
      <trkpt lat="45.88689" lon="4.50445">
        <ele>369.79998779297</ele>
        <time>2020-03-14T16:21:26.000Z</time>
      </trkpt>
      <trkpt lat="45.8869" lon="4.50451">
        <ele>369.79998779297</ele>
        <time>2020-03-14T16:21:27.000Z</time>
      </trkpt>
      <trkpt lat="45.88691" lon="4.50456">
        <ele>369.60000610352</ele>
        <time>2020-03-14T16:21:28.000Z</time>
      </trkpt>
      <trkpt lat="45.88692" lon="4.50462">
        <ele>369.60000610352</ele>
        <time>2020-03-14T16:21:29.000Z</time>
      </trkpt>
      <trkpt lat="45.88693" lon="4.50468">
        <ele>369.39999389648</ele>
        <time>2020-03-14T16:21:30.000Z</time>
      </trkpt>
      <trkpt lat="45.88694" lon="4.50474">
        <ele>369.39999389648</ele>
        <time>2020-03-14T16:21:31.000Z</time>
      </trkpt>
      <trkpt lat="45.88695" lon="4.5048">
        <ele>369.60000610352</ele>
        <time>2020-03-14T16:21:32.000Z</time>
      </trkpt>
      <trkpt lat="45.88696" lon="4.50487">
        <ele>369.60000610352</ele>
        <time>2020-03-14T16:21:33.000Z</time>
      </trkpt>
      <trkpt lat="45.88696" lon="4.50494">
        <ele>369.79998779297</ele>
        <time>2020-03-14T16:21:34.000Z</time>
      </trkpt>
      <trkpt lat="45.88697" lon="4.505">
        <ele>369.79998779297</ele>
        <time>2020-03-14T16:21:35.000Z</time>
      </trkpt>
      <trkpt lat="45.88698" lon="4.50507">
        <ele>369.79998779297</ele>
        <time>2020-03-14T16:21:36.000Z</time>
      </trkpt>
      <trkpt lat="45.88698" lon="4.50513">
        <ele>369.79998779297</ele>
        <time>2020-03-14T16:21:37.000Z</time>
      </trkpt>
      <trkpt lat="45.88699" lon="4.5052">
        <ele>370</ele>
        <time>2020-03-14T16:21:38.000Z</time>
      </trkpt>
      <trkpt lat="45.887" lon="4.50526">
        <ele>370</ele>
        <time>2020-03-14T16:21:39.000Z</time>
      </trkpt>
      <trkpt lat="45.88701" lon="4.50533">
        <ele>370.20001220703</ele>
        <time>2020-03-14T16:21:40.000Z</time>
      </trkpt>
      <trkpt lat="45.88702" lon="4.50539">
        <ele>370.20001220703</ele>
        <time>2020-03-14T16:21:41.000Z</time>
      </trkpt>
      <trkpt lat="45.88703" lon="4.50545">
        <ele>370.39999389648</ele>
        <time>2020-03-14T16:21:42.000Z</time>
      </trkpt>
      <trkpt lat="45.88703" lon="4.50552">
        <ele>370.39999389648</ele>
        <time>2020-03-14T16:21:43.000Z</time>
      </trkpt>
      <trkpt lat="45.88704" lon="4.50559">
        <ele>370.20001220703</ele>
        <time>2020-03-14T16:21:44.000Z</time>
      </trkpt>
      <trkpt lat="45.88704" lon="4.50566">
        <ele>370.20001220703</ele>
        <time>2020-03-14T16:21:45.000Z</time>
      </trkpt>
      <trkpt lat="45.88705" lon="4.50573">
        <ele>370</ele>
        <time>2020-03-14T16:21:46.000Z</time>
      </trkpt>
      <trkpt lat="45.88705" lon="4.50581">
        <ele>370</ele>
        <time>2020-03-14T16:21:47.000Z</time>
      </trkpt>
      <trkpt lat="45.88706" lon="4.50588">
        <ele>370</ele>
        <time>2020-03-14T16:21:48.000Z</time>
      </trkpt>
      <trkpt lat="45.88706" lon="4.50596">
        <ele>370</ele>
        <time>2020-03-14T16:21:49.000Z</time>
      </trkpt>
      <trkpt lat="45.88707" lon="4.50604">
        <ele>370</ele>
        <time>2020-03-14T16:21:50.000Z</time>
      </trkpt>
      <trkpt lat="45.88707" lon="4.50612">
        <ele>370</ele>
        <time>2020-03-14T16:21:51.000Z</time>
      </trkpt>
      <trkpt lat="45.88708" lon="4.50619">
        <ele>369.79998779297</ele>
        <time>2020-03-14T16:21:52.000Z</time>
      </trkpt>
      <trkpt lat="45.88708" lon="4.50627">
        <ele>369.60000610352</ele>
        <time>2020-03-14T16:21:53.000Z</time>
      </trkpt>
      <trkpt lat="45.88709" lon="4.50634">
        <ele>369.60000610352</ele>
        <time>2020-03-14T16:21:54.000Z</time>
      </trkpt>
      <trkpt lat="45.88709" lon="4.50641">
        <ele>369.39999389648</ele>
        <time>2020-03-14T16:21:55.000Z</time>
      </trkpt>
      <trkpt lat="45.8871" lon="4.50649">
        <ele>369.39999389648</ele>
        <time>2020-03-14T16:21:56.000Z</time>
      </trkpt>
      <trkpt lat="45.88711" lon="4.50656">
        <ele>369.39999389648</ele>
        <time>2020-03-14T16:21:57.000Z</time>
      </trkpt>
      <trkpt lat="45.88711" lon="4.50663">
        <ele>369.39999389648</ele>
        <time>2020-03-14T16:21:58.000Z</time>
      </trkpt>
      <trkpt lat="45.88712" lon="4.5067">
        <ele>369.60000610352</ele>
        <time>2020-03-14T16:21:59.000Z</time>
      </trkpt>
      <trkpt lat="45.88712" lon="4.50677">
        <ele>369.60000610352</ele>
        <time>2020-03-14T16:22:00.000Z</time>
      </trkpt>
      <trkpt lat="45.88713" lon="4.50683">
        <ele>369.60000610352</ele>
        <time>2020-03-14T16:22:01.000Z</time>
      </trkpt>
      <trkpt lat="45.88713" lon="4.5069">
        <ele>369.79998779297</ele>
        <time>2020-03-14T16:22:02.000Z</time>
      </trkpt>
      <trkpt lat="45.88714" lon="4.50697">
        <ele>369.79998779297</ele>
        <time>2020-03-14T16:22:03.000Z</time>
      </trkpt>
      <trkpt lat="45.88715" lon="4.50704">
        <ele>370</ele>
        <time>2020-03-14T16:22:04.000Z</time>
      </trkpt>
      <trkpt lat="45.88716" lon="4.50711">
        <ele>370.20001220703</ele>
        <time>2020-03-14T16:22:05.000Z</time>
      </trkpt>
      <trkpt lat="45.88717" lon="4.50717">
        <ele>370.20001220703</ele>
        <time>2020-03-14T16:22:06.000Z</time>
      </trkpt>
      <trkpt lat="45.88717" lon="4.50724">
        <ele>370.20001220703</ele>
        <time>2020-03-14T16:22:07.000Z</time>
      </trkpt>
      <trkpt lat="45.88717" lon="4.50731">
        <ele>370.20001220703</ele>
        <time>2020-03-14T16:22:08.000Z</time>
      </trkpt>
      <trkpt lat="45.88718" lon="4.50738">
        <ele>370.20001220703</ele>
        <time>2020-03-14T16:22:09.000Z</time>
      </trkpt>
      <trkpt lat="45.88718" lon="4.50744">
        <ele>370.20001220703</ele>
        <time>2020-03-14T16:22:10.000Z</time>
      </trkpt>
      <trkpt lat="45.88719" lon="4.5075">
        <ele>370.20001220703</ele>
        <time>2020-03-14T16:22:11.000Z</time>
      </trkpt>
      <trkpt lat="45.88719" lon="4.50756">
        <ele>370.39999389648</ele>
        <time>2020-03-14T16:22:12.000Z</time>
      </trkpt>
      <trkpt lat="45.8872" lon="4.50762">
        <ele>370.60000610352</ele>
        <time>2020-03-14T16:22:13.000Z</time>
      </trkpt>
      <trkpt lat="45.8872" lon="4.50768">
        <ele>370.60000610352</ele>
        <time>2020-03-14T16:22:14.000Z</time>
      </trkpt>
      <trkpt lat="45.88721" lon="4.50774">
        <ele>370.39999389648</ele>
        <time>2020-03-14T16:22:15.000Z</time>
      </trkpt>
      <trkpt lat="45.88722" lon="4.5078">
        <ele>370.20001220703</ele>
        <time>2020-03-14T16:22:16.000Z</time>
      </trkpt>
      <trkpt lat="45.88723" lon="4.50785">
        <ele>370.39999389648</ele>
        <time>2020-03-14T16:22:17.000Z</time>
      </trkpt>
      <trkpt lat="45.88724" lon="4.5079">
        <ele>370.60000610352</ele>
        <time>2020-03-14T16:22:18.000Z</time>
      </trkpt>
      <trkpt lat="45.88724" lon="4.50796">
        <ele>370.60000610352</ele>
        <time>2020-03-14T16:22:19.000Z</time>
      </trkpt>
      <trkpt lat="45.88724" lon="4.508">
        <ele>370.60000610352</ele>
        <time>2020-03-14T16:22:20.000Z</time>
      </trkpt>
      <trkpt lat="45.88724" lon="4.50805">
        <ele>370.79998779297</ele>
        <time>2020-03-14T16:22:21.000Z</time>
      </trkpt>
      <trkpt lat="45.88724" lon="4.5081">
        <ele>371</ele>
        <time>2020-03-14T16:22:22.000Z</time>
      </trkpt>
      <trkpt lat="45.88724" lon="4.50815">
        <ele>371.20001220703</ele>
        <time>2020-03-14T16:22:23.000Z</time>
      </trkpt>
      <trkpt lat="45.88723" lon="4.5082">
        <ele>371.39999389648</ele>
        <time>2020-03-14T16:22:24.000Z</time>
      </trkpt>
      <trkpt lat="45.88723" lon="4.50826">
        <ele>371.39999389648</ele>
        <time>2020-03-14T16:22:25.000Z</time>
      </trkpt>
      <trkpt lat="45.88723" lon="4.50833">
        <ele>371.39999389648</ele>
        <time>2020-03-14T16:22:26.000Z</time>
      </trkpt>
      <trkpt lat="45.88723" lon="4.50839">
        <ele>371.39999389648</ele>
        <time>2020-03-14T16:22:27.000Z</time>
      </trkpt>
      <trkpt lat="45.88723" lon="4.50845">
        <ele>371.39999389648</ele>
        <time>2020-03-14T16:22:28.000Z</time>
      </trkpt>
      <trkpt lat="45.88723" lon="4.50851">
        <ele>371.20001220703</ele>
        <time>2020-03-14T16:22:29.000Z</time>
      </trkpt>
      <trkpt lat="45.88723" lon="4.50858">
        <ele>371.20001220703</ele>
        <time>2020-03-14T16:22:30.000Z</time>
      </trkpt>
      <trkpt lat="45.88723" lon="4.50864">
        <ele>371.20001220703</ele>
        <time>2020-03-14T16:22:31.000Z</time>
      </trkpt>
      <trkpt lat="45.88722" lon="4.5087">
        <ele>371.20001220703</ele>
        <time>2020-03-14T16:22:32.000Z</time>
      </trkpt>
      <trkpt lat="45.88722" lon="4.50877">
        <ele>371.20001220703</ele>
        <time>2020-03-14T16:22:33.000Z</time>
      </trkpt>
      <trkpt lat="45.88722" lon="4.50883">
        <ele>371.20001220703</ele>
        <time>2020-03-14T16:22:34.000Z</time>
      </trkpt>
      <trkpt lat="45.88722" lon="4.50889">
        <ele>371.20001220703</ele>
        <time>2020-03-14T16:22:35.000Z</time>
      </trkpt>
      <trkpt lat="45.88722" lon="4.50896">
        <ele>371.20001220703</ele>
        <time>2020-03-14T16:22:36.000Z</time>
      </trkpt>
      <trkpt lat="45.88722" lon="4.50902">
        <ele>371</ele>
        <time>2020-03-14T16:22:37.000Z</time>
      </trkpt>
      <trkpt lat="45.88722" lon="4.50908">
        <ele>371</ele>
        <time>2020-03-14T16:22:38.000Z</time>
      </trkpt>
      <trkpt lat="45.88722" lon="4.50914">
        <ele>371</ele>
        <time>2020-03-14T16:22:39.000Z</time>
      </trkpt>
      <trkpt lat="45.88723" lon="4.50921">
        <ele>370.79998779297</ele>
        <time>2020-03-14T16:22:40.000Z</time>
      </trkpt>
      <trkpt lat="45.88723" lon="4.50928">
        <ele>370.79998779297</ele>
        <time>2020-03-14T16:22:41.000Z</time>
      </trkpt>
      <trkpt lat="45.88724" lon="4.50936">
        <ele>370.60000610352</ele>
        <time>2020-03-14T16:22:42.000Z</time>
      </trkpt>
      <trkpt lat="45.88724" lon="4.50944">
        <ele>370.39999389648</ele>
        <time>2020-03-14T16:22:43.000Z</time>
      </trkpt>
      <trkpt lat="45.88725" lon="4.50953">
        <ele>370</ele>
        <time>2020-03-14T16:22:44.000Z</time>
      </trkpt>
      <trkpt lat="45.88725" lon="4.50962">
        <ele>369.60000610352</ele>
        <time>2020-03-14T16:22:45.000Z</time>
      </trkpt>
      <trkpt lat="45.88726" lon="4.50971">
        <ele>369</ele>
        <time>2020-03-14T16:22:46.000Z</time>
      </trkpt>
      <trkpt lat="45.88725" lon="4.50981">
        <ele>368.39999389648</ele>
        <time>2020-03-14T16:22:47.000Z</time>
      </trkpt>
      <trkpt lat="45.88724" lon="4.50991">
        <ele>367.79998779297</ele>
        <time>2020-03-14T16:22:48.000Z</time>
      </trkpt>
      <trkpt lat="45.88721" lon="4.51001">
        <ele>367.20001220703</ele>
        <time>2020-03-14T16:22:49.000Z</time>
      </trkpt>
      <trkpt lat="45.88718" lon="4.5101">
        <ele>366.79998779297</ele>
        <time>2020-03-14T16:22:50.000Z</time>
      </trkpt>
      <trkpt lat="45.88713" lon="4.5102">
        <ele>366.39999389648</ele>
        <time>2020-03-14T16:22:51.000Z</time>
      </trkpt>
      <trkpt lat="45.88707" lon="4.51029">
        <ele>366</ele>
        <time>2020-03-14T16:22:52.000Z</time>
      </trkpt>
      <trkpt lat="45.88702" lon="4.51038">
        <ele>365.39999389648</ele>
        <time>2020-03-14T16:22:53.000Z</time>
      </trkpt>
      <trkpt lat="45.88696" lon="4.51046">
        <ele>364.79998779297</ele>
        <time>2020-03-14T16:22:54.000Z</time>
      </trkpt>
      <trkpt lat="45.8869" lon="4.51055">
        <ele>364.20001220703</ele>
        <time>2020-03-14T16:22:55.000Z</time>
      </trkpt>
      <trkpt lat="45.88684" lon="4.51064">
        <ele>363.79998779297</ele>
        <time>2020-03-14T16:22:56.000Z</time>
      </trkpt>
      <trkpt lat="45.88678" lon="4.51072">
        <ele>363.60000610352</ele>
        <time>2020-03-14T16:22:57.000Z</time>
      </trkpt>
      <trkpt lat="45.88672" lon="4.51081">
        <ele>363.20001220703</ele>
        <time>2020-03-14T16:22:58.000Z</time>
      </trkpt>
      <trkpt lat="45.88667" lon="4.51089">
        <ele>362.79998779297</ele>
        <time>2020-03-14T16:22:59.000Z</time>
      </trkpt>
      <trkpt lat="45.88662" lon="4.51097">
        <ele>362.20001220703</ele>
        <time>2020-03-14T16:23:00.000Z</time>
      </trkpt>
      <trkpt lat="45.88657" lon="4.51106">
        <ele>362</ele>
        <time>2020-03-14T16:23:01.000Z</time>
      </trkpt>
      <trkpt lat="45.88652" lon="4.51113">
        <ele>361.60000610352</ele>
        <time>2020-03-14T16:23:02.000Z</time>
      </trkpt>
      <trkpt lat="45.88648" lon="4.51121">
        <ele>361.39999389648</ele>
        <time>2020-03-14T16:23:03.000Z</time>
      </trkpt>
      <trkpt lat="45.88884" lon="4.5174">
        <ele>374.1</ele>
        <time>2020-03-14T16:23:04.000Z</time>
      </trkpt>
    </trkseg>
  </trk>
</gpx>